<?xml version="1.0" encoding="UTF-8" standalone="no" ?>
<gpx xmlns="http://www.topografix.com/GPX/1/1" xmlns:xsi="http://www.w3.org/2001/XMLSchema-instance" xsi:schemaLocation="http://www.topografix.com/GPX/1/1 http://www.topografix.com/GPX/1/1/gpx.xsd" version="1.1" creator="VisuGPX - https://www.visugpx.com">
  <metadata>
    <name>CLANS CHAPELLE St ANNE LA TOUR</name>
    <desc><![CDATA[Clans montée par la chapelle, puis la piste.
Superbes descentes, retour La tour Clans par un chemin puis une piste un peu longue.
L'alternative c'est une navette entre Roussillon et clans, ce qui permet de finir par une belle descente.]]></desc>
  </metadata>
  <trk>
    <name><![CDATA[20190511215745-ruJWK]]></name>
    <trkseg>
      <trkpt lat="43.9966" lon="7.15051">
        <ele>695.59997558594</ele>
        <time>2019-05-11T08:10:45.000Z</time>
      </trkpt>
      <trkpt lat="43.99663" lon="7.15056">
        <ele>695.59997558594</ele>
        <time>2019-05-11T08:10:47.000Z</time>
      </trkpt>
      <trkpt lat="43.99666" lon="7.15061">
        <ele>696.40002441406</ele>
        <time>2019-05-11T08:10:49.000Z</time>
      </trkpt>
      <trkpt lat="43.9967" lon="7.15081">
        <ele>696.40002441406</ele>
        <time>2019-05-11T08:10:55.000Z</time>
      </trkpt>
      <trkpt lat="43.99666" lon="7.15099">
        <ele>696.40002441406</ele>
        <time>2019-05-11T08:11:00.000Z</time>
      </trkpt>
      <trkpt lat="43.9966" lon="7.15121">
        <ele>696.79998779297</ele>
        <time>2019-05-11T08:11:06.000Z</time>
      </trkpt>
      <trkpt lat="43.99659" lon="7.15124">
        <ele>696.79998779297</ele>
        <time>2019-05-11T08:11:07.000Z</time>
      </trkpt>
      <trkpt lat="43.99648" lon="7.15151">
        <ele>697.59997558594</ele>
        <time>2019-05-11T08:11:15.000Z</time>
      </trkpt>
      <trkpt lat="43.99645" lon="7.15156">
        <ele>697.79998779297</ele>
        <time>2019-05-11T08:11:17.000Z</time>
      </trkpt>
      <trkpt lat="43.99641" lon="7.15168">
        <ele>698</ele>
        <time>2019-05-11T08:11:21.000Z</time>
      </trkpt>
      <trkpt lat="43.99635" lon="7.15191">
        <ele>698.59997558594</ele>
        <time>2019-05-11T08:11:28.000Z</time>
      </trkpt>
      <trkpt lat="43.99634" lon="7.15199">
        <ele>698.79998779297</ele>
        <time>2019-05-11T08:11:30.000Z</time>
      </trkpt>
      <trkpt lat="43.9963" lon="7.15219">
        <ele>699.40002441406</ele>
        <time>2019-05-11T08:11:36.000Z</time>
      </trkpt>
      <trkpt lat="43.99628" lon="7.15228">
        <ele>699.79998779297</ele>
        <time>2019-05-11T08:11:39.000Z</time>
      </trkpt>
      <trkpt lat="43.99624" lon="7.15243">
        <ele>700.59997558594</ele>
        <time>2019-05-11T08:11:44.000Z</time>
      </trkpt>
      <trkpt lat="43.99623" lon="7.15252">
        <ele>700.79998779297</ele>
        <time>2019-05-11T08:11:47.000Z</time>
      </trkpt>
      <trkpt lat="43.9962" lon="7.15261">
        <ele>701.20001220703</ele>
        <time>2019-05-11T08:11:50.000Z</time>
      </trkpt>
      <trkpt lat="43.99615" lon="7.15275">
        <ele>702</ele>
        <time>2019-05-11T08:11:55.000Z</time>
      </trkpt>
      <trkpt lat="43.99614" lon="7.15278">
        <ele>702.20001220703</ele>
        <time>2019-05-11T08:11:56.000Z</time>
      </trkpt>
      <trkpt lat="43.99607" lon="7.15295">
        <ele>702.59997558594</ele>
        <time>2019-05-11T08:12:02.000Z</time>
      </trkpt>
      <trkpt lat="43.99601" lon="7.15307">
        <ele>703</ele>
        <time>2019-05-11T08:12:06.000Z</time>
      </trkpt>
      <trkpt lat="43.99595" lon="7.15323">
        <ele>703.40002441406</ele>
        <time>2019-05-11T08:12:11.000Z</time>
      </trkpt>
      <trkpt lat="43.99589" lon="7.15338">
        <ele>704</ele>
        <time>2019-05-11T08:12:16.000Z</time>
      </trkpt>
      <trkpt lat="43.99588" lon="7.15341">
        <ele>704.20001220703</ele>
        <time>2019-05-11T08:12:17.000Z</time>
      </trkpt>
      <trkpt lat="43.99583" lon="7.15356">
        <ele>705.20001220703</ele>
        <time>2019-05-11T08:12:22.000Z</time>
      </trkpt>
      <trkpt lat="43.99579" lon="7.15372">
        <ele>705.79998779297</ele>
        <time>2019-05-11T08:12:27.000Z</time>
      </trkpt>
      <trkpt lat="43.99577" lon="7.15377">
        <ele>706.20001220703</ele>
        <time>2019-05-11T08:12:29.000Z</time>
      </trkpt>
      <trkpt lat="43.99574" lon="7.15396">
        <ele>707.20001220703</ele>
        <time>2019-05-11T08:12:35.000Z</time>
      </trkpt>
      <trkpt lat="43.99574" lon="7.154">
        <ele>707.20001220703</ele>
        <time>2019-05-11T08:12:36.000Z</time>
      </trkpt>
      <trkpt lat="43.99576" lon="7.15418">
        <ele>707.79998779297</ele>
        <time>2019-05-11T08:12:41.000Z</time>
      </trkpt>
      <trkpt lat="43.99584" lon="7.15451">
        <ele>707.59997558594</ele>
        <time>2019-05-11T08:12:49.000Z</time>
      </trkpt>
      <trkpt lat="43.99595" lon="7.1547">
        <ele>707.79998779297</ele>
        <time>2019-05-11T08:12:55.000Z</time>
      </trkpt>
      <trkpt lat="43.99609" lon="7.15492">
        <ele>708.20001220703</ele>
        <time>2019-05-11T08:13:03.000Z</time>
      </trkpt>
      <trkpt lat="43.99609" lon="7.15494">
        <ele>708.40002441406</ele>
        <time>2019-05-11T08:13:04.000Z</time>
      </trkpt>
      <trkpt lat="43.99612" lon="7.15502">
        <ele>709.79998779297</ele>
        <time>2019-05-11T08:13:08.000Z</time>
      </trkpt>
      <trkpt lat="43.99613" lon="7.15504">
        <ele>710</ele>
        <time>2019-05-11T08:13:09.000Z</time>
      </trkpt>
      <trkpt lat="43.99614" lon="7.1551">
        <ele>711.20001220703</ele>
        <time>2019-05-11T08:13:12.000Z</time>
      </trkpt>
      <trkpt lat="43.99617" lon="7.15517">
        <ele>712.40002441406</ele>
        <time>2019-05-11T08:13:16.000Z</time>
      </trkpt>
      <trkpt lat="43.99617" lon="7.15519">
        <ele>712.79998779297</ele>
        <time>2019-05-11T08:13:17.000Z</time>
      </trkpt>
      <trkpt lat="43.99619" lon="7.15524">
        <ele>713.59997558594</ele>
        <time>2019-05-11T08:13:20.000Z</time>
      </trkpt>
      <trkpt lat="43.99622" lon="7.15533">
        <ele>714.79998779297</ele>
        <time>2019-05-11T08:13:25.000Z</time>
      </trkpt>
      <trkpt lat="43.99622" lon="7.15535">
        <ele>715</ele>
        <time>2019-05-11T08:13:26.000Z</time>
      </trkpt>
      <trkpt lat="43.99624" lon="7.15544">
        <ele>715.79998779297</ele>
        <time>2019-05-11T08:13:31.000Z</time>
      </trkpt>
      <trkpt lat="43.99627" lon="7.15552">
        <ele>716.40002441406</ele>
        <time>2019-05-11T08:13:35.000Z</time>
      </trkpt>
      <trkpt lat="43.99628" lon="7.15557">
        <ele>716.79998779297</ele>
        <time>2019-05-11T08:13:37.000Z</time>
      </trkpt>
      <trkpt lat="43.99631" lon="7.15568">
        <ele>717.79998779297</ele>
        <time>2019-05-11T08:13:43.000Z</time>
      </trkpt>
      <trkpt lat="43.99632" lon="7.15571">
        <ele>718</ele>
        <time>2019-05-11T08:13:44.000Z</time>
      </trkpt>
      <trkpt lat="43.99642" lon="7.15583">
        <ele>719</ele>
        <time>2019-05-11T08:13:52.000Z</time>
      </trkpt>
      <trkpt lat="43.99652" lon="7.15591">
        <ele>719.79998779297</ele>
        <time>2019-05-11T08:13:59.000Z</time>
      </trkpt>
      <trkpt lat="43.99656" lon="7.15594">
        <ele>720.20001220703</ele>
        <time>2019-05-11T08:14:02.000Z</time>
      </trkpt>
      <trkpt lat="43.99662" lon="7.156">
        <ele>720.59997558594</ele>
        <time>2019-05-11T08:14:06.000Z</time>
      </trkpt>
      <trkpt lat="43.99666" lon="7.15607">
        <ele>721.20001220703</ele>
        <time>2019-05-11T08:14:10.000Z</time>
      </trkpt>
      <trkpt lat="43.99666" lon="7.15612">
        <ele>721.59997558594</ele>
        <time>2019-05-11T08:14:12.000Z</time>
      </trkpt>
      <trkpt lat="43.99665" lon="7.15619">
        <ele>722.40002441406</ele>
        <time>2019-05-11T08:14:15.000Z</time>
      </trkpt>
      <trkpt lat="43.99664" lon="7.15628">
        <ele>723.20001220703</ele>
        <time>2019-05-11T08:14:19.000Z</time>
      </trkpt>
      <trkpt lat="43.99663" lon="7.15632">
        <ele>723.59997558594</ele>
        <time>2019-05-11T08:14:21.000Z</time>
      </trkpt>
      <trkpt lat="43.99661" lon="7.15644">
        <ele>724.59997558594</ele>
        <time>2019-05-11T08:14:27.000Z</time>
      </trkpt>
      <trkpt lat="43.9966" lon="7.15646">
        <ele>724.79998779297</ele>
        <time>2019-05-11T08:14:28.000Z</time>
      </trkpt>
      <trkpt lat="43.99658" lon="7.15657">
        <ele>725.59997558594</ele>
        <time>2019-05-11T08:14:33.000Z</time>
      </trkpt>
      <trkpt lat="43.99656" lon="7.15663">
        <ele>726.20001220703</ele>
        <time>2019-05-11T08:14:36.000Z</time>
      </trkpt>
      <trkpt lat="43.99654" lon="7.15669">
        <ele>726.79998779297</ele>
        <time>2019-05-11T08:14:39.000Z</time>
      </trkpt>
      <trkpt lat="43.99651" lon="7.15682">
        <ele>727.79998779297</ele>
        <time>2019-05-11T08:14:45.000Z</time>
      </trkpt>
      <trkpt lat="43.99648" lon="7.15696">
        <ele>728.79998779297</ele>
        <time>2019-05-11T08:14:51.000Z</time>
      </trkpt>
      <trkpt lat="43.99647" lon="7.157">
        <ele>729.20001220703</ele>
        <time>2019-05-11T08:14:53.000Z</time>
      </trkpt>
      <trkpt lat="43.99646" lon="7.15708">
        <ele>730</ele>
        <time>2019-05-11T08:14:57.000Z</time>
      </trkpt>
      <trkpt lat="43.99645" lon="7.15715">
        <ele>730.40002441406</ele>
        <time>2019-05-11T08:15:00.000Z</time>
      </trkpt>
      <trkpt lat="43.99644" lon="7.15724">
        <ele>731</ele>
        <time>2019-05-11T08:15:04.000Z</time>
      </trkpt>
      <trkpt lat="43.99643" lon="7.15733">
        <ele>731.79998779297</ele>
        <time>2019-05-11T08:15:08.000Z</time>
      </trkpt>
      <trkpt lat="43.99643" lon="7.15737">
        <ele>732.20001220703</ele>
        <time>2019-05-11T08:15:10.000Z</time>
      </trkpt>
      <trkpt lat="43.99641" lon="7.1575">
        <ele>733.20001220703</ele>
        <time>2019-05-11T08:15:16.000Z</time>
      </trkpt>
      <trkpt lat="43.9964" lon="7.15762">
        <ele>734.40002441406</ele>
        <time>2019-05-11T08:15:22.000Z</time>
      </trkpt>
      <trkpt lat="43.9964" lon="7.15766">
        <ele>734.79998779297</ele>
        <time>2019-05-11T08:15:24.000Z</time>
      </trkpt>
      <trkpt lat="43.9964" lon="7.15774">
        <ele>735.40002441406</ele>
        <time>2019-05-11T08:15:28.000Z</time>
      </trkpt>
      <trkpt lat="43.99641" lon="7.15784">
        <ele>736.40002441406</ele>
        <time>2019-05-11T08:15:33.000Z</time>
      </trkpt>
      <trkpt lat="43.99641" lon="7.15787">
        <ele>736.59997558594</ele>
        <time>2019-05-11T08:15:34.000Z</time>
      </trkpt>
      <trkpt lat="43.99644" lon="7.15799">
        <ele>737.79998779297</ele>
        <time>2019-05-11T08:15:40.000Z</time>
      </trkpt>
      <trkpt lat="43.99646" lon="7.15803">
        <ele>738.20001220703</ele>
        <time>2019-05-11T08:15:42.000Z</time>
      </trkpt>
      <trkpt lat="43.99649" lon="7.1581">
        <ele>739</ele>
        <time>2019-05-11T08:15:46.000Z</time>
      </trkpt>
      <trkpt lat="43.99653" lon="7.15819">
        <ele>740</ele>
        <time>2019-05-11T08:15:51.000Z</time>
      </trkpt>
      <trkpt lat="43.99659" lon="7.15829">
        <ele>741.20001220703</ele>
        <time>2019-05-11T08:15:57.000Z</time>
      </trkpt>
      <trkpt lat="43.99661" lon="7.15835">
        <ele>741.79998779297</ele>
        <time>2019-05-11T08:16:00.000Z</time>
      </trkpt>
      <trkpt lat="43.99663" lon="7.1584">
        <ele>742.20001220703</ele>
        <time>2019-05-11T08:16:03.000Z</time>
      </trkpt>
      <trkpt lat="43.99666" lon="7.1585">
        <ele>743.20001220703</ele>
        <time>2019-05-11T08:16:08.000Z</time>
      </trkpt>
      <trkpt lat="43.99667" lon="7.15852">
        <ele>743.40002441406</ele>
        <time>2019-05-11T08:16:09.000Z</time>
      </trkpt>
      <trkpt lat="43.99673" lon="7.15864">
        <ele>744.59997558594</ele>
        <time>2019-05-11T08:16:16.000Z</time>
      </trkpt>
      <trkpt lat="43.99673" lon="7.15866">
        <ele>744.79998779297</ele>
        <time>2019-05-11T08:16:17.000Z</time>
      </trkpt>
      <trkpt lat="43.99676" lon="7.15876">
        <ele>745.79998779297</ele>
        <time>2019-05-11T08:16:22.000Z</time>
      </trkpt>
      <trkpt lat="43.99679" lon="7.15885">
        <ele>746.59997558594</ele>
        <time>2019-05-11T08:16:27.000Z</time>
      </trkpt>
      <trkpt lat="43.9968" lon="7.15889">
        <ele>747</ele>
        <time>2019-05-11T08:16:29.000Z</time>
      </trkpt>
      <trkpt lat="43.99681" lon="7.15897">
        <ele>747.79998779297</ele>
        <time>2019-05-11T08:16:34.000Z</time>
      </trkpt>
      <trkpt lat="43.99682" lon="7.15899">
        <ele>748</ele>
        <time>2019-05-11T08:16:35.000Z</time>
      </trkpt>
      <trkpt lat="43.99688" lon="7.15906">
        <ele>748.79998779297</ele>
        <time>2019-05-11T08:16:41.000Z</time>
      </trkpt>
      <trkpt lat="43.99691" lon="7.15909">
        <ele>749</ele>
        <time>2019-05-11T08:16:43.000Z</time>
      </trkpt>
      <trkpt lat="43.99698" lon="7.15916">
        <ele>750</ele>
        <time>2019-05-11T08:16:49.000Z</time>
      </trkpt>
      <trkpt lat="43.99699" lon="7.15918">
        <ele>750.20001220703</ele>
        <time>2019-05-11T08:16:50.000Z</time>
      </trkpt>
      <trkpt lat="43.99705" lon="7.15923">
        <ele>751.20001220703</ele>
        <time>2019-05-11T08:16:55.000Z</time>
      </trkpt>
      <trkpt lat="43.99706" lon="7.15924">
        <ele>751.40002441406</ele>
        <time>2019-05-11T08:16:56.000Z</time>
      </trkpt>
      <trkpt lat="43.99712" lon="7.1593">
        <ele>752.40002441406</ele>
        <time>2019-05-11T08:17:01.000Z</time>
      </trkpt>
      <trkpt lat="43.99715" lon="7.15931">
        <ele>752.59997558594</ele>
        <time>2019-05-11T08:17:03.000Z</time>
      </trkpt>
      <trkpt lat="43.99721" lon="7.15937">
        <ele>753.40002441406</ele>
        <time>2019-05-11T08:17:08.000Z</time>
      </trkpt>
      <trkpt lat="43.99726" lon="7.15941">
        <ele>754.20001220703</ele>
        <time>2019-05-11T08:17:12.000Z</time>
      </trkpt>
      <trkpt lat="43.99728" lon="7.15943">
        <ele>754.59997558594</ele>
        <time>2019-05-11T08:17:14.000Z</time>
      </trkpt>
      <trkpt lat="43.99736" lon="7.15949">
        <ele>755.59997558594</ele>
        <time>2019-05-11T08:17:20.000Z</time>
      </trkpt>
      <trkpt lat="43.99744" lon="7.15957">
        <ele>756.79998779297</ele>
        <time>2019-05-11T08:17:27.000Z</time>
      </trkpt>
      <trkpt lat="43.99751" lon="7.15962">
        <ele>757.79998779297</ele>
        <time>2019-05-11T08:17:32.000Z</time>
      </trkpt>
      <trkpt lat="43.99756" lon="7.15966">
        <ele>758.59997558594</ele>
        <time>2019-05-11T08:17:36.000Z</time>
      </trkpt>
      <trkpt lat="43.99757" lon="7.15966">
        <ele>758.79998779297</ele>
        <time>2019-05-11T08:17:37.000Z</time>
      </trkpt>
      <trkpt lat="43.99766" lon="7.15973">
        <ele>760</ele>
        <time>2019-05-11T08:17:44.000Z</time>
      </trkpt>
      <trkpt lat="43.99768" lon="7.15974">
        <ele>760.20001220703</ele>
        <time>2019-05-11T08:17:46.000Z</time>
      </trkpt>
      <trkpt lat="43.99772" lon="7.15978">
        <ele>761</ele>
        <time>2019-05-11T08:17:50.000Z</time>
      </trkpt>
      <trkpt lat="43.99776" lon="7.15982">
        <ele>761.40002441406</ele>
        <time>2019-05-11T08:17:54.000Z</time>
      </trkpt>
      <trkpt lat="43.99783" lon="7.15991">
        <ele>761.79998779297</ele>
        <time>2019-05-11T08:18:03.000Z</time>
      </trkpt>
      <trkpt lat="43.99788" lon="7.15995">
        <ele>762</ele>
        <time>2019-05-11T08:18:06.000Z</time>
      </trkpt>
      <trkpt lat="43.99791" lon="7.15998">
        <ele>762.40002441406</ele>
        <time>2019-05-11T08:18:08.000Z</time>
      </trkpt>
      <trkpt lat="43.99799" lon="7.16003">
        <ele>762.59997558594</ele>
        <time>2019-05-11T08:18:13.000Z</time>
      </trkpt>
      <trkpt lat="43.99801" lon="7.16003">
        <ele>762.79998779297</ele>
        <time>2019-05-11T08:18:14.000Z</time>
      </trkpt>
      <trkpt lat="43.99803" lon="7.16004">
        <ele>763.20001220703</ele>
        <time>2019-05-11T08:18:15.000Z</time>
      </trkpt>
      <trkpt lat="43.99811" lon="7.16005">
        <ele>764.40002441406</ele>
        <time>2019-05-11T08:18:19.000Z</time>
      </trkpt>
      <trkpt lat="43.99816" lon="7.16007">
        <ele>765</ele>
        <time>2019-05-11T08:18:23.000Z</time>
      </trkpt>
      <trkpt lat="43.99816" lon="7.16007">
        <ele>765.59997558594</ele>
        <time>2019-05-11T08:18:24.000Z</time>
      </trkpt>
      <trkpt lat="43.99816" lon="7.16006">
        <ele>766</ele>
        <time>2019-05-11T08:18:26.000Z</time>
      </trkpt>
      <trkpt lat="43.99816" lon="7.16006">
        <ele>766</ele>
        <time>2019-05-11T08:18:28.000Z</time>
      </trkpt>
      <trkpt lat="43.99817" lon="7.16007">
        <ele>766</ele>
        <time>2019-05-11T08:18:38.000Z</time>
      </trkpt>
      <trkpt lat="43.9982" lon="7.16008">
        <ele>765.79998779297</ele>
        <time>2019-05-11T08:18:42.000Z</time>
      </trkpt>
      <trkpt lat="43.99819" lon="7.16008">
        <ele>765.79998779297</ele>
        <time>2019-05-11T08:18:43.000Z</time>
      </trkpt>
      <trkpt lat="43.99824" lon="7.16009">
        <ele>766</ele>
        <time>2019-05-11T08:18:49.000Z</time>
      </trkpt>
      <trkpt lat="43.99828" lon="7.16013">
        <ele>766.40002441406</ele>
        <time>2019-05-11T08:18:53.000Z</time>
      </trkpt>
      <trkpt lat="43.99828" lon="7.16017">
        <ele>766.79998779297</ele>
        <time>2019-05-11T08:18:55.000Z</time>
      </trkpt>
      <trkpt lat="43.99824" lon="7.16024">
        <ele>767.20001220703</ele>
        <time>2019-05-11T08:18:59.000Z</time>
      </trkpt>
      <trkpt lat="43.99823" lon="7.16026">
        <ele>767.20001220703</ele>
        <time>2019-05-11T08:19:00.000Z</time>
      </trkpt>
      <trkpt lat="43.99819" lon="7.16032">
        <ele>767.59997558594</ele>
        <time>2019-05-11T08:19:04.000Z</time>
      </trkpt>
      <trkpt lat="43.99817" lon="7.16033">
        <ele>768.20001220703</ele>
        <time>2019-05-11T08:19:05.000Z</time>
      </trkpt>
      <trkpt lat="43.99812" lon="7.16039">
        <ele>769</ele>
        <time>2019-05-11T08:19:10.000Z</time>
      </trkpt>
      <trkpt lat="43.99811" lon="7.1604">
        <ele>769.20001220703</ele>
        <time>2019-05-11T08:19:11.000Z</time>
      </trkpt>
      <trkpt lat="43.99808" lon="7.16044">
        <ele>769.79998779297</ele>
        <time>2019-05-11T08:19:14.000Z</time>
      </trkpt>
      <trkpt lat="43.99807" lon="7.16045">
        <ele>770</ele>
        <time>2019-05-11T08:19:15.000Z</time>
      </trkpt>
      <trkpt lat="43.99805" lon="7.16046">
        <ele>770.40002441406</ele>
        <time>2019-05-11T08:19:16.000Z</time>
      </trkpt>
      <trkpt lat="43.99801" lon="7.16051">
        <ele>771.20001220703</ele>
        <time>2019-05-11T08:19:21.000Z</time>
      </trkpt>
      <trkpt lat="43.99799" lon="7.16052">
        <ele>771.40002441406</ele>
        <time>2019-05-11T08:19:22.000Z</time>
      </trkpt>
      <trkpt lat="43.99792" lon="7.16059">
        <ele>772.59997558594</ele>
        <time>2019-05-11T08:19:28.000Z</time>
      </trkpt>
      <trkpt lat="43.99787" lon="7.16063">
        <ele>773.79998779297</ele>
        <time>2019-05-11T08:19:32.000Z</time>
      </trkpt>
      <trkpt lat="43.99784" lon="7.16064">
        <ele>774.40002441406</ele>
        <time>2019-05-11T08:19:35.000Z</time>
      </trkpt>
      <trkpt lat="43.99784" lon="7.16065">
        <ele>774.79998779297</ele>
        <time>2019-05-11T08:19:39.000Z</time>
      </trkpt>
      <trkpt lat="43.99783" lon="7.16065">
        <ele>775</ele>
        <time>2019-05-11T08:19:40.000Z</time>
      </trkpt>
      <trkpt lat="43.99779" lon="7.16069">
        <ele>775.59997558594</ele>
        <time>2019-05-11T08:19:48.000Z</time>
      </trkpt>
      <trkpt lat="43.9978" lon="7.16068">
        <ele>776</ele>
        <time>2019-05-11T08:19:49.000Z</time>
      </trkpt>
      <trkpt lat="43.99778" lon="7.16071">
        <ele>776.59997558594</ele>
        <time>2019-05-11T08:19:54.000Z</time>
      </trkpt>
      <trkpt lat="43.99777" lon="7.16074">
        <ele>777</ele>
        <time>2019-05-11T08:19:58.000Z</time>
      </trkpt>
      <trkpt lat="43.99776" lon="7.16074">
        <ele>777.20001220703</ele>
        <time>2019-05-11T08:20:00.000Z</time>
      </trkpt>
      <trkpt lat="43.99773" lon="7.16077">
        <ele>778</ele>
        <time>2019-05-11T08:20:05.000Z</time>
      </trkpt>
      <trkpt lat="43.9977" lon="7.1608">
        <ele>778.79998779297</ele>
        <time>2019-05-11T08:20:10.000Z</time>
      </trkpt>
      <trkpt lat="43.9977" lon="7.1608">
        <ele>779</ele>
        <time>2019-05-11T08:20:11.000Z</time>
      </trkpt>
      <trkpt lat="43.99766" lon="7.16083">
        <ele>780.20001220703</ele>
        <time>2019-05-11T08:20:17.000Z</time>
      </trkpt>
      <trkpt lat="43.99764" lon="7.16084">
        <ele>780.59997558594</ele>
        <time>2019-05-11T08:20:20.000Z</time>
      </trkpt>
      <trkpt lat="43.99761" lon="7.16087">
        <ele>781.40002441406</ele>
        <time>2019-05-11T08:20:25.000Z</time>
      </trkpt>
      <trkpt lat="43.99758" lon="7.16088">
        <ele>782</ele>
        <time>2019-05-11T08:20:29.000Z</time>
      </trkpt>
      <trkpt lat="43.99756" lon="7.16089">
        <ele>782.40002441406</ele>
        <time>2019-05-11T08:20:31.000Z</time>
      </trkpt>
      <trkpt lat="43.99753" lon="7.16093">
        <ele>783.40002441406</ele>
        <time>2019-05-11T08:20:37.000Z</time>
      </trkpt>
      <trkpt lat="43.99751" lon="7.16094">
        <ele>783.79998779297</ele>
        <time>2019-05-11T08:20:39.000Z</time>
      </trkpt>
      <trkpt lat="43.99747" lon="7.16098">
        <ele>784.59997558594</ele>
        <time>2019-05-11T08:20:46.000Z</time>
      </trkpt>
      <trkpt lat="43.99745" lon="7.16099">
        <ele>784.79998779297</ele>
        <time>2019-05-11T08:20:48.000Z</time>
      </trkpt>
      <trkpt lat="43.9974" lon="7.161">
        <ele>785.79998779297</ele>
        <time>2019-05-11T08:20:55.000Z</time>
      </trkpt>
      <trkpt lat="43.9974" lon="7.16101">
        <ele>785.79998779297</ele>
        <time>2019-05-11T08:20:56.000Z</time>
      </trkpt>
      <trkpt lat="43.99735" lon="7.16104">
        <ele>787</ele>
        <time>2019-05-11T08:21:02.000Z</time>
      </trkpt>
      <trkpt lat="43.99733" lon="7.16106">
        <ele>787.40002441406</ele>
        <time>2019-05-11T08:21:05.000Z</time>
      </trkpt>
      <trkpt lat="43.99732" lon="7.16107">
        <ele>788</ele>
        <time>2019-05-11T08:21:08.000Z</time>
      </trkpt>
      <trkpt lat="43.99729" lon="7.16109">
        <ele>788.40002441406</ele>
        <time>2019-05-11T08:21:13.000Z</time>
      </trkpt>
      <trkpt lat="43.99727" lon="7.16111">
        <ele>789</ele>
        <time>2019-05-11T08:21:17.000Z</time>
      </trkpt>
      <trkpt lat="43.99724" lon="7.16112">
        <ele>789.59997558594</ele>
        <time>2019-05-11T08:21:21.000Z</time>
      </trkpt>
      <trkpt lat="43.99723" lon="7.16113">
        <ele>790</ele>
        <time>2019-05-11T08:21:23.000Z</time>
      </trkpt>
      <trkpt lat="43.99719" lon="7.16117">
        <ele>791.20001220703</ele>
        <time>2019-05-11T08:21:30.000Z</time>
      </trkpt>
      <trkpt lat="43.99717" lon="7.1612">
        <ele>792.20001220703</ele>
        <time>2019-05-11T08:21:36.000Z</time>
      </trkpt>
      <trkpt lat="43.99717" lon="7.16122">
        <ele>792.59997558594</ele>
        <time>2019-05-11T08:21:38.000Z</time>
      </trkpt>
      <trkpt lat="43.99715" lon="7.16123">
        <ele>793.20001220703</ele>
        <time>2019-05-11T08:21:41.000Z</time>
      </trkpt>
      <trkpt lat="43.99713" lon="7.16124">
        <ele>793.79998779297</ele>
        <time>2019-05-11T08:21:45.000Z</time>
      </trkpt>
      <trkpt lat="43.99711" lon="7.16125">
        <ele>794.20001220703</ele>
        <time>2019-05-11T08:21:48.000Z</time>
      </trkpt>
      <trkpt lat="43.99709" lon="7.16127">
        <ele>794.79998779297</ele>
        <time>2019-05-11T08:21:51.000Z</time>
      </trkpt>
      <trkpt lat="43.99708" lon="7.16129">
        <ele>795.40002441406</ele>
        <time>2019-05-11T08:21:54.000Z</time>
      </trkpt>
      <trkpt lat="43.99706" lon="7.1613">
        <ele>795.79998779297</ele>
        <time>2019-05-11T08:21:58.000Z</time>
      </trkpt>
      <trkpt lat="43.99705" lon="7.16133">
        <ele>796.40002441406</ele>
        <time>2019-05-11T08:22:01.000Z</time>
      </trkpt>
      <trkpt lat="43.99704" lon="7.16136">
        <ele>797</ele>
        <time>2019-05-11T08:22:06.000Z</time>
      </trkpt>
      <trkpt lat="43.99705" lon="7.16137">
        <ele>797.59997558594</ele>
        <time>2019-05-11T08:22:10.000Z</time>
      </trkpt>
      <trkpt lat="43.99708" lon="7.16137">
        <ele>798</ele>
        <time>2019-05-11T08:22:13.000Z</time>
      </trkpt>
      <trkpt lat="43.99711" lon="7.16136">
        <ele>798.59997558594</ele>
        <time>2019-05-11T08:22:17.000Z</time>
      </trkpt>
      <trkpt lat="43.99716" lon="7.16135">
        <ele>799.20001220703</ele>
        <time>2019-05-11T08:22:23.000Z</time>
      </trkpt>
      <trkpt lat="43.99719" lon="7.16135">
        <ele>799.59997558594</ele>
        <time>2019-05-11T08:22:26.000Z</time>
      </trkpt>
      <trkpt lat="43.99724" lon="7.16135">
        <ele>800.20001220703</ele>
        <time>2019-05-11T08:22:32.000Z</time>
      </trkpt>
      <trkpt lat="43.99727" lon="7.16136">
        <ele>800.59997558594</ele>
        <time>2019-05-11T08:22:35.000Z</time>
      </trkpt>
      <trkpt lat="43.9973" lon="7.16137">
        <ele>801.40002441406</ele>
        <time>2019-05-11T08:22:40.000Z</time>
      </trkpt>
      <trkpt lat="43.99732" lon="7.16136">
        <ele>801.59997558594</ele>
        <time>2019-05-11T08:22:42.000Z</time>
      </trkpt>
      <trkpt lat="43.99736" lon="7.16136">
        <ele>802.40002441406</ele>
        <time>2019-05-11T08:22:48.000Z</time>
      </trkpt>
      <trkpt lat="43.99737" lon="7.16136">
        <ele>802.59997558594</ele>
        <time>2019-05-11T08:22:49.000Z</time>
      </trkpt>
      <trkpt lat="43.99737" lon="7.16138">
        <ele>802.79998779297</ele>
        <time>2019-05-11T08:22:51.000Z</time>
      </trkpt>
      <trkpt lat="43.99736" lon="7.1614">
        <ele>802.79998779297</ele>
        <time>2019-05-11T08:22:53.000Z</time>
      </trkpt>
      <trkpt lat="43.99735" lon="7.1614">
        <ele>802.79998779297</ele>
        <time>2019-05-11T08:22:54.000Z</time>
      </trkpt>
      <trkpt lat="43.99731" lon="7.16141">
        <ele>803.40002441406</ele>
        <time>2019-05-11T08:22:59.000Z</time>
      </trkpt>
      <trkpt lat="43.99728" lon="7.16144">
        <ele>803.79998779297</ele>
        <time>2019-05-11T08:23:02.000Z</time>
      </trkpt>
      <trkpt lat="43.99726" lon="7.16149">
        <ele>804.20001220703</ele>
        <time>2019-05-11T08:23:07.000Z</time>
      </trkpt>
      <trkpt lat="43.99731" lon="7.16149">
        <ele>804.59997558594</ele>
        <time>2019-05-11T08:23:13.000Z</time>
      </trkpt>
      <trkpt lat="43.99732" lon="7.16149">
        <ele>804.79998779297</ele>
        <time>2019-05-11T08:23:14.000Z</time>
      </trkpt>
      <trkpt lat="43.99737" lon="7.16147">
        <ele>805.59997558594</ele>
        <time>2019-05-11T08:23:20.000Z</time>
      </trkpt>
      <trkpt lat="43.99738" lon="7.16147">
        <ele>805.79998779297</ele>
        <time>2019-05-11T08:23:21.000Z</time>
      </trkpt>
      <trkpt lat="43.99744" lon="7.16145">
        <ele>806.79998779297</ele>
        <time>2019-05-11T08:23:29.000Z</time>
      </trkpt>
      <trkpt lat="43.99745" lon="7.16145">
        <ele>807</ele>
        <time>2019-05-11T08:23:30.000Z</time>
      </trkpt>
      <trkpt lat="43.99751" lon="7.16144">
        <ele>808</ele>
        <time>2019-05-11T08:23:37.000Z</time>
      </trkpt>
      <trkpt lat="43.99751" lon="7.16144">
        <ele>808</ele>
        <time>2019-05-11T08:23:38.000Z</time>
      </trkpt>
      <trkpt lat="43.99753" lon="7.16144">
        <ele>808.20001220703</ele>
        <time>2019-05-11T08:23:40.000Z</time>
      </trkpt>
      <trkpt lat="43.99757" lon="7.16143">
        <ele>808.59997558594</ele>
        <time>2019-05-11T08:23:45.000Z</time>
      </trkpt>
      <trkpt lat="43.99758" lon="7.16145">
        <ele>809</ele>
        <time>2019-05-11T08:23:47.000Z</time>
      </trkpt>
      <trkpt lat="43.99757" lon="7.16148">
        <ele>809.40002441406</ele>
        <time>2019-05-11T08:23:50.000Z</time>
      </trkpt>
      <trkpt lat="43.99753" lon="7.1615">
        <ele>810</ele>
        <time>2019-05-11T08:23:55.000Z</time>
      </trkpt>
      <trkpt lat="43.99752" lon="7.16151">
        <ele>810.40002441406</ele>
        <time>2019-05-11T08:23:57.000Z</time>
      </trkpt>
      <trkpt lat="43.99747" lon="7.16155">
        <ele>811.20001220703</ele>
        <time>2019-05-11T08:24:03.000Z</time>
      </trkpt>
      <trkpt lat="43.99747" lon="7.16156">
        <ele>811.20001220703</ele>
        <time>2019-05-11T08:24:04.000Z</time>
      </trkpt>
      <trkpt lat="43.99743" lon="7.16164">
        <ele>812.20001220703</ele>
        <time>2019-05-11T08:24:12.000Z</time>
      </trkpt>
      <trkpt lat="43.99744" lon="7.16165">
        <ele>812.20001220703</ele>
        <time>2019-05-11T08:24:13.000Z</time>
      </trkpt>
      <trkpt lat="43.99746" lon="7.16172">
        <ele>813</ele>
        <time>2019-05-11T08:24:21.000Z</time>
      </trkpt>
      <trkpt lat="43.99746" lon="7.16172">
        <ele>813.20001220703</ele>
        <time>2019-05-11T08:24:22.000Z</time>
      </trkpt>
      <trkpt lat="43.99746" lon="7.16172">
        <ele>813.20001220703</ele>
        <time>2019-05-11T08:24:29.000Z</time>
      </trkpt>
      <trkpt lat="43.99746" lon="7.16172">
        <ele>813</ele>
        <time>2019-05-11T08:24:39.000Z</time>
      </trkpt>
      <trkpt lat="43.99749" lon="7.16178">
        <ele>813</ele>
        <time>2019-05-11T08:24:45.000Z</time>
      </trkpt>
      <trkpt lat="43.99754" lon="7.16187">
        <ele>813.40002441406</ele>
        <time>2019-05-11T08:24:50.000Z</time>
      </trkpt>
      <trkpt lat="43.99756" lon="7.16191">
        <ele>814.20001220703</ele>
        <time>2019-05-11T08:24:53.000Z</time>
      </trkpt>
      <trkpt lat="43.99758" lon="7.16194">
        <ele>814.79998779297</ele>
        <time>2019-05-11T08:24:55.000Z</time>
      </trkpt>
      <trkpt lat="43.99761" lon="7.16199">
        <ele>815.20001220703</ele>
        <time>2019-05-11T08:24:58.000Z</time>
      </trkpt>
      <trkpt lat="43.99765" lon="7.16204">
        <ele>815.59997558594</ele>
        <time>2019-05-11T08:25:01.000Z</time>
      </trkpt>
      <trkpt lat="43.99769" lon="7.16213">
        <ele>816.20001220703</ele>
        <time>2019-05-11T08:25:07.000Z</time>
      </trkpt>
      <trkpt lat="43.99774" lon="7.1622">
        <ele>817.40002441406</ele>
        <time>2019-05-11T08:25:12.000Z</time>
      </trkpt>
      <trkpt lat="43.99776" lon="7.16223">
        <ele>817.59997558594</ele>
        <time>2019-05-11T08:25:14.000Z</time>
      </trkpt>
      <trkpt lat="43.99779" lon="7.16226">
        <ele>818.40002441406</ele>
        <time>2019-05-11T08:25:17.000Z</time>
      </trkpt>
      <trkpt lat="43.99782" lon="7.16232">
        <ele>819.59997558594</ele>
        <time>2019-05-11T08:25:21.000Z</time>
      </trkpt>
      <trkpt lat="43.99785" lon="7.16237">
        <ele>820.59997558594</ele>
        <time>2019-05-11T08:25:25.000Z</time>
      </trkpt>
      <trkpt lat="43.99786" lon="7.16239">
        <ele>821</ele>
        <time>2019-05-11T08:25:26.000Z</time>
      </trkpt>
      <trkpt lat="43.99788" lon="7.16242">
        <ele>821.59997558594</ele>
        <time>2019-05-11T08:25:29.000Z</time>
      </trkpt>
      <trkpt lat="43.9979" lon="7.16244">
        <ele>822.20001220703</ele>
        <time>2019-05-11T08:25:31.000Z</time>
      </trkpt>
      <trkpt lat="43.99791" lon="7.16247">
        <ele>822.79998779297</ele>
        <time>2019-05-11T08:25:33.000Z</time>
      </trkpt>
      <trkpt lat="43.99794" lon="7.16251">
        <ele>823.40002441406</ele>
        <time>2019-05-11T08:25:36.000Z</time>
      </trkpt>
      <trkpt lat="43.99795" lon="7.16254">
        <ele>823.79998779297</ele>
        <time>2019-05-11T08:25:38.000Z</time>
      </trkpt>
      <trkpt lat="43.99799" lon="7.16261">
        <ele>825</ele>
        <time>2019-05-11T08:25:43.000Z</time>
      </trkpt>
      <trkpt lat="43.99802" lon="7.16272">
        <ele>826.20001220703</ele>
        <time>2019-05-11T08:25:50.000Z</time>
      </trkpt>
      <trkpt lat="43.99801" lon="7.16279">
        <ele>827.40002441406</ele>
        <time>2019-05-11T08:25:55.000Z</time>
      </trkpt>
      <trkpt lat="43.99801" lon="7.16283">
        <ele>827.79998779297</ele>
        <time>2019-05-11T08:25:57.000Z</time>
      </trkpt>
      <trkpt lat="43.998" lon="7.16288">
        <ele>828.40002441406</ele>
        <time>2019-05-11T08:26:00.000Z</time>
      </trkpt>
      <trkpt lat="43.99798" lon="7.16294">
        <ele>829.59997558594</ele>
        <time>2019-05-11T08:26:04.000Z</time>
      </trkpt>
      <trkpt lat="43.99796" lon="7.16299">
        <ele>830.40002441406</ele>
        <time>2019-05-11T08:26:09.000Z</time>
      </trkpt>
      <trkpt lat="43.99796" lon="7.16299">
        <ele>830.59997558594</ele>
        <time>2019-05-11T08:26:10.000Z</time>
      </trkpt>
      <trkpt lat="43.99794" lon="7.16303">
        <ele>830.79998779297</ele>
        <time>2019-05-11T08:26:15.000Z</time>
      </trkpt>
      <trkpt lat="43.99793" lon="7.16309">
        <ele>831.59997558594</ele>
        <time>2019-05-11T08:26:21.000Z</time>
      </trkpt>
      <trkpt lat="43.99792" lon="7.16311">
        <ele>832</ele>
        <time>2019-05-11T08:26:23.000Z</time>
      </trkpt>
      <trkpt lat="43.9979" lon="7.16316">
        <ele>832.79998779297</ele>
        <time>2019-05-11T08:26:28.000Z</time>
      </trkpt>
      <trkpt lat="43.99789" lon="7.16319">
        <ele>833.20001220703</ele>
        <time>2019-05-11T08:26:32.000Z</time>
      </trkpt>
      <trkpt lat="43.99787" lon="7.16324">
        <ele>833.79998779297</ele>
        <time>2019-05-11T08:26:36.000Z</time>
      </trkpt>
      <trkpt lat="43.99785" lon="7.16328">
        <ele>834</ele>
        <time>2019-05-11T08:26:40.000Z</time>
      </trkpt>
      <trkpt lat="43.99784" lon="7.16334">
        <ele>834.79998779297</ele>
        <time>2019-05-11T08:26:47.000Z</time>
      </trkpt>
      <trkpt lat="43.99784" lon="7.16335">
        <ele>835</ele>
        <time>2019-05-11T08:26:48.000Z</time>
      </trkpt>
      <trkpt lat="43.99784" lon="7.16339">
        <ele>836</ele>
        <time>2019-05-11T08:26:53.000Z</time>
      </trkpt>
      <trkpt lat="43.99783" lon="7.16344">
        <ele>836.40002441406</ele>
        <time>2019-05-11T08:26:57.000Z</time>
      </trkpt>
      <trkpt lat="43.99783" lon="7.16347">
        <ele>837</ele>
        <time>2019-05-11T08:27:01.000Z</time>
      </trkpt>
      <trkpt lat="43.99783" lon="7.16351">
        <ele>837.59997558594</ele>
        <time>2019-05-11T08:27:05.000Z</time>
      </trkpt>
      <trkpt lat="43.99783" lon="7.16354">
        <ele>838.20001220703</ele>
        <time>2019-05-11T08:27:08.000Z</time>
      </trkpt>
      <trkpt lat="43.99786" lon="7.1636">
        <ele>839.40002441406</ele>
        <time>2019-05-11T08:27:14.000Z</time>
      </trkpt>
      <trkpt lat="43.99786" lon="7.16361">
        <ele>839.59997558594</ele>
        <time>2019-05-11T08:27:15.000Z</time>
      </trkpt>
      <trkpt lat="43.99789" lon="7.16367">
        <ele>840.59997558594</ele>
        <time>2019-05-11T08:27:22.000Z</time>
      </trkpt>
      <trkpt lat="43.99793" lon="7.16371">
        <ele>841.59997558594</ele>
        <time>2019-05-11T08:27:27.000Z</time>
      </trkpt>
      <trkpt lat="43.99795" lon="7.16373">
        <ele>841.79998779297</ele>
        <time>2019-05-11T08:27:30.000Z</time>
      </trkpt>
      <trkpt lat="43.99797" lon="7.16377">
        <ele>842.59997558594</ele>
        <time>2019-05-11T08:27:38.000Z</time>
      </trkpt>
      <trkpt lat="43.99797" lon="7.16377">
        <ele>842.59997558594</ele>
        <time>2019-05-11T08:27:39.000Z</time>
      </trkpt>
      <trkpt lat="43.99798" lon="7.16378">
        <ele>842.59997558594</ele>
        <time>2019-05-11T08:27:44.000Z</time>
      </trkpt>
      <trkpt lat="43.99798" lon="7.16378">
        <ele>842.79998779297</ele>
        <time>2019-05-11T08:27:46.000Z</time>
      </trkpt>
      <trkpt lat="43.99799" lon="7.16378">
        <ele>842.79998779297</ele>
        <time>2019-05-11T08:27:48.000Z</time>
      </trkpt>
      <trkpt lat="43.99802" lon="7.16381">
        <ele>842.79998779297</ele>
        <time>2019-05-11T08:27:51.000Z</time>
      </trkpt>
      <trkpt lat="43.99803" lon="7.16381">
        <ele>843</ele>
        <time>2019-05-11T08:27:52.000Z</time>
      </trkpt>
      <trkpt lat="43.99808" lon="7.16384">
        <ele>843.59997558594</ele>
        <time>2019-05-11T08:27:56.000Z</time>
      </trkpt>
      <trkpt lat="43.99809" lon="7.16384">
        <ele>843.59997558594</ele>
        <time>2019-05-11T08:27:57.000Z</time>
      </trkpt>
      <trkpt lat="43.9982" lon="7.1639">
        <ele>844.79998779297</ele>
        <time>2019-05-11T08:28:03.000Z</time>
      </trkpt>
      <trkpt lat="43.99826" lon="7.16395">
        <ele>846</ele>
        <time>2019-05-11T08:28:07.000Z</time>
      </trkpt>
      <trkpt lat="43.99829" lon="7.16398">
        <ele>846.40002441406</ele>
        <time>2019-05-11T08:28:09.000Z</time>
      </trkpt>
      <trkpt lat="43.99833" lon="7.164">
        <ele>847</ele>
        <time>2019-05-11T08:28:12.000Z</time>
      </trkpt>
      <trkpt lat="43.99838" lon="7.16401">
        <ele>847.59997558594</ele>
        <time>2019-05-11T08:28:15.000Z</time>
      </trkpt>
      <trkpt lat="43.99847" lon="7.16401">
        <ele>848.20001220703</ele>
        <time>2019-05-11T08:28:20.000Z</time>
      </trkpt>
      <trkpt lat="43.99855" lon="7.16402">
        <ele>848.79998779297</ele>
        <time>2019-05-11T08:28:25.000Z</time>
      </trkpt>
      <trkpt lat="43.99858" lon="7.16401">
        <ele>849.20001220703</ele>
        <time>2019-05-11T08:28:27.000Z</time>
      </trkpt>
      <trkpt lat="43.99868" lon="7.16399">
        <ele>849.79998779297</ele>
        <time>2019-05-11T08:28:33.000Z</time>
      </trkpt>
      <trkpt lat="43.99874" lon="7.16395">
        <ele>850.20001220703</ele>
        <time>2019-05-11T08:28:37.000Z</time>
      </trkpt>
      <trkpt lat="43.99878" lon="7.16394">
        <ele>851</ele>
        <time>2019-05-11T08:28:40.000Z</time>
      </trkpt>
      <trkpt lat="43.9988" lon="7.16393">
        <ele>851.20001220703</ele>
        <time>2019-05-11T08:28:41.000Z</time>
      </trkpt>
      <trkpt lat="43.9989" lon="7.1639">
        <ele>851.79998779297</ele>
        <time>2019-05-11T08:28:47.000Z</time>
      </trkpt>
      <trkpt lat="43.99907" lon="7.1639">
        <ele>852</ele>
        <time>2019-05-11T08:28:54.000Z</time>
      </trkpt>
      <trkpt lat="43.99926" lon="7.16389">
        <ele>851</ele>
        <time>2019-05-11T08:29:00.000Z</time>
      </trkpt>
      <trkpt lat="43.99945" lon="7.16388">
        <ele>851.20001220703</ele>
        <time>2019-05-11T08:29:07.000Z</time>
      </trkpt>
      <trkpt lat="43.99958" lon="7.16382">
        <ele>851.20001220703</ele>
        <time>2019-05-11T08:29:13.000Z</time>
      </trkpt>
      <trkpt lat="43.99966" lon="7.16381">
        <ele>852.59997558594</ele>
        <time>2019-05-11T08:29:17.000Z</time>
      </trkpt>
      <trkpt lat="43.99968" lon="7.16381">
        <ele>852.79998779297</ele>
        <time>2019-05-11T08:29:18.000Z</time>
      </trkpt>
      <trkpt lat="43.99981" lon="7.16386">
        <ele>853</ele>
        <time>2019-05-11T08:29:23.000Z</time>
      </trkpt>
      <trkpt lat="43.99988" lon="7.1639">
        <ele>852.40002441406</ele>
        <time>2019-05-11T08:29:25.000Z</time>
      </trkpt>
      <trkpt lat="43.99995" lon="7.16395">
        <ele>851.59997558594</ele>
        <time>2019-05-11T08:29:27.000Z</time>
      </trkpt>
      <trkpt lat="43.99999" lon="7.16398">
        <ele>851</ele>
        <time>2019-05-11T08:29:28.000Z</time>
      </trkpt>
      <trkpt lat="44.00017" lon="7.16402">
        <ele>850.79998779297</ele>
        <time>2019-05-11T08:29:33.000Z</time>
      </trkpt>
      <trkpt lat="44.00029" lon="7.16404">
        <ele>852.20001220703</ele>
        <time>2019-05-11T08:29:38.000Z</time>
      </trkpt>
      <trkpt lat="44.00042" lon="7.16409">
        <ele>852.79998779297</ele>
        <time>2019-05-11T08:29:44.000Z</time>
      </trkpt>
      <trkpt lat="44.00046" lon="7.16413">
        <ele>852.79998779297</ele>
        <time>2019-05-11T08:29:46.000Z</time>
      </trkpt>
      <trkpt lat="44.00049" lon="7.16418">
        <ele>852.59997558594</ele>
        <time>2019-05-11T08:29:48.000Z</time>
      </trkpt>
      <trkpt lat="44.00051" lon="7.16431">
        <ele>851.59997558594</ele>
        <time>2019-05-11T08:29:52.000Z</time>
      </trkpt>
      <trkpt lat="44.00052" lon="7.1644">
        <ele>851</ele>
        <time>2019-05-11T08:29:54.000Z</time>
      </trkpt>
      <trkpt lat="44.00056" lon="7.1645">
        <ele>850</ele>
        <time>2019-05-11T08:29:57.000Z</time>
      </trkpt>
      <trkpt lat="44.00058" lon="7.16453">
        <ele>849.59997558594</ele>
        <time>2019-05-11T08:29:58.000Z</time>
      </trkpt>
      <trkpt lat="44.00062" lon="7.16457">
        <ele>850.40002441406</ele>
        <time>2019-05-11T08:30:02.000Z</time>
      </trkpt>
      <trkpt lat="44.00063" lon="7.16458">
        <ele>850.59997558594</ele>
        <time>2019-05-11T08:30:03.000Z</time>
      </trkpt>
      <trkpt lat="44.00069" lon="7.16458">
        <ele>851</ele>
        <time>2019-05-11T08:30:07.000Z</time>
      </trkpt>
      <trkpt lat="44.00078" lon="7.1646">
        <ele>852</ele>
        <time>2019-05-11T08:30:11.000Z</time>
      </trkpt>
      <trkpt lat="44.0008" lon="7.16461">
        <ele>852</ele>
        <time>2019-05-11T08:30:12.000Z</time>
      </trkpt>
      <trkpt lat="44.00096" lon="7.16463">
        <ele>852.59997558594</ele>
        <time>2019-05-11T08:30:20.000Z</time>
      </trkpt>
      <trkpt lat="44.00101" lon="7.16465">
        <ele>853.20001220703</ele>
        <time>2019-05-11T08:30:23.000Z</time>
      </trkpt>
      <trkpt lat="44.00104" lon="7.16469">
        <ele>853.59997558594</ele>
        <time>2019-05-11T08:30:25.000Z</time>
      </trkpt>
      <trkpt lat="44.00111" lon="7.16483">
        <ele>853.59997558594</ele>
        <time>2019-05-11T08:30:31.000Z</time>
      </trkpt>
      <trkpt lat="44.00112" lon="7.1649">
        <ele>853</ele>
        <time>2019-05-11T08:30:34.000Z</time>
      </trkpt>
      <trkpt lat="44.0011" lon="7.16493">
        <ele>852.59997558594</ele>
        <time>2019-05-11T08:30:36.000Z</time>
      </trkpt>
      <trkpt lat="44.00104" lon="7.16497">
        <ele>852.79998779297</ele>
        <time>2019-05-11T08:30:39.000Z</time>
      </trkpt>
      <trkpt lat="44.00098" lon="7.16503">
        <ele>852.79998779297</ele>
        <time>2019-05-11T08:30:42.000Z</time>
      </trkpt>
      <trkpt lat="44.00098" lon="7.16505">
        <ele>853</ele>
        <time>2019-05-11T08:30:43.000Z</time>
      </trkpt>
      <trkpt lat="44.00099" lon="7.16511">
        <ele>853.40002441406</ele>
        <time>2019-05-11T08:30:46.000Z</time>
      </trkpt>
      <trkpt lat="44.00102" lon="7.16517">
        <ele>853.79998779297</ele>
        <time>2019-05-11T08:30:49.000Z</time>
      </trkpt>
      <trkpt lat="44.00104" lon="7.1652">
        <ele>854</ele>
        <time>2019-05-11T08:30:51.000Z</time>
      </trkpt>
      <trkpt lat="44.00105" lon="7.16524">
        <ele>854.40002441406</ele>
        <time>2019-05-11T08:30:53.000Z</time>
      </trkpt>
      <trkpt lat="44.00104" lon="7.16526">
        <ele>854.59997558594</ele>
        <time>2019-05-11T08:30:54.000Z</time>
      </trkpt>
      <trkpt lat="44.00103" lon="7.16529">
        <ele>855.40002441406</ele>
        <time>2019-05-11T08:30:56.000Z</time>
      </trkpt>
      <trkpt lat="44.00102" lon="7.16532">
        <ele>856</ele>
        <time>2019-05-11T08:30:58.000Z</time>
      </trkpt>
      <trkpt lat="44.00102" lon="7.16534">
        <ele>856.40002441406</ele>
        <time>2019-05-11T08:31:00.000Z</time>
      </trkpt>
      <trkpt lat="44.00102" lon="7.16537">
        <ele>856.79998779297</ele>
        <time>2019-05-11T08:31:02.000Z</time>
      </trkpt>
      <trkpt lat="44.001" lon="7.16542">
        <ele>857.59997558594</ele>
        <time>2019-05-11T08:31:05.000Z</time>
      </trkpt>
      <trkpt lat="44.00099" lon="7.16544">
        <ele>858.59997558594</ele>
        <time>2019-05-11T08:31:09.000Z</time>
      </trkpt>
      <trkpt lat="44.00098" lon="7.16546">
        <ele>858.79998779297</ele>
        <time>2019-05-11T08:31:11.000Z</time>
      </trkpt>
      <trkpt lat="44.00096" lon="7.16551">
        <ele>859.40002441406</ele>
        <time>2019-05-11T08:31:16.000Z</time>
      </trkpt>
      <trkpt lat="44.00094" lon="7.16553">
        <ele>859.79998779297</ele>
        <time>2019-05-11T08:31:19.000Z</time>
      </trkpt>
      <trkpt lat="44.0009" lon="7.16559">
        <ele>861</ele>
        <time>2019-05-11T08:31:26.000Z</time>
      </trkpt>
      <trkpt lat="44.00087" lon="7.16564">
        <ele>862</ele>
        <time>2019-05-11T08:31:33.000Z</time>
      </trkpt>
      <trkpt lat="44.00085" lon="7.16566">
        <ele>862.40002441406</ele>
        <time>2019-05-11T08:31:36.000Z</time>
      </trkpt>
      <trkpt lat="44.00083" lon="7.16569">
        <ele>863</ele>
        <time>2019-05-11T08:31:40.000Z</time>
      </trkpt>
      <trkpt lat="44.00079" lon="7.16574">
        <ele>864.20001220703</ele>
        <time>2019-05-11T08:31:47.000Z</time>
      </trkpt>
      <trkpt lat="44.00078" lon="7.16575">
        <ele>864.20001220703</ele>
        <time>2019-05-11T08:31:48.000Z</time>
      </trkpt>
      <trkpt lat="44.00074" lon="7.16579">
        <ele>865.40002441406</ele>
        <time>2019-05-11T08:31:54.000Z</time>
      </trkpt>
      <trkpt lat="44.00071" lon="7.16582">
        <ele>865.79998779297</ele>
        <time>2019-05-11T08:31:58.000Z</time>
      </trkpt>
      <trkpt lat="44.00069" lon="7.16584">
        <ele>866.40002441406</ele>
        <time>2019-05-11T08:32:01.000Z</time>
      </trkpt>
      <trkpt lat="44.00066" lon="7.16587">
        <ele>867.20001220703</ele>
        <time>2019-05-11T08:32:06.000Z</time>
      </trkpt>
      <trkpt lat="44.00065" lon="7.16589">
        <ele>867.59997558594</ele>
        <time>2019-05-11T08:32:08.000Z</time>
      </trkpt>
      <trkpt lat="44.00063" lon="7.16594">
        <ele>868.59997558594</ele>
        <time>2019-05-11T08:32:14.000Z</time>
      </trkpt>
      <trkpt lat="44.0006" lon="7.16599">
        <ele>869.59997558594</ele>
        <time>2019-05-11T08:32:20.000Z</time>
      </trkpt>
      <trkpt lat="44.00059" lon="7.16601">
        <ele>870</ele>
        <time>2019-05-11T08:32:23.000Z</time>
      </trkpt>
      <trkpt lat="44.00057" lon="7.16606">
        <ele>870.79998779297</ele>
        <time>2019-05-11T08:32:27.000Z</time>
      </trkpt>
      <trkpt lat="44.00056" lon="7.1661">
        <ele>871.40002441406</ele>
        <time>2019-05-11T08:32:31.000Z</time>
      </trkpt>
      <trkpt lat="44.00055" lon="7.16612">
        <ele>871.79998779297</ele>
        <time>2019-05-11T08:32:33.000Z</time>
      </trkpt>
      <trkpt lat="44.00055" lon="7.16618">
        <ele>872.59997558594</ele>
        <time>2019-05-11T08:32:39.000Z</time>
      </trkpt>
      <trkpt lat="44.00055" lon="7.16619">
        <ele>872.79998779297</ele>
        <time>2019-05-11T08:32:40.000Z</time>
      </trkpt>
      <trkpt lat="44.00053" lon="7.16627">
        <ele>873.79998779297</ele>
        <time>2019-05-11T08:32:46.000Z</time>
      </trkpt>
      <trkpt lat="44.00053" lon="7.16628">
        <ele>874</ele>
        <time>2019-05-11T08:32:47.000Z</time>
      </trkpt>
      <trkpt lat="44.00049" lon="7.1664">
        <ele>874.79998779297</ele>
        <time>2019-05-11T08:32:56.000Z</time>
      </trkpt>
      <trkpt lat="44.00047" lon="7.16649">
        <ele>875</ele>
        <time>2019-05-11T08:33:03.000Z</time>
      </trkpt>
      <trkpt lat="44.00047" lon="7.1665">
        <ele>875.20001220703</ele>
        <time>2019-05-11T08:33:04.000Z</time>
      </trkpt>
      <trkpt lat="44.00043" lon="7.16657">
        <ele>875.79998779297</ele>
        <time>2019-05-11T08:33:11.000Z</time>
      </trkpt>
      <trkpt lat="44.00042" lon="7.16658">
        <ele>876.20001220703</ele>
        <time>2019-05-11T08:33:12.000Z</time>
      </trkpt>
      <trkpt lat="44.0004" lon="7.16663">
        <ele>877.20001220703</ele>
        <time>2019-05-11T08:33:18.000Z</time>
      </trkpt>
      <trkpt lat="44.00039" lon="7.16664">
        <ele>877.40002441406</ele>
        <time>2019-05-11T08:33:19.000Z</time>
      </trkpt>
      <trkpt lat="44.00037" lon="7.1667">
        <ele>878.40002441406</ele>
        <time>2019-05-11T08:33:25.000Z</time>
      </trkpt>
      <trkpt lat="44.00036" lon="7.16674">
        <ele>879</ele>
        <time>2019-05-11T08:33:28.000Z</time>
      </trkpt>
      <trkpt lat="44.00033" lon="7.1668">
        <ele>879.59997558594</ele>
        <time>2019-05-11T08:33:33.000Z</time>
      </trkpt>
      <trkpt lat="44.0003" lon="7.16684">
        <ele>879.79998779297</ele>
        <time>2019-05-11T08:33:36.000Z</time>
      </trkpt>
      <trkpt lat="44.00025" lon="7.16693">
        <ele>880.40002441406</ele>
        <time>2019-05-11T08:33:44.000Z</time>
      </trkpt>
      <trkpt lat="44.00024" lon="7.16694">
        <ele>880.59997558594</ele>
        <time>2019-05-11T08:33:45.000Z</time>
      </trkpt>
      <trkpt lat="44.00019" lon="7.16699">
        <ele>881.20001220703</ele>
        <time>2019-05-11T08:33:53.000Z</time>
      </trkpt>
      <trkpt lat="44.00017" lon="7.16702">
        <ele>881.59997558594</ele>
        <time>2019-05-11T08:33:56.000Z</time>
      </trkpt>
      <trkpt lat="44.00015" lon="7.16707">
        <ele>882.40002441406</ele>
        <time>2019-05-11T08:34:02.000Z</time>
      </trkpt>
      <trkpt lat="44.00014" lon="7.16709">
        <ele>882.79998779297</ele>
        <time>2019-05-11T08:34:04.000Z</time>
      </trkpt>
      <trkpt lat="44.00013" lon="7.16714">
        <ele>883.40002441406</ele>
        <time>2019-05-11T08:34:09.000Z</time>
      </trkpt>
      <trkpt lat="44.00013" lon="7.16717">
        <ele>883.79998779297</ele>
        <time>2019-05-11T08:34:13.000Z</time>
      </trkpt>
      <trkpt lat="44.00012" lon="7.16719">
        <ele>884</ele>
        <time>2019-05-11T08:34:15.000Z</time>
      </trkpt>
      <trkpt lat="44.00012" lon="7.16721">
        <ele>884.20001220703</ele>
        <time>2019-05-11T08:34:16.000Z</time>
      </trkpt>
      <trkpt lat="44.00012" lon="7.16726">
        <ele>885</ele>
        <time>2019-05-11T08:34:23.000Z</time>
      </trkpt>
      <trkpt lat="44.00012" lon="7.16726">
        <ele>885</ele>
        <time>2019-05-11T08:34:24.000Z</time>
      </trkpt>
      <trkpt lat="44.00012" lon="7.16726">
        <ele>885</ele>
        <time>2019-05-11T08:34:33.000Z</time>
      </trkpt>
      <trkpt lat="44.00013" lon="7.16729">
        <ele>885</ele>
        <time>2019-05-11T08:34:46.000Z</time>
      </trkpt>
      <trkpt lat="44.00014" lon="7.16731">
        <ele>884.79998779297</ele>
        <time>2019-05-11T08:34:53.000Z</time>
      </trkpt>
      <trkpt lat="44.00015" lon="7.16735">
        <ele>884.79998779297</ele>
        <time>2019-05-11T08:34:56.000Z</time>
      </trkpt>
      <trkpt lat="44.00016" lon="7.16738">
        <ele>885</ele>
        <time>2019-05-11T08:34:58.000Z</time>
      </trkpt>
      <trkpt lat="44.00023" lon="7.16756">
        <ele>885.59997558594</ele>
        <time>2019-05-11T08:35:06.000Z</time>
      </trkpt>
      <trkpt lat="44.00025" lon="7.16757">
        <ele>886</ele>
        <time>2019-05-11T08:35:07.000Z</time>
      </trkpt>
      <trkpt lat="44.00027" lon="7.16758">
        <ele>886.40002441406</ele>
        <time>2019-05-11T08:35:11.000Z</time>
      </trkpt>
      <trkpt lat="44.00031" lon="7.1676">
        <ele>887</ele>
        <time>2019-05-11T08:35:17.000Z</time>
      </trkpt>
      <trkpt lat="44.00035" lon="7.16762">
        <ele>887.59997558594</ele>
        <time>2019-05-11T08:35:21.000Z</time>
      </trkpt>
      <trkpt lat="44.00036" lon="7.16763">
        <ele>887.59997558594</ele>
        <time>2019-05-11T08:35:23.000Z</time>
      </trkpt>
      <trkpt lat="44.00043" lon="7.16769">
        <ele>887.79998779297</ele>
        <time>2019-05-11T08:35:28.000Z</time>
      </trkpt>
      <trkpt lat="44.00045" lon="7.16773">
        <ele>887.79998779297</ele>
        <time>2019-05-11T08:35:29.000Z</time>
      </trkpt>
      <trkpt lat="44.00045" lon="7.16781">
        <ele>887.79998779297</ele>
        <time>2019-05-11T08:35:31.000Z</time>
      </trkpt>
      <trkpt lat="44.00043" lon="7.16789">
        <ele>887.79998779297</ele>
        <time>2019-05-11T08:35:33.000Z</time>
      </trkpt>
      <trkpt lat="44.00041" lon="7.16802">
        <ele>887.40002441406</ele>
        <time>2019-05-11T08:35:37.000Z</time>
      </trkpt>
      <trkpt lat="44.0004" lon="7.16807">
        <ele>887.40002441406</ele>
        <time>2019-05-11T08:35:39.000Z</time>
      </trkpt>
      <trkpt lat="44.00038" lon="7.16815">
        <ele>887.79998779297</ele>
        <time>2019-05-11T08:35:42.000Z</time>
      </trkpt>
      <trkpt lat="44.00039" lon="7.1682">
        <ele>888</ele>
        <time>2019-05-11T08:35:44.000Z</time>
      </trkpt>
      <trkpt lat="44.00039" lon="7.16827">
        <ele>888.59997558594</ele>
        <time>2019-05-11T08:35:47.000Z</time>
      </trkpt>
      <trkpt lat="44.00042" lon="7.16835">
        <ele>889</ele>
        <time>2019-05-11T08:35:51.000Z</time>
      </trkpt>
      <trkpt lat="44.00043" lon="7.16836">
        <ele>889.20001220703</ele>
        <time>2019-05-11T08:35:52.000Z</time>
      </trkpt>
      <trkpt lat="44.00051" lon="7.16839">
        <ele>890</ele>
        <time>2019-05-11T08:35:57.000Z</time>
      </trkpt>
      <trkpt lat="44.00057" lon="7.16843">
        <ele>890.40002441406</ele>
        <time>2019-05-11T08:36:01.000Z</time>
      </trkpt>
      <trkpt lat="44.00061" lon="7.16844">
        <ele>891.20001220703</ele>
        <time>2019-05-11T08:36:04.000Z</time>
      </trkpt>
      <trkpt lat="44.00065" lon="7.16845">
        <ele>891.59997558594</ele>
        <time>2019-05-11T08:36:06.000Z</time>
      </trkpt>
      <trkpt lat="44.00072" lon="7.1685">
        <ele>892</ele>
        <time>2019-05-11T08:36:10.000Z</time>
      </trkpt>
      <trkpt lat="44.00082" lon="7.16857">
        <ele>892.59997558594</ele>
        <time>2019-05-11T08:36:16.000Z</time>
      </trkpt>
      <trkpt lat="44.00084" lon="7.16858">
        <ele>892.79998779297</ele>
        <time>2019-05-11T08:36:17.000Z</time>
      </trkpt>
      <trkpt lat="44.00085" lon="7.16859">
        <ele>893</ele>
        <time>2019-05-11T08:36:18.000Z</time>
      </trkpt>
      <trkpt lat="44.00097" lon="7.16866">
        <ele>893.59997558594</ele>
        <time>2019-05-11T08:36:24.000Z</time>
      </trkpt>
      <trkpt lat="44.00099" lon="7.16867">
        <ele>893.59997558594</ele>
        <time>2019-05-11T08:36:25.000Z</time>
      </trkpt>
      <trkpt lat="44.0011" lon="7.16874">
        <ele>893.79998779297</ele>
        <time>2019-05-11T08:36:31.000Z</time>
      </trkpt>
      <trkpt lat="44.00123" lon="7.16883">
        <ele>894.20001220703</ele>
        <time>2019-05-11T08:36:37.000Z</time>
      </trkpt>
      <trkpt lat="44.00139" lon="7.16894">
        <ele>893.79998779297</ele>
        <time>2019-05-11T08:36:43.000Z</time>
      </trkpt>
      <trkpt lat="44.00148" lon="7.16903">
        <ele>893.59997558594</ele>
        <time>2019-05-11T08:36:48.000Z</time>
      </trkpt>
      <trkpt lat="44.00151" lon="7.1691">
        <ele>893.59997558594</ele>
        <time>2019-05-11T08:36:50.000Z</time>
      </trkpt>
      <trkpt lat="44.0015" lon="7.16917">
        <ele>893.40002441406</ele>
        <time>2019-05-11T08:36:52.000Z</time>
      </trkpt>
      <trkpt lat="44.00142" lon="7.16928">
        <ele>893.40002441406</ele>
        <time>2019-05-11T08:36:57.000Z</time>
      </trkpt>
      <trkpt lat="44.00137" lon="7.16941">
        <ele>894</ele>
        <time>2019-05-11T08:37:02.000Z</time>
      </trkpt>
      <trkpt lat="44.00135" lon="7.16943">
        <ele>894.20001220703</ele>
        <time>2019-05-11T08:37:03.000Z</time>
      </trkpt>
      <trkpt lat="44.00129" lon="7.16947">
        <ele>894.59997558594</ele>
        <time>2019-05-11T08:37:07.000Z</time>
      </trkpt>
      <trkpt lat="44.00126" lon="7.16951">
        <ele>895.20001220703</ele>
        <time>2019-05-11T08:37:09.000Z</time>
      </trkpt>
      <trkpt lat="44.00122" lon="7.16958">
        <ele>895.79998779297</ele>
        <time>2019-05-11T08:37:12.000Z</time>
      </trkpt>
      <trkpt lat="44.0012" lon="7.16962">
        <ele>895.79998779297</ele>
        <time>2019-05-11T08:37:14.000Z</time>
      </trkpt>
      <trkpt lat="44.00116" lon="7.16972">
        <ele>896.59997558594</ele>
        <time>2019-05-11T08:37:20.000Z</time>
      </trkpt>
      <trkpt lat="44.00114" lon="7.16978">
        <ele>896.79998779297</ele>
        <time>2019-05-11T08:37:23.000Z</time>
      </trkpt>
      <trkpt lat="44.00113" lon="7.16979">
        <ele>897</ele>
        <time>2019-05-11T08:37:24.000Z</time>
      </trkpt>
      <trkpt lat="44.00111" lon="7.16981">
        <ele>897.59997558594</ele>
        <time>2019-05-11T08:37:26.000Z</time>
      </trkpt>
      <trkpt lat="44.0011" lon="7.16983">
        <ele>898</ele>
        <time>2019-05-11T08:37:28.000Z</time>
      </trkpt>
      <trkpt lat="44.00109" lon="7.16984">
        <ele>898.59997558594</ele>
        <time>2019-05-11T08:37:30.000Z</time>
      </trkpt>
      <trkpt lat="44.00108" lon="7.16984">
        <ele>899</ele>
        <time>2019-05-11T08:37:33.000Z</time>
      </trkpt>
      <trkpt lat="44.00106" lon="7.16984">
        <ele>899</ele>
        <time>2019-05-11T08:37:36.000Z</time>
      </trkpt>
      <trkpt lat="44.00103" lon="7.16987">
        <ele>899.59997558594</ele>
        <time>2019-05-11T08:37:43.000Z</time>
      </trkpt>
      <trkpt lat="44.001" lon="7.1699">
        <ele>900</ele>
        <time>2019-05-11T08:37:47.000Z</time>
      </trkpt>
      <trkpt lat="44.00098" lon="7.16991">
        <ele>900.20001220703</ele>
        <time>2019-05-11T08:37:49.000Z</time>
      </trkpt>
      <trkpt lat="44.00098" lon="7.16993">
        <ele>900.20001220703</ele>
        <time>2019-05-11T08:37:50.000Z</time>
      </trkpt>
      <trkpt lat="44.00096" lon="7.17004">
        <ele>900</ele>
        <time>2019-05-11T08:37:54.000Z</time>
      </trkpt>
      <trkpt lat="44.00092" lon="7.17015">
        <ele>900.40002441406</ele>
        <time>2019-05-11T08:37:59.000Z</time>
      </trkpt>
      <trkpt lat="44.00091" lon="7.17018">
        <ele>901.20001220703</ele>
        <time>2019-05-11T08:38:01.000Z</time>
      </trkpt>
      <trkpt lat="44.0009" lon="7.17021">
        <ele>902.40002441406</ele>
        <time>2019-05-11T08:38:04.000Z</time>
      </trkpt>
      <trkpt lat="44.00089" lon="7.17022">
        <ele>902.40002441406</ele>
        <time>2019-05-11T08:38:05.000Z</time>
      </trkpt>
      <trkpt lat="44.00084" lon="7.17032">
        <ele>902.79998779297</ele>
        <time>2019-05-11T08:38:11.000Z</time>
      </trkpt>
      <trkpt lat="44.00086" lon="7.17043">
        <ele>903.40002441406</ele>
        <time>2019-05-11T08:38:16.000Z</time>
      </trkpt>
      <trkpt lat="44.00087" lon="7.17046">
        <ele>903.40002441406</ele>
        <time>2019-05-11T08:38:17.000Z</time>
      </trkpt>
      <trkpt lat="44.00088" lon="7.17054">
        <ele>904.59997558594</ele>
        <time>2019-05-11T08:38:21.000Z</time>
      </trkpt>
      <trkpt lat="44.0009" lon="7.17069">
        <ele>904.79998779297</ele>
        <time>2019-05-11T08:38:27.000Z</time>
      </trkpt>
      <trkpt lat="44.00089" lon="7.17079">
        <ele>905.40002441406</ele>
        <time>2019-05-11T08:38:32.000Z</time>
      </trkpt>
      <trkpt lat="44.00087" lon="7.17084">
        <ele>905.79998779297</ele>
        <time>2019-05-11T08:38:35.000Z</time>
      </trkpt>
      <trkpt lat="44.00084" lon="7.17091">
        <ele>906.79998779297</ele>
        <time>2019-05-11T08:38:39.000Z</time>
      </trkpt>
      <trkpt lat="44.00083" lon="7.17093">
        <ele>906.79998779297</ele>
        <time>2019-05-11T08:38:40.000Z</time>
      </trkpt>
      <trkpt lat="44.00083" lon="7.17094">
        <ele>907</ele>
        <time>2019-05-11T08:38:42.000Z</time>
      </trkpt>
      <trkpt lat="44.00083" lon="7.17094">
        <ele>907.20001220703</ele>
        <time>2019-05-11T08:38:43.000Z</time>
      </trkpt>
      <trkpt lat="44.00079" lon="7.17101">
        <ele>907.79998779297</ele>
        <time>2019-05-11T08:38:50.000Z</time>
      </trkpt>
      <trkpt lat="44.00078" lon="7.17102">
        <ele>908.20001220703</ele>
        <time>2019-05-11T08:38:51.000Z</time>
      </trkpt>
      <trkpt lat="44.00075" lon="7.17109">
        <ele>908.59997558594</ele>
        <time>2019-05-11T08:38:57.000Z</time>
      </trkpt>
      <trkpt lat="44.00074" lon="7.17114">
        <ele>909.20001220703</ele>
        <time>2019-05-11T08:39:01.000Z</time>
      </trkpt>
      <trkpt lat="44.00073" lon="7.17118">
        <ele>909.79998779297</ele>
        <time>2019-05-11T08:39:04.000Z</time>
      </trkpt>
      <trkpt lat="44.00074" lon="7.17123">
        <ele>910.20001220703</ele>
        <time>2019-05-11T08:39:07.000Z</time>
      </trkpt>
      <trkpt lat="44.00077" lon="7.17127">
        <ele>910.40002441406</ele>
        <time>2019-05-11T08:39:10.000Z</time>
      </trkpt>
      <trkpt lat="44.0008" lon="7.17129">
        <ele>910.40002441406</ele>
        <time>2019-05-11T08:39:13.000Z</time>
      </trkpt>
      <trkpt lat="44.00081" lon="7.17129">
        <ele>910.40002441406</ele>
        <time>2019-05-11T08:39:16.000Z</time>
      </trkpt>
      <trkpt lat="44.0009" lon="7.17131">
        <ele>910.20001220703</ele>
        <time>2019-05-11T08:39:21.000Z</time>
      </trkpt>
      <trkpt lat="44.00108" lon="7.17135">
        <ele>910.20001220703</ele>
        <time>2019-05-11T08:39:28.000Z</time>
      </trkpt>
      <trkpt lat="44.0012" lon="7.17134">
        <ele>911</ele>
        <time>2019-05-11T08:39:34.000Z</time>
      </trkpt>
      <trkpt lat="44.00125" lon="7.17132">
        <ele>911.20001220703</ele>
        <time>2019-05-11T08:39:37.000Z</time>
      </trkpt>
      <trkpt lat="44.00133" lon="7.17129">
        <ele>911.59997558594</ele>
        <time>2019-05-11T08:39:41.000Z</time>
      </trkpt>
      <trkpt lat="44.00142" lon="7.17126">
        <ele>912.40002441406</ele>
        <time>2019-05-11T08:39:46.000Z</time>
      </trkpt>
      <trkpt lat="44.00146" lon="7.17125">
        <ele>913.40002441406</ele>
        <time>2019-05-11T08:39:49.000Z</time>
      </trkpt>
      <trkpt lat="44.00148" lon="7.17125">
        <ele>913.59997558594</ele>
        <time>2019-05-11T08:39:50.000Z</time>
      </trkpt>
      <trkpt lat="44.00154" lon="7.17123">
        <ele>913.79998779297</ele>
        <time>2019-05-11T08:39:54.000Z</time>
      </trkpt>
      <trkpt lat="44.00156" lon="7.17124">
        <ele>914</ele>
        <time>2019-05-11T08:39:55.000Z</time>
      </trkpt>
      <trkpt lat="44.00162" lon="7.17128">
        <ele>914.40002441406</ele>
        <time>2019-05-11T08:39:58.000Z</time>
      </trkpt>
      <trkpt lat="44.00165" lon="7.17129">
        <ele>914.20001220703</ele>
        <time>2019-05-11T08:39:59.000Z</time>
      </trkpt>
      <trkpt lat="44.00185" lon="7.17139">
        <ele>913.40002441406</ele>
        <time>2019-05-11T08:40:05.000Z</time>
      </trkpt>
      <trkpt lat="44.00193" lon="7.17144">
        <ele>912.59997558594</ele>
        <time>2019-05-11T08:40:07.000Z</time>
      </trkpt>
      <trkpt lat="44.00203" lon="7.17153">
        <ele>911.59997558594</ele>
        <time>2019-05-11T08:40:10.000Z</time>
      </trkpt>
      <trkpt lat="44.00205" lon="7.17155">
        <ele>911.40002441406</ele>
        <time>2019-05-11T08:40:11.000Z</time>
      </trkpt>
      <trkpt lat="44.00212" lon="7.1716">
        <ele>911.40002441406</ele>
        <time>2019-05-11T08:40:14.000Z</time>
      </trkpt>
      <trkpt lat="44.00217" lon="7.17169">
        <ele>912.40002441406</ele>
        <time>2019-05-11T08:40:18.000Z</time>
      </trkpt>
      <trkpt lat="44.00216" lon="7.17181">
        <ele>912.79998779297</ele>
        <time>2019-05-11T08:40:23.000Z</time>
      </trkpt>
      <trkpt lat="44.00212" lon="7.17189">
        <ele>913.59997558594</ele>
        <time>2019-05-11T08:40:27.000Z</time>
      </trkpt>
      <trkpt lat="44.0021" lon="7.17193">
        <ele>913.79998779297</ele>
        <time>2019-05-11T08:40:29.000Z</time>
      </trkpt>
      <trkpt lat="44.00205" lon="7.17211">
        <ele>914.79998779297</ele>
        <time>2019-05-11T08:40:36.000Z</time>
      </trkpt>
      <trkpt lat="44.00197" lon="7.17225">
        <ele>914.59997558594</ele>
        <time>2019-05-11T08:40:41.000Z</time>
      </trkpt>
      <trkpt lat="44.00194" lon="7.17246">
        <ele>914</ele>
        <time>2019-05-11T08:40:47.000Z</time>
      </trkpt>
      <trkpt lat="44.00193" lon="7.17266">
        <ele>914.79998779297</ele>
        <time>2019-05-11T08:40:54.000Z</time>
      </trkpt>
      <trkpt lat="44.00193" lon="7.17287">
        <ele>915.79998779297</ele>
        <time>2019-05-11T08:41:01.000Z</time>
      </trkpt>
      <trkpt lat="44.00195" lon="7.17292">
        <ele>916</ele>
        <time>2019-05-11T08:41:03.000Z</time>
      </trkpt>
      <trkpt lat="44.00198" lon="7.17301">
        <ele>916.59997558594</ele>
        <time>2019-05-11T08:41:07.000Z</time>
      </trkpt>
      <trkpt lat="44.00201" lon="7.17309">
        <ele>917.20001220703</ele>
        <time>2019-05-11T08:41:10.000Z</time>
      </trkpt>
      <trkpt lat="44.00207" lon="7.17318">
        <ele>917.40002441406</ele>
        <time>2019-05-11T08:41:14.000Z</time>
      </trkpt>
      <trkpt lat="44.00209" lon="7.17333">
        <ele>917.59997558594</ele>
        <time>2019-05-11T08:41:20.000Z</time>
      </trkpt>
      <trkpt lat="44.0021" lon="7.1735">
        <ele>918.20001220703</ele>
        <time>2019-05-11T08:41:27.000Z</time>
      </trkpt>
      <trkpt lat="44.00212" lon="7.17363">
        <ele>919.40002441406</ele>
        <time>2019-05-11T08:41:32.000Z</time>
      </trkpt>
      <trkpt lat="44.00212" lon="7.17367">
        <ele>919.79998779297</ele>
        <time>2019-05-11T08:41:34.000Z</time>
      </trkpt>
      <trkpt lat="44.00212" lon="7.17369">
        <ele>919.79998779297</ele>
        <time>2019-05-11T08:41:35.000Z</time>
      </trkpt>
      <trkpt lat="44.00215" lon="7.17379">
        <ele>920.40002441406</ele>
        <time>2019-05-11T08:41:39.000Z</time>
      </trkpt>
      <trkpt lat="44.00218" lon="7.1738">
        <ele>920.79998779297</ele>
        <time>2019-05-11T08:41:41.000Z</time>
      </trkpt>
      <trkpt lat="44.00222" lon="7.17383">
        <ele>921.59997558594</ele>
        <time>2019-05-11T08:41:44.000Z</time>
      </trkpt>
      <trkpt lat="44.00231" lon="7.17385">
        <ele>922.79998779297</ele>
        <time>2019-05-11T08:41:49.000Z</time>
      </trkpt>
      <trkpt lat="44.00232" lon="7.17386">
        <ele>922.79998779297</ele>
        <time>2019-05-11T08:41:50.000Z</time>
      </trkpt>
      <trkpt lat="44.00237" lon="7.17385">
        <ele>924</ele>
        <time>2019-05-11T08:41:54.000Z</time>
      </trkpt>
      <trkpt lat="44.00239" lon="7.17385">
        <ele>924.40002441406</ele>
        <time>2019-05-11T08:41:55.000Z</time>
      </trkpt>
      <trkpt lat="44.0024" lon="7.17385">
        <ele>924.59997558594</ele>
        <time>2019-05-11T08:41:56.000Z</time>
      </trkpt>
      <trkpt lat="44.00241" lon="7.17385">
        <ele>925</ele>
        <time>2019-05-11T08:41:57.000Z</time>
      </trkpt>
      <trkpt lat="44.00242" lon="7.17384">
        <ele>926</ele>
        <time>2019-05-11T08:42:00.000Z</time>
      </trkpt>
      <trkpt lat="44.00244" lon="7.17384">
        <ele>926.20001220703</ele>
        <time>2019-05-11T08:42:06.000Z</time>
      </trkpt>
      <trkpt lat="44.00248" lon="7.17384">
        <ele>927.40002441406</ele>
        <time>2019-05-11T08:42:11.000Z</time>
      </trkpt>
      <trkpt lat="44.00251" lon="7.17383">
        <ele>928</ele>
        <time>2019-05-11T08:42:14.000Z</time>
      </trkpt>
      <trkpt lat="44.00252" lon="7.17383">
        <ele>928.40002441406</ele>
        <time>2019-05-11T08:42:17.000Z</time>
      </trkpt>
      <trkpt lat="44.00253" lon="7.17382">
        <ele>928.40002441406</ele>
        <time>2019-05-11T08:42:19.000Z</time>
      </trkpt>
      <trkpt lat="44.00256" lon="7.17382">
        <ele>928.40002441406</ele>
        <time>2019-05-11T08:42:26.000Z</time>
      </trkpt>
      <trkpt lat="44.00266" lon="7.17382">
        <ele>929</ele>
        <time>2019-05-11T08:42:32.000Z</time>
      </trkpt>
      <trkpt lat="44.00274" lon="7.17379">
        <ele>929.59997558594</ele>
        <time>2019-05-11T08:42:37.000Z</time>
      </trkpt>
      <trkpt lat="44.00275" lon="7.17378">
        <ele>929.79998779297</ele>
        <time>2019-05-11T08:42:38.000Z</time>
      </trkpt>
      <trkpt lat="44.0028" lon="7.17377">
        <ele>930.59997558594</ele>
        <time>2019-05-11T08:42:42.000Z</time>
      </trkpt>
      <trkpt lat="44.00281" lon="7.17377">
        <ele>930.79998779297</ele>
        <time>2019-05-11T08:42:43.000Z</time>
      </trkpt>
      <trkpt lat="44.0029" lon="7.17373">
        <ele>931.79998779297</ele>
        <time>2019-05-11T08:42:49.000Z</time>
      </trkpt>
      <trkpt lat="44.00296" lon="7.17372">
        <ele>932.79998779297</ele>
        <time>2019-05-11T08:42:53.000Z</time>
      </trkpt>
      <trkpt lat="44.00306" lon="7.17372">
        <ele>933.59997558594</ele>
        <time>2019-05-11T08:42:59.000Z</time>
      </trkpt>
      <trkpt lat="44.00315" lon="7.17379">
        <ele>933.20001220703</ele>
        <time>2019-05-11T08:43:04.000Z</time>
      </trkpt>
      <trkpt lat="44.00323" lon="7.17388">
        <ele>933.40002441406</ele>
        <time>2019-05-11T08:43:09.000Z</time>
      </trkpt>
      <trkpt lat="44.00328" lon="7.17391">
        <ele>933</ele>
        <time>2019-05-11T08:43:13.000Z</time>
      </trkpt>
      <trkpt lat="44.0033" lon="7.174">
        <ele>932.79998779297</ele>
        <time>2019-05-11T08:43:17.000Z</time>
      </trkpt>
      <trkpt lat="44.00327" lon="7.17414">
        <ele>932.79998779297</ele>
        <time>2019-05-11T08:43:22.000Z</time>
      </trkpt>
      <trkpt lat="44.00327" lon="7.17431">
        <ele>932.79998779297</ele>
        <time>2019-05-11T08:43:27.000Z</time>
      </trkpt>
      <trkpt lat="44.00328" lon="7.17434">
        <ele>933</ele>
        <time>2019-05-11T08:43:28.000Z</time>
      </trkpt>
      <trkpt lat="44.00329" lon="7.1744">
        <ele>934</ele>
        <time>2019-05-11T08:43:31.000Z</time>
      </trkpt>
      <trkpt lat="44.00326" lon="7.17449">
        <ele>935.40002441406</ele>
        <time>2019-05-11T08:43:36.000Z</time>
      </trkpt>
      <trkpt lat="44.00322" lon="7.17456">
        <ele>936</ele>
        <time>2019-05-11T08:43:41.000Z</time>
      </trkpt>
      <trkpt lat="44.00321" lon="7.17457">
        <ele>936.40002441406</ele>
        <time>2019-05-11T08:43:42.000Z</time>
      </trkpt>
      <trkpt lat="44.0032" lon="7.17459">
        <ele>936.79998779297</ele>
        <time>2019-05-11T08:43:43.000Z</time>
      </trkpt>
      <trkpt lat="44.0032" lon="7.17462">
        <ele>937.59997558594</ele>
        <time>2019-05-11T08:43:45.000Z</time>
      </trkpt>
      <trkpt lat="44.0032" lon="7.17464">
        <ele>938</ele>
        <time>2019-05-11T08:43:46.000Z</time>
      </trkpt>
      <trkpt lat="44.00321" lon="7.17469">
        <ele>938.59997558594</ele>
        <time>2019-05-11T08:43:49.000Z</time>
      </trkpt>
      <trkpt lat="44.00327" lon="7.17483">
        <ele>939.20001220703</ele>
        <time>2019-05-11T08:43:54.000Z</time>
      </trkpt>
      <trkpt lat="44.00332" lon="7.175">
        <ele>938.79998779297</ele>
        <time>2019-05-11T08:43:59.000Z</time>
      </trkpt>
      <trkpt lat="44.0033" lon="7.17513">
        <ele>939.20001220703</ele>
        <time>2019-05-11T08:44:04.000Z</time>
      </trkpt>
      <trkpt lat="44.00328" lon="7.17524">
        <ele>939.79998779297</ele>
        <time>2019-05-11T08:44:09.000Z</time>
      </trkpt>
      <trkpt lat="44.00327" lon="7.17526">
        <ele>940.20001220703</ele>
        <time>2019-05-11T08:44:10.000Z</time>
      </trkpt>
      <trkpt lat="44.00326" lon="7.17534">
        <ele>941.20001220703</ele>
        <time>2019-05-11T08:44:13.000Z</time>
      </trkpt>
      <trkpt lat="44.00325" lon="7.17544">
        <ele>941.59997558594</ele>
        <time>2019-05-11T08:44:17.000Z</time>
      </trkpt>
      <trkpt lat="44.00328" lon="7.17552">
        <ele>942.20001220703</ele>
        <time>2019-05-11T08:44:21.000Z</time>
      </trkpt>
      <trkpt lat="44.00329" lon="7.17554">
        <ele>942.40002441406</ele>
        <time>2019-05-11T08:44:22.000Z</time>
      </trkpt>
      <trkpt lat="44.00336" lon="7.17559">
        <ele>943.20001220703</ele>
        <time>2019-05-11T08:44:26.000Z</time>
      </trkpt>
      <trkpt lat="44.00341" lon="7.17561">
        <ele>943.79998779297</ele>
        <time>2019-05-11T08:44:29.000Z</time>
      </trkpt>
      <trkpt lat="44.00353" lon="7.17565">
        <ele>944</ele>
        <time>2019-05-11T08:44:34.000Z</time>
      </trkpt>
      <trkpt lat="44.00361" lon="7.17568">
        <ele>944.20001220703</ele>
        <time>2019-05-11T08:44:39.000Z</time>
      </trkpt>
      <trkpt lat="44.00363" lon="7.17569">
        <ele>944.20001220703</ele>
        <time>2019-05-11T08:44:40.000Z</time>
      </trkpt>
      <trkpt lat="44.00364" lon="7.1757">
        <ele>944.40002441406</ele>
        <time>2019-05-11T08:44:41.000Z</time>
      </trkpt>
      <trkpt lat="44.00367" lon="7.17575">
        <ele>945</ele>
        <time>2019-05-11T08:44:44.000Z</time>
      </trkpt>
      <trkpt lat="44.00369" lon="7.17578">
        <ele>945.40002441406</ele>
        <time>2019-05-11T08:44:46.000Z</time>
      </trkpt>
      <trkpt lat="44.00372" lon="7.17583">
        <ele>945.79998779297</ele>
        <time>2019-05-11T08:44:49.000Z</time>
      </trkpt>
      <trkpt lat="44.00375" lon="7.17585">
        <ele>946</ele>
        <time>2019-05-11T08:44:51.000Z</time>
      </trkpt>
      <trkpt lat="44.00377" lon="7.17587">
        <ele>946</ele>
        <time>2019-05-11T08:44:52.000Z</time>
      </trkpt>
      <trkpt lat="44.00378" lon="7.17589">
        <ele>946.20001220703</ele>
        <time>2019-05-11T08:44:53.000Z</time>
      </trkpt>
      <trkpt lat="44.00381" lon="7.17591">
        <ele>946.40002441406</ele>
        <time>2019-05-11T08:44:55.000Z</time>
      </trkpt>
      <trkpt lat="44.00384" lon="7.17592">
        <ele>946.59997558594</ele>
        <time>2019-05-11T08:44:57.000Z</time>
      </trkpt>
      <trkpt lat="44.00394" lon="7.17592">
        <ele>946.20001220703</ele>
        <time>2019-05-11T08:45:02.000Z</time>
      </trkpt>
      <trkpt lat="44.00404" lon="7.17593">
        <ele>946.20001220703</ele>
        <time>2019-05-11T08:45:06.000Z</time>
      </trkpt>
      <trkpt lat="44.00406" lon="7.17594">
        <ele>946.20001220703</ele>
        <time>2019-05-11T08:45:07.000Z</time>
      </trkpt>
      <trkpt lat="44.00413" lon="7.17594">
        <ele>946.40002441406</ele>
        <time>2019-05-11T08:45:11.000Z</time>
      </trkpt>
      <trkpt lat="44.00414" lon="7.17593">
        <ele>946.59997558594</ele>
        <time>2019-05-11T08:45:12.000Z</time>
      </trkpt>
      <trkpt lat="44.00417" lon="7.17592">
        <ele>946.79998779297</ele>
        <time>2019-05-11T08:45:14.000Z</time>
      </trkpt>
      <trkpt lat="44.00421" lon="7.17589">
        <ele>947.40002441406</ele>
        <time>2019-05-11T08:45:18.000Z</time>
      </trkpt>
      <trkpt lat="44.00423" lon="7.17589">
        <ele>947.40002441406</ele>
        <time>2019-05-11T08:45:19.000Z</time>
      </trkpt>
      <trkpt lat="44.00423" lon="7.17589">
        <ele>945.40002441406</ele>
        <time>2019-05-11T08:45:20.000Z</time>
      </trkpt>
      <trkpt lat="44.00427" lon="7.17587">
        <ele>946</ele>
        <time>2019-05-11T08:45:23.000Z</time>
      </trkpt>
      <trkpt lat="44.0043" lon="7.17586">
        <ele>948.40002441406</ele>
        <time>2019-05-11T08:45:25.000Z</time>
      </trkpt>
      <trkpt lat="44.00433" lon="7.17586">
        <ele>948.59997558594</ele>
        <time>2019-05-11T08:45:27.000Z</time>
      </trkpt>
      <trkpt lat="44.00438" lon="7.17589">
        <ele>949</ele>
        <time>2019-05-11T08:45:31.000Z</time>
      </trkpt>
      <trkpt lat="44.00442" lon="7.17589">
        <ele>949.40002441406</ele>
        <time>2019-05-11T08:45:33.000Z</time>
      </trkpt>
      <trkpt lat="44.00444" lon="7.17589">
        <ele>949.59997558594</ele>
        <time>2019-05-11T08:45:34.000Z</time>
      </trkpt>
      <trkpt lat="44.0045" lon="7.17589">
        <ele>950.20001220703</ele>
        <time>2019-05-11T08:45:37.000Z</time>
      </trkpt>
      <trkpt lat="44.00454" lon="7.17587">
        <ele>950.40002441406</ele>
        <time>2019-05-11T08:45:39.000Z</time>
      </trkpt>
      <trkpt lat="44.00456" lon="7.17586">
        <ele>950.59997558594</ele>
        <time>2019-05-11T08:45:40.000Z</time>
      </trkpt>
      <trkpt lat="44.00459" lon="7.17585">
        <ele>950.79998779297</ele>
        <time>2019-05-11T08:45:41.000Z</time>
      </trkpt>
      <trkpt lat="44.0046" lon="7.17586">
        <ele>951.20001220703</ele>
        <time>2019-05-11T08:45:42.000Z</time>
      </trkpt>
      <trkpt lat="44.00461" lon="7.17587">
        <ele>951.79998779297</ele>
        <time>2019-05-11T08:45:43.000Z</time>
      </trkpt>
      <trkpt lat="44.00462" lon="7.17589">
        <ele>952.20001220703</ele>
        <time>2019-05-11T08:45:45.000Z</time>
      </trkpt>
      <trkpt lat="44.00465" lon="7.17593">
        <ele>952.40002441406</ele>
        <time>2019-05-11T08:45:48.000Z</time>
      </trkpt>
      <trkpt lat="44.00467" lon="7.17599">
        <ele>952.20001220703</ele>
        <time>2019-05-11T08:45:51.000Z</time>
      </trkpt>
      <trkpt lat="44.00466" lon="7.17602">
        <ele>952</ele>
        <time>2019-05-11T08:45:54.000Z</time>
      </trkpt>
      <trkpt lat="44.00463" lon="7.17607">
        <ele>952.20001220703</ele>
        <time>2019-05-11T08:45:58.000Z</time>
      </trkpt>
      <trkpt lat="44.00464" lon="7.1761">
        <ele>952.20001220703</ele>
        <time>2019-05-11T08:46:01.000Z</time>
      </trkpt>
      <trkpt lat="44.00464" lon="7.17611">
        <ele>952.20001220703</ele>
        <time>2019-05-11T08:46:02.000Z</time>
      </trkpt>
      <trkpt lat="44.00464" lon="7.17613">
        <ele>952.20001220703</ele>
        <time>2019-05-11T08:46:03.000Z</time>
      </trkpt>
      <trkpt lat="44.00465" lon="7.17615">
        <ele>953</ele>
        <time>2019-05-11T08:46:06.000Z</time>
      </trkpt>
      <trkpt lat="44.00466" lon="7.17615">
        <ele>953.20001220703</ele>
        <time>2019-05-11T08:46:07.000Z</time>
      </trkpt>
      <trkpt lat="44.00467" lon="7.17617">
        <ele>953.79998779297</ele>
        <time>2019-05-11T08:46:13.000Z</time>
      </trkpt>
      <trkpt lat="44.00466" lon="7.1762">
        <ele>954.20001220703</ele>
        <time>2019-05-11T08:46:16.000Z</time>
      </trkpt>
      <trkpt lat="44.00466" lon="7.17623">
        <ele>954.59997558594</ele>
        <time>2019-05-11T08:46:19.000Z</time>
      </trkpt>
      <trkpt lat="44.00465" lon="7.17629">
        <ele>955.20001220703</ele>
        <time>2019-05-11T08:46:23.000Z</time>
      </trkpt>
      <trkpt lat="44.00465" lon="7.1763">
        <ele>955.59997558594</ele>
        <time>2019-05-11T08:46:26.000Z</time>
      </trkpt>
      <trkpt lat="44.00465" lon="7.17634">
        <ele>956</ele>
        <time>2019-05-11T08:46:36.000Z</time>
      </trkpt>
      <trkpt lat="44.00464" lon="7.17641">
        <ele>956.20001220703</ele>
        <time>2019-05-11T08:46:41.000Z</time>
      </trkpt>
      <trkpt lat="44.00463" lon="7.17643">
        <ele>956.40002441406</ele>
        <time>2019-05-11T08:46:43.000Z</time>
      </trkpt>
      <trkpt lat="44.00464" lon="7.17645">
        <ele>956.79998779297</ele>
        <time>2019-05-11T08:46:50.000Z</time>
      </trkpt>
      <trkpt lat="44.00468" lon="7.17653">
        <ele>957.20001220703</ele>
        <time>2019-05-11T08:46:56.000Z</time>
      </trkpt>
      <trkpt lat="44.00468" lon="7.17654">
        <ele>957.40002441406</ele>
        <time>2019-05-11T08:46:57.000Z</time>
      </trkpt>
      <trkpt lat="44.00471" lon="7.17659">
        <ele>958.20001220703</ele>
        <time>2019-05-11T08:47:02.000Z</time>
      </trkpt>
      <trkpt lat="44.00471" lon="7.17659">
        <ele>958.40002441406</ele>
        <time>2019-05-11T08:47:03.000Z</time>
      </trkpt>
      <trkpt lat="44.00472" lon="7.1766">
        <ele>958.79998779297</ele>
        <time>2019-05-11T08:47:07.000Z</time>
      </trkpt>
      <trkpt lat="44.00472" lon="7.17662">
        <ele>959</ele>
        <time>2019-05-11T08:47:08.000Z</time>
      </trkpt>
      <trkpt lat="44.00473" lon="7.17674">
        <ele>959.20001220703</ele>
        <time>2019-05-11T08:47:13.000Z</time>
      </trkpt>
      <trkpt lat="44.00474" lon="7.17684">
        <ele>959.59997558594</ele>
        <time>2019-05-11T08:47:17.000Z</time>
      </trkpt>
      <trkpt lat="44.00473" lon="7.1769">
        <ele>960.20001220703</ele>
        <time>2019-05-11T08:47:19.000Z</time>
      </trkpt>
      <trkpt lat="44.00472" lon="7.17698">
        <ele>960.79998779297</ele>
        <time>2019-05-11T08:47:22.000Z</time>
      </trkpt>
      <trkpt lat="44.00472" lon="7.17708">
        <ele>961.59997558594</ele>
        <time>2019-05-11T08:47:26.000Z</time>
      </trkpt>
      <trkpt lat="44.00472" lon="7.17711">
        <ele>961.79998779297</ele>
        <time>2019-05-11T08:47:27.000Z</time>
      </trkpt>
      <trkpt lat="44.00472" lon="7.17723">
        <ele>962.59997558594</ele>
        <time>2019-05-11T08:47:31.000Z</time>
      </trkpt>
      <trkpt lat="44.00471" lon="7.17741">
        <ele>962.79998779297</ele>
        <time>2019-05-11T08:47:36.000Z</time>
      </trkpt>
      <trkpt lat="44.00471" lon="7.17743">
        <ele>963</ele>
        <time>2019-05-11T08:47:37.000Z</time>
      </trkpt>
      <trkpt lat="44.00466" lon="7.17756">
        <ele>963.40002441406</ele>
        <time>2019-05-11T08:47:42.000Z</time>
      </trkpt>
      <trkpt lat="44.0046" lon="7.17775">
        <ele>963.40002441406</ele>
        <time>2019-05-11T08:47:49.000Z</time>
      </trkpt>
      <trkpt lat="44.00462" lon="7.17786">
        <ele>964</ele>
        <time>2019-05-11T08:47:53.000Z</time>
      </trkpt>
      <trkpt lat="44.00463" lon="7.17795">
        <ele>964.79998779297</ele>
        <time>2019-05-11T08:47:56.000Z</time>
      </trkpt>
      <trkpt lat="44.00463" lon="7.17803">
        <ele>965.20001220703</ele>
        <time>2019-05-11T08:47:59.000Z</time>
      </trkpt>
      <trkpt lat="44.00463" lon="7.17811">
        <ele>966</ele>
        <time>2019-05-11T08:48:02.000Z</time>
      </trkpt>
      <trkpt lat="44.00464" lon="7.17816">
        <ele>966.20001220703</ele>
        <time>2019-05-11T08:48:04.000Z</time>
      </trkpt>
      <trkpt lat="44.00465" lon="7.17818">
        <ele>966.59997558594</ele>
        <time>2019-05-11T08:48:05.000Z</time>
      </trkpt>
      <trkpt lat="44.00468" lon="7.17822">
        <ele>967</ele>
        <time>2019-05-11T08:48:07.000Z</time>
      </trkpt>
      <trkpt lat="44.00473" lon="7.17826">
        <ele>967.40002441406</ele>
        <time>2019-05-11T08:48:09.000Z</time>
      </trkpt>
      <trkpt lat="44.00475" lon="7.17827">
        <ele>967.20001220703</ele>
        <time>2019-05-11T08:48:10.000Z</time>
      </trkpt>
      <trkpt lat="44.00477" lon="7.17828">
        <ele>967.20001220703</ele>
        <time>2019-05-11T08:48:11.000Z</time>
      </trkpt>
      <trkpt lat="44.0049" lon="7.17835">
        <ele>967</ele>
        <time>2019-05-11T08:48:17.000Z</time>
      </trkpt>
      <trkpt lat="44.00496" lon="7.17837">
        <ele>966.79998779297</ele>
        <time>2019-05-11T08:48:19.000Z</time>
      </trkpt>
      <trkpt lat="44.00499" lon="7.17841">
        <ele>966.59997558594</ele>
        <time>2019-05-11T08:48:21.000Z</time>
      </trkpt>
      <trkpt lat="44.00502" lon="7.17854">
        <ele>966</ele>
        <time>2019-05-11T08:48:25.000Z</time>
      </trkpt>
      <trkpt lat="44.00501" lon="7.17857">
        <ele>965.79998779297</ele>
        <time>2019-05-11T08:48:26.000Z</time>
      </trkpt>
      <trkpt lat="44.005" lon="7.17859">
        <ele>965.59997558594</ele>
        <time>2019-05-11T08:48:27.000Z</time>
      </trkpt>
      <trkpt lat="44.00497" lon="7.17866">
        <ele>965.79998779297</ele>
        <time>2019-05-11T08:48:30.000Z</time>
      </trkpt>
      <trkpt lat="44.00495" lon="7.17874">
        <ele>966</ele>
        <time>2019-05-11T08:48:33.000Z</time>
      </trkpt>
      <trkpt lat="44.00496" lon="7.17886">
        <ele>966.40002441406</ele>
        <time>2019-05-11T08:48:38.000Z</time>
      </trkpt>
      <trkpt lat="44.005" lon="7.17896">
        <ele>967</ele>
        <time>2019-05-11T08:48:42.000Z</time>
      </trkpt>
      <trkpt lat="44.00501" lon="7.17899">
        <ele>967.20001220703</ele>
        <time>2019-05-11T08:48:43.000Z</time>
      </trkpt>
      <trkpt lat="44.00502" lon="7.17902">
        <ele>967.40002441406</ele>
        <time>2019-05-11T08:48:44.000Z</time>
      </trkpt>
      <trkpt lat="44.00504" lon="7.17909">
        <ele>967.59997558594</ele>
        <time>2019-05-11T08:48:47.000Z</time>
      </trkpt>
      <trkpt lat="44.00506" lon="7.17918">
        <ele>967.79998779297</ele>
        <time>2019-05-11T08:48:50.000Z</time>
      </trkpt>
      <trkpt lat="44.00509" lon="7.1793">
        <ele>967.79998779297</ele>
        <time>2019-05-11T08:48:55.000Z</time>
      </trkpt>
      <trkpt lat="44.00511" lon="7.17938">
        <ele>968.20001220703</ele>
        <time>2019-05-11T08:48:58.000Z</time>
      </trkpt>
      <trkpt lat="44.00513" lon="7.17947">
        <ele>968.40002441406</ele>
        <time>2019-05-11T08:49:01.000Z</time>
      </trkpt>
      <trkpt lat="44.00521" lon="7.17968">
        <ele>969.20001220703</ele>
        <time>2019-05-11T08:49:09.000Z</time>
      </trkpt>
      <trkpt lat="44.00523" lon="7.17971">
        <ele>969.40002441406</ele>
        <time>2019-05-11T08:49:10.000Z</time>
      </trkpt>
      <trkpt lat="44.00526" lon="7.17981">
        <ele>969.40002441406</ele>
        <time>2019-05-11T08:49:13.000Z</time>
      </trkpt>
      <trkpt lat="44.00528" lon="7.17984">
        <ele>969.40002441406</ele>
        <time>2019-05-11T08:49:14.000Z</time>
      </trkpt>
      <trkpt lat="44.00532" lon="7.17993">
        <ele>969.20001220703</ele>
        <time>2019-05-11T08:49:18.000Z</time>
      </trkpt>
      <trkpt lat="44.00532" lon="7.18001">
        <ele>969.59997558594</ele>
        <time>2019-05-11T08:49:21.000Z</time>
      </trkpt>
      <trkpt lat="44.00531" lon="7.18006">
        <ele>969.79998779297</ele>
        <time>2019-05-11T08:49:23.000Z</time>
      </trkpt>
      <trkpt lat="44.00529" lon="7.18011">
        <ele>969.59997558594</ele>
        <time>2019-05-11T08:49:25.000Z</time>
      </trkpt>
      <trkpt lat="44.00528" lon="7.18013">
        <ele>969.40002441406</ele>
        <time>2019-05-11T08:49:26.000Z</time>
      </trkpt>
      <trkpt lat="44.00522" lon="7.1803">
        <ele>969</ele>
        <time>2019-05-11T08:49:32.000Z</time>
      </trkpt>
      <trkpt lat="44.00522" lon="7.18036">
        <ele>969.20001220703</ele>
        <time>2019-05-11T08:49:34.000Z</time>
      </trkpt>
      <trkpt lat="44.00524" lon="7.18045">
        <ele>969.79998779297</ele>
        <time>2019-05-11T08:49:37.000Z</time>
      </trkpt>
      <trkpt lat="44.00528" lon="7.18049">
        <ele>970.59997558594</ele>
        <time>2019-05-11T08:49:39.000Z</time>
      </trkpt>
      <trkpt lat="44.00535" lon="7.18052">
        <ele>971</ele>
        <time>2019-05-11T08:49:41.000Z</time>
      </trkpt>
      <trkpt lat="44.00549" lon="7.18057">
        <ele>970.40002441406</ele>
        <time>2019-05-11T08:49:46.000Z</time>
      </trkpt>
      <trkpt lat="44.00556" lon="7.1806">
        <ele>970.20001220703</ele>
        <time>2019-05-11T08:49:49.000Z</time>
      </trkpt>
      <trkpt lat="44.00558" lon="7.18062">
        <ele>970</ele>
        <time>2019-05-11T08:49:50.000Z</time>
      </trkpt>
      <trkpt lat="44.00566" lon="7.18071">
        <ele>970</ele>
        <time>2019-05-11T08:49:54.000Z</time>
      </trkpt>
      <trkpt lat="44.00577" lon="7.18078">
        <ele>970.40002441406</ele>
        <time>2019-05-11T08:49:59.000Z</time>
      </trkpt>
      <trkpt lat="44.00583" lon="7.18081">
        <ele>971</ele>
        <time>2019-05-11T08:50:03.000Z</time>
      </trkpt>
      <trkpt lat="44.00584" lon="7.18082">
        <ele>971.20001220703</ele>
        <time>2019-05-11T08:50:04.000Z</time>
      </trkpt>
      <trkpt lat="44.00588" lon="7.18084">
        <ele>971.59997558594</ele>
        <time>2019-05-11T08:50:06.000Z</time>
      </trkpt>
      <trkpt lat="44.00589" lon="7.18087">
        <ele>971.79998779297</ele>
        <time>2019-05-11T08:50:07.000Z</time>
      </trkpt>
      <trkpt lat="44.0059" lon="7.1809">
        <ele>972</ele>
        <time>2019-05-11T08:50:08.000Z</time>
      </trkpt>
      <trkpt lat="44.00591" lon="7.18091">
        <ele>972.59997558594</ele>
        <time>2019-05-11T08:50:11.000Z</time>
      </trkpt>
      <trkpt lat="44.00591" lon="7.18092">
        <ele>972.79998779297</ele>
        <time>2019-05-11T08:50:12.000Z</time>
      </trkpt>
      <trkpt lat="44.00592" lon="7.18093">
        <ele>973</ele>
        <time>2019-05-11T08:50:14.000Z</time>
      </trkpt>
      <trkpt lat="44.00593" lon="7.18097">
        <ele>972.59997558594</ele>
        <time>2019-05-11T08:50:17.000Z</time>
      </trkpt>
      <trkpt lat="44.00595" lon="7.18108">
        <ele>973.40002441406</ele>
        <time>2019-05-11T08:50:22.000Z</time>
      </trkpt>
      <trkpt lat="44.00596" lon="7.1812">
        <ele>973.20001220703</ele>
        <time>2019-05-11T08:50:26.000Z</time>
      </trkpt>
      <trkpt lat="44.00595" lon="7.18138">
        <ele>973.59997558594</ele>
        <time>2019-05-11T08:50:31.000Z</time>
      </trkpt>
      <trkpt lat="44.00595" lon="7.18141">
        <ele>974</ele>
        <time>2019-05-11T08:50:32.000Z</time>
      </trkpt>
      <trkpt lat="44.0059" lon="7.18155">
        <ele>974.59997558594</ele>
        <time>2019-05-11T08:50:37.000Z</time>
      </trkpt>
      <trkpt lat="44.0059" lon="7.1816">
        <ele>975</ele>
        <time>2019-05-11T08:50:39.000Z</time>
      </trkpt>
      <trkpt lat="44.00588" lon="7.18166">
        <ele>976.20001220703</ele>
        <time>2019-05-11T08:50:42.000Z</time>
      </trkpt>
      <trkpt lat="44.00588" lon="7.18179">
        <ele>977.20001220703</ele>
        <time>2019-05-11T08:50:47.000Z</time>
      </trkpt>
      <trkpt lat="44.00588" lon="7.18182">
        <ele>977.40002441406</ele>
        <time>2019-05-11T08:50:48.000Z</time>
      </trkpt>
      <trkpt lat="44.00585" lon="7.18194">
        <ele>978.40002441406</ele>
        <time>2019-05-11T08:50:54.000Z</time>
      </trkpt>
      <trkpt lat="44.00585" lon="7.182">
        <ele>979.59997558594</ele>
        <time>2019-05-11T08:50:57.000Z</time>
      </trkpt>
      <trkpt lat="44.00585" lon="7.18202">
        <ele>980.40002441406</ele>
        <time>2019-05-11T08:51:00.000Z</time>
      </trkpt>
      <trkpt lat="44.00585" lon="7.18203">
        <ele>980.59997558594</ele>
        <time>2019-05-11T08:51:01.000Z</time>
      </trkpt>
      <trkpt lat="44.00584" lon="7.18209">
        <ele>981.40002441406</ele>
        <time>2019-05-11T08:51:06.000Z</time>
      </trkpt>
      <trkpt lat="44.00584" lon="7.18211">
        <ele>981.59997558594</ele>
        <time>2019-05-11T08:51:08.000Z</time>
      </trkpt>
      <trkpt lat="44.00583" lon="7.18216">
        <ele>982.59997558594</ele>
        <time>2019-05-11T08:51:13.000Z</time>
      </trkpt>
      <trkpt lat="44.00583" lon="7.18217">
        <ele>982.79998779297</ele>
        <time>2019-05-11T08:51:14.000Z</time>
      </trkpt>
      <trkpt lat="44.00583" lon="7.1822">
        <ele>983.59997558594</ele>
        <time>2019-05-11T08:51:19.000Z</time>
      </trkpt>
      <trkpt lat="44.00583" lon="7.18222">
        <ele>983.79998779297</ele>
        <time>2019-05-11T08:51:21.000Z</time>
      </trkpt>
      <trkpt lat="44.00584" lon="7.1823">
        <ele>984.79998779297</ele>
        <time>2019-05-11T08:51:27.000Z</time>
      </trkpt>
      <trkpt lat="44.00584" lon="7.18232">
        <ele>985</ele>
        <time>2019-05-11T08:51:28.000Z</time>
      </trkpt>
      <trkpt lat="44.00584" lon="7.18234">
        <ele>985.40002441406</ele>
        <time>2019-05-11T08:51:30.000Z</time>
      </trkpt>
      <trkpt lat="44.00585" lon="7.18239">
        <ele>986</ele>
        <time>2019-05-11T08:51:34.000Z</time>
      </trkpt>
      <trkpt lat="44.00586" lon="7.1824">
        <ele>986.20001220703</ele>
        <time>2019-05-11T08:51:35.000Z</time>
      </trkpt>
      <trkpt lat="44.00586" lon="7.18241">
        <ele>986.79998779297</ele>
        <time>2019-05-11T08:51:39.000Z</time>
      </trkpt>
      <trkpt lat="44.00589" lon="7.18247">
        <ele>987.20001220703</ele>
        <time>2019-05-11T08:51:44.000Z</time>
      </trkpt>
      <trkpt lat="44.00591" lon="7.1825">
        <ele>987.59997558594</ele>
        <time>2019-05-11T08:51:46.000Z</time>
      </trkpt>
      <trkpt lat="44.00596" lon="7.18259">
        <ele>988.40002441406</ele>
        <time>2019-05-11T08:51:51.000Z</time>
      </trkpt>
      <trkpt lat="44.00599" lon="7.18264">
        <ele>988.79998779297</ele>
        <time>2019-05-11T08:51:53.000Z</time>
      </trkpt>
      <trkpt lat="44.00599" lon="7.18266">
        <ele>989</ele>
        <time>2019-05-11T08:51:54.000Z</time>
      </trkpt>
      <trkpt lat="44.00599" lon="7.1827">
        <ele>989.40002441406</ele>
        <time>2019-05-11T08:51:56.000Z</time>
      </trkpt>
      <trkpt lat="44.00599" lon="7.18278">
        <ele>989.40002441406</ele>
        <time>2019-05-11T08:51:59.000Z</time>
      </trkpt>
      <trkpt lat="44.006" lon="7.18285">
        <ele>990</ele>
        <time>2019-05-11T08:52:02.000Z</time>
      </trkpt>
      <trkpt lat="44.00601" lon="7.18289">
        <ele>990.40002441406</ele>
        <time>2019-05-11T08:52:04.000Z</time>
      </trkpt>
      <trkpt lat="44.00604" lon="7.18297">
        <ele>991.20001220703</ele>
        <time>2019-05-11T08:52:08.000Z</time>
      </trkpt>
      <trkpt lat="44.00606" lon="7.18301">
        <ele>991.59997558594</ele>
        <time>2019-05-11T08:52:10.000Z</time>
      </trkpt>
      <trkpt lat="44.0061" lon="7.18309">
        <ele>992.40002441406</ele>
        <time>2019-05-11T08:52:13.000Z</time>
      </trkpt>
      <trkpt lat="44.00611" lon="7.18311">
        <ele>992.79998779297</ele>
        <time>2019-05-11T08:52:14.000Z</time>
      </trkpt>
      <trkpt lat="44.00618" lon="7.18321">
        <ele>993.40002441406</ele>
        <time>2019-05-11T08:52:18.000Z</time>
      </trkpt>
      <trkpt lat="44.00622" lon="7.18331">
        <ele>994</ele>
        <time>2019-05-11T08:52:22.000Z</time>
      </trkpt>
      <trkpt lat="44.00624" lon="7.18334">
        <ele>994</ele>
        <time>2019-05-11T08:52:23.000Z</time>
      </trkpt>
      <trkpt lat="44.00631" lon="7.18344">
        <ele>994.59997558594</ele>
        <time>2019-05-11T08:52:28.000Z</time>
      </trkpt>
      <trkpt lat="44.00632" lon="7.18346">
        <ele>995</ele>
        <time>2019-05-11T08:52:29.000Z</time>
      </trkpt>
      <trkpt lat="44.0064" lon="7.18353">
        <ele>996</ele>
        <time>2019-05-11T08:52:33.000Z</time>
      </trkpt>
      <trkpt lat="44.00647" lon="7.18357">
        <ele>997.40002441406</ele>
        <time>2019-05-11T08:52:37.000Z</time>
      </trkpt>
      <trkpt lat="44.0065" lon="7.18357">
        <ele>997.79998779297</ele>
        <time>2019-05-11T08:52:38.000Z</time>
      </trkpt>
      <trkpt lat="44.00652" lon="7.18357">
        <ele>998.40002441406</ele>
        <time>2019-05-11T08:52:39.000Z</time>
      </trkpt>
      <trkpt lat="44.00653" lon="7.18357">
        <ele>998.59997558594</ele>
        <time>2019-05-11T08:52:40.000Z</time>
      </trkpt>
      <trkpt lat="44.00658" lon="7.18356">
        <ele>999.20001220703</ele>
        <time>2019-05-11T08:52:42.000Z</time>
      </trkpt>
      <trkpt lat="44.00665" lon="7.18355">
        <ele>999.40002441406</ele>
        <time>2019-05-11T08:52:46.000Z</time>
      </trkpt>
      <trkpt lat="44.00666" lon="7.18355">
        <ele>999.40002441406</ele>
        <time>2019-05-11T08:52:47.000Z</time>
      </trkpt>
      <trkpt lat="44.00673" lon="7.18352">
        <ele>1000</ele>
        <time>2019-05-11T08:52:50.000Z</time>
      </trkpt>
      <trkpt lat="44.00682" lon="7.18349">
        <ele>1000.799987793</ele>
        <time>2019-05-11T08:52:54.000Z</time>
      </trkpt>
      <trkpt lat="44.00685" lon="7.18347">
        <ele>1001.200012207</ele>
        <time>2019-05-11T08:52:56.000Z</time>
      </trkpt>
      <trkpt lat="44.00688" lon="7.18347">
        <ele>1001.4000244141</ele>
        <time>2019-05-11T08:52:58.000Z</time>
      </trkpt>
      <trkpt lat="44.00691" lon="7.18347">
        <ele>1001.5999755859</ele>
        <time>2019-05-11T08:53:00.000Z</time>
      </trkpt>
      <trkpt lat="44.00695" lon="7.18345">
        <ele>1001.799987793</ele>
        <time>2019-05-11T08:53:05.000Z</time>
      </trkpt>
      <trkpt lat="44.00697" lon="7.18345">
        <ele>1002.4000244141</ele>
        <time>2019-05-11T08:53:11.000Z</time>
      </trkpt>
      <trkpt lat="44.007" lon="7.18345">
        <ele>1002.799987793</ele>
        <time>2019-05-11T08:53:14.000Z</time>
      </trkpt>
      <trkpt lat="44.00702" lon="7.18344">
        <ele>1003</ele>
        <time>2019-05-11T08:53:15.000Z</time>
      </trkpt>
      <trkpt lat="44.00704" lon="7.18344">
        <ele>1003.799987793</ele>
        <time>2019-05-11T08:53:20.000Z</time>
      </trkpt>
      <trkpt lat="44.00705" lon="7.18344">
        <ele>1003.799987793</ele>
        <time>2019-05-11T08:53:21.000Z</time>
      </trkpt>
      <trkpt lat="44.00705" lon="7.18345">
        <ele>1003.799987793</ele>
        <time>2019-05-11T08:53:22.000Z</time>
      </trkpt>
      <trkpt lat="44.00707" lon="7.18347">
        <ele>1004</ele>
        <time>2019-05-11T08:53:25.000Z</time>
      </trkpt>
      <trkpt lat="44.0071" lon="7.18348">
        <ele>1004.5999755859</ele>
        <time>2019-05-11T08:53:31.000Z</time>
      </trkpt>
      <trkpt lat="44.00711" lon="7.18349">
        <ele>1004.5999755859</ele>
        <time>2019-05-11T08:53:32.000Z</time>
      </trkpt>
      <trkpt lat="44.00713" lon="7.1835">
        <ele>1004.799987793</ele>
        <time>2019-05-11T08:53:36.000Z</time>
      </trkpt>
      <trkpt lat="44.00715" lon="7.1835">
        <ele>1004.5999755859</ele>
        <time>2019-05-11T08:53:42.000Z</time>
      </trkpt>
      <trkpt lat="44.00717" lon="7.18351">
        <ele>1004.5999755859</ele>
        <time>2019-05-11T08:53:46.000Z</time>
      </trkpt>
      <trkpt lat="44.00717" lon="7.18352">
        <ele>1004.799987793</ele>
        <time>2019-05-11T08:53:47.000Z</time>
      </trkpt>
      <trkpt lat="44.00717" lon="7.18357">
        <ele>1004.799987793</ele>
        <time>2019-05-11T08:53:49.000Z</time>
      </trkpt>
      <trkpt lat="44.00718" lon="7.18362">
        <ele>1005.200012207</ele>
        <time>2019-05-11T08:53:51.000Z</time>
      </trkpt>
      <trkpt lat="44.00718" lon="7.18365">
        <ele>1005.200012207</ele>
        <time>2019-05-11T08:53:52.000Z</time>
      </trkpt>
      <trkpt lat="44.00721" lon="7.18375">
        <ele>1006</ele>
        <time>2019-05-11T08:53:56.000Z</time>
      </trkpt>
      <trkpt lat="44.00724" lon="7.1838">
        <ele>1006.200012207</ele>
        <time>2019-05-11T08:53:58.000Z</time>
      </trkpt>
      <trkpt lat="44.00728" lon="7.18382">
        <ele>1007</ele>
        <time>2019-05-11T08:54:01.000Z</time>
      </trkpt>
      <trkpt lat="44.0073" lon="7.18383">
        <ele>1007.4000244141</ele>
        <time>2019-05-11T08:54:02.000Z</time>
      </trkpt>
      <trkpt lat="44.00737" lon="7.18385">
        <ele>1008.200012207</ele>
        <time>2019-05-11T08:54:06.000Z</time>
      </trkpt>
      <trkpt lat="44.00741" lon="7.18386">
        <ele>1008.4000244141</ele>
        <time>2019-05-11T08:54:08.000Z</time>
      </trkpt>
      <trkpt lat="44.00748" lon="7.18393">
        <ele>1009.200012207</ele>
        <time>2019-05-11T08:54:13.000Z</time>
      </trkpt>
      <trkpt lat="44.00751" lon="7.18396">
        <ele>1009.200012207</ele>
        <time>2019-05-11T08:54:15.000Z</time>
      </trkpt>
      <trkpt lat="44.00757" lon="7.18398">
        <ele>1009.200012207</ele>
        <time>2019-05-11T08:54:18.000Z</time>
      </trkpt>
      <trkpt lat="44.00761" lon="7.18398">
        <ele>1009.5999755859</ele>
        <time>2019-05-11T08:54:20.000Z</time>
      </trkpt>
      <trkpt lat="44.00769" lon="7.18399">
        <ele>1010.200012207</ele>
        <time>2019-05-11T08:54:24.000Z</time>
      </trkpt>
      <trkpt lat="44.00771" lon="7.18399">
        <ele>1010.4000244141</ele>
        <time>2019-05-11T08:54:25.000Z</time>
      </trkpt>
      <trkpt lat="44.00778" lon="7.18399">
        <ele>1011</ele>
        <time>2019-05-11T08:54:28.000Z</time>
      </trkpt>
      <trkpt lat="44.00779" lon="7.18399">
        <ele>1011.4000244141</ele>
        <time>2019-05-11T08:54:29.000Z</time>
      </trkpt>
      <trkpt lat="44.00783" lon="7.18399">
        <ele>1012.5999755859</ele>
        <time>2019-05-11T08:54:32.000Z</time>
      </trkpt>
      <trkpt lat="44.00787" lon="7.18397">
        <ele>1013.5999755859</ele>
        <time>2019-05-11T08:54:35.000Z</time>
      </trkpt>
      <trkpt lat="44.00789" lon="7.18396">
        <ele>1014</ele>
        <time>2019-05-11T08:54:36.000Z</time>
      </trkpt>
      <trkpt lat="44.00792" lon="7.18394">
        <ele>1014.5999755859</ele>
        <time>2019-05-11T08:54:38.000Z</time>
      </trkpt>
      <trkpt lat="44.00797" lon="7.18393">
        <ele>1015.5999755859</ele>
        <time>2019-05-11T08:54:41.000Z</time>
      </trkpt>
      <trkpt lat="44.008" lon="7.18394">
        <ele>1016.200012207</ele>
        <time>2019-05-11T08:54:44.000Z</time>
      </trkpt>
      <trkpt lat="44.00801" lon="7.18396">
        <ele>1016.200012207</ele>
        <time>2019-05-11T08:54:46.000Z</time>
      </trkpt>
      <trkpt lat="44.00801" lon="7.18397">
        <ele>1016.200012207</ele>
        <time>2019-05-11T08:54:47.000Z</time>
      </trkpt>
      <trkpt lat="44.00798" lon="7.18402">
        <ele>1016.200012207</ele>
        <time>2019-05-11T08:54:50.000Z</time>
      </trkpt>
      <trkpt lat="44.00797" lon="7.18404">
        <ele>1016.200012207</ele>
        <time>2019-05-11T08:54:51.000Z</time>
      </trkpt>
      <trkpt lat="44.00795" lon="7.18411">
        <ele>1016.5999755859</ele>
        <time>2019-05-11T08:54:54.000Z</time>
      </trkpt>
      <trkpt lat="44.00795" lon="7.18419">
        <ele>1017</ele>
        <time>2019-05-11T08:54:56.000Z</time>
      </trkpt>
      <trkpt lat="44.00794" lon="7.18428">
        <ele>1016.799987793</ele>
        <time>2019-05-11T08:55:00.000Z</time>
      </trkpt>
      <trkpt lat="44.00792" lon="7.18437">
        <ele>1017.799987793</ele>
        <time>2019-05-11T08:55:05.000Z</time>
      </trkpt>
      <trkpt lat="44.00792" lon="7.1844">
        <ele>1018</ele>
        <time>2019-05-11T08:55:06.000Z</time>
      </trkpt>
      <trkpt lat="44.00789" lon="7.18449">
        <ele>1018.4000244141</ele>
        <time>2019-05-11T08:55:10.000Z</time>
      </trkpt>
      <trkpt lat="44.00785" lon="7.18458">
        <ele>1018.5999755859</ele>
        <time>2019-05-11T08:55:15.000Z</time>
      </trkpt>
      <trkpt lat="44.00783" lon="7.18468">
        <ele>1018.5999755859</ele>
        <time>2019-05-11T08:55:18.000Z</time>
      </trkpt>
      <trkpt lat="44.00783" lon="7.18479">
        <ele>1018.5999755859</ele>
        <time>2019-05-11T08:55:22.000Z</time>
      </trkpt>
      <trkpt lat="44.00783" lon="7.18485">
        <ele>1018.799987793</ele>
        <time>2019-05-11T08:55:24.000Z</time>
      </trkpt>
      <trkpt lat="44.00784" lon="7.18494">
        <ele>1019.200012207</ele>
        <time>2019-05-11T08:55:27.000Z</time>
      </trkpt>
      <trkpt lat="44.00785" lon="7.18511">
        <ele>1020</ele>
        <time>2019-05-11T08:55:32.000Z</time>
      </trkpt>
      <trkpt lat="44.00786" lon="7.18516">
        <ele>1020</ele>
        <time>2019-05-11T08:55:33.000Z</time>
      </trkpt>
      <trkpt lat="44.00787" lon="7.18532">
        <ele>1019.4000244141</ele>
        <time>2019-05-11T08:55:38.000Z</time>
      </trkpt>
      <trkpt lat="44.00786" lon="7.18549">
        <ele>1020.200012207</ele>
        <time>2019-05-11T08:55:43.000Z</time>
      </trkpt>
      <trkpt lat="44.00787" lon="7.1857">
        <ele>1019.5999755859</ele>
        <time>2019-05-11T08:55:48.000Z</time>
      </trkpt>
      <trkpt lat="44.00792" lon="7.1859">
        <ele>1020.5999755859</ele>
        <time>2019-05-11T08:55:54.000Z</time>
      </trkpt>
      <trkpt lat="44.00794" lon="7.186">
        <ele>1021</ele>
        <time>2019-05-11T08:55:57.000Z</time>
      </trkpt>
      <trkpt lat="44.00797" lon="7.18606">
        <ele>1021.200012207</ele>
        <time>2019-05-11T08:55:59.000Z</time>
      </trkpt>
      <trkpt lat="44.00798" lon="7.18608">
        <ele>1021.4000244141</ele>
        <time>2019-05-11T08:56:00.000Z</time>
      </trkpt>
      <trkpt lat="44.00806" lon="7.18619">
        <ele>1021.5999755859</ele>
        <time>2019-05-11T08:56:04.000Z</time>
      </trkpt>
      <trkpt lat="44.00821" lon="7.18628">
        <ele>1021.5999755859</ele>
        <time>2019-05-11T08:56:10.000Z</time>
      </trkpt>
      <trkpt lat="44.0084" lon="7.18637">
        <ele>1021.5999755859</ele>
        <time>2019-05-11T08:56:16.000Z</time>
      </trkpt>
      <trkpt lat="44.00849" lon="7.18641">
        <ele>1022</ele>
        <time>2019-05-11T08:56:19.000Z</time>
      </trkpt>
      <trkpt lat="44.00859" lon="7.18646">
        <ele>1022</ele>
        <time>2019-05-11T08:56:22.000Z</time>
      </trkpt>
      <trkpt lat="44.00875" lon="7.18652">
        <ele>1021.5999755859</ele>
        <time>2019-05-11T08:56:27.000Z</time>
      </trkpt>
      <trkpt lat="44.00884" lon="7.18658">
        <ele>1021.200012207</ele>
        <time>2019-05-11T08:56:31.000Z</time>
      </trkpt>
      <trkpt lat="44.00889" lon="7.1866">
        <ele>1021</ele>
        <time>2019-05-11T08:56:33.000Z</time>
      </trkpt>
      <trkpt lat="44.00892" lon="7.18665">
        <ele>1021</ele>
        <time>2019-05-11T08:56:35.000Z</time>
      </trkpt>
      <trkpt lat="44.00895" lon="7.18674">
        <ele>1020.799987793</ele>
        <time>2019-05-11T08:56:38.000Z</time>
      </trkpt>
      <trkpt lat="44.00898" lon="7.18682">
        <ele>1021</ele>
        <time>2019-05-11T08:56:41.000Z</time>
      </trkpt>
      <trkpt lat="44.00899" lon="7.18685">
        <ele>1021</ele>
        <time>2019-05-11T08:56:42.000Z</time>
      </trkpt>
      <trkpt lat="44.00899" lon="7.18699">
        <ele>1021.200012207</ele>
        <time>2019-05-11T08:56:46.000Z</time>
      </trkpt>
      <trkpt lat="44.00894" lon="7.18715">
        <ele>1021.200012207</ele>
        <time>2019-05-11T08:56:51.000Z</time>
      </trkpt>
      <trkpt lat="44.00895" lon="7.18724">
        <ele>1021.4000244141</ele>
        <time>2019-05-11T08:56:55.000Z</time>
      </trkpt>
      <trkpt lat="44.00892" lon="7.18737">
        <ele>1022</ele>
        <time>2019-05-11T08:57:00.000Z</time>
      </trkpt>
      <trkpt lat="44.00892" lon="7.18748">
        <ele>1022.4000244141</ele>
        <time>2019-05-11T08:57:03.000Z</time>
      </trkpt>
      <trkpt lat="44.00892" lon="7.18756">
        <ele>1022</ele>
        <time>2019-05-11T08:57:05.000Z</time>
      </trkpt>
      <trkpt lat="44.00894" lon="7.18766">
        <ele>1020.799987793</ele>
        <time>2019-05-11T08:57:08.000Z</time>
      </trkpt>
      <trkpt lat="44.00893" lon="7.18769">
        <ele>1020.5999755859</ele>
        <time>2019-05-11T08:57:09.000Z</time>
      </trkpt>
      <trkpt lat="44.00889" lon="7.18769">
        <ele>1019.5999755859</ele>
        <time>2019-05-11T08:57:11.000Z</time>
      </trkpt>
      <trkpt lat="44.00888" lon="7.1877">
        <ele>1019</ele>
        <time>2019-05-11T08:57:12.000Z</time>
      </trkpt>
      <trkpt lat="44.00889" lon="7.18775">
        <ele>1017.799987793</ele>
        <time>2019-05-11T08:57:14.000Z</time>
      </trkpt>
      <trkpt lat="44.00892" lon="7.18777">
        <ele>1017.5999755859</ele>
        <time>2019-05-11T08:57:15.000Z</time>
      </trkpt>
      <trkpt lat="44.00901" lon="7.18778">
        <ele>1016.5999755859</ele>
        <time>2019-05-11T08:57:17.000Z</time>
      </trkpt>
      <trkpt lat="44.00908" lon="7.18777">
        <ele>1016.200012207</ele>
        <time>2019-05-11T08:57:18.000Z</time>
      </trkpt>
      <trkpt lat="44.00918" lon="7.18775">
        <ele>1015.200012207</ele>
        <time>2019-05-11T08:57:20.000Z</time>
      </trkpt>
      <trkpt lat="44.00926" lon="7.18777">
        <ele>1014.200012207</ele>
        <time>2019-05-11T08:57:22.000Z</time>
      </trkpt>
      <trkpt lat="44.0093" lon="7.18776">
        <ele>1013</ele>
        <time>2019-05-11T08:57:23.000Z</time>
      </trkpt>
      <trkpt lat="44.0094" lon="7.18776">
        <ele>1012</ele>
        <time>2019-05-11T08:57:26.000Z</time>
      </trkpt>
      <trkpt lat="44.00943" lon="7.18776">
        <ele>1011.5999755859</ele>
        <time>2019-05-11T08:57:27.000Z</time>
      </trkpt>
      <trkpt lat="44.0095" lon="7.18778">
        <ele>1011.4000244141</ele>
        <time>2019-05-11T08:57:29.000Z</time>
      </trkpt>
      <trkpt lat="44.00956" lon="7.18784">
        <ele>1011.200012207</ele>
        <time>2019-05-11T08:57:31.000Z</time>
      </trkpt>
      <trkpt lat="44.00958" lon="7.18787">
        <ele>1010.799987793</ele>
        <time>2019-05-11T08:57:32.000Z</time>
      </trkpt>
      <trkpt lat="44.00964" lon="7.18795">
        <ele>1009.799987793</ele>
        <time>2019-05-11T08:57:34.000Z</time>
      </trkpt>
      <trkpt lat="44.00964" lon="7.18798">
        <ele>1008.799987793</ele>
        <time>2019-05-11T08:57:35.000Z</time>
      </trkpt>
      <trkpt lat="44.00965" lon="7.188">
        <ele>1009.200012207</ele>
        <time>2019-05-11T08:57:36.000Z</time>
      </trkpt>
      <trkpt lat="44.00965" lon="7.18802">
        <ele>1008.5999755859</ele>
        <time>2019-05-11T08:57:37.000Z</time>
      </trkpt>
      <trkpt lat="44.00972" lon="7.18803">
        <ele>1007.799987793</ele>
        <time>2019-05-11T08:57:40.000Z</time>
      </trkpt>
      <trkpt lat="44.00975" lon="7.18804">
        <ele>1006.799987793</ele>
        <time>2019-05-11T08:57:41.000Z</time>
      </trkpt>
      <trkpt lat="44.00984" lon="7.18807">
        <ele>1006.799987793</ele>
        <time>2019-05-11T08:57:44.000Z</time>
      </trkpt>
      <trkpt lat="44.00983" lon="7.18806">
        <ele>1006.799987793</ele>
        <time>2019-05-11T08:57:45.000Z</time>
      </trkpt>
      <trkpt lat="44.00988" lon="7.18805">
        <ele>1006.4000244141</ele>
        <time>2019-05-11T08:57:46.000Z</time>
      </trkpt>
      <trkpt lat="44.00994" lon="7.18807">
        <ele>1005.5999755859</ele>
        <time>2019-05-11T08:57:48.000Z</time>
      </trkpt>
      <trkpt lat="44.00997" lon="7.18813">
        <ele>1004.4000244141</ele>
        <time>2019-05-11T08:57:51.000Z</time>
      </trkpt>
      <trkpt lat="44.00998" lon="7.18815">
        <ele>1004.200012207</ele>
        <time>2019-05-11T08:57:52.000Z</time>
      </trkpt>
      <trkpt lat="44.00999" lon="7.18817">
        <ele>1004.4000244141</ele>
        <time>2019-05-11T08:57:54.000Z</time>
      </trkpt>
      <trkpt lat="44.00999" lon="7.18819">
        <ele>1005</ele>
        <time>2019-05-11T08:57:56.000Z</time>
      </trkpt>
      <trkpt lat="44.00998" lon="7.18825">
        <ele>1005.200012207</ele>
        <time>2019-05-11T08:58:02.000Z</time>
      </trkpt>
      <trkpt lat="44.00998" lon="7.18825">
        <ele>1005.4000244141</ele>
        <time>2019-05-11T08:58:03.000Z</time>
      </trkpt>
      <trkpt lat="44.00998" lon="7.18825">
        <ele>1005.799987793</ele>
        <time>2019-05-11T08:58:09.000Z</time>
      </trkpt>
      <trkpt lat="44.00996" lon="7.18829">
        <ele>1006.5999755859</ele>
        <time>2019-05-11T08:58:14.000Z</time>
      </trkpt>
      <trkpt lat="44.00995" lon="7.18831">
        <ele>1006.799987793</ele>
        <time>2019-05-11T08:58:16.000Z</time>
      </trkpt>
      <trkpt lat="44.0099" lon="7.18835">
        <ele>1007.4000244141</ele>
        <time>2019-05-11T08:58:23.000Z</time>
      </trkpt>
      <trkpt lat="44.00989" lon="7.18836">
        <ele>1007.5999755859</ele>
        <time>2019-05-11T08:58:24.000Z</time>
      </trkpt>
      <trkpt lat="44.00985" lon="7.18839">
        <ele>1008.4000244141</ele>
        <time>2019-05-11T08:58:30.000Z</time>
      </trkpt>
      <trkpt lat="44.00985" lon="7.18839">
        <ele>1008.5999755859</ele>
        <time>2019-05-11T08:58:32.000Z</time>
      </trkpt>
      <trkpt lat="44.00984" lon="7.18839">
        <ele>1009.200012207</ele>
        <time>2019-05-11T08:58:35.000Z</time>
      </trkpt>
      <trkpt lat="44.00982" lon="7.18841">
        <ele>1009.5999755859</ele>
        <time>2019-05-11T08:58:42.000Z</time>
      </trkpt>
      <trkpt lat="44.00981" lon="7.18842">
        <ele>1009.799987793</ele>
        <time>2019-05-11T08:58:43.000Z</time>
      </trkpt>
      <trkpt lat="44.00977" lon="7.18847">
        <ele>1010.799987793</ele>
        <time>2019-05-11T08:58:50.000Z</time>
      </trkpt>
      <trkpt lat="44.00977" lon="7.18848">
        <ele>1010.799987793</ele>
        <time>2019-05-11T08:58:51.000Z</time>
      </trkpt>
      <trkpt lat="44.00976" lon="7.1885">
        <ele>1011.200012207</ele>
        <time>2019-05-11T08:58:55.000Z</time>
      </trkpt>
      <trkpt lat="44.00974" lon="7.18856">
        <ele>1012</ele>
        <time>2019-05-11T08:59:00.000Z</time>
      </trkpt>
      <trkpt lat="44.00973" lon="7.18857">
        <ele>1012.200012207</ele>
        <time>2019-05-11T08:59:03.000Z</time>
      </trkpt>
      <trkpt lat="44.00973" lon="7.18858">
        <ele>1013.200012207</ele>
        <time>2019-05-11T08:59:07.000Z</time>
      </trkpt>
      <trkpt lat="44.00973" lon="7.18859">
        <ele>1013.4000244141</ele>
        <time>2019-05-11T08:59:10.000Z</time>
      </trkpt>
      <trkpt lat="44.00972" lon="7.1886">
        <ele>1013</ele>
        <time>2019-05-11T08:59:11.000Z</time>
      </trkpt>
      <trkpt lat="44.00968" lon="7.18866">
        <ele>1013</ele>
        <time>2019-05-11T08:59:15.000Z</time>
      </trkpt>
      <trkpt lat="44.00963" lon="7.18876">
        <ele>1014.200012207</ele>
        <time>2019-05-11T08:59:21.000Z</time>
      </trkpt>
      <trkpt lat="44.00962" lon="7.18878">
        <ele>1014.5999755859</ele>
        <time>2019-05-11T08:59:22.000Z</time>
      </trkpt>
      <trkpt lat="44.00958" lon="7.18889">
        <ele>1015.5999755859</ele>
        <time>2019-05-11T08:59:28.000Z</time>
      </trkpt>
      <trkpt lat="44.00958" lon="7.18891">
        <ele>1015.5999755859</ele>
        <time>2019-05-11T08:59:29.000Z</time>
      </trkpt>
      <trkpt lat="44.00954" lon="7.18899">
        <ele>1016.5999755859</ele>
        <time>2019-05-11T08:59:34.000Z</time>
      </trkpt>
      <trkpt lat="44.00953" lon="7.18903">
        <ele>1017.200012207</ele>
        <time>2019-05-11T08:59:36.000Z</time>
      </trkpt>
      <trkpt lat="44.00951" lon="7.1891">
        <ele>1017.799987793</ele>
        <time>2019-05-11T08:59:39.000Z</time>
      </trkpt>
      <trkpt lat="44.0095" lon="7.18914">
        <ele>1018.5999755859</ele>
        <time>2019-05-11T08:59:42.000Z</time>
      </trkpt>
      <trkpt lat="44.00949" lon="7.18916">
        <ele>1019.200012207</ele>
        <time>2019-05-11T08:59:43.000Z</time>
      </trkpt>
      <trkpt lat="44.00949" lon="7.1892">
        <ele>1020.200012207</ele>
        <time>2019-05-11T08:59:48.000Z</time>
      </trkpt>
      <trkpt lat="44.00948" lon="7.1892">
        <ele>1020.200012207</ele>
        <time>2019-05-11T08:59:50.000Z</time>
      </trkpt>
      <trkpt lat="44.00948" lon="7.18921">
        <ele>1020.4000244141</ele>
        <time>2019-05-11T08:59:55.000Z</time>
      </trkpt>
      <trkpt lat="44.00948" lon="7.18923">
        <ele>1020.200012207</ele>
        <time>2019-05-11T08:59:57.000Z</time>
      </trkpt>
      <trkpt lat="44.00947" lon="7.18926">
        <ele>1020.5999755859</ele>
        <time>2019-05-11T09:00:01.000Z</time>
      </trkpt>
      <trkpt lat="44.00947" lon="7.18931">
        <ele>1020.799987793</ele>
        <time>2019-05-11T09:00:09.000Z</time>
      </trkpt>
      <trkpt lat="44.00948" lon="7.18932">
        <ele>1021.200012207</ele>
        <time>2019-05-11T09:00:13.000Z</time>
      </trkpt>
      <trkpt lat="44.00948" lon="7.18932">
        <ele>1021.4000244141</ele>
        <time>2019-05-11T09:00:15.000Z</time>
      </trkpt>
      <trkpt lat="44.00948" lon="7.18937">
        <ele>1021.5999755859</ele>
        <time>2019-05-11T09:00:21.000Z</time>
      </trkpt>
      <trkpt lat="44.00949" lon="7.18938">
        <ele>1021.799987793</ele>
        <time>2019-05-11T09:00:22.000Z</time>
      </trkpt>
      <trkpt lat="44.0095" lon="7.18943">
        <ele>1022.4000244141</ele>
        <time>2019-05-11T09:00:26.000Z</time>
      </trkpt>
      <trkpt lat="44.0095" lon="7.18945">
        <ele>1022.5999755859</ele>
        <time>2019-05-11T09:00:28.000Z</time>
      </trkpt>
      <trkpt lat="44.00951" lon="7.1895">
        <ele>1023.4000244141</ele>
        <time>2019-05-11T09:00:33.000Z</time>
      </trkpt>
      <trkpt lat="44.00951" lon="7.18954">
        <ele>1024</ele>
        <time>2019-05-11T09:00:36.000Z</time>
      </trkpt>
      <trkpt lat="44.00951" lon="7.18956">
        <ele>1024.1999511719</ele>
        <time>2019-05-11T09:00:37.000Z</time>
      </trkpt>
      <trkpt lat="44.00951" lon="7.18958">
        <ele>1024.4000244141</ele>
        <time>2019-05-11T09:00:39.000Z</time>
      </trkpt>
      <trkpt lat="44.00953" lon="7.18963">
        <ele>1025</ele>
        <time>2019-05-11T09:00:44.000Z</time>
      </trkpt>
      <trkpt lat="44.00954" lon="7.18967">
        <ele>1025.5999755859</ele>
        <time>2019-05-11T09:00:47.000Z</time>
      </trkpt>
      <trkpt lat="44.00955" lon="7.18969">
        <ele>1026.4000244141</ele>
        <time>2019-05-11T09:00:51.000Z</time>
      </trkpt>
      <trkpt lat="44.00955" lon="7.1897">
        <ele>1026.5999755859</ele>
        <time>2019-05-11T09:00:53.000Z</time>
      </trkpt>
      <trkpt lat="44.00957" lon="7.18974">
        <ele>1026.5999755859</ele>
        <time>2019-05-11T09:00:57.000Z</time>
      </trkpt>
      <trkpt lat="44.00964" lon="7.18983">
        <ele>1027.5999755859</ele>
        <time>2019-05-11T09:01:04.000Z</time>
      </trkpt>
      <trkpt lat="44.00965" lon="7.18984">
        <ele>1027.5999755859</ele>
        <time>2019-05-11T09:01:05.000Z</time>
      </trkpt>
      <trkpt lat="44.00974" lon="7.18989">
        <ele>1028.1999511719</ele>
        <time>2019-05-11T09:01:11.000Z</time>
      </trkpt>
      <trkpt lat="44.00979" lon="7.18992">
        <ele>1028.8000488281</ele>
        <time>2019-05-11T09:01:14.000Z</time>
      </trkpt>
      <trkpt lat="44.00984" lon="7.18995">
        <ele>1030</ele>
        <time>2019-05-11T09:01:18.000Z</time>
      </trkpt>
      <trkpt lat="44.00989" lon="7.18998">
        <ele>1030.5999755859</ele>
        <time>2019-05-11T09:01:22.000Z</time>
      </trkpt>
      <trkpt lat="44.00991" lon="7.19">
        <ele>1031</ele>
        <time>2019-05-11T09:01:24.000Z</time>
      </trkpt>
      <trkpt lat="44.00995" lon="7.19004">
        <ele>1032</ele>
        <time>2019-05-11T09:01:28.000Z</time>
      </trkpt>
      <trkpt lat="44.00997" lon="7.19005">
        <ele>1032.1999511719</ele>
        <time>2019-05-11T09:01:29.000Z</time>
      </trkpt>
      <trkpt lat="44.01" lon="7.19007">
        <ele>1032.8000488281</ele>
        <time>2019-05-11T09:01:31.000Z</time>
      </trkpt>
      <trkpt lat="44.01" lon="7.19007">
        <ele>1033.1999511719</ele>
        <time>2019-05-11T09:01:32.000Z</time>
      </trkpt>
      <trkpt lat="44.01001" lon="7.19009">
        <ele>1033.4000244141</ele>
        <time>2019-05-11T09:01:33.000Z</time>
      </trkpt>
      <trkpt lat="44.01009" lon="7.19015">
        <ele>1034.4000244141</ele>
        <time>2019-05-11T09:01:39.000Z</time>
      </trkpt>
      <trkpt lat="44.0101" lon="7.19017">
        <ele>1034.5999755859</ele>
        <time>2019-05-11T09:01:40.000Z</time>
      </trkpt>
      <trkpt lat="44.01015" lon="7.19023">
        <ele>1035.4000244141</ele>
        <time>2019-05-11T09:01:45.000Z</time>
      </trkpt>
      <trkpt lat="44.01017" lon="7.19024">
        <ele>1035.5999755859</ele>
        <time>2019-05-11T09:01:46.000Z</time>
      </trkpt>
      <trkpt lat="44.01019" lon="7.19026">
        <ele>1036</ele>
        <time>2019-05-11T09:01:48.000Z</time>
      </trkpt>
      <trkpt lat="44.01023" lon="7.19029">
        <ele>1036.1999511719</ele>
        <time>2019-05-11T09:01:51.000Z</time>
      </trkpt>
      <trkpt lat="44.01026" lon="7.19032">
        <ele>1036.8000488281</ele>
        <time>2019-05-11T09:01:54.000Z</time>
      </trkpt>
      <trkpt lat="44.01027" lon="7.19033">
        <ele>1037</ele>
        <time>2019-05-11T09:01:55.000Z</time>
      </trkpt>
      <trkpt lat="44.01028" lon="7.19033">
        <ele>1037.1999511719</ele>
        <time>2019-05-11T09:01:56.000Z</time>
      </trkpt>
      <trkpt lat="44.01033" lon="7.19036">
        <ele>1037.8000488281</ele>
        <time>2019-05-11T09:02:00.000Z</time>
      </trkpt>
      <trkpt lat="44.01037" lon="7.19039">
        <ele>1038.4000244141</ele>
        <time>2019-05-11T09:02:03.000Z</time>
      </trkpt>
      <trkpt lat="44.01042" lon="7.19041">
        <ele>1039</ele>
        <time>2019-05-11T09:02:07.000Z</time>
      </trkpt>
      <trkpt lat="44.01043" lon="7.19042">
        <ele>1039.1999511719</ele>
        <time>2019-05-11T09:02:08.000Z</time>
      </trkpt>
      <trkpt lat="44.01045" lon="7.19043">
        <ele>1039.5999755859</ele>
        <time>2019-05-11T09:02:10.000Z</time>
      </trkpt>
      <trkpt lat="44.01048" lon="7.19045">
        <ele>1040.1999511719</ele>
        <time>2019-05-11T09:02:12.000Z</time>
      </trkpt>
      <trkpt lat="44.01049" lon="7.19046">
        <ele>1040.4000244141</ele>
        <time>2019-05-11T09:02:13.000Z</time>
      </trkpt>
      <trkpt lat="44.01054" lon="7.19051">
        <ele>1041.1999511719</ele>
        <time>2019-05-11T09:02:17.000Z</time>
      </trkpt>
      <trkpt lat="44.01056" lon="7.19053">
        <ele>1041.5999755859</ele>
        <time>2019-05-11T09:02:19.000Z</time>
      </trkpt>
      <trkpt lat="44.01058" lon="7.19056">
        <ele>1042</ele>
        <time>2019-05-11T09:02:21.000Z</time>
      </trkpt>
      <trkpt lat="44.01058" lon="7.19058">
        <ele>1042.1999511719</ele>
        <time>2019-05-11T09:02:22.000Z</time>
      </trkpt>
      <trkpt lat="44.0106" lon="7.19063">
        <ele>1043</ele>
        <time>2019-05-11T09:02:25.000Z</time>
      </trkpt>
      <trkpt lat="44.01063" lon="7.19067">
        <ele>1043.1999511719</ele>
        <time>2019-05-11T09:02:27.000Z</time>
      </trkpt>
      <trkpt lat="44.01067" lon="7.19079">
        <ele>1044</ele>
        <time>2019-05-11T09:02:33.000Z</time>
      </trkpt>
      <trkpt lat="44.0107" lon="7.19091">
        <ele>1044.1999511719</ele>
        <time>2019-05-11T09:02:38.000Z</time>
      </trkpt>
      <trkpt lat="44.01071" lon="7.19096">
        <ele>1044.5999755859</ele>
        <time>2019-05-11T09:02:40.000Z</time>
      </trkpt>
      <trkpt lat="44.01075" lon="7.19109">
        <ele>1045.1999511719</ele>
        <time>2019-05-11T09:02:45.000Z</time>
      </trkpt>
      <trkpt lat="44.01076" lon="7.19111">
        <ele>1045.4000244141</ele>
        <time>2019-05-11T09:02:46.000Z</time>
      </trkpt>
      <trkpt lat="44.01084" lon="7.19116">
        <ele>1046.1999511719</ele>
        <time>2019-05-11T09:02:51.000Z</time>
      </trkpt>
      <trkpt lat="44.01088" lon="7.19118">
        <ele>1046.4000244141</ele>
        <time>2019-05-11T09:02:54.000Z</time>
      </trkpt>
      <trkpt lat="44.01093" lon="7.19118">
        <ele>1047</ele>
        <time>2019-05-11T09:02:57.000Z</time>
      </trkpt>
      <trkpt lat="44.01097" lon="7.1912">
        <ele>1047.4000244141</ele>
        <time>2019-05-11T09:03:00.000Z</time>
      </trkpt>
      <trkpt lat="44.01102" lon="7.19121">
        <ele>1048</ele>
        <time>2019-05-11T09:03:03.000Z</time>
      </trkpt>
      <trkpt lat="44.01106" lon="7.19123">
        <ele>1048.5999755859</ele>
        <time>2019-05-11T09:03:06.000Z</time>
      </trkpt>
      <trkpt lat="44.0111" lon="7.19123">
        <ele>1048.8000488281</ele>
        <time>2019-05-11T09:03:08.000Z</time>
      </trkpt>
      <trkpt lat="44.01114" lon="7.19126">
        <ele>1049.5999755859</ele>
        <time>2019-05-11T09:03:11.000Z</time>
      </trkpt>
      <trkpt lat="44.01115" lon="7.19128">
        <ele>1050</ele>
        <time>2019-05-11T09:03:12.000Z</time>
      </trkpt>
      <trkpt lat="44.01115" lon="7.19131">
        <ele>1050.1999511719</ele>
        <time>2019-05-11T09:03:13.000Z</time>
      </trkpt>
      <trkpt lat="44.01117" lon="7.19141">
        <ele>1051</ele>
        <time>2019-05-11T09:03:18.000Z</time>
      </trkpt>
      <trkpt lat="44.01121" lon="7.19156">
        <ele>1052.1999511719</ele>
        <time>2019-05-11T09:03:25.000Z</time>
      </trkpt>
      <trkpt lat="44.01121" lon="7.19157">
        <ele>1052.4000244141</ele>
        <time>2019-05-11T09:03:26.000Z</time>
      </trkpt>
      <trkpt lat="44.01122" lon="7.19159">
        <ele>1052.5999755859</ele>
        <time>2019-05-11T09:03:27.000Z</time>
      </trkpt>
      <trkpt lat="44.01125" lon="7.19168">
        <ele>1053.1999511719</ele>
        <time>2019-05-11T09:03:32.000Z</time>
      </trkpt>
      <trkpt lat="44.01126" lon="7.1917">
        <ele>1053.4000244141</ele>
        <time>2019-05-11T09:03:33.000Z</time>
      </trkpt>
      <trkpt lat="44.01127" lon="7.19171">
        <ele>1054.1999511719</ele>
        <time>2019-05-11T09:03:38.000Z</time>
      </trkpt>
      <trkpt lat="44.01127" lon="7.19173">
        <ele>1054.4000244141</ele>
        <time>2019-05-11T09:03:40.000Z</time>
      </trkpt>
      <trkpt lat="44.01128" lon="7.19175">
        <ele>1054.5999755859</ele>
        <time>2019-05-11T09:03:44.000Z</time>
      </trkpt>
      <trkpt lat="44.0113" lon="7.1918">
        <ele>1055.4000244141</ele>
        <time>2019-05-11T09:03:50.000Z</time>
      </trkpt>
      <trkpt lat="44.01132" lon="7.19182">
        <ele>1056</ele>
        <time>2019-05-11T09:03:53.000Z</time>
      </trkpt>
      <trkpt lat="44.01135" lon="7.19185">
        <ele>1056.4000244141</ele>
        <time>2019-05-11T09:03:58.000Z</time>
      </trkpt>
      <trkpt lat="44.01137" lon="7.19187">
        <ele>1057</ele>
        <time>2019-05-11T09:04:01.000Z</time>
      </trkpt>
      <trkpt lat="44.0114" lon="7.19191">
        <ele>1057.5999755859</ele>
        <time>2019-05-11T09:04:07.000Z</time>
      </trkpt>
      <trkpt lat="44.01145" lon="7.19196">
        <ele>1058.4000244141</ele>
        <time>2019-05-11T09:04:15.000Z</time>
      </trkpt>
      <trkpt lat="44.01146" lon="7.19197">
        <ele>1058.5999755859</ele>
        <time>2019-05-11T09:04:17.000Z</time>
      </trkpt>
      <trkpt lat="44.01147" lon="7.19199">
        <ele>1059</ele>
        <time>2019-05-11T09:04:22.000Z</time>
      </trkpt>
      <trkpt lat="44.01149" lon="7.192">
        <ele>1059</ele>
        <time>2019-05-11T09:04:26.000Z</time>
      </trkpt>
      <trkpt lat="44.0115" lon="7.19201">
        <ele>1059.1999511719</ele>
        <time>2019-05-11T09:04:28.000Z</time>
      </trkpt>
      <trkpt lat="44.01152" lon="7.19203">
        <ele>1059.8000488281</ele>
        <time>2019-05-11T09:04:31.000Z</time>
      </trkpt>
      <trkpt lat="44.01158" lon="7.19206">
        <ele>1060.4000244141</ele>
        <time>2019-05-11T09:04:37.000Z</time>
      </trkpt>
      <trkpt lat="44.0116" lon="7.19208">
        <ele>1060.8000488281</ele>
        <time>2019-05-11T09:04:41.000Z</time>
      </trkpt>
      <trkpt lat="44.01165" lon="7.19211">
        <ele>1061.4000244141</ele>
        <time>2019-05-11T09:04:47.000Z</time>
      </trkpt>
      <trkpt lat="44.01168" lon="7.19211">
        <ele>1061.8000488281</ele>
        <time>2019-05-11T09:04:51.000Z</time>
      </trkpt>
      <trkpt lat="44.01172" lon="7.19213">
        <ele>1062.8000488281</ele>
        <time>2019-05-11T09:04:57.000Z</time>
      </trkpt>
      <trkpt lat="44.01173" lon="7.19212">
        <ele>1063</ele>
        <time>2019-05-11T09:04:58.000Z</time>
      </trkpt>
      <trkpt lat="44.01177" lon="7.19212">
        <ele>1064.1999511719</ele>
        <time>2019-05-11T09:05:05.000Z</time>
      </trkpt>
      <trkpt lat="44.01178" lon="7.19212">
        <ele>1064.4000244141</ele>
        <time>2019-05-11T09:05:06.000Z</time>
      </trkpt>
      <trkpt lat="44.01181" lon="7.19212">
        <ele>1065.4000244141</ele>
        <time>2019-05-11T09:05:12.000Z</time>
      </trkpt>
      <trkpt lat="44.01183" lon="7.19211">
        <ele>1066</ele>
        <time>2019-05-11T09:05:15.000Z</time>
      </trkpt>
      <trkpt lat="44.01185" lon="7.19211">
        <ele>1066.4000244141</ele>
        <time>2019-05-11T09:05:18.000Z</time>
      </trkpt>
      <trkpt lat="44.01188" lon="7.1921">
        <ele>1067.1999511719</ele>
        <time>2019-05-11T09:05:22.000Z</time>
      </trkpt>
      <trkpt lat="44.01189" lon="7.1921">
        <ele>1067.5999755859</ele>
        <time>2019-05-11T09:05:24.000Z</time>
      </trkpt>
      <trkpt lat="44.01192" lon="7.19211">
        <ele>1068.1999511719</ele>
        <time>2019-05-11T09:05:28.000Z</time>
      </trkpt>
      <trkpt lat="44.01193" lon="7.19211">
        <ele>1068.8000488281</ele>
        <time>2019-05-11T09:05:31.000Z</time>
      </trkpt>
      <trkpt lat="44.01194" lon="7.19212">
        <ele>1069.1999511719</ele>
        <time>2019-05-11T09:05:34.000Z</time>
      </trkpt>
      <trkpt lat="44.01196" lon="7.19212">
        <ele>1069.8000488281</ele>
        <time>2019-05-11T09:05:38.000Z</time>
      </trkpt>
      <trkpt lat="44.01198" lon="7.19214">
        <ele>1070.1999511719</ele>
        <time>2019-05-11T09:05:42.000Z</time>
      </trkpt>
      <trkpt lat="44.01199" lon="7.19217">
        <ele>1070.8000488281</ele>
        <time>2019-05-11T09:05:46.000Z</time>
      </trkpt>
      <trkpt lat="44.012" lon="7.19218">
        <ele>1071</ele>
        <time>2019-05-11T09:05:49.000Z</time>
      </trkpt>
      <trkpt lat="44.01202" lon="7.19219">
        <ele>1071</ele>
        <time>2019-05-11T09:05:55.000Z</time>
      </trkpt>
      <trkpt lat="44.01204" lon="7.19221">
        <ele>1071</ele>
        <time>2019-05-11T09:05:58.000Z</time>
      </trkpt>
      <trkpt lat="44.01207" lon="7.19223">
        <ele>1071</ele>
        <time>2019-05-11T09:06:00.000Z</time>
      </trkpt>
      <trkpt lat="44.01212" lon="7.1923">
        <ele>1070.8000488281</ele>
        <time>2019-05-11T09:06:05.000Z</time>
      </trkpt>
      <trkpt lat="44.01214" lon="7.1923">
        <ele>1070.8000488281</ele>
        <time>2019-05-11T09:06:06.000Z</time>
      </trkpt>
      <trkpt lat="44.01224" lon="7.19228">
        <ele>1071.4000244141</ele>
        <time>2019-05-11T09:06:12.000Z</time>
      </trkpt>
      <trkpt lat="44.01225" lon="7.19228">
        <ele>1071.8000488281</ele>
        <time>2019-05-11T09:06:13.000Z</time>
      </trkpt>
      <trkpt lat="44.01229" lon="7.19227">
        <ele>1072.4000244141</ele>
        <time>2019-05-11T09:06:16.000Z</time>
      </trkpt>
      <trkpt lat="44.01232" lon="7.19226">
        <ele>1072.8000488281</ele>
        <time>2019-05-11T09:06:18.000Z</time>
      </trkpt>
      <trkpt lat="44.01239" lon="7.19224">
        <ele>1074</ele>
        <time>2019-05-11T09:06:23.000Z</time>
      </trkpt>
      <trkpt lat="44.01243" lon="7.19225">
        <ele>1075</ele>
        <time>2019-05-11T09:06:26.000Z</time>
      </trkpt>
      <trkpt lat="44.01245" lon="7.19226">
        <ele>1075.5999755859</ele>
        <time>2019-05-11T09:06:29.000Z</time>
      </trkpt>
      <trkpt lat="44.0125" lon="7.19226">
        <ele>1076</ele>
        <time>2019-05-11T09:06:33.000Z</time>
      </trkpt>
      <trkpt lat="44.01252" lon="7.19226">
        <ele>1076.4000244141</ele>
        <time>2019-05-11T09:06:35.000Z</time>
      </trkpt>
      <trkpt lat="44.01258" lon="7.19226">
        <ele>1077.1999511719</ele>
        <time>2019-05-11T09:06:40.000Z</time>
      </trkpt>
      <trkpt lat="44.01262" lon="7.19226">
        <ele>1077.8000488281</ele>
        <time>2019-05-11T09:06:43.000Z</time>
      </trkpt>
      <trkpt lat="44.01266" lon="7.19225">
        <ele>1078.1999511719</ele>
        <time>2019-05-11T09:06:46.000Z</time>
      </trkpt>
      <trkpt lat="44.01267" lon="7.19225">
        <ele>1078.4000244141</ele>
        <time>2019-05-11T09:06:47.000Z</time>
      </trkpt>
      <trkpt lat="44.01267" lon="7.19224">
        <ele>1078.5999755859</ele>
        <time>2019-05-11T09:06:48.000Z</time>
      </trkpt>
      <trkpt lat="44.0127" lon="7.19224">
        <ele>1079.1999511719</ele>
        <time>2019-05-11T09:06:50.000Z</time>
      </trkpt>
      <trkpt lat="44.01272" lon="7.19224">
        <ele>1079.4000244141</ele>
        <time>2019-05-11T09:06:51.000Z</time>
      </trkpt>
      <trkpt lat="44.01275" lon="7.19223">
        <ele>1079.5999755859</ele>
        <time>2019-05-11T09:06:53.000Z</time>
      </trkpt>
      <trkpt lat="44.01283" lon="7.19222">
        <ele>1080.4000244141</ele>
        <time>2019-05-11T09:06:58.000Z</time>
      </trkpt>
      <trkpt lat="44.01284" lon="7.19221">
        <ele>1080.5999755859</ele>
        <time>2019-05-11T09:06:59.000Z</time>
      </trkpt>
      <trkpt lat="44.01293" lon="7.19218">
        <ele>1081.4000244141</ele>
        <time>2019-05-11T09:07:04.000Z</time>
      </trkpt>
      <trkpt lat="44.01294" lon="7.19217">
        <ele>1081.8000488281</ele>
        <time>2019-05-11T09:07:05.000Z</time>
      </trkpt>
      <trkpt lat="44.01296" lon="7.19217">
        <ele>1082.1999511719</ele>
        <time>2019-05-11T09:07:07.000Z</time>
      </trkpt>
      <trkpt lat="44.01299" lon="7.19217">
        <ele>1082.5999755859</ele>
        <time>2019-05-11T09:07:09.000Z</time>
      </trkpt>
      <trkpt lat="44.01301" lon="7.19216">
        <ele>1082.5999755859</ele>
        <time>2019-05-11T09:07:10.000Z</time>
      </trkpt>
      <trkpt lat="44.01303" lon="7.19215">
        <ele>1082.8000488281</ele>
        <time>2019-05-11T09:07:11.000Z</time>
      </trkpt>
      <trkpt lat="44.01309" lon="7.19213">
        <ele>1082.8000488281</ele>
        <time>2019-05-11T09:07:14.000Z</time>
      </trkpt>
      <trkpt lat="44.01309" lon="7.19214">
        <ele>1082.5999755859</ele>
        <time>2019-05-11T09:07:15.000Z</time>
      </trkpt>
      <trkpt lat="44.01316" lon="7.19213">
        <ele>1082.5999755859</ele>
        <time>2019-05-11T09:07:19.000Z</time>
      </trkpt>
      <trkpt lat="44.01328" lon="7.19211">
        <ele>1082.4000244141</ele>
        <time>2019-05-11T09:07:25.000Z</time>
      </trkpt>
      <trkpt lat="44.01332" lon="7.19212">
        <ele>1082.5999755859</ele>
        <time>2019-05-11T09:07:29.000Z</time>
      </trkpt>
      <trkpt lat="44.01335" lon="7.19212">
        <ele>1082.8000488281</ele>
        <time>2019-05-11T09:07:31.000Z</time>
      </trkpt>
      <trkpt lat="44.01343" lon="7.19214">
        <ele>1082.8000488281</ele>
        <time>2019-05-11T09:07:37.000Z</time>
      </trkpt>
      <trkpt lat="44.01347" lon="7.19216">
        <ele>1083</ele>
        <time>2019-05-11T09:07:39.000Z</time>
      </trkpt>
      <trkpt lat="44.01352" lon="7.19216">
        <ele>1083</ele>
        <time>2019-05-11T09:07:41.000Z</time>
      </trkpt>
      <trkpt lat="44.01359" lon="7.19219">
        <ele>1082.4000244141</ele>
        <time>2019-05-11T09:07:44.000Z</time>
      </trkpt>
      <trkpt lat="44.01362" lon="7.19224">
        <ele>1082.1999511719</ele>
        <time>2019-05-11T09:07:46.000Z</time>
      </trkpt>
      <trkpt lat="44.01362" lon="7.19225">
        <ele>1082</ele>
        <time>2019-05-11T09:07:47.000Z</time>
      </trkpt>
      <trkpt lat="44.01362" lon="7.19226">
        <ele>1082.1999511719</ele>
        <time>2019-05-11T09:07:48.000Z</time>
      </trkpt>
      <trkpt lat="44.01361" lon="7.19233">
        <ele>1083</ele>
        <time>2019-05-11T09:07:53.000Z</time>
      </trkpt>
      <trkpt lat="44.01358" lon="7.1924">
        <ele>1083</ele>
        <time>2019-05-11T09:07:57.000Z</time>
      </trkpt>
      <trkpt lat="44.01357" lon="7.19246">
        <ele>1082.8000488281</ele>
        <time>2019-05-11T09:08:00.000Z</time>
      </trkpt>
      <trkpt lat="44.01357" lon="7.19251">
        <ele>1083</ele>
        <time>2019-05-11T09:08:02.000Z</time>
      </trkpt>
      <trkpt lat="44.01357" lon="7.19255">
        <ele>1083</ele>
        <time>2019-05-11T09:08:04.000Z</time>
      </trkpt>
      <trkpt lat="44.01359" lon="7.19261">
        <ele>1083</ele>
        <time>2019-05-11T09:08:07.000Z</time>
      </trkpt>
      <trkpt lat="44.01362" lon="7.19263">
        <ele>1083.4000244141</ele>
        <time>2019-05-11T09:08:10.000Z</time>
      </trkpt>
      <trkpt lat="44.01364" lon="7.19268">
        <ele>1083.5999755859</ele>
        <time>2019-05-11T09:08:13.000Z</time>
      </trkpt>
      <trkpt lat="44.01365" lon="7.1927">
        <ele>1083.5999755859</ele>
        <time>2019-05-11T09:08:14.000Z</time>
      </trkpt>
      <trkpt lat="44.01365" lon="7.19273">
        <ele>1083.8000488281</ele>
        <time>2019-05-11T09:08:15.000Z</time>
      </trkpt>
      <trkpt lat="44.01368" lon="7.19286">
        <ele>1084.4000244141</ele>
        <time>2019-05-11T09:08:20.000Z</time>
      </trkpt>
      <trkpt lat="44.01369" lon="7.19288">
        <ele>1084.5999755859</ele>
        <time>2019-05-11T09:08:21.000Z</time>
      </trkpt>
      <trkpt lat="44.0137" lon="7.1929">
        <ele>1084.8000488281</ele>
        <time>2019-05-11T09:08:22.000Z</time>
      </trkpt>
      <trkpt lat="44.01372" lon="7.19294">
        <ele>1085</ele>
        <time>2019-05-11T09:08:24.000Z</time>
      </trkpt>
      <trkpt lat="44.01373" lon="7.19299">
        <ele>1085.4000244141</ele>
        <time>2019-05-11T09:08:26.000Z</time>
      </trkpt>
      <trkpt lat="44.01373" lon="7.19307">
        <ele>1085.8000488281</ele>
        <time>2019-05-11T09:08:30.000Z</time>
      </trkpt>
      <trkpt lat="44.01372" lon="7.19312">
        <ele>1086</ele>
        <time>2019-05-11T09:08:33.000Z</time>
      </trkpt>
      <trkpt lat="44.01365" lon="7.19317">
        <ele>1086.4000244141</ele>
        <time>2019-05-11T09:08:38.000Z</time>
      </trkpt>
      <trkpt lat="44.01353" lon="7.19326">
        <ele>1085.1999511719</ele>
        <time>2019-05-11T09:08:42.000Z</time>
      </trkpt>
      <trkpt lat="44.01348" lon="7.19329">
        <ele>1084.5999755859</ele>
        <time>2019-05-11T09:08:43.000Z</time>
      </trkpt>
      <trkpt lat="44.0134" lon="7.19334">
        <ele>1083.1999511719</ele>
        <time>2019-05-11T09:08:45.000Z</time>
      </trkpt>
      <trkpt lat="44.01336" lon="7.19337">
        <ele>1083</ele>
        <time>2019-05-11T09:08:46.000Z</time>
      </trkpt>
      <trkpt lat="44.01333" lon="7.1934">
        <ele>1082.1999511719</ele>
        <time>2019-05-11T09:08:47.000Z</time>
      </trkpt>
      <trkpt lat="44.01322" lon="7.19351">
        <ele>1081.1999511719</ele>
        <time>2019-05-11T09:08:51.000Z</time>
      </trkpt>
      <trkpt lat="44.0132" lon="7.19353">
        <ele>1081.4000244141</ele>
        <time>2019-05-11T09:08:52.000Z</time>
      </trkpt>
      <trkpt lat="44.01319" lon="7.19358">
        <ele>1081.4000244141</ele>
        <time>2019-05-11T09:08:54.000Z</time>
      </trkpt>
      <trkpt lat="44.01319" lon="7.19363">
        <ele>1081.8000488281</ele>
        <time>2019-05-11T09:08:56.000Z</time>
      </trkpt>
      <trkpt lat="44.01318" lon="7.19367">
        <ele>1082.5999755859</ele>
        <time>2019-05-11T09:08:58.000Z</time>
      </trkpt>
      <trkpt lat="44.01318" lon="7.19372">
        <ele>1083.8000488281</ele>
        <time>2019-05-11T09:09:02.000Z</time>
      </trkpt>
      <trkpt lat="44.01318" lon="7.19377">
        <ele>1084.1999511719</ele>
        <time>2019-05-11T09:09:07.000Z</time>
      </trkpt>
      <trkpt lat="44.01318" lon="7.19382">
        <ele>1084.8000488281</ele>
        <time>2019-05-11T09:09:10.000Z</time>
      </trkpt>
      <trkpt lat="44.01318" lon="7.19388">
        <ele>1085.4000244141</ele>
        <time>2019-05-11T09:09:15.000Z</time>
      </trkpt>
      <trkpt lat="44.01318" lon="7.19394">
        <ele>1086</ele>
        <time>2019-05-11T09:09:19.000Z</time>
      </trkpt>
      <trkpt lat="44.01318" lon="7.19397">
        <ele>1086.5999755859</ele>
        <time>2019-05-11T09:09:23.000Z</time>
      </trkpt>
      <trkpt lat="44.01317" lon="7.19399">
        <ele>1087</ele>
        <time>2019-05-11T09:09:26.000Z</time>
      </trkpt>
      <trkpt lat="44.01317" lon="7.19401">
        <ele>1087.4000244141</ele>
        <time>2019-05-11T09:09:30.000Z</time>
      </trkpt>
      <trkpt lat="44.01317" lon="7.19405">
        <ele>1087.8000488281</ele>
        <time>2019-05-11T09:09:35.000Z</time>
      </trkpt>
      <trkpt lat="44.01317" lon="7.19406">
        <ele>1087.8000488281</ele>
        <time>2019-05-11T09:09:38.000Z</time>
      </trkpt>
      <trkpt lat="44.01316" lon="7.19411">
        <ele>1087.5999755859</ele>
        <time>2019-05-11T09:09:41.000Z</time>
      </trkpt>
      <trkpt lat="44.01316" lon="7.19419">
        <ele>1088</ele>
        <time>2019-05-11T09:09:45.000Z</time>
      </trkpt>
      <trkpt lat="44.01317" lon="7.19418">
        <ele>1088.1999511719</ele>
        <time>2019-05-11T09:09:46.000Z</time>
      </trkpt>
      <trkpt lat="44.01316" lon="7.19422">
        <ele>1088.4000244141</ele>
        <time>2019-05-11T09:09:55.000Z</time>
      </trkpt>
      <trkpt lat="44.01315" lon="7.19424">
        <ele>1089.1999511719</ele>
        <time>2019-05-11T09:09:59.000Z</time>
      </trkpt>
      <trkpt lat="44.01316" lon="7.19425">
        <ele>1089.5999755859</ele>
        <time>2019-05-11T09:10:03.000Z</time>
      </trkpt>
      <trkpt lat="44.01316" lon="7.19431">
        <ele>1089.5999755859</ele>
        <time>2019-05-11T09:10:10.000Z</time>
      </trkpt>
      <trkpt lat="44.01317" lon="7.19438">
        <ele>1090.1999511719</ele>
        <time>2019-05-11T09:10:15.000Z</time>
      </trkpt>
      <trkpt lat="44.01317" lon="7.19442">
        <ele>1090.8000488281</ele>
        <time>2019-05-11T09:10:18.000Z</time>
      </trkpt>
      <trkpt lat="44.01317" lon="7.19447">
        <ele>1091.4000244141</ele>
        <time>2019-05-11T09:10:22.000Z</time>
      </trkpt>
      <trkpt lat="44.01317" lon="7.19451">
        <ele>1092</ele>
        <time>2019-05-11T09:10:26.000Z</time>
      </trkpt>
      <trkpt lat="44.01317" lon="7.19453">
        <ele>1092.4000244141</ele>
        <time>2019-05-11T09:10:28.000Z</time>
      </trkpt>
      <trkpt lat="44.01318" lon="7.19461">
        <ele>1093.4000244141</ele>
        <time>2019-05-11T09:10:34.000Z</time>
      </trkpt>
      <trkpt lat="44.01318" lon="7.19462">
        <ele>1093.8000488281</ele>
        <time>2019-05-11T09:10:35.000Z</time>
      </trkpt>
      <trkpt lat="44.01319" lon="7.19465">
        <ele>1094.4000244141</ele>
        <time>2019-05-11T09:10:40.000Z</time>
      </trkpt>
      <trkpt lat="44.01319" lon="7.19465">
        <ele>1094.5999755859</ele>
        <time>2019-05-11T09:10:41.000Z</time>
      </trkpt>
      <trkpt lat="44.01319" lon="7.19466">
        <ele>1094.5999755859</ele>
        <time>2019-05-11T09:10:42.000Z</time>
      </trkpt>
      <trkpt lat="44.0132" lon="7.19471">
        <ele>1095.1999511719</ele>
        <time>2019-05-11T09:10:46.000Z</time>
      </trkpt>
      <trkpt lat="44.01321" lon="7.19472">
        <ele>1095.5999755859</ele>
        <time>2019-05-11T09:10:48.000Z</time>
      </trkpt>
      <trkpt lat="44.01322" lon="7.19474">
        <ele>1096.1999511719</ele>
        <time>2019-05-11T09:10:51.000Z</time>
      </trkpt>
      <trkpt lat="44.01323" lon="7.19476">
        <ele>1096.5999755859</ele>
        <time>2019-05-11T09:10:53.000Z</time>
      </trkpt>
      <trkpt lat="44.01324" lon="7.19481">
        <ele>1097.1999511719</ele>
        <time>2019-05-11T09:10:58.000Z</time>
      </trkpt>
      <trkpt lat="44.01325" lon="7.19482">
        <ele>1097.5999755859</ele>
        <time>2019-05-11T09:11:05.000Z</time>
      </trkpt>
      <trkpt lat="44.01325" lon="7.19485">
        <ele>1097.8000488281</ele>
        <time>2019-05-11T09:11:11.000Z</time>
      </trkpt>
      <trkpt lat="44.01327" lon="7.19489">
        <ele>1097.5999755859</ele>
        <time>2019-05-11T09:11:13.000Z</time>
      </trkpt>
      <trkpt lat="44.01334" lon="7.19505">
        <ele>1098.4000244141</ele>
        <time>2019-05-11T09:11:20.000Z</time>
      </trkpt>
      <trkpt lat="44.01343" lon="7.1952">
        <ele>1098.1999511719</ele>
        <time>2019-05-11T09:11:26.000Z</time>
      </trkpt>
      <trkpt lat="44.01348" lon="7.19528">
        <ele>1098.8000488281</ele>
        <time>2019-05-11T09:11:30.000Z</time>
      </trkpt>
      <trkpt lat="44.01352" lon="7.19531">
        <ele>1099</ele>
        <time>2019-05-11T09:11:32.000Z</time>
      </trkpt>
      <trkpt lat="44.01362" lon="7.19542">
        <ele>1099.5999755859</ele>
        <time>2019-05-11T09:11:38.000Z</time>
      </trkpt>
      <trkpt lat="44.01363" lon="7.19544">
        <ele>1099.8000488281</ele>
        <time>2019-05-11T09:11:39.000Z</time>
      </trkpt>
      <trkpt lat="44.01373" lon="7.19556">
        <ele>1099.8000488281</ele>
        <time>2019-05-11T09:11:45.000Z</time>
      </trkpt>
      <trkpt lat="44.01378" lon="7.19563">
        <ele>1100.4000244141</ele>
        <time>2019-05-11T09:11:49.000Z</time>
      </trkpt>
      <trkpt lat="44.01379" lon="7.19564">
        <ele>1100.8000488281</ele>
        <time>2019-05-11T09:11:50.000Z</time>
      </trkpt>
      <trkpt lat="44.01379" lon="7.19566">
        <ele>1101</ele>
        <time>2019-05-11T09:11:51.000Z</time>
      </trkpt>
      <trkpt lat="44.01384" lon="7.19576">
        <ele>1101.5999755859</ele>
        <time>2019-05-11T09:11:55.000Z</time>
      </trkpt>
      <trkpt lat="44.0139" lon="7.19585">
        <ele>1101.1999511719</ele>
        <time>2019-05-11T09:12:00.000Z</time>
      </trkpt>
      <trkpt lat="44.01393" lon="7.19588">
        <ele>1101.4000244141</ele>
        <time>2019-05-11T09:12:02.000Z</time>
      </trkpt>
      <trkpt lat="44.01397" lon="7.1959">
        <ele>1101.5999755859</ele>
        <time>2019-05-11T09:12:04.000Z</time>
      </trkpt>
      <trkpt lat="44.01399" lon="7.1959">
        <ele>1101.5999755859</ele>
        <time>2019-05-11T09:12:05.000Z</time>
      </trkpt>
      <trkpt lat="44.01408" lon="7.19591">
        <ele>1102.1999511719</ele>
        <time>2019-05-11T09:12:09.000Z</time>
      </trkpt>
      <trkpt lat="44.01412" lon="7.19592">
        <ele>1102.4000244141</ele>
        <time>2019-05-11T09:12:11.000Z</time>
      </trkpt>
      <trkpt lat="44.01414" lon="7.19593">
        <ele>1102.5999755859</ele>
        <time>2019-05-11T09:12:12.000Z</time>
      </trkpt>
      <trkpt lat="44.0142" lon="7.19594">
        <ele>1103</ele>
        <time>2019-05-11T09:12:15.000Z</time>
      </trkpt>
      <trkpt lat="44.01423" lon="7.19597">
        <ele>1103.1999511719</ele>
        <time>2019-05-11T09:12:17.000Z</time>
      </trkpt>
      <trkpt lat="44.01437" lon="7.19599">
        <ele>1103.5999755859</ele>
        <time>2019-05-11T09:12:21.000Z</time>
      </trkpt>
      <trkpt lat="44.01454" lon="7.19601">
        <ele>1102.8000488281</ele>
        <time>2019-05-11T09:12:27.000Z</time>
      </trkpt>
      <trkpt lat="44.01457" lon="7.19602">
        <ele>1102.8000488281</ele>
        <time>2019-05-11T09:12:28.000Z</time>
      </trkpt>
      <trkpt lat="44.01467" lon="7.19603">
        <ele>1103.1999511719</ele>
        <time>2019-05-11T09:12:32.000Z</time>
      </trkpt>
      <trkpt lat="44.01472" lon="7.19603">
        <ele>1103.1999511719</ele>
        <time>2019-05-11T09:12:35.000Z</time>
      </trkpt>
      <trkpt lat="44.01473" lon="7.19604">
        <ele>1103.1999511719</ele>
        <time>2019-05-11T09:12:36.000Z</time>
      </trkpt>
      <trkpt lat="44.01483" lon="7.19604">
        <ele>1102.8000488281</ele>
        <time>2019-05-11T09:12:40.000Z</time>
      </trkpt>
      <trkpt lat="44.01487" lon="7.19607">
        <ele>1103</ele>
        <time>2019-05-11T09:12:42.000Z</time>
      </trkpt>
      <trkpt lat="44.01494" lon="7.19612">
        <ele>1103.1999511719</ele>
        <time>2019-05-11T09:12:45.000Z</time>
      </trkpt>
      <trkpt lat="44.01499" lon="7.19613">
        <ele>1103.4000244141</ele>
        <time>2019-05-11T09:12:47.000Z</time>
      </trkpt>
      <trkpt lat="44.01505" lon="7.19614">
        <ele>1103.5999755859</ele>
        <time>2019-05-11T09:12:49.000Z</time>
      </trkpt>
      <trkpt lat="44.01517" lon="7.19617">
        <ele>1103.4000244141</ele>
        <time>2019-05-11T09:12:53.000Z</time>
      </trkpt>
      <trkpt lat="44.01526" lon="7.19618">
        <ele>1103.5999755859</ele>
        <time>2019-05-11T09:12:56.000Z</time>
      </trkpt>
      <trkpt lat="44.01533" lon="7.19617">
        <ele>1103.5999755859</ele>
        <time>2019-05-11T09:12:58.000Z</time>
      </trkpt>
      <trkpt lat="44.01542" lon="7.19614">
        <ele>1103.4000244141</ele>
        <time>2019-05-11T09:13:01.000Z</time>
      </trkpt>
      <trkpt lat="44.01554" lon="7.19609">
        <ele>1103</ele>
        <time>2019-05-11T09:13:05.000Z</time>
      </trkpt>
      <trkpt lat="44.01564" lon="7.19605">
        <ele>1102</ele>
        <time>2019-05-11T09:13:08.000Z</time>
      </trkpt>
      <trkpt lat="44.01565" lon="7.19606">
        <ele>1101.8000488281</ele>
        <time>2019-05-11T09:13:09.000Z</time>
      </trkpt>
      <trkpt lat="44.01569" lon="7.19613">
        <ele>1101.1999511719</ele>
        <time>2019-05-11T09:13:12.000Z</time>
      </trkpt>
      <trkpt lat="44.01569" lon="7.19618">
        <ele>1100.8000488281</ele>
        <time>2019-05-11T09:13:13.000Z</time>
      </trkpt>
      <trkpt lat="44.01573" lon="7.19625">
        <ele>1100</ele>
        <time>2019-05-11T09:13:17.000Z</time>
      </trkpt>
      <trkpt lat="44.01581" lon="7.19627">
        <ele>1101.1999511719</ele>
        <time>2019-05-11T09:13:21.000Z</time>
      </trkpt>
      <trkpt lat="44.01586" lon="7.19631">
        <ele>1101.1999511719</ele>
        <time>2019-05-11T09:13:25.000Z</time>
      </trkpt>
      <trkpt lat="44.01588" lon="7.19634">
        <ele>1101.5999755859</ele>
        <time>2019-05-11T09:13:30.000Z</time>
      </trkpt>
      <trkpt lat="44.01588" lon="7.19639">
        <ele>1101.5999755859</ele>
        <time>2019-05-11T09:13:31.000Z</time>
      </trkpt>
      <trkpt lat="44.01588" lon="7.19644">
        <ele>1101.8000488281</ele>
        <time>2019-05-11T09:13:35.000Z</time>
      </trkpt>
      <trkpt lat="44.01585" lon="7.1965">
        <ele>1103</ele>
        <time>2019-05-11T09:13:39.000Z</time>
      </trkpt>
      <trkpt lat="44.01581" lon="7.19662">
        <ele>1103.8000488281</ele>
        <time>2019-05-11T09:13:45.000Z</time>
      </trkpt>
      <trkpt lat="44.01579" lon="7.19668">
        <ele>1104</ele>
        <time>2019-05-11T09:13:47.000Z</time>
      </trkpt>
      <trkpt lat="44.01575" lon="7.19678">
        <ele>1104.5999755859</ele>
        <time>2019-05-11T09:13:50.000Z</time>
      </trkpt>
      <trkpt lat="44.01573" lon="7.19682">
        <ele>1105</ele>
        <time>2019-05-11T09:13:52.000Z</time>
      </trkpt>
      <trkpt lat="44.01571" lon="7.19684">
        <ele>1105.1999511719</ele>
        <time>2019-05-11T09:13:53.000Z</time>
      </trkpt>
      <trkpt lat="44.01569" lon="7.19685">
        <ele>1105.5999755859</ele>
        <time>2019-05-11T09:13:54.000Z</time>
      </trkpt>
      <trkpt lat="44.01566" lon="7.19687">
        <ele>1106.1999511719</ele>
        <time>2019-05-11T09:13:56.000Z</time>
      </trkpt>
      <trkpt lat="44.01559" lon="7.19692">
        <ele>1107.4000244141</ele>
        <time>2019-05-11T09:14:00.000Z</time>
      </trkpt>
      <trkpt lat="44.01557" lon="7.19694">
        <ele>1107.4000244141</ele>
        <time>2019-05-11T09:14:01.000Z</time>
      </trkpt>
      <trkpt lat="44.0155" lon="7.19701">
        <ele>1108.4000244141</ele>
        <time>2019-05-11T09:14:06.000Z</time>
      </trkpt>
      <trkpt lat="44.01548" lon="7.19704">
        <ele>1108.8000488281</ele>
        <time>2019-05-11T09:14:08.000Z</time>
      </trkpt>
      <trkpt lat="44.01544" lon="7.19709">
        <ele>1109.4000244141</ele>
        <time>2019-05-11T09:14:12.000Z</time>
      </trkpt>
      <trkpt lat="44.01544" lon="7.1971">
        <ele>1109.8000488281</ele>
        <time>2019-05-11T09:14:14.000Z</time>
      </trkpt>
      <trkpt lat="44.01544" lon="7.19713">
        <ele>1110.1999511719</ele>
        <time>2019-05-11T09:14:22.000Z</time>
      </trkpt>
      <trkpt lat="44.01544" lon="7.19719">
        <ele>1110.4000244141</ele>
        <time>2019-05-11T09:14:26.000Z</time>
      </trkpt>
      <trkpt lat="44.01544" lon="7.19722">
        <ele>1111</ele>
        <time>2019-05-11T09:14:29.000Z</time>
      </trkpt>
      <trkpt lat="44.01546" lon="7.19726">
        <ele>1111.4000244141</ele>
        <time>2019-05-11T09:14:33.000Z</time>
      </trkpt>
      <trkpt lat="44.01546" lon="7.19731">
        <ele>1112.4000244141</ele>
        <time>2019-05-11T09:14:38.000Z</time>
      </trkpt>
      <trkpt lat="44.01546" lon="7.19732">
        <ele>1112.5999755859</ele>
        <time>2019-05-11T09:14:39.000Z</time>
      </trkpt>
      <trkpt lat="44.01546" lon="7.19736">
        <ele>1113.1999511719</ele>
        <time>2019-05-11T09:14:44.000Z</time>
      </trkpt>
      <trkpt lat="44.01546" lon="7.19739">
        <ele>1113.5999755859</ele>
        <time>2019-05-11T09:14:47.000Z</time>
      </trkpt>
      <trkpt lat="44.01544" lon="7.19745">
        <ele>1114.8000488281</ele>
        <time>2019-05-11T09:14:53.000Z</time>
      </trkpt>
      <trkpt lat="44.01542" lon="7.1975">
        <ele>1115.8000488281</ele>
        <time>2019-05-11T09:15:00.000Z</time>
      </trkpt>
      <trkpt lat="44.01541" lon="7.19756">
        <ele>1116.1999511719</ele>
        <time>2019-05-11T09:15:07.000Z</time>
      </trkpt>
      <trkpt lat="44.01539" lon="7.19761">
        <ele>1116.8000488281</ele>
        <time>2019-05-11T09:15:12.000Z</time>
      </trkpt>
      <trkpt lat="44.01538" lon="7.19765">
        <ele>1117.4000244141</ele>
        <time>2019-05-11T09:15:16.000Z</time>
      </trkpt>
      <trkpt lat="44.01537" lon="7.19769">
        <ele>1118</ele>
        <time>2019-05-11T09:15:20.000Z</time>
      </trkpt>
      <trkpt lat="44.01536" lon="7.19773">
        <ele>1118.5999755859</ele>
        <time>2019-05-11T09:15:23.000Z</time>
      </trkpt>
      <trkpt lat="44.01535" lon="7.19777">
        <ele>1119</ele>
        <time>2019-05-11T09:15:26.000Z</time>
      </trkpt>
      <trkpt lat="44.01534" lon="7.19782">
        <ele>1119.8000488281</ele>
        <time>2019-05-11T09:15:30.000Z</time>
      </trkpt>
      <trkpt lat="44.01534" lon="7.19784">
        <ele>1120</ele>
        <time>2019-05-11T09:15:32.000Z</time>
      </trkpt>
      <trkpt lat="44.01534" lon="7.19786">
        <ele>1120.1999511719</ele>
        <time>2019-05-11T09:15:36.000Z</time>
      </trkpt>
      <trkpt lat="44.01534" lon="7.1979">
        <ele>1120.1999511719</ele>
        <time>2019-05-11T09:15:41.000Z</time>
      </trkpt>
      <trkpt lat="44.01534" lon="7.19807">
        <ele>1120.5999755859</ele>
        <time>2019-05-11T09:15:47.000Z</time>
      </trkpt>
      <trkpt lat="44.01535" lon="7.19815">
        <ele>1121.1999511719</ele>
        <time>2019-05-11T09:15:50.000Z</time>
      </trkpt>
      <trkpt lat="44.01538" lon="7.19826">
        <ele>1122</ele>
        <time>2019-05-11T09:15:54.000Z</time>
      </trkpt>
      <trkpt lat="44.01539" lon="7.19831">
        <ele>1122.1999511719</ele>
        <time>2019-05-11T09:15:56.000Z</time>
      </trkpt>
      <trkpt lat="44.01542" lon="7.19841">
        <ele>1123.1999511719</ele>
        <time>2019-05-11T09:16:00.000Z</time>
      </trkpt>
      <trkpt lat="44.01545" lon="7.19852">
        <ele>1124.4000244141</ele>
        <time>2019-05-11T09:16:05.000Z</time>
      </trkpt>
      <trkpt lat="44.01546" lon="7.19857">
        <ele>1124.5999755859</ele>
        <time>2019-05-11T09:16:07.000Z</time>
      </trkpt>
      <trkpt lat="44.01548" lon="7.19866">
        <ele>1125.5999755859</ele>
        <time>2019-05-11T09:16:11.000Z</time>
      </trkpt>
      <trkpt lat="44.01549" lon="7.19868">
        <ele>1126</ele>
        <time>2019-05-11T09:16:12.000Z</time>
      </trkpt>
      <trkpt lat="44.0155" lon="7.19873">
        <ele>1126.5999755859</ele>
        <time>2019-05-11T09:16:14.000Z</time>
      </trkpt>
      <trkpt lat="44.01554" lon="7.19885">
        <ele>1126.8000488281</ele>
        <time>2019-05-11T09:16:19.000Z</time>
      </trkpt>
      <trkpt lat="44.01564" lon="7.19894">
        <ele>1127.1999511719</ele>
        <time>2019-05-11T09:16:25.000Z</time>
      </trkpt>
      <trkpt lat="44.01576" lon="7.19895">
        <ele>1127.4000244141</ele>
        <time>2019-05-11T09:16:31.000Z</time>
      </trkpt>
      <trkpt lat="44.01591" lon="7.19895">
        <ele>1127.5999755859</ele>
        <time>2019-05-11T09:16:38.000Z</time>
      </trkpt>
      <trkpt lat="44.01598" lon="7.19897">
        <ele>1127.8000488281</ele>
        <time>2019-05-11T09:16:42.000Z</time>
      </trkpt>
      <trkpt lat="44.016" lon="7.19896">
        <ele>1127.8000488281</ele>
        <time>2019-05-11T09:16:43.000Z</time>
      </trkpt>
      <trkpt lat="44.01606" lon="7.19896">
        <ele>1128.4000244141</ele>
        <time>2019-05-11T09:16:47.000Z</time>
      </trkpt>
      <trkpt lat="44.01609" lon="7.19896">
        <ele>1129.4000244141</ele>
        <time>2019-05-11T09:16:49.000Z</time>
      </trkpt>
      <trkpt lat="44.01611" lon="7.19898">
        <ele>1130</ele>
        <time>2019-05-11T09:16:51.000Z</time>
      </trkpt>
      <trkpt lat="44.01615" lon="7.19901">
        <ele>1130.5999755859</ele>
        <time>2019-05-11T09:16:53.000Z</time>
      </trkpt>
      <trkpt lat="44.01619" lon="7.19905">
        <ele>1131</ele>
        <time>2019-05-11T09:16:55.000Z</time>
      </trkpt>
      <trkpt lat="44.01621" lon="7.19906">
        <ele>1131</ele>
        <time>2019-05-11T09:16:56.000Z</time>
      </trkpt>
      <trkpt lat="44.01633" lon="7.19914">
        <ele>1130.5999755859</ele>
        <time>2019-05-11T09:17:02.000Z</time>
      </trkpt>
      <trkpt lat="44.01646" lon="7.19926">
        <ele>1130.8000488281</ele>
        <time>2019-05-11T09:17:09.000Z</time>
      </trkpt>
      <trkpt lat="44.01648" lon="7.19929">
        <ele>1130.8000488281</ele>
        <time>2019-05-11T09:17:10.000Z</time>
      </trkpt>
      <trkpt lat="44.01653" lon="7.19934">
        <ele>1131</ele>
        <time>2019-05-11T09:17:13.000Z</time>
      </trkpt>
      <trkpt lat="44.0166" lon="7.19938">
        <ele>1131.4000244141</ele>
        <time>2019-05-11T09:17:16.000Z</time>
      </trkpt>
      <trkpt lat="44.01661" lon="7.19939">
        <ele>1131.5999755859</ele>
        <time>2019-05-11T09:17:17.000Z</time>
      </trkpt>
      <trkpt lat="44.01663" lon="7.19941">
        <ele>1131.8000488281</ele>
        <time>2019-05-11T09:17:18.000Z</time>
      </trkpt>
      <trkpt lat="44.01671" lon="7.19946">
        <ele>1133.1999511719</ele>
        <time>2019-05-11T09:17:22.000Z</time>
      </trkpt>
      <trkpt lat="44.01678" lon="7.1995">
        <ele>1134.1999511719</ele>
        <time>2019-05-11T09:17:26.000Z</time>
      </trkpt>
      <trkpt lat="44.01679" lon="7.19951">
        <ele>1134.4000244141</ele>
        <time>2019-05-11T09:17:27.000Z</time>
      </trkpt>
      <trkpt lat="44.0168" lon="7.19952">
        <ele>1134.4000244141</ele>
        <time>2019-05-11T09:17:28.000Z</time>
      </trkpt>
      <trkpt lat="44.01684" lon="7.19957">
        <ele>1135</ele>
        <time>2019-05-11T09:17:31.000Z</time>
      </trkpt>
      <trkpt lat="44.01686" lon="7.1996">
        <ele>1135.4000244141</ele>
        <time>2019-05-11T09:17:33.000Z</time>
      </trkpt>
      <trkpt lat="44.0169" lon="7.19965">
        <ele>1135.8000488281</ele>
        <time>2019-05-11T09:17:36.000Z</time>
      </trkpt>
      <trkpt lat="44.01692" lon="7.19966">
        <ele>1135.8000488281</ele>
        <time>2019-05-11T09:17:37.000Z</time>
      </trkpt>
      <trkpt lat="44.01699" lon="7.19976">
        <ele>1136</ele>
        <time>2019-05-11T09:17:42.000Z</time>
      </trkpt>
      <trkpt lat="44.01702" lon="7.1998">
        <ele>1136</ele>
        <time>2019-05-11T09:17:44.000Z</time>
      </trkpt>
      <trkpt lat="44.01706" lon="7.1999">
        <ele>1136.4000244141</ele>
        <time>2019-05-11T09:17:48.000Z</time>
      </trkpt>
      <trkpt lat="44.01707" lon="7.19992">
        <ele>1136.5999755859</ele>
        <time>2019-05-11T09:17:49.000Z</time>
      </trkpt>
      <trkpt lat="44.01712" lon="7.20002">
        <ele>1136.5999755859</ele>
        <time>2019-05-11T09:17:53.000Z</time>
      </trkpt>
      <trkpt lat="44.01714" lon="7.20004">
        <ele>1136.8000488281</ele>
        <time>2019-05-11T09:17:54.000Z</time>
      </trkpt>
      <trkpt lat="44.01717" lon="7.20011">
        <ele>1137.1999511719</ele>
        <time>2019-05-11T09:17:57.000Z</time>
      </trkpt>
      <trkpt lat="44.01721" lon="7.2002">
        <ele>1137.5999755859</ele>
        <time>2019-05-11T09:18:01.000Z</time>
      </trkpt>
      <trkpt lat="44.01724" lon="7.20025">
        <ele>1137.8000488281</ele>
        <time>2019-05-11T09:18:03.000Z</time>
      </trkpt>
      <trkpt lat="44.01734" lon="7.20034">
        <ele>1138.1999511719</ele>
        <time>2019-05-11T09:18:08.000Z</time>
      </trkpt>
      <trkpt lat="44.0174" lon="7.20036">
        <ele>1138.8000488281</ele>
        <time>2019-05-11T09:18:11.000Z</time>
      </trkpt>
      <trkpt lat="44.01745" lon="7.20039">
        <ele>1139.5999755859</ele>
        <time>2019-05-11T09:18:14.000Z</time>
      </trkpt>
      <trkpt lat="44.01748" lon="7.20039">
        <ele>1140</ele>
        <time>2019-05-11T09:18:15.000Z</time>
      </trkpt>
      <trkpt lat="44.01759" lon="7.20039">
        <ele>1140.8000488281</ele>
        <time>2019-05-11T09:18:21.000Z</time>
      </trkpt>
      <trkpt lat="44.01761" lon="7.20039">
        <ele>1141.1999511719</ele>
        <time>2019-05-11T09:18:22.000Z</time>
      </trkpt>
      <trkpt lat="44.01768" lon="7.20038">
        <ele>1142.5999755859</ele>
        <time>2019-05-11T09:18:26.000Z</time>
      </trkpt>
      <trkpt lat="44.01771" lon="7.20037">
        <ele>1143</ele>
        <time>2019-05-11T09:18:28.000Z</time>
      </trkpt>
      <trkpt lat="44.01778" lon="7.20035">
        <ele>1143.5999755859</ele>
        <time>2019-05-11T09:18:33.000Z</time>
      </trkpt>
      <trkpt lat="44.01779" lon="7.20035">
        <ele>1143.8000488281</ele>
        <time>2019-05-11T09:18:34.000Z</time>
      </trkpt>
      <trkpt lat="44.01783" lon="7.20036">
        <ele>1144.8000488281</ele>
        <time>2019-05-11T09:18:37.000Z</time>
      </trkpt>
      <trkpt lat="44.01785" lon="7.20038">
        <ele>1145</ele>
        <time>2019-05-11T09:18:38.000Z</time>
      </trkpt>
      <trkpt lat="44.01788" lon="7.20041">
        <ele>1145.8000488281</ele>
        <time>2019-05-11T09:18:41.000Z</time>
      </trkpt>
      <trkpt lat="44.01789" lon="7.20042">
        <ele>1146</ele>
        <time>2019-05-11T09:18:42.000Z</time>
      </trkpt>
      <trkpt lat="44.0179" lon="7.20043">
        <ele>1146.1999511719</ele>
        <time>2019-05-11T09:18:43.000Z</time>
      </trkpt>
      <trkpt lat="44.01793" lon="7.20047">
        <ele>1147.1999511719</ele>
        <time>2019-05-11T09:18:46.000Z</time>
      </trkpt>
      <trkpt lat="44.01795" lon="7.20049">
        <ele>1148</ele>
        <time>2019-05-11T09:18:49.000Z</time>
      </trkpt>
      <trkpt lat="44.01797" lon="7.2005">
        <ele>1148.1999511719</ele>
        <time>2019-05-11T09:18:50.000Z</time>
      </trkpt>
      <trkpt lat="44.018" lon="7.20054">
        <ele>1149</ele>
        <time>2019-05-11T09:18:53.000Z</time>
      </trkpt>
      <trkpt lat="44.01802" lon="7.20056">
        <ele>1149.4000244141</ele>
        <time>2019-05-11T09:18:55.000Z</time>
      </trkpt>
      <trkpt lat="44.01805" lon="7.20059">
        <ele>1150</ele>
        <time>2019-05-11T09:18:58.000Z</time>
      </trkpt>
      <trkpt lat="44.01807" lon="7.2006">
        <ele>1150.4000244141</ele>
        <time>2019-05-11T09:19:00.000Z</time>
      </trkpt>
      <trkpt lat="44.01807" lon="7.2006">
        <ele>1150.5999755859</ele>
        <time>2019-05-11T09:19:01.000Z</time>
      </trkpt>
      <trkpt lat="44.01808" lon="7.2006">
        <ele>1151</ele>
        <time>2019-05-11T09:19:03.000Z</time>
      </trkpt>
      <trkpt lat="44.0181" lon="7.20061">
        <ele>1151.1999511719</ele>
        <time>2019-05-11T09:19:09.000Z</time>
      </trkpt>
      <trkpt lat="44.01813" lon="7.20062">
        <ele>1151.5999755859</ele>
        <time>2019-05-11T09:19:12.000Z</time>
      </trkpt>
      <trkpt lat="44.01818" lon="7.20064">
        <ele>1152.1999511719</ele>
        <time>2019-05-11T09:19:18.000Z</time>
      </trkpt>
      <trkpt lat="44.0182" lon="7.20066">
        <ele>1152.5999755859</ele>
        <time>2019-05-11T09:19:21.000Z</time>
      </trkpt>
      <trkpt lat="44.01823" lon="7.20067">
        <ele>1153.1999511719</ele>
        <time>2019-05-11T09:19:25.000Z</time>
      </trkpt>
      <trkpt lat="44.01823" lon="7.20068">
        <ele>1153.4000244141</ele>
        <time>2019-05-11T09:19:31.000Z</time>
      </trkpt>
      <trkpt lat="44.01827" lon="7.2007">
        <ele>1153.5999755859</ele>
        <time>2019-05-11T09:19:37.000Z</time>
      </trkpt>
      <trkpt lat="44.01828" lon="7.20071">
        <ele>1153.8000488281</ele>
        <time>2019-05-11T09:19:38.000Z</time>
      </trkpt>
      <trkpt lat="44.01832" lon="7.20074">
        <ele>1154.5999755859</ele>
        <time>2019-05-11T09:19:43.000Z</time>
      </trkpt>
      <trkpt lat="44.01834" lon="7.20076">
        <ele>1155.1999511719</ele>
        <time>2019-05-11T09:19:46.000Z</time>
      </trkpt>
      <trkpt lat="44.01837" lon="7.20078">
        <ele>1155.8000488281</ele>
        <time>2019-05-11T09:19:51.000Z</time>
      </trkpt>
      <trkpt lat="44.01839" lon="7.20079">
        <ele>1156.1999511719</ele>
        <time>2019-05-11T09:19:54.000Z</time>
      </trkpt>
      <trkpt lat="44.01842" lon="7.20082">
        <ele>1156.5999755859</ele>
        <time>2019-05-11T09:20:00.000Z</time>
      </trkpt>
      <trkpt lat="44.01845" lon="7.20085">
        <ele>1156.8000488281</ele>
        <time>2019-05-11T09:20:03.000Z</time>
      </trkpt>
      <trkpt lat="44.01848" lon="7.20087">
        <ele>1157.1999511719</ele>
        <time>2019-05-11T09:20:05.000Z</time>
      </trkpt>
      <trkpt lat="44.01849" lon="7.20088">
        <ele>1157.4000244141</ele>
        <time>2019-05-11T09:20:06.000Z</time>
      </trkpt>
      <trkpt lat="44.01854" lon="7.2009">
        <ele>1158</ele>
        <time>2019-05-11T09:20:09.000Z</time>
      </trkpt>
      <trkpt lat="44.01858" lon="7.20092">
        <ele>1158.8000488281</ele>
        <time>2019-05-11T09:20:12.000Z</time>
      </trkpt>
      <trkpt lat="44.0186" lon="7.20092">
        <ele>1159.1999511719</ele>
        <time>2019-05-11T09:20:13.000Z</time>
      </trkpt>
      <trkpt lat="44.01862" lon="7.20092">
        <ele>1159.8000488281</ele>
        <time>2019-05-11T09:20:15.000Z</time>
      </trkpt>
      <trkpt lat="44.01864" lon="7.20093">
        <ele>1160</ele>
        <time>2019-05-11T09:20:16.000Z</time>
      </trkpt>
      <trkpt lat="44.01871" lon="7.20095">
        <ele>1160.4000244141</ele>
        <time>2019-05-11T09:20:21.000Z</time>
      </trkpt>
      <trkpt lat="44.01872" lon="7.20095">
        <ele>1160.5999755859</ele>
        <time>2019-05-11T09:20:22.000Z</time>
      </trkpt>
      <trkpt lat="44.01876" lon="7.20094">
        <ele>1161.4000244141</ele>
        <time>2019-05-11T09:20:25.000Z</time>
      </trkpt>
      <trkpt lat="44.0188" lon="7.20094">
        <ele>1162</ele>
        <time>2019-05-11T09:20:28.000Z</time>
      </trkpt>
      <trkpt lat="44.01885" lon="7.20092">
        <ele>1162.5999755859</ele>
        <time>2019-05-11T09:20:31.000Z</time>
      </trkpt>
      <trkpt lat="44.01886" lon="7.20091">
        <ele>1162.8000488281</ele>
        <time>2019-05-11T09:20:32.000Z</time>
      </trkpt>
      <trkpt lat="44.01892" lon="7.20088">
        <ele>1163.8000488281</ele>
        <time>2019-05-11T09:20:36.000Z</time>
      </trkpt>
      <trkpt lat="44.01896" lon="7.20086">
        <ele>1164.4000244141</ele>
        <time>2019-05-11T09:20:38.000Z</time>
      </trkpt>
      <trkpt lat="44.01899" lon="7.20085">
        <ele>1165</ele>
        <time>2019-05-11T09:20:40.000Z</time>
      </trkpt>
      <trkpt lat="44.01903" lon="7.20083">
        <ele>1166</ele>
        <time>2019-05-11T09:20:44.000Z</time>
      </trkpt>
      <trkpt lat="44.01907" lon="7.20083">
        <ele>1167.1999511719</ele>
        <time>2019-05-11T09:20:49.000Z</time>
      </trkpt>
      <trkpt lat="44.01908" lon="7.20083">
        <ele>1167.5999755859</ele>
        <time>2019-05-11T09:20:50.000Z</time>
      </trkpt>
      <trkpt lat="44.01913" lon="7.2008">
        <ele>1168.4000244141</ele>
        <time>2019-05-11T09:20:55.000Z</time>
      </trkpt>
      <trkpt lat="44.01914" lon="7.2008">
        <ele>1168.5999755859</ele>
        <time>2019-05-11T09:20:56.000Z</time>
      </trkpt>
      <trkpt lat="44.01916" lon="7.20078">
        <ele>1169.4000244141</ele>
        <time>2019-05-11T09:20:59.000Z</time>
      </trkpt>
      <trkpt lat="44.01918" lon="7.20077">
        <ele>1170</ele>
        <time>2019-05-11T09:21:01.000Z</time>
      </trkpt>
      <trkpt lat="44.01922" lon="7.20076">
        <ele>1170.4000244141</ele>
        <time>2019-05-11T09:21:08.000Z</time>
      </trkpt>
      <trkpt lat="44.01923" lon="7.20075">
        <ele>1170.5999755859</ele>
        <time>2019-05-11T09:21:09.000Z</time>
      </trkpt>
      <trkpt lat="44.01927" lon="7.20074">
        <ele>1171.5999755859</ele>
        <time>2019-05-11T09:21:14.000Z</time>
      </trkpt>
      <trkpt lat="44.01928" lon="7.20074">
        <ele>1171.8000488281</ele>
        <time>2019-05-11T09:21:15.000Z</time>
      </trkpt>
      <trkpt lat="44.01933" lon="7.20072">
        <ele>1172.5999755859</ele>
        <time>2019-05-11T09:21:21.000Z</time>
      </trkpt>
      <trkpt lat="44.01934" lon="7.20071">
        <ele>1173</ele>
        <time>2019-05-11T09:21:23.000Z</time>
      </trkpt>
      <trkpt lat="44.01938" lon="7.20068">
        <ele>1174.4000244141</ele>
        <time>2019-05-11T09:21:29.000Z</time>
      </trkpt>
      <trkpt lat="44.01943" lon="7.20066">
        <ele>1175.4000244141</ele>
        <time>2019-05-11T09:21:35.000Z</time>
      </trkpt>
      <trkpt lat="44.01944" lon="7.20065">
        <ele>1175.5999755859</ele>
        <time>2019-05-11T09:21:37.000Z</time>
      </trkpt>
      <trkpt lat="44.01947" lon="7.20065">
        <ele>1176</ele>
        <time>2019-05-11T09:21:44.000Z</time>
      </trkpt>
      <trkpt lat="44.01953" lon="7.20064">
        <ele>1176.4000244141</ele>
        <time>2019-05-11T09:21:49.000Z</time>
      </trkpt>
      <trkpt lat="44.01955" lon="7.20063">
        <ele>1176.5999755859</ele>
        <time>2019-05-11T09:21:51.000Z</time>
      </trkpt>
      <trkpt lat="44.01963" lon="7.20061">
        <ele>1177.4000244141</ele>
        <time>2019-05-11T09:21:57.000Z</time>
      </trkpt>
      <trkpt lat="44.01964" lon="7.20062">
        <ele>1177.5999755859</ele>
        <time>2019-05-11T09:21:58.000Z</time>
      </trkpt>
      <trkpt lat="44.01974" lon="7.20057">
        <ele>1178.4000244141</ele>
        <time>2019-05-11T09:22:03.000Z</time>
      </trkpt>
      <trkpt lat="44.01976" lon="7.20056">
        <ele>1178.5999755859</ele>
        <time>2019-05-11T09:22:04.000Z</time>
      </trkpt>
      <trkpt lat="44.0198" lon="7.20055">
        <ele>1179.5999755859</ele>
        <time>2019-05-11T09:22:06.000Z</time>
      </trkpt>
      <trkpt lat="44.01981" lon="7.20056">
        <ele>1180</ele>
        <time>2019-05-11T09:22:07.000Z</time>
      </trkpt>
      <trkpt lat="44.01983" lon="7.20057">
        <ele>1180.4000244141</ele>
        <time>2019-05-11T09:22:08.000Z</time>
      </trkpt>
      <trkpt lat="44.0199" lon="7.2006">
        <ele>1181</ele>
        <time>2019-05-11T09:22:11.000Z</time>
      </trkpt>
      <trkpt lat="44.01994" lon="7.2006">
        <ele>1181</ele>
        <time>2019-05-11T09:22:12.000Z</time>
      </trkpt>
      <trkpt lat="44.02002" lon="7.20061">
        <ele>1180.1999511719</ele>
        <time>2019-05-11T09:22:16.000Z</time>
      </trkpt>
      <trkpt lat="44.02009" lon="7.20061">
        <ele>1181.1999511719</ele>
        <time>2019-05-11T09:22:21.000Z</time>
      </trkpt>
      <trkpt lat="44.02017" lon="7.20062">
        <ele>1182.1999511719</ele>
        <time>2019-05-11T09:22:27.000Z</time>
      </trkpt>
      <trkpt lat="44.02019" lon="7.20063">
        <ele>1182.4000244141</ele>
        <time>2019-05-11T09:22:28.000Z</time>
      </trkpt>
      <trkpt lat="44.02022" lon="7.20064">
        <ele>1182.8000488281</ele>
        <time>2019-05-11T09:22:30.000Z</time>
      </trkpt>
      <trkpt lat="44.02024" lon="7.20064">
        <ele>1183.1999511719</ele>
        <time>2019-05-11T09:22:32.000Z</time>
      </trkpt>
      <trkpt lat="44.02028" lon="7.20064">
        <ele>1183.8000488281</ele>
        <time>2019-05-11T09:22:34.000Z</time>
      </trkpt>
      <trkpt lat="44.02032" lon="7.20063">
        <ele>1185</ele>
        <time>2019-05-11T09:22:38.000Z</time>
      </trkpt>
      <trkpt lat="44.02033" lon="7.20063">
        <ele>1185.1999511719</ele>
        <time>2019-05-11T09:22:39.000Z</time>
      </trkpt>
      <trkpt lat="44.02037" lon="7.20065">
        <ele>1185.8000488281</ele>
        <time>2019-05-11T09:22:42.000Z</time>
      </trkpt>
      <trkpt lat="44.02038" lon="7.20064">
        <ele>1186.1999511719</ele>
        <time>2019-05-11T09:22:43.000Z</time>
      </trkpt>
      <trkpt lat="44.02039" lon="7.20064">
        <ele>1186.5999755859</ele>
        <time>2019-05-11T09:22:45.000Z</time>
      </trkpt>
      <trkpt lat="44.02043" lon="7.20062">
        <ele>1187.4000244141</ele>
        <time>2019-05-11T09:22:49.000Z</time>
      </trkpt>
      <trkpt lat="44.02046" lon="7.20062">
        <ele>1187.8000488281</ele>
        <time>2019-05-11T09:22:51.000Z</time>
      </trkpt>
      <trkpt lat="44.02049" lon="7.20062">
        <ele>1188.4000244141</ele>
        <time>2019-05-11T09:22:54.000Z</time>
      </trkpt>
      <trkpt lat="44.02051" lon="7.20061">
        <ele>1188.8000488281</ele>
        <time>2019-05-11T09:22:56.000Z</time>
      </trkpt>
      <trkpt lat="44.02054" lon="7.2006">
        <ele>1189.5999755859</ele>
        <time>2019-05-11T09:22:59.000Z</time>
      </trkpt>
      <trkpt lat="44.02055" lon="7.20059">
        <ele>1189.8000488281</ele>
        <time>2019-05-11T09:23:00.000Z</time>
      </trkpt>
      <trkpt lat="44.02056" lon="7.20059">
        <ele>1190</ele>
        <time>2019-05-11T09:23:01.000Z</time>
      </trkpt>
      <trkpt lat="44.02059" lon="7.20058">
        <ele>1190.5999755859</ele>
        <time>2019-05-11T09:23:04.000Z</time>
      </trkpt>
      <trkpt lat="44.02063" lon="7.20056">
        <ele>1191.1999511719</ele>
        <time>2019-05-11T09:23:07.000Z</time>
      </trkpt>
      <trkpt lat="44.02066" lon="7.20055">
        <ele>1191.8000488281</ele>
        <time>2019-05-11T09:23:10.000Z</time>
      </trkpt>
      <trkpt lat="44.0207" lon="7.20054">
        <ele>1192.1999511719</ele>
        <time>2019-05-11T09:23:13.000Z</time>
      </trkpt>
      <trkpt lat="44.02078" lon="7.20051">
        <ele>1192.8000488281</ele>
        <time>2019-05-11T09:23:18.000Z</time>
      </trkpt>
      <trkpt lat="44.0208" lon="7.20049">
        <ele>1192.8000488281</ele>
        <time>2019-05-11T09:23:20.000Z</time>
      </trkpt>
      <trkpt lat="44.02085" lon="7.20046">
        <ele>1193.1999511719</ele>
        <time>2019-05-11T09:23:24.000Z</time>
      </trkpt>
      <trkpt lat="44.02088" lon="7.20043">
        <ele>1193.1999511719</ele>
        <time>2019-05-11T09:23:26.000Z</time>
      </trkpt>
      <trkpt lat="44.021" lon="7.20037">
        <ele>1193.5999755859</ele>
        <time>2019-05-11T09:23:31.000Z</time>
      </trkpt>
      <trkpt lat="44.02102" lon="7.20036">
        <ele>1193.5999755859</ele>
        <time>2019-05-11T09:23:33.000Z</time>
      </trkpt>
      <trkpt lat="44.02104" lon="7.20036">
        <ele>1193.5999755859</ele>
        <time>2019-05-11T09:23:34.000Z</time>
      </trkpt>
      <trkpt lat="44.02112" lon="7.20035">
        <ele>1193.8000488281</ele>
        <time>2019-05-11T09:23:36.000Z</time>
      </trkpt>
      <trkpt lat="44.02115" lon="7.20035">
        <ele>1193.8000488281</ele>
        <time>2019-05-11T09:23:37.000Z</time>
      </trkpt>
      <trkpt lat="44.02127" lon="7.20035">
        <ele>1192.4000244141</ele>
        <time>2019-05-11T09:23:41.000Z</time>
      </trkpt>
      <trkpt lat="44.02136" lon="7.20033">
        <ele>1192.8000488281</ele>
        <time>2019-05-11T09:23:46.000Z</time>
      </trkpt>
      <trkpt lat="44.02139" lon="7.20033">
        <ele>1193.1999511719</ele>
        <time>2019-05-11T09:23:48.000Z</time>
      </trkpt>
      <trkpt lat="44.0214" lon="7.20033">
        <ele>1193.4000244141</ele>
        <time>2019-05-11T09:23:49.000Z</time>
      </trkpt>
      <trkpt lat="44.02145" lon="7.20031">
        <ele>1194.1999511719</ele>
        <time>2019-05-11T09:23:52.000Z</time>
      </trkpt>
      <trkpt lat="44.02146" lon="7.20031">
        <ele>1194.8000488281</ele>
        <time>2019-05-11T09:23:54.000Z</time>
      </trkpt>
      <trkpt lat="44.02149" lon="7.2003">
        <ele>1195.1999511719</ele>
        <time>2019-05-11T09:23:57.000Z</time>
      </trkpt>
      <trkpt lat="44.02153" lon="7.20028">
        <ele>1196</ele>
        <time>2019-05-11T09:24:02.000Z</time>
      </trkpt>
      <trkpt lat="44.02155" lon="7.20028">
        <ele>1196.4000244141</ele>
        <time>2019-05-11T09:24:04.000Z</time>
      </trkpt>
      <trkpt lat="44.02157" lon="7.20028">
        <ele>1197</ele>
        <time>2019-05-11T09:24:08.000Z</time>
      </trkpt>
      <trkpt lat="44.02159" lon="7.20028">
        <ele>1197.5999755859</ele>
        <time>2019-05-11T09:24:11.000Z</time>
      </trkpt>
      <trkpt lat="44.02161" lon="7.20028">
        <ele>1198.1999511719</ele>
        <time>2019-05-11T09:24:14.000Z</time>
      </trkpt>
      <trkpt lat="44.02164" lon="7.20028">
        <ele>1199</ele>
        <time>2019-05-11T09:24:18.000Z</time>
      </trkpt>
      <trkpt lat="44.02166" lon="7.20028">
        <ele>1199.1999511719</ele>
        <time>2019-05-11T09:24:20.000Z</time>
      </trkpt>
      <trkpt lat="44.02167" lon="7.20027">
        <ele>1199.8000488281</ele>
        <time>2019-05-11T09:24:24.000Z</time>
      </trkpt>
      <trkpt lat="44.02169" lon="7.20028">
        <ele>1200.1999511719</ele>
        <time>2019-05-11T09:24:26.000Z</time>
      </trkpt>
      <trkpt lat="44.0217" lon="7.20027">
        <ele>1200.4000244141</ele>
        <time>2019-05-11T09:24:27.000Z</time>
      </trkpt>
      <trkpt lat="44.02173" lon="7.20026">
        <ele>1200.8000488281</ele>
        <time>2019-05-11T09:24:30.000Z</time>
      </trkpt>
      <trkpt lat="44.02174" lon="7.20026">
        <ele>1201.1999511719</ele>
        <time>2019-05-11T09:24:32.000Z</time>
      </trkpt>
      <trkpt lat="44.02177" lon="7.20025">
        <ele>1202.4000244141</ele>
        <time>2019-05-11T09:24:38.000Z</time>
      </trkpt>
      <trkpt lat="44.02181" lon="7.20024">
        <ele>1203.4000244141</ele>
        <time>2019-05-11T09:24:44.000Z</time>
      </trkpt>
      <trkpt lat="44.02183" lon="7.20024">
        <ele>1203.8000488281</ele>
        <time>2019-05-11T09:24:46.000Z</time>
      </trkpt>
      <trkpt lat="44.02186" lon="7.20024">
        <ele>1204.5999755859</ele>
        <time>2019-05-11T09:24:51.000Z</time>
      </trkpt>
      <trkpt lat="44.02187" lon="7.20025">
        <ele>1204.8000488281</ele>
        <time>2019-05-11T09:24:53.000Z</time>
      </trkpt>
      <trkpt lat="44.0219" lon="7.20025">
        <ele>1205.8000488281</ele>
        <time>2019-05-11T09:24:58.000Z</time>
      </trkpt>
      <trkpt lat="44.02192" lon="7.20024">
        <ele>1206.1999511719</ele>
        <time>2019-05-11T09:25:01.000Z</time>
      </trkpt>
      <trkpt lat="44.02194" lon="7.20023">
        <ele>1206.8000488281</ele>
        <time>2019-05-11T09:25:04.000Z</time>
      </trkpt>
      <trkpt lat="44.02198" lon="7.20021">
        <ele>1207.8000488281</ele>
        <time>2019-05-11T09:25:09.000Z</time>
      </trkpt>
      <trkpt lat="44.02203" lon="7.2002">
        <ele>1208.8000488281</ele>
        <time>2019-05-11T09:25:16.000Z</time>
      </trkpt>
      <trkpt lat="44.02208" lon="7.20019">
        <ele>1209</ele>
        <time>2019-05-11T09:25:20.000Z</time>
      </trkpt>
      <trkpt lat="44.02212" lon="7.20019">
        <ele>1209.1999511719</ele>
        <time>2019-05-11T09:25:22.000Z</time>
      </trkpt>
      <trkpt lat="44.02226" lon="7.20024">
        <ele>1209</ele>
        <time>2019-05-11T09:25:28.000Z</time>
      </trkpt>
      <trkpt lat="44.02241" lon="7.20033">
        <ele>1209</ele>
        <time>2019-05-11T09:25:34.000Z</time>
      </trkpt>
      <trkpt lat="44.02245" lon="7.20034">
        <ele>1209</ele>
        <time>2019-05-11T09:25:35.000Z</time>
      </trkpt>
      <trkpt lat="44.02252" lon="7.20036">
        <ele>1208.5999755859</ele>
        <time>2019-05-11T09:25:37.000Z</time>
      </trkpt>
      <trkpt lat="44.02254" lon="7.20041">
        <ele>1207.8000488281</ele>
        <time>2019-05-11T09:25:39.000Z</time>
      </trkpt>
      <trkpt lat="44.02254" lon="7.20045">
        <ele>1207.8000488281</ele>
        <time>2019-05-11T09:25:40.000Z</time>
      </trkpt>
      <trkpt lat="44.02254" lon="7.20049">
        <ele>1207</ele>
        <time>2019-05-11T09:25:41.000Z</time>
      </trkpt>
      <trkpt lat="44.02254" lon="7.20052">
        <ele>1206.5999755859</ele>
        <time>2019-05-11T09:25:42.000Z</time>
      </trkpt>
      <trkpt lat="44.02255" lon="7.20056">
        <ele>1206.4000244141</ele>
        <time>2019-05-11T09:25:44.000Z</time>
      </trkpt>
      <trkpt lat="44.02255" lon="7.20057">
        <ele>1207</ele>
        <time>2019-05-11T09:25:48.000Z</time>
      </trkpt>
      <trkpt lat="44.02259" lon="7.20064">
        <ele>1207.4000244141</ele>
        <time>2019-05-11T09:25:54.000Z</time>
      </trkpt>
      <trkpt lat="44.0226" lon="7.20066">
        <ele>1207.8000488281</ele>
        <time>2019-05-11T09:25:56.000Z</time>
      </trkpt>
      <trkpt lat="44.02261" lon="7.20068">
        <ele>1207.8000488281</ele>
        <time>2019-05-11T09:25:59.000Z</time>
      </trkpt>
      <trkpt lat="44.02261" lon="7.20071">
        <ele>1208.1999511719</ele>
        <time>2019-05-11T09:26:06.000Z</time>
      </trkpt>
      <trkpt lat="44.02261" lon="7.20072">
        <ele>1209</ele>
        <time>2019-05-11T09:26:11.000Z</time>
      </trkpt>
      <trkpt lat="44.0226" lon="7.20073">
        <ele>1209</ele>
        <time>2019-05-11T09:26:12.000Z</time>
      </trkpt>
      <trkpt lat="44.02257" lon="7.20076">
        <ele>1210</ele>
        <time>2019-05-11T09:26:19.000Z</time>
      </trkpt>
      <trkpt lat="44.02255" lon="7.20076">
        <ele>1211.1999511719</ele>
        <time>2019-05-11T09:26:24.000Z</time>
      </trkpt>
      <trkpt lat="44.02254" lon="7.20075">
        <ele>1211.5999755859</ele>
        <time>2019-05-11T09:26:27.000Z</time>
      </trkpt>
      <trkpt lat="44.02252" lon="7.20074">
        <ele>1211.5999755859</ele>
        <time>2019-05-11T09:26:31.000Z</time>
      </trkpt>
      <trkpt lat="44.02251" lon="7.20073">
        <ele>1211.5999755859</ele>
        <time>2019-05-11T09:26:32.000Z</time>
      </trkpt>
      <trkpt lat="44.02246" lon="7.20072">
        <ele>1211.4000244141</ele>
        <time>2019-05-11T09:26:37.000Z</time>
      </trkpt>
      <trkpt lat="44.02244" lon="7.20073">
        <ele>1211.8000488281</ele>
        <time>2019-05-11T09:26:44.000Z</time>
      </trkpt>
      <trkpt lat="44.02243" lon="7.20074">
        <ele>1211.1999511719</ele>
        <time>2019-05-11T09:26:50.000Z</time>
      </trkpt>
      <trkpt lat="44.02241" lon="7.20077">
        <ele>1211.8000488281</ele>
        <time>2019-05-11T09:26:57.000Z</time>
      </trkpt>
      <trkpt lat="44.0224" lon="7.20079">
        <ele>1212</ele>
        <time>2019-05-11T09:26:59.000Z</time>
      </trkpt>
      <trkpt lat="44.0224" lon="7.2008">
        <ele>1212.1999511719</ele>
        <time>2019-05-11T09:27:00.000Z</time>
      </trkpt>
      <trkpt lat="44.02238" lon="7.20083">
        <ele>1212.5999755859</ele>
        <time>2019-05-11T09:27:02.000Z</time>
      </trkpt>
      <trkpt lat="44.02232" lon="7.20089">
        <ele>1213</ele>
        <time>2019-05-11T09:27:07.000Z</time>
      </trkpt>
      <trkpt lat="44.02232" lon="7.2009">
        <ele>1213.1999511719</ele>
        <time>2019-05-11T09:27:08.000Z</time>
      </trkpt>
      <trkpt lat="44.02232" lon="7.20093">
        <ele>1213.1999511719</ele>
        <time>2019-05-11T09:27:10.000Z</time>
      </trkpt>
      <trkpt lat="44.02232" lon="7.20097">
        <ele>1213.1999511719</ele>
        <time>2019-05-11T09:27:12.000Z</time>
      </trkpt>
      <trkpt lat="44.0223" lon="7.20102">
        <ele>1213.1999511719</ele>
        <time>2019-05-11T09:27:14.000Z</time>
      </trkpt>
      <trkpt lat="44.0223" lon="7.20103">
        <ele>1213.4000244141</ele>
        <time>2019-05-11T09:27:16.000Z</time>
      </trkpt>
      <trkpt lat="44.02228" lon="7.20106">
        <ele>1214</ele>
        <time>2019-05-11T09:27:18.000Z</time>
      </trkpt>
      <trkpt lat="44.02227" lon="7.20107">
        <ele>1214.1999511719</ele>
        <time>2019-05-11T09:27:19.000Z</time>
      </trkpt>
      <trkpt lat="44.02225" lon="7.20108">
        <ele>1214.8000488281</ele>
        <time>2019-05-11T09:27:20.000Z</time>
      </trkpt>
      <trkpt lat="44.02219" lon="7.2011">
        <ele>1215.4000244141</ele>
        <time>2019-05-11T09:27:24.000Z</time>
      </trkpt>
      <trkpt lat="44.02212" lon="7.20113">
        <ele>1216.5999755859</ele>
        <time>2019-05-11T09:27:29.000Z</time>
      </trkpt>
      <trkpt lat="44.02209" lon="7.20116">
        <ele>1217.8000488281</ele>
        <time>2019-05-11T09:27:33.000Z</time>
      </trkpt>
      <trkpt lat="44.02206" lon="7.20119">
        <ele>1218.4000244141</ele>
        <time>2019-05-11T09:27:37.000Z</time>
      </trkpt>
      <trkpt lat="44.02205" lon="7.2012">
        <ele>1218.5999755859</ele>
        <time>2019-05-11T09:27:38.000Z</time>
      </trkpt>
      <trkpt lat="44.02203" lon="7.20121">
        <ele>1219</ele>
        <time>2019-05-11T09:27:40.000Z</time>
      </trkpt>
      <trkpt lat="44.022" lon="7.20125">
        <ele>1219.8000488281</ele>
        <time>2019-05-11T09:27:44.000Z</time>
      </trkpt>
      <trkpt lat="44.02199" lon="7.20127">
        <ele>1220.1999511719</ele>
        <time>2019-05-11T09:27:46.000Z</time>
      </trkpt>
      <trkpt lat="44.02195" lon="7.2013">
        <ele>1220.8000488281</ele>
        <time>2019-05-11T09:27:50.000Z</time>
      </trkpt>
      <trkpt lat="44.02193" lon="7.20132">
        <ele>1221.1999511719</ele>
        <time>2019-05-11T09:27:52.000Z</time>
      </trkpt>
      <trkpt lat="44.02188" lon="7.20135">
        <ele>1222</ele>
        <time>2019-05-11T09:27:56.000Z</time>
      </trkpt>
      <trkpt lat="44.02187" lon="7.20135">
        <ele>1222.1999511719</ele>
        <time>2019-05-11T09:27:57.000Z</time>
      </trkpt>
      <trkpt lat="44.02183" lon="7.20138">
        <ele>1222.5999755859</ele>
        <time>2019-05-11T09:28:00.000Z</time>
      </trkpt>
      <trkpt lat="44.0218" lon="7.2014">
        <ele>1222.5999755859</ele>
        <time>2019-05-11T09:28:02.000Z</time>
      </trkpt>
      <trkpt lat="44.02175" lon="7.20144">
        <ele>1223</ele>
        <time>2019-05-11T09:28:06.000Z</time>
      </trkpt>
      <trkpt lat="44.02174" lon="7.20145">
        <ele>1223.1999511719</ele>
        <time>2019-05-11T09:28:07.000Z</time>
      </trkpt>
      <trkpt lat="44.02172" lon="7.20146">
        <ele>1223.4000244141</ele>
        <time>2019-05-11T09:28:08.000Z</time>
      </trkpt>
      <trkpt lat="44.02171" lon="7.20148">
        <ele>1223.4000244141</ele>
        <time>2019-05-11T09:28:09.000Z</time>
      </trkpt>
      <trkpt lat="44.02168" lon="7.20151">
        <ele>1223.8000488281</ele>
        <time>2019-05-11T09:28:11.000Z</time>
      </trkpt>
      <trkpt lat="44.02166" lon="7.20157">
        <ele>1224.4000244141</ele>
        <time>2019-05-11T09:28:14.000Z</time>
      </trkpt>
      <trkpt lat="44.02162" lon="7.20168">
        <ele>1224.5999755859</ele>
        <time>2019-05-11T09:28:18.000Z</time>
      </trkpt>
      <trkpt lat="44.02159" lon="7.20176">
        <ele>1224.4000244141</ele>
        <time>2019-05-11T09:28:21.000Z</time>
      </trkpt>
      <trkpt lat="44.02155" lon="7.20181">
        <ele>1224.4000244141</ele>
        <time>2019-05-11T09:28:23.000Z</time>
      </trkpt>
      <trkpt lat="44.02147" lon="7.20193">
        <ele>1224.4000244141</ele>
        <time>2019-05-11T09:28:28.000Z</time>
      </trkpt>
      <trkpt lat="44.02142" lon="7.20205">
        <ele>1225.1999511719</ele>
        <time>2019-05-11T09:28:33.000Z</time>
      </trkpt>
      <trkpt lat="44.02138" lon="7.20213">
        <ele>1225.4000244141</ele>
        <time>2019-05-11T09:28:36.000Z</time>
      </trkpt>
      <trkpt lat="44.02135" lon="7.20221">
        <ele>1225.5999755859</ele>
        <time>2019-05-11T09:28:39.000Z</time>
      </trkpt>
      <trkpt lat="44.02128" lon="7.20237">
        <ele>1225.8000488281</ele>
        <time>2019-05-11T09:28:45.000Z</time>
      </trkpt>
      <trkpt lat="44.02123" lon="7.20248">
        <ele>1226.1999511719</ele>
        <time>2019-05-11T09:28:51.000Z</time>
      </trkpt>
      <trkpt lat="44.02122" lon="7.20251">
        <ele>1226.8000488281</ele>
        <time>2019-05-11T09:28:53.000Z</time>
      </trkpt>
      <trkpt lat="44.02121" lon="7.20253">
        <ele>1227.1999511719</ele>
        <time>2019-05-11T09:28:55.000Z</time>
      </trkpt>
      <trkpt lat="44.0212" lon="7.20256">
        <ele>1228</ele>
        <time>2019-05-11T09:28:57.000Z</time>
      </trkpt>
      <trkpt lat="44.02121" lon="7.20255">
        <ele>1228.4000244141</ele>
        <time>2019-05-11T09:28:58.000Z</time>
      </trkpt>
      <trkpt lat="44.0212" lon="7.20258">
        <ele>1229</ele>
        <time>2019-05-11T09:29:01.000Z</time>
      </trkpt>
      <trkpt lat="44.0212" lon="7.20259">
        <ele>1229</ele>
        <time>2019-05-11T09:29:03.000Z</time>
      </trkpt>
      <trkpt lat="44.02118" lon="7.20267">
        <ele>1229.8000488281</ele>
        <time>2019-05-11T09:29:10.000Z</time>
      </trkpt>
      <trkpt lat="44.02118" lon="7.20266">
        <ele>1230</ele>
        <time>2019-05-11T09:29:11.000Z</time>
      </trkpt>
      <trkpt lat="44.02116" lon="7.20273">
        <ele>1230.8000488281</ele>
        <time>2019-05-11T09:29:16.000Z</time>
      </trkpt>
      <trkpt lat="44.02116" lon="7.20273">
        <ele>1231</ele>
        <time>2019-05-11T09:29:18.000Z</time>
      </trkpt>
      <trkpt lat="44.02112" lon="7.20281">
        <ele>1232.1999511719</ele>
        <time>2019-05-11T09:29:24.000Z</time>
      </trkpt>
      <trkpt lat="44.02111" lon="7.20283">
        <ele>1232.4000244141</ele>
        <time>2019-05-11T09:29:26.000Z</time>
      </trkpt>
      <trkpt lat="44.0211" lon="7.20285">
        <ele>1233.4000244141</ele>
        <time>2019-05-11T09:29:30.000Z</time>
      </trkpt>
      <trkpt lat="44.02108" lon="7.20289">
        <ele>1234</ele>
        <time>2019-05-11T09:29:33.000Z</time>
      </trkpt>
      <trkpt lat="44.02106" lon="7.20292">
        <ele>1234.4000244141</ele>
        <time>2019-05-11T09:29:36.000Z</time>
      </trkpt>
      <trkpt lat="44.02105" lon="7.20294">
        <ele>1235</ele>
        <time>2019-05-11T09:29:40.000Z</time>
      </trkpt>
      <trkpt lat="44.02103" lon="7.20295">
        <ele>1235</ele>
        <time>2019-05-11T09:29:42.000Z</time>
      </trkpt>
      <trkpt lat="44.02101" lon="7.20298">
        <ele>1235</ele>
        <time>2019-05-11T09:29:44.000Z</time>
      </trkpt>
      <trkpt lat="44.02097" lon="7.20303">
        <ele>1235.1999511719</ele>
        <time>2019-05-11T09:29:47.000Z</time>
      </trkpt>
      <trkpt lat="44.02096" lon="7.20304">
        <ele>1235.5999755859</ele>
        <time>2019-05-11T09:29:48.000Z</time>
      </trkpt>
      <trkpt lat="44.0209" lon="7.2031">
        <ele>1236.4000244141</ele>
        <time>2019-05-11T09:29:52.000Z</time>
      </trkpt>
      <trkpt lat="44.02087" lon="7.20314">
        <ele>1236.8000488281</ele>
        <time>2019-05-11T09:29:54.000Z</time>
      </trkpt>
      <trkpt lat="44.02081" lon="7.20319">
        <ele>1237.8000488281</ele>
        <time>2019-05-11T09:29:58.000Z</time>
      </trkpt>
      <trkpt lat="44.02079" lon="7.2032">
        <ele>1238</ele>
        <time>2019-05-11T09:29:59.000Z</time>
      </trkpt>
      <trkpt lat="44.0207" lon="7.20327">
        <ele>1238.8000488281</ele>
        <time>2019-05-11T09:30:05.000Z</time>
      </trkpt>
      <trkpt lat="44.0206" lon="7.20336">
        <ele>1240</ele>
        <time>2019-05-11T09:30:11.000Z</time>
      </trkpt>
      <trkpt lat="44.02058" lon="7.20339">
        <ele>1240.4000244141</ele>
        <time>2019-05-11T09:30:13.000Z</time>
      </trkpt>
      <trkpt lat="44.02054" lon="7.20342">
        <ele>1241.1999511719</ele>
        <time>2019-05-11T09:30:16.000Z</time>
      </trkpt>
      <trkpt lat="44.02051" lon="7.20344">
        <ele>1241.8000488281</ele>
        <time>2019-05-11T09:30:18.000Z</time>
      </trkpt>
      <trkpt lat="44.0204" lon="7.20351">
        <ele>1242</ele>
        <time>2019-05-11T09:30:25.000Z</time>
      </trkpt>
      <trkpt lat="44.02036" lon="7.20355">
        <ele>1242.4000244141</ele>
        <time>2019-05-11T09:30:28.000Z</time>
      </trkpt>
      <trkpt lat="44.02028" lon="7.20361">
        <ele>1242.8000488281</ele>
        <time>2019-05-11T09:30:33.000Z</time>
      </trkpt>
      <trkpt lat="44.02017" lon="7.20372">
        <ele>1243.1999511719</ele>
        <time>2019-05-11T09:30:39.000Z</time>
      </trkpt>
      <trkpt lat="44.02014" lon="7.20373">
        <ele>1243.5999755859</ele>
        <time>2019-05-11T09:30:40.000Z</time>
      </trkpt>
      <trkpt lat="44.02004" lon="7.2038">
        <ele>1243.8000488281</ele>
        <time>2019-05-11T09:30:44.000Z</time>
      </trkpt>
      <trkpt lat="44.01993" lon="7.20386">
        <ele>1244.5999755859</ele>
        <time>2019-05-11T09:30:50.000Z</time>
      </trkpt>
      <trkpt lat="44.01991" lon="7.20388">
        <ele>1244.8000488281</ele>
        <time>2019-05-11T09:30:51.000Z</time>
      </trkpt>
      <trkpt lat="44.01983" lon="7.20394">
        <ele>1244.8000488281</ele>
        <time>2019-05-11T09:30:56.000Z</time>
      </trkpt>
      <trkpt lat="44.01975" lon="7.20404">
        <ele>1245.8000488281</ele>
        <time>2019-05-11T09:31:02.000Z</time>
      </trkpt>
      <trkpt lat="44.01968" lon="7.20411">
        <ele>1247</ele>
        <time>2019-05-11T09:31:08.000Z</time>
      </trkpt>
      <trkpt lat="44.01965" lon="7.20416">
        <ele>1247.5999755859</ele>
        <time>2019-05-11T09:31:11.000Z</time>
      </trkpt>
      <trkpt lat="44.0196" lon="7.20419">
        <ele>1248</ele>
        <time>2019-05-11T09:31:14.000Z</time>
      </trkpt>
      <trkpt lat="44.01948" lon="7.20419">
        <ele>1248.8000488281</ele>
        <time>2019-05-11T09:31:18.000Z</time>
      </trkpt>
      <trkpt lat="44.01945" lon="7.20419">
        <ele>1249</ele>
        <time>2019-05-11T09:31:19.000Z</time>
      </trkpt>
      <trkpt lat="44.01937" lon="7.20421">
        <ele>1249.5999755859</ele>
        <time>2019-05-11T09:31:23.000Z</time>
      </trkpt>
      <trkpt lat="44.01936" lon="7.20423">
        <ele>1249.8000488281</ele>
        <time>2019-05-11T09:31:24.000Z</time>
      </trkpt>
      <trkpt lat="44.01933" lon="7.20424">
        <ele>1249.8000488281</ele>
        <time>2019-05-11T09:31:25.000Z</time>
      </trkpt>
      <trkpt lat="44.01932" lon="7.20426">
        <ele>1250</ele>
        <time>2019-05-11T09:31:26.000Z</time>
      </trkpt>
      <trkpt lat="44.01931" lon="7.20428">
        <ele>1250.5999755859</ele>
        <time>2019-05-11T09:31:28.000Z</time>
      </trkpt>
      <trkpt lat="44.01931" lon="7.2043">
        <ele>1251.4000244141</ele>
        <time>2019-05-11T09:31:30.000Z</time>
      </trkpt>
      <trkpt lat="44.01933" lon="7.2043">
        <ele>1252.4000244141</ele>
        <time>2019-05-11T09:31:33.000Z</time>
      </trkpt>
      <trkpt lat="44.01934" lon="7.2043">
        <ele>1252.5999755859</ele>
        <time>2019-05-11T09:31:34.000Z</time>
      </trkpt>
      <trkpt lat="44.01941" lon="7.20427">
        <ele>1253.8000488281</ele>
        <time>2019-05-11T09:31:40.000Z</time>
      </trkpt>
      <trkpt lat="44.01946" lon="7.20426">
        <ele>1254.8000488281</ele>
        <time>2019-05-11T09:31:45.000Z</time>
      </trkpt>
      <trkpt lat="44.0195" lon="7.20423">
        <ele>1254.8000488281</ele>
        <time>2019-05-11T09:31:48.000Z</time>
      </trkpt>
      <trkpt lat="44.01954" lon="7.20423">
        <ele>1255.1999511719</ele>
        <time>2019-05-11T09:31:50.000Z</time>
      </trkpt>
      <trkpt lat="44.01956" lon="7.20425">
        <ele>1255.4000244141</ele>
        <time>2019-05-11T09:31:51.000Z</time>
      </trkpt>
      <trkpt lat="44.01957" lon="7.20427">
        <ele>1256</ele>
        <time>2019-05-11T09:31:53.000Z</time>
      </trkpt>
      <trkpt lat="44.01959" lon="7.20427">
        <ele>1257</ele>
        <time>2019-05-11T09:31:55.000Z</time>
      </trkpt>
      <trkpt lat="44.01959" lon="7.20426">
        <ele>1257.4000244141</ele>
        <time>2019-05-11T09:31:56.000Z</time>
      </trkpt>
      <trkpt lat="44.01963" lon="7.20424">
        <ele>1258.5999755859</ele>
        <time>2019-05-11T09:31:59.000Z</time>
      </trkpt>
      <trkpt lat="44.01965" lon="7.20425">
        <ele>1259</ele>
        <time>2019-05-11T09:32:01.000Z</time>
      </trkpt>
      <trkpt lat="44.01966" lon="7.20425">
        <ele>1259.4000244141</ele>
        <time>2019-05-11T09:32:02.000Z</time>
      </trkpt>
      <trkpt lat="44.01968" lon="7.20425">
        <ele>1259.8000488281</ele>
        <time>2019-05-11T09:32:04.000Z</time>
      </trkpt>
      <trkpt lat="44.01968" lon="7.20424">
        <ele>1260.1999511719</ele>
        <time>2019-05-11T09:32:07.000Z</time>
      </trkpt>
      <trkpt lat="44.01967" lon="7.20423">
        <ele>1260</ele>
        <time>2019-05-11T09:32:11.000Z</time>
      </trkpt>
      <trkpt lat="44.01967" lon="7.20423">
        <ele>1260</ele>
        <time>2019-05-11T09:32:21.000Z</time>
      </trkpt>
      <trkpt lat="44.01968" lon="7.20423">
        <ele>1259.4000244141</ele>
        <time>2019-05-11T09:32:26.000Z</time>
      </trkpt>
      <trkpt lat="44.01968" lon="7.20423">
        <ele>1259.4000244141</ele>
        <time>2019-05-11T09:32:49.000Z</time>
      </trkpt>
      <trkpt lat="44.01967" lon="7.20423">
        <ele>1259.5999755859</ele>
        <time>2019-05-11T09:32:55.000Z</time>
      </trkpt>
      <trkpt lat="44.01967" lon="7.20424">
        <ele>1259.8000488281</ele>
        <time>2019-05-11T09:33:03.000Z</time>
      </trkpt>
      <trkpt lat="44.01967" lon="7.20424">
        <ele>1259.8000488281</ele>
        <time>2019-05-11T09:33:10.000Z</time>
      </trkpt>
      <trkpt lat="44.01966" lon="7.20425">
        <ele>1259.8000488281</ele>
        <time>2019-05-11T09:33:20.000Z</time>
      </trkpt>
      <trkpt lat="44.01966" lon="7.20426">
        <ele>1259.8000488281</ele>
        <time>2019-05-11T09:33:36.000Z</time>
      </trkpt>
      <trkpt lat="44.01966" lon="7.20426">
        <ele>1259.8000488281</ele>
        <time>2019-05-11T09:33:57.000Z</time>
      </trkpt>
      <trkpt lat="44.01966" lon="7.20426">
        <ele>1259.5999755859</ele>
        <time>2019-05-11T09:34:13.000Z</time>
      </trkpt>
      <trkpt lat="44.01966" lon="7.20426">
        <ele>1259.5999755859</ele>
        <time>2019-05-11T09:34:26.000Z</time>
      </trkpt>
      <trkpt lat="44.01966" lon="7.20426">
        <ele>1259.1999511719</ele>
        <time>2019-05-11T09:34:41.000Z</time>
      </trkpt>
      <trkpt lat="44.01966" lon="7.20427">
        <ele>1259</ele>
        <time>2019-05-11T09:35:01.000Z</time>
      </trkpt>
      <trkpt lat="44.01966" lon="7.20426">
        <ele>1259.1999511719</ele>
        <time>2019-05-11T09:35:13.000Z</time>
      </trkpt>
      <trkpt lat="44.01965" lon="7.20426">
        <ele>1259</ele>
        <time>2019-05-11T09:35:28.000Z</time>
      </trkpt>
      <trkpt lat="44.01965" lon="7.20426">
        <ele>1259</ele>
        <time>2019-05-11T09:35:41.000Z</time>
      </trkpt>
      <trkpt lat="44.01965" lon="7.20427">
        <ele>1258.8000488281</ele>
        <time>2019-05-11T09:35:48.000Z</time>
      </trkpt>
      <trkpt lat="44.01965" lon="7.20427">
        <ele>1258.8000488281</ele>
        <time>2019-05-11T09:35:55.000Z</time>
      </trkpt>
      <trkpt lat="44.01965" lon="7.20427">
        <ele>1258.8000488281</ele>
        <time>2019-05-11T09:36:07.000Z</time>
      </trkpt>
      <trkpt lat="44.01965" lon="7.20427">
        <ele>1258.5999755859</ele>
        <time>2019-05-11T09:36:17.000Z</time>
      </trkpt>
      <trkpt lat="44.01965" lon="7.20427">
        <ele>1258.5999755859</ele>
        <time>2019-05-11T09:36:28.000Z</time>
      </trkpt>
      <trkpt lat="44.01965" lon="7.20428">
        <ele>1258</ele>
        <time>2019-05-11T09:36:53.000Z</time>
      </trkpt>
      <trkpt lat="44.01965" lon="7.20428">
        <ele>1258</ele>
        <time>2019-05-11T09:37:08.000Z</time>
      </trkpt>
      <trkpt lat="44.01966" lon="7.20428">
        <ele>1258</ele>
        <time>2019-05-11T09:37:14.000Z</time>
      </trkpt>
      <trkpt lat="44.01965" lon="7.20429">
        <ele>1258</ele>
        <time>2019-05-11T09:37:23.000Z</time>
      </trkpt>
      <trkpt lat="44.01965" lon="7.2043">
        <ele>1258</ele>
        <time>2019-05-11T09:37:33.000Z</time>
      </trkpt>
      <trkpt lat="44.01964" lon="7.20431">
        <ele>1258</ele>
        <time>2019-05-11T09:37:46.000Z</time>
      </trkpt>
      <trkpt lat="44.01964" lon="7.20431">
        <ele>1257.8000488281</ele>
        <time>2019-05-11T09:37:55.000Z</time>
      </trkpt>
      <trkpt lat="44.01964" lon="7.2043">
        <ele>1258</ele>
        <time>2019-05-11T09:37:59.000Z</time>
      </trkpt>
      <trkpt lat="44.01964" lon="7.2043">
        <ele>1257.8000488281</ele>
        <time>2019-05-11T09:38:10.000Z</time>
      </trkpt>
      <trkpt lat="44.01964" lon="7.2043">
        <ele>1257.5999755859</ele>
        <time>2019-05-11T09:38:20.000Z</time>
      </trkpt>
      <trkpt lat="44.01964" lon="7.2043">
        <ele>1257.4000244141</ele>
        <time>2019-05-11T09:38:37.000Z</time>
      </trkpt>
      <trkpt lat="44.01964" lon="7.20429">
        <ele>1257.4000244141</ele>
        <time>2019-05-11T09:38:57.000Z</time>
      </trkpt>
      <trkpt lat="44.01964" lon="7.20429">
        <ele>1257.4000244141</ele>
        <time>2019-05-11T09:39:07.000Z</time>
      </trkpt>
      <trkpt lat="44.01964" lon="7.20429">
        <ele>1257.4000244141</ele>
        <time>2019-05-11T09:39:23.000Z</time>
      </trkpt>
      <trkpt lat="44.01964" lon="7.20429">
        <ele>1257.1999511719</ele>
        <time>2019-05-11T09:39:40.000Z</time>
      </trkpt>
      <trkpt lat="44.01964" lon="7.20429">
        <ele>1257.1999511719</ele>
        <time>2019-05-11T09:39:53.000Z</time>
      </trkpt>
      <trkpt lat="44.01964" lon="7.20429">
        <ele>1257.4000244141</ele>
        <time>2019-05-11T09:40:03.000Z</time>
      </trkpt>
      <trkpt lat="44.01963" lon="7.20429">
        <ele>1257.4000244141</ele>
        <time>2019-05-11T09:40:10.000Z</time>
      </trkpt>
      <trkpt lat="44.01964" lon="7.20428">
        <ele>1257.8000488281</ele>
        <time>2019-05-11T09:40:16.000Z</time>
      </trkpt>
      <trkpt lat="44.01964" lon="7.20427">
        <ele>1257.4000244141</ele>
        <time>2019-05-11T09:40:25.000Z</time>
      </trkpt>
      <trkpt lat="44.01965" lon="7.20427">
        <ele>1257.5999755859</ele>
        <time>2019-05-11T09:40:34.000Z</time>
      </trkpt>
      <trkpt lat="44.01965" lon="7.20426">
        <ele>1257.5999755859</ele>
        <time>2019-05-11T09:40:41.000Z</time>
      </trkpt>
      <trkpt lat="44.01964" lon="7.20426">
        <ele>1257.5999755859</ele>
        <time>2019-05-11T09:40:51.000Z</time>
      </trkpt>
      <trkpt lat="44.01964" lon="7.20426">
        <ele>1257.4000244141</ele>
        <time>2019-05-11T09:41:03.000Z</time>
      </trkpt>
      <trkpt lat="44.01965" lon="7.20426">
        <ele>1257.8000488281</ele>
        <time>2019-05-11T09:41:13.000Z</time>
      </trkpt>
      <trkpt lat="44.01965" lon="7.20426">
        <ele>1257.5999755859</ele>
        <time>2019-05-11T09:41:24.000Z</time>
      </trkpt>
      <trkpt lat="44.01965" lon="7.20426">
        <ele>1257.8000488281</ele>
        <time>2019-05-11T09:41:32.000Z</time>
      </trkpt>
      <trkpt lat="44.01965" lon="7.20425">
        <ele>1257.8000488281</ele>
        <time>2019-05-11T09:41:42.000Z</time>
      </trkpt>
      <trkpt lat="44.01965" lon="7.20425">
        <ele>1256.5999755859</ele>
        <time>2019-05-11T09:41:48.000Z</time>
      </trkpt>
      <trkpt lat="44.01964" lon="7.20425">
        <ele>1254.5999755859</ele>
        <time>2019-05-11T09:41:50.000Z</time>
      </trkpt>
      <trkpt lat="44.01964" lon="7.20424">
        <ele>1253.5999755859</ele>
        <time>2019-05-11T09:41:51.000Z</time>
      </trkpt>
      <trkpt lat="44.01964" lon="7.20424">
        <ele>1252.4000244141</ele>
        <time>2019-05-11T09:41:53.000Z</time>
      </trkpt>
      <trkpt lat="44.01964" lon="7.20424">
        <ele>1253.4000244141</ele>
        <time>2019-05-11T09:41:57.000Z</time>
      </trkpt>
      <trkpt lat="44.01964" lon="7.20424">
        <ele>1252.1999511719</ele>
        <time>2019-05-11T09:42:00.000Z</time>
      </trkpt>
      <trkpt lat="44.01964" lon="7.20424">
        <ele>1250.4000244141</ele>
        <time>2019-05-11T09:42:01.000Z</time>
      </trkpt>
      <trkpt lat="44.01964" lon="7.20424">
        <ele>1248.8000488281</ele>
        <time>2019-05-11T09:42:02.000Z</time>
      </trkpt>
      <trkpt lat="44.01964" lon="7.20424">
        <ele>1248.4000244141</ele>
        <time>2019-05-11T09:42:03.000Z</time>
      </trkpt>
      <trkpt lat="44.01965" lon="7.20425">
        <ele>1247.5999755859</ele>
        <time>2019-05-11T09:42:05.000Z</time>
      </trkpt>
      <trkpt lat="44.01965" lon="7.20425">
        <ele>1250.5999755859</ele>
        <time>2019-05-11T09:42:08.000Z</time>
      </trkpt>
      <trkpt lat="44.01966" lon="7.20425">
        <ele>1255.4000244141</ele>
        <time>2019-05-11T09:42:09.000Z</time>
      </trkpt>
      <trkpt lat="44.01966" lon="7.20426">
        <ele>1251.1999511719</ele>
        <time>2019-05-11T09:42:10.000Z</time>
      </trkpt>
      <trkpt lat="44.01966" lon="7.20427">
        <ele>1251</ele>
        <time>2019-05-11T09:42:17.000Z</time>
      </trkpt>
      <trkpt lat="44.01966" lon="7.20428">
        <ele>1250.4000244141</ele>
        <time>2019-05-11T09:42:26.000Z</time>
      </trkpt>
      <trkpt lat="44.01966" lon="7.20429">
        <ele>1250.4000244141</ele>
        <time>2019-05-11T09:42:33.000Z</time>
      </trkpt>
      <trkpt lat="44.01966" lon="7.20429">
        <ele>1250.1999511719</ele>
        <time>2019-05-11T09:42:40.000Z</time>
      </trkpt>
      <trkpt lat="44.01966" lon="7.20429">
        <ele>1249.5999755859</ele>
        <time>2019-05-11T09:42:48.000Z</time>
      </trkpt>
      <trkpt lat="44.01966" lon="7.20429">
        <ele>1251.1999511719</ele>
        <time>2019-05-11T09:42:59.000Z</time>
      </trkpt>
      <trkpt lat="44.01966" lon="7.2043">
        <ele>1251.4000244141</ele>
        <time>2019-05-11T09:43:00.000Z</time>
      </trkpt>
      <trkpt lat="44.01966" lon="7.20431">
        <ele>1252.8000488281</ele>
        <time>2019-05-11T09:43:07.000Z</time>
      </trkpt>
      <trkpt lat="44.01966" lon="7.20432">
        <ele>1255.8000488281</ele>
        <time>2019-05-11T09:43:09.000Z</time>
      </trkpt>
      <trkpt lat="44.01965" lon="7.20433">
        <ele>1257.4000244141</ele>
        <time>2019-05-11T09:43:10.000Z</time>
      </trkpt>
      <trkpt lat="44.01966" lon="7.20433">
        <ele>1261.8000488281</ele>
        <time>2019-05-11T09:43:11.000Z</time>
      </trkpt>
      <trkpt lat="44.01966" lon="7.20433">
        <ele>1260.5999755859</ele>
        <time>2019-05-11T09:43:13.000Z</time>
      </trkpt>
      <trkpt lat="44.01966" lon="7.20433">
        <ele>1257.4000244141</ele>
        <time>2019-05-11T09:43:14.000Z</time>
      </trkpt>
      <trkpt lat="44.01966" lon="7.20433">
        <ele>1254.8000488281</ele>
        <time>2019-05-11T09:43:15.000Z</time>
      </trkpt>
      <trkpt lat="44.01966" lon="7.20433">
        <ele>1249.5999755859</ele>
        <time>2019-05-11T09:43:16.000Z</time>
      </trkpt>
      <trkpt lat="44.01966" lon="7.20433">
        <ele>1248</ele>
        <time>2019-05-11T09:43:18.000Z</time>
      </trkpt>
      <trkpt lat="44.01966" lon="7.20433">
        <ele>1247.8000488281</ele>
        <time>2019-05-11T09:43:19.000Z</time>
      </trkpt>
      <trkpt lat="44.01966" lon="7.20432">
        <ele>1246.8000488281</ele>
        <time>2019-05-11T09:43:25.000Z</time>
      </trkpt>
      <trkpt lat="44.01966" lon="7.20432">
        <ele>1245.1999511719</ele>
        <time>2019-05-11T09:43:26.000Z</time>
      </trkpt>
      <trkpt lat="44.01966" lon="7.20432">
        <ele>1243.4000244141</ele>
        <time>2019-05-11T09:43:27.000Z</time>
      </trkpt>
      <trkpt lat="44.01966" lon="7.20432">
        <ele>1241.4000244141</ele>
        <time>2019-05-11T09:43:28.000Z</time>
      </trkpt>
      <trkpt lat="44.01966" lon="7.20432">
        <ele>1240.1999511719</ele>
        <time>2019-05-11T09:43:29.000Z</time>
      </trkpt>
      <trkpt lat="44.01967" lon="7.20433">
        <ele>1242.1999511719</ele>
        <time>2019-05-11T09:43:32.000Z</time>
      </trkpt>
      <trkpt lat="44.01967" lon="7.20433">
        <ele>1245.5999755859</ele>
        <time>2019-05-11T09:43:33.000Z</time>
      </trkpt>
      <trkpt lat="44.01967" lon="7.20433">
        <ele>1248.8000488281</ele>
        <time>2019-05-11T09:43:34.000Z</time>
      </trkpt>
      <trkpt lat="44.01967" lon="7.20433">
        <ele>1252</ele>
        <time>2019-05-11T09:43:35.000Z</time>
      </trkpt>
      <trkpt lat="44.01967" lon="7.20433">
        <ele>1255</ele>
        <time>2019-05-11T09:43:36.000Z</time>
      </trkpt>
      <trkpt lat="44.01967" lon="7.20433">
        <ele>1257.1999511719</ele>
        <time>2019-05-11T09:43:37.000Z</time>
      </trkpt>
      <trkpt lat="44.01967" lon="7.20434">
        <ele>1257.5999755859</ele>
        <time>2019-05-11T09:43:40.000Z</time>
      </trkpt>
      <trkpt lat="44.01966" lon="7.20437">
        <ele>1258</ele>
        <time>2019-05-11T09:43:50.000Z</time>
      </trkpt>
      <trkpt lat="44.01966" lon="7.20436">
        <ele>1257.8000488281</ele>
        <time>2019-05-11T09:43:58.000Z</time>
      </trkpt>
      <trkpt lat="44.01966" lon="7.20437">
        <ele>1258.1999511719</ele>
        <time>2019-05-11T09:44:09.000Z</time>
      </trkpt>
      <trkpt lat="44.01966" lon="7.20437">
        <ele>1258.1999511719</ele>
        <time>2019-05-11T09:44:11.000Z</time>
      </trkpt>
      <trkpt lat="44.01966" lon="7.20438">
        <ele>1257.8000488281</ele>
        <time>2019-05-11T09:44:18.000Z</time>
      </trkpt>
      <trkpt lat="44.01966" lon="7.20436">
        <ele>1257.1999511719</ele>
        <time>2019-05-11T09:44:25.000Z</time>
      </trkpt>
      <trkpt lat="44.01966" lon="7.20436">
        <ele>1255.5999755859</ele>
        <time>2019-05-11T09:44:26.000Z</time>
      </trkpt>
      <trkpt lat="44.01966" lon="7.20435">
        <ele>1260</ele>
        <time>2019-05-11T09:44:29.000Z</time>
      </trkpt>
      <trkpt lat="44.01966" lon="7.20435">
        <ele>1262.4000244141</ele>
        <time>2019-05-11T09:44:31.000Z</time>
      </trkpt>
      <trkpt lat="44.01966" lon="7.20435">
        <ele>1257.5999755859</ele>
        <time>2019-05-11T09:44:34.000Z</time>
      </trkpt>
      <trkpt lat="44.01966" lon="7.20435">
        <ele>1257.8000488281</ele>
        <time>2019-05-11T09:44:35.000Z</time>
      </trkpt>
      <trkpt lat="44.01967" lon="7.20434">
        <ele>1258.1999511719</ele>
        <time>2019-05-11T09:44:50.000Z</time>
      </trkpt>
      <trkpt lat="44.01966" lon="7.20433">
        <ele>1257.4000244141</ele>
        <time>2019-05-11T09:44:57.000Z</time>
      </trkpt>
      <trkpt lat="44.01967" lon="7.20435">
        <ele>1257.8000488281</ele>
        <time>2019-05-11T09:45:02.000Z</time>
      </trkpt>
      <trkpt lat="44.01966" lon="7.20435">
        <ele>1257.8000488281</ele>
        <time>2019-05-11T09:45:03.000Z</time>
      </trkpt>
      <trkpt lat="44.01966" lon="7.20435">
        <ele>1257.8000488281</ele>
        <time>2019-05-11T09:45:09.000Z</time>
      </trkpt>
      <trkpt lat="44.01967" lon="7.20434">
        <ele>1257.4000244141</ele>
        <time>2019-05-11T09:45:19.000Z</time>
      </trkpt>
      <trkpt lat="44.01966" lon="7.20433">
        <ele>1257.8000488281</ele>
        <time>2019-05-11T09:45:30.000Z</time>
      </trkpt>
      <trkpt lat="44.01965" lon="7.20433">
        <ele>1257.1999511719</ele>
        <time>2019-05-11T09:45:45.000Z</time>
      </trkpt>
      <trkpt lat="44.01965" lon="7.20433">
        <ele>1257.1999511719</ele>
        <time>2019-05-11T09:45:55.000Z</time>
      </trkpt>
      <trkpt lat="44.01965" lon="7.20432">
        <ele>1257.4000244141</ele>
        <time>2019-05-11T09:46:10.000Z</time>
      </trkpt>
      <trkpt lat="44.01966" lon="7.20433">
        <ele>1257.1999511719</ele>
        <time>2019-05-11T09:46:16.000Z</time>
      </trkpt>
      <trkpt lat="44.01966" lon="7.20432">
        <ele>1257.5999755859</ele>
        <time>2019-05-11T09:46:22.000Z</time>
      </trkpt>
      <trkpt lat="44.01968" lon="7.20432">
        <ele>1257.8000488281</ele>
        <time>2019-05-11T09:46:41.000Z</time>
      </trkpt>
      <trkpt lat="44.01968" lon="7.20433">
        <ele>1257.5999755859</ele>
        <time>2019-05-11T09:46:53.000Z</time>
      </trkpt>
      <trkpt lat="44.01968" lon="7.20432">
        <ele>1257</ele>
        <time>2019-05-11T09:47:05.000Z</time>
      </trkpt>
      <trkpt lat="44.01967" lon="7.20432">
        <ele>1256.5999755859</ele>
        <time>2019-05-11T09:47:07.000Z</time>
      </trkpt>
      <trkpt lat="44.01964" lon="7.20429">
        <ele>1256.8000488281</ele>
        <time>2019-05-11T09:47:10.000Z</time>
      </trkpt>
      <trkpt lat="44.01963" lon="7.20428">
        <ele>1256.1999511719</ele>
        <time>2019-05-11T09:47:15.000Z</time>
      </trkpt>
      <trkpt lat="44.01966" lon="7.20431">
        <ele>1256.8000488281</ele>
        <time>2019-05-11T09:47:22.000Z</time>
      </trkpt>
      <trkpt lat="44.01968" lon="7.20431">
        <ele>1257</ele>
        <time>2019-05-11T09:47:29.000Z</time>
      </trkpt>
      <trkpt lat="44.01968" lon="7.20431">
        <ele>1257</ele>
        <time>2019-05-11T09:47:38.000Z</time>
      </trkpt>
      <trkpt lat="44.01967" lon="7.2043">
        <ele>1256.8000488281</ele>
        <time>2019-05-11T09:47:47.000Z</time>
      </trkpt>
      <trkpt lat="44.0197" lon="7.20431">
        <ele>1256.5999755859</ele>
        <time>2019-05-11T09:47:54.000Z</time>
      </trkpt>
      <trkpt lat="44.01974" lon="7.20428">
        <ele>1257</ele>
        <time>2019-05-11T09:48:00.000Z</time>
      </trkpt>
      <trkpt lat="44.01982" lon="7.20428">
        <ele>1256.8000488281</ele>
        <time>2019-05-11T09:48:06.000Z</time>
      </trkpt>
      <trkpt lat="44.01994" lon="7.20438">
        <ele>1255</ele>
        <time>2019-05-11T09:48:10.000Z</time>
      </trkpt>
      <trkpt lat="44.02" lon="7.20444">
        <ele>1253</ele>
        <time>2019-05-11T09:48:12.000Z</time>
      </trkpt>
      <trkpt lat="44.02003" lon="7.20445">
        <ele>1251.8000488281</ele>
        <time>2019-05-11T09:48:13.000Z</time>
      </trkpt>
      <trkpt lat="44.0201" lon="7.20446">
        <ele>1249.8000488281</ele>
        <time>2019-05-11T09:48:15.000Z</time>
      </trkpt>
      <trkpt lat="44.02016" lon="7.20445">
        <ele>1248.1999511719</ele>
        <time>2019-05-11T09:48:17.000Z</time>
      </trkpt>
      <trkpt lat="44.02022" lon="7.20447">
        <ele>1247.8000488281</ele>
        <time>2019-05-11T09:48:20.000Z</time>
      </trkpt>
      <trkpt lat="44.02024" lon="7.20449">
        <ele>1247.8000488281</ele>
        <time>2019-05-11T09:48:21.000Z</time>
      </trkpt>
      <trkpt lat="44.02028" lon="7.20458">
        <ele>1248.1999511719</ele>
        <time>2019-05-11T09:48:25.000Z</time>
      </trkpt>
      <trkpt lat="44.02033" lon="7.20475">
        <ele>1249.1999511719</ele>
        <time>2019-05-11T09:48:33.000Z</time>
      </trkpt>
      <trkpt lat="44.02034" lon="7.20478">
        <ele>1249.4000244141</ele>
        <time>2019-05-11T09:48:34.000Z</time>
      </trkpt>
      <trkpt lat="44.02037" lon="7.20488">
        <ele>1250.1999511719</ele>
        <time>2019-05-11T09:48:39.000Z</time>
      </trkpt>
      <trkpt lat="44.0204" lon="7.20492">
        <ele>1250.5999755859</ele>
        <time>2019-05-11T09:48:41.000Z</time>
      </trkpt>
      <trkpt lat="44.02043" lon="7.20497">
        <ele>1251.1999511719</ele>
        <time>2019-05-11T09:48:44.000Z</time>
      </trkpt>
      <trkpt lat="44.02046" lon="7.205">
        <ele>1251.5999755859</ele>
        <time>2019-05-11T09:48:46.000Z</time>
      </trkpt>
      <trkpt lat="44.02052" lon="7.20509">
        <ele>1252.5999755859</ele>
        <time>2019-05-11T09:48:51.000Z</time>
      </trkpt>
      <trkpt lat="44.02054" lon="7.2051">
        <ele>1252.8000488281</ele>
        <time>2019-05-11T09:48:52.000Z</time>
      </trkpt>
      <trkpt lat="44.02061" lon="7.20517">
        <ele>1253.8000488281</ele>
        <time>2019-05-11T09:48:57.000Z</time>
      </trkpt>
      <trkpt lat="44.02068" lon="7.20526">
        <ele>1254.8000488281</ele>
        <time>2019-05-11T09:49:03.000Z</time>
      </trkpt>
      <trkpt lat="44.02075" lon="7.20535">
        <ele>1255.8000488281</ele>
        <time>2019-05-11T09:49:08.000Z</time>
      </trkpt>
      <trkpt lat="44.02077" lon="7.20539">
        <ele>1256.1999511719</ele>
        <time>2019-05-11T09:49:10.000Z</time>
      </trkpt>
      <trkpt lat="44.02082" lon="7.20547">
        <ele>1257</ele>
        <time>2019-05-11T09:49:15.000Z</time>
      </trkpt>
      <trkpt lat="44.02084" lon="7.20551">
        <ele>1257.4000244141</ele>
        <time>2019-05-11T09:49:17.000Z</time>
      </trkpt>
      <trkpt lat="44.02089" lon="7.20564">
        <ele>1258.1999511719</ele>
        <time>2019-05-11T09:49:24.000Z</time>
      </trkpt>
      <trkpt lat="44.02094" lon="7.20576">
        <ele>1259</ele>
        <time>2019-05-11T09:49:30.000Z</time>
      </trkpt>
      <trkpt lat="44.02094" lon="7.20578">
        <ele>1259.1999511719</ele>
        <time>2019-05-11T09:49:31.000Z</time>
      </trkpt>
      <trkpt lat="44.02097" lon="7.20591">
        <ele>1260.1999511719</ele>
        <time>2019-05-11T09:49:37.000Z</time>
      </trkpt>
      <trkpt lat="44.02097" lon="7.20605">
        <ele>1261.4000244141</ele>
        <time>2019-05-11T09:49:43.000Z</time>
      </trkpt>
      <trkpt lat="44.02098" lon="7.20609">
        <ele>1261.5999755859</ele>
        <time>2019-05-11T09:49:45.000Z</time>
      </trkpt>
      <trkpt lat="44.02097" lon="7.20618">
        <ele>1262.5999755859</ele>
        <time>2019-05-11T09:49:49.000Z</time>
      </trkpt>
      <trkpt lat="44.02097" lon="7.20623">
        <ele>1262.8000488281</ele>
        <time>2019-05-11T09:49:51.000Z</time>
      </trkpt>
      <trkpt lat="44.02097" lon="7.20634">
        <ele>1263.5999755859</ele>
        <time>2019-05-11T09:49:56.000Z</time>
      </trkpt>
      <trkpt lat="44.02097" lon="7.20647">
        <ele>1264.5999755859</ele>
        <time>2019-05-11T09:50:01.000Z</time>
      </trkpt>
      <trkpt lat="44.02097" lon="7.20649">
        <ele>1264.8000488281</ele>
        <time>2019-05-11T09:50:02.000Z</time>
      </trkpt>
      <trkpt lat="44.02097" lon="7.20665">
        <ele>1266</ele>
        <time>2019-05-11T09:50:09.000Z</time>
      </trkpt>
      <trkpt lat="44.02098" lon="7.20679">
        <ele>1267.4000244141</ele>
        <time>2019-05-11T09:50:15.000Z</time>
      </trkpt>
      <trkpt lat="44.02098" lon="7.20687">
        <ele>1268</ele>
        <time>2019-05-11T09:50:19.000Z</time>
      </trkpt>
      <trkpt lat="44.02099" lon="7.20694">
        <ele>1268.4000244141</ele>
        <time>2019-05-11T09:50:22.000Z</time>
      </trkpt>
      <trkpt lat="44.021" lon="7.20707">
        <ele>1269.4000244141</ele>
        <time>2019-05-11T09:50:27.000Z</time>
      </trkpt>
      <trkpt lat="44.021" lon="7.20708">
        <ele>1269.5999755859</ele>
        <time>2019-05-11T09:50:28.000Z</time>
      </trkpt>
      <trkpt lat="44.02103" lon="7.20717">
        <ele>1270.5999755859</ele>
        <time>2019-05-11T09:50:32.000Z</time>
      </trkpt>
      <trkpt lat="44.02105" lon="7.20721">
        <ele>1271</ele>
        <time>2019-05-11T09:50:34.000Z</time>
      </trkpt>
      <trkpt lat="44.02107" lon="7.20727">
        <ele>1271.5999755859</ele>
        <time>2019-05-11T09:50:37.000Z</time>
      </trkpt>
      <trkpt lat="44.0211" lon="7.20736">
        <ele>1272.5999755859</ele>
        <time>2019-05-11T09:50:42.000Z</time>
      </trkpt>
      <trkpt lat="44.0211" lon="7.20738">
        <ele>1272.8000488281</ele>
        <time>2019-05-11T09:50:43.000Z</time>
      </trkpt>
      <trkpt lat="44.02113" lon="7.20748">
        <ele>1273.8000488281</ele>
        <time>2019-05-11T09:50:48.000Z</time>
      </trkpt>
      <trkpt lat="44.02115" lon="7.20754">
        <ele>1274.5999755859</ele>
        <time>2019-05-11T09:50:51.000Z</time>
      </trkpt>
      <trkpt lat="44.02117" lon="7.20758">
        <ele>1275</ele>
        <time>2019-05-11T09:50:53.000Z</time>
      </trkpt>
      <trkpt lat="44.02122" lon="7.20768">
        <ele>1275.8000488281</ele>
        <time>2019-05-11T09:50:58.000Z</time>
      </trkpt>
      <trkpt lat="44.02123" lon="7.20769">
        <ele>1276</ele>
        <time>2019-05-11T09:50:59.000Z</time>
      </trkpt>
      <trkpt lat="44.02129" lon="7.20775">
        <ele>1276.5999755859</ele>
        <time>2019-05-11T09:51:04.000Z</time>
      </trkpt>
      <trkpt lat="44.02134" lon="7.20779">
        <ele>1277.1999511719</ele>
        <time>2019-05-11T09:51:07.000Z</time>
      </trkpt>
      <trkpt lat="44.02138" lon="7.20784">
        <ele>1277.8000488281</ele>
        <time>2019-05-11T09:51:11.000Z</time>
      </trkpt>
      <trkpt lat="44.0214" lon="7.20788">
        <ele>1278.1999511719</ele>
        <time>2019-05-11T09:51:13.000Z</time>
      </trkpt>
      <trkpt lat="44.02145" lon="7.20795">
        <ele>1278.5999755859</ele>
        <time>2019-05-11T09:51:17.000Z</time>
      </trkpt>
      <trkpt lat="44.02148" lon="7.208">
        <ele>1278.5999755859</ele>
        <time>2019-05-11T09:51:20.000Z</time>
      </trkpt>
      <trkpt lat="44.02151" lon="7.20807">
        <ele>1279.1999511719</ele>
        <time>2019-05-11T09:51:23.000Z</time>
      </trkpt>
      <trkpt lat="44.02152" lon="7.2081">
        <ele>1279.4000244141</ele>
        <time>2019-05-11T09:51:24.000Z</time>
      </trkpt>
      <trkpt lat="44.02153" lon="7.20827">
        <ele>1280.4000244141</ele>
        <time>2019-05-11T09:51:30.000Z</time>
      </trkpt>
      <trkpt lat="44.02153" lon="7.20829">
        <ele>1280.4000244141</ele>
        <time>2019-05-11T09:51:31.000Z</time>
      </trkpt>
      <trkpt lat="44.0215" lon="7.20842">
        <ele>1281.4000244141</ele>
        <time>2019-05-11T09:51:36.000Z</time>
      </trkpt>
      <trkpt lat="44.02149" lon="7.20844">
        <ele>1281.5999755859</ele>
        <time>2019-05-11T09:51:37.000Z</time>
      </trkpt>
      <trkpt lat="44.02146" lon="7.20857">
        <ele>1282.5999755859</ele>
        <time>2019-05-11T09:51:42.000Z</time>
      </trkpt>
      <trkpt lat="44.02146" lon="7.20866">
        <ele>1283</ele>
        <time>2019-05-11T09:51:45.000Z</time>
      </trkpt>
      <trkpt lat="44.02145" lon="7.20877">
        <ele>1283.8000488281</ele>
        <time>2019-05-11T09:51:49.000Z</time>
      </trkpt>
      <trkpt lat="44.02145" lon="7.20892">
        <ele>1284.8000488281</ele>
        <time>2019-05-11T09:51:54.000Z</time>
      </trkpt>
      <trkpt lat="44.02145" lon="7.20916">
        <ele>1285.8000488281</ele>
        <time>2019-05-11T09:52:02.000Z</time>
      </trkpt>
      <trkpt lat="44.02145" lon="7.20919">
        <ele>1286</ele>
        <time>2019-05-11T09:52:03.000Z</time>
      </trkpt>
      <trkpt lat="44.02146" lon="7.20938">
        <ele>1286.8000488281</ele>
        <time>2019-05-11T09:52:09.000Z</time>
      </trkpt>
      <trkpt lat="44.02148" lon="7.20944">
        <ele>1287</ele>
        <time>2019-05-11T09:52:11.000Z</time>
      </trkpt>
      <trkpt lat="44.02155" lon="7.20954">
        <ele>1287.5999755859</ele>
        <time>2019-05-11T09:52:15.000Z</time>
      </trkpt>
      <trkpt lat="44.02164" lon="7.2097">
        <ele>1288.1999511719</ele>
        <time>2019-05-11T09:52:21.000Z</time>
      </trkpt>
      <trkpt lat="44.02165" lon="7.20973">
        <ele>1288.1999511719</ele>
        <time>2019-05-11T09:52:22.000Z</time>
      </trkpt>
      <trkpt lat="44.0217" lon="7.2099">
        <ele>1288.8000488281</ele>
        <time>2019-05-11T09:52:27.000Z</time>
      </trkpt>
      <trkpt lat="44.02174" lon="7.21018">
        <ele>1288.8000488281</ele>
        <time>2019-05-11T09:52:34.000Z</time>
      </trkpt>
      <trkpt lat="44.0218" lon="7.21036">
        <ele>1289.1999511719</ele>
        <time>2019-05-11T09:52:39.000Z</time>
      </trkpt>
      <trkpt lat="44.02183" lon="7.21048">
        <ele>1289.4000244141</ele>
        <time>2019-05-11T09:52:42.000Z</time>
      </trkpt>
      <trkpt lat="44.02181" lon="7.21068">
        <ele>1289.5999755859</ele>
        <time>2019-05-11T09:52:47.000Z</time>
      </trkpt>
      <trkpt lat="44.02169" lon="7.21092">
        <ele>1290</ele>
        <time>2019-05-11T09:52:53.000Z</time>
      </trkpt>
      <trkpt lat="44.02164" lon="7.21098">
        <ele>1290.1999511719</ele>
        <time>2019-05-11T09:52:55.000Z</time>
      </trkpt>
      <trkpt lat="44.02152" lon="7.2111">
        <ele>1291.1999511719</ele>
        <time>2019-05-11T09:53:00.000Z</time>
      </trkpt>
      <trkpt lat="44.0215" lon="7.21112">
        <ele>1291.4000244141</ele>
        <time>2019-05-11T09:53:01.000Z</time>
      </trkpt>
      <trkpt lat="44.0214" lon="7.21117">
        <ele>1292</ele>
        <time>2019-05-11T09:53:05.000Z</time>
      </trkpt>
      <trkpt lat="44.02137" lon="7.21119">
        <ele>1292.4000244141</ele>
        <time>2019-05-11T09:53:06.000Z</time>
      </trkpt>
      <trkpt lat="44.02129" lon="7.2113">
        <ele>1293.1999511719</ele>
        <time>2019-05-11T09:53:11.000Z</time>
      </trkpt>
      <trkpt lat="44.02128" lon="7.21133">
        <ele>1293.4000244141</ele>
        <time>2019-05-11T09:53:12.000Z</time>
      </trkpt>
      <trkpt lat="44.02124" lon="7.21147">
        <ele>1294.5999755859</ele>
        <time>2019-05-11T09:53:17.000Z</time>
      </trkpt>
      <trkpt lat="44.02122" lon="7.21152">
        <ele>1295</ele>
        <time>2019-05-11T09:53:19.000Z</time>
      </trkpt>
      <trkpt lat="44.0212" lon="7.21158">
        <ele>1295.5999755859</ele>
        <time>2019-05-11T09:53:21.000Z</time>
      </trkpt>
      <trkpt lat="44.02113" lon="7.21174">
        <ele>1296.5999755859</ele>
        <time>2019-05-11T09:53:27.000Z</time>
      </trkpt>
      <trkpt lat="44.02112" lon="7.21176">
        <ele>1296.8000488281</ele>
        <time>2019-05-11T09:53:28.000Z</time>
      </trkpt>
      <trkpt lat="44.02105" lon="7.21187">
        <ele>1297.8000488281</ele>
        <time>2019-05-11T09:53:33.000Z</time>
      </trkpt>
      <trkpt lat="44.02103" lon="7.21188">
        <ele>1298</ele>
        <time>2019-05-11T09:53:34.000Z</time>
      </trkpt>
      <trkpt lat="44.02098" lon="7.21195">
        <ele>1299</ele>
        <time>2019-05-11T09:53:37.000Z</time>
      </trkpt>
      <trkpt lat="44.02094" lon="7.212">
        <ele>1299.5999755859</ele>
        <time>2019-05-11T09:53:40.000Z</time>
      </trkpt>
      <trkpt lat="44.02091" lon="7.212">
        <ele>1299.8000488281</ele>
        <time>2019-05-11T09:53:41.000Z</time>
      </trkpt>
      <trkpt lat="44.02089" lon="7.212">
        <ele>1300</ele>
        <time>2019-05-11T09:53:42.000Z</time>
      </trkpt>
      <trkpt lat="44.02087" lon="7.21204">
        <ele>1300.4000244141</ele>
        <time>2019-05-11T09:53:44.000Z</time>
      </trkpt>
      <trkpt lat="44.02082" lon="7.21208">
        <ele>1301</ele>
        <time>2019-05-11T09:53:47.000Z</time>
      </trkpt>
      <trkpt lat="44.02078" lon="7.21209">
        <ele>1301.4000244141</ele>
        <time>2019-05-11T09:53:49.000Z</time>
      </trkpt>
      <trkpt lat="44.02072" lon="7.21217">
        <ele>1302</ele>
        <time>2019-05-11T09:53:53.000Z</time>
      </trkpt>
      <trkpt lat="44.0207" lon="7.21218">
        <ele>1302.1999511719</ele>
        <time>2019-05-11T09:53:54.000Z</time>
      </trkpt>
      <trkpt lat="44.02058" lon="7.21225">
        <ele>1303.1999511719</ele>
        <time>2019-05-11T09:54:00.000Z</time>
      </trkpt>
      <trkpt lat="44.02053" lon="7.21225">
        <ele>1303.1999511719</ele>
        <time>2019-05-11T09:54:02.000Z</time>
      </trkpt>
      <trkpt lat="44.02046" lon="7.21224">
        <ele>1303.5999755859</ele>
        <time>2019-05-11T09:54:04.000Z</time>
      </trkpt>
      <trkpt lat="44.02029" lon="7.21226">
        <ele>1304</ele>
        <time>2019-05-11T09:54:09.000Z</time>
      </trkpt>
      <trkpt lat="44.0202" lon="7.21231">
        <ele>1304.1999511719</ele>
        <time>2019-05-11T09:54:12.000Z</time>
      </trkpt>
      <trkpt lat="44.02011" lon="7.21237">
        <ele>1304.4000244141</ele>
        <time>2019-05-11T09:54:15.000Z</time>
      </trkpt>
      <trkpt lat="44.01991" lon="7.21248">
        <ele>1304.5999755859</ele>
        <time>2019-05-11T09:54:21.000Z</time>
      </trkpt>
      <trkpt lat="44.0199" lon="7.21253">
        <ele>1304.8000488281</ele>
        <time>2019-05-11T09:54:22.000Z</time>
      </trkpt>
      <trkpt lat="44.01987" lon="7.21262">
        <ele>1304.5999755859</ele>
        <time>2019-05-11T09:54:24.000Z</time>
      </trkpt>
      <trkpt lat="44.01976" lon="7.21276">
        <ele>1304.4000244141</ele>
        <time>2019-05-11T09:54:28.000Z</time>
      </trkpt>
      <trkpt lat="44.01973" lon="7.21275">
        <ele>1304.4000244141</ele>
        <time>2019-05-11T09:54:29.000Z</time>
      </trkpt>
      <trkpt lat="44.01968" lon="7.2127">
        <ele>1304.1999511719</ele>
        <time>2019-05-11T09:54:31.000Z</time>
      </trkpt>
      <trkpt lat="44.01964" lon="7.21255">
        <ele>1304.4000244141</ele>
        <time>2019-05-11T09:54:35.000Z</time>
      </trkpt>
      <trkpt lat="44.01962" lon="7.21235">
        <ele>1305.1999511719</ele>
        <time>2019-05-11T09:54:41.000Z</time>
      </trkpt>
      <trkpt lat="44.01962" lon="7.21232">
        <ele>1305.4000244141</ele>
        <time>2019-05-11T09:54:42.000Z</time>
      </trkpt>
      <trkpt lat="44.01962" lon="7.21223">
        <ele>1306.1999511719</ele>
        <time>2019-05-11T09:54:45.000Z</time>
      </trkpt>
      <trkpt lat="44.01963" lon="7.21215">
        <ele>1306.8000488281</ele>
        <time>2019-05-11T09:54:48.000Z</time>
      </trkpt>
      <trkpt lat="44.01967" lon="7.21209">
        <ele>1307.4000244141</ele>
        <time>2019-05-11T09:54:51.000Z</time>
      </trkpt>
      <trkpt lat="44.01969" lon="7.21206">
        <ele>1307.8000488281</ele>
        <time>2019-05-11T09:54:53.000Z</time>
      </trkpt>
      <trkpt lat="44.0197" lon="7.21204">
        <ele>1308</ele>
        <time>2019-05-11T09:54:54.000Z</time>
      </trkpt>
      <trkpt lat="44.01974" lon="7.21204">
        <ele>1308.4000244141</ele>
        <time>2019-05-11T09:54:56.000Z</time>
      </trkpt>
      <trkpt lat="44.01976" lon="7.21201">
        <ele>1309</ele>
        <time>2019-05-11T09:54:58.000Z</time>
      </trkpt>
      <trkpt lat="44.01979" lon="7.21199">
        <ele>1309.4000244141</ele>
        <time>2019-05-11T09:55:00.000Z</time>
      </trkpt>
      <trkpt lat="44.01984" lon="7.21194">
        <ele>1310.4000244141</ele>
        <time>2019-05-11T09:55:04.000Z</time>
      </trkpt>
      <trkpt lat="44.0199" lon="7.21183">
        <ele>1311.5999755859</ele>
        <time>2019-05-11T09:55:10.000Z</time>
      </trkpt>
      <trkpt lat="44.01992" lon="7.21176">
        <ele>1312.1999511719</ele>
        <time>2019-05-11T09:55:13.000Z</time>
      </trkpt>
      <trkpt lat="44.01995" lon="7.21169">
        <ele>1312.5999755859</ele>
        <time>2019-05-11T09:55:16.000Z</time>
      </trkpt>
      <trkpt lat="44.01996" lon="7.21159">
        <ele>1313.8000488281</ele>
        <time>2019-05-11T09:55:21.000Z</time>
      </trkpt>
      <trkpt lat="44.01999" lon="7.21146">
        <ele>1315</ele>
        <time>2019-05-11T09:55:27.000Z</time>
      </trkpt>
      <trkpt lat="44.01999" lon="7.2114">
        <ele>1315.5999755859</ele>
        <time>2019-05-11T09:55:30.000Z</time>
      </trkpt>
      <trkpt lat="44.02" lon="7.21133">
        <ele>1316.1999511719</ele>
        <time>2019-05-11T09:55:33.000Z</time>
      </trkpt>
      <trkpt lat="44.02" lon="7.21122">
        <ele>1317</ele>
        <time>2019-05-11T09:55:38.000Z</time>
      </trkpt>
      <trkpt lat="44.02001" lon="7.21118">
        <ele>1317.1999511719</ele>
        <time>2019-05-11T09:55:40.000Z</time>
      </trkpt>
      <trkpt lat="44.01999" lon="7.21108">
        <ele>1318.1999511719</ele>
        <time>2019-05-11T09:55:45.000Z</time>
      </trkpt>
      <trkpt lat="44.01999" lon="7.21107">
        <ele>1318.4000244141</ele>
        <time>2019-05-11T09:55:46.000Z</time>
      </trkpt>
      <trkpt lat="44.02" lon="7.21094">
        <ele>1319.4000244141</ele>
        <time>2019-05-11T09:55:52.000Z</time>
      </trkpt>
      <trkpt lat="44.02" lon="7.21092">
        <ele>1319.5999755859</ele>
        <time>2019-05-11T09:55:53.000Z</time>
      </trkpt>
      <trkpt lat="44.02" lon="7.21083">
        <ele>1320.5999755859</ele>
        <time>2019-05-11T09:55:57.000Z</time>
      </trkpt>
      <trkpt lat="44.02" lon="7.21078">
        <ele>1320.8000488281</ele>
        <time>2019-05-11T09:55:59.000Z</time>
      </trkpt>
      <trkpt lat="44.01999" lon="7.21069">
        <ele>1321.5999755859</ele>
        <time>2019-05-11T09:56:03.000Z</time>
      </trkpt>
      <trkpt lat="44.01998" lon="7.21062">
        <ele>1322</ele>
        <time>2019-05-11T09:56:06.000Z</time>
      </trkpt>
      <trkpt lat="44.01997" lon="7.21054">
        <ele>1322.8000488281</ele>
        <time>2019-05-11T09:56:10.000Z</time>
      </trkpt>
      <trkpt lat="44.01995" lon="7.21047">
        <ele>1323.1999511719</ele>
        <time>2019-05-11T09:56:13.000Z</time>
      </trkpt>
      <trkpt lat="44.01991" lon="7.21035">
        <ele>1323.8000488281</ele>
        <time>2019-05-11T09:56:18.000Z</time>
      </trkpt>
      <trkpt lat="44.0199" lon="7.21033">
        <ele>1324</ele>
        <time>2019-05-11T09:56:19.000Z</time>
      </trkpt>
      <trkpt lat="44.01985" lon="7.21017">
        <ele>1325</ele>
        <time>2019-05-11T09:56:25.000Z</time>
      </trkpt>
      <trkpt lat="44.01976" lon="7.21008">
        <ele>1326.1999511719</ele>
        <time>2019-05-11T09:56:29.000Z</time>
      </trkpt>
      <trkpt lat="44.01971" lon="7.21006">
        <ele>1326.5999755859</ele>
        <time>2019-05-11T09:56:31.000Z</time>
      </trkpt>
      <trkpt lat="44.01963" lon="7.21011">
        <ele>1327.1999511719</ele>
        <time>2019-05-11T09:56:35.000Z</time>
      </trkpt>
      <trkpt lat="44.01958" lon="7.21025">
        <ele>1328.4000244141</ele>
        <time>2019-05-11T09:56:40.000Z</time>
      </trkpt>
      <trkpt lat="44.01957" lon="7.21028">
        <ele>1328.4000244141</ele>
        <time>2019-05-11T09:56:41.000Z</time>
      </trkpt>
      <trkpt lat="44.01947" lon="7.21052">
        <ele>1329.5999755859</ele>
        <time>2019-05-11T09:56:49.000Z</time>
      </trkpt>
      <trkpt lat="44.01941" lon="7.21066">
        <ele>1330.5999755859</ele>
        <time>2019-05-11T09:56:54.000Z</time>
      </trkpt>
      <trkpt lat="44.01938" lon="7.21071">
        <ele>1330.8000488281</ele>
        <time>2019-05-11T09:56:56.000Z</time>
      </trkpt>
      <trkpt lat="44.01927" lon="7.21088">
        <ele>1331.8000488281</ele>
        <time>2019-05-11T09:57:03.000Z</time>
      </trkpt>
      <trkpt lat="44.01925" lon="7.21091">
        <ele>1331.8000488281</ele>
        <time>2019-05-11T09:57:04.000Z</time>
      </trkpt>
      <trkpt lat="44.01914" lon="7.21109">
        <ele>1332.5999755859</ele>
        <time>2019-05-11T09:57:11.000Z</time>
      </trkpt>
      <trkpt lat="44.01907" lon="7.21133">
        <ele>1332.5999755859</ele>
        <time>2019-05-11T09:57:18.000Z</time>
      </trkpt>
      <trkpt lat="44.01895" lon="7.21149">
        <ele>1332.8000488281</ele>
        <time>2019-05-11T09:57:24.000Z</time>
      </trkpt>
      <trkpt lat="44.01881" lon="7.21154">
        <ele>1333.4000244141</ele>
        <time>2019-05-11T09:57:30.000Z</time>
      </trkpt>
      <trkpt lat="44.01875" lon="7.2116">
        <ele>1334</ele>
        <time>2019-05-11T09:57:33.000Z</time>
      </trkpt>
      <trkpt lat="44.01872" lon="7.21166">
        <ele>1334.4000244141</ele>
        <time>2019-05-11T09:57:35.000Z</time>
      </trkpt>
      <trkpt lat="44.01875" lon="7.21181">
        <ele>1335</ele>
        <time>2019-05-11T09:57:40.000Z</time>
      </trkpt>
      <trkpt lat="44.01876" lon="7.21208">
        <ele>1335.4000244141</ele>
        <time>2019-05-11T09:57:47.000Z</time>
      </trkpt>
      <trkpt lat="44.01869" lon="7.21229">
        <ele>1335.8000488281</ele>
        <time>2019-05-11T09:57:53.000Z</time>
      </trkpt>
      <trkpt lat="44.01868" lon="7.21233">
        <ele>1336</ele>
        <time>2019-05-11T09:57:54.000Z</time>
      </trkpt>
      <trkpt lat="44.01858" lon="7.21254">
        <ele>1336.4000244141</ele>
        <time>2019-05-11T09:58:01.000Z</time>
      </trkpt>
      <trkpt lat="44.01845" lon="7.2127">
        <ele>1336.8000488281</ele>
        <time>2019-05-11T09:58:08.000Z</time>
      </trkpt>
      <trkpt lat="44.01842" lon="7.21272">
        <ele>1337</ele>
        <time>2019-05-11T09:58:09.000Z</time>
      </trkpt>
      <trkpt lat="44.01835" lon="7.2128">
        <ele>1337.5999755859</ele>
        <time>2019-05-11T09:58:13.000Z</time>
      </trkpt>
      <trkpt lat="44.01825" lon="7.2129">
        <ele>1338.1999511719</ele>
        <time>2019-05-11T09:58:18.000Z</time>
      </trkpt>
      <trkpt lat="44.01821" lon="7.21295">
        <ele>1338.4000244141</ele>
        <time>2019-05-11T09:58:20.000Z</time>
      </trkpt>
      <trkpt lat="44.01812" lon="7.21305">
        <ele>1339.4000244141</ele>
        <time>2019-05-11T09:58:25.000Z</time>
      </trkpt>
      <trkpt lat="44.01806" lon="7.2131">
        <ele>1339.8000488281</ele>
        <time>2019-05-11T09:58:28.000Z</time>
      </trkpt>
      <trkpt lat="44.01792" lon="7.21321">
        <ele>1340.5999755859</ele>
        <time>2019-05-11T09:58:34.000Z</time>
      </trkpt>
      <trkpt lat="44.0179" lon="7.21323">
        <ele>1340.8000488281</ele>
        <time>2019-05-11T09:58:35.000Z</time>
      </trkpt>
      <trkpt lat="44.01774" lon="7.21334">
        <ele>1341.5999755859</ele>
        <time>2019-05-11T09:58:42.000Z</time>
      </trkpt>
      <trkpt lat="44.01772" lon="7.21336">
        <ele>1341.5999755859</ele>
        <time>2019-05-11T09:58:43.000Z</time>
      </trkpt>
      <trkpt lat="44.01753" lon="7.21352">
        <ele>1342.5999755859</ele>
        <time>2019-05-11T09:58:52.000Z</time>
      </trkpt>
      <trkpt lat="44.01751" lon="7.21355">
        <ele>1342.5999755859</ele>
        <time>2019-05-11T09:58:53.000Z</time>
      </trkpt>
      <trkpt lat="44.01739" lon="7.21368">
        <ele>1343.1999511719</ele>
        <time>2019-05-11T09:58:59.000Z</time>
      </trkpt>
      <trkpt lat="44.01727" lon="7.2138">
        <ele>1343.5999755859</ele>
        <time>2019-05-11T09:59:05.000Z</time>
      </trkpt>
      <trkpt lat="44.01724" lon="7.21383">
        <ele>1343.5999755859</ele>
        <time>2019-05-11T09:59:06.000Z</time>
      </trkpt>
      <trkpt lat="44.01709" lon="7.21395">
        <ele>1344.1999511719</ele>
        <time>2019-05-11T09:59:12.000Z</time>
      </trkpt>
      <trkpt lat="44.01694" lon="7.21405">
        <ele>1344.8000488281</ele>
        <time>2019-05-11T09:59:18.000Z</time>
      </trkpt>
      <trkpt lat="44.01692" lon="7.21405">
        <ele>1345</ele>
        <time>2019-05-11T09:59:19.000Z</time>
      </trkpt>
      <trkpt lat="44.01679" lon="7.21409">
        <ele>1346</ele>
        <time>2019-05-11T09:59:26.000Z</time>
      </trkpt>
      <trkpt lat="44.01668" lon="7.21408">
        <ele>1347</ele>
        <time>2019-05-11T09:59:31.000Z</time>
      </trkpt>
      <trkpt lat="44.01666" lon="7.21407">
        <ele>1347.4000244141</ele>
        <time>2019-05-11T09:59:32.000Z</time>
      </trkpt>
      <trkpt lat="44.01652" lon="7.21408">
        <ele>1348.4000244141</ele>
        <time>2019-05-11T09:59:38.000Z</time>
      </trkpt>
      <trkpt lat="44.01649" lon="7.21408">
        <ele>1348.5999755859</ele>
        <time>2019-05-11T09:59:39.000Z</time>
      </trkpt>
      <trkpt lat="44.0164" lon="7.21409">
        <ele>1349.1999511719</ele>
        <time>2019-05-11T09:59:43.000Z</time>
      </trkpt>
      <trkpt lat="44.01634" lon="7.21408">
        <ele>1349.5999755859</ele>
        <time>2019-05-11T09:59:45.000Z</time>
      </trkpt>
      <trkpt lat="44.01621" lon="7.21408">
        <ele>1350.5999755859</ele>
        <time>2019-05-11T09:59:50.000Z</time>
      </trkpt>
      <trkpt lat="44.01618" lon="7.21409">
        <ele>1350.8000488281</ele>
        <time>2019-05-11T09:59:51.000Z</time>
      </trkpt>
      <trkpt lat="44.01601" lon="7.21421">
        <ele>1351</ele>
        <time>2019-05-11T09:59:58.000Z</time>
      </trkpt>
      <trkpt lat="44.016" lon="7.21442">
        <ele>1351.4000244141</ele>
        <time>2019-05-11T10:00:03.000Z</time>
      </trkpt>
      <trkpt lat="44.01602" lon="7.21452">
        <ele>1351.8000488281</ele>
        <time>2019-05-11T10:00:06.000Z</time>
      </trkpt>
      <trkpt lat="44.01605" lon="7.21468">
        <ele>1352.8000488281</ele>
        <time>2019-05-11T10:00:11.000Z</time>
      </trkpt>
      <trkpt lat="44.01598" lon="7.21484">
        <ele>1353.1999511719</ele>
        <time>2019-05-11T10:00:16.000Z</time>
      </trkpt>
      <trkpt lat="44.01593" lon="7.21484">
        <ele>1353.1999511719</ele>
        <time>2019-05-11T10:00:18.000Z</time>
      </trkpt>
      <trkpt lat="44.01588" lon="7.21484">
        <ele>1353.5999755859</ele>
        <time>2019-05-11T10:00:20.000Z</time>
      </trkpt>
      <trkpt lat="44.01586" lon="7.21483">
        <ele>1353.8000488281</ele>
        <time>2019-05-11T10:00:21.000Z</time>
      </trkpt>
      <trkpt lat="44.01574" lon="7.21484">
        <ele>1355</ele>
        <time>2019-05-11T10:00:26.000Z</time>
      </trkpt>
      <trkpt lat="44.01572" lon="7.21486">
        <ele>1355</ele>
        <time>2019-05-11T10:00:27.000Z</time>
      </trkpt>
      <trkpt lat="44.01564" lon="7.21496">
        <ele>1355.8000488281</ele>
        <time>2019-05-11T10:00:32.000Z</time>
      </trkpt>
      <trkpt lat="44.01562" lon="7.21499">
        <ele>1356.1999511719</ele>
        <time>2019-05-11T10:00:33.000Z</time>
      </trkpt>
      <trkpt lat="44.01555" lon="7.2151">
        <ele>1356.8000488281</ele>
        <time>2019-05-11T10:00:38.000Z</time>
      </trkpt>
      <trkpt lat="44.01549" lon="7.21515">
        <ele>1357.4000244141</ele>
        <time>2019-05-11T10:00:41.000Z</time>
      </trkpt>
      <trkpt lat="44.01544" lon="7.2152">
        <ele>1357.8000488281</ele>
        <time>2019-05-11T10:00:44.000Z</time>
      </trkpt>
      <trkpt lat="44.01539" lon="7.21526">
        <ele>1358.1999511719</ele>
        <time>2019-05-11T10:00:47.000Z</time>
      </trkpt>
      <trkpt lat="44.01537" lon="7.21531">
        <ele>1358.4000244141</ele>
        <time>2019-05-11T10:00:49.000Z</time>
      </trkpt>
      <trkpt lat="44.01533" lon="7.21545">
        <ele>1359.5999755859</ele>
        <time>2019-05-11T10:00:54.000Z</time>
      </trkpt>
      <trkpt lat="44.01531" lon="7.21553">
        <ele>1360.1999511719</ele>
        <time>2019-05-11T10:00:57.000Z</time>
      </trkpt>
      <trkpt lat="44.0153" lon="7.21559">
        <ele>1360.5999755859</ele>
        <time>2019-05-11T10:00:59.000Z</time>
      </trkpt>
      <trkpt lat="44.01527" lon="7.21575">
        <ele>1361.4000244141</ele>
        <time>2019-05-11T10:01:05.000Z</time>
      </trkpt>
      <trkpt lat="44.01527" lon="7.21578">
        <ele>1361.5999755859</ele>
        <time>2019-05-11T10:01:06.000Z</time>
      </trkpt>
      <trkpt lat="44.01525" lon="7.21588">
        <ele>1362.5999755859</ele>
        <time>2019-05-11T10:01:10.000Z</time>
      </trkpt>
      <trkpt lat="44.01524" lon="7.21594">
        <ele>1362.8000488281</ele>
        <time>2019-05-11T10:01:12.000Z</time>
      </trkpt>
      <trkpt lat="44.0152" lon="7.2161">
        <ele>1363.8000488281</ele>
        <time>2019-05-11T10:01:18.000Z</time>
      </trkpt>
      <trkpt lat="44.01519" lon="7.21613">
        <ele>1364</ele>
        <time>2019-05-11T10:01:19.000Z</time>
      </trkpt>
      <trkpt lat="44.01515" lon="7.2162">
        <ele>1364.1999511719</ele>
        <time>2019-05-11T10:01:22.000Z</time>
      </trkpt>
      <trkpt lat="44.01512" lon="7.21624">
        <ele>1364.5999755859</ele>
        <time>2019-05-11T10:01:24.000Z</time>
      </trkpt>
      <trkpt lat="44.01511" lon="7.21626">
        <ele>1364.8000488281</ele>
        <time>2019-05-11T10:01:25.000Z</time>
      </trkpt>
      <trkpt lat="44.01505" lon="7.21638">
        <ele>1366</ele>
        <time>2019-05-11T10:01:30.000Z</time>
      </trkpt>
      <trkpt lat="44.01501" lon="7.21654">
        <ele>1367.1999511719</ele>
        <time>2019-05-11T10:01:36.000Z</time>
      </trkpt>
      <trkpt lat="44.01497" lon="7.21667">
        <ele>1368.1999511719</ele>
        <time>2019-05-11T10:01:41.000Z</time>
      </trkpt>
      <trkpt lat="44.01491" lon="7.21675">
        <ele>1369</ele>
        <time>2019-05-11T10:01:45.000Z</time>
      </trkpt>
      <trkpt lat="44.01488" lon="7.21678">
        <ele>1369.4000244141</ele>
        <time>2019-05-11T10:01:47.000Z</time>
      </trkpt>
      <trkpt lat="44.01485" lon="7.21678">
        <ele>1369.5999755859</ele>
        <time>2019-05-11T10:01:48.000Z</time>
      </trkpt>
      <trkpt lat="44.01481" lon="7.21676">
        <ele>1370</ele>
        <time>2019-05-11T10:01:50.000Z</time>
      </trkpt>
      <trkpt lat="44.01474" lon="7.21665">
        <ele>1370.4000244141</ele>
        <time>2019-05-11T10:01:55.000Z</time>
      </trkpt>
      <trkpt lat="44.01472" lon="7.21662">
        <ele>1370.5999755859</ele>
        <time>2019-05-11T10:01:56.000Z</time>
      </trkpt>
      <trkpt lat="44.01467" lon="7.21641">
        <ele>1371.5999755859</ele>
        <time>2019-05-11T10:02:04.000Z</time>
      </trkpt>
      <trkpt lat="44.01464" lon="7.21621">
        <ele>1372.5999755859</ele>
        <time>2019-05-11T10:02:11.000Z</time>
      </trkpt>
      <trkpt lat="44.01462" lon="7.21616">
        <ele>1373</ele>
        <time>2019-05-11T10:02:13.000Z</time>
      </trkpt>
      <trkpt lat="44.01459" lon="7.21603">
        <ele>1373.8000488281</ele>
        <time>2019-05-11T10:02:18.000Z</time>
      </trkpt>
      <trkpt lat="44.01457" lon="7.21595">
        <ele>1374.1999511719</ele>
        <time>2019-05-11T10:02:21.000Z</time>
      </trkpt>
      <trkpt lat="44.01455" lon="7.21588">
        <ele>1374.8000488281</ele>
        <time>2019-05-11T10:02:24.000Z</time>
      </trkpt>
      <trkpt lat="44.01452" lon="7.21578">
        <ele>1375.8000488281</ele>
        <time>2019-05-11T10:02:29.000Z</time>
      </trkpt>
      <trkpt lat="44.01445" lon="7.21563">
        <ele>1377</ele>
        <time>2019-05-11T10:02:36.000Z</time>
      </trkpt>
      <trkpt lat="44.01444" lon="7.21561">
        <ele>1377.1999511719</ele>
        <time>2019-05-11T10:02:37.000Z</time>
      </trkpt>
      <trkpt lat="44.01437" lon="7.21547">
        <ele>1378</ele>
        <time>2019-05-11T10:02:43.000Z</time>
      </trkpt>
      <trkpt lat="44.01429" lon="7.21529">
        <ele>1379.1999511719</ele>
        <time>2019-05-11T10:02:50.000Z</time>
      </trkpt>
      <trkpt lat="44.01429" lon="7.21523">
        <ele>1379.4000244141</ele>
        <time>2019-05-11T10:02:52.000Z</time>
      </trkpt>
      <trkpt lat="44.01428" lon="7.21517">
        <ele>1379.8000488281</ele>
        <time>2019-05-11T10:02:54.000Z</time>
      </trkpt>
      <trkpt lat="44.01428" lon="7.21508">
        <ele>1380.4000244141</ele>
        <time>2019-05-11T10:02:57.000Z</time>
      </trkpt>
      <trkpt lat="44.01429" lon="7.215">
        <ele>1380.8000488281</ele>
        <time>2019-05-11T10:03:00.000Z</time>
      </trkpt>
      <trkpt lat="44.01431" lon="7.2149">
        <ele>1381.4000244141</ele>
        <time>2019-05-11T10:03:04.000Z</time>
      </trkpt>
      <trkpt lat="44.01432" lon="7.21479">
        <ele>1382.4000244141</ele>
        <time>2019-05-11T10:03:08.000Z</time>
      </trkpt>
      <trkpt lat="44.01434" lon="7.21471">
        <ele>1382.5999755859</ele>
        <time>2019-05-11T10:03:11.000Z</time>
      </trkpt>
      <trkpt lat="44.01435" lon="7.21457">
        <ele>1383.5999755859</ele>
        <time>2019-05-11T10:03:16.000Z</time>
      </trkpt>
      <trkpt lat="44.01435" lon="7.21455">
        <ele>1383.5999755859</ele>
        <time>2019-05-11T10:03:17.000Z</time>
      </trkpt>
      <trkpt lat="44.01434" lon="7.21436">
        <ele>1384.8000488281</ele>
        <time>2019-05-11T10:03:23.000Z</time>
      </trkpt>
      <trkpt lat="44.01433" lon="7.2143">
        <ele>1385</ele>
        <time>2019-05-11T10:03:25.000Z</time>
      </trkpt>
      <trkpt lat="44.0143" lon="7.21412">
        <ele>1385.8000488281</ele>
        <time>2019-05-11T10:03:31.000Z</time>
      </trkpt>
      <trkpt lat="44.01429" lon="7.21409">
        <ele>1386</ele>
        <time>2019-05-11T10:03:32.000Z</time>
      </trkpt>
      <trkpt lat="44.01425" lon="7.21398">
        <ele>1387.4000244141</ele>
        <time>2019-05-11T10:03:36.000Z</time>
      </trkpt>
      <trkpt lat="44.01422" lon="7.21392">
        <ele>1387.4000244141</ele>
        <time>2019-05-11T10:03:38.000Z</time>
      </trkpt>
      <trkpt lat="44.01417" lon="7.21371">
        <ele>1387.8000488281</ele>
        <time>2019-05-11T10:03:44.000Z</time>
      </trkpt>
      <trkpt lat="44.01422" lon="7.21351">
        <ele>1388.1999511719</ele>
        <time>2019-05-11T10:03:50.000Z</time>
      </trkpt>
      <trkpt lat="44.01424" lon="7.21349">
        <ele>1388.5999755859</ele>
        <time>2019-05-11T10:03:51.000Z</time>
      </trkpt>
      <trkpt lat="44.01432" lon="7.21335">
        <ele>1389.8000488281</ele>
        <time>2019-05-11T10:03:57.000Z</time>
      </trkpt>
      <trkpt lat="44.01432" lon="7.21333">
        <ele>1389.8000488281</ele>
        <time>2019-05-11T10:03:58.000Z</time>
      </trkpt>
      <trkpt lat="44.01435" lon="7.21317">
        <ele>1391</ele>
        <time>2019-05-11T10:04:04.000Z</time>
      </trkpt>
      <trkpt lat="44.01435" lon="7.21315">
        <ele>1391.1999511719</ele>
        <time>2019-05-11T10:04:05.000Z</time>
      </trkpt>
      <trkpt lat="44.01429" lon="7.21299">
        <ele>1392</ele>
        <time>2019-05-11T10:04:11.000Z</time>
      </trkpt>
      <trkpt lat="44.01425" lon="7.21288">
        <ele>1393</ele>
        <time>2019-05-11T10:04:15.000Z</time>
      </trkpt>
      <trkpt lat="44.01423" lon="7.21277">
        <ele>1393.1999511719</ele>
        <time>2019-05-11T10:04:18.000Z</time>
      </trkpt>
      <trkpt lat="44.01421" lon="7.21259">
        <ele>1394.1999511719</ele>
        <time>2019-05-11T10:04:24.000Z</time>
      </trkpt>
      <trkpt lat="44.01421" lon="7.21255">
        <ele>1394.1999511719</ele>
        <time>2019-05-11T10:04:25.000Z</time>
      </trkpt>
      <trkpt lat="44.01422" lon="7.21239">
        <ele>1395.1999511719</ele>
        <time>2019-05-11T10:04:30.000Z</time>
      </trkpt>
      <trkpt lat="44.01422" lon="7.21231">
        <ele>1395.5999755859</ele>
        <time>2019-05-11T10:04:33.000Z</time>
      </trkpt>
      <trkpt lat="44.01423" lon="7.21223">
        <ele>1396.1999511719</ele>
        <time>2019-05-11T10:04:35.000Z</time>
      </trkpt>
      <trkpt lat="44.01423" lon="7.21206">
        <ele>1396.5999755859</ele>
        <time>2019-05-11T10:04:40.000Z</time>
      </trkpt>
      <trkpt lat="44.01425" lon="7.21194">
        <ele>1397.1999511719</ele>
        <time>2019-05-11T10:04:44.000Z</time>
      </trkpt>
      <trkpt lat="44.01428" lon="7.21185">
        <ele>1397.8000488281</ele>
        <time>2019-05-11T10:04:47.000Z</time>
      </trkpt>
      <trkpt lat="44.01431" lon="7.21178">
        <ele>1398.4000244141</ele>
        <time>2019-05-11T10:04:50.000Z</time>
      </trkpt>
      <trkpt lat="44.01435" lon="7.21172">
        <ele>1399</ele>
        <time>2019-05-11T10:04:53.000Z</time>
      </trkpt>
      <trkpt lat="44.01439" lon="7.21164">
        <ele>1399.5999755859</ele>
        <time>2019-05-11T10:04:56.000Z</time>
      </trkpt>
      <trkpt lat="44.01442" lon="7.21154">
        <ele>1400.4000244141</ele>
        <time>2019-05-11T10:05:00.000Z</time>
      </trkpt>
      <trkpt lat="44.01442" lon="7.21149">
        <ele>1400.8000488281</ele>
        <time>2019-05-11T10:05:02.000Z</time>
      </trkpt>
      <trkpt lat="44.0144" lon="7.21138">
        <ele>1401.5999755859</ele>
        <time>2019-05-11T10:05:07.000Z</time>
      </trkpt>
      <trkpt lat="44.01438" lon="7.21136">
        <ele>1402</ele>
        <time>2019-05-11T10:05:08.000Z</time>
      </trkpt>
      <trkpt lat="44.01437" lon="7.21134">
        <ele>1403</ele>
        <time>2019-05-11T10:05:12.000Z</time>
      </trkpt>
      <trkpt lat="44.01436" lon="7.21132">
        <ele>1403</ele>
        <time>2019-05-11T10:05:13.000Z</time>
      </trkpt>
      <trkpt lat="44.01435" lon="7.2113">
        <ele>1403.4000244141</ele>
        <time>2019-05-11T10:05:20.000Z</time>
      </trkpt>
      <trkpt lat="44.01436" lon="7.2113">
        <ele>1403.1999511719</ele>
        <time>2019-05-11T10:05:35.000Z</time>
      </trkpt>
      <trkpt lat="44.01436" lon="7.21132">
        <ele>1403.1999511719</ele>
        <time>2019-05-11T10:05:40.000Z</time>
      </trkpt>
      <trkpt lat="44.01434" lon="7.21128">
        <ele>1403.4000244141</ele>
        <time>2019-05-11T10:05:45.000Z</time>
      </trkpt>
      <trkpt lat="44.01427" lon="7.21115">
        <ele>1404.1999511719</ele>
        <time>2019-05-11T10:05:52.000Z</time>
      </trkpt>
      <trkpt lat="44.01421" lon="7.21102">
        <ele>1405.1999511719</ele>
        <time>2019-05-11T10:05:58.000Z</time>
      </trkpt>
      <trkpt lat="44.01419" lon="7.21098">
        <ele>1405.8000488281</ele>
        <time>2019-05-11T10:06:00.000Z</time>
      </trkpt>
      <trkpt lat="44.01417" lon="7.21093">
        <ele>1406.1999511719</ele>
        <time>2019-05-11T10:06:02.000Z</time>
      </trkpt>
      <trkpt lat="44.01415" lon="7.21078">
        <ele>1407.1999511719</ele>
        <time>2019-05-11T10:06:08.000Z</time>
      </trkpt>
      <trkpt lat="44.01413" lon="7.21065">
        <ele>1408.4000244141</ele>
        <time>2019-05-11T10:06:13.000Z</time>
      </trkpt>
      <trkpt lat="44.01408" lon="7.21054">
        <ele>1409.5999755859</ele>
        <time>2019-05-11T10:06:18.000Z</time>
      </trkpt>
      <trkpt lat="44.01407" lon="7.21052">
        <ele>1409.8000488281</ele>
        <time>2019-05-11T10:06:19.000Z</time>
      </trkpt>
      <trkpt lat="44.01402" lon="7.2104">
        <ele>1410.8000488281</ele>
        <time>2019-05-11T10:06:24.000Z</time>
      </trkpt>
      <trkpt lat="44.01397" lon="7.21033">
        <ele>1411.4000244141</ele>
        <time>2019-05-11T10:06:28.000Z</time>
      </trkpt>
      <trkpt lat="44.01394" lon="7.21029">
        <ele>1411.8000488281</ele>
        <time>2019-05-11T10:06:30.000Z</time>
      </trkpt>
      <trkpt lat="44.01387" lon="7.21018">
        <ele>1412.5999755859</ele>
        <time>2019-05-11T10:06:35.000Z</time>
      </trkpt>
      <trkpt lat="44.01385" lon="7.21015">
        <ele>1412.8000488281</ele>
        <time>2019-05-11T10:06:36.000Z</time>
      </trkpt>
      <trkpt lat="44.01379" lon="7.21004">
        <ele>1414</ele>
        <time>2019-05-11T10:06:40.000Z</time>
      </trkpt>
      <trkpt lat="44.01375" lon="7.20998">
        <ele>1414.8000488281</ele>
        <time>2019-05-11T10:06:43.000Z</time>
      </trkpt>
      <trkpt lat="44.01373" lon="7.20997">
        <ele>1415.1999511719</ele>
        <time>2019-05-11T10:06:44.000Z</time>
      </trkpt>
      <trkpt lat="44.01368" lon="7.20995">
        <ele>1415.8000488281</ele>
        <time>2019-05-11T10:06:47.000Z</time>
      </trkpt>
      <trkpt lat="44.01367" lon="7.20995">
        <ele>1416</ele>
        <time>2019-05-11T10:06:48.000Z</time>
      </trkpt>
      <trkpt lat="44.01365" lon="7.20994">
        <ele>1416.1999511719</ele>
        <time>2019-05-11T10:06:49.000Z</time>
      </trkpt>
      <trkpt lat="44.01357" lon="7.20992">
        <ele>1417</ele>
        <time>2019-05-11T10:06:54.000Z</time>
      </trkpt>
      <trkpt lat="44.01349" lon="7.21003">
        <ele>1416.8000488281</ele>
        <time>2019-05-11T10:06:59.000Z</time>
      </trkpt>
      <trkpt lat="44.0134" lon="7.21024">
        <ele>1416.1999511719</ele>
        <time>2019-05-11T10:07:04.000Z</time>
      </trkpt>
      <trkpt lat="44.01332" lon="7.21046">
        <ele>1415</ele>
        <time>2019-05-11T10:07:09.000Z</time>
      </trkpt>
      <trkpt lat="44.0133" lon="7.2105">
        <ele>1414.8000488281</ele>
        <time>2019-05-11T10:07:10.000Z</time>
      </trkpt>
      <trkpt lat="44.01326" lon="7.21057">
        <ele>1414</ele>
        <time>2019-05-11T10:07:12.000Z</time>
      </trkpt>
      <trkpt lat="44.01319" lon="7.21067">
        <ele>1412.5999755859</ele>
        <time>2019-05-11T10:07:15.000Z</time>
      </trkpt>
      <trkpt lat="44.01315" lon="7.2107">
        <ele>1412.1999511719</ele>
        <time>2019-05-11T10:07:16.000Z</time>
      </trkpt>
      <trkpt lat="44.01304" lon="7.21077">
        <ele>1411.5999755859</ele>
        <time>2019-05-11T10:07:19.000Z</time>
      </trkpt>
      <trkpt lat="44.01295" lon="7.21083">
        <ele>1411</ele>
        <time>2019-05-11T10:07:21.000Z</time>
      </trkpt>
      <trkpt lat="44.01291" lon="7.21087">
        <ele>1410.5999755859</ele>
        <time>2019-05-11T10:07:22.000Z</time>
      </trkpt>
      <trkpt lat="44.01282" lon="7.21097">
        <ele>1410.1999511719</ele>
        <time>2019-05-11T10:07:24.000Z</time>
      </trkpt>
      <trkpt lat="44.01271" lon="7.21106">
        <ele>1410</ele>
        <time>2019-05-11T10:07:26.000Z</time>
      </trkpt>
      <trkpt lat="44.01259" lon="7.21113">
        <ele>1409.4000244141</ele>
        <time>2019-05-11T10:07:28.000Z</time>
      </trkpt>
      <trkpt lat="44.01254" lon="7.21116">
        <ele>1408.5999755859</ele>
        <time>2019-05-11T10:07:29.000Z</time>
      </trkpt>
      <trkpt lat="44.01248" lon="7.21119">
        <ele>1407.8000488281</ele>
        <time>2019-05-11T10:07:30.000Z</time>
      </trkpt>
      <trkpt lat="44.01239" lon="7.21127">
        <ele>1406.5999755859</ele>
        <time>2019-05-11T10:07:32.000Z</time>
      </trkpt>
      <trkpt lat="44.01222" lon="7.21137">
        <ele>1405.4000244141</ele>
        <time>2019-05-11T10:07:35.000Z</time>
      </trkpt>
      <trkpt lat="44.01216" lon="7.21139">
        <ele>1405.1999511719</ele>
        <time>2019-05-11T10:07:36.000Z</time>
      </trkpt>
      <trkpt lat="44.01198" lon="7.21149">
        <ele>1404.1999511719</ele>
        <time>2019-05-11T10:07:39.000Z</time>
      </trkpt>
      <trkpt lat="44.01193" lon="7.21154">
        <ele>1403.5999755859</ele>
        <time>2019-05-11T10:07:40.000Z</time>
      </trkpt>
      <trkpt lat="44.01188" lon="7.21159">
        <ele>1403.1999511719</ele>
        <time>2019-05-11T10:07:41.000Z</time>
      </trkpt>
      <trkpt lat="44.0117" lon="7.21175">
        <ele>1401.4000244141</ele>
        <time>2019-05-11T10:07:44.000Z</time>
      </trkpt>
      <trkpt lat="44.01156" lon="7.21178">
        <ele>1400.4000244141</ele>
        <time>2019-05-11T10:07:46.000Z</time>
      </trkpt>
      <trkpt lat="44.0115" lon="7.21177">
        <ele>1399.8000488281</ele>
        <time>2019-05-11T10:07:47.000Z</time>
      </trkpt>
      <trkpt lat="44.01143" lon="7.21177">
        <ele>1399</ele>
        <time>2019-05-11T10:07:48.000Z</time>
      </trkpt>
      <trkpt lat="44.01129" lon="7.21179">
        <ele>1398.1999511719</ele>
        <time>2019-05-11T10:07:50.000Z</time>
      </trkpt>
      <trkpt lat="44.01123" lon="7.2118">
        <ele>1397.8000488281</ele>
        <time>2019-05-11T10:07:51.000Z</time>
      </trkpt>
      <trkpt lat="44.01117" lon="7.21181">
        <ele>1397.1999511719</ele>
        <time>2019-05-11T10:07:52.000Z</time>
      </trkpt>
      <trkpt lat="44.01105" lon="7.21183">
        <ele>1396.4000244141</ele>
        <time>2019-05-11T10:07:54.000Z</time>
      </trkpt>
      <trkpt lat="44.01099" lon="7.21186">
        <ele>1396.1999511719</ele>
        <time>2019-05-11T10:07:55.000Z</time>
      </trkpt>
      <trkpt lat="44.01095" lon="7.21191">
        <ele>1395.8000488281</ele>
        <time>2019-05-11T10:07:56.000Z</time>
      </trkpt>
      <trkpt lat="44.0109" lon="7.21204">
        <ele>1395.1999511719</ele>
        <time>2019-05-11T10:07:58.000Z</time>
      </trkpt>
      <trkpt lat="44.01089" lon="7.21212">
        <ele>1394.8000488281</ele>
        <time>2019-05-11T10:07:59.000Z</time>
      </trkpt>
      <trkpt lat="44.0109" lon="7.21227">
        <ele>1393.8000488281</ele>
        <time>2019-05-11T10:08:01.000Z</time>
      </trkpt>
      <trkpt lat="44.01091" lon="7.21235">
        <ele>1393.4000244141</ele>
        <time>2019-05-11T10:08:02.000Z</time>
      </trkpt>
      <trkpt lat="44.01092" lon="7.21244">
        <ele>1392.4000244141</ele>
        <time>2019-05-11T10:08:03.000Z</time>
      </trkpt>
      <trkpt lat="44.01091" lon="7.21253">
        <ele>1391.8000488281</ele>
        <time>2019-05-11T10:08:04.000Z</time>
      </trkpt>
      <trkpt lat="44.01088" lon="7.21261">
        <ele>1391.4000244141</ele>
        <time>2019-05-11T10:08:05.000Z</time>
      </trkpt>
      <trkpt lat="44.01084" lon="7.21267">
        <ele>1390.8000488281</ele>
        <time>2019-05-11T10:08:06.000Z</time>
      </trkpt>
      <trkpt lat="44.01079" lon="7.21271">
        <ele>1390.1999511719</ele>
        <time>2019-05-11T10:08:07.000Z</time>
      </trkpt>
      <trkpt lat="44.01068" lon="7.21279">
        <ele>1389</ele>
        <time>2019-05-11T10:08:09.000Z</time>
      </trkpt>
      <trkpt lat="44.01055" lon="7.21301">
        <ele>1388</ele>
        <time>2019-05-11T10:08:12.000Z</time>
      </trkpt>
      <trkpt lat="44.01043" lon="7.21312">
        <ele>1386.8000488281</ele>
        <time>2019-05-11T10:08:14.000Z</time>
      </trkpt>
      <trkpt lat="44.01036" lon="7.21315">
        <ele>1386.4000244141</ele>
        <time>2019-05-11T10:08:15.000Z</time>
      </trkpt>
      <trkpt lat="44.01022" lon="7.21318">
        <ele>1385.1999511719</ele>
        <time>2019-05-11T10:08:17.000Z</time>
      </trkpt>
      <trkpt lat="44.01014" lon="7.2132">
        <ele>1384.5999755859</ele>
        <time>2019-05-11T10:08:18.000Z</time>
      </trkpt>
      <trkpt lat="44.00999" lon="7.21323">
        <ele>1383.5999755859</ele>
        <time>2019-05-11T10:08:20.000Z</time>
      </trkpt>
      <trkpt lat="44.00986" lon="7.21328">
        <ele>1382</ele>
        <time>2019-05-11T10:08:22.000Z</time>
      </trkpt>
      <trkpt lat="44.00972" lon="7.21334">
        <ele>1380.5999755859</ele>
        <time>2019-05-11T10:08:24.000Z</time>
      </trkpt>
      <trkpt lat="44.00959" lon="7.21339">
        <ele>1380.1999511719</ele>
        <time>2019-05-11T10:08:26.000Z</time>
      </trkpt>
      <trkpt lat="44.00953" lon="7.2134">
        <ele>1379.8000488281</ele>
        <time>2019-05-11T10:08:27.000Z</time>
      </trkpt>
      <trkpt lat="44.00945" lon="7.21341">
        <ele>1379.4000244141</ele>
        <time>2019-05-11T10:08:28.000Z</time>
      </trkpt>
      <trkpt lat="44.00925" lon="7.21341">
        <ele>1377.8000488281</ele>
        <time>2019-05-11T10:08:31.000Z</time>
      </trkpt>
      <trkpt lat="44.0092" lon="7.21341">
        <ele>1377.1999511719</ele>
        <time>2019-05-11T10:08:32.000Z</time>
      </trkpt>
      <trkpt lat="44.00915" lon="7.21344">
        <ele>1376.5999755859</ele>
        <time>2019-05-11T10:08:33.000Z</time>
      </trkpt>
      <trkpt lat="44.00911" lon="7.21348">
        <ele>1376</ele>
        <time>2019-05-11T10:08:34.000Z</time>
      </trkpt>
      <trkpt lat="44.00909" lon="7.21354">
        <ele>1375.5999755859</ele>
        <time>2019-05-11T10:08:35.000Z</time>
      </trkpt>
      <trkpt lat="44.00908" lon="7.21368">
        <ele>1374.5999755859</ele>
        <time>2019-05-11T10:08:37.000Z</time>
      </trkpt>
      <trkpt lat="44.00908" lon="7.21376">
        <ele>1373.8000488281</ele>
        <time>2019-05-11T10:08:38.000Z</time>
      </trkpt>
      <trkpt lat="44.00908" lon="7.21384">
        <ele>1373.4000244141</ele>
        <time>2019-05-11T10:08:39.000Z</time>
      </trkpt>
      <trkpt lat="44.00908" lon="7.21392">
        <ele>1372.5999755859</ele>
        <time>2019-05-11T10:08:40.000Z</time>
      </trkpt>
      <trkpt lat="44.00908" lon="7.21413">
        <ele>1371.4000244141</ele>
        <time>2019-05-11T10:08:43.000Z</time>
      </trkpt>
      <trkpt lat="44.00901" lon="7.21421">
        <ele>1370.1999511719</ele>
        <time>2019-05-11T10:08:45.000Z</time>
      </trkpt>
      <trkpt lat="44.00892" lon="7.21421">
        <ele>1369.1999511719</ele>
        <time>2019-05-11T10:08:47.000Z</time>
      </trkpt>
      <trkpt lat="44.00887" lon="7.2142">
        <ele>1368.8000488281</ele>
        <time>2019-05-11T10:08:48.000Z</time>
      </trkpt>
      <trkpt lat="44.00882" lon="7.21418">
        <ele>1368.5999755859</ele>
        <time>2019-05-11T10:08:49.000Z</time>
      </trkpt>
      <trkpt lat="44.00859" lon="7.21412">
        <ele>1367.8000488281</ele>
        <time>2019-05-11T10:08:53.000Z</time>
      </trkpt>
      <trkpt lat="44.00846" lon="7.21408">
        <ele>1366.8000488281</ele>
        <time>2019-05-11T10:08:55.000Z</time>
      </trkpt>
      <trkpt lat="44.00836" lon="7.21402">
        <ele>1365.4000244141</ele>
        <time>2019-05-11T10:08:57.000Z</time>
      </trkpt>
      <trkpt lat="44.0083" lon="7.21398">
        <ele>1364.8000488281</ele>
        <time>2019-05-11T10:08:58.000Z</time>
      </trkpt>
      <trkpt lat="44.00825" lon="7.21394">
        <ele>1364.1999511719</ele>
        <time>2019-05-11T10:08:59.000Z</time>
      </trkpt>
      <trkpt lat="44.00821" lon="7.21391">
        <ele>1363.8000488281</ele>
        <time>2019-05-11T10:09:00.000Z</time>
      </trkpt>
      <trkpt lat="44.00812" lon="7.21391">
        <ele>1363</ele>
        <time>2019-05-11T10:09:02.000Z</time>
      </trkpt>
      <trkpt lat="44.00805" lon="7.21404">
        <ele>1362.1999511719</ele>
        <time>2019-05-11T10:09:05.000Z</time>
      </trkpt>
      <trkpt lat="44.00804" lon="7.2141">
        <ele>1361.5999755859</ele>
        <time>2019-05-11T10:09:06.000Z</time>
      </trkpt>
      <trkpt lat="44.00804" lon="7.21416">
        <ele>1361</ele>
        <time>2019-05-11T10:09:07.000Z</time>
      </trkpt>
      <trkpt lat="44.00804" lon="7.2143">
        <ele>1360</ele>
        <time>2019-05-11T10:09:09.000Z</time>
      </trkpt>
      <trkpt lat="44.00802" lon="7.21451">
        <ele>1359.5999755859</ele>
        <time>2019-05-11T10:09:12.000Z</time>
      </trkpt>
      <trkpt lat="44.00798" lon="7.21465">
        <ele>1359.1999511719</ele>
        <time>2019-05-11T10:09:14.000Z</time>
      </trkpt>
      <trkpt lat="44.00793" lon="7.21478">
        <ele>1359</ele>
        <time>2019-05-11T10:09:16.000Z</time>
      </trkpt>
      <trkpt lat="44.00788" lon="7.21502">
        <ele>1358.1999511719</ele>
        <time>2019-05-11T10:09:20.000Z</time>
      </trkpt>
      <trkpt lat="44.00787" lon="7.21508">
        <ele>1358</ele>
        <time>2019-05-11T10:09:21.000Z</time>
      </trkpt>
      <trkpt lat="44.00785" lon="7.21513">
        <ele>1357.8000488281</ele>
        <time>2019-05-11T10:09:22.000Z</time>
      </trkpt>
      <trkpt lat="44.0078" lon="7.21527">
        <ele>1357.8000488281</ele>
        <time>2019-05-11T10:09:25.000Z</time>
      </trkpt>
      <trkpt lat="44.00769" lon="7.21567">
        <ele>1357.4000244141</ele>
        <time>2019-05-11T10:09:33.000Z</time>
      </trkpt>
      <trkpt lat="44.00757" lon="7.21594">
        <ele>1357.5999755859</ele>
        <time>2019-05-11T10:09:39.000Z</time>
      </trkpt>
      <trkpt lat="44.00733" lon="7.21618">
        <ele>1358</ele>
        <time>2019-05-11T10:09:47.000Z</time>
      </trkpt>
      <trkpt lat="44.00707" lon="7.21628">
        <ele>1358.5999755859</ele>
        <time>2019-05-11T10:09:55.000Z</time>
      </trkpt>
      <trkpt lat="44.00695" lon="7.21618">
        <ele>1358.4000244141</ele>
        <time>2019-05-11T10:09:59.000Z</time>
      </trkpt>
      <trkpt lat="44.0069" lon="7.21601">
        <ele>1357.8000488281</ele>
        <time>2019-05-11T10:10:04.000Z</time>
      </trkpt>
      <trkpt lat="44.00684" lon="7.21589">
        <ele>1359</ele>
        <time>2019-05-11T10:10:09.000Z</time>
      </trkpt>
      <trkpt lat="44.0068" lon="7.21581">
        <ele>1360</ele>
        <time>2019-05-11T10:10:12.000Z</time>
      </trkpt>
      <trkpt lat="44.00679" lon="7.21579">
        <ele>1360.1999511719</ele>
        <time>2019-05-11T10:10:13.000Z</time>
      </trkpt>
      <trkpt lat="44.00679" lon="7.21577">
        <ele>1360.4000244141</ele>
        <time>2019-05-11T10:10:14.000Z</time>
      </trkpt>
      <trkpt lat="44.00677" lon="7.21572">
        <ele>1360.5999755859</ele>
        <time>2019-05-11T10:10:16.000Z</time>
      </trkpt>
      <trkpt lat="44.00674" lon="7.21568">
        <ele>1361</ele>
        <time>2019-05-11T10:10:18.000Z</time>
      </trkpt>
      <trkpt lat="44.00673" lon="7.21566">
        <ele>1361.1999511719</ele>
        <time>2019-05-11T10:10:19.000Z</time>
      </trkpt>
      <trkpt lat="44.00666" lon="7.21559">
        <ele>1362</ele>
        <time>2019-05-11T10:10:23.000Z</time>
      </trkpt>
      <trkpt lat="44.00664" lon="7.21557">
        <ele>1362.4000244141</ele>
        <time>2019-05-11T10:10:24.000Z</time>
      </trkpt>
      <trkpt lat="44.00656" lon="7.21547">
        <ele>1362.5999755859</ele>
        <time>2019-05-11T10:10:29.000Z</time>
      </trkpt>
      <trkpt lat="44.00648" lon="7.21534">
        <ele>1363.4000244141</ele>
        <time>2019-05-11T10:10:35.000Z</time>
      </trkpt>
      <trkpt lat="44.00645" lon="7.2153">
        <ele>1364</ele>
        <time>2019-05-11T10:10:37.000Z</time>
      </trkpt>
      <trkpt lat="44.00641" lon="7.21525">
        <ele>1364.5999755859</ele>
        <time>2019-05-11T10:10:39.000Z</time>
      </trkpt>
      <trkpt lat="44.00633" lon="7.21516">
        <ele>1365.5999755859</ele>
        <time>2019-05-11T10:10:44.000Z</time>
      </trkpt>
      <trkpt lat="44.00631" lon="7.21513">
        <ele>1366</ele>
        <time>2019-05-11T10:10:45.000Z</time>
      </trkpt>
      <trkpt lat="44.00623" lon="7.21507">
        <ele>1367</ele>
        <time>2019-05-11T10:10:49.000Z</time>
      </trkpt>
      <trkpt lat="44.00619" lon="7.21502">
        <ele>1367.5999755859</ele>
        <time>2019-05-11T10:10:52.000Z</time>
      </trkpt>
      <trkpt lat="44.00614" lon="7.21495">
        <ele>1368</ele>
        <time>2019-05-11T10:10:55.000Z</time>
      </trkpt>
      <trkpt lat="44.00612" lon="7.21491">
        <ele>1368.1999511719</ele>
        <time>2019-05-11T10:10:57.000Z</time>
      </trkpt>
      <trkpt lat="44.00606" lon="7.21474">
        <ele>1369.1999511719</ele>
        <time>2019-05-11T10:11:03.000Z</time>
      </trkpt>
      <trkpt lat="44.00603" lon="7.21465">
        <ele>1369.4000244141</ele>
        <time>2019-05-11T10:11:06.000Z</time>
      </trkpt>
      <trkpt lat="44.00593" lon="7.21443">
        <ele>1370</ele>
        <time>2019-05-11T10:11:14.000Z</time>
      </trkpt>
      <trkpt lat="44.00592" lon="7.21441">
        <ele>1370.1999511719</ele>
        <time>2019-05-11T10:11:15.000Z</time>
      </trkpt>
      <trkpt lat="44.00577" lon="7.21429">
        <ele>1370.8000488281</ele>
        <time>2019-05-11T10:11:22.000Z</time>
      </trkpt>
      <trkpt lat="44.00563" lon="7.2142">
        <ele>1371.4000244141</ele>
        <time>2019-05-11T10:11:28.000Z</time>
      </trkpt>
      <trkpt lat="44.00558" lon="7.21418">
        <ele>1371.5999755859</ele>
        <time>2019-05-11T10:11:30.000Z</time>
      </trkpt>
      <trkpt lat="44.00546" lon="7.21418">
        <ele>1372.1999511719</ele>
        <time>2019-05-11T10:11:35.000Z</time>
      </trkpt>
      <trkpt lat="44.00543" lon="7.21418">
        <ele>1372.4000244141</ele>
        <time>2019-05-11T10:11:36.000Z</time>
      </trkpt>
      <trkpt lat="44.0053" lon="7.21417">
        <ele>1373</ele>
        <time>2019-05-11T10:11:41.000Z</time>
      </trkpt>
      <trkpt lat="44.00522" lon="7.21408">
        <ele>1373.5999755859</ele>
        <time>2019-05-11T10:11:45.000Z</time>
      </trkpt>
      <trkpt lat="44.00518" lon="7.21402">
        <ele>1373.5999755859</ele>
        <time>2019-05-11T10:11:47.000Z</time>
      </trkpt>
      <trkpt lat="44.00512" lon="7.21378">
        <ele>1374.4000244141</ele>
        <time>2019-05-11T10:11:54.000Z</time>
      </trkpt>
      <trkpt lat="44.00509" lon="7.21365">
        <ele>1374.5999755859</ele>
        <time>2019-05-11T10:11:58.000Z</time>
      </trkpt>
      <trkpt lat="44.00507" lon="7.21351">
        <ele>1374.8000488281</ele>
        <time>2019-05-11T10:12:02.000Z</time>
      </trkpt>
      <trkpt lat="44.00504" lon="7.21336">
        <ele>1375.8000488281</ele>
        <time>2019-05-11T10:12:06.000Z</time>
      </trkpt>
      <trkpt lat="44.00502" lon="7.21321">
        <ele>1375.5999755859</ele>
        <time>2019-05-11T10:12:10.000Z</time>
      </trkpt>
      <trkpt lat="44.00495" lon="7.21287">
        <ele>1376</ele>
        <time>2019-05-11T10:12:18.000Z</time>
      </trkpt>
      <trkpt lat="44.00481" lon="7.2127">
        <ele>1374.4000244141</ele>
        <time>2019-05-11T10:12:23.000Z</time>
      </trkpt>
      <trkpt lat="44.00471" lon="7.21263">
        <ele>1373.1999511719</ele>
        <time>2019-05-11T10:12:26.000Z</time>
      </trkpt>
      <trkpt lat="44.00465" lon="7.21258">
        <ele>1372.8000488281</ele>
        <time>2019-05-11T10:12:28.000Z</time>
      </trkpt>
      <trkpt lat="44.00461" lon="7.21254">
        <ele>1372</ele>
        <time>2019-05-11T10:12:29.000Z</time>
      </trkpt>
      <trkpt lat="44.00458" lon="7.2125">
        <ele>1372</ele>
        <time>2019-05-11T10:12:30.000Z</time>
      </trkpt>
      <trkpt lat="44.00453" lon="7.21239">
        <ele>1372</ele>
        <time>2019-05-11T10:12:32.000Z</time>
      </trkpt>
      <trkpt lat="44.00452" lon="7.21218">
        <ele>1373.1999511719</ele>
        <time>2019-05-11T10:12:35.000Z</time>
      </trkpt>
      <trkpt lat="44.00452" lon="7.21212">
        <ele>1373.4000244141</ele>
        <time>2019-05-11T10:12:36.000Z</time>
      </trkpt>
      <trkpt lat="44.00452" lon="7.21206">
        <ele>1373.5999755859</ele>
        <time>2019-05-11T10:12:37.000Z</time>
      </trkpt>
      <trkpt lat="44.00445" lon="7.21181">
        <ele>1373</ele>
        <time>2019-05-11T10:12:41.000Z</time>
      </trkpt>
      <trkpt lat="44.00442" lon="7.21167">
        <ele>1372.4000244141</ele>
        <time>2019-05-11T10:12:43.000Z</time>
      </trkpt>
      <trkpt lat="44.00444" lon="7.21152">
        <ele>1372</ele>
        <time>2019-05-11T10:12:45.000Z</time>
      </trkpt>
      <trkpt lat="44.00455" lon="7.21128">
        <ele>1371.4000244141</ele>
        <time>2019-05-11T10:12:49.000Z</time>
      </trkpt>
      <trkpt lat="44.00466" lon="7.21111">
        <ele>1371.5999755859</ele>
        <time>2019-05-11T10:12:52.000Z</time>
      </trkpt>
      <trkpt lat="44.00476" lon="7.21094">
        <ele>1371</ele>
        <time>2019-05-11T10:12:55.000Z</time>
      </trkpt>
      <trkpt lat="44.00478" lon="7.21088">
        <ele>1371</ele>
        <time>2019-05-11T10:12:56.000Z</time>
      </trkpt>
      <trkpt lat="44.00477" lon="7.21075">
        <ele>1371</ele>
        <time>2019-05-11T10:12:58.000Z</time>
      </trkpt>
      <trkpt lat="44.00467" lon="7.2106">
        <ele>1371.8000488281</ele>
        <time>2019-05-11T10:13:01.000Z</time>
      </trkpt>
      <trkpt lat="44.00457" lon="7.21051">
        <ele>1371.8000488281</ele>
        <time>2019-05-11T10:13:03.000Z</time>
      </trkpt>
      <trkpt lat="44.00436" lon="7.21033">
        <ele>1369.5999755859</ele>
        <time>2019-05-11T10:13:07.000Z</time>
      </trkpt>
      <trkpt lat="44.00431" lon="7.21026">
        <ele>1369</ele>
        <time>2019-05-11T10:13:08.000Z</time>
      </trkpt>
      <trkpt lat="44.00427" lon="7.21019">
        <ele>1368.5999755859</ele>
        <time>2019-05-11T10:13:09.000Z</time>
      </trkpt>
      <trkpt lat="44.00425" lon="7.21009">
        <ele>1368.4000244141</ele>
        <time>2019-05-11T10:13:10.000Z</time>
      </trkpt>
      <trkpt lat="44.00428" lon="7.20982">
        <ele>1367.4000244141</ele>
        <time>2019-05-11T10:13:13.000Z</time>
      </trkpt>
      <trkpt lat="44.0043" lon="7.20972">
        <ele>1367.1999511719</ele>
        <time>2019-05-11T10:13:14.000Z</time>
      </trkpt>
      <trkpt lat="44.00436" lon="7.20945">
        <ele>1366.1999511719</ele>
        <time>2019-05-11T10:13:17.000Z</time>
      </trkpt>
      <trkpt lat="44.0044" lon="7.20927">
        <ele>1365.1999511719</ele>
        <time>2019-05-11T10:13:19.000Z</time>
      </trkpt>
      <trkpt lat="44.00442" lon="7.2092">
        <ele>1365</ele>
        <time>2019-05-11T10:13:20.000Z</time>
      </trkpt>
      <trkpt lat="44.00446" lon="7.20896">
        <ele>1364</ele>
        <time>2019-05-11T10:13:23.000Z</time>
      </trkpt>
      <trkpt lat="44.00447" lon="7.20888">
        <ele>1363.8000488281</ele>
        <time>2019-05-11T10:13:24.000Z</time>
      </trkpt>
      <trkpt lat="44.00446" lon="7.2088">
        <ele>1363.8000488281</ele>
        <time>2019-05-11T10:13:25.000Z</time>
      </trkpt>
      <trkpt lat="44.00437" lon="7.20857">
        <ele>1362.5999755859</ele>
        <time>2019-05-11T10:13:28.000Z</time>
      </trkpt>
      <trkpt lat="44.00433" lon="7.2085">
        <ele>1362</ele>
        <time>2019-05-11T10:13:29.000Z</time>
      </trkpt>
      <trkpt lat="44.00428" lon="7.20844">
        <ele>1361.4000244141</ele>
        <time>2019-05-11T10:13:30.000Z</time>
      </trkpt>
      <trkpt lat="44.0042" lon="7.20832">
        <ele>1360.5999755859</ele>
        <time>2019-05-11T10:13:32.000Z</time>
      </trkpt>
      <trkpt lat="44.00414" lon="7.20827">
        <ele>1360.1999511719</ele>
        <time>2019-05-11T10:13:33.000Z</time>
      </trkpt>
      <trkpt lat="44.00409" lon="7.20822">
        <ele>1360</ele>
        <time>2019-05-11T10:13:34.000Z</time>
      </trkpt>
      <trkpt lat="44.00398" lon="7.20812">
        <ele>1359.5999755859</ele>
        <time>2019-05-11T10:13:36.000Z</time>
      </trkpt>
      <trkpt lat="44.00393" lon="7.20799">
        <ele>1359</ele>
        <time>2019-05-11T10:13:38.000Z</time>
      </trkpt>
      <trkpt lat="44.00395" lon="7.20772">
        <ele>1358.1999511719</ele>
        <time>2019-05-11T10:13:41.000Z</time>
      </trkpt>
      <trkpt lat="44.00397" lon="7.20764">
        <ele>1357.8000488281</ele>
        <time>2019-05-11T10:13:42.000Z</time>
      </trkpt>
      <trkpt lat="44.004" lon="7.20754">
        <ele>1357.5999755859</ele>
        <time>2019-05-11T10:13:43.000Z</time>
      </trkpt>
      <trkpt lat="44.00405" lon="7.20736">
        <ele>1357.1999511719</ele>
        <time>2019-05-11T10:13:45.000Z</time>
      </trkpt>
      <trkpt lat="44.00411" lon="7.20718">
        <ele>1356.8000488281</ele>
        <time>2019-05-11T10:13:47.000Z</time>
      </trkpt>
      <trkpt lat="44.0042" lon="7.20701">
        <ele>1356.5999755859</ele>
        <time>2019-05-11T10:13:49.000Z</time>
      </trkpt>
      <trkpt lat="44.00429" lon="7.20689">
        <ele>1356</ele>
        <time>2019-05-11T10:13:51.000Z</time>
      </trkpt>
      <trkpt lat="44.00439" lon="7.20676">
        <ele>1355.4000244141</ele>
        <time>2019-05-11T10:13:53.000Z</time>
      </trkpt>
      <trkpt lat="44.00444" lon="7.20669">
        <ele>1355.1999511719</ele>
        <time>2019-05-11T10:13:54.000Z</time>
      </trkpt>
      <trkpt lat="44.00447" lon="7.20663">
        <ele>1355.1999511719</ele>
        <time>2019-05-11T10:13:55.000Z</time>
      </trkpt>
      <trkpt lat="44.0045" lon="7.20646">
        <ele>1354.8000488281</ele>
        <time>2019-05-11T10:13:57.000Z</time>
      </trkpt>
      <trkpt lat="44.00451" lon="7.20627">
        <ele>1354</ele>
        <time>2019-05-11T10:13:59.000Z</time>
      </trkpt>
      <trkpt lat="44.00454" lon="7.20618">
        <ele>1353.4000244141</ele>
        <time>2019-05-11T10:14:00.000Z</time>
      </trkpt>
      <trkpt lat="44.00458" lon="7.20611">
        <ele>1353</ele>
        <time>2019-05-11T10:14:01.000Z</time>
      </trkpt>
      <trkpt lat="44.00463" lon="7.20606">
        <ele>1352.5999755859</ele>
        <time>2019-05-11T10:14:02.000Z</time>
      </trkpt>
      <trkpt lat="44.00477" lon="7.20587">
        <ele>1351.4000244141</ele>
        <time>2019-05-11T10:14:05.000Z</time>
      </trkpt>
      <trkpt lat="44.00483" lon="7.20582">
        <ele>1351</ele>
        <time>2019-05-11T10:14:06.000Z</time>
      </trkpt>
      <trkpt lat="44.00494" lon="7.20573">
        <ele>1350</ele>
        <time>2019-05-11T10:14:08.000Z</time>
      </trkpt>
      <trkpt lat="44.00508" lon="7.2056">
        <ele>1349.1999511719</ele>
        <time>2019-05-11T10:14:11.000Z</time>
      </trkpt>
      <trkpt lat="44.00513" lon="7.20556">
        <ele>1349.1999511719</ele>
        <time>2019-05-11T10:14:12.000Z</time>
      </trkpt>
      <trkpt lat="44.00517" lon="7.2055">
        <ele>1349.1999511719</ele>
        <time>2019-05-11T10:14:13.000Z</time>
      </trkpt>
      <trkpt lat="44.00526" lon="7.20532">
        <ele>1349</ele>
        <time>2019-05-11T10:14:16.000Z</time>
      </trkpt>
      <trkpt lat="44.0053" lon="7.2052">
        <ele>1348</ele>
        <time>2019-05-11T10:14:18.000Z</time>
      </trkpt>
      <trkpt lat="44.00532" lon="7.20513">
        <ele>1347.5999755859</ele>
        <time>2019-05-11T10:14:19.000Z</time>
      </trkpt>
      <trkpt lat="44.00533" lon="7.205">
        <ele>1347.1999511719</ele>
        <time>2019-05-11T10:14:21.000Z</time>
      </trkpt>
      <trkpt lat="44.00533" lon="7.20479">
        <ele>1348.5999755859</ele>
        <time>2019-05-11T10:14:24.000Z</time>
      </trkpt>
      <trkpt lat="44.00532" lon="7.20451">
        <ele>1348</ele>
        <time>2019-05-11T10:14:28.000Z</time>
      </trkpt>
      <trkpt lat="44.00533" lon="7.20444">
        <ele>1347.4000244141</ele>
        <time>2019-05-11T10:14:29.000Z</time>
      </trkpt>
      <trkpt lat="44.00535" lon="7.2043">
        <ele>1347</ele>
        <time>2019-05-11T10:14:31.000Z</time>
      </trkpt>
      <trkpt lat="44.0054" lon="7.204">
        <ele>1347.5999755859</ele>
        <time>2019-05-11T10:14:36.000Z</time>
      </trkpt>
      <trkpt lat="44.00537" lon="7.20373">
        <ele>1346.4000244141</ele>
        <time>2019-05-11T10:14:40.000Z</time>
      </trkpt>
      <trkpt lat="44.00535" lon="7.20366">
        <ele>1346.1999511719</ele>
        <time>2019-05-11T10:14:41.000Z</time>
      </trkpt>
      <trkpt lat="44.00525" lon="7.20328">
        <ele>1347.1999511719</ele>
        <time>2019-05-11T10:14:47.000Z</time>
      </trkpt>
      <trkpt lat="44.00523" lon="7.20321">
        <ele>1347.1999511719</ele>
        <time>2019-05-11T10:14:48.000Z</time>
      </trkpt>
      <trkpt lat="44.00522" lon="7.20315">
        <ele>1347.4000244141</ele>
        <time>2019-05-11T10:14:49.000Z</time>
      </trkpt>
      <trkpt lat="44.0052" lon="7.20294">
        <ele>1347.8000488281</ele>
        <time>2019-05-11T10:14:52.000Z</time>
      </trkpt>
      <trkpt lat="44.00521" lon="7.20278">
        <ele>1348.1999511719</ele>
        <time>2019-05-11T10:14:54.000Z</time>
      </trkpt>
      <trkpt lat="44.00527" lon="7.20259">
        <ele>1348.1999511719</ele>
        <time>2019-05-11T10:14:57.000Z</time>
      </trkpt>
      <trkpt lat="44.00528" lon="7.20251">
        <ele>1347.8000488281</ele>
        <time>2019-05-11T10:14:58.000Z</time>
      </trkpt>
      <trkpt lat="44.00541" lon="7.2021">
        <ele>1346.4000244141</ele>
        <time>2019-05-11T10:15:04.000Z</time>
      </trkpt>
      <trkpt lat="44.00547" lon="7.20189">
        <ele>1346.4000244141</ele>
        <time>2019-05-11T10:15:07.000Z</time>
      </trkpt>
      <trkpt lat="44.00549" lon="7.20166">
        <ele>1346.4000244141</ele>
        <time>2019-05-11T10:15:10.000Z</time>
      </trkpt>
      <trkpt lat="44.0055" lon="7.20143">
        <ele>1346.1999511719</ele>
        <time>2019-05-11T10:15:13.000Z</time>
      </trkpt>
      <trkpt lat="44.0055" lon="7.20134">
        <ele>1346</ele>
        <time>2019-05-11T10:15:14.000Z</time>
      </trkpt>
      <trkpt lat="44.0055" lon="7.20126">
        <ele>1345.5999755859</ele>
        <time>2019-05-11T10:15:15.000Z</time>
      </trkpt>
      <trkpt lat="44.00549" lon="7.20118">
        <ele>1345.4000244141</ele>
        <time>2019-05-11T10:15:16.000Z</time>
      </trkpt>
      <trkpt lat="44.00545" lon="7.20096">
        <ele>1344.1999511719</ele>
        <time>2019-05-11T10:15:19.000Z</time>
      </trkpt>
      <trkpt lat="44.00532" lon="7.20065">
        <ele>1343.1999511719</ele>
        <time>2019-05-11T10:15:24.000Z</time>
      </trkpt>
      <trkpt lat="44.00521" lon="7.20051">
        <ele>1343.8000488281</ele>
        <time>2019-05-11T10:15:27.000Z</time>
      </trkpt>
      <trkpt lat="44.00512" lon="7.20041">
        <ele>1344.1999511719</ele>
        <time>2019-05-11T10:15:29.000Z</time>
      </trkpt>
      <trkpt lat="44.00495" lon="7.20024">
        <ele>1345.4000244141</ele>
        <time>2019-05-11T10:15:33.000Z</time>
      </trkpt>
      <trkpt lat="44.00478" lon="7.20006">
        <ele>1345.1999511719</ele>
        <time>2019-05-11T10:15:37.000Z</time>
      </trkpt>
      <trkpt lat="44.00462" lon="7.19985">
        <ele>1344.4000244141</ele>
        <time>2019-05-11T10:15:41.000Z</time>
      </trkpt>
      <trkpt lat="44.00455" lon="7.19968">
        <ele>1344.8000488281</ele>
        <time>2019-05-11T10:15:44.000Z</time>
      </trkpt>
      <trkpt lat="44.0045" lon="7.19941">
        <ele>1345.1999511719</ele>
        <time>2019-05-11T10:15:49.000Z</time>
      </trkpt>
      <trkpt lat="44.00445" lon="7.1993">
        <ele>1344</ele>
        <time>2019-05-11T10:15:52.000Z</time>
      </trkpt>
      <trkpt lat="44.00442" lon="7.19926">
        <ele>1343.8000488281</ele>
        <time>2019-05-11T10:15:53.000Z</time>
      </trkpt>
      <trkpt lat="44.00437" lon="7.19919">
        <ele>1343.4000244141</ele>
        <time>2019-05-11T10:15:57.000Z</time>
      </trkpt>
      <trkpt lat="44.00437" lon="7.19918">
        <ele>1344</ele>
        <time>2019-05-11T10:16:04.000Z</time>
      </trkpt>
      <trkpt lat="44.00437" lon="7.19917">
        <ele>1343.5999755859</ele>
        <time>2019-05-11T10:16:19.000Z</time>
      </trkpt>
      <trkpt lat="44.00437" lon="7.19916">
        <ele>1343.4000244141</ele>
        <time>2019-05-11T10:16:25.000Z</time>
      </trkpt>
      <trkpt lat="44.00436" lon="7.19914">
        <ele>1343</ele>
        <time>2019-05-11T10:16:31.000Z</time>
      </trkpt>
      <trkpt lat="44.00436" lon="7.19913">
        <ele>1342.5999755859</ele>
        <time>2019-05-11T10:16:34.000Z</time>
      </trkpt>
      <trkpt lat="44.00436" lon="7.19911">
        <ele>1343.1999511719</ele>
        <time>2019-05-11T10:16:47.000Z</time>
      </trkpt>
      <trkpt lat="44.00436" lon="7.19911">
        <ele>1343.8000488281</ele>
        <time>2019-05-11T10:16:56.000Z</time>
      </trkpt>
      <trkpt lat="44.00436" lon="7.1991">
        <ele>1343.5999755859</ele>
        <time>2019-05-11T10:17:07.000Z</time>
      </trkpt>
      <trkpt lat="44.00436" lon="7.19909">
        <ele>1343.5999755859</ele>
        <time>2019-05-11T10:17:17.000Z</time>
      </trkpt>
      <trkpt lat="44.00437" lon="7.1991">
        <ele>1343.4000244141</ele>
        <time>2019-05-11T10:17:30.000Z</time>
      </trkpt>
      <trkpt lat="44.00437" lon="7.19911">
        <ele>1343.4000244141</ele>
        <time>2019-05-11T10:17:42.000Z</time>
      </trkpt>
      <trkpt lat="44.00438" lon="7.19911">
        <ele>1343.5999755859</ele>
        <time>2019-05-11T10:17:51.000Z</time>
      </trkpt>
      <trkpt lat="44.00438" lon="7.19911">
        <ele>1344</ele>
        <time>2019-05-11T10:18:00.000Z</time>
      </trkpt>
      <trkpt lat="44.00439" lon="7.19911">
        <ele>1344</ele>
        <time>2019-05-11T10:18:10.000Z</time>
      </trkpt>
      <trkpt lat="44.00438" lon="7.1991">
        <ele>1344</ele>
        <time>2019-05-11T10:18:22.000Z</time>
      </trkpt>
      <trkpt lat="44.00438" lon="7.19912">
        <ele>1343.5999755859</ele>
        <time>2019-05-11T10:18:34.000Z</time>
      </trkpt>
      <trkpt lat="44.00437" lon="7.19912">
        <ele>1344</ele>
        <time>2019-05-11T10:18:44.000Z</time>
      </trkpt>
      <trkpt lat="44.00437" lon="7.19912">
        <ele>1344.4000244141</ele>
        <time>2019-05-11T10:18:55.000Z</time>
      </trkpt>
      <trkpt lat="44.00437" lon="7.19913">
        <ele>1344.4000244141</ele>
        <time>2019-05-11T10:19:05.000Z</time>
      </trkpt>
      <trkpt lat="44.00437" lon="7.19914">
        <ele>1344.4000244141</ele>
        <time>2019-05-11T10:19:09.000Z</time>
      </trkpt>
      <trkpt lat="44.00436" lon="7.19913">
        <ele>1344.1999511719</ele>
        <time>2019-05-11T10:19:19.000Z</time>
      </trkpt>
      <trkpt lat="44.00435" lon="7.19911">
        <ele>1344.4000244141</ele>
        <time>2019-05-11T10:19:32.000Z</time>
      </trkpt>
      <trkpt lat="44.00435" lon="7.19912">
        <ele>1344.8000488281</ele>
        <time>2019-05-11T10:19:45.000Z</time>
      </trkpt>
      <trkpt lat="44.00435" lon="7.19912">
        <ele>1345.1999511719</ele>
        <time>2019-05-11T10:19:47.000Z</time>
      </trkpt>
      <trkpt lat="44.00435" lon="7.19912">
        <ele>1345</ele>
        <time>2019-05-11T10:19:49.000Z</time>
      </trkpt>
      <trkpt lat="44.00435" lon="7.19911">
        <ele>1344.8000488281</ele>
        <time>2019-05-11T10:19:59.000Z</time>
      </trkpt>
      <trkpt lat="44.00434" lon="7.19911">
        <ele>1345</ele>
        <time>2019-05-11T10:20:05.000Z</time>
      </trkpt>
      <trkpt lat="44.00434" lon="7.1991">
        <ele>1345</ele>
        <time>2019-05-11T10:20:14.000Z</time>
      </trkpt>
      <trkpt lat="44.00434" lon="7.1991">
        <ele>1345.1999511719</ele>
        <time>2019-05-11T10:20:24.000Z</time>
      </trkpt>
      <trkpt lat="44.00435" lon="7.19909">
        <ele>1345</ele>
        <time>2019-05-11T10:20:28.000Z</time>
      </trkpt>
      <trkpt lat="44.00434" lon="7.19909">
        <ele>1345</ele>
        <time>2019-05-11T10:20:30.000Z</time>
      </trkpt>
      <trkpt lat="44.00434" lon="7.19909">
        <ele>1344.8000488281</ele>
        <time>2019-05-11T10:20:32.000Z</time>
      </trkpt>
      <trkpt lat="44.00429" lon="7.19906">
        <ele>1345</ele>
        <time>2019-05-11T10:20:35.000Z</time>
      </trkpt>
      <trkpt lat="44.00425" lon="7.19901">
        <ele>1345.4000244141</ele>
        <time>2019-05-11T10:20:40.000Z</time>
      </trkpt>
      <trkpt lat="44.00425" lon="7.199">
        <ele>1344.5999755859</ele>
        <time>2019-05-11T10:20:46.000Z</time>
      </trkpt>
      <trkpt lat="44.00425" lon="7.199">
        <ele>1344</ele>
        <time>2019-05-11T10:20:48.000Z</time>
      </trkpt>
      <trkpt lat="44.00425" lon="7.19899">
        <ele>1344.8000488281</ele>
        <time>2019-05-11T10:20:55.000Z</time>
      </trkpt>
      <trkpt lat="44.00425" lon="7.19899">
        <ele>1345.1999511719</ele>
        <time>2019-05-11T10:20:57.000Z</time>
      </trkpt>
      <trkpt lat="44.00425" lon="7.19901">
        <ele>1345.4000244141</ele>
        <time>2019-05-11T10:21:00.000Z</time>
      </trkpt>
      <trkpt lat="44.00425" lon="7.19902">
        <ele>1345.1999511719</ele>
        <time>2019-05-11T10:21:07.000Z</time>
      </trkpt>
      <trkpt lat="44.00425" lon="7.19904">
        <ele>1345.1999511719</ele>
        <time>2019-05-11T10:21:14.000Z</time>
      </trkpt>
      <trkpt lat="44.00425" lon="7.19904">
        <ele>1345</ele>
        <time>2019-05-11T10:21:20.000Z</time>
      </trkpt>
      <trkpt lat="44.00425" lon="7.19903">
        <ele>1345</ele>
        <time>2019-05-11T10:21:28.000Z</time>
      </trkpt>
      <trkpt lat="44.00423" lon="7.19902">
        <ele>1345</ele>
        <time>2019-05-11T10:21:30.000Z</time>
      </trkpt>
      <trkpt lat="44.00421" lon="7.19899">
        <ele>1345</ele>
        <time>2019-05-11T10:21:32.000Z</time>
      </trkpt>
      <trkpt lat="44.00415" lon="7.19892">
        <ele>1345.4000244141</ele>
        <time>2019-05-11T10:21:38.000Z</time>
      </trkpt>
      <trkpt lat="44.0041" lon="7.19889">
        <ele>1346.4000244141</ele>
        <time>2019-05-11T10:21:42.000Z</time>
      </trkpt>
      <trkpt lat="44.00409" lon="7.19888">
        <ele>1346.8000488281</ele>
        <time>2019-05-11T10:21:43.000Z</time>
      </trkpt>
      <trkpt lat="44.00404" lon="7.19885">
        <ele>1347.5999755859</ele>
        <time>2019-05-11T10:21:46.000Z</time>
      </trkpt>
      <trkpt lat="44.00397" lon="7.19879">
        <ele>1348.8000488281</ele>
        <time>2019-05-11T10:21:51.000Z</time>
      </trkpt>
      <trkpt lat="44.00396" lon="7.19878">
        <ele>1349</ele>
        <time>2019-05-11T10:21:52.000Z</time>
      </trkpt>
      <trkpt lat="44.00396" lon="7.19882">
        <ele>1349.1999511719</ele>
        <time>2019-05-11T10:21:55.000Z</time>
      </trkpt>
      <trkpt lat="44.00397" lon="7.19883">
        <ele>1349.4000244141</ele>
        <time>2019-05-11T10:21:56.000Z</time>
      </trkpt>
      <trkpt lat="44.00402" lon="7.19889">
        <ele>1349.8000488281</ele>
        <time>2019-05-11T10:22:00.000Z</time>
      </trkpt>
      <trkpt lat="44.00403" lon="7.1989">
        <ele>1350</ele>
        <time>2019-05-11T10:22:01.000Z</time>
      </trkpt>
      <trkpt lat="44.00406" lon="7.19897">
        <ele>1350.4000244141</ele>
        <time>2019-05-11T10:22:06.000Z</time>
      </trkpt>
      <trkpt lat="44.00408" lon="7.19903">
        <ele>1350.8000488281</ele>
        <time>2019-05-11T10:22:10.000Z</time>
      </trkpt>
      <trkpt lat="44.00409" lon="7.19906">
        <ele>1351.1999511719</ele>
        <time>2019-05-11T10:22:12.000Z</time>
      </trkpt>
      <trkpt lat="44.00412" lon="7.1991">
        <ele>1351.8000488281</ele>
        <time>2019-05-11T10:22:15.000Z</time>
      </trkpt>
      <trkpt lat="44.00413" lon="7.19913">
        <ele>1352</ele>
        <time>2019-05-11T10:22:17.000Z</time>
      </trkpt>
      <trkpt lat="44.00418" lon="7.19923">
        <ele>1353</ele>
        <time>2019-05-11T10:22:24.000Z</time>
      </trkpt>
      <trkpt lat="44.00423" lon="7.19929">
        <ele>1353.8000488281</ele>
        <time>2019-05-11T10:22:29.000Z</time>
      </trkpt>
      <trkpt lat="44.00424" lon="7.19931">
        <ele>1354.1999511719</ele>
        <time>2019-05-11T10:22:31.000Z</time>
      </trkpt>
      <trkpt lat="44.00428" lon="7.19938">
        <ele>1355.1999511719</ele>
        <time>2019-05-11T10:22:35.000Z</time>
      </trkpt>
      <trkpt lat="44.00429" lon="7.19939">
        <ele>1355.4000244141</ele>
        <time>2019-05-11T10:22:36.000Z</time>
      </trkpt>
      <trkpt lat="44.00431" lon="7.19946">
        <ele>1356.4000244141</ele>
        <time>2019-05-11T10:22:40.000Z</time>
      </trkpt>
      <trkpt lat="44.00432" lon="7.19948">
        <ele>1356.5999755859</ele>
        <time>2019-05-11T10:22:41.000Z</time>
      </trkpt>
      <trkpt lat="44.00431" lon="7.19955">
        <ele>1357.4000244141</ele>
        <time>2019-05-11T10:22:45.000Z</time>
      </trkpt>
      <trkpt lat="44.00431" lon="7.19965">
        <ele>1358.8000488281</ele>
        <time>2019-05-11T10:22:50.000Z</time>
      </trkpt>
      <trkpt lat="44.00431" lon="7.19967">
        <ele>1358.8000488281</ele>
        <time>2019-05-11T10:22:51.000Z</time>
      </trkpt>
      <trkpt lat="44.00431" lon="7.19968">
        <ele>1359.1999511719</ele>
        <time>2019-05-11T10:22:52.000Z</time>
      </trkpt>
      <trkpt lat="44.00431" lon="7.19972">
        <ele>1359.8000488281</ele>
        <time>2019-05-11T10:22:54.000Z</time>
      </trkpt>
      <trkpt lat="44.0043" lon="7.19978">
        <ele>1360.4000244141</ele>
        <time>2019-05-11T10:22:58.000Z</time>
      </trkpt>
      <trkpt lat="44.0043" lon="7.19979">
        <ele>1360.8000488281</ele>
        <time>2019-05-11T10:23:00.000Z</time>
      </trkpt>
      <trkpt lat="44.00429" lon="7.19983">
        <ele>1361.1999511719</ele>
        <time>2019-05-11T10:23:04.000Z</time>
      </trkpt>
      <trkpt lat="44.00428" lon="7.19985">
        <ele>1361.8000488281</ele>
        <time>2019-05-11T10:23:10.000Z</time>
      </trkpt>
      <trkpt lat="44.00429" lon="7.19993">
        <ele>1361.8000488281</ele>
        <time>2019-05-11T10:23:18.000Z</time>
      </trkpt>
      <trkpt lat="44.00431" lon="7.2">
        <ele>1361</ele>
        <time>2019-05-11T10:23:24.000Z</time>
      </trkpt>
      <trkpt lat="44.00432" lon="7.20008">
        <ele>1363</ele>
        <time>2019-05-11T10:23:31.000Z</time>
      </trkpt>
      <trkpt lat="44.00432" lon="7.20009">
        <ele>1363.1999511719</ele>
        <time>2019-05-11T10:23:32.000Z</time>
      </trkpt>
      <trkpt lat="44.00434" lon="7.20013">
        <ele>1364</ele>
        <time>2019-05-11T10:23:37.000Z</time>
      </trkpt>
      <trkpt lat="44.00436" lon="7.20017">
        <ele>1364.5999755859</ele>
        <time>2019-05-11T10:23:40.000Z</time>
      </trkpt>
      <trkpt lat="44.00438" lon="7.2002">
        <ele>1365.1999511719</ele>
        <time>2019-05-11T10:23:45.000Z</time>
      </trkpt>
      <trkpt lat="44.00439" lon="7.20023">
        <ele>1365.5999755859</ele>
        <time>2019-05-11T10:23:48.000Z</time>
      </trkpt>
      <trkpt lat="44.00442" lon="7.20028">
        <ele>1366</ele>
        <time>2019-05-11T10:23:54.000Z</time>
      </trkpt>
      <trkpt lat="44.00443" lon="7.2003">
        <ele>1366.1999511719</ele>
        <time>2019-05-11T10:23:55.000Z</time>
      </trkpt>
      <trkpt lat="44.00445" lon="7.20032">
        <ele>1366.5999755859</ele>
        <time>2019-05-11T10:23:58.000Z</time>
      </trkpt>
      <trkpt lat="44.00446" lon="7.20035">
        <ele>1366.8000488281</ele>
        <time>2019-05-11T10:24:00.000Z</time>
      </trkpt>
      <trkpt lat="44.00448" lon="7.20036">
        <ele>1367.1999511719</ele>
        <time>2019-05-11T10:24:02.000Z</time>
      </trkpt>
      <trkpt lat="44.00453" lon="7.20043">
        <ele>1368.1999511719</ele>
        <time>2019-05-11T10:24:09.000Z</time>
      </trkpt>
      <trkpt lat="44.00454" lon="7.20043">
        <ele>1368.4000244141</ele>
        <time>2019-05-11T10:24:10.000Z</time>
      </trkpt>
      <trkpt lat="44.00458" lon="7.20049">
        <ele>1369.1999511719</ele>
        <time>2019-05-11T10:24:16.000Z</time>
      </trkpt>
      <trkpt lat="44.00459" lon="7.2005">
        <ele>1369.4000244141</ele>
        <time>2019-05-11T10:24:17.000Z</time>
      </trkpt>
      <trkpt lat="44.0046" lon="7.20052">
        <ele>1370.4000244141</ele>
        <time>2019-05-11T10:24:22.000Z</time>
      </trkpt>
      <trkpt lat="44.00461" lon="7.20053">
        <ele>1370.5999755859</ele>
        <time>2019-05-11T10:24:24.000Z</time>
      </trkpt>
      <trkpt lat="44.00463" lon="7.20056">
        <ele>1370.5999755859</ele>
        <time>2019-05-11T10:24:28.000Z</time>
      </trkpt>
      <trkpt lat="44.00464" lon="7.20057">
        <ele>1370.5999755859</ele>
        <time>2019-05-11T10:24:29.000Z</time>
      </trkpt>
      <trkpt lat="44.00469" lon="7.20064">
        <ele>1371</ele>
        <time>2019-05-11T10:24:34.000Z</time>
      </trkpt>
      <trkpt lat="44.00469" lon="7.20065">
        <ele>1371.4000244141</ele>
        <time>2019-05-11T10:24:35.000Z</time>
      </trkpt>
      <trkpt lat="44.00474" lon="7.20074">
        <ele>1372.4000244141</ele>
        <time>2019-05-11T10:24:41.000Z</time>
      </trkpt>
      <trkpt lat="44.00474" lon="7.20075">
        <ele>1372.5999755859</ele>
        <time>2019-05-11T10:24:42.000Z</time>
      </trkpt>
      <trkpt lat="44.00476" lon="7.20079">
        <ele>1373.5999755859</ele>
        <time>2019-05-11T10:24:45.000Z</time>
      </trkpt>
      <trkpt lat="44.00477" lon="7.20085">
        <ele>1374.1999511719</ele>
        <time>2019-05-11T10:24:49.000Z</time>
      </trkpt>
      <trkpt lat="44.00478" lon="7.20086">
        <ele>1374.4000244141</ele>
        <time>2019-05-11T10:24:50.000Z</time>
      </trkpt>
      <trkpt lat="44.00478" lon="7.20087">
        <ele>1374.5999755859</ele>
        <time>2019-05-11T10:24:51.000Z</time>
      </trkpt>
      <trkpt lat="44.0048" lon="7.20095">
        <ele>1375.1999511719</ele>
        <time>2019-05-11T10:24:55.000Z</time>
      </trkpt>
      <trkpt lat="44.00481" lon="7.20098">
        <ele>1375.5999755859</ele>
        <time>2019-05-11T10:24:57.000Z</time>
      </trkpt>
      <trkpt lat="44.00484" lon="7.20105">
        <ele>1376.5999755859</ele>
        <time>2019-05-11T10:25:01.000Z</time>
      </trkpt>
      <trkpt lat="44.00484" lon="7.20106">
        <ele>1376.8000488281</ele>
        <time>2019-05-11T10:25:02.000Z</time>
      </trkpt>
      <trkpt lat="44.00486" lon="7.20114">
        <ele>1377.8000488281</ele>
        <time>2019-05-11T10:25:06.000Z</time>
      </trkpt>
      <trkpt lat="44.00485" lon="7.20118">
        <ele>1378.1999511719</ele>
        <time>2019-05-11T10:25:08.000Z</time>
      </trkpt>
      <trkpt lat="44.00486" lon="7.20123">
        <ele>1379</ele>
        <time>2019-05-11T10:25:12.000Z</time>
      </trkpt>
      <trkpt lat="44.00487" lon="7.20127">
        <ele>1379.4000244141</ele>
        <time>2019-05-11T10:25:14.000Z</time>
      </trkpt>
      <trkpt lat="44.00488" lon="7.20132">
        <ele>1380</ele>
        <time>2019-05-11T10:25:17.000Z</time>
      </trkpt>
      <trkpt lat="44.00488" lon="7.20135">
        <ele>1380.4000244141</ele>
        <time>2019-05-11T10:25:19.000Z</time>
      </trkpt>
      <trkpt lat="44.00488" lon="7.20139">
        <ele>1380.5999755859</ele>
        <time>2019-05-11T10:25:21.000Z</time>
      </trkpt>
      <trkpt lat="44.00488" lon="7.20144">
        <ele>1381.1999511719</ele>
        <time>2019-05-11T10:25:24.000Z</time>
      </trkpt>
      <trkpt lat="44.00488" lon="7.2015">
        <ele>1382.1999511719</ele>
        <time>2019-05-11T10:25:28.000Z</time>
      </trkpt>
      <trkpt lat="44.00488" lon="7.20153">
        <ele>1382.4000244141</ele>
        <time>2019-05-11T10:25:30.000Z</time>
      </trkpt>
      <trkpt lat="44.00486" lon="7.20161">
        <ele>1383.4000244141</ele>
        <time>2019-05-11T10:25:35.000Z</time>
      </trkpt>
      <trkpt lat="44.00486" lon="7.20163">
        <ele>1383.4000244141</ele>
        <time>2019-05-11T10:25:36.000Z</time>
      </trkpt>
      <trkpt lat="44.00484" lon="7.20171">
        <ele>1384.1999511719</ele>
        <time>2019-05-11T10:25:40.000Z</time>
      </trkpt>
      <trkpt lat="44.00484" lon="7.20175">
        <ele>1384.5999755859</ele>
        <time>2019-05-11T10:25:42.000Z</time>
      </trkpt>
      <trkpt lat="44.00483" lon="7.20182">
        <ele>1385.5999755859</ele>
        <time>2019-05-11T10:25:46.000Z</time>
      </trkpt>
      <trkpt lat="44.00483" lon="7.20184">
        <ele>1385.8000488281</ele>
        <time>2019-05-11T10:25:47.000Z</time>
      </trkpt>
      <trkpt lat="44.00481" lon="7.20193">
        <ele>1387</ele>
        <time>2019-05-11T10:25:52.000Z</time>
      </trkpt>
      <trkpt lat="44.00481" lon="7.20195">
        <ele>1387.1999511719</ele>
        <time>2019-05-11T10:25:53.000Z</time>
      </trkpt>
      <trkpt lat="44.00479" lon="7.20206">
        <ele>1387.4000244141</ele>
        <time>2019-05-11T10:25:59.000Z</time>
      </trkpt>
      <trkpt lat="44.00478" lon="7.20212">
        <ele>1388</ele>
        <time>2019-05-11T10:26:02.000Z</time>
      </trkpt>
      <trkpt lat="44.00475" lon="7.2022">
        <ele>1389</ele>
        <time>2019-05-11T10:26:07.000Z</time>
      </trkpt>
      <trkpt lat="44.00475" lon="7.20222">
        <ele>1389.1999511719</ele>
        <time>2019-05-11T10:26:08.000Z</time>
      </trkpt>
      <trkpt lat="44.00472" lon="7.20232">
        <ele>1390.1999511719</ele>
        <time>2019-05-11T10:26:14.000Z</time>
      </trkpt>
      <trkpt lat="44.00472" lon="7.20233">
        <ele>1390.1999511719</ele>
        <time>2019-05-11T10:26:15.000Z</time>
      </trkpt>
      <trkpt lat="44.00469" lon="7.20244">
        <ele>1391.4000244141</ele>
        <time>2019-05-11T10:26:22.000Z</time>
      </trkpt>
      <trkpt lat="44.00467" lon="7.20254">
        <ele>1392.4000244141</ele>
        <time>2019-05-11T10:26:28.000Z</time>
      </trkpt>
      <trkpt lat="44.00467" lon="7.20256">
        <ele>1392.5999755859</ele>
        <time>2019-05-11T10:26:29.000Z</time>
      </trkpt>
      <trkpt lat="44.00466" lon="7.20263">
        <ele>1393.4000244141</ele>
        <time>2019-05-11T10:26:33.000Z</time>
      </trkpt>
      <trkpt lat="44.00465" lon="7.20267">
        <ele>1394</ele>
        <time>2019-05-11T10:26:35.000Z</time>
      </trkpt>
      <trkpt lat="44.00464" lon="7.20274">
        <ele>1394.5999755859</ele>
        <time>2019-05-11T10:26:39.000Z</time>
      </trkpt>
      <trkpt lat="44.00463" lon="7.20278">
        <ele>1395.1999511719</ele>
        <time>2019-05-11T10:26:41.000Z</time>
      </trkpt>
      <trkpt lat="44.00462" lon="7.20282">
        <ele>1395.5999755859</ele>
        <time>2019-05-11T10:26:43.000Z</time>
      </trkpt>
      <trkpt lat="44.00462" lon="7.20285">
        <ele>1396.1999511719</ele>
        <time>2019-05-11T10:26:45.000Z</time>
      </trkpt>
      <trkpt lat="44.00462" lon="7.20287">
        <ele>1396.4000244141</ele>
        <time>2019-05-11T10:26:46.000Z</time>
      </trkpt>
      <trkpt lat="44.00462" lon="7.20288">
        <ele>1396.8000488281</ele>
        <time>2019-05-11T10:26:47.000Z</time>
      </trkpt>
      <trkpt lat="44.00461" lon="7.20294">
        <ele>1397.8000488281</ele>
        <time>2019-05-11T10:26:52.000Z</time>
      </trkpt>
      <trkpt lat="44.00461" lon="7.20299">
        <ele>1398</ele>
        <time>2019-05-11T10:27:00.000Z</time>
      </trkpt>
      <trkpt lat="44.00462" lon="7.20307">
        <ele>1398.5999755859</ele>
        <time>2019-05-11T10:27:07.000Z</time>
      </trkpt>
      <trkpt lat="44.00462" lon="7.20309">
        <ele>1398.8000488281</ele>
        <time>2019-05-11T10:27:08.000Z</time>
      </trkpt>
      <trkpt lat="44.00462" lon="7.20316">
        <ele>1399.4000244141</ele>
        <time>2019-05-11T10:27:14.000Z</time>
      </trkpt>
      <trkpt lat="44.00462" lon="7.20321">
        <ele>1400</ele>
        <time>2019-05-11T10:27:19.000Z</time>
      </trkpt>
      <trkpt lat="44.00462" lon="7.20322">
        <ele>1400.1999511719</ele>
        <time>2019-05-11T10:27:21.000Z</time>
      </trkpt>
      <trkpt lat="44.00461" lon="7.2033">
        <ele>1401.1999511719</ele>
        <time>2019-05-11T10:27:28.000Z</time>
      </trkpt>
      <trkpt lat="44.00461" lon="7.20334">
        <ele>1401.8000488281</ele>
        <time>2019-05-11T10:27:32.000Z</time>
      </trkpt>
      <trkpt lat="44.00461" lon="7.20338">
        <ele>1402.1999511719</ele>
        <time>2019-05-11T10:27:35.000Z</time>
      </trkpt>
      <trkpt lat="44.00461" lon="7.20344">
        <ele>1402.8000488281</ele>
        <time>2019-05-11T10:27:40.000Z</time>
      </trkpt>
      <trkpt lat="44.00461" lon="7.20349">
        <ele>1403.4000244141</ele>
        <time>2019-05-11T10:27:46.000Z</time>
      </trkpt>
      <trkpt lat="44.00461" lon="7.20354">
        <ele>1404.1999511719</ele>
        <time>2019-05-11T10:27:50.000Z</time>
      </trkpt>
      <trkpt lat="44.0046" lon="7.20356">
        <ele>1404.4000244141</ele>
        <time>2019-05-11T10:27:52.000Z</time>
      </trkpt>
      <trkpt lat="44.0046" lon="7.20363">
        <ele>1405.1999511719</ele>
        <time>2019-05-11T10:27:58.000Z</time>
      </trkpt>
      <trkpt lat="44.0046" lon="7.20365">
        <ele>1405.4000244141</ele>
        <time>2019-05-11T10:28:00.000Z</time>
      </trkpt>
      <trkpt lat="44.0046" lon="7.20371">
        <ele>1406.1999511719</ele>
        <time>2019-05-11T10:28:05.000Z</time>
      </trkpt>
      <trkpt lat="44.00459" lon="7.20373">
        <ele>1406.5999755859</ele>
        <time>2019-05-11T10:28:07.000Z</time>
      </trkpt>
      <trkpt lat="44.00459" lon="7.2038">
        <ele>1407.4000244141</ele>
        <time>2019-05-11T10:28:13.000Z</time>
      </trkpt>
      <trkpt lat="44.00459" lon="7.20381">
        <ele>1407.5999755859</ele>
        <time>2019-05-11T10:28:14.000Z</time>
      </trkpt>
      <trkpt lat="44.00458" lon="7.20388">
        <ele>1408.8000488281</ele>
        <time>2019-05-11T10:28:20.000Z</time>
      </trkpt>
      <trkpt lat="44.00457" lon="7.20391">
        <ele>1409</ele>
        <time>2019-05-11T10:28:23.000Z</time>
      </trkpt>
      <trkpt lat="44.00457" lon="7.20392">
        <ele>1409.8000488281</ele>
        <time>2019-05-11T10:28:27.000Z</time>
      </trkpt>
      <trkpt lat="44.00458" lon="7.20393">
        <ele>1410</ele>
        <time>2019-05-11T10:28:30.000Z</time>
      </trkpt>
      <trkpt lat="44.00458" lon="7.20395">
        <ele>1410.1999511719</ele>
        <time>2019-05-11T10:28:35.000Z</time>
      </trkpt>
      <trkpt lat="44.00458" lon="7.20396">
        <ele>1410.1999511719</ele>
        <time>2019-05-11T10:28:36.000Z</time>
      </trkpt>
      <trkpt lat="44.00458" lon="7.20398">
        <ele>1410</ele>
        <time>2019-05-11T10:28:38.000Z</time>
      </trkpt>
      <trkpt lat="44.00457" lon="7.20405">
        <ele>1410.4000244141</ele>
        <time>2019-05-11T10:28:42.000Z</time>
      </trkpt>
      <trkpt lat="44.00456" lon="7.20412">
        <ele>1410.8000488281</ele>
        <time>2019-05-11T10:28:46.000Z</time>
      </trkpt>
      <trkpt lat="44.00455" lon="7.20416">
        <ele>1411.1999511719</ele>
        <time>2019-05-11T10:28:49.000Z</time>
      </trkpt>
      <trkpt lat="44.00454" lon="7.20424">
        <ele>1412</ele>
        <time>2019-05-11T10:28:54.000Z</time>
      </trkpt>
      <trkpt lat="44.00453" lon="7.20428">
        <ele>1412.1999511719</ele>
        <time>2019-05-11T10:28:56.000Z</time>
      </trkpt>
      <trkpt lat="44.0045" lon="7.20437">
        <ele>1413</ele>
        <time>2019-05-11T10:29:02.000Z</time>
      </trkpt>
      <trkpt lat="44.00445" lon="7.20444">
        <ele>1414.1999511719</ele>
        <time>2019-05-11T10:29:08.000Z</time>
      </trkpt>
      <trkpt lat="44.00442" lon="7.20448">
        <ele>1414.8000488281</ele>
        <time>2019-05-11T10:29:11.000Z</time>
      </trkpt>
      <trkpt lat="44.00439" lon="7.20452">
        <ele>1415.1999511719</ele>
        <time>2019-05-11T10:29:14.000Z</time>
      </trkpt>
      <trkpt lat="44.00435" lon="7.20456">
        <ele>1416.4000244141</ele>
        <time>2019-05-11T10:29:18.000Z</time>
      </trkpt>
      <trkpt lat="44.00431" lon="7.20459">
        <ele>1417.4000244141</ele>
        <time>2019-05-11T10:29:22.000Z</time>
      </trkpt>
      <trkpt lat="44.00429" lon="7.20461">
        <ele>1417.8000488281</ele>
        <time>2019-05-11T10:29:24.000Z</time>
      </trkpt>
      <trkpt lat="44.00428" lon="7.20462">
        <ele>1418</ele>
        <time>2019-05-11T10:29:25.000Z</time>
      </trkpt>
      <trkpt lat="44.00426" lon="7.20465">
        <ele>1418.4000244141</ele>
        <time>2019-05-11T10:29:28.000Z</time>
      </trkpt>
      <trkpt lat="44.00422" lon="7.20469">
        <ele>1419</ele>
        <time>2019-05-11T10:29:32.000Z</time>
      </trkpt>
      <trkpt lat="44.00419" lon="7.20471">
        <ele>1419.5999755859</ele>
        <time>2019-05-11T10:29:35.000Z</time>
      </trkpt>
      <trkpt lat="44.00416" lon="7.20475">
        <ele>1420</ele>
        <time>2019-05-11T10:29:38.000Z</time>
      </trkpt>
      <trkpt lat="44.00412" lon="7.20479">
        <ele>1420.5999755859</ele>
        <time>2019-05-11T10:29:42.000Z</time>
      </trkpt>
      <trkpt lat="44.0041" lon="7.20481">
        <ele>1420.8000488281</ele>
        <time>2019-05-11T10:29:44.000Z</time>
      </trkpt>
      <trkpt lat="44.00404" lon="7.20486">
        <ele>1421.4000244141</ele>
        <time>2019-05-11T10:29:49.000Z</time>
      </trkpt>
      <trkpt lat="44.00403" lon="7.20488">
        <ele>1421.5999755859</ele>
        <time>2019-05-11T10:29:50.000Z</time>
      </trkpt>
      <trkpt lat="44.00401" lon="7.2049">
        <ele>1422.5999755859</ele>
        <time>2019-05-11T10:29:53.000Z</time>
      </trkpt>
      <trkpt lat="44.004" lon="7.20491">
        <ele>1422.8000488281</ele>
        <time>2019-05-11T10:29:54.000Z</time>
      </trkpt>
      <trkpt lat="44.00396" lon="7.20496">
        <ele>1423.8000488281</ele>
        <time>2019-05-11T10:29:59.000Z</time>
      </trkpt>
      <trkpt lat="44.00395" lon="7.20497">
        <ele>1423.8000488281</ele>
        <time>2019-05-11T10:30:00.000Z</time>
      </trkpt>
      <trkpt lat="44.00387" lon="7.20504">
        <ele>1424.8000488281</ele>
        <time>2019-05-11T10:30:07.000Z</time>
      </trkpt>
      <trkpt lat="44.00381" lon="7.2051">
        <ele>1425.8000488281</ele>
        <time>2019-05-11T10:30:13.000Z</time>
      </trkpt>
      <trkpt lat="44.00381" lon="7.20511">
        <ele>1426</ele>
        <time>2019-05-11T10:30:14.000Z</time>
      </trkpt>
      <trkpt lat="44.00375" lon="7.2052">
        <ele>1427</ele>
        <time>2019-05-11T10:30:21.000Z</time>
      </trkpt>
      <trkpt lat="44.00374" lon="7.20521">
        <ele>1427.1999511719</ele>
        <time>2019-05-11T10:30:22.000Z</time>
      </trkpt>
      <trkpt lat="44.00371" lon="7.20527">
        <ele>1428</ele>
        <time>2019-05-11T10:30:27.000Z</time>
      </trkpt>
      <trkpt lat="44.0037" lon="7.20528">
        <ele>1428.1999511719</ele>
        <time>2019-05-11T10:30:28.000Z</time>
      </trkpt>
      <trkpt lat="44.00368" lon="7.20534">
        <ele>1429.1999511719</ele>
        <time>2019-05-11T10:30:32.000Z</time>
      </trkpt>
      <trkpt lat="44.00367" lon="7.20535">
        <ele>1429.4000244141</ele>
        <time>2019-05-11T10:30:33.000Z</time>
      </trkpt>
      <trkpt lat="44.00367" lon="7.20538">
        <ele>1429.5999755859</ele>
        <time>2019-05-11T10:30:35.000Z</time>
      </trkpt>
      <trkpt lat="44.00365" lon="7.20546">
        <ele>1430.1999511719</ele>
        <time>2019-05-11T10:30:39.000Z</time>
      </trkpt>
      <trkpt lat="44.00365" lon="7.20547">
        <ele>1430.4000244141</ele>
        <time>2019-05-11T10:30:40.000Z</time>
      </trkpt>
      <trkpt lat="44.00363" lon="7.20554">
        <ele>1431.5999755859</ele>
        <time>2019-05-11T10:30:45.000Z</time>
      </trkpt>
      <trkpt lat="44.00362" lon="7.20556">
        <ele>1431.8000488281</ele>
        <time>2019-05-11T10:30:46.000Z</time>
      </trkpt>
      <trkpt lat="44.00361" lon="7.20563">
        <ele>1432.5999755859</ele>
        <time>2019-05-11T10:30:51.000Z</time>
      </trkpt>
      <trkpt lat="44.00361" lon="7.20564">
        <ele>1432.8000488281</ele>
        <time>2019-05-11T10:30:52.000Z</time>
      </trkpt>
      <trkpt lat="44.00359" lon="7.20575">
        <ele>1433.8000488281</ele>
        <time>2019-05-11T10:30:58.000Z</time>
      </trkpt>
      <trkpt lat="44.00355" lon="7.20588">
        <ele>1434.8000488281</ele>
        <time>2019-05-11T10:31:04.000Z</time>
      </trkpt>
      <trkpt lat="44.00354" lon="7.2059">
        <ele>1435.4000244141</ele>
        <time>2019-05-11T10:31:05.000Z</time>
      </trkpt>
      <trkpt lat="44.00353" lon="7.20592">
        <ele>1436.1999511719</ele>
        <time>2019-05-11T10:31:07.000Z</time>
      </trkpt>
      <trkpt lat="44.00351" lon="7.20596">
        <ele>1437.4000244141</ele>
        <time>2019-05-11T10:31:10.000Z</time>
      </trkpt>
      <trkpt lat="44.0035" lon="7.20598">
        <ele>1437.8000488281</ele>
        <time>2019-05-11T10:31:12.000Z</time>
      </trkpt>
      <trkpt lat="44.00347" lon="7.20603">
        <ele>1438.4000244141</ele>
        <time>2019-05-11T10:31:17.000Z</time>
      </trkpt>
      <trkpt lat="44.00344" lon="7.20608">
        <ele>1438.5999755859</ele>
        <time>2019-05-11T10:31:20.000Z</time>
      </trkpt>
      <trkpt lat="44.0034" lon="7.20617">
        <ele>1439</ele>
        <time>2019-05-11T10:31:26.000Z</time>
      </trkpt>
      <trkpt lat="44.00338" lon="7.20621">
        <ele>1439.4000244141</ele>
        <time>2019-05-11T10:31:29.000Z</time>
      </trkpt>
      <trkpt lat="44.00337" lon="7.20623">
        <ele>1439.8000488281</ele>
        <time>2019-05-11T10:31:31.000Z</time>
      </trkpt>
      <trkpt lat="44.00334" lon="7.20629">
        <ele>1440.5999755859</ele>
        <time>2019-05-11T10:31:35.000Z</time>
      </trkpt>
      <trkpt lat="44.00332" lon="7.20631">
        <ele>1441</ele>
        <time>2019-05-11T10:31:37.000Z</time>
      </trkpt>
      <trkpt lat="44.00329" lon="7.20635">
        <ele>1441.5999755859</ele>
        <time>2019-05-11T10:31:40.000Z</time>
      </trkpt>
      <trkpt lat="44.00326" lon="7.2064">
        <ele>1442.5999755859</ele>
        <time>2019-05-11T10:31:44.000Z</time>
      </trkpt>
      <trkpt lat="44.00324" lon="7.20642">
        <ele>1443</ele>
        <time>2019-05-11T10:31:46.000Z</time>
      </trkpt>
      <trkpt lat="44.00321" lon="7.20647">
        <ele>1443.8000488281</ele>
        <time>2019-05-11T10:31:50.000Z</time>
      </trkpt>
      <trkpt lat="44.00318" lon="7.20652">
        <ele>1444.4000244141</ele>
        <time>2019-05-11T10:31:54.000Z</time>
      </trkpt>
      <trkpt lat="44.00316" lon="7.20658">
        <ele>1445</ele>
        <time>2019-05-11T10:31:58.000Z</time>
      </trkpt>
      <trkpt lat="44.00314" lon="7.20661">
        <ele>1445.4000244141</ele>
        <time>2019-05-11T10:32:00.000Z</time>
      </trkpt>
      <trkpt lat="44.00312" lon="7.20665">
        <ele>1446.1999511719</ele>
        <time>2019-05-11T10:32:03.000Z</time>
      </trkpt>
      <trkpt lat="44.0031" lon="7.20669">
        <ele>1447</ele>
        <time>2019-05-11T10:32:06.000Z</time>
      </trkpt>
      <trkpt lat="44.00309" lon="7.20671">
        <ele>1447.1999511719</ele>
        <time>2019-05-11T10:32:07.000Z</time>
      </trkpt>
      <trkpt lat="44.00305" lon="7.20679">
        <ele>1448.4000244141</ele>
        <time>2019-05-11T10:32:13.000Z</time>
      </trkpt>
      <trkpt lat="44.00305" lon="7.2068">
        <ele>1448.5999755859</ele>
        <time>2019-05-11T10:32:14.000Z</time>
      </trkpt>
      <trkpt lat="44.00301" lon="7.20687">
        <ele>1449.4000244141</ele>
        <time>2019-05-11T10:32:19.000Z</time>
      </trkpt>
      <trkpt lat="44.00298" lon="7.20696">
        <ele>1450.1999511719</ele>
        <time>2019-05-11T10:32:25.000Z</time>
      </trkpt>
      <trkpt lat="44.00297" lon="7.20699">
        <ele>1450.5999755859</ele>
        <time>2019-05-11T10:32:27.000Z</time>
      </trkpt>
      <trkpt lat="44.00295" lon="7.20705">
        <ele>1451.1999511719</ele>
        <time>2019-05-11T10:32:31.000Z</time>
      </trkpt>
      <trkpt lat="44.00293" lon="7.20709">
        <ele>1451.5999755859</ele>
        <time>2019-05-11T10:32:34.000Z</time>
      </trkpt>
      <trkpt lat="44.0029" lon="7.20716">
        <ele>1452.4000244141</ele>
        <time>2019-05-11T10:32:39.000Z</time>
      </trkpt>
      <trkpt lat="44.00289" lon="7.20719">
        <ele>1453</ele>
        <time>2019-05-11T10:32:41.000Z</time>
      </trkpt>
      <trkpt lat="44.00287" lon="7.20724">
        <ele>1453.5999755859</ele>
        <time>2019-05-11T10:32:44.000Z</time>
      </trkpt>
      <trkpt lat="44.00287" lon="7.20725">
        <ele>1453.8000488281</ele>
        <time>2019-05-11T10:32:45.000Z</time>
      </trkpt>
      <trkpt lat="44.00287" lon="7.20727">
        <ele>1454</ele>
        <time>2019-05-11T10:32:46.000Z</time>
      </trkpt>
      <trkpt lat="44.00286" lon="7.20732">
        <ele>1454.5999755859</ele>
        <time>2019-05-11T10:32:49.000Z</time>
      </trkpt>
      <trkpt lat="44.00285" lon="7.20738">
        <ele>1455.1999511719</ele>
        <time>2019-05-11T10:32:53.000Z</time>
      </trkpt>
      <trkpt lat="44.00285" lon="7.20742">
        <ele>1455.4000244141</ele>
        <time>2019-05-11T10:32:55.000Z</time>
      </trkpt>
      <trkpt lat="44.00283" lon="7.20754">
        <ele>1456.1999511719</ele>
        <time>2019-05-11T10:33:01.000Z</time>
      </trkpt>
      <trkpt lat="44.00281" lon="7.20759">
        <ele>1457.1999511719</ele>
        <time>2019-05-11T10:33:06.000Z</time>
      </trkpt>
      <trkpt lat="44.00281" lon="7.2076">
        <ele>1457.4000244141</ele>
        <time>2019-05-11T10:33:07.000Z</time>
      </trkpt>
      <trkpt lat="44.00279" lon="7.20766">
        <ele>1458.4000244141</ele>
        <time>2019-05-11T10:33:12.000Z</time>
      </trkpt>
      <trkpt lat="44.00276" lon="7.20774">
        <ele>1459.4000244141</ele>
        <time>2019-05-11T10:33:20.000Z</time>
      </trkpt>
      <trkpt lat="44.00273" lon="7.2078">
        <ele>1460.4000244141</ele>
        <time>2019-05-11T10:33:27.000Z</time>
      </trkpt>
      <trkpt lat="44.00271" lon="7.20786">
        <ele>1461</ele>
        <time>2019-05-11T10:33:33.000Z</time>
      </trkpt>
      <trkpt lat="44.00271" lon="7.20789">
        <ele>1461.5999755859</ele>
        <time>2019-05-11T10:33:37.000Z</time>
      </trkpt>
      <trkpt lat="44.0027" lon="7.20791">
        <ele>1461.8000488281</ele>
        <time>2019-05-11T10:33:40.000Z</time>
      </trkpt>
      <trkpt lat="44.00268" lon="7.20799">
        <ele>1462.1999511719</ele>
        <time>2019-05-11T10:33:46.000Z</time>
      </trkpt>
      <trkpt lat="44.00267" lon="7.20803">
        <ele>1462.5999755859</ele>
        <time>2019-05-11T10:33:48.000Z</time>
      </trkpt>
      <trkpt lat="44.00265" lon="7.2081">
        <ele>1463.5999755859</ele>
        <time>2019-05-11T10:33:52.000Z</time>
      </trkpt>
      <trkpt lat="44.00264" lon="7.20814">
        <ele>1464.4000244141</ele>
        <time>2019-05-11T10:33:54.000Z</time>
      </trkpt>
      <trkpt lat="44.00264" lon="7.20815">
        <ele>1464.8000488281</ele>
        <time>2019-05-11T10:33:55.000Z</time>
      </trkpt>
      <trkpt lat="44.00261" lon="7.20825">
        <ele>1465.8000488281</ele>
        <time>2019-05-11T10:34:00.000Z</time>
      </trkpt>
      <trkpt lat="44.00261" lon="7.20827">
        <ele>1466</ele>
        <time>2019-05-11T10:34:01.000Z</time>
      </trkpt>
      <trkpt lat="44.00259" lon="7.20843">
        <ele>1466.8000488281</ele>
        <time>2019-05-11T10:34:08.000Z</time>
      </trkpt>
      <trkpt lat="44.0026" lon="7.20854">
        <ele>1466.5999755859</ele>
        <time>2019-05-11T10:34:12.000Z</time>
      </trkpt>
      <trkpt lat="44.00261" lon="7.20859">
        <ele>1466.5999755859</ele>
        <time>2019-05-11T10:34:14.000Z</time>
      </trkpt>
      <trkpt lat="44.00263" lon="7.20864">
        <ele>1466.8000488281</ele>
        <time>2019-05-11T10:34:16.000Z</time>
      </trkpt>
      <trkpt lat="44.00263" lon="7.20866">
        <ele>1466.8000488281</ele>
        <time>2019-05-11T10:34:17.000Z</time>
      </trkpt>
      <trkpt lat="44.00266" lon="7.2088">
        <ele>1466.8000488281</ele>
        <time>2019-05-11T10:34:21.000Z</time>
      </trkpt>
      <trkpt lat="44.00266" lon="7.20884">
        <ele>1466.1999511719</ele>
        <time>2019-05-11T10:34:25.000Z</time>
      </trkpt>
      <trkpt lat="44.00266" lon="7.20885">
        <ele>1465.8000488281</ele>
        <time>2019-05-11T10:34:28.000Z</time>
      </trkpt>
      <trkpt lat="44.00266" lon="7.20886">
        <ele>1466.1999511719</ele>
        <time>2019-05-11T10:34:34.000Z</time>
      </trkpt>
      <trkpt lat="44.00267" lon="7.20886">
        <ele>1465.4000244141</ele>
        <time>2019-05-11T10:34:40.000Z</time>
      </trkpt>
      <trkpt lat="44.00266" lon="7.20887">
        <ele>1465.4000244141</ele>
        <time>2019-05-11T10:34:48.000Z</time>
      </trkpt>
      <trkpt lat="44.00264" lon="7.20888">
        <ele>1465.5999755859</ele>
        <time>2019-05-11T10:35:08.000Z</time>
      </trkpt>
      <trkpt lat="44.00263" lon="7.20889">
        <ele>1466.1999511719</ele>
        <time>2019-05-11T10:35:17.000Z</time>
      </trkpt>
      <trkpt lat="44.00263" lon="7.2089">
        <ele>1465.5999755859</ele>
        <time>2019-05-11T10:35:24.000Z</time>
      </trkpt>
      <trkpt lat="44.00262" lon="7.20892">
        <ele>1466</ele>
        <time>2019-05-11T10:35:33.000Z</time>
      </trkpt>
      <trkpt lat="44.00261" lon="7.20893">
        <ele>1465.5999755859</ele>
        <time>2019-05-11T10:35:48.000Z</time>
      </trkpt>
      <trkpt lat="44.00261" lon="7.20895">
        <ele>1466.1999511719</ele>
        <time>2019-05-11T10:36:00.000Z</time>
      </trkpt>
      <trkpt lat="44.00261" lon="7.20895">
        <ele>1466.5999755859</ele>
        <time>2019-05-11T10:36:16.000Z</time>
      </trkpt>
      <trkpt lat="44.00259" lon="7.20895">
        <ele>1466.5999755859</ele>
        <time>2019-05-11T10:36:29.000Z</time>
      </trkpt>
      <trkpt lat="44.00258" lon="7.20896">
        <ele>1466</ele>
        <time>2019-05-11T10:36:42.000Z</time>
      </trkpt>
      <trkpt lat="44.00258" lon="7.20897">
        <ele>1466.5999755859</ele>
        <time>2019-05-11T10:36:52.000Z</time>
      </trkpt>
      <trkpt lat="44.00259" lon="7.20896">
        <ele>1466.1999511719</ele>
        <time>2019-05-11T10:37:15.000Z</time>
      </trkpt>
      <trkpt lat="44.0026" lon="7.20897">
        <ele>1466.4000244141</ele>
        <time>2019-05-11T10:37:35.000Z</time>
      </trkpt>
      <trkpt lat="44.00261" lon="7.20896">
        <ele>1466.5999755859</ele>
        <time>2019-05-11T10:37:46.000Z</time>
      </trkpt>
      <trkpt lat="44.00261" lon="7.20899">
        <ele>1465.8000488281</ele>
        <time>2019-05-11T10:37:53.000Z</time>
      </trkpt>
      <trkpt lat="44.00262" lon="7.20901">
        <ele>1465.4000244141</ele>
        <time>2019-05-11T10:37:59.000Z</time>
      </trkpt>
      <trkpt lat="44.00263" lon="7.20906">
        <ele>1465.5999755859</ele>
        <time>2019-05-11T10:38:05.000Z</time>
      </trkpt>
      <trkpt lat="44.00258" lon="7.20918">
        <ele>1465.5999755859</ele>
        <time>2019-05-11T10:38:10.000Z</time>
      </trkpt>
      <trkpt lat="44.00249" lon="7.2093">
        <ele>1464.5999755859</ele>
        <time>2019-05-11T10:38:14.000Z</time>
      </trkpt>
      <trkpt lat="44.00247" lon="7.20933">
        <ele>1464</ele>
        <time>2019-05-11T10:38:15.000Z</time>
      </trkpt>
      <trkpt lat="44.00243" lon="7.2094">
        <ele>1463.1999511719</ele>
        <time>2019-05-11T10:38:17.000Z</time>
      </trkpt>
      <trkpt lat="44.0024" lon="7.20948">
        <ele>1462.8000488281</ele>
        <time>2019-05-11T10:38:19.000Z</time>
      </trkpt>
      <trkpt lat="44.00237" lon="7.20952">
        <ele>1462.1999511719</ele>
        <time>2019-05-11T10:38:20.000Z</time>
      </trkpt>
      <trkpt lat="44.00229" lon="7.20962">
        <ele>1460.8000488281</ele>
        <time>2019-05-11T10:38:22.000Z</time>
      </trkpt>
      <trkpt lat="44.00222" lon="7.20966">
        <ele>1459.1999511719</ele>
        <time>2019-05-11T10:38:24.000Z</time>
      </trkpt>
      <trkpt lat="44.00219" lon="7.20965">
        <ele>1458.4000244141</ele>
        <time>2019-05-11T10:38:25.000Z</time>
      </trkpt>
      <trkpt lat="44.00219" lon="7.20963">
        <ele>1457.1999511719</ele>
        <time>2019-05-11T10:38:26.000Z</time>
      </trkpt>
      <trkpt lat="44.00222" lon="7.20955">
        <ele>1455.8000488281</ele>
        <time>2019-05-11T10:38:28.000Z</time>
      </trkpt>
      <trkpt lat="44.00227" lon="7.20943">
        <ele>1454.1999511719</ele>
        <time>2019-05-11T10:38:30.000Z</time>
      </trkpt>
      <trkpt lat="44.00228" lon="7.20936">
        <ele>1453.8000488281</ele>
        <time>2019-05-11T10:38:31.000Z</time>
      </trkpt>
      <trkpt lat="44.00229" lon="7.20927">
        <ele>1452.8000488281</ele>
        <time>2019-05-11T10:38:32.000Z</time>
      </trkpt>
      <trkpt lat="44.0023" lon="7.2091">
        <ele>1450.5999755859</ele>
        <time>2019-05-11T10:38:34.000Z</time>
      </trkpt>
      <trkpt lat="44.0023" lon="7.20902">
        <ele>1450</ele>
        <time>2019-05-11T10:38:35.000Z</time>
      </trkpt>
      <trkpt lat="44.00224" lon="7.20881">
        <ele>1450</ele>
        <time>2019-05-11T10:38:38.000Z</time>
      </trkpt>
      <trkpt lat="44.00208" lon="7.20855">
        <ele>1449.8000488281</ele>
        <time>2019-05-11T10:38:42.000Z</time>
      </trkpt>
      <trkpt lat="44.00205" lon="7.2085">
        <ele>1450</ele>
        <time>2019-05-11T10:38:43.000Z</time>
      </trkpt>
      <trkpt lat="44.00201" lon="7.20844">
        <ele>1449.5999755859</ele>
        <time>2019-05-11T10:38:45.000Z</time>
      </trkpt>
      <trkpt lat="44.002" lon="7.20844">
        <ele>1449.1999511719</ele>
        <time>2019-05-11T10:38:46.000Z</time>
      </trkpt>
      <trkpt lat="44.00201" lon="7.20846">
        <ele>1448.8000488281</ele>
        <time>2019-05-11T10:38:48.000Z</time>
      </trkpt>
      <trkpt lat="44.00202" lon="7.20861">
        <ele>1448.1999511719</ele>
        <time>2019-05-11T10:38:51.000Z</time>
      </trkpt>
      <trkpt lat="44.00202" lon="7.20868">
        <ele>1448.1999511719</ele>
        <time>2019-05-11T10:38:52.000Z</time>
      </trkpt>
      <trkpt lat="44.00199" lon="7.2089">
        <ele>1447.5999755859</ele>
        <time>2019-05-11T10:38:55.000Z</time>
      </trkpt>
      <trkpt lat="44.00192" lon="7.20901">
        <ele>1447.1999511719</ele>
        <time>2019-05-11T10:38:58.000Z</time>
      </trkpt>
      <trkpt lat="44.00189" lon="7.20897">
        <ele>1447</ele>
        <time>2019-05-11T10:39:00.000Z</time>
      </trkpt>
      <trkpt lat="44.0019" lon="7.20894">
        <ele>1446.8000488281</ele>
        <time>2019-05-11T10:39:01.000Z</time>
      </trkpt>
      <trkpt lat="44.00189" lon="7.20879">
        <ele>1446</ele>
        <time>2019-05-11T10:39:04.000Z</time>
      </trkpt>
      <trkpt lat="44.00181" lon="7.20862">
        <ele>1445.4000244141</ele>
        <time>2019-05-11T10:39:06.000Z</time>
      </trkpt>
      <trkpt lat="44.00172" lon="7.20853">
        <ele>1444.5999755859</ele>
        <time>2019-05-11T10:39:08.000Z</time>
      </trkpt>
      <trkpt lat="44.00166" lon="7.20852">
        <ele>1443.8000488281</ele>
        <time>2019-05-11T10:39:09.000Z</time>
      </trkpt>
      <trkpt lat="44.00162" lon="7.20852">
        <ele>1443.1999511719</ele>
        <time>2019-05-11T10:39:10.000Z</time>
      </trkpt>
      <trkpt lat="44.00154" lon="7.20858">
        <ele>1442.5999755859</ele>
        <time>2019-05-11T10:39:12.000Z</time>
      </trkpt>
      <trkpt lat="44.00149" lon="7.2086">
        <ele>1441.8000488281</ele>
        <time>2019-05-11T10:39:14.000Z</time>
      </trkpt>
      <trkpt lat="44.00149" lon="7.20856">
        <ele>1441.4000244141</ele>
        <time>2019-05-11T10:39:15.000Z</time>
      </trkpt>
      <trkpt lat="44.0015" lon="7.20852">
        <ele>1440.5999755859</ele>
        <time>2019-05-11T10:39:16.000Z</time>
      </trkpt>
      <trkpt lat="44.00151" lon="7.20846">
        <ele>1440</ele>
        <time>2019-05-11T10:39:17.000Z</time>
      </trkpt>
      <trkpt lat="44.00152" lon="7.2084">
        <ele>1438.4000244141</ele>
        <time>2019-05-11T10:39:18.000Z</time>
      </trkpt>
      <trkpt lat="44.00153" lon="7.20832">
        <ele>1437.5999755859</ele>
        <time>2019-05-11T10:39:19.000Z</time>
      </trkpt>
      <trkpt lat="44.00153" lon="7.20824">
        <ele>1437</ele>
        <time>2019-05-11T10:39:20.000Z</time>
      </trkpt>
      <trkpt lat="44.00153" lon="7.208">
        <ele>1436</ele>
        <time>2019-05-11T10:39:23.000Z</time>
      </trkpt>
      <trkpt lat="44.00142" lon="7.2078">
        <ele>1434.4000244141</ele>
        <time>2019-05-11T10:39:26.000Z</time>
      </trkpt>
      <trkpt lat="44.00138" lon="7.20773">
        <ele>1433.8000488281</ele>
        <time>2019-05-11T10:39:27.000Z</time>
      </trkpt>
      <trkpt lat="44.00134" lon="7.20757">
        <ele>1433.1999511719</ele>
        <time>2019-05-11T10:39:29.000Z</time>
      </trkpt>
      <trkpt lat="44.00134" lon="7.2075">
        <ele>1432.5999755859</ele>
        <time>2019-05-11T10:39:30.000Z</time>
      </trkpt>
      <trkpt lat="44.00133" lon="7.20748">
        <ele>1431.8000488281</ele>
        <time>2019-05-11T10:39:31.000Z</time>
      </trkpt>
      <trkpt lat="44.00131" lon="7.20749">
        <ele>1431.1999511719</ele>
        <time>2019-05-11T10:39:32.000Z</time>
      </trkpt>
      <trkpt lat="44.00129" lon="7.2076">
        <ele>1430.4000244141</ele>
        <time>2019-05-11T10:39:35.000Z</time>
      </trkpt>
      <trkpt lat="44.00127" lon="7.20781">
        <ele>1429</ele>
        <time>2019-05-11T10:39:38.000Z</time>
      </trkpt>
      <trkpt lat="44.00125" lon="7.20784">
        <ele>1427.5999755859</ele>
        <time>2019-05-11T10:39:39.000Z</time>
      </trkpt>
      <trkpt lat="44.00123" lon="7.20774">
        <ele>1426</ele>
        <time>2019-05-11T10:39:41.000Z</time>
      </trkpt>
      <trkpt lat="44.00121" lon="7.20768">
        <ele>1425.4000244141</ele>
        <time>2019-05-11T10:39:42.000Z</time>
      </trkpt>
      <trkpt lat="44.0012" lon="7.20761">
        <ele>1424.1999511719</ele>
        <time>2019-05-11T10:39:43.000Z</time>
      </trkpt>
      <trkpt lat="44.00117" lon="7.20755">
        <ele>1423.8000488281</ele>
        <time>2019-05-11T10:39:44.000Z</time>
      </trkpt>
      <trkpt lat="44.00114" lon="7.20748">
        <ele>1422.5999755859</ele>
        <time>2019-05-11T10:39:45.000Z</time>
      </trkpt>
      <trkpt lat="44.00112" lon="7.20742">
        <ele>1421.5999755859</ele>
        <time>2019-05-11T10:39:46.000Z</time>
      </trkpt>
      <trkpt lat="44.00108" lon="7.20738">
        <ele>1420.1999511719</ele>
        <time>2019-05-11T10:39:47.000Z</time>
      </trkpt>
      <trkpt lat="44.00104" lon="7.20733">
        <ele>1418.8000488281</ele>
        <time>2019-05-11T10:39:48.000Z</time>
      </trkpt>
      <trkpt lat="44.00098" lon="7.20725">
        <ele>1417.4000244141</ele>
        <time>2019-05-11T10:39:49.000Z</time>
      </trkpt>
      <trkpt lat="44.00089" lon="7.20713">
        <ele>1415.4000244141</ele>
        <time>2019-05-11T10:39:51.000Z</time>
      </trkpt>
      <trkpt lat="44.00085" lon="7.20707">
        <ele>1414.1999511719</ele>
        <time>2019-05-11T10:39:52.000Z</time>
      </trkpt>
      <trkpt lat="44.00081" lon="7.20701">
        <ele>1412.8000488281</ele>
        <time>2019-05-11T10:39:53.000Z</time>
      </trkpt>
      <trkpt lat="44.00076" lon="7.20696">
        <ele>1411.1999511719</ele>
        <time>2019-05-11T10:39:54.000Z</time>
      </trkpt>
      <trkpt lat="44.00072" lon="7.20691">
        <ele>1409.5999755859</ele>
        <time>2019-05-11T10:39:55.000Z</time>
      </trkpt>
      <trkpt lat="44.0007" lon="7.20688">
        <ele>1408.1999511719</ele>
        <time>2019-05-11T10:39:56.000Z</time>
      </trkpt>
      <trkpt lat="44.00071" lon="7.20688">
        <ele>1406.8000488281</ele>
        <time>2019-05-11T10:39:57.000Z</time>
      </trkpt>
      <trkpt lat="44.00071" lon="7.20691">
        <ele>1405.8000488281</ele>
        <time>2019-05-11T10:39:58.000Z</time>
      </trkpt>
      <trkpt lat="44.00072" lon="7.20693">
        <ele>1404.5999755859</ele>
        <time>2019-05-11T10:39:59.000Z</time>
      </trkpt>
      <trkpt lat="44.00073" lon="7.20697">
        <ele>1403.5999755859</ele>
        <time>2019-05-11T10:40:00.000Z</time>
      </trkpt>
      <trkpt lat="44.00074" lon="7.20702">
        <ele>1402.1999511719</ele>
        <time>2019-05-11T10:40:01.000Z</time>
      </trkpt>
      <trkpt lat="44.00077" lon="7.20708">
        <ele>1401</ele>
        <time>2019-05-11T10:40:02.000Z</time>
      </trkpt>
      <trkpt lat="44.00078" lon="7.20712">
        <ele>1400.1999511719</ele>
        <time>2019-05-11T10:40:03.000Z</time>
      </trkpt>
      <trkpt lat="44.00078" lon="7.20715">
        <ele>1399.1999511719</ele>
        <time>2019-05-11T10:40:04.000Z</time>
      </trkpt>
      <trkpt lat="44.00074" lon="7.2071">
        <ele>1397.5999755859</ele>
        <time>2019-05-11T10:40:06.000Z</time>
      </trkpt>
      <trkpt lat="44.00069" lon="7.20706">
        <ele>1396.5999755859</ele>
        <time>2019-05-11T10:40:08.000Z</time>
      </trkpt>
      <trkpt lat="44.00063" lon="7.20699">
        <ele>1394.8000488281</ele>
        <time>2019-05-11T10:40:10.000Z</time>
      </trkpt>
      <trkpt lat="44.00059" lon="7.20696">
        <ele>1393.5999755859</ele>
        <time>2019-05-11T10:40:11.000Z</time>
      </trkpt>
      <trkpt lat="44.00054" lon="7.20693">
        <ele>1392.4000244141</ele>
        <time>2019-05-11T10:40:12.000Z</time>
      </trkpt>
      <trkpt lat="44.00048" lon="7.20691">
        <ele>1391</ele>
        <time>2019-05-11T10:40:13.000Z</time>
      </trkpt>
      <trkpt lat="44.00042" lon="7.2069">
        <ele>1389.8000488281</ele>
        <time>2019-05-11T10:40:14.000Z</time>
      </trkpt>
      <trkpt lat="44.00038" lon="7.20688">
        <ele>1388.8000488281</ele>
        <time>2019-05-11T10:40:15.000Z</time>
      </trkpt>
      <trkpt lat="44.00033" lon="7.20687">
        <ele>1387.4000244141</ele>
        <time>2019-05-11T10:40:16.000Z</time>
      </trkpt>
      <trkpt lat="44.00028" lon="7.20685">
        <ele>1386.1999511719</ele>
        <time>2019-05-11T10:40:17.000Z</time>
      </trkpt>
      <trkpt lat="44.00022" lon="7.20681">
        <ele>1384.4000244141</ele>
        <time>2019-05-11T10:40:18.000Z</time>
      </trkpt>
      <trkpt lat="44.00016" lon="7.20677">
        <ele>1383.4000244141</ele>
        <time>2019-05-11T10:40:19.000Z</time>
      </trkpt>
      <trkpt lat="44.0001" lon="7.20675">
        <ele>1382.1999511719</ele>
        <time>2019-05-11T10:40:20.000Z</time>
      </trkpt>
      <trkpt lat="44.00005" lon="7.20671">
        <ele>1381</ele>
        <time>2019-05-11T10:40:21.000Z</time>
      </trkpt>
      <trkpt lat="43.99999" lon="7.20669">
        <ele>1379.5999755859</ele>
        <time>2019-05-11T10:40:22.000Z</time>
      </trkpt>
      <trkpt lat="43.99993" lon="7.20666">
        <ele>1378.4000244141</ele>
        <time>2019-05-11T10:40:23.000Z</time>
      </trkpt>
      <trkpt lat="43.99986" lon="7.20663">
        <ele>1376.4000244141</ele>
        <time>2019-05-11T10:40:24.000Z</time>
      </trkpt>
      <trkpt lat="43.99981" lon="7.2066">
        <ele>1374.8000488281</ele>
        <time>2019-05-11T10:40:25.000Z</time>
      </trkpt>
      <trkpt lat="43.99975" lon="7.20654">
        <ele>1373.4000244141</ele>
        <time>2019-05-11T10:40:26.000Z</time>
      </trkpt>
      <trkpt lat="43.99968" lon="7.20649">
        <ele>1371.8000488281</ele>
        <time>2019-05-11T10:40:27.000Z</time>
      </trkpt>
      <trkpt lat="43.99962" lon="7.20645">
        <ele>1370.4000244141</ele>
        <time>2019-05-11T10:40:28.000Z</time>
      </trkpt>
      <trkpt lat="43.99956" lon="7.2064">
        <ele>1369.1999511719</ele>
        <time>2019-05-11T10:40:29.000Z</time>
      </trkpt>
      <trkpt lat="43.9995" lon="7.20635">
        <ele>1367.1999511719</ele>
        <time>2019-05-11T10:40:30.000Z</time>
      </trkpt>
      <trkpt lat="43.99945" lon="7.2063">
        <ele>1366</ele>
        <time>2019-05-11T10:40:31.000Z</time>
      </trkpt>
      <trkpt lat="43.99937" lon="7.20622">
        <ele>1364</ele>
        <time>2019-05-11T10:40:33.000Z</time>
      </trkpt>
      <trkpt lat="43.99927" lon="7.20622">
        <ele>1362.8000488281</ele>
        <time>2019-05-11T10:40:35.000Z</time>
      </trkpt>
      <trkpt lat="43.99921" lon="7.20623">
        <ele>1361.4000244141</ele>
        <time>2019-05-11T10:40:36.000Z</time>
      </trkpt>
      <trkpt lat="43.99917" lon="7.20624">
        <ele>1360.1999511719</ele>
        <time>2019-05-11T10:40:37.000Z</time>
      </trkpt>
      <trkpt lat="43.99912" lon="7.20627">
        <ele>1358.5999755859</ele>
        <time>2019-05-11T10:40:38.000Z</time>
      </trkpt>
      <trkpt lat="43.99906" lon="7.20628">
        <ele>1357.1999511719</ele>
        <time>2019-05-11T10:40:39.000Z</time>
      </trkpt>
      <trkpt lat="43.999" lon="7.20625">
        <ele>1355.4000244141</ele>
        <time>2019-05-11T10:40:40.000Z</time>
      </trkpt>
      <trkpt lat="43.99894" lon="7.20622">
        <ele>1353.5999755859</ele>
        <time>2019-05-11T10:40:41.000Z</time>
      </trkpt>
      <trkpt lat="43.99888" lon="7.20617">
        <ele>1352.1999511719</ele>
        <time>2019-05-11T10:40:42.000Z</time>
      </trkpt>
      <trkpt lat="43.99884" lon="7.20614">
        <ele>1350.8000488281</ele>
        <time>2019-05-11T10:40:43.000Z</time>
      </trkpt>
      <trkpt lat="43.99873" lon="7.2061">
        <ele>1349</ele>
        <time>2019-05-11T10:40:45.000Z</time>
      </trkpt>
      <trkpt lat="43.99868" lon="7.20609">
        <ele>1348.4000244141</ele>
        <time>2019-05-11T10:40:46.000Z</time>
      </trkpt>
      <trkpt lat="43.99864" lon="7.20606">
        <ele>1347.5999755859</ele>
        <time>2019-05-11T10:40:47.000Z</time>
      </trkpt>
      <trkpt lat="43.99855" lon="7.20603">
        <ele>1346.8000488281</ele>
        <time>2019-05-11T10:40:49.000Z</time>
      </trkpt>
      <trkpt lat="43.9985" lon="7.20602">
        <ele>1346.4000244141</ele>
        <time>2019-05-11T10:40:50.000Z</time>
      </trkpt>
      <trkpt lat="43.99842" lon="7.20602">
        <ele>1345.1999511719</ele>
        <time>2019-05-11T10:40:52.000Z</time>
      </trkpt>
      <trkpt lat="43.99837" lon="7.20602">
        <ele>1344</ele>
        <time>2019-05-11T10:40:53.000Z</time>
      </trkpt>
      <trkpt lat="43.99831" lon="7.20603">
        <ele>1343.1999511719</ele>
        <time>2019-05-11T10:40:54.000Z</time>
      </trkpt>
      <trkpt lat="43.99825" lon="7.20603">
        <ele>1342.8000488281</ele>
        <time>2019-05-11T10:40:55.000Z</time>
      </trkpt>
      <trkpt lat="43.99818" lon="7.20603">
        <ele>1342</ele>
        <time>2019-05-11T10:40:56.000Z</time>
      </trkpt>
      <trkpt lat="43.9981" lon="7.206">
        <ele>1341.1999511719</ele>
        <time>2019-05-11T10:40:57.000Z</time>
      </trkpt>
      <trkpt lat="43.99804" lon="7.20599">
        <ele>1340.4000244141</ele>
        <time>2019-05-11T10:40:58.000Z</time>
      </trkpt>
      <trkpt lat="43.99798" lon="7.20596">
        <ele>1339.1999511719</ele>
        <time>2019-05-11T10:40:59.000Z</time>
      </trkpt>
      <trkpt lat="43.99791" lon="7.20593">
        <ele>1338</ele>
        <time>2019-05-11T10:41:00.000Z</time>
      </trkpt>
      <trkpt lat="43.99784" lon="7.20593">
        <ele>1336.5999755859</ele>
        <time>2019-05-11T10:41:01.000Z</time>
      </trkpt>
      <trkpt lat="43.99777" lon="7.20593">
        <ele>1335.1999511719</ele>
        <time>2019-05-11T10:41:02.000Z</time>
      </trkpt>
      <trkpt lat="43.99771" lon="7.20593">
        <ele>1334</ele>
        <time>2019-05-11T10:41:03.000Z</time>
      </trkpt>
      <trkpt lat="43.99765" lon="7.20592">
        <ele>1333</ele>
        <time>2019-05-11T10:41:04.000Z</time>
      </trkpt>
      <trkpt lat="43.9976" lon="7.20592">
        <ele>1331.8000488281</ele>
        <time>2019-05-11T10:41:05.000Z</time>
      </trkpt>
      <trkpt lat="43.99748" lon="7.2059">
        <ele>1329.8000488281</ele>
        <time>2019-05-11T10:41:07.000Z</time>
      </trkpt>
      <trkpt lat="43.99743" lon="7.20589">
        <ele>1328.4000244141</ele>
        <time>2019-05-11T10:41:08.000Z</time>
      </trkpt>
      <trkpt lat="43.99738" lon="7.20585">
        <ele>1326.8000488281</ele>
        <time>2019-05-11T10:41:09.000Z</time>
      </trkpt>
      <trkpt lat="43.99733" lon="7.20584">
        <ele>1325.4000244141</ele>
        <time>2019-05-11T10:41:10.000Z</time>
      </trkpt>
      <trkpt lat="43.99727" lon="7.20585">
        <ele>1323.8000488281</ele>
        <time>2019-05-11T10:41:11.000Z</time>
      </trkpt>
      <trkpt lat="43.99722" lon="7.20585">
        <ele>1322.1999511719</ele>
        <time>2019-05-11T10:41:12.000Z</time>
      </trkpt>
      <trkpt lat="43.99716" lon="7.20585">
        <ele>1320.8000488281</ele>
        <time>2019-05-11T10:41:13.000Z</time>
      </trkpt>
      <trkpt lat="43.99709" lon="7.20587">
        <ele>1319</ele>
        <time>2019-05-11T10:41:14.000Z</time>
      </trkpt>
      <trkpt lat="43.99702" lon="7.20588">
        <ele>1317.4000244141</ele>
        <time>2019-05-11T10:41:15.000Z</time>
      </trkpt>
      <trkpt lat="43.99696" lon="7.20588">
        <ele>1315.4000244141</ele>
        <time>2019-05-11T10:41:16.000Z</time>
      </trkpt>
      <trkpt lat="43.99692" lon="7.20588">
        <ele>1313.4000244141</ele>
        <time>2019-05-11T10:41:17.000Z</time>
      </trkpt>
      <trkpt lat="43.99689" lon="7.20589">
        <ele>1311.8000488281</ele>
        <time>2019-05-11T10:41:18.000Z</time>
      </trkpt>
      <trkpt lat="43.99688" lon="7.2059">
        <ele>1310.1999511719</ele>
        <time>2019-05-11T10:41:19.000Z</time>
      </trkpt>
      <trkpt lat="43.99688" lon="7.20593">
        <ele>1308.8000488281</ele>
        <time>2019-05-11T10:41:20.000Z</time>
      </trkpt>
      <trkpt lat="43.99689" lon="7.20594">
        <ele>1307.4000244141</ele>
        <time>2019-05-11T10:41:21.000Z</time>
      </trkpt>
      <trkpt lat="43.99691" lon="7.20597">
        <ele>1306.8000488281</ele>
        <time>2019-05-11T10:41:22.000Z</time>
      </trkpt>
      <trkpt lat="43.99695" lon="7.20598">
        <ele>1305.4000244141</ele>
        <time>2019-05-11T10:41:23.000Z</time>
      </trkpt>
      <trkpt lat="43.99703" lon="7.20601">
        <ele>1303.1999511719</ele>
        <time>2019-05-11T10:41:25.000Z</time>
      </trkpt>
      <trkpt lat="43.99703" lon="7.20602">
        <ele>1302</ele>
        <time>2019-05-11T10:41:26.000Z</time>
      </trkpt>
      <trkpt lat="43.99702" lon="7.20603">
        <ele>1301</ele>
        <time>2019-05-11T10:41:27.000Z</time>
      </trkpt>
      <trkpt lat="43.99701" lon="7.20602">
        <ele>1300</ele>
        <time>2019-05-11T10:41:29.000Z</time>
      </trkpt>
      <trkpt lat="43.997" lon="7.20602">
        <ele>1298.4000244141</ele>
        <time>2019-05-11T10:41:31.000Z</time>
      </trkpt>
      <trkpt lat="43.997" lon="7.20602">
        <ele>1297.1999511719</ele>
        <time>2019-05-11T10:41:33.000Z</time>
      </trkpt>
      <trkpt lat="43.99698" lon="7.20601">
        <ele>1296.4000244141</ele>
        <time>2019-05-11T10:41:36.000Z</time>
      </trkpt>
      <trkpt lat="43.99693" lon="7.20601">
        <ele>1296.4000244141</ele>
        <time>2019-05-11T10:41:39.000Z</time>
      </trkpt>
      <trkpt lat="43.99691" lon="7.206">
        <ele>1296.1999511719</ele>
        <time>2019-05-11T10:41:40.000Z</time>
      </trkpt>
      <trkpt lat="43.99683" lon="7.20602">
        <ele>1294.8000488281</ele>
        <time>2019-05-11T10:41:43.000Z</time>
      </trkpt>
      <trkpt lat="43.99681" lon="7.20604">
        <ele>1293.5999755859</ele>
        <time>2019-05-11T10:41:45.000Z</time>
      </trkpt>
      <trkpt lat="43.99681" lon="7.20606">
        <ele>1293</ele>
        <time>2019-05-11T10:41:46.000Z</time>
      </trkpt>
      <trkpt lat="43.99681" lon="7.20607">
        <ele>1292.5999755859</ele>
        <time>2019-05-11T10:41:47.000Z</time>
      </trkpt>
      <trkpt lat="43.99682" lon="7.20608">
        <ele>1292.1999511719</ele>
        <time>2019-05-11T10:41:48.000Z</time>
      </trkpt>
      <trkpt lat="43.99684" lon="7.2061">
        <ele>1291.1999511719</ele>
        <time>2019-05-11T10:41:50.000Z</time>
      </trkpt>
      <trkpt lat="43.99686" lon="7.20612">
        <ele>1290.1999511719</ele>
        <time>2019-05-11T10:41:52.000Z</time>
      </trkpt>
      <trkpt lat="43.99686" lon="7.20615">
        <ele>1289</ele>
        <time>2019-05-11T10:41:54.000Z</time>
      </trkpt>
      <trkpt lat="43.99685" lon="7.20617">
        <ele>1288</ele>
        <time>2019-05-11T10:41:56.000Z</time>
      </trkpt>
      <trkpt lat="43.99684" lon="7.20617">
        <ele>1287.4000244141</ele>
        <time>2019-05-11T10:41:58.000Z</time>
      </trkpt>
      <trkpt lat="43.99683" lon="7.20617">
        <ele>1287</ele>
        <time>2019-05-11T10:42:00.000Z</time>
      </trkpt>
      <trkpt lat="43.99683" lon="7.20617">
        <ele>1286.8000488281</ele>
        <time>2019-05-11T10:42:01.000Z</time>
      </trkpt>
      <trkpt lat="43.99683" lon="7.20619">
        <ele>1285.8000488281</ele>
        <time>2019-05-11T10:42:08.000Z</time>
      </trkpt>
      <trkpt lat="43.9968" lon="7.20621">
        <ele>1286</ele>
        <time>2019-05-11T10:42:13.000Z</time>
      </trkpt>
      <trkpt lat="43.9968" lon="7.20623">
        <ele>1285.8000488281</ele>
        <time>2019-05-11T10:42:19.000Z</time>
      </trkpt>
      <trkpt lat="43.9968" lon="7.20623">
        <ele>1285.8000488281</ele>
        <time>2019-05-11T10:42:20.000Z</time>
      </trkpt>
      <trkpt lat="43.99676" lon="7.20625">
        <ele>1285</ele>
        <time>2019-05-11T10:42:26.000Z</time>
      </trkpt>
      <trkpt lat="43.99671" lon="7.20626">
        <ele>1284.5999755859</ele>
        <time>2019-05-11T10:42:28.000Z</time>
      </trkpt>
      <trkpt lat="43.99668" lon="7.20625">
        <ele>1284.4000244141</ele>
        <time>2019-05-11T10:42:29.000Z</time>
      </trkpt>
      <trkpt lat="43.99664" lon="7.20622">
        <ele>1284.1999511719</ele>
        <time>2019-05-11T10:42:30.000Z</time>
      </trkpt>
      <trkpt lat="43.99657" lon="7.20615">
        <ele>1283.1999511719</ele>
        <time>2019-05-11T10:42:32.000Z</time>
      </trkpt>
      <trkpt lat="43.99654" lon="7.20614">
        <ele>1281.5999755859</ele>
        <time>2019-05-11T10:42:34.000Z</time>
      </trkpt>
      <trkpt lat="43.99653" lon="7.20616">
        <ele>1280.4000244141</ele>
        <time>2019-05-11T10:42:35.000Z</time>
      </trkpt>
      <trkpt lat="43.99653" lon="7.20619">
        <ele>1279.4000244141</ele>
        <time>2019-05-11T10:42:36.000Z</time>
      </trkpt>
      <trkpt lat="43.99653" lon="7.20623">
        <ele>1278.1999511719</ele>
        <time>2019-05-11T10:42:37.000Z</time>
      </trkpt>
      <trkpt lat="43.99652" lon="7.20624">
        <ele>1277.5999755859</ele>
        <time>2019-05-11T10:42:38.000Z</time>
      </trkpt>
      <trkpt lat="43.9965" lon="7.20623">
        <ele>1276.8000488281</ele>
        <time>2019-05-11T10:42:39.000Z</time>
      </trkpt>
      <trkpt lat="43.99646" lon="7.20615">
        <ele>1275.8000488281</ele>
        <time>2019-05-11T10:42:41.000Z</time>
      </trkpt>
      <trkpt lat="43.99643" lon="7.2061">
        <ele>1275.1999511719</ele>
        <time>2019-05-11T10:42:42.000Z</time>
      </trkpt>
      <trkpt lat="43.99637" lon="7.20603">
        <ele>1274.1999511719</ele>
        <time>2019-05-11T10:42:44.000Z</time>
      </trkpt>
      <trkpt lat="43.99634" lon="7.20603">
        <ele>1273.8000488281</ele>
        <time>2019-05-11T10:42:45.000Z</time>
      </trkpt>
      <trkpt lat="43.99626" lon="7.20605">
        <ele>1272.5999755859</ele>
        <time>2019-05-11T10:42:47.000Z</time>
      </trkpt>
      <trkpt lat="43.99616" lon="7.2061">
        <ele>1271.1999511719</ele>
        <time>2019-05-11T10:42:49.000Z</time>
      </trkpt>
      <trkpt lat="43.99611" lon="7.20612">
        <ele>1270</ele>
        <time>2019-05-11T10:42:50.000Z</time>
      </trkpt>
      <trkpt lat="43.99606" lon="7.20615">
        <ele>1268.8000488281</ele>
        <time>2019-05-11T10:42:51.000Z</time>
      </trkpt>
      <trkpt lat="43.99592" lon="7.20619">
        <ele>1267</ele>
        <time>2019-05-11T10:42:53.000Z</time>
      </trkpt>
      <trkpt lat="43.99585" lon="7.20621">
        <ele>1265.1999511719</ele>
        <time>2019-05-11T10:42:54.000Z</time>
      </trkpt>
      <trkpt lat="43.99579" lon="7.20623">
        <ele>1264</ele>
        <time>2019-05-11T10:42:55.000Z</time>
      </trkpt>
      <trkpt lat="43.99573" lon="7.20623">
        <ele>1262.1999511719</ele>
        <time>2019-05-11T10:42:56.000Z</time>
      </trkpt>
      <trkpt lat="43.99569" lon="7.20622">
        <ele>1261</ele>
        <time>2019-05-11T10:42:57.000Z</time>
      </trkpt>
      <trkpt lat="43.99558" lon="7.20616">
        <ele>1259</ele>
        <time>2019-05-11T10:42:59.000Z</time>
      </trkpt>
      <trkpt lat="43.99552" lon="7.20614">
        <ele>1257.8000488281</ele>
        <time>2019-05-11T10:43:00.000Z</time>
      </trkpt>
      <trkpt lat="43.9954" lon="7.20609">
        <ele>1255.8000488281</ele>
        <time>2019-05-11T10:43:02.000Z</time>
      </trkpt>
      <trkpt lat="43.99535" lon="7.20606">
        <ele>1254.4000244141</ele>
        <time>2019-05-11T10:43:03.000Z</time>
      </trkpt>
      <trkpt lat="43.99527" lon="7.20601">
        <ele>1252.5999755859</ele>
        <time>2019-05-11T10:43:05.000Z</time>
      </trkpt>
      <trkpt lat="43.99523" lon="7.20599">
        <ele>1251.5999755859</ele>
        <time>2019-05-11T10:43:06.000Z</time>
      </trkpt>
      <trkpt lat="43.99519" lon="7.206">
        <ele>1250.8000488281</ele>
        <time>2019-05-11T10:43:07.000Z</time>
      </trkpt>
      <trkpt lat="43.99516" lon="7.20602">
        <ele>1249.8000488281</ele>
        <time>2019-05-11T10:43:08.000Z</time>
      </trkpt>
      <trkpt lat="43.99512" lon="7.20603">
        <ele>1248.4000244141</ele>
        <time>2019-05-11T10:43:09.000Z</time>
      </trkpt>
      <trkpt lat="43.99503" lon="7.20604">
        <ele>1246.8000488281</ele>
        <time>2019-05-11T10:43:11.000Z</time>
      </trkpt>
      <trkpt lat="43.99495" lon="7.20607">
        <ele>1245.4000244141</ele>
        <time>2019-05-11T10:43:13.000Z</time>
      </trkpt>
      <trkpt lat="43.99491" lon="7.20609">
        <ele>1244.8000488281</ele>
        <time>2019-05-11T10:43:14.000Z</time>
      </trkpt>
      <trkpt lat="43.99487" lon="7.20611">
        <ele>1244</ele>
        <time>2019-05-11T10:43:15.000Z</time>
      </trkpt>
      <trkpt lat="43.99482" lon="7.20615">
        <ele>1242.4000244141</ele>
        <time>2019-05-11T10:43:17.000Z</time>
      </trkpt>
      <trkpt lat="43.99477" lon="7.20619">
        <ele>1241.8000488281</ele>
        <time>2019-05-11T10:43:18.000Z</time>
      </trkpt>
      <trkpt lat="43.99473" lon="7.20623">
        <ele>1241.1999511719</ele>
        <time>2019-05-11T10:43:19.000Z</time>
      </trkpt>
      <trkpt lat="43.99468" lon="7.20626">
        <ele>1240.8000488281</ele>
        <time>2019-05-11T10:43:20.000Z</time>
      </trkpt>
      <trkpt lat="43.99464" lon="7.20629">
        <ele>1239.8000488281</ele>
        <time>2019-05-11T10:43:21.000Z</time>
      </trkpt>
      <trkpt lat="43.9946" lon="7.20632">
        <ele>1239.1999511719</ele>
        <time>2019-05-11T10:43:22.000Z</time>
      </trkpt>
      <trkpt lat="43.99456" lon="7.20635">
        <ele>1238.1999511719</ele>
        <time>2019-05-11T10:43:23.000Z</time>
      </trkpt>
      <trkpt lat="43.99457" lon="7.20636">
        <ele>1237.4000244141</ele>
        <time>2019-05-11T10:43:24.000Z</time>
      </trkpt>
      <trkpt lat="43.99457" lon="7.20636">
        <ele>1236</ele>
        <time>2019-05-11T10:43:25.000Z</time>
      </trkpt>
      <trkpt lat="43.99459" lon="7.20635">
        <ele>1235.1999511719</ele>
        <time>2019-05-11T10:43:26.000Z</time>
      </trkpt>
      <trkpt lat="43.99462" lon="7.20635">
        <ele>1234.4000244141</ele>
        <time>2019-05-11T10:43:27.000Z</time>
      </trkpt>
      <trkpt lat="43.99466" lon="7.20635">
        <ele>1234</ele>
        <time>2019-05-11T10:43:28.000Z</time>
      </trkpt>
      <trkpt lat="43.99469" lon="7.20635">
        <ele>1233.1999511719</ele>
        <time>2019-05-11T10:43:29.000Z</time>
      </trkpt>
      <trkpt lat="43.99477" lon="7.20635">
        <ele>1232</ele>
        <time>2019-05-11T10:43:31.000Z</time>
      </trkpt>
      <trkpt lat="43.99481" lon="7.20635">
        <ele>1231.1999511719</ele>
        <time>2019-05-11T10:43:32.000Z</time>
      </trkpt>
      <trkpt lat="43.99485" lon="7.20636">
        <ele>1230.1999511719</ele>
        <time>2019-05-11T10:43:33.000Z</time>
      </trkpt>
      <trkpt lat="43.99485" lon="7.20637">
        <ele>1229.1999511719</ele>
        <time>2019-05-11T10:43:35.000Z</time>
      </trkpt>
      <trkpt lat="43.99483" lon="7.20639">
        <ele>1228.4000244141</ele>
        <time>2019-05-11T10:43:36.000Z</time>
      </trkpt>
      <trkpt lat="43.9948" lon="7.20641">
        <ele>1228</ele>
        <time>2019-05-11T10:43:37.000Z</time>
      </trkpt>
      <trkpt lat="43.99475" lon="7.20644">
        <ele>1227.5999755859</ele>
        <time>2019-05-11T10:43:38.000Z</time>
      </trkpt>
      <trkpt lat="43.99469" lon="7.20647">
        <ele>1226.8000488281</ele>
        <time>2019-05-11T10:43:39.000Z</time>
      </trkpt>
      <trkpt lat="43.99456" lon="7.20656">
        <ele>1225</ele>
        <time>2019-05-11T10:43:41.000Z</time>
      </trkpt>
      <trkpt lat="43.9945" lon="7.20661">
        <ele>1224</ele>
        <time>2019-05-11T10:43:42.000Z</time>
      </trkpt>
      <trkpt lat="43.99444" lon="7.20666">
        <ele>1223</ele>
        <time>2019-05-11T10:43:43.000Z</time>
      </trkpt>
      <trkpt lat="43.99438" lon="7.2067">
        <ele>1221.8000488281</ele>
        <time>2019-05-11T10:43:44.000Z</time>
      </trkpt>
      <trkpt lat="43.99432" lon="7.20674">
        <ele>1220.8000488281</ele>
        <time>2019-05-11T10:43:45.000Z</time>
      </trkpt>
      <trkpt lat="43.99425" lon="7.20679">
        <ele>1220.4000244141</ele>
        <time>2019-05-11T10:43:46.000Z</time>
      </trkpt>
      <trkpt lat="43.9942" lon="7.20683">
        <ele>1218.4000244141</ele>
        <time>2019-05-11T10:43:47.000Z</time>
      </trkpt>
      <trkpt lat="43.99414" lon="7.20687">
        <ele>1216.8000488281</ele>
        <time>2019-05-11T10:43:48.000Z</time>
      </trkpt>
      <trkpt lat="43.9941" lon="7.2069">
        <ele>1215.8000488281</ele>
        <time>2019-05-11T10:43:49.000Z</time>
      </trkpt>
      <trkpt lat="43.99409" lon="7.20691">
        <ele>1215.5999755859</ele>
        <time>2019-05-11T10:43:50.000Z</time>
      </trkpt>
      <trkpt lat="43.99408" lon="7.20693">
        <ele>1214.1999511719</ele>
        <time>2019-05-11T10:43:51.000Z</time>
      </trkpt>
      <trkpt lat="43.9941" lon="7.20693">
        <ele>1212.5999755859</ele>
        <time>2019-05-11T10:43:53.000Z</time>
      </trkpt>
      <trkpt lat="43.99412" lon="7.20692">
        <ele>1212</ele>
        <time>2019-05-11T10:43:54.000Z</time>
      </trkpt>
      <trkpt lat="43.99414" lon="7.20692">
        <ele>1210.5999755859</ele>
        <time>2019-05-11T10:43:55.000Z</time>
      </trkpt>
      <trkpt lat="43.99419" lon="7.20691">
        <ele>1209.5999755859</ele>
        <time>2019-05-11T10:43:57.000Z</time>
      </trkpt>
      <trkpt lat="43.99428" lon="7.20689">
        <ele>1208.1999511719</ele>
        <time>2019-05-11T10:43:59.000Z</time>
      </trkpt>
      <trkpt lat="43.99439" lon="7.20689">
        <ele>1206.8000488281</ele>
        <time>2019-05-11T10:44:01.000Z</time>
      </trkpt>
      <trkpt lat="43.99452" lon="7.20688">
        <ele>1205.1999511719</ele>
        <time>2019-05-11T10:44:03.000Z</time>
      </trkpt>
      <trkpt lat="43.99458" lon="7.20687">
        <ele>1204.1999511719</ele>
        <time>2019-05-11T10:44:04.000Z</time>
      </trkpt>
      <trkpt lat="43.99469" lon="7.20686">
        <ele>1202.8000488281</ele>
        <time>2019-05-11T10:44:07.000Z</time>
      </trkpt>
      <trkpt lat="43.9947" lon="7.2069">
        <ele>1201.4000244141</ele>
        <time>2019-05-11T10:44:10.000Z</time>
      </trkpt>
      <trkpt lat="43.99463" lon="7.20696">
        <ele>1200.1999511719</ele>
        <time>2019-05-11T10:44:13.000Z</time>
      </trkpt>
      <trkpt lat="43.99459" lon="7.20698">
        <ele>1199.5999755859</ele>
        <time>2019-05-11T10:44:14.000Z</time>
      </trkpt>
      <trkpt lat="43.99447" lon="7.20704">
        <ele>1198.8000488281</ele>
        <time>2019-05-11T10:44:16.000Z</time>
      </trkpt>
      <trkpt lat="43.99436" lon="7.20708">
        <ele>1197.5999755859</ele>
        <time>2019-05-11T10:44:18.000Z</time>
      </trkpt>
      <trkpt lat="43.99424" lon="7.20715">
        <ele>1195.4000244141</ele>
        <time>2019-05-11T10:44:20.000Z</time>
      </trkpt>
      <trkpt lat="43.99418" lon="7.2072">
        <ele>1194.4000244141</ele>
        <time>2019-05-11T10:44:21.000Z</time>
      </trkpt>
      <trkpt lat="43.99412" lon="7.20724">
        <ele>1192.8000488281</ele>
        <time>2019-05-11T10:44:22.000Z</time>
      </trkpt>
      <trkpt lat="43.99406" lon="7.20729">
        <ele>1191.8000488281</ele>
        <time>2019-05-11T10:44:23.000Z</time>
      </trkpt>
      <trkpt lat="43.99395" lon="7.20737">
        <ele>1190.8000488281</ele>
        <time>2019-05-11T10:44:25.000Z</time>
      </trkpt>
      <trkpt lat="43.99389" lon="7.20738">
        <ele>1190.1999511719</ele>
        <time>2019-05-11T10:44:26.000Z</time>
      </trkpt>
      <trkpt lat="43.99378" lon="7.20739">
        <ele>1188</ele>
        <time>2019-05-11T10:44:28.000Z</time>
      </trkpt>
      <trkpt lat="43.99373" lon="7.20737">
        <ele>1186.8000488281</ele>
        <time>2019-05-11T10:44:29.000Z</time>
      </trkpt>
      <trkpt lat="43.99369" lon="7.20733">
        <ele>1186</ele>
        <time>2019-05-11T10:44:30.000Z</time>
      </trkpt>
      <trkpt lat="43.99367" lon="7.20727">
        <ele>1185.4000244141</ele>
        <time>2019-05-11T10:44:31.000Z</time>
      </trkpt>
      <trkpt lat="43.99364" lon="7.20721">
        <ele>1184.1999511719</ele>
        <time>2019-05-11T10:44:32.000Z</time>
      </trkpt>
      <trkpt lat="43.99361" lon="7.20714">
        <ele>1183.5999755859</ele>
        <time>2019-05-11T10:44:33.000Z</time>
      </trkpt>
      <trkpt lat="43.99358" lon="7.20707">
        <ele>1183</ele>
        <time>2019-05-11T10:44:34.000Z</time>
      </trkpt>
      <trkpt lat="43.99355" lon="7.20701">
        <ele>1181.5999755859</ele>
        <time>2019-05-11T10:44:35.000Z</time>
      </trkpt>
      <trkpt lat="43.99352" lon="7.20694">
        <ele>1180.8000488281</ele>
        <time>2019-05-11T10:44:36.000Z</time>
      </trkpt>
      <trkpt lat="43.99349" lon="7.20689">
        <ele>1178.8000488281</ele>
        <time>2019-05-11T10:44:37.000Z</time>
      </trkpt>
      <trkpt lat="43.99345" lon="7.20683">
        <ele>1177.8000488281</ele>
        <time>2019-05-11T10:44:38.000Z</time>
      </trkpt>
      <trkpt lat="43.99342" lon="7.20678">
        <ele>1176.5999755859</ele>
        <time>2019-05-11T10:44:39.000Z</time>
      </trkpt>
      <trkpt lat="43.99336" lon="7.2067">
        <ele>1175.1999511719</ele>
        <time>2019-05-11T10:44:41.000Z</time>
      </trkpt>
      <trkpt lat="43.99333" lon="7.20667">
        <ele>1175</ele>
        <time>2019-05-11T10:44:42.000Z</time>
      </trkpt>
      <trkpt lat="43.9933" lon="7.20664">
        <ele>1173.4000244141</ele>
        <time>2019-05-11T10:44:43.000Z</time>
      </trkpt>
      <trkpt lat="43.99328" lon="7.2066">
        <ele>1172</ele>
        <time>2019-05-11T10:44:44.000Z</time>
      </trkpt>
      <trkpt lat="43.99327" lon="7.20656">
        <ele>1169.5999755859</ele>
        <time>2019-05-11T10:44:45.000Z</time>
      </trkpt>
      <trkpt lat="43.99327" lon="7.20651">
        <ele>1168.4000244141</ele>
        <time>2019-05-11T10:44:46.000Z</time>
      </trkpt>
      <trkpt lat="43.99326" lon="7.20645">
        <ele>1167.1999511719</ele>
        <time>2019-05-11T10:44:47.000Z</time>
      </trkpt>
      <trkpt lat="43.99323" lon="7.20634">
        <ele>1165.8000488281</ele>
        <time>2019-05-11T10:44:49.000Z</time>
      </trkpt>
      <trkpt lat="43.99322" lon="7.20631">
        <ele>1165.1999511719</ele>
        <time>2019-05-11T10:44:50.000Z</time>
      </trkpt>
      <trkpt lat="43.99318" lon="7.20623">
        <ele>1164.8000488281</ele>
        <time>2019-05-11T10:44:53.000Z</time>
      </trkpt>
      <trkpt lat="43.99316" lon="7.2062">
        <ele>1164.5999755859</ele>
        <time>2019-05-11T10:44:54.000Z</time>
      </trkpt>
      <trkpt lat="43.99308" lon="7.20608">
        <ele>1164</ele>
        <time>2019-05-11T10:44:57.000Z</time>
      </trkpt>
      <trkpt lat="43.99306" lon="7.20602">
        <ele>1163.8000488281</ele>
        <time>2019-05-11T10:44:58.000Z</time>
      </trkpt>
      <trkpt lat="43.99305" lon="7.2059">
        <ele>1163.5999755859</ele>
        <time>2019-05-11T10:45:00.000Z</time>
      </trkpt>
      <trkpt lat="43.99304" lon="7.20584">
        <ele>1162.8000488281</ele>
        <time>2019-05-11T10:45:01.000Z</time>
      </trkpt>
      <trkpt lat="43.99302" lon="7.20578">
        <ele>1162.1999511719</ele>
        <time>2019-05-11T10:45:02.000Z</time>
      </trkpt>
      <trkpt lat="43.99297" lon="7.2057">
        <ele>1161</ele>
        <time>2019-05-11T10:45:04.000Z</time>
      </trkpt>
      <trkpt lat="43.99291" lon="7.20569">
        <ele>1159.8000488281</ele>
        <time>2019-05-11T10:45:06.000Z</time>
      </trkpt>
      <trkpt lat="43.99288" lon="7.20573">
        <ele>1158.5999755859</ele>
        <time>2019-05-11T10:45:08.000Z</time>
      </trkpt>
      <trkpt lat="43.99286" lon="7.20576">
        <ele>1158.1999511719</ele>
        <time>2019-05-11T10:45:09.000Z</time>
      </trkpt>
      <trkpt lat="43.99283" lon="7.20581">
        <ele>1157.4000244141</ele>
        <time>2019-05-11T10:45:11.000Z</time>
      </trkpt>
      <trkpt lat="43.99278" lon="7.20584">
        <ele>1157.1999511719</ele>
        <time>2019-05-11T10:45:13.000Z</time>
      </trkpt>
      <trkpt lat="43.99265" lon="7.2058">
        <ele>1157.1999511719</ele>
        <time>2019-05-11T10:45:17.000Z</time>
      </trkpt>
      <trkpt lat="43.99258" lon="7.20581">
        <ele>1156.5999755859</ele>
        <time>2019-05-11T10:45:20.000Z</time>
      </trkpt>
      <trkpt lat="43.99256" lon="7.20582">
        <ele>1156.5999755859</ele>
        <time>2019-05-11T10:45:21.000Z</time>
      </trkpt>
      <trkpt lat="43.9925" lon="7.20585">
        <ele>1157.4000244141</ele>
        <time>2019-05-11T10:45:25.000Z</time>
      </trkpt>
      <trkpt lat="43.99245" lon="7.2059">
        <ele>1158.1999511719</ele>
        <time>2019-05-11T10:45:29.000Z</time>
      </trkpt>
      <trkpt lat="43.99243" lon="7.20591">
        <ele>1158.4000244141</ele>
        <time>2019-05-11T10:45:30.000Z</time>
      </trkpt>
      <trkpt lat="43.99237" lon="7.20595">
        <ele>1158.8000488281</ele>
        <time>2019-05-11T10:45:34.000Z</time>
      </trkpt>
      <trkpt lat="43.99228" lon="7.20605">
        <ele>1158.5999755859</ele>
        <time>2019-05-11T10:45:39.000Z</time>
      </trkpt>
      <trkpt lat="43.99222" lon="7.20613">
        <ele>1159</ele>
        <time>2019-05-11T10:45:43.000Z</time>
      </trkpt>
      <trkpt lat="43.99214" lon="7.20625">
        <ele>1159</ele>
        <time>2019-05-11T10:45:47.000Z</time>
      </trkpt>
      <trkpt lat="43.99202" lon="7.20643">
        <ele>1158</ele>
        <time>2019-05-11T10:45:52.000Z</time>
      </trkpt>
      <trkpt lat="43.99194" lon="7.20661">
        <ele>1158.1999511719</ele>
        <time>2019-05-11T10:45:56.000Z</time>
      </trkpt>
      <trkpt lat="43.99183" lon="7.20684">
        <ele>1158.1999511719</ele>
        <time>2019-05-11T10:46:02.000Z</time>
      </trkpt>
      <trkpt lat="43.99172" lon="7.20696">
        <ele>1158</ele>
        <time>2019-05-11T10:46:06.000Z</time>
      </trkpt>
      <trkpt lat="43.99169" lon="7.20698">
        <ele>1157.5999755859</ele>
        <time>2019-05-11T10:46:07.000Z</time>
      </trkpt>
      <trkpt lat="43.99158" lon="7.20698">
        <ele>1157.4000244141</ele>
        <time>2019-05-11T10:46:09.000Z</time>
      </trkpt>
      <trkpt lat="43.99153" lon="7.20697">
        <ele>1156.8000488281</ele>
        <time>2019-05-11T10:46:10.000Z</time>
      </trkpt>
      <trkpt lat="43.99147" lon="7.20695">
        <ele>1156</ele>
        <time>2019-05-11T10:46:11.000Z</time>
      </trkpt>
      <trkpt lat="43.99135" lon="7.20692">
        <ele>1154.5999755859</ele>
        <time>2019-05-11T10:46:13.000Z</time>
      </trkpt>
      <trkpt lat="43.99128" lon="7.20692">
        <ele>1153.5999755859</ele>
        <time>2019-05-11T10:46:14.000Z</time>
      </trkpt>
      <trkpt lat="43.99122" lon="7.20693">
        <ele>1153.1999511719</ele>
        <time>2019-05-11T10:46:15.000Z</time>
      </trkpt>
      <trkpt lat="43.9911" lon="7.20695">
        <ele>1151.5999755859</ele>
        <time>2019-05-11T10:46:17.000Z</time>
      </trkpt>
      <trkpt lat="43.99104" lon="7.20694">
        <ele>1150.5999755859</ele>
        <time>2019-05-11T10:46:18.000Z</time>
      </trkpt>
      <trkpt lat="43.99096" lon="7.20686">
        <ele>1148.5999755859</ele>
        <time>2019-05-11T10:46:20.000Z</time>
      </trkpt>
      <trkpt lat="43.99092" lon="7.2068">
        <ele>1148</ele>
        <time>2019-05-11T10:46:21.000Z</time>
      </trkpt>
      <trkpt lat="43.99087" lon="7.20674">
        <ele>1147.5999755859</ele>
        <time>2019-05-11T10:46:22.000Z</time>
      </trkpt>
      <trkpt lat="43.99077" lon="7.20665">
        <ele>1146</ele>
        <time>2019-05-11T10:46:24.000Z</time>
      </trkpt>
      <trkpt lat="43.99073" lon="7.20661">
        <ele>1144.5999755859</ele>
        <time>2019-05-11T10:46:25.000Z</time>
      </trkpt>
      <trkpt lat="43.99071" lon="7.20659">
        <ele>1143.5999755859</ele>
        <time>2019-05-11T10:46:26.000Z</time>
      </trkpt>
      <trkpt lat="43.99069" lon="7.20657">
        <ele>1142.4000244141</ele>
        <time>2019-05-11T10:46:27.000Z</time>
      </trkpt>
      <trkpt lat="43.99067" lon="7.20655">
        <ele>1141.4000244141</ele>
        <time>2019-05-11T10:46:28.000Z</time>
      </trkpt>
      <trkpt lat="43.99064" lon="7.20651">
        <ele>1140.8000488281</ele>
        <time>2019-05-11T10:46:29.000Z</time>
      </trkpt>
      <trkpt lat="43.99059" lon="7.2064">
        <ele>1139.8000488281</ele>
        <time>2019-05-11T10:46:31.000Z</time>
      </trkpt>
      <trkpt lat="43.99054" lon="7.20626">
        <ele>1138.4000244141</ele>
        <time>2019-05-11T10:46:33.000Z</time>
      </trkpt>
      <trkpt lat="43.99052" lon="7.20619">
        <ele>1137.4000244141</ele>
        <time>2019-05-11T10:46:34.000Z</time>
      </trkpt>
      <trkpt lat="43.99051" lon="7.20613">
        <ele>1136.5999755859</ele>
        <time>2019-05-11T10:46:35.000Z</time>
      </trkpt>
      <trkpt lat="43.9905" lon="7.20606">
        <ele>1135.4000244141</ele>
        <time>2019-05-11T10:46:36.000Z</time>
      </trkpt>
      <trkpt lat="43.99047" lon="7.206">
        <ele>1133.8000488281</ele>
        <time>2019-05-11T10:46:37.000Z</time>
      </trkpt>
      <trkpt lat="43.99044" lon="7.20595">
        <ele>1132.5999755859</ele>
        <time>2019-05-11T10:46:38.000Z</time>
      </trkpt>
      <trkpt lat="43.9904" lon="7.20592">
        <ele>1131.4000244141</ele>
        <time>2019-05-11T10:46:39.000Z</time>
      </trkpt>
      <trkpt lat="43.99035" lon="7.20588">
        <ele>1129.5999755859</ele>
        <time>2019-05-11T10:46:40.000Z</time>
      </trkpt>
      <trkpt lat="43.9903" lon="7.20583">
        <ele>1128.1999511719</ele>
        <time>2019-05-11T10:46:41.000Z</time>
      </trkpt>
      <trkpt lat="43.99026" lon="7.20579">
        <ele>1127.1999511719</ele>
        <time>2019-05-11T10:46:42.000Z</time>
      </trkpt>
      <trkpt lat="43.99021" lon="7.20574">
        <ele>1125.1999511719</ele>
        <time>2019-05-11T10:46:43.000Z</time>
      </trkpt>
      <trkpt lat="43.99016" lon="7.20569">
        <ele>1124.5999755859</ele>
        <time>2019-05-11T10:46:44.000Z</time>
      </trkpt>
      <trkpt lat="43.99012" lon="7.20564">
        <ele>1123.4000244141</ele>
        <time>2019-05-11T10:46:45.000Z</time>
      </trkpt>
      <trkpt lat="43.99008" lon="7.20558">
        <ele>1122.4000244141</ele>
        <time>2019-05-11T10:46:46.000Z</time>
      </trkpt>
      <trkpt lat="43.99005" lon="7.20553">
        <ele>1121.8000488281</ele>
        <time>2019-05-11T10:46:47.000Z</time>
      </trkpt>
      <trkpt lat="43.98997" lon="7.20542">
        <ele>1121.4000244141</ele>
        <time>2019-05-11T10:46:49.000Z</time>
      </trkpt>
      <trkpt lat="43.98994" lon="7.20536">
        <ele>1120.5999755859</ele>
        <time>2019-05-11T10:46:50.000Z</time>
      </trkpt>
      <trkpt lat="43.98991" lon="7.20531">
        <ele>1120</ele>
        <time>2019-05-11T10:46:51.000Z</time>
      </trkpt>
      <trkpt lat="43.98985" lon="7.20521">
        <ele>1119.5999755859</ele>
        <time>2019-05-11T10:46:53.000Z</time>
      </trkpt>
      <trkpt lat="43.9898" lon="7.20512">
        <ele>1118.5999755859</ele>
        <time>2019-05-11T10:46:55.000Z</time>
      </trkpt>
      <trkpt lat="43.98976" lon="7.20507">
        <ele>1118.4000244141</ele>
        <time>2019-05-11T10:46:56.000Z</time>
      </trkpt>
      <trkpt lat="43.98971" lon="7.20503">
        <ele>1116.5999755859</ele>
        <time>2019-05-11T10:46:58.000Z</time>
      </trkpt>
      <trkpt lat="43.98968" lon="7.20502">
        <ele>1116</ele>
        <time>2019-05-11T10:46:59.000Z</time>
      </trkpt>
      <trkpt lat="43.98967" lon="7.20502">
        <ele>1114.8000488281</ele>
        <time>2019-05-11T10:47:00.000Z</time>
      </trkpt>
      <trkpt lat="43.98966" lon="7.20503">
        <ele>1114.1999511719</ele>
        <time>2019-05-11T10:47:01.000Z</time>
      </trkpt>
      <trkpt lat="43.98965" lon="7.20503">
        <ele>1113.8000488281</ele>
        <time>2019-05-11T10:47:02.000Z</time>
      </trkpt>
      <trkpt lat="43.98965" lon="7.20503">
        <ele>1113.5999755859</ele>
        <time>2019-05-11T10:47:03.000Z</time>
      </trkpt>
      <trkpt lat="43.98964" lon="7.20505">
        <ele>1113.4000244141</ele>
        <time>2019-05-11T10:47:04.000Z</time>
      </trkpt>
      <trkpt lat="43.9896" lon="7.2051">
        <ele>1113.8000488281</ele>
        <time>2019-05-11T10:47:07.000Z</time>
      </trkpt>
      <trkpt lat="43.98953" lon="7.20524">
        <ele>1113.1999511719</ele>
        <time>2019-05-11T10:47:11.000Z</time>
      </trkpt>
      <trkpt lat="43.98951" lon="7.20533">
        <ele>1113.1999511719</ele>
        <time>2019-05-11T10:47:13.000Z</time>
      </trkpt>
      <trkpt lat="43.98949" lon="7.2054">
        <ele>1113.4000244141</ele>
        <time>2019-05-11T10:47:14.000Z</time>
      </trkpt>
      <trkpt lat="43.98942" lon="7.20561">
        <ele>1112.5999755859</ele>
        <time>2019-05-11T10:47:17.000Z</time>
      </trkpt>
      <trkpt lat="43.9894" lon="7.20566">
        <ele>1111.4000244141</ele>
        <time>2019-05-11T10:47:18.000Z</time>
      </trkpt>
      <trkpt lat="43.98934" lon="7.20576">
        <ele>1110</ele>
        <time>2019-05-11T10:47:20.000Z</time>
      </trkpt>
      <trkpt lat="43.98931" lon="7.2058">
        <ele>1108.8000488281</ele>
        <time>2019-05-11T10:47:21.000Z</time>
      </trkpt>
      <trkpt lat="43.98928" lon="7.20583">
        <ele>1108.4000244141</ele>
        <time>2019-05-11T10:47:22.000Z</time>
      </trkpt>
      <trkpt lat="43.98916" lon="7.20599">
        <ele>1108</ele>
        <time>2019-05-11T10:47:25.000Z</time>
      </trkpt>
      <trkpt lat="43.9891" lon="7.20605">
        <ele>1107.1999511719</ele>
        <time>2019-05-11T10:47:26.000Z</time>
      </trkpt>
      <trkpt lat="43.98906" lon="7.2061">
        <ele>1106.1999511719</ele>
        <time>2019-05-11T10:47:27.000Z</time>
      </trkpt>
      <trkpt lat="43.98891" lon="7.20626">
        <ele>1104.5999755859</ele>
        <time>2019-05-11T10:47:30.000Z</time>
      </trkpt>
      <trkpt lat="43.98883" lon="7.20632">
        <ele>1103.4000244141</ele>
        <time>2019-05-11T10:47:32.000Z</time>
      </trkpt>
      <trkpt lat="43.98874" lon="7.20638">
        <ele>1102</ele>
        <time>2019-05-11T10:47:34.000Z</time>
      </trkpt>
      <trkpt lat="43.98871" lon="7.20643">
        <ele>1102</ele>
        <time>2019-05-11T10:47:35.000Z</time>
      </trkpt>
      <trkpt lat="43.98867" lon="7.20647">
        <ele>1102</ele>
        <time>2019-05-11T10:47:36.000Z</time>
      </trkpt>
      <trkpt lat="43.98854" lon="7.20656">
        <ele>1102</ele>
        <time>2019-05-11T10:47:39.000Z</time>
      </trkpt>
      <trkpt lat="43.98837" lon="7.20669">
        <ele>1100.8000488281</ele>
        <time>2019-05-11T10:47:43.000Z</time>
      </trkpt>
      <trkpt lat="43.98832" lon="7.20672">
        <ele>1100</ele>
        <time>2019-05-11T10:47:44.000Z</time>
      </trkpt>
      <trkpt lat="43.98822" lon="7.20676">
        <ele>1099.4000244141</ele>
        <time>2019-05-11T10:47:46.000Z</time>
      </trkpt>
      <trkpt lat="43.98811" lon="7.20682">
        <ele>1098.8000488281</ele>
        <time>2019-05-11T10:47:48.000Z</time>
      </trkpt>
      <trkpt lat="43.98802" lon="7.20686">
        <ele>1098</ele>
        <time>2019-05-11T10:47:50.000Z</time>
      </trkpt>
      <trkpt lat="43.98791" lon="7.2069">
        <ele>1097.4000244141</ele>
        <time>2019-05-11T10:47:53.000Z</time>
      </trkpt>
      <trkpt lat="43.9878" lon="7.20695">
        <ele>1097.8000488281</ele>
        <time>2019-05-11T10:47:57.000Z</time>
      </trkpt>
      <trkpt lat="43.98778" lon="7.20696">
        <ele>1097.1999511719</ele>
        <time>2019-05-11T10:48:02.000Z</time>
      </trkpt>
      <trkpt lat="43.98776" lon="7.20698">
        <ele>1097</ele>
        <time>2019-05-11T10:48:08.000Z</time>
      </trkpt>
      <trkpt lat="43.98774" lon="7.207">
        <ele>1097</ele>
        <time>2019-05-11T10:48:16.000Z</time>
      </trkpt>
      <trkpt lat="43.98771" lon="7.20703">
        <ele>1097</ele>
        <time>2019-05-11T10:48:28.000Z</time>
      </trkpt>
      <trkpt lat="43.98769" lon="7.20705">
        <ele>1097.1999511719</ele>
        <time>2019-05-11T10:48:43.000Z</time>
      </trkpt>
      <trkpt lat="43.98768" lon="7.20706">
        <ele>1097.1999511719</ele>
        <time>2019-05-11T10:49:00.000Z</time>
      </trkpt>
      <trkpt lat="43.98767" lon="7.20707">
        <ele>1097.1999511719</ele>
        <time>2019-05-11T10:49:14.000Z</time>
      </trkpt>
      <trkpt lat="43.98766" lon="7.20705">
        <ele>1097.1999511719</ele>
        <time>2019-05-11T10:49:28.000Z</time>
      </trkpt>
      <trkpt lat="43.98766" lon="7.20705">
        <ele>1097.1999511719</ele>
        <time>2019-05-11T10:49:36.000Z</time>
      </trkpt>
      <trkpt lat="43.98767" lon="7.20705">
        <ele>1097</ele>
        <time>2019-05-11T10:49:39.000Z</time>
      </trkpt>
      <trkpt lat="43.98768" lon="7.20707">
        <ele>1096.5999755859</ele>
        <time>2019-05-11T10:49:45.000Z</time>
      </trkpt>
      <trkpt lat="43.98771" lon="7.20708">
        <ele>1096.5999755859</ele>
        <time>2019-05-11T10:50:10.000Z</time>
      </trkpt>
      <trkpt lat="43.98769" lon="7.20712">
        <ele>1096.5999755859</ele>
        <time>2019-05-11T10:50:22.000Z</time>
      </trkpt>
      <trkpt lat="43.98763" lon="7.20721">
        <ele>1096.4000244141</ele>
        <time>2019-05-11T10:50:27.000Z</time>
      </trkpt>
      <trkpt lat="43.98761" lon="7.20725">
        <ele>1095.5999755859</ele>
        <time>2019-05-11T10:50:29.000Z</time>
      </trkpt>
      <trkpt lat="43.98757" lon="7.20732">
        <ele>1094</ele>
        <time>2019-05-11T10:50:31.000Z</time>
      </trkpt>
      <trkpt lat="43.98754" lon="7.2074">
        <ele>1092</ele>
        <time>2019-05-11T10:50:33.000Z</time>
      </trkpt>
      <trkpt lat="43.98751" lon="7.20748">
        <ele>1090.4000244141</ele>
        <time>2019-05-11T10:50:35.000Z</time>
      </trkpt>
      <trkpt lat="43.98749" lon="7.20755">
        <ele>1088.5999755859</ele>
        <time>2019-05-11T10:50:37.000Z</time>
      </trkpt>
      <trkpt lat="43.98746" lon="7.20763">
        <ele>1087.1999511719</ele>
        <time>2019-05-11T10:50:39.000Z</time>
      </trkpt>
      <trkpt lat="43.98741" lon="7.20772">
        <ele>1085.5999755859</ele>
        <time>2019-05-11T10:50:41.000Z</time>
      </trkpt>
      <trkpt lat="43.98733" lon="7.20781">
        <ele>1083.5999755859</ele>
        <time>2019-05-11T10:50:43.000Z</time>
      </trkpt>
      <trkpt lat="43.98729" lon="7.20785">
        <ele>1082</ele>
        <time>2019-05-11T10:50:44.000Z</time>
      </trkpt>
      <trkpt lat="43.98725" lon="7.20788">
        <ele>1080.8000488281</ele>
        <time>2019-05-11T10:50:45.000Z</time>
      </trkpt>
      <trkpt lat="43.9872" lon="7.20791">
        <ele>1079.8000488281</ele>
        <time>2019-05-11T10:50:46.000Z</time>
      </trkpt>
      <trkpt lat="43.98715" lon="7.20794">
        <ele>1078.5999755859</ele>
        <time>2019-05-11T10:50:47.000Z</time>
      </trkpt>
      <trkpt lat="43.98709" lon="7.20797">
        <ele>1077.4000244141</ele>
        <time>2019-05-11T10:50:48.000Z</time>
      </trkpt>
      <trkpt lat="43.98697" lon="7.20805">
        <ele>1076.1999511719</ele>
        <time>2019-05-11T10:50:50.000Z</time>
      </trkpt>
      <trkpt lat="43.98691" lon="7.20809">
        <ele>1075</ele>
        <time>2019-05-11T10:50:51.000Z</time>
      </trkpt>
      <trkpt lat="43.98687" lon="7.20812">
        <ele>1073.8000488281</ele>
        <time>2019-05-11T10:50:52.000Z</time>
      </trkpt>
      <trkpt lat="43.98681" lon="7.20816">
        <ele>1072.4000244141</ele>
        <time>2019-05-11T10:50:53.000Z</time>
      </trkpt>
      <trkpt lat="43.98676" lon="7.2082">
        <ele>1070.5999755859</ele>
        <time>2019-05-11T10:50:54.000Z</time>
      </trkpt>
      <trkpt lat="43.9867" lon="7.20822">
        <ele>1068.1999511719</ele>
        <time>2019-05-11T10:50:55.000Z</time>
      </trkpt>
      <trkpt lat="43.98665" lon="7.20824">
        <ele>1067.1999511719</ele>
        <time>2019-05-11T10:50:56.000Z</time>
      </trkpt>
      <trkpt lat="43.9866" lon="7.20823">
        <ele>1066.5999755859</ele>
        <time>2019-05-11T10:50:57.000Z</time>
      </trkpt>
      <trkpt lat="43.98655" lon="7.20821">
        <ele>1066.1999511719</ele>
        <time>2019-05-11T10:50:58.000Z</time>
      </trkpt>
      <trkpt lat="43.98652" lon="7.2082">
        <ele>1065</ele>
        <time>2019-05-11T10:50:59.000Z</time>
      </trkpt>
      <trkpt lat="43.98651" lon="7.20822">
        <ele>1064</ele>
        <time>2019-05-11T10:51:00.000Z</time>
      </trkpt>
      <trkpt lat="43.98651" lon="7.20825">
        <ele>1063.4000244141</ele>
        <time>2019-05-11T10:51:01.000Z</time>
      </trkpt>
      <trkpt lat="43.98654" lon="7.20831">
        <ele>1061</ele>
        <time>2019-05-11T10:51:03.000Z</time>
      </trkpt>
      <trkpt lat="43.98656" lon="7.20836">
        <ele>1059.4000244141</ele>
        <time>2019-05-11T10:51:05.000Z</time>
      </trkpt>
      <trkpt lat="43.98653" lon="7.20838">
        <ele>1058.5999755859</ele>
        <time>2019-05-11T10:51:06.000Z</time>
      </trkpt>
      <trkpt lat="43.98649" lon="7.2084">
        <ele>1057.8000488281</ele>
        <time>2019-05-11T10:51:07.000Z</time>
      </trkpt>
      <trkpt lat="43.98642" lon="7.20838">
        <ele>1056.5999755859</ele>
        <time>2019-05-11T10:51:09.000Z</time>
      </trkpt>
      <trkpt lat="43.98635" lon="7.20828">
        <ele>1055.5999755859</ele>
        <time>2019-05-11T10:51:11.000Z</time>
      </trkpt>
      <trkpt lat="43.98631" lon="7.20824">
        <ele>1054.8000488281</ele>
        <time>2019-05-11T10:51:12.000Z</time>
      </trkpt>
      <trkpt lat="43.98626" lon="7.2082">
        <ele>1053.5999755859</ele>
        <time>2019-05-11T10:51:13.000Z</time>
      </trkpt>
      <trkpt lat="43.98623" lon="7.20816">
        <ele>1052.1999511719</ele>
        <time>2019-05-11T10:51:14.000Z</time>
      </trkpt>
      <trkpt lat="43.98621" lon="7.20812">
        <ele>1051.1999511719</ele>
        <time>2019-05-11T10:51:15.000Z</time>
      </trkpt>
      <trkpt lat="43.98618" lon="7.20808">
        <ele>1050.1999511719</ele>
        <time>2019-05-11T10:51:16.000Z</time>
      </trkpt>
      <trkpt lat="43.98611" lon="7.20801">
        <ele>1048.5999755859</ele>
        <time>2019-05-11T10:51:18.000Z</time>
      </trkpt>
      <trkpt lat="43.98609" lon="7.20799">
        <ele>1047.4000244141</ele>
        <time>2019-05-11T10:51:19.000Z</time>
      </trkpt>
      <trkpt lat="43.98606" lon="7.20798">
        <ele>1046.5999755859</ele>
        <time>2019-05-11T10:51:20.000Z</time>
      </trkpt>
      <trkpt lat="43.98604" lon="7.20799">
        <ele>1046</ele>
        <time>2019-05-11T10:51:21.000Z</time>
      </trkpt>
      <trkpt lat="43.98601" lon="7.20801">
        <ele>1045.1999511719</ele>
        <time>2019-05-11T10:51:22.000Z</time>
      </trkpt>
      <trkpt lat="43.98597" lon="7.20803">
        <ele>1044.4000244141</ele>
        <time>2019-05-11T10:51:23.000Z</time>
      </trkpt>
      <trkpt lat="43.98589" lon="7.20803">
        <ele>1043.1999511719</ele>
        <time>2019-05-11T10:51:25.000Z</time>
      </trkpt>
      <trkpt lat="43.98581" lon="7.208">
        <ele>1042</ele>
        <time>2019-05-11T10:51:27.000Z</time>
      </trkpt>
      <trkpt lat="43.98576" lon="7.20797">
        <ele>1041.1999511719</ele>
        <time>2019-05-11T10:51:28.000Z</time>
      </trkpt>
      <trkpt lat="43.98571" lon="7.20795">
        <ele>1040.5999755859</ele>
        <time>2019-05-11T10:51:29.000Z</time>
      </trkpt>
      <trkpt lat="43.98566" lon="7.20793">
        <ele>1039.5999755859</ele>
        <time>2019-05-11T10:51:30.000Z</time>
      </trkpt>
      <trkpt lat="43.9856" lon="7.20791">
        <ele>1038.4000244141</ele>
        <time>2019-05-11T10:51:31.000Z</time>
      </trkpt>
      <trkpt lat="43.98552" lon="7.20787">
        <ele>1036.8000488281</ele>
        <time>2019-05-11T10:51:33.000Z</time>
      </trkpt>
      <trkpt lat="43.98549" lon="7.20785">
        <ele>1036</ele>
        <time>2019-05-11T10:51:34.000Z</time>
      </trkpt>
      <trkpt lat="43.98545" lon="7.20783">
        <ele>1035</ele>
        <time>2019-05-11T10:51:35.000Z</time>
      </trkpt>
      <trkpt lat="43.98541" lon="7.20776">
        <ele>1034.4000244141</ele>
        <time>2019-05-11T10:51:37.000Z</time>
      </trkpt>
      <trkpt lat="43.9854" lon="7.20771">
        <ele>1034</ele>
        <time>2019-05-11T10:51:38.000Z</time>
      </trkpt>
      <trkpt lat="43.98541" lon="7.20766">
        <ele>1033.5999755859</ele>
        <time>2019-05-11T10:51:39.000Z</time>
      </trkpt>
      <trkpt lat="43.98539" lon="7.20763">
        <ele>1033.1999511719</ele>
        <time>2019-05-11T10:51:40.000Z</time>
      </trkpt>
      <trkpt lat="43.98535" lon="7.20761">
        <ele>1032.5999755859</ele>
        <time>2019-05-11T10:51:42.000Z</time>
      </trkpt>
      <trkpt lat="43.98531" lon="7.20763">
        <ele>1032</ele>
        <time>2019-05-11T10:51:43.000Z</time>
      </trkpt>
      <trkpt lat="43.98523" lon="7.2077">
        <ele>1031.4000244141</ele>
        <time>2019-05-11T10:51:45.000Z</time>
      </trkpt>
      <trkpt lat="43.98519" lon="7.20773">
        <ele>1030.8000488281</ele>
        <time>2019-05-11T10:51:46.000Z</time>
      </trkpt>
      <trkpt lat="43.98516" lon="7.20776">
        <ele>1030.1999511719</ele>
        <time>2019-05-11T10:51:47.000Z</time>
      </trkpt>
      <trkpt lat="43.98512" lon="7.2078">
        <ele>1029</ele>
        <time>2019-05-11T10:51:48.000Z</time>
      </trkpt>
      <trkpt lat="43.98503" lon="7.20787">
        <ele>1027.5999755859</ele>
        <time>2019-05-11T10:51:50.000Z</time>
      </trkpt>
      <trkpt lat="43.98498" lon="7.20789">
        <ele>1026.5999755859</ele>
        <time>2019-05-11T10:51:51.000Z</time>
      </trkpt>
      <trkpt lat="43.98492" lon="7.20789">
        <ele>1026</ele>
        <time>2019-05-11T10:51:52.000Z</time>
      </trkpt>
      <trkpt lat="43.9848" lon="7.20785">
        <ele>1024.4000244141</ele>
        <time>2019-05-11T10:51:54.000Z</time>
      </trkpt>
      <trkpt lat="43.98476" lon="7.20784">
        <ele>1023.200012207</ele>
        <time>2019-05-11T10:51:55.000Z</time>
      </trkpt>
      <trkpt lat="43.98472" lon="7.20787">
        <ele>1022</ele>
        <time>2019-05-11T10:51:56.000Z</time>
      </trkpt>
      <trkpt lat="43.98468" lon="7.20791">
        <ele>1020.4000244141</ele>
        <time>2019-05-11T10:51:57.000Z</time>
      </trkpt>
      <trkpt lat="43.98457" lon="7.208">
        <ele>1018.4000244141</ele>
        <time>2019-05-11T10:51:59.000Z</time>
      </trkpt>
      <trkpt lat="43.98451" lon="7.20803">
        <ele>1017.4000244141</ele>
        <time>2019-05-11T10:52:00.000Z</time>
      </trkpt>
      <trkpt lat="43.98446" lon="7.20805">
        <ele>1016.799987793</ele>
        <time>2019-05-11T10:52:01.000Z</time>
      </trkpt>
      <trkpt lat="43.98443" lon="7.20806">
        <ele>1016</ele>
        <time>2019-05-11T10:52:02.000Z</time>
      </trkpt>
      <trkpt lat="43.98442" lon="7.20808">
        <ele>1015.4000244141</ele>
        <time>2019-05-11T10:52:03.000Z</time>
      </trkpt>
      <trkpt lat="43.98442" lon="7.2081">
        <ele>1014.799987793</ele>
        <time>2019-05-11T10:52:04.000Z</time>
      </trkpt>
      <trkpt lat="43.98447" lon="7.20811">
        <ele>1013.4000244141</ele>
        <time>2019-05-11T10:52:07.000Z</time>
      </trkpt>
      <trkpt lat="43.98451" lon="7.20811">
        <ele>1012.799987793</ele>
        <time>2019-05-11T10:52:08.000Z</time>
      </trkpt>
      <trkpt lat="43.98455" lon="7.20812">
        <ele>1012</ele>
        <time>2019-05-11T10:52:09.000Z</time>
      </trkpt>
      <trkpt lat="43.98465" lon="7.20817">
        <ele>1010.200012207</ele>
        <time>2019-05-11T10:52:11.000Z</time>
      </trkpt>
      <trkpt lat="43.9847" lon="7.2082">
        <ele>1009</ele>
        <time>2019-05-11T10:52:12.000Z</time>
      </trkpt>
      <trkpt lat="43.98478" lon="7.20825">
        <ele>1007</ele>
        <time>2019-05-11T10:52:14.000Z</time>
      </trkpt>
      <trkpt lat="43.9848" lon="7.20826">
        <ele>1005.4000244141</ele>
        <time>2019-05-11T10:52:15.000Z</time>
      </trkpt>
      <trkpt lat="43.98481" lon="7.20829">
        <ele>1004.4000244141</ele>
        <time>2019-05-11T10:52:17.000Z</time>
      </trkpt>
      <trkpt lat="43.98479" lon="7.20828">
        <ele>1003.799987793</ele>
        <time>2019-05-11T10:52:19.000Z</time>
      </trkpt>
      <trkpt lat="43.98475" lon="7.20826">
        <ele>1004.200012207</ele>
        <time>2019-05-11T10:52:22.000Z</time>
      </trkpt>
      <trkpt lat="43.9847" lon="7.20823">
        <ele>1004.200012207</ele>
        <time>2019-05-11T10:52:25.000Z</time>
      </trkpt>
      <trkpt lat="43.98458" lon="7.2082">
        <ele>1004.4000244141</ele>
        <time>2019-05-11T10:52:32.000Z</time>
      </trkpt>
      <trkpt lat="43.98446" lon="7.20823">
        <ele>1005</ele>
        <time>2019-05-11T10:52:38.000Z</time>
      </trkpt>
      <trkpt lat="43.98428" lon="7.20822">
        <ele>1005.4000244141</ele>
        <time>2019-05-11T10:52:45.000Z</time>
      </trkpt>
      <trkpt lat="43.98426" lon="7.20822">
        <ele>1005.4000244141</ele>
        <time>2019-05-11T10:52:46.000Z</time>
      </trkpt>
      <trkpt lat="43.98413" lon="7.20823">
        <ele>1005.5999755859</ele>
        <time>2019-05-11T10:52:51.000Z</time>
      </trkpt>
      <trkpt lat="43.98404" lon="7.20822">
        <ele>1006.200012207</ele>
        <time>2019-05-11T10:52:55.000Z</time>
      </trkpt>
      <trkpt lat="43.9839" lon="7.20821">
        <ele>1006.4000244141</ele>
        <time>2019-05-11T10:53:00.000Z</time>
      </trkpt>
      <trkpt lat="43.98387" lon="7.20822">
        <ele>1006.5999755859</ele>
        <time>2019-05-11T10:53:01.000Z</time>
      </trkpt>
      <trkpt lat="43.98363" lon="7.20824">
        <ele>1007</ele>
        <time>2019-05-11T10:53:08.000Z</time>
      </trkpt>
      <trkpt lat="43.98343" lon="7.20828">
        <ele>1007.200012207</ele>
        <time>2019-05-11T10:53:14.000Z</time>
      </trkpt>
      <trkpt lat="43.98333" lon="7.20823">
        <ele>1007.4000244141</ele>
        <time>2019-05-11T10:53:19.000Z</time>
      </trkpt>
      <trkpt lat="43.98325" lon="7.20806">
        <ele>1007.200012207</ele>
        <time>2019-05-11T10:53:24.000Z</time>
      </trkpt>
      <trkpt lat="43.98324" lon="7.2078">
        <ele>1007</ele>
        <time>2019-05-11T10:53:30.000Z</time>
      </trkpt>
      <trkpt lat="43.98326" lon="7.20749">
        <ele>1007</ele>
        <time>2019-05-11T10:53:37.000Z</time>
      </trkpt>
      <trkpt lat="43.98326" lon="7.2072">
        <ele>1007</ele>
        <time>2019-05-11T10:53:43.000Z</time>
      </trkpt>
      <trkpt lat="43.98319" lon="7.20687">
        <ele>1006.799987793</ele>
        <time>2019-05-11T10:53:50.000Z</time>
      </trkpt>
      <trkpt lat="43.98318" lon="7.20655">
        <ele>1007.200012207</ele>
        <time>2019-05-11T10:53:57.000Z</time>
      </trkpt>
      <trkpt lat="43.98323" lon="7.20631">
        <ele>1007.4000244141</ele>
        <time>2019-05-11T10:54:02.000Z</time>
      </trkpt>
      <trkpt lat="43.98324" lon="7.20622">
        <ele>1007.5999755859</ele>
        <time>2019-05-11T10:54:04.000Z</time>
      </trkpt>
      <trkpt lat="43.98326" lon="7.20605">
        <ele>1007.5999755859</ele>
        <time>2019-05-11T10:54:08.000Z</time>
      </trkpt>
      <trkpt lat="43.98322" lon="7.20589">
        <ele>1007.5999755859</ele>
        <time>2019-05-11T10:54:12.000Z</time>
      </trkpt>
      <trkpt lat="43.98317" lon="7.20569">
        <ele>1008.200012207</ele>
        <time>2019-05-11T10:54:17.000Z</time>
      </trkpt>
      <trkpt lat="43.98316" lon="7.20558">
        <ele>1008.799987793</ele>
        <time>2019-05-11T10:54:20.000Z</time>
      </trkpt>
      <trkpt lat="43.98316" lon="7.20547">
        <ele>1009.5999755859</ele>
        <time>2019-05-11T10:54:23.000Z</time>
      </trkpt>
      <trkpt lat="43.98316" lon="7.20544">
        <ele>1009.799987793</ele>
        <time>2019-05-11T10:54:24.000Z</time>
      </trkpt>
      <trkpt lat="43.98314" lon="7.20522">
        <ele>1010.799987793</ele>
        <time>2019-05-11T10:54:30.000Z</time>
      </trkpt>
      <trkpt lat="43.98313" lon="7.20517">
        <ele>1011</ele>
        <time>2019-05-11T10:54:31.000Z</time>
      </trkpt>
      <trkpt lat="43.9831" lon="7.20493">
        <ele>1012.200012207</ele>
        <time>2019-05-11T10:54:37.000Z</time>
      </trkpt>
      <trkpt lat="43.98306" lon="7.20471">
        <ele>1013.200012207</ele>
        <time>2019-05-11T10:54:43.000Z</time>
      </trkpt>
      <trkpt lat="43.98305" lon="7.20463">
        <ele>1013.5999755859</ele>
        <time>2019-05-11T10:54:45.000Z</time>
      </trkpt>
      <trkpt lat="43.98303" lon="7.20449">
        <ele>1014.200012207</ele>
        <time>2019-05-11T10:54:49.000Z</time>
      </trkpt>
      <trkpt lat="43.98301" lon="7.20438">
        <ele>1014.5999755859</ele>
        <time>2019-05-11T10:54:52.000Z</time>
      </trkpt>
      <trkpt lat="43.98299" lon="7.20423">
        <ele>1015.4000244141</ele>
        <time>2019-05-11T10:54:56.000Z</time>
      </trkpt>
      <trkpt lat="43.98295" lon="7.20403">
        <ele>1016</ele>
        <time>2019-05-11T10:55:01.000Z</time>
      </trkpt>
      <trkpt lat="43.98294" lon="7.20391">
        <ele>1016.4000244141</ele>
        <time>2019-05-11T10:55:04.000Z</time>
      </trkpt>
      <trkpt lat="43.98292" lon="7.20373">
        <ele>1017</ele>
        <time>2019-05-11T10:55:09.000Z</time>
      </trkpt>
      <trkpt lat="43.98291" lon="7.20354">
        <ele>1017.4000244141</ele>
        <time>2019-05-11T10:55:14.000Z</time>
      </trkpt>
      <trkpt lat="43.9829" lon="7.20346">
        <ele>1018</ele>
        <time>2019-05-11T10:55:16.000Z</time>
      </trkpt>
      <trkpt lat="43.9829" lon="7.20331">
        <ele>1018.5999755859</ele>
        <time>2019-05-11T10:55:20.000Z</time>
      </trkpt>
      <trkpt lat="43.98289" lon="7.20328">
        <ele>1018.5999755859</ele>
        <time>2019-05-11T10:55:21.000Z</time>
      </trkpt>
      <trkpt lat="43.9828" lon="7.20321">
        <ele>1019.200012207</ele>
        <time>2019-05-11T10:55:25.000Z</time>
      </trkpt>
      <trkpt lat="43.9827" lon="7.20322">
        <ele>1019.5999755859</ele>
        <time>2019-05-11T10:55:29.000Z</time>
      </trkpt>
      <trkpt lat="43.98263" lon="7.20321">
        <ele>1020.200012207</ele>
        <time>2019-05-11T10:55:32.000Z</time>
      </trkpt>
      <trkpt lat="43.98256" lon="7.20318">
        <ele>1020.799987793</ele>
        <time>2019-05-11T10:55:35.000Z</time>
      </trkpt>
      <trkpt lat="43.98248" lon="7.20311">
        <ele>1021.5999755859</ele>
        <time>2019-05-11T10:55:39.000Z</time>
      </trkpt>
      <trkpt lat="43.98246" lon="7.20308">
        <ele>1021.799987793</ele>
        <time>2019-05-11T10:55:40.000Z</time>
      </trkpt>
      <trkpt lat="43.98234" lon="7.20294">
        <ele>1022.4000244141</ele>
        <time>2019-05-11T10:55:46.000Z</time>
      </trkpt>
      <trkpt lat="43.9822" lon="7.2029">
        <ele>1022.799987793</ele>
        <time>2019-05-11T10:55:51.000Z</time>
      </trkpt>
      <trkpt lat="43.98211" lon="7.20297">
        <ele>1023.4000244141</ele>
        <time>2019-05-11T10:55:55.000Z</time>
      </trkpt>
      <trkpt lat="43.98205" lon="7.20315">
        <ele>1024</ele>
        <time>2019-05-11T10:56:00.000Z</time>
      </trkpt>
      <trkpt lat="43.98204" lon="7.20319">
        <ele>1024</ele>
        <time>2019-05-11T10:56:01.000Z</time>
      </trkpt>
      <trkpt lat="43.982" lon="7.20339">
        <ele>1024.4000244141</ele>
        <time>2019-05-11T10:56:07.000Z</time>
      </trkpt>
      <trkpt lat="43.98194" lon="7.20354">
        <ele>1024.4000244141</ele>
        <time>2019-05-11T10:56:12.000Z</time>
      </trkpt>
      <trkpt lat="43.9819" lon="7.20366">
        <ele>1024.5999755859</ele>
        <time>2019-05-11T10:56:18.000Z</time>
      </trkpt>
      <trkpt lat="43.98188" lon="7.2037">
        <ele>1024.4000244141</ele>
        <time>2019-05-11T10:56:23.000Z</time>
      </trkpt>
      <trkpt lat="43.98189" lon="7.2037">
        <ele>1023.200012207</ele>
        <time>2019-05-11T10:56:31.000Z</time>
      </trkpt>
      <trkpt lat="43.9819" lon="7.20374">
        <ele>1024.1999511719</ele>
        <time>2019-05-11T10:56:39.000Z</time>
      </trkpt>
      <trkpt lat="43.98192" lon="7.20375">
        <ele>1024.4000244141</ele>
        <time>2019-05-11T10:56:48.000Z</time>
      </trkpt>
      <trkpt lat="43.98193" lon="7.20374">
        <ele>1024.5999755859</ele>
        <time>2019-05-11T10:56:55.000Z</time>
      </trkpt>
      <trkpt lat="43.98194" lon="7.20372">
        <ele>1024.1999511719</ele>
        <time>2019-05-11T10:57:03.000Z</time>
      </trkpt>
      <trkpt lat="43.98195" lon="7.20371">
        <ele>1024</ele>
        <time>2019-05-11T10:57:09.000Z</time>
      </trkpt>
      <trkpt lat="43.98196" lon="7.20371">
        <ele>1024.4000244141</ele>
        <time>2019-05-11T10:57:19.000Z</time>
      </trkpt>
      <trkpt lat="43.98197" lon="7.20369">
        <ele>1024.4000244141</ele>
        <time>2019-05-11T10:57:33.000Z</time>
      </trkpt>
      <trkpt lat="43.98198" lon="7.20368">
        <ele>1023.799987793</ele>
        <time>2019-05-11T10:57:45.000Z</time>
      </trkpt>
      <trkpt lat="43.98197" lon="7.20369">
        <ele>1023.5999755859</ele>
        <time>2019-05-11T10:57:53.000Z</time>
      </trkpt>
      <trkpt lat="43.98197" lon="7.20371">
        <ele>1024</ele>
        <time>2019-05-11T10:58:07.000Z</time>
      </trkpt>
      <trkpt lat="43.98196" lon="7.20373">
        <ele>1023.799987793</ele>
        <time>2019-05-11T10:58:16.000Z</time>
      </trkpt>
      <trkpt lat="43.98195" lon="7.20374">
        <ele>1023.799987793</ele>
        <time>2019-05-11T10:58:24.000Z</time>
      </trkpt>
      <trkpt lat="43.98195" lon="7.20375">
        <ele>1023</ele>
        <time>2019-05-11T10:58:28.000Z</time>
      </trkpt>
      <trkpt lat="43.98195" lon="7.20375">
        <ele>1023.4000244141</ele>
        <time>2019-05-11T10:58:30.000Z</time>
      </trkpt>
      <trkpt lat="43.98196" lon="7.20375">
        <ele>1023.4000244141</ele>
        <time>2019-05-11T10:58:38.000Z</time>
      </trkpt>
      <trkpt lat="43.98196" lon="7.20375">
        <ele>1023.200012207</ele>
        <time>2019-05-11T10:58:43.000Z</time>
      </trkpt>
      <trkpt lat="43.98195" lon="7.20374">
        <ele>1022.799987793</ele>
        <time>2019-05-11T10:58:52.000Z</time>
      </trkpt>
      <trkpt lat="43.98196" lon="7.20372">
        <ele>1022.5999755859</ele>
        <time>2019-05-11T10:59:02.000Z</time>
      </trkpt>
      <trkpt lat="43.98196" lon="7.20371">
        <ele>1023</ele>
        <time>2019-05-11T10:59:09.000Z</time>
      </trkpt>
      <trkpt lat="43.98195" lon="7.2037">
        <ele>1023</ele>
        <time>2019-05-11T10:59:21.000Z</time>
      </trkpt>
      <trkpt lat="43.98194" lon="7.20368">
        <ele>1023</ele>
        <time>2019-05-11T10:59:32.000Z</time>
      </trkpt>
      <trkpt lat="43.98194" lon="7.20368">
        <ele>1022.799987793</ele>
        <time>2019-05-11T10:59:39.000Z</time>
      </trkpt>
      <trkpt lat="43.98192" lon="7.20368">
        <ele>1023</ele>
        <time>2019-05-11T10:59:49.000Z</time>
      </trkpt>
      <trkpt lat="43.9819" lon="7.20366">
        <ele>1023</ele>
        <time>2019-05-11T10:59:57.000Z</time>
      </trkpt>
      <trkpt lat="43.9819" lon="7.20366">
        <ele>1022.799987793</ele>
        <time>2019-05-11T11:00:02.000Z</time>
      </trkpt>
      <trkpt lat="43.9819" lon="7.20369">
        <ele>1023</ele>
        <time>2019-05-11T11:00:12.000Z</time>
      </trkpt>
      <trkpt lat="43.98189" lon="7.2037">
        <ele>1023</ele>
        <time>2019-05-11T11:00:19.000Z</time>
      </trkpt>
      <trkpt lat="43.98188" lon="7.2037">
        <ele>1023.200012207</ele>
        <time>2019-05-11T11:00:26.000Z</time>
      </trkpt>
      <trkpt lat="43.98188" lon="7.20372">
        <ele>1022.5999755859</ele>
        <time>2019-05-11T11:00:34.000Z</time>
      </trkpt>
      <trkpt lat="43.98188" lon="7.20373">
        <ele>1022.5999755859</ele>
        <time>2019-05-11T11:00:36.000Z</time>
      </trkpt>
      <trkpt lat="43.98187" lon="7.20375">
        <ele>1022.5999755859</ele>
        <time>2019-05-11T11:00:39.000Z</time>
      </trkpt>
      <trkpt lat="43.98187" lon="7.20375">
        <ele>1022.4000244141</ele>
        <time>2019-05-11T11:00:43.000Z</time>
      </trkpt>
      <trkpt lat="43.98188" lon="7.20374">
        <ele>1023</ele>
        <time>2019-05-11T11:00:51.000Z</time>
      </trkpt>
      <trkpt lat="43.98188" lon="7.20371">
        <ele>1023</ele>
        <time>2019-05-11T11:01:04.000Z</time>
      </trkpt>
      <trkpt lat="43.98188" lon="7.2037">
        <ele>1022.4000244141</ele>
        <time>2019-05-11T11:01:13.000Z</time>
      </trkpt>
      <trkpt lat="43.98187" lon="7.2037">
        <ele>1022.4000244141</ele>
        <time>2019-05-11T11:01:20.000Z</time>
      </trkpt>
      <trkpt lat="43.98187" lon="7.20369">
        <ele>1022.200012207</ele>
        <time>2019-05-11T11:01:27.000Z</time>
      </trkpt>
      <trkpt lat="43.98185" lon="7.20367">
        <ele>1022.5999755859</ele>
        <time>2019-05-11T11:01:38.000Z</time>
      </trkpt>
      <trkpt lat="43.98185" lon="7.20365">
        <ele>1022.4000244141</ele>
        <time>2019-05-11T11:01:54.000Z</time>
      </trkpt>
      <trkpt lat="43.98186" lon="7.20369">
        <ele>1022.200012207</ele>
        <time>2019-05-11T11:02:11.000Z</time>
      </trkpt>
      <trkpt lat="43.98185" lon="7.2037">
        <ele>1022</ele>
        <time>2019-05-11T11:02:18.000Z</time>
      </trkpt>
      <trkpt lat="43.98185" lon="7.2037">
        <ele>1022</ele>
        <time>2019-05-11T11:02:19.000Z</time>
      </trkpt>
      <trkpt lat="43.98186" lon="7.2037">
        <ele>1021.5999755859</ele>
        <time>2019-05-11T11:02:24.000Z</time>
      </trkpt>
      <trkpt lat="43.98186" lon="7.2037">
        <ele>1022.200012207</ele>
        <time>2019-05-11T11:02:32.000Z</time>
      </trkpt>
      <trkpt lat="43.98186" lon="7.2037">
        <ele>1022.200012207</ele>
        <time>2019-05-11T11:02:35.000Z</time>
      </trkpt>
      <trkpt lat="43.98186" lon="7.2037">
        <ele>1022.200012207</ele>
        <time>2019-05-11T11:02:37.000Z</time>
      </trkpt>
      <trkpt lat="43.98188" lon="7.20374">
        <ele>1022</ele>
        <time>2019-05-11T11:02:46.000Z</time>
      </trkpt>
      <trkpt lat="43.9819" lon="7.20372">
        <ele>1022.200012207</ele>
        <time>2019-05-11T11:02:56.000Z</time>
      </trkpt>
      <trkpt lat="43.98192" lon="7.2037">
        <ele>1022.200012207</ele>
        <time>2019-05-11T11:03:03.000Z</time>
      </trkpt>
      <trkpt lat="43.9819" lon="7.20371">
        <ele>1022.200012207</ele>
        <time>2019-05-11T11:03:11.000Z</time>
      </trkpt>
      <trkpt lat="43.9819" lon="7.20371">
        <ele>1022.4000244141</ele>
        <time>2019-05-11T11:03:20.000Z</time>
      </trkpt>
      <trkpt lat="43.98189" lon="7.20372">
        <ele>1022.4000244141</ele>
        <time>2019-05-11T11:03:28.000Z</time>
      </trkpt>
      <trkpt lat="43.98188" lon="7.20373">
        <ele>1022.799987793</ele>
        <time>2019-05-11T11:03:35.000Z</time>
      </trkpt>
      <trkpt lat="43.98188" lon="7.20376">
        <ele>1022.799987793</ele>
        <time>2019-05-11T11:03:46.000Z</time>
      </trkpt>
      <trkpt lat="43.98188" lon="7.20376">
        <ele>1023</ele>
        <time>2019-05-11T11:03:47.000Z</time>
      </trkpt>
      <trkpt lat="43.98189" lon="7.20376">
        <ele>1022.5999755859</ele>
        <time>2019-05-11T11:03:54.000Z</time>
      </trkpt>
      <trkpt lat="43.98192" lon="7.20375">
        <ele>1022.4000244141</ele>
        <time>2019-05-11T11:03:58.000Z</time>
      </trkpt>
      <trkpt lat="43.98194" lon="7.20374">
        <ele>1022</ele>
        <time>2019-05-11T11:04:00.000Z</time>
      </trkpt>
      <trkpt lat="43.98195" lon="7.20375">
        <ele>1022</ele>
        <time>2019-05-11T11:04:01.000Z</time>
      </trkpt>
      <trkpt lat="43.98196" lon="7.20377">
        <ele>1021.5999755859</ele>
        <time>2019-05-11T11:04:03.000Z</time>
      </trkpt>
      <trkpt lat="43.98195" lon="7.20378">
        <ele>1021.200012207</ele>
        <time>2019-05-11T11:04:04.000Z</time>
      </trkpt>
      <trkpt lat="43.98195" lon="7.20379">
        <ele>1020.799987793</ele>
        <time>2019-05-11T11:04:05.000Z</time>
      </trkpt>
      <trkpt lat="43.98194" lon="7.20383">
        <ele>1019.799987793</ele>
        <time>2019-05-11T11:04:07.000Z</time>
      </trkpt>
      <trkpt lat="43.98194" lon="7.20386">
        <ele>1019.4000244141</ele>
        <time>2019-05-11T11:04:08.000Z</time>
      </trkpt>
      <trkpt lat="43.98192" lon="7.20391">
        <ele>1018.4000244141</ele>
        <time>2019-05-11T11:04:10.000Z</time>
      </trkpt>
      <trkpt lat="43.98189" lon="7.20398">
        <ele>1017.200012207</ele>
        <time>2019-05-11T11:04:12.000Z</time>
      </trkpt>
      <trkpt lat="43.98185" lon="7.2041">
        <ele>1015.5999755859</ele>
        <time>2019-05-11T11:04:15.000Z</time>
      </trkpt>
      <trkpt lat="43.98185" lon="7.20413">
        <ele>1015.4000244141</ele>
        <time>2019-05-11T11:04:16.000Z</time>
      </trkpt>
      <trkpt lat="43.98183" lon="7.20425">
        <ele>1014.799987793</ele>
        <time>2019-05-11T11:04:20.000Z</time>
      </trkpt>
      <trkpt lat="43.98184" lon="7.20426">
        <ele>1014.200012207</ele>
        <time>2019-05-11T11:04:21.000Z</time>
      </trkpt>
      <trkpt lat="43.98185" lon="7.20433">
        <ele>1012.799987793</ele>
        <time>2019-05-11T11:04:23.000Z</time>
      </trkpt>
      <trkpt lat="43.98183" lon="7.20439">
        <ele>1011.4000244141</ele>
        <time>2019-05-11T11:04:25.000Z</time>
      </trkpt>
      <trkpt lat="43.98183" lon="7.20445">
        <ele>1010.4000244141</ele>
        <time>2019-05-11T11:04:27.000Z</time>
      </trkpt>
      <trkpt lat="43.98183" lon="7.20449">
        <ele>1009.799987793</ele>
        <time>2019-05-11T11:04:28.000Z</time>
      </trkpt>
      <trkpt lat="43.98182" lon="7.20456">
        <ele>1009</ele>
        <time>2019-05-11T11:04:30.000Z</time>
      </trkpt>
      <trkpt lat="43.98182" lon="7.2046">
        <ele>1007.5999755859</ele>
        <time>2019-05-11T11:04:32.000Z</time>
      </trkpt>
      <trkpt lat="43.98182" lon="7.20463">
        <ele>1005.5999755859</ele>
        <time>2019-05-11T11:04:34.000Z</time>
      </trkpt>
      <trkpt lat="43.98181" lon="7.20468">
        <ele>1004.4000244141</ele>
        <time>2019-05-11T11:04:36.000Z</time>
      </trkpt>
      <trkpt lat="43.9818" lon="7.20474">
        <ele>1003.4000244141</ele>
        <time>2019-05-11T11:04:38.000Z</time>
      </trkpt>
      <trkpt lat="43.9818" lon="7.20479">
        <ele>1002</ele>
        <time>2019-05-11T11:04:40.000Z</time>
      </trkpt>
      <trkpt lat="43.98178" lon="7.20485">
        <ele>1000.799987793</ele>
        <time>2019-05-11T11:04:42.000Z</time>
      </trkpt>
      <trkpt lat="43.98176" lon="7.20492">
        <ele>1000</ele>
        <time>2019-05-11T11:04:44.000Z</time>
      </trkpt>
      <trkpt lat="43.98175" lon="7.20495">
        <ele>999.20001220703</ele>
        <time>2019-05-11T11:04:45.000Z</time>
      </trkpt>
      <trkpt lat="43.98173" lon="7.205">
        <ele>997.59997558594</ele>
        <time>2019-05-11T11:04:47.000Z</time>
      </trkpt>
      <trkpt lat="43.98173" lon="7.205">
        <ele>996.79998779297</ele>
        <time>2019-05-11T11:04:48.000Z</time>
      </trkpt>
      <trkpt lat="43.98174" lon="7.20501">
        <ele>996</ele>
        <time>2019-05-11T11:04:49.000Z</time>
      </trkpt>
      <trkpt lat="43.98176" lon="7.20506">
        <ele>993.79998779297</ele>
        <time>2019-05-11T11:04:52.000Z</time>
      </trkpt>
      <trkpt lat="43.98177" lon="7.20508">
        <ele>993.20001220703</ele>
        <time>2019-05-11T11:04:53.000Z</time>
      </trkpt>
      <trkpt lat="43.98177" lon="7.20509">
        <ele>992.59997558594</ele>
        <time>2019-05-11T11:04:54.000Z</time>
      </trkpt>
      <trkpt lat="43.98177" lon="7.2051">
        <ele>991.59997558594</ele>
        <time>2019-05-11T11:04:56.000Z</time>
      </trkpt>
      <trkpt lat="43.98177" lon="7.2051">
        <ele>991.59997558594</ele>
        <time>2019-05-11T11:04:57.000Z</time>
      </trkpt>
      <trkpt lat="43.98171" lon="7.20515">
        <ele>991.20001220703</ele>
        <time>2019-05-11T11:05:02.000Z</time>
      </trkpt>
      <trkpt lat="43.98161" lon="7.20522">
        <ele>991.59997558594</ele>
        <time>2019-05-11T11:05:07.000Z</time>
      </trkpt>
      <trkpt lat="43.98152" lon="7.20527">
        <ele>991.40002441406</ele>
        <time>2019-05-11T11:05:11.000Z</time>
      </trkpt>
      <trkpt lat="43.98145" lon="7.20539">
        <ele>991.79998779297</ele>
        <time>2019-05-11T11:05:16.000Z</time>
      </trkpt>
      <trkpt lat="43.98143" lon="7.20544">
        <ele>991.59997558594</ele>
        <time>2019-05-11T11:05:19.000Z</time>
      </trkpt>
      <trkpt lat="43.98139" lon="7.20556">
        <ele>991.40002441406</ele>
        <time>2019-05-11T11:05:26.000Z</time>
      </trkpt>
      <trkpt lat="43.98135" lon="7.20567">
        <ele>991.40002441406</ele>
        <time>2019-05-11T11:05:30.000Z</time>
      </trkpt>
      <trkpt lat="43.98126" lon="7.20588">
        <ele>991.59997558594</ele>
        <time>2019-05-11T11:05:36.000Z</time>
      </trkpt>
      <trkpt lat="43.98121" lon="7.20602">
        <ele>991.40002441406</ele>
        <time>2019-05-11T11:05:40.000Z</time>
      </trkpt>
      <trkpt lat="43.98117" lon="7.20611">
        <ele>991.40002441406</ele>
        <time>2019-05-11T11:05:44.000Z</time>
      </trkpt>
      <trkpt lat="43.98115" lon="7.20612">
        <ele>991.40002441406</ele>
        <time>2019-05-11T11:05:45.000Z</time>
      </trkpt>
      <trkpt lat="43.98102" lon="7.20626">
        <ele>991.40002441406</ele>
        <time>2019-05-11T11:05:53.000Z</time>
      </trkpt>
      <trkpt lat="43.98102" lon="7.20628">
        <ele>991.40002441406</ele>
        <time>2019-05-11T11:05:58.000Z</time>
      </trkpt>
      <trkpt lat="43.98101" lon="7.20629">
        <ele>991.59997558594</ele>
        <time>2019-05-11T11:06:10.000Z</time>
      </trkpt>
      <trkpt lat="43.981" lon="7.20632">
        <ele>991.59997558594</ele>
        <time>2019-05-11T11:06:26.000Z</time>
      </trkpt>
      <trkpt lat="43.981" lon="7.20632">
        <ele>991.59997558594</ele>
        <time>2019-05-11T11:06:33.000Z</time>
      </trkpt>
      <trkpt lat="43.981" lon="7.20633">
        <ele>991.40002441406</ele>
        <time>2019-05-11T11:06:53.000Z</time>
      </trkpt>
      <trkpt lat="43.98099" lon="7.20635">
        <ele>991.79998779297</ele>
        <time>2019-05-11T11:07:03.000Z</time>
      </trkpt>
      <trkpt lat="43.98093" lon="7.20638">
        <ele>991.59997558594</ele>
        <time>2019-05-11T11:07:10.000Z</time>
      </trkpt>
      <trkpt lat="43.98093" lon="7.20638">
        <ele>991.59997558594</ele>
        <time>2019-05-11T11:07:18.000Z</time>
      </trkpt>
      <trkpt lat="43.98094" lon="7.20638">
        <ele>992</ele>
        <time>2019-05-11T11:07:33.000Z</time>
      </trkpt>
      <trkpt lat="43.98097" lon="7.20638">
        <ele>991.59997558594</ele>
        <time>2019-05-11T11:07:40.000Z</time>
      </trkpt>
      <trkpt lat="43.98102" lon="7.20633">
        <ele>991.59997558594</ele>
        <time>2019-05-11T11:07:46.000Z</time>
      </trkpt>
      <trkpt lat="43.98108" lon="7.20627">
        <ele>992</ele>
        <time>2019-05-11T11:07:51.000Z</time>
      </trkpt>
      <trkpt lat="43.98112" lon="7.2062">
        <ele>992.59997558594</ele>
        <time>2019-05-11T11:07:58.000Z</time>
      </trkpt>
      <trkpt lat="43.98112" lon="7.20619">
        <ele>992.59997558594</ele>
        <time>2019-05-11T11:07:59.000Z</time>
      </trkpt>
      <trkpt lat="43.98108" lon="7.20619">
        <ele>992.40002441406</ele>
        <time>2019-05-11T11:08:09.000Z</time>
      </trkpt>
      <trkpt lat="43.98103" lon="7.20624">
        <ele>992</ele>
        <time>2019-05-11T11:08:15.000Z</time>
      </trkpt>
      <trkpt lat="43.98098" lon="7.2063">
        <ele>992.20001220703</ele>
        <time>2019-05-11T11:08:20.000Z</time>
      </trkpt>
      <trkpt lat="43.98096" lon="7.20634">
        <ele>992.20001220703</ele>
        <time>2019-05-11T11:08:23.000Z</time>
      </trkpt>
      <trkpt lat="43.98094" lon="7.20636">
        <ele>992</ele>
        <time>2019-05-11T11:08:25.000Z</time>
      </trkpt>
      <trkpt lat="43.98091" lon="7.20638">
        <ele>992</ele>
        <time>2019-05-11T11:08:29.000Z</time>
      </trkpt>
      <trkpt lat="43.9809" lon="7.20639">
        <ele>992.20001220703</ele>
        <time>2019-05-11T11:08:35.000Z</time>
      </trkpt>
      <trkpt lat="43.98088" lon="7.20639">
        <ele>992.59997558594</ele>
        <time>2019-05-11T11:08:41.000Z</time>
      </trkpt>
      <trkpt lat="43.98081" lon="7.20643">
        <ele>992.40002441406</ele>
        <time>2019-05-11T11:08:48.000Z</time>
      </trkpt>
      <trkpt lat="43.98076" lon="7.20644">
        <ele>991.79998779297</ele>
        <time>2019-05-11T11:08:54.000Z</time>
      </trkpt>
      <trkpt lat="43.98075" lon="7.20646">
        <ele>991.79998779297</ele>
        <time>2019-05-11T11:08:55.000Z</time>
      </trkpt>
      <trkpt lat="43.98071" lon="7.20648">
        <ele>991.59997558594</ele>
        <time>2019-05-11T11:09:00.000Z</time>
      </trkpt>
      <trkpt lat="43.9807" lon="7.20648">
        <ele>991.59997558594</ele>
        <time>2019-05-11T11:09:02.000Z</time>
      </trkpt>
      <trkpt lat="43.98068" lon="7.20649">
        <ele>991.79998779297</ele>
        <time>2019-05-11T11:09:04.000Z</time>
      </trkpt>
      <trkpt lat="43.98067" lon="7.20651">
        <ele>992</ele>
        <time>2019-05-11T11:09:06.000Z</time>
      </trkpt>
      <trkpt lat="43.98062" lon="7.20655">
        <ele>992</ele>
        <time>2019-05-11T11:09:12.000Z</time>
      </trkpt>
      <trkpt lat="43.98059" lon="7.20661">
        <ele>992</ele>
        <time>2019-05-11T11:09:19.000Z</time>
      </trkpt>
      <trkpt lat="43.98057" lon="7.20664">
        <ele>992</ele>
        <time>2019-05-11T11:09:23.000Z</time>
      </trkpt>
      <trkpt lat="43.98053" lon="7.20669">
        <ele>992</ele>
        <time>2019-05-11T11:09:27.000Z</time>
      </trkpt>
      <trkpt lat="43.98042" lon="7.20684">
        <ele>992.20001220703</ele>
        <time>2019-05-11T11:09:32.000Z</time>
      </trkpt>
      <trkpt lat="43.9803" lon="7.20698">
        <ele>992.20001220703</ele>
        <time>2019-05-11T11:09:36.000Z</time>
      </trkpt>
      <trkpt lat="43.98016" lon="7.20715">
        <ele>992</ele>
        <time>2019-05-11T11:09:41.000Z</time>
      </trkpt>
      <trkpt lat="43.98004" lon="7.20731">
        <ele>992</ele>
        <time>2019-05-11T11:09:46.000Z</time>
      </trkpt>
      <trkpt lat="43.97991" lon="7.20749">
        <ele>991.79998779297</ele>
        <time>2019-05-11T11:09:51.000Z</time>
      </trkpt>
      <trkpt lat="43.97977" lon="7.20769">
        <ele>991.59997558594</ele>
        <time>2019-05-11T11:09:58.000Z</time>
      </trkpt>
      <trkpt lat="43.97962" lon="7.20783">
        <ele>991.59997558594</ele>
        <time>2019-05-11T11:10:04.000Z</time>
      </trkpt>
      <trkpt lat="43.97949" lon="7.20793">
        <ele>991.40002441406</ele>
        <time>2019-05-11T11:10:09.000Z</time>
      </trkpt>
      <trkpt lat="43.97933" lon="7.20787">
        <ele>991.20001220703</ele>
        <time>2019-05-11T11:10:14.000Z</time>
      </trkpt>
      <trkpt lat="43.9792" lon="7.20775">
        <ele>991.59997558594</ele>
        <time>2019-05-11T11:10:19.000Z</time>
      </trkpt>
      <trkpt lat="43.97916" lon="7.20772">
        <ele>991.59997558594</ele>
        <time>2019-05-11T11:10:21.000Z</time>
      </trkpt>
      <trkpt lat="43.97911" lon="7.20771">
        <ele>991.40002441406</ele>
        <time>2019-05-11T11:10:23.000Z</time>
      </trkpt>
      <trkpt lat="43.97903" lon="7.20769">
        <ele>991.40002441406</ele>
        <time>2019-05-11T11:10:26.000Z</time>
      </trkpt>
      <trkpt lat="43.97898" lon="7.20771">
        <ele>991.40002441406</ele>
        <time>2019-05-11T11:10:28.000Z</time>
      </trkpt>
      <trkpt lat="43.97887" lon="7.20774">
        <ele>991.79998779297</ele>
        <time>2019-05-11T11:10:34.000Z</time>
      </trkpt>
      <trkpt lat="43.97879" lon="7.20774">
        <ele>991.79998779297</ele>
        <time>2019-05-11T11:10:39.000Z</time>
      </trkpt>
      <trkpt lat="43.97877" lon="7.20774">
        <ele>992</ele>
        <time>2019-05-11T11:10:40.000Z</time>
      </trkpt>
      <trkpt lat="43.97868" lon="7.2078">
        <ele>992</ele>
        <time>2019-05-11T11:10:43.000Z</time>
      </trkpt>
      <trkpt lat="43.97849" lon="7.20789">
        <ele>992</ele>
        <time>2019-05-11T11:10:49.000Z</time>
      </trkpt>
      <trkpt lat="43.97835" lon="7.20797">
        <ele>992.20001220703</ele>
        <time>2019-05-11T11:10:54.000Z</time>
      </trkpt>
      <trkpt lat="43.97833" lon="7.20798">
        <ele>991.79998779297</ele>
        <time>2019-05-11T11:11:00.000Z</time>
      </trkpt>
      <trkpt lat="43.97831" lon="7.20799">
        <ele>991.59997558594</ele>
        <time>2019-05-11T11:11:21.000Z</time>
      </trkpt>
      <trkpt lat="43.9783" lon="7.20801">
        <ele>991.20001220703</ele>
        <time>2019-05-11T11:11:35.000Z</time>
      </trkpt>
      <trkpt lat="43.97829" lon="7.20804">
        <ele>990.79998779297</ele>
        <time>2019-05-11T11:11:56.000Z</time>
      </trkpt>
      <trkpt lat="43.97829" lon="7.20807">
        <ele>990.59997558594</ele>
        <time>2019-05-11T11:12:10.000Z</time>
      </trkpt>
      <trkpt lat="43.97829" lon="7.20808">
        <ele>990.59997558594</ele>
        <time>2019-05-11T11:12:26.000Z</time>
      </trkpt>
      <trkpt lat="43.97829" lon="7.20808">
        <ele>990.40002441406</ele>
        <time>2019-05-11T11:12:42.000Z</time>
      </trkpt>
      <trkpt lat="43.97829" lon="7.20808">
        <ele>990.40002441406</ele>
        <time>2019-05-11T11:12:43.000Z</time>
      </trkpt>
      <trkpt lat="43.9783" lon="7.20809">
        <ele>990.40002441406</ele>
        <time>2019-05-11T11:12:59.000Z</time>
      </trkpt>
      <trkpt lat="43.9783" lon="7.20808">
        <ele>990.20001220703</ele>
        <time>2019-05-11T11:13:14.000Z</time>
      </trkpt>
      <trkpt lat="43.9783" lon="7.20805">
        <ele>990.79998779297</ele>
        <time>2019-05-11T11:13:25.000Z</time>
      </trkpt>
      <trkpt lat="43.9783" lon="7.20804">
        <ele>990.79998779297</ele>
        <time>2019-05-11T11:13:45.000Z</time>
      </trkpt>
      <trkpt lat="43.9783" lon="7.20805">
        <ele>990.79998779297</ele>
        <time>2019-05-11T11:14:01.000Z</time>
      </trkpt>
      <trkpt lat="43.97828" lon="7.20805">
        <ele>990.59997558594</ele>
        <time>2019-05-11T11:14:10.000Z</time>
      </trkpt>
      <trkpt lat="43.97817" lon="7.20815">
        <ele>990.40002441406</ele>
        <time>2019-05-11T11:14:16.000Z</time>
      </trkpt>
      <trkpt lat="43.97804" lon="7.20825">
        <ele>990.59997558594</ele>
        <time>2019-05-11T11:14:22.000Z</time>
      </trkpt>
      <trkpt lat="43.97802" lon="7.20825">
        <ele>990.59997558594</ele>
        <time>2019-05-11T11:14:26.000Z</time>
      </trkpt>
      <trkpt lat="43.97801" lon="7.20826">
        <ele>990.40002441406</ele>
        <time>2019-05-11T11:14:39.000Z</time>
      </trkpt>
      <trkpt lat="43.978" lon="7.20825">
        <ele>990.40002441406</ele>
        <time>2019-05-11T11:14:54.000Z</time>
      </trkpt>
      <trkpt lat="43.97796" lon="7.20832">
        <ele>990.40002441406</ele>
        <time>2019-05-11T11:15:06.000Z</time>
      </trkpt>
      <trkpt lat="43.97791" lon="7.2084">
        <ele>990</ele>
        <time>2019-05-11T11:15:10.000Z</time>
      </trkpt>
      <trkpt lat="43.9778" lon="7.20854">
        <ele>990.40002441406</ele>
        <time>2019-05-11T11:15:16.000Z</time>
      </trkpt>
      <trkpt lat="43.97765" lon="7.20865">
        <ele>990.40002441406</ele>
        <time>2019-05-11T11:15:24.000Z</time>
      </trkpt>
      <trkpt lat="43.97763" lon="7.20864">
        <ele>990.20001220703</ele>
        <time>2019-05-11T11:15:30.000Z</time>
      </trkpt>
      <trkpt lat="43.97761" lon="7.20862">
        <ele>990.20001220703</ele>
        <time>2019-05-11T11:15:31.000Z</time>
      </trkpt>
      <trkpt lat="43.97759" lon="7.20858">
        <ele>990.20001220703</ele>
        <time>2019-05-11T11:15:35.000Z</time>
      </trkpt>
      <trkpt lat="43.97757" lon="7.20849">
        <ele>990.20001220703</ele>
        <time>2019-05-11T11:15:40.000Z</time>
      </trkpt>
      <trkpt lat="43.97757" lon="7.20847">
        <ele>989.79998779297</ele>
        <time>2019-05-11T11:15:45.000Z</time>
      </trkpt>
      <trkpt lat="43.97756" lon="7.20843">
        <ele>989.40002441406</ele>
        <time>2019-05-11T11:15:52.000Z</time>
      </trkpt>
      <trkpt lat="43.97756" lon="7.20837">
        <ele>989.20001220703</ele>
        <time>2019-05-11T11:15:59.000Z</time>
      </trkpt>
      <trkpt lat="43.97755" lon="7.20832">
        <ele>988.79998779297</ele>
        <time>2019-05-11T11:16:05.000Z</time>
      </trkpt>
      <trkpt lat="43.97756" lon="7.20823">
        <ele>989</ele>
        <time>2019-05-11T11:16:13.000Z</time>
      </trkpt>
      <trkpt lat="43.97756" lon="7.20814">
        <ele>989.79998779297</ele>
        <time>2019-05-11T11:16:20.000Z</time>
      </trkpt>
      <trkpt lat="43.97757" lon="7.20801">
        <ele>989.20001220703</ele>
        <time>2019-05-11T11:16:28.000Z</time>
      </trkpt>
      <trkpt lat="43.97756" lon="7.20795">
        <ele>989</ele>
        <time>2019-05-11T11:16:32.000Z</time>
      </trkpt>
      <trkpt lat="43.97754" lon="7.20791">
        <ele>989</ele>
        <time>2019-05-11T11:16:35.000Z</time>
      </trkpt>
      <trkpt lat="43.97749" lon="7.20781">
        <ele>989.20001220703</ele>
        <time>2019-05-11T11:16:42.000Z</time>
      </trkpt>
      <trkpt lat="43.97748" lon="7.20779">
        <ele>988.79998779297</ele>
        <time>2019-05-11T11:16:47.000Z</time>
      </trkpt>
      <trkpt lat="43.97745" lon="7.20775">
        <ele>988.59997558594</ele>
        <time>2019-05-11T11:16:53.000Z</time>
      </trkpt>
      <trkpt lat="43.97741" lon="7.2077">
        <ele>988.59997558594</ele>
        <time>2019-05-11T11:16:59.000Z</time>
      </trkpt>
      <trkpt lat="43.97734" lon="7.20763">
        <ele>988.40002441406</ele>
        <time>2019-05-11T11:17:04.000Z</time>
      </trkpt>
      <trkpt lat="43.97732" lon="7.20762">
        <ele>988.40002441406</ele>
        <time>2019-05-11T11:17:05.000Z</time>
      </trkpt>
      <trkpt lat="43.97726" lon="7.2076">
        <ele>988.20001220703</ele>
        <time>2019-05-11T11:17:09.000Z</time>
      </trkpt>
      <trkpt lat="43.97716" lon="7.20755">
        <ele>988.40002441406</ele>
        <time>2019-05-11T11:17:14.000Z</time>
      </trkpt>
      <trkpt lat="43.97707" lon="7.20755">
        <ele>988.40002441406</ele>
        <time>2019-05-11T11:17:18.000Z</time>
      </trkpt>
      <trkpt lat="43.97705" lon="7.20755">
        <ele>988.40002441406</ele>
        <time>2019-05-11T11:17:19.000Z</time>
      </trkpt>
      <trkpt lat="43.97699" lon="7.20758">
        <ele>988.59997558594</ele>
        <time>2019-05-11T11:17:23.000Z</time>
      </trkpt>
      <trkpt lat="43.97698" lon="7.20758">
        <ele>988.40002441406</ele>
        <time>2019-05-11T11:17:29.000Z</time>
      </trkpt>
      <trkpt lat="43.97695" lon="7.20758">
        <ele>988</ele>
        <time>2019-05-11T11:17:34.000Z</time>
      </trkpt>
      <trkpt lat="43.97694" lon="7.20757">
        <ele>988</ele>
        <time>2019-05-11T11:17:35.000Z</time>
      </trkpt>
      <trkpt lat="43.97691" lon="7.20756">
        <ele>988.20001220703</ele>
        <time>2019-05-11T11:17:41.000Z</time>
      </trkpt>
      <trkpt lat="43.97683" lon="7.20758">
        <ele>988.20001220703</ele>
        <time>2019-05-11T11:17:46.000Z</time>
      </trkpt>
      <trkpt lat="43.9767" lon="7.20761">
        <ele>988.40002441406</ele>
        <time>2019-05-11T11:17:51.000Z</time>
      </trkpt>
      <trkpt lat="43.97658" lon="7.20765">
        <ele>988.40002441406</ele>
        <time>2019-05-11T11:17:56.000Z</time>
      </trkpt>
      <trkpt lat="43.97647" lon="7.20768">
        <ele>988.20001220703</ele>
        <time>2019-05-11T11:18:01.000Z</time>
      </trkpt>
      <trkpt lat="43.97633" lon="7.20775">
        <ele>988.20001220703</ele>
        <time>2019-05-11T11:18:07.000Z</time>
      </trkpt>
      <trkpt lat="43.97613" lon="7.20785">
        <ele>988.40002441406</ele>
        <time>2019-05-11T11:18:16.000Z</time>
      </trkpt>
      <trkpt lat="43.97606" lon="7.20787">
        <ele>988.40002441406</ele>
        <time>2019-05-11T11:18:21.000Z</time>
      </trkpt>
      <trkpt lat="43.97601" lon="7.20789">
        <ele>988.20001220703</ele>
        <time>2019-05-11T11:18:28.000Z</time>
      </trkpt>
      <trkpt lat="43.976" lon="7.2079">
        <ele>988.20001220703</ele>
        <time>2019-05-11T11:18:34.000Z</time>
      </trkpt>
      <trkpt lat="43.97598" lon="7.20792">
        <ele>988</ele>
        <time>2019-05-11T11:18:42.000Z</time>
      </trkpt>
      <trkpt lat="43.97597" lon="7.20792">
        <ele>987.40002441406</ele>
        <time>2019-05-11T11:18:47.000Z</time>
      </trkpt>
      <trkpt lat="43.97596" lon="7.20792">
        <ele>987</ele>
        <time>2019-05-11T11:18:53.000Z</time>
      </trkpt>
      <trkpt lat="43.97595" lon="7.20794">
        <ele>987.20001220703</ele>
        <time>2019-05-11T11:18:59.000Z</time>
      </trkpt>
      <trkpt lat="43.97592" lon="7.20793">
        <ele>986.79998779297</ele>
        <time>2019-05-11T11:19:08.000Z</time>
      </trkpt>
      <trkpt lat="43.97589" lon="7.20795">
        <ele>986.79998779297</ele>
        <time>2019-05-11T11:19:16.000Z</time>
      </trkpt>
      <trkpt lat="43.97587" lon="7.20793">
        <ele>987</ele>
        <time>2019-05-11T11:19:22.000Z</time>
      </trkpt>
      <trkpt lat="43.97585" lon="7.20793">
        <ele>986.79998779297</ele>
        <time>2019-05-11T11:19:28.000Z</time>
      </trkpt>
      <trkpt lat="43.97585" lon="7.20792">
        <ele>986.40002441406</ele>
        <time>2019-05-11T11:19:33.000Z</time>
      </trkpt>
      <trkpt lat="43.97585" lon="7.20791">
        <ele>986.59997558594</ele>
        <time>2019-05-11T11:19:39.000Z</time>
      </trkpt>
      <trkpt lat="43.97584" lon="7.20791">
        <ele>986.20001220703</ele>
        <time>2019-05-11T11:19:46.000Z</time>
      </trkpt>
      <trkpt lat="43.97584" lon="7.20791">
        <ele>986</ele>
        <time>2019-05-11T11:19:47.000Z</time>
      </trkpt>
      <trkpt lat="43.97584" lon="7.20791">
        <ele>986.40002441406</ele>
        <time>2019-05-11T11:19:57.000Z</time>
      </trkpt>
      <trkpt lat="43.97584" lon="7.20791">
        <ele>986.20001220703</ele>
        <time>2019-05-11T11:20:03.000Z</time>
      </trkpt>
      <trkpt lat="43.97584" lon="7.2079">
        <ele>986.59997558594</ele>
        <time>2019-05-11T11:20:10.000Z</time>
      </trkpt>
      <trkpt lat="43.97583" lon="7.2079">
        <ele>986.40002441406</ele>
        <time>2019-05-11T11:20:18.000Z</time>
      </trkpt>
      <trkpt lat="43.97583" lon="7.20791">
        <ele>985.59997558594</ele>
        <time>2019-05-11T11:20:25.000Z</time>
      </trkpt>
      <trkpt lat="43.97584" lon="7.20791">
        <ele>985.79998779297</ele>
        <time>2019-05-11T11:20:34.000Z</time>
      </trkpt>
      <trkpt lat="43.97584" lon="7.20791">
        <ele>985.79998779297</ele>
        <time>2019-05-11T11:20:43.000Z</time>
      </trkpt>
      <trkpt lat="43.97584" lon="7.2079">
        <ele>986.40002441406</ele>
        <time>2019-05-11T11:20:49.000Z</time>
      </trkpt>
      <trkpt lat="43.97583" lon="7.2079">
        <ele>986.40002441406</ele>
        <time>2019-05-11T11:20:54.000Z</time>
      </trkpt>
      <trkpt lat="43.97583" lon="7.2079">
        <ele>985.79998779297</ele>
        <time>2019-05-11T11:20:59.000Z</time>
      </trkpt>
      <trkpt lat="43.97583" lon="7.2079">
        <ele>986</ele>
        <time>2019-05-11T11:21:06.000Z</time>
      </trkpt>
      <trkpt lat="43.97584" lon="7.2079">
        <ele>986.40002441406</ele>
        <time>2019-05-11T11:21:14.000Z</time>
      </trkpt>
      <trkpt lat="43.97584" lon="7.20791">
        <ele>986.20001220703</ele>
        <time>2019-05-11T11:21:15.000Z</time>
      </trkpt>
      <trkpt lat="43.97586" lon="7.20792">
        <ele>985.59997558594</ele>
        <time>2019-05-11T11:21:20.000Z</time>
      </trkpt>
      <trkpt lat="43.97591" lon="7.20791">
        <ele>986.20001220703</ele>
        <time>2019-05-11T11:21:27.000Z</time>
      </trkpt>
      <trkpt lat="43.97594" lon="7.20789">
        <ele>986.59997558594</ele>
        <time>2019-05-11T11:21:33.000Z</time>
      </trkpt>
      <trkpt lat="43.97596" lon="7.20787">
        <ele>987.40002441406</ele>
        <time>2019-05-11T11:21:39.000Z</time>
      </trkpt>
      <trkpt lat="43.97596" lon="7.20787">
        <ele>987.59997558594</ele>
        <time>2019-05-11T11:21:41.000Z</time>
      </trkpt>
      <trkpt lat="43.97597" lon="7.20786">
        <ele>987.40002441406</ele>
        <time>2019-05-11T11:21:50.000Z</time>
      </trkpt>
      <trkpt lat="43.97596" lon="7.20785">
        <ele>987.59997558594</ele>
        <time>2019-05-11T11:21:58.000Z</time>
      </trkpt>
      <trkpt lat="43.97594" lon="7.20785">
        <ele>987.59997558594</ele>
        <time>2019-05-11T11:22:02.000Z</time>
      </trkpt>
      <trkpt lat="43.97593" lon="7.20785">
        <ele>987.59997558594</ele>
        <time>2019-05-11T11:22:03.000Z</time>
      </trkpt>
      <trkpt lat="43.97594" lon="7.20786">
        <ele>987.59997558594</ele>
        <time>2019-05-11T11:22:07.000Z</time>
      </trkpt>
      <trkpt lat="43.97595" lon="7.20788">
        <ele>987.59997558594</ele>
        <time>2019-05-11T11:22:14.000Z</time>
      </trkpt>
      <trkpt lat="43.97596" lon="7.20787">
        <ele>987.20001220703</ele>
        <time>2019-05-11T11:22:22.000Z</time>
      </trkpt>
      <trkpt lat="43.97596" lon="7.20787">
        <ele>987.20001220703</ele>
        <time>2019-05-11T11:22:33.000Z</time>
      </trkpt>
      <trkpt lat="43.97595" lon="7.20786">
        <ele>987.59997558594</ele>
        <time>2019-05-11T11:22:43.000Z</time>
      </trkpt>
      <trkpt lat="43.97595" lon="7.20786">
        <ele>987.20001220703</ele>
        <time>2019-05-11T11:22:54.000Z</time>
      </trkpt>
      <trkpt lat="43.97595" lon="7.20786">
        <ele>987.20001220703</ele>
        <time>2019-05-11T11:23:14.000Z</time>
      </trkpt>
      <trkpt lat="43.97596" lon="7.20786">
        <ele>987</ele>
        <time>2019-05-11T11:23:34.000Z</time>
      </trkpt>
      <trkpt lat="43.97596" lon="7.20786">
        <ele>987</ele>
        <time>2019-05-11T11:23:43.000Z</time>
      </trkpt>
      <trkpt lat="43.97596" lon="7.20786">
        <ele>987</ele>
        <time>2019-05-11T11:23:50.000Z</time>
      </trkpt>
      <trkpt lat="43.97596" lon="7.20786">
        <ele>987.40002441406</ele>
        <time>2019-05-11T11:24:01.000Z</time>
      </trkpt>
      <trkpt lat="43.97596" lon="7.20786">
        <ele>987</ele>
        <time>2019-05-11T11:24:11.000Z</time>
      </trkpt>
      <trkpt lat="43.97597" lon="7.20786">
        <ele>986.79998779297</ele>
        <time>2019-05-11T11:24:30.000Z</time>
      </trkpt>
      <trkpt lat="43.97598" lon="7.20785">
        <ele>986.79998779297</ele>
        <time>2019-05-11T11:24:38.000Z</time>
      </trkpt>
      <trkpt lat="43.97597" lon="7.20785">
        <ele>986.79998779297</ele>
        <time>2019-05-11T11:24:50.000Z</time>
      </trkpt>
      <trkpt lat="43.97597" lon="7.20786">
        <ele>987</ele>
        <time>2019-05-11T11:25:07.000Z</time>
      </trkpt>
      <trkpt lat="43.97597" lon="7.20786">
        <ele>987.20001220703</ele>
        <time>2019-05-11T11:25:19.000Z</time>
      </trkpt>
      <trkpt lat="43.97597" lon="7.20786">
        <ele>986.79998779297</ele>
        <time>2019-05-11T11:25:34.000Z</time>
      </trkpt>
      <trkpt lat="43.97597" lon="7.20787">
        <ele>987</ele>
        <time>2019-05-11T11:25:41.000Z</time>
      </trkpt>
      <trkpt lat="43.97597" lon="7.20787">
        <ele>987</ele>
        <time>2019-05-11T11:25:49.000Z</time>
      </trkpt>
      <trkpt lat="43.97597" lon="7.20787">
        <ele>986.79998779297</ele>
        <time>2019-05-11T11:26:01.000Z</time>
      </trkpt>
      <trkpt lat="43.97597" lon="7.20787">
        <ele>987.20001220703</ele>
        <time>2019-05-11T11:26:12.000Z</time>
      </trkpt>
      <trkpt lat="43.97596" lon="7.20787">
        <ele>987.20001220703</ele>
        <time>2019-05-11T11:26:23.000Z</time>
      </trkpt>
      <trkpt lat="43.97596" lon="7.20786">
        <ele>987.20001220703</ele>
        <time>2019-05-11T11:26:33.000Z</time>
      </trkpt>
      <trkpt lat="43.97595" lon="7.20786">
        <ele>987.79998779297</ele>
        <time>2019-05-11T11:26:44.000Z</time>
      </trkpt>
      <trkpt lat="43.97595" lon="7.20786">
        <ele>988</ele>
        <time>2019-05-11T11:26:55.000Z</time>
      </trkpt>
      <trkpt lat="43.97596" lon="7.20786">
        <ele>987.79998779297</ele>
        <time>2019-05-11T11:27:00.000Z</time>
      </trkpt>
      <trkpt lat="43.97596" lon="7.20786">
        <ele>988</ele>
        <time>2019-05-11T11:27:06.000Z</time>
      </trkpt>
      <trkpt lat="43.97596" lon="7.20786">
        <ele>988.40002441406</ele>
        <time>2019-05-11T11:27:10.000Z</time>
      </trkpt>
      <trkpt lat="43.97596" lon="7.20786">
        <ele>988.59997558594</ele>
        <time>2019-05-11T11:27:18.000Z</time>
      </trkpt>
      <trkpt lat="43.97595" lon="7.20786">
        <ele>988.79998779297</ele>
        <time>2019-05-11T11:27:34.000Z</time>
      </trkpt>
      <trkpt lat="43.97595" lon="7.20786">
        <ele>989</ele>
        <time>2019-05-11T11:27:44.000Z</time>
      </trkpt>
      <trkpt lat="43.97595" lon="7.20786">
        <ele>989.40002441406</ele>
        <time>2019-05-11T11:27:54.000Z</time>
      </trkpt>
      <trkpt lat="43.97595" lon="7.20786">
        <ele>989.40002441406</ele>
        <time>2019-05-11T11:27:56.000Z</time>
      </trkpt>
      <trkpt lat="43.97595" lon="7.20786">
        <ele>989.59997558594</ele>
        <time>2019-05-11T11:28:08.000Z</time>
      </trkpt>
      <trkpt lat="43.97594" lon="7.20786">
        <ele>989.40002441406</ele>
        <time>2019-05-11T11:28:18.000Z</time>
      </trkpt>
      <trkpt lat="43.97595" lon="7.20785">
        <ele>989.79998779297</ele>
        <time>2019-05-11T11:28:23.000Z</time>
      </trkpt>
      <trkpt lat="43.97594" lon="7.20785">
        <ele>989.79998779297</ele>
        <time>2019-05-11T11:28:33.000Z</time>
      </trkpt>
      <trkpt lat="43.97594" lon="7.20786">
        <ele>989.59997558594</ele>
        <time>2019-05-11T11:28:44.000Z</time>
      </trkpt>
      <trkpt lat="43.97594" lon="7.20787">
        <ele>989.40002441406</ele>
        <time>2019-05-11T11:28:55.000Z</time>
      </trkpt>
      <trkpt lat="43.97594" lon="7.20786">
        <ele>989.59997558594</ele>
        <time>2019-05-11T11:29:03.000Z</time>
      </trkpt>
      <trkpt lat="43.97594" lon="7.20786">
        <ele>989.40002441406</ele>
        <time>2019-05-11T11:29:17.000Z</time>
      </trkpt>
      <trkpt lat="43.97594" lon="7.20786">
        <ele>989.40002441406</ele>
        <time>2019-05-11T11:29:29.000Z</time>
      </trkpt>
      <trkpt lat="43.97594" lon="7.20786">
        <ele>989</ele>
        <time>2019-05-11T11:29:46.000Z</time>
      </trkpt>
      <trkpt lat="43.97594" lon="7.20786">
        <ele>989</ele>
        <time>2019-05-11T11:30:00.000Z</time>
      </trkpt>
      <trkpt lat="43.97594" lon="7.20786">
        <ele>989</ele>
        <time>2019-05-11T11:30:07.000Z</time>
      </trkpt>
      <trkpt lat="43.97594" lon="7.20786">
        <ele>988.79998779297</ele>
        <time>2019-05-11T11:30:31.000Z</time>
      </trkpt>
      <trkpt lat="43.97594" lon="7.20786">
        <ele>988.79998779297</ele>
        <time>2019-05-11T11:30:42.000Z</time>
      </trkpt>
      <trkpt lat="43.97594" lon="7.20786">
        <ele>989</ele>
        <time>2019-05-11T11:31:03.000Z</time>
      </trkpt>
      <trkpt lat="43.97594" lon="7.20786">
        <ele>988.79998779297</ele>
        <time>2019-05-11T11:31:13.000Z</time>
      </trkpt>
      <trkpt lat="43.97593" lon="7.20786">
        <ele>988.79998779297</ele>
        <time>2019-05-11T11:31:29.000Z</time>
      </trkpt>
      <trkpt lat="43.97593" lon="7.20786">
        <ele>989.20001220703</ele>
        <time>2019-05-11T11:31:40.000Z</time>
      </trkpt>
      <trkpt lat="43.97593" lon="7.20786">
        <ele>989.20001220703</ele>
        <time>2019-05-11T11:31:51.000Z</time>
      </trkpt>
      <trkpt lat="43.97593" lon="7.20786">
        <ele>989.20001220703</ele>
        <time>2019-05-11T11:32:03.000Z</time>
      </trkpt>
      <trkpt lat="43.97593" lon="7.20786">
        <ele>989.20001220703</ele>
        <time>2019-05-11T11:32:16.000Z</time>
      </trkpt>
      <trkpt lat="43.97593" lon="7.20786">
        <ele>989</ele>
        <time>2019-05-11T11:32:25.000Z</time>
      </trkpt>
      <trkpt lat="43.97594" lon="7.20786">
        <ele>988.79998779297</ele>
        <time>2019-05-11T11:32:40.000Z</time>
      </trkpt>
      <trkpt lat="43.97594" lon="7.20786">
        <ele>988.79998779297</ele>
        <time>2019-05-11T11:32:54.000Z</time>
      </trkpt>
      <trkpt lat="43.97594" lon="7.20786">
        <ele>988.59997558594</ele>
        <time>2019-05-11T11:33:01.000Z</time>
      </trkpt>
      <trkpt lat="43.97594" lon="7.20787">
        <ele>988.79998779297</ele>
        <time>2019-05-11T11:33:12.000Z</time>
      </trkpt>
      <trkpt lat="43.97594" lon="7.20787">
        <ele>988.40002441406</ele>
        <time>2019-05-11T11:33:20.000Z</time>
      </trkpt>
      <trkpt lat="43.97594" lon="7.20787">
        <ele>988.40002441406</ele>
        <time>2019-05-11T11:33:34.000Z</time>
      </trkpt>
      <trkpt lat="43.97594" lon="7.20786">
        <ele>988.20001220703</ele>
        <time>2019-05-11T11:33:41.000Z</time>
      </trkpt>
      <trkpt lat="43.97594" lon="7.20785">
        <ele>988.40002441406</ele>
        <time>2019-05-11T11:33:53.000Z</time>
      </trkpt>
      <trkpt lat="43.97594" lon="7.20785">
        <ele>988.40002441406</ele>
        <time>2019-05-11T11:34:05.000Z</time>
      </trkpt>
      <trkpt lat="43.97594" lon="7.20786">
        <ele>988.20001220703</ele>
        <time>2019-05-11T11:34:17.000Z</time>
      </trkpt>
      <trkpt lat="43.97594" lon="7.20786">
        <ele>988.20001220703</ele>
        <time>2019-05-11T11:34:26.000Z</time>
      </trkpt>
      <trkpt lat="43.97593" lon="7.20787">
        <ele>988</ele>
        <time>2019-05-11T11:34:47.000Z</time>
      </trkpt>
      <trkpt lat="43.97593" lon="7.20787">
        <ele>988</ele>
        <time>2019-05-11T11:35:07.000Z</time>
      </trkpt>
      <trkpt lat="43.97593" lon="7.20788">
        <ele>988.20001220703</ele>
        <time>2019-05-11T11:35:16.000Z</time>
      </trkpt>
      <trkpt lat="43.97593" lon="7.20787">
        <ele>988.40002441406</ele>
        <time>2019-05-11T11:35:31.000Z</time>
      </trkpt>
      <trkpt lat="43.97594" lon="7.20786">
        <ele>988.40002441406</ele>
        <time>2019-05-11T11:35:50.000Z</time>
      </trkpt>
      <trkpt lat="43.97594" lon="7.20786">
        <ele>988.40002441406</ele>
        <time>2019-05-11T11:35:59.000Z</time>
      </trkpt>
      <trkpt lat="43.97594" lon="7.20787">
        <ele>988.59997558594</ele>
        <time>2019-05-11T11:36:14.000Z</time>
      </trkpt>
      <trkpt lat="43.97594" lon="7.20787">
        <ele>988.79998779297</ele>
        <time>2019-05-11T11:36:24.000Z</time>
      </trkpt>
      <trkpt lat="43.97594" lon="7.20787">
        <ele>988.79998779297</ele>
        <time>2019-05-11T11:36:35.000Z</time>
      </trkpt>
      <trkpt lat="43.97594" lon="7.20787">
        <ele>988.79998779297</ele>
        <time>2019-05-11T11:36:50.000Z</time>
      </trkpt>
      <trkpt lat="43.97594" lon="7.20787">
        <ele>988.59997558594</ele>
        <time>2019-05-11T11:36:58.000Z</time>
      </trkpt>
      <trkpt lat="43.97594" lon="7.20787">
        <ele>988.59997558594</ele>
        <time>2019-05-11T11:37:11.000Z</time>
      </trkpt>
      <trkpt lat="43.97594" lon="7.20787">
        <ele>988.79998779297</ele>
        <time>2019-05-11T11:37:29.000Z</time>
      </trkpt>
      <trkpt lat="43.97594" lon="7.20787">
        <ele>989</ele>
        <time>2019-05-11T11:37:42.000Z</time>
      </trkpt>
      <trkpt lat="43.97594" lon="7.20787">
        <ele>988.59997558594</ele>
        <time>2019-05-11T11:37:58.000Z</time>
      </trkpt>
      <trkpt lat="43.97594" lon="7.20787">
        <ele>988.40002441406</ele>
        <time>2019-05-11T11:38:10.000Z</time>
      </trkpt>
      <trkpt lat="43.97593" lon="7.20787">
        <ele>988.79998779297</ele>
        <time>2019-05-11T11:38:24.000Z</time>
      </trkpt>
      <trkpt lat="43.97593" lon="7.20787">
        <ele>988.79998779297</ele>
        <time>2019-05-11T11:38:48.000Z</time>
      </trkpt>
      <trkpt lat="43.97594" lon="7.20788">
        <ele>988.59997558594</ele>
        <time>2019-05-11T11:39:14.000Z</time>
      </trkpt>
      <trkpt lat="43.97594" lon="7.20788">
        <ele>988.59997558594</ele>
        <time>2019-05-11T11:39:27.000Z</time>
      </trkpt>
      <trkpt lat="43.97594" lon="7.20787">
        <ele>988.79998779297</ele>
        <time>2019-05-11T11:39:38.000Z</time>
      </trkpt>
      <trkpt lat="43.97594" lon="7.20787">
        <ele>988.79998779297</ele>
        <time>2019-05-11T11:39:51.000Z</time>
      </trkpt>
      <trkpt lat="43.97594" lon="7.20787">
        <ele>989</ele>
        <time>2019-05-11T11:40:04.000Z</time>
      </trkpt>
      <trkpt lat="43.97594" lon="7.20786">
        <ele>988.59997558594</ele>
        <time>2019-05-11T11:40:14.000Z</time>
      </trkpt>
      <trkpt lat="43.97594" lon="7.20787">
        <ele>988</ele>
        <time>2019-05-11T11:40:37.000Z</time>
      </trkpt>
      <trkpt lat="43.97594" lon="7.20787">
        <ele>988.20001220703</ele>
        <time>2019-05-11T11:40:48.000Z</time>
      </trkpt>
      <trkpt lat="43.97594" lon="7.20787">
        <ele>988</ele>
        <time>2019-05-11T11:40:55.000Z</time>
      </trkpt>
      <trkpt lat="43.97594" lon="7.20787">
        <ele>987.40002441406</ele>
        <time>2019-05-11T11:41:09.000Z</time>
      </trkpt>
      <trkpt lat="43.97594" lon="7.20786">
        <ele>987.20001220703</ele>
        <time>2019-05-11T11:41:15.000Z</time>
      </trkpt>
      <trkpt lat="43.97592" lon="7.20784">
        <ele>987.40002441406</ele>
        <time>2019-05-11T11:41:34.000Z</time>
      </trkpt>
      <trkpt lat="43.97593" lon="7.20785">
        <ele>987.59997558594</ele>
        <time>2019-05-11T11:41:44.000Z</time>
      </trkpt>
      <trkpt lat="43.97593" lon="7.20786">
        <ele>987.59997558594</ele>
        <time>2019-05-11T11:42:07.000Z</time>
      </trkpt>
      <trkpt lat="43.97593" lon="7.20787">
        <ele>987.40002441406</ele>
        <time>2019-05-11T11:42:21.000Z</time>
      </trkpt>
      <trkpt lat="43.97594" lon="7.20788">
        <ele>988.40002441406</ele>
        <time>2019-05-11T11:42:41.000Z</time>
      </trkpt>
      <trkpt lat="43.97594" lon="7.20788">
        <ele>988.40002441406</ele>
        <time>2019-05-11T11:42:42.000Z</time>
      </trkpt>
      <trkpt lat="43.97594" lon="7.20787">
        <ele>988.59997558594</ele>
        <time>2019-05-11T11:43:05.000Z</time>
      </trkpt>
      <trkpt lat="43.97595" lon="7.20786">
        <ele>989.40002441406</ele>
        <time>2019-05-11T11:43:11.000Z</time>
      </trkpt>
      <trkpt lat="43.97595" lon="7.20786">
        <ele>989.59997558594</ele>
        <time>2019-05-11T11:43:17.000Z</time>
      </trkpt>
      <trkpt lat="43.97596" lon="7.20786">
        <ele>989.79998779297</ele>
        <time>2019-05-11T11:43:27.000Z</time>
      </trkpt>
      <trkpt lat="43.97596" lon="7.20786">
        <ele>989.59997558594</ele>
        <time>2019-05-11T11:43:36.000Z</time>
      </trkpt>
      <trkpt lat="43.97596" lon="7.20785">
        <ele>989.59997558594</ele>
        <time>2019-05-11T11:43:50.000Z</time>
      </trkpt>
      <trkpt lat="43.97595" lon="7.20785">
        <ele>989.79998779297</ele>
        <time>2019-05-11T11:44:02.000Z</time>
      </trkpt>
      <trkpt lat="43.97595" lon="7.20785">
        <ele>989.59997558594</ele>
        <time>2019-05-11T11:44:12.000Z</time>
      </trkpt>
      <trkpt lat="43.97594" lon="7.20785">
        <ele>990.40002441406</ele>
        <time>2019-05-11T11:44:22.000Z</time>
      </trkpt>
      <trkpt lat="43.97595" lon="7.20785">
        <ele>990.20001220703</ele>
        <time>2019-05-11T11:44:29.000Z</time>
      </trkpt>
      <trkpt lat="43.97594" lon="7.20786">
        <ele>990</ele>
        <time>2019-05-11T11:44:47.000Z</time>
      </trkpt>
      <trkpt lat="43.97594" lon="7.20786">
        <ele>989.79998779297</ele>
        <time>2019-05-11T11:45:03.000Z</time>
      </trkpt>
      <trkpt lat="43.97594" lon="7.20786">
        <ele>990.20001220703</ele>
        <time>2019-05-11T11:45:16.000Z</time>
      </trkpt>
      <trkpt lat="43.97594" lon="7.20786">
        <ele>990.40002441406</ele>
        <time>2019-05-11T11:45:18.000Z</time>
      </trkpt>
      <trkpt lat="43.97594" lon="7.20786">
        <ele>990</ele>
        <time>2019-05-11T11:45:24.000Z</time>
      </trkpt>
      <trkpt lat="43.97594" lon="7.20786">
        <ele>990.59997558594</ele>
        <time>2019-05-11T11:45:39.000Z</time>
      </trkpt>
      <trkpt lat="43.97594" lon="7.20786">
        <ele>990.79998779297</ele>
        <time>2019-05-11T11:45:49.000Z</time>
      </trkpt>
      <trkpt lat="43.97594" lon="7.20786">
        <ele>990.59997558594</ele>
        <time>2019-05-11T11:45:57.000Z</time>
      </trkpt>
      <trkpt lat="43.97594" lon="7.20786">
        <ele>990.59997558594</ele>
        <time>2019-05-11T11:46:05.000Z</time>
      </trkpt>
      <trkpt lat="43.97594" lon="7.20786">
        <ele>990.20001220703</ele>
        <time>2019-05-11T11:46:15.000Z</time>
      </trkpt>
      <trkpt lat="43.97594" lon="7.20786">
        <ele>990.20001220703</ele>
        <time>2019-05-11T11:46:31.000Z</time>
      </trkpt>
      <trkpt lat="43.97594" lon="7.20787">
        <ele>990.40002441406</ele>
        <time>2019-05-11T11:46:53.000Z</time>
      </trkpt>
      <trkpt lat="43.97594" lon="7.20787">
        <ele>990.59997558594</ele>
        <time>2019-05-11T11:47:11.000Z</time>
      </trkpt>
      <trkpt lat="43.97594" lon="7.20787">
        <ele>991.20001220703</ele>
        <time>2019-05-11T11:47:25.000Z</time>
      </trkpt>
      <trkpt lat="43.97593" lon="7.20786">
        <ele>990.79998779297</ele>
        <time>2019-05-11T11:47:42.000Z</time>
      </trkpt>
      <trkpt lat="43.97594" lon="7.20786">
        <ele>990.59997558594</ele>
        <time>2019-05-11T11:47:54.000Z</time>
      </trkpt>
      <trkpt lat="43.97594" lon="7.20787">
        <ele>990.79998779297</ele>
        <time>2019-05-11T11:48:12.000Z</time>
      </trkpt>
      <trkpt lat="43.97594" lon="7.20787">
        <ele>990.79998779297</ele>
        <time>2019-05-11T11:48:25.000Z</time>
      </trkpt>
      <trkpt lat="43.97594" lon="7.20787">
        <ele>990.79998779297</ele>
        <time>2019-05-11T11:48:39.000Z</time>
      </trkpt>
      <trkpt lat="43.97594" lon="7.20787">
        <ele>990</ele>
        <time>2019-05-11T11:48:58.000Z</time>
      </trkpt>
      <trkpt lat="43.97594" lon="7.20786">
        <ele>989.59997558594</ele>
        <time>2019-05-11T11:49:15.000Z</time>
      </trkpt>
      <trkpt lat="43.97593" lon="7.20786">
        <ele>991</ele>
        <time>2019-05-11T11:49:35.000Z</time>
      </trkpt>
      <trkpt lat="43.97594" lon="7.20785">
        <ele>990.40002441406</ele>
        <time>2019-05-11T11:49:59.000Z</time>
      </trkpt>
      <trkpt lat="43.97593" lon="7.20785">
        <ele>990.79998779297</ele>
        <time>2019-05-11T11:50:24.000Z</time>
      </trkpt>
      <trkpt lat="43.97593" lon="7.20785">
        <ele>991</ele>
        <time>2019-05-11T11:50:31.000Z</time>
      </trkpt>
      <trkpt lat="43.97593" lon="7.20785">
        <ele>991.59997558594</ele>
        <time>2019-05-11T11:50:37.000Z</time>
      </trkpt>
      <trkpt lat="43.97594" lon="7.20786">
        <ele>991.40002441406</ele>
        <time>2019-05-11T11:50:39.000Z</time>
      </trkpt>
      <trkpt lat="43.97594" lon="7.20786">
        <ele>991.20001220703</ele>
        <time>2019-05-11T11:50:49.000Z</time>
      </trkpt>
      <trkpt lat="43.97594" lon="7.20786">
        <ele>991.40002441406</ele>
        <time>2019-05-11T11:51:04.000Z</time>
      </trkpt>
      <trkpt lat="43.97594" lon="7.20786">
        <ele>991.20001220703</ele>
        <time>2019-05-11T11:51:26.000Z</time>
      </trkpt>
      <trkpt lat="43.97595" lon="7.20786">
        <ele>990.79998779297</ele>
        <time>2019-05-11T11:51:52.000Z</time>
      </trkpt>
      <trkpt lat="43.97595" lon="7.20786">
        <ele>991.59997558594</ele>
        <time>2019-05-11T11:52:04.000Z</time>
      </trkpt>
      <trkpt lat="43.97595" lon="7.20786">
        <ele>991</ele>
        <time>2019-05-11T11:52:13.000Z</time>
      </trkpt>
      <trkpt lat="43.97595" lon="7.20786">
        <ele>991.20001220703</ele>
        <time>2019-05-11T11:52:23.000Z</time>
      </trkpt>
      <trkpt lat="43.97595" lon="7.20786">
        <ele>991</ele>
        <time>2019-05-11T11:52:35.000Z</time>
      </trkpt>
      <trkpt lat="43.97595" lon="7.20786">
        <ele>990.40002441406</ele>
        <time>2019-05-11T11:52:43.000Z</time>
      </trkpt>
      <trkpt lat="43.97594" lon="7.20785">
        <ele>991</ele>
        <time>2019-05-11T11:52:52.000Z</time>
      </trkpt>
      <trkpt lat="43.97595" lon="7.20786">
        <ele>991</ele>
        <time>2019-05-11T11:53:00.000Z</time>
      </trkpt>
      <trkpt lat="43.97596" lon="7.20786">
        <ele>990.59997558594</ele>
        <time>2019-05-11T11:53:14.000Z</time>
      </trkpt>
      <trkpt lat="43.97596" lon="7.20786">
        <ele>989.79998779297</ele>
        <time>2019-05-11T11:53:22.000Z</time>
      </trkpt>
      <trkpt lat="43.97595" lon="7.20786">
        <ele>989.40002441406</ele>
        <time>2019-05-11T11:53:24.000Z</time>
      </trkpt>
      <trkpt lat="43.97596" lon="7.20785">
        <ele>989.79998779297</ele>
        <time>2019-05-11T11:53:31.000Z</time>
      </trkpt>
      <trkpt lat="43.97596" lon="7.20785">
        <ele>990.20001220703</ele>
        <time>2019-05-11T11:53:41.000Z</time>
      </trkpt>
      <trkpt lat="43.97595" lon="7.20785">
        <ele>990.40002441406</ele>
        <time>2019-05-11T11:53:53.000Z</time>
      </trkpt>
      <trkpt lat="43.97595" lon="7.20785">
        <ele>990.59997558594</ele>
        <time>2019-05-11T11:53:56.000Z</time>
      </trkpt>
      <trkpt lat="43.97595" lon="7.20785">
        <ele>989.79998779297</ele>
        <time>2019-05-11T11:54:06.000Z</time>
      </trkpt>
      <trkpt lat="43.97595" lon="7.20785">
        <ele>989.59997558594</ele>
        <time>2019-05-11T11:54:13.000Z</time>
      </trkpt>
      <trkpt lat="43.97595" lon="7.20786">
        <ele>989.40002441406</ele>
        <time>2019-05-11T11:54:16.000Z</time>
      </trkpt>
      <trkpt lat="43.97594" lon="7.20786">
        <ele>990</ele>
        <time>2019-05-11T11:54:26.000Z</time>
      </trkpt>
      <trkpt lat="43.97592" lon="7.20788">
        <ele>990</ele>
        <time>2019-05-11T11:54:32.000Z</time>
      </trkpt>
      <trkpt lat="43.97588" lon="7.20791">
        <ele>989.40002441406</ele>
        <time>2019-05-11T11:54:37.000Z</time>
      </trkpt>
      <trkpt lat="43.97585" lon="7.20791">
        <ele>989.20001220703</ele>
        <time>2019-05-11T11:54:40.000Z</time>
      </trkpt>
      <trkpt lat="43.97584" lon="7.20788">
        <ele>988.59997558594</ele>
        <time>2019-05-11T11:54:46.000Z</time>
      </trkpt>
      <trkpt lat="43.97584" lon="7.20788">
        <ele>988.59997558594</ele>
        <time>2019-05-11T11:54:51.000Z</time>
      </trkpt>
      <trkpt lat="43.97583" lon="7.20788">
        <ele>988.59997558594</ele>
        <time>2019-05-11T11:54:52.000Z</time>
      </trkpt>
      <trkpt lat="43.97583" lon="7.20787">
        <ele>988</ele>
        <time>2019-05-11T11:54:57.000Z</time>
      </trkpt>
      <trkpt lat="43.97583" lon="7.20787">
        <ele>988.20001220703</ele>
        <time>2019-05-11T11:55:02.000Z</time>
      </trkpt>
      <trkpt lat="43.97584" lon="7.20789">
        <ele>988.59997558594</ele>
        <time>2019-05-11T11:55:11.000Z</time>
      </trkpt>
      <trkpt lat="43.97584" lon="7.20789">
        <ele>988.79998779297</ele>
        <time>2019-05-11T11:55:18.000Z</time>
      </trkpt>
      <trkpt lat="43.97584" lon="7.20789">
        <ele>988.59997558594</ele>
        <time>2019-05-11T11:55:27.000Z</time>
      </trkpt>
      <trkpt lat="43.97584" lon="7.20789">
        <ele>989.20001220703</ele>
        <time>2019-05-11T11:55:36.000Z</time>
      </trkpt>
      <trkpt lat="43.97584" lon="7.2079">
        <ele>988.79998779297</ele>
        <time>2019-05-11T11:55:45.000Z</time>
      </trkpt>
      <trkpt lat="43.97584" lon="7.20789">
        <ele>988.79998779297</ele>
        <time>2019-05-11T11:55:52.000Z</time>
      </trkpt>
      <trkpt lat="43.97584" lon="7.20789">
        <ele>989.20001220703</ele>
        <time>2019-05-11T11:56:03.000Z</time>
      </trkpt>
      <trkpt lat="43.97584" lon="7.20789">
        <ele>988.40002441406</ele>
        <time>2019-05-11T11:56:11.000Z</time>
      </trkpt>
      <trkpt lat="43.97584" lon="7.20789">
        <ele>989.20001220703</ele>
        <time>2019-05-11T11:56:18.000Z</time>
      </trkpt>
      <trkpt lat="43.97585" lon="7.20789">
        <ele>989</ele>
        <time>2019-05-11T11:56:28.000Z</time>
      </trkpt>
      <trkpt lat="43.97585" lon="7.20789">
        <ele>988.59997558594</ele>
        <time>2019-05-11T11:56:44.000Z</time>
      </trkpt>
      <trkpt lat="43.97584" lon="7.20789">
        <ele>989.20001220703</ele>
        <time>2019-05-11T11:56:57.000Z</time>
      </trkpt>
      <trkpt lat="43.97583" lon="7.20789">
        <ele>988.20001220703</ele>
        <time>2019-05-11T11:57:08.000Z</time>
      </trkpt>
      <trkpt lat="43.97583" lon="7.20788">
        <ele>988.40002441406</ele>
        <time>2019-05-11T11:57:14.000Z</time>
      </trkpt>
      <trkpt lat="43.97583" lon="7.20789">
        <ele>988.59997558594</ele>
        <time>2019-05-11T11:57:22.000Z</time>
      </trkpt>
      <trkpt lat="43.97583" lon="7.20788">
        <ele>989.59997558594</ele>
        <time>2019-05-11T11:57:36.000Z</time>
      </trkpt>
      <trkpt lat="43.97584" lon="7.20788">
        <ele>989.79998779297</ele>
        <time>2019-05-11T11:57:37.000Z</time>
      </trkpt>
      <trkpt lat="43.97584" lon="7.20788">
        <ele>989.59997558594</ele>
        <time>2019-05-11T11:57:41.000Z</time>
      </trkpt>
      <trkpt lat="43.97584" lon="7.20788">
        <ele>989</ele>
        <time>2019-05-11T11:57:49.000Z</time>
      </trkpt>
      <trkpt lat="43.97584" lon="7.20789">
        <ele>989.40002441406</ele>
        <time>2019-05-11T11:57:52.000Z</time>
      </trkpt>
      <trkpt lat="43.97583" lon="7.20789">
        <ele>989.40002441406</ele>
        <time>2019-05-11T11:57:54.000Z</time>
      </trkpt>
      <trkpt lat="43.97583" lon="7.20789">
        <ele>989.20001220703</ele>
        <time>2019-05-11T11:58:00.000Z</time>
      </trkpt>
      <trkpt lat="43.97584" lon="7.2079">
        <ele>988.79998779297</ele>
        <time>2019-05-11T11:58:05.000Z</time>
      </trkpt>
      <trkpt lat="43.97584" lon="7.2079">
        <ele>988.79998779297</ele>
        <time>2019-05-11T11:58:07.000Z</time>
      </trkpt>
      <trkpt lat="43.97584" lon="7.2079">
        <ele>988.40002441406</ele>
        <time>2019-05-11T11:58:19.000Z</time>
      </trkpt>
      <trkpt lat="43.97584" lon="7.2079">
        <ele>988.40002441406</ele>
        <time>2019-05-11T11:58:23.000Z</time>
      </trkpt>
      <trkpt lat="43.97584" lon="7.2079">
        <ele>989.40002441406</ele>
        <time>2019-05-11T11:58:30.000Z</time>
      </trkpt>
      <trkpt lat="43.97587" lon="7.20793">
        <ele>988.59997558594</ele>
        <time>2019-05-11T11:58:35.000Z</time>
      </trkpt>
      <trkpt lat="43.97591" lon="7.20792">
        <ele>988.79998779297</ele>
        <time>2019-05-11T11:58:39.000Z</time>
      </trkpt>
      <trkpt lat="43.97593" lon="7.2079">
        <ele>989.40002441406</ele>
        <time>2019-05-11T11:58:42.000Z</time>
      </trkpt>
      <trkpt lat="43.97595" lon="7.20791">
        <ele>989.79998779297</ele>
        <time>2019-05-11T11:58:47.000Z</time>
      </trkpt>
      <trkpt lat="43.97595" lon="7.20791">
        <ele>990</ele>
        <time>2019-05-11T11:58:48.000Z</time>
      </trkpt>
      <trkpt lat="43.97595" lon="7.20792">
        <ele>989.79998779297</ele>
        <time>2019-05-11T11:58:59.000Z</time>
      </trkpt>
      <trkpt lat="43.97594" lon="7.20792">
        <ele>990.40002441406</ele>
        <time>2019-05-11T11:59:05.000Z</time>
      </trkpt>
      <trkpt lat="43.97592" lon="7.20792">
        <ele>990.20001220703</ele>
        <time>2019-05-11T11:59:07.000Z</time>
      </trkpt>
      <trkpt lat="43.97588" lon="7.20794">
        <ele>990.20001220703</ele>
        <time>2019-05-11T11:59:10.000Z</time>
      </trkpt>
      <trkpt lat="43.97586" lon="7.20796">
        <ele>990.20001220703</ele>
        <time>2019-05-11T11:59:11.000Z</time>
      </trkpt>
      <trkpt lat="43.97578" lon="7.20799">
        <ele>990.20001220703</ele>
        <time>2019-05-11T11:59:14.000Z</time>
      </trkpt>
      <trkpt lat="43.97575" lon="7.20798">
        <ele>990</ele>
        <time>2019-05-11T11:59:15.000Z</time>
      </trkpt>
      <trkpt lat="43.97569" lon="7.20797">
        <ele>988.79998779297</ele>
        <time>2019-05-11T11:59:19.000Z</time>
      </trkpt>
      <trkpt lat="43.97569" lon="7.20798">
        <ele>988.40002441406</ele>
        <time>2019-05-11T11:59:20.000Z</time>
      </trkpt>
      <trkpt lat="43.97568" lon="7.20799">
        <ele>987.79998779297</ele>
        <time>2019-05-11T11:59:21.000Z</time>
      </trkpt>
      <trkpt lat="43.97567" lon="7.20801">
        <ele>987.20001220703</ele>
        <time>2019-05-11T11:59:22.000Z</time>
      </trkpt>
      <trkpt lat="43.97565" lon="7.20806">
        <ele>986.40002441406</ele>
        <time>2019-05-11T11:59:24.000Z</time>
      </trkpt>
      <trkpt lat="43.97564" lon="7.20807">
        <ele>986</ele>
        <time>2019-05-11T11:59:25.000Z</time>
      </trkpt>
      <trkpt lat="43.97562" lon="7.20811">
        <ele>985</ele>
        <time>2019-05-11T11:59:27.000Z</time>
      </trkpt>
      <trkpt lat="43.97562" lon="7.20813">
        <ele>984.20001220703</ele>
        <time>2019-05-11T11:59:29.000Z</time>
      </trkpt>
      <trkpt lat="43.97562" lon="7.20814">
        <ele>983.59997558594</ele>
        <time>2019-05-11T11:59:30.000Z</time>
      </trkpt>
      <trkpt lat="43.97559" lon="7.20822">
        <ele>982.40002441406</ele>
        <time>2019-05-11T11:59:33.000Z</time>
      </trkpt>
      <trkpt lat="43.97559" lon="7.20827">
        <ele>981.40002441406</ele>
        <time>2019-05-11T11:59:35.000Z</time>
      </trkpt>
      <trkpt lat="43.97558" lon="7.20837">
        <ele>980.59997558594</ele>
        <time>2019-05-11T11:59:37.000Z</time>
      </trkpt>
      <trkpt lat="43.97557" lon="7.20843">
        <ele>980.20001220703</ele>
        <time>2019-05-11T11:59:38.000Z</time>
      </trkpt>
      <trkpt lat="43.97554" lon="7.20853">
        <ele>978.79998779297</ele>
        <time>2019-05-11T11:59:40.000Z</time>
      </trkpt>
      <trkpt lat="43.97553" lon="7.20857">
        <ele>978</ele>
        <time>2019-05-11T11:59:41.000Z</time>
      </trkpt>
      <trkpt lat="43.97552" lon="7.20859">
        <ele>977</ele>
        <time>2019-05-11T11:59:42.000Z</time>
      </trkpt>
      <trkpt lat="43.97551" lon="7.20862">
        <ele>976</ele>
        <time>2019-05-11T11:59:43.000Z</time>
      </trkpt>
      <trkpt lat="43.97548" lon="7.20867">
        <ele>974.20001220703</ele>
        <time>2019-05-11T11:59:45.000Z</time>
      </trkpt>
      <trkpt lat="43.97548" lon="7.20868">
        <ele>973.79998779297</ele>
        <time>2019-05-11T11:59:46.000Z</time>
      </trkpt>
      <trkpt lat="43.97549" lon="7.2087">
        <ele>973</ele>
        <time>2019-05-11T11:59:48.000Z</time>
      </trkpt>
      <trkpt lat="43.97551" lon="7.20872">
        <ele>972.40002441406</ele>
        <time>2019-05-11T11:59:49.000Z</time>
      </trkpt>
      <trkpt lat="43.97551" lon="7.20875">
        <ele>971.59997558594</ele>
        <time>2019-05-11T11:59:51.000Z</time>
      </trkpt>
      <trkpt lat="43.97548" lon="7.2088">
        <ele>970</ele>
        <time>2019-05-11T11:59:53.000Z</time>
      </trkpt>
      <trkpt lat="43.97544" lon="7.20883">
        <ele>968.40002441406</ele>
        <time>2019-05-11T11:59:55.000Z</time>
      </trkpt>
      <trkpt lat="43.97542" lon="7.20884">
        <ele>967.79998779297</ele>
        <time>2019-05-11T11:59:56.000Z</time>
      </trkpt>
      <trkpt lat="43.97541" lon="7.20885">
        <ele>966.79998779297</ele>
        <time>2019-05-11T11:59:57.000Z</time>
      </trkpt>
      <trkpt lat="43.97539" lon="7.20889">
        <ele>965.59997558594</ele>
        <time>2019-05-11T11:59:59.000Z</time>
      </trkpt>
      <trkpt lat="43.97539" lon="7.20893">
        <ele>964.59997558594</ele>
        <time>2019-05-11T12:00:01.000Z</time>
      </trkpt>
      <trkpt lat="43.97537" lon="7.20897">
        <ele>963.40002441406</ele>
        <time>2019-05-11T12:00:03.000Z</time>
      </trkpt>
      <trkpt lat="43.97534" lon="7.20899">
        <ele>962</ele>
        <time>2019-05-11T12:00:05.000Z</time>
      </trkpt>
      <trkpt lat="43.97532" lon="7.20903">
        <ele>960.40002441406</ele>
        <time>2019-05-11T12:00:07.000Z</time>
      </trkpt>
      <trkpt lat="43.97531" lon="7.20905">
        <ele>960</ele>
        <time>2019-05-11T12:00:08.000Z</time>
      </trkpt>
      <trkpt lat="43.9753" lon="7.20908">
        <ele>959.20001220703</ele>
        <time>2019-05-11T12:00:09.000Z</time>
      </trkpt>
      <trkpt lat="43.97529" lon="7.2091">
        <ele>957.79998779297</ele>
        <time>2019-05-11T12:00:10.000Z</time>
      </trkpt>
      <trkpt lat="43.97527" lon="7.20914">
        <ele>956.20001220703</ele>
        <time>2019-05-11T12:00:12.000Z</time>
      </trkpt>
      <trkpt lat="43.97527" lon="7.20915">
        <ele>955</ele>
        <time>2019-05-11T12:00:13.000Z</time>
      </trkpt>
      <trkpt lat="43.97527" lon="7.20918">
        <ele>954</ele>
        <time>2019-05-11T12:00:14.000Z</time>
      </trkpt>
      <trkpt lat="43.97526" lon="7.20922">
        <ele>952.40002441406</ele>
        <time>2019-05-11T12:00:16.000Z</time>
      </trkpt>
      <trkpt lat="43.9752" lon="7.20922">
        <ele>951.20001220703</ele>
        <time>2019-05-11T12:00:18.000Z</time>
      </trkpt>
      <trkpt lat="43.97518" lon="7.20921">
        <ele>950.40002441406</ele>
        <time>2019-05-11T12:00:19.000Z</time>
      </trkpt>
      <trkpt lat="43.97516" lon="7.2092">
        <ele>949.79998779297</ele>
        <time>2019-05-11T12:00:20.000Z</time>
      </trkpt>
      <trkpt lat="43.97516" lon="7.20922">
        <ele>948.40002441406</ele>
        <time>2019-05-11T12:00:22.000Z</time>
      </trkpt>
      <trkpt lat="43.97516" lon="7.20929">
        <ele>947.20001220703</ele>
        <time>2019-05-11T12:00:24.000Z</time>
      </trkpt>
      <trkpt lat="43.97514" lon="7.20935">
        <ele>945.40002441406</ele>
        <time>2019-05-11T12:00:26.000Z</time>
      </trkpt>
      <trkpt lat="43.97511" lon="7.2094">
        <ele>944.20001220703</ele>
        <time>2019-05-11T12:00:28.000Z</time>
      </trkpt>
      <trkpt lat="43.97509" lon="7.20944">
        <ele>943.20001220703</ele>
        <time>2019-05-11T12:00:29.000Z</time>
      </trkpt>
      <trkpt lat="43.97506" lon="7.20948">
        <ele>942.20001220703</ele>
        <time>2019-05-11T12:00:30.000Z</time>
      </trkpt>
      <trkpt lat="43.97504" lon="7.20952">
        <ele>941.20001220703</ele>
        <time>2019-05-11T12:00:31.000Z</time>
      </trkpt>
      <trkpt lat="43.97501" lon="7.20956">
        <ele>939.40002441406</ele>
        <time>2019-05-11T12:00:32.000Z</time>
      </trkpt>
      <trkpt lat="43.97498" lon="7.20958">
        <ele>937.79998779297</ele>
        <time>2019-05-11T12:00:33.000Z</time>
      </trkpt>
      <trkpt lat="43.97495" lon="7.20961">
        <ele>937</ele>
        <time>2019-05-11T12:00:35.000Z</time>
      </trkpt>
      <trkpt lat="43.97491" lon="7.20967">
        <ele>936</ele>
        <time>2019-05-11T12:00:36.000Z</time>
      </trkpt>
      <trkpt lat="43.97488" lon="7.20971">
        <ele>935</ele>
        <time>2019-05-11T12:00:37.000Z</time>
      </trkpt>
      <trkpt lat="43.97485" lon="7.20975">
        <ele>933.20001220703</ele>
        <time>2019-05-11T12:00:38.000Z</time>
      </trkpt>
      <trkpt lat="43.97482" lon="7.20978">
        <ele>931.59997558594</ele>
        <time>2019-05-11T12:00:39.000Z</time>
      </trkpt>
      <trkpt lat="43.97478" lon="7.2098">
        <ele>929.59997558594</ele>
        <time>2019-05-11T12:00:40.000Z</time>
      </trkpt>
      <trkpt lat="43.97475" lon="7.20983">
        <ele>928</ele>
        <time>2019-05-11T12:00:41.000Z</time>
      </trkpt>
      <trkpt lat="43.97472" lon="7.20984">
        <ele>926</ele>
        <time>2019-05-11T12:00:42.000Z</time>
      </trkpt>
      <trkpt lat="43.9747" lon="7.20984">
        <ele>924.79998779297</ele>
        <time>2019-05-11T12:00:43.000Z</time>
      </trkpt>
      <trkpt lat="43.97468" lon="7.20983">
        <ele>923.59997558594</ele>
        <time>2019-05-11T12:00:44.000Z</time>
      </trkpt>
      <trkpt lat="43.97466" lon="7.20983">
        <ele>923</ele>
        <time>2019-05-11T12:00:45.000Z</time>
      </trkpt>
      <trkpt lat="43.97464" lon="7.20981">
        <ele>921.79998779297</ele>
        <time>2019-05-11T12:00:46.000Z</time>
      </trkpt>
      <trkpt lat="43.97459" lon="7.2098">
        <ele>921.20001220703</ele>
        <time>2019-05-11T12:00:48.000Z</time>
      </trkpt>
      <trkpt lat="43.97456" lon="7.20982">
        <ele>919.59997558594</ele>
        <time>2019-05-11T12:00:49.000Z</time>
      </trkpt>
      <trkpt lat="43.97454" lon="7.20984">
        <ele>918</ele>
        <time>2019-05-11T12:00:50.000Z</time>
      </trkpt>
      <trkpt lat="43.97451" lon="7.20987">
        <ele>916.79998779297</ele>
        <time>2019-05-11T12:00:51.000Z</time>
      </trkpt>
      <trkpt lat="43.97449" lon="7.20989">
        <ele>915.40002441406</ele>
        <time>2019-05-11T12:00:52.000Z</time>
      </trkpt>
      <trkpt lat="43.97447" lon="7.20992">
        <ele>914.20001220703</ele>
        <time>2019-05-11T12:00:53.000Z</time>
      </trkpt>
      <trkpt lat="43.97446" lon="7.20996">
        <ele>913.59997558594</ele>
        <time>2019-05-11T12:00:54.000Z</time>
      </trkpt>
      <trkpt lat="43.97439" lon="7.21006">
        <ele>912.79998779297</ele>
        <time>2019-05-11T12:00:57.000Z</time>
      </trkpt>
      <trkpt lat="43.97432" lon="7.2101">
        <ele>911.59997558594</ele>
        <time>2019-05-11T12:00:59.000Z</time>
      </trkpt>
      <trkpt lat="43.9743" lon="7.21011">
        <ele>910.40002441406</ele>
        <time>2019-05-11T12:01:00.000Z</time>
      </trkpt>
      <trkpt lat="43.97428" lon="7.21013">
        <ele>909.40002441406</ele>
        <time>2019-05-11T12:01:01.000Z</time>
      </trkpt>
      <trkpt lat="43.97427" lon="7.21014">
        <ele>908.59997558594</ele>
        <time>2019-05-11T12:01:02.000Z</time>
      </trkpt>
      <trkpt lat="43.97427" lon="7.21016">
        <ele>907.79998779297</ele>
        <time>2019-05-11T12:01:03.000Z</time>
      </trkpt>
      <trkpt lat="43.97424" lon="7.21024">
        <ele>906.79998779297</ele>
        <time>2019-05-11T12:01:06.000Z</time>
      </trkpt>
      <trkpt lat="43.97422" lon="7.21025">
        <ele>906</ele>
        <time>2019-05-11T12:01:07.000Z</time>
      </trkpt>
      <trkpt lat="43.9742" lon="7.21025">
        <ele>905</ele>
        <time>2019-05-11T12:01:08.000Z</time>
      </trkpt>
      <trkpt lat="43.97417" lon="7.21023">
        <ele>904</ele>
        <time>2019-05-11T12:01:09.000Z</time>
      </trkpt>
      <trkpt lat="43.97416" lon="7.2102">
        <ele>903</ele>
        <time>2019-05-11T12:01:10.000Z</time>
      </trkpt>
      <trkpt lat="43.97414" lon="7.21016">
        <ele>901.79998779297</ele>
        <time>2019-05-11T12:01:11.000Z</time>
      </trkpt>
      <trkpt lat="43.97412" lon="7.21007">
        <ele>900</ele>
        <time>2019-05-11T12:01:13.000Z</time>
      </trkpt>
      <trkpt lat="43.97412" lon="7.21004">
        <ele>899.20001220703</ele>
        <time>2019-05-11T12:01:14.000Z</time>
      </trkpt>
      <trkpt lat="43.97413" lon="7.21002">
        <ele>898.40002441406</ele>
        <time>2019-05-11T12:01:15.000Z</time>
      </trkpt>
      <trkpt lat="43.97414" lon="7.20994">
        <ele>896.79998779297</ele>
        <time>2019-05-11T12:01:17.000Z</time>
      </trkpt>
      <trkpt lat="43.97416" lon="7.2099">
        <ele>896.40002441406</ele>
        <time>2019-05-11T12:01:18.000Z</time>
      </trkpt>
      <trkpt lat="43.97417" lon="7.20986">
        <ele>896.40002441406</ele>
        <time>2019-05-11T12:01:19.000Z</time>
      </trkpt>
      <trkpt lat="43.97418" lon="7.20982">
        <ele>895.59997558594</ele>
        <time>2019-05-11T12:01:20.000Z</time>
      </trkpt>
      <trkpt lat="43.97422" lon="7.20972">
        <ele>895</ele>
        <time>2019-05-11T12:01:22.000Z</time>
      </trkpt>
      <trkpt lat="43.97422" lon="7.20969">
        <ele>894.59997558594</ele>
        <time>2019-05-11T12:01:23.000Z</time>
      </trkpt>
      <trkpt lat="43.97422" lon="7.20964">
        <ele>894.40002441406</ele>
        <time>2019-05-11T12:01:24.000Z</time>
      </trkpt>
      <trkpt lat="43.97424" lon="7.2096">
        <ele>893.79998779297</ele>
        <time>2019-05-11T12:01:25.000Z</time>
      </trkpt>
      <trkpt lat="43.97426" lon="7.20956">
        <ele>893.20001220703</ele>
        <time>2019-05-11T12:01:26.000Z</time>
      </trkpt>
      <trkpt lat="43.97429" lon="7.20948">
        <ele>891.79998779297</ele>
        <time>2019-05-11T12:01:28.000Z</time>
      </trkpt>
      <trkpt lat="43.97431" lon="7.20938">
        <ele>890.59997558594</ele>
        <time>2019-05-11T12:01:30.000Z</time>
      </trkpt>
      <trkpt lat="43.97427" lon="7.2093">
        <ele>889.20001220703</ele>
        <time>2019-05-11T12:01:32.000Z</time>
      </trkpt>
      <trkpt lat="43.97425" lon="7.20927">
        <ele>888.40002441406</ele>
        <time>2019-05-11T12:01:33.000Z</time>
      </trkpt>
      <trkpt lat="43.97423" lon="7.20923">
        <ele>887.59997558594</ele>
        <time>2019-05-11T12:01:34.000Z</time>
      </trkpt>
      <trkpt lat="43.97421" lon="7.20921">
        <ele>885.79998779297</ele>
        <time>2019-05-11T12:01:36.000Z</time>
      </trkpt>
      <trkpt lat="43.97418" lon="7.20921">
        <ele>884.79998779297</ele>
        <time>2019-05-11T12:01:38.000Z</time>
      </trkpt>
      <trkpt lat="43.97416" lon="7.20919">
        <ele>884.40002441406</ele>
        <time>2019-05-11T12:01:39.000Z</time>
      </trkpt>
      <trkpt lat="43.97415" lon="7.20919">
        <ele>883.79998779297</ele>
        <time>2019-05-11T12:01:40.000Z</time>
      </trkpt>
      <trkpt lat="43.97414" lon="7.20919">
        <ele>883</ele>
        <time>2019-05-11T12:01:41.000Z</time>
      </trkpt>
      <trkpt lat="43.97412" lon="7.2092">
        <ele>882.20001220703</ele>
        <time>2019-05-11T12:01:42.000Z</time>
      </trkpt>
      <trkpt lat="43.97408" lon="7.2092">
        <ele>880.40002441406</ele>
        <time>2019-05-11T12:01:44.000Z</time>
      </trkpt>
      <trkpt lat="43.97405" lon="7.2092">
        <ele>879.79998779297</ele>
        <time>2019-05-11T12:01:45.000Z</time>
      </trkpt>
      <trkpt lat="43.97404" lon="7.20919">
        <ele>878.79998779297</ele>
        <time>2019-05-11T12:01:46.000Z</time>
      </trkpt>
      <trkpt lat="43.97401" lon="7.2092">
        <ele>878.20001220703</ele>
        <time>2019-05-11T12:01:47.000Z</time>
      </trkpt>
      <trkpt lat="43.974" lon="7.2092">
        <ele>877.40002441406</ele>
        <time>2019-05-11T12:01:48.000Z</time>
      </trkpt>
      <trkpt lat="43.97396" lon="7.20924">
        <ele>875.79998779297</ele>
        <time>2019-05-11T12:01:50.000Z</time>
      </trkpt>
      <trkpt lat="43.97394" lon="7.20924">
        <ele>875.40002441406</ele>
        <time>2019-05-11T12:01:51.000Z</time>
      </trkpt>
      <trkpt lat="43.97391" lon="7.20923">
        <ele>873.79998779297</ele>
        <time>2019-05-11T12:01:52.000Z</time>
      </trkpt>
      <trkpt lat="43.97389" lon="7.20922">
        <ele>872.59997558594</ele>
        <time>2019-05-11T12:01:53.000Z</time>
      </trkpt>
      <trkpt lat="43.97388" lon="7.20921">
        <ele>871.40002441406</ele>
        <time>2019-05-11T12:01:54.000Z</time>
      </trkpt>
      <trkpt lat="43.97386" lon="7.20921">
        <ele>870.40002441406</ele>
        <time>2019-05-11T12:01:55.000Z</time>
      </trkpt>
      <trkpt lat="43.97383" lon="7.2092">
        <ele>869.20001220703</ele>
        <time>2019-05-11T12:01:56.000Z</time>
      </trkpt>
      <trkpt lat="43.97379" lon="7.20918">
        <ele>868.79998779297</ele>
        <time>2019-05-11T12:01:57.000Z</time>
      </trkpt>
      <trkpt lat="43.97376" lon="7.20916">
        <ele>868</ele>
        <time>2019-05-11T12:01:58.000Z</time>
      </trkpt>
      <trkpt lat="43.97369" lon="7.20908">
        <ele>866.59997558594</ele>
        <time>2019-05-11T12:02:00.000Z</time>
      </trkpt>
      <trkpt lat="43.97364" lon="7.20901">
        <ele>865.20001220703</ele>
        <time>2019-05-11T12:02:02.000Z</time>
      </trkpt>
      <trkpt lat="43.97362" lon="7.20899">
        <ele>864</ele>
        <time>2019-05-11T12:02:06.000Z</time>
      </trkpt>
      <trkpt lat="43.9736" lon="7.20896">
        <ele>864</ele>
        <time>2019-05-11T12:02:08.000Z</time>
      </trkpt>
      <trkpt lat="43.97359" lon="7.20891">
        <ele>863.59997558594</ele>
        <time>2019-05-11T12:02:10.000Z</time>
      </trkpt>
      <trkpt lat="43.9735" lon="7.20879">
        <ele>863.59997558594</ele>
        <time>2019-05-11T12:02:14.000Z</time>
      </trkpt>
      <trkpt lat="43.97343" lon="7.20871">
        <ele>862.79998779297</ele>
        <time>2019-05-11T12:02:17.000Z</time>
      </trkpt>
      <trkpt lat="43.97341" lon="7.2087">
        <ele>862.20001220703</ele>
        <time>2019-05-11T12:02:18.000Z</time>
      </trkpt>
      <trkpt lat="43.97339" lon="7.2087">
        <ele>861.59997558594</ele>
        <time>2019-05-11T12:02:19.000Z</time>
      </trkpt>
      <trkpt lat="43.97336" lon="7.20872">
        <ele>861</ele>
        <time>2019-05-11T12:02:20.000Z</time>
      </trkpt>
      <trkpt lat="43.97336" lon="7.20876">
        <ele>860</ele>
        <time>2019-05-11T12:02:21.000Z</time>
      </trkpt>
      <trkpt lat="43.97336" lon="7.20879">
        <ele>858.79998779297</ele>
        <time>2019-05-11T12:02:22.000Z</time>
      </trkpt>
      <trkpt lat="43.9734" lon="7.20884">
        <ele>857.40002441406</ele>
        <time>2019-05-11T12:02:24.000Z</time>
      </trkpt>
      <trkpt lat="43.97342" lon="7.20895">
        <ele>856.40002441406</ele>
        <time>2019-05-11T12:02:27.000Z</time>
      </trkpt>
      <trkpt lat="43.9734" lon="7.20898">
        <ele>856.40002441406</ele>
        <time>2019-05-11T12:02:28.000Z</time>
      </trkpt>
      <trkpt lat="43.97332" lon="7.20906">
        <ele>856</ele>
        <time>2019-05-11T12:02:30.000Z</time>
      </trkpt>
      <trkpt lat="43.97325" lon="7.20912">
        <ele>855.40002441406</ele>
        <time>2019-05-11T12:02:32.000Z</time>
      </trkpt>
      <trkpt lat="43.97322" lon="7.20915">
        <ele>854.20001220703</ele>
        <time>2019-05-11T12:02:33.000Z</time>
      </trkpt>
      <trkpt lat="43.9732" lon="7.20918">
        <ele>853.20001220703</ele>
        <time>2019-05-11T12:02:34.000Z</time>
      </trkpt>
      <trkpt lat="43.9732" lon="7.20922">
        <ele>852</ele>
        <time>2019-05-11T12:02:35.000Z</time>
      </trkpt>
      <trkpt lat="43.97322" lon="7.20926">
        <ele>850.79998779297</ele>
        <time>2019-05-11T12:02:36.000Z</time>
      </trkpt>
      <trkpt lat="43.97325" lon="7.20929">
        <ele>849.59997558594</ele>
        <time>2019-05-11T12:02:37.000Z</time>
      </trkpt>
      <trkpt lat="43.97331" lon="7.20935">
        <ele>848.20001220703</ele>
        <time>2019-05-11T12:02:39.000Z</time>
      </trkpt>
      <trkpt lat="43.97333" lon="7.20945">
        <ele>847.79998779297</ele>
        <time>2019-05-11T12:02:41.000Z</time>
      </trkpt>
      <trkpt lat="43.97331" lon="7.20958">
        <ele>847.20001220703</ele>
        <time>2019-05-11T12:02:43.000Z</time>
      </trkpt>
      <trkpt lat="43.97329" lon="7.20963">
        <ele>847.20001220703</ele>
        <time>2019-05-11T12:02:44.000Z</time>
      </trkpt>
      <trkpt lat="43.97327" lon="7.20969">
        <ele>846.59997558594</ele>
        <time>2019-05-11T12:02:45.000Z</time>
      </trkpt>
      <trkpt lat="43.97324" lon="7.20975">
        <ele>846</ele>
        <time>2019-05-11T12:02:46.000Z</time>
      </trkpt>
      <trkpt lat="43.97323" lon="7.20983">
        <ele>844.79998779297</ele>
        <time>2019-05-11T12:02:48.000Z</time>
      </trkpt>
      <trkpt lat="43.97321" lon="7.20985">
        <ele>844</ele>
        <time>2019-05-11T12:02:49.000Z</time>
      </trkpt>
      <trkpt lat="43.9732" lon="7.20986">
        <ele>843.20001220703</ele>
        <time>2019-05-11T12:02:50.000Z</time>
      </trkpt>
      <trkpt lat="43.97319" lon="7.20988">
        <ele>842.79998779297</ele>
        <time>2019-05-11T12:02:51.000Z</time>
      </trkpt>
      <trkpt lat="43.97309" lon="7.20999">
        <ele>842</ele>
        <time>2019-05-11T12:02:54.000Z</time>
      </trkpt>
      <trkpt lat="43.97307" lon="7.21006">
        <ele>841.40002441406</ele>
        <time>2019-05-11T12:02:55.000Z</time>
      </trkpt>
      <trkpt lat="43.97305" lon="7.21013">
        <ele>840.20001220703</ele>
        <time>2019-05-11T12:02:56.000Z</time>
      </trkpt>
      <trkpt lat="43.97305" lon="7.21022">
        <ele>838.79998779297</ele>
        <time>2019-05-11T12:02:57.000Z</time>
      </trkpt>
      <trkpt lat="43.97305" lon="7.21031">
        <ele>837.59997558594</ele>
        <time>2019-05-11T12:02:58.000Z</time>
      </trkpt>
      <trkpt lat="43.97303" lon="7.21048">
        <ele>835.79998779297</ele>
        <time>2019-05-11T12:03:00.000Z</time>
      </trkpt>
      <trkpt lat="43.97302" lon="7.21053">
        <ele>835.40002441406</ele>
        <time>2019-05-11T12:03:01.000Z</time>
      </trkpt>
      <trkpt lat="43.97301" lon="7.21056">
        <ele>834.59997558594</ele>
        <time>2019-05-11T12:03:02.000Z</time>
      </trkpt>
      <trkpt lat="43.97299" lon="7.21059">
        <ele>833.59997558594</ele>
        <time>2019-05-11T12:03:03.000Z</time>
      </trkpt>
      <trkpt lat="43.97298" lon="7.21061">
        <ele>832.20001220703</ele>
        <time>2019-05-11T12:03:04.000Z</time>
      </trkpt>
      <trkpt lat="43.97297" lon="7.21062">
        <ele>830.79998779297</ele>
        <time>2019-05-11T12:03:05.000Z</time>
      </trkpt>
      <trkpt lat="43.97295" lon="7.21064">
        <ele>829.40002441406</ele>
        <time>2019-05-11T12:03:06.000Z</time>
      </trkpt>
      <trkpt lat="43.97293" lon="7.21066">
        <ele>828.40002441406</ele>
        <time>2019-05-11T12:03:07.000Z</time>
      </trkpt>
      <trkpt lat="43.97292" lon="7.21068">
        <ele>827.59997558594</ele>
        <time>2019-05-11T12:03:08.000Z</time>
      </trkpt>
      <trkpt lat="43.9729" lon="7.21072">
        <ele>827</ele>
        <time>2019-05-11T12:03:09.000Z</time>
      </trkpt>
      <trkpt lat="43.97289" lon="7.21077">
        <ele>826.20001220703</ele>
        <time>2019-05-11T12:03:10.000Z</time>
      </trkpt>
      <trkpt lat="43.97288" lon="7.21084">
        <ele>825.59997558594</ele>
        <time>2019-05-11T12:03:11.000Z</time>
      </trkpt>
      <trkpt lat="43.97286" lon="7.21091">
        <ele>824.40002441406</ele>
        <time>2019-05-11T12:03:12.000Z</time>
      </trkpt>
      <trkpt lat="43.97285" lon="7.21098">
        <ele>823</ele>
        <time>2019-05-11T12:03:13.000Z</time>
      </trkpt>
      <trkpt lat="43.97285" lon="7.21104">
        <ele>821.79998779297</ele>
        <time>2019-05-11T12:03:14.000Z</time>
      </trkpt>
      <trkpt lat="43.97287" lon="7.2111">
        <ele>820.59997558594</ele>
        <time>2019-05-11T12:03:15.000Z</time>
      </trkpt>
      <trkpt lat="43.9729" lon="7.21116">
        <ele>819.40002441406</ele>
        <time>2019-05-11T12:03:16.000Z</time>
      </trkpt>
      <trkpt lat="43.97295" lon="7.21122">
        <ele>818</ele>
        <time>2019-05-11T12:03:17.000Z</time>
      </trkpt>
      <trkpt lat="43.97299" lon="7.21128">
        <ele>816.79998779297</ele>
        <time>2019-05-11T12:03:18.000Z</time>
      </trkpt>
      <trkpt lat="43.97304" lon="7.21135">
        <ele>815.79998779297</ele>
        <time>2019-05-11T12:03:19.000Z</time>
      </trkpt>
      <trkpt lat="43.97307" lon="7.2114">
        <ele>815.20001220703</ele>
        <time>2019-05-11T12:03:20.000Z</time>
      </trkpt>
      <trkpt lat="43.97308" lon="7.21147">
        <ele>814.79998779297</ele>
        <time>2019-05-11T12:03:21.000Z</time>
      </trkpt>
      <trkpt lat="43.97308" lon="7.21153">
        <ele>815</ele>
        <time>2019-05-11T12:03:22.000Z</time>
      </trkpt>
      <trkpt lat="43.97309" lon="7.21171">
        <ele>815</ele>
        <time>2019-05-11T12:03:25.000Z</time>
      </trkpt>
      <trkpt lat="43.97312" lon="7.21176">
        <ele>813.79998779297</ele>
        <time>2019-05-11T12:03:26.000Z</time>
      </trkpt>
      <trkpt lat="43.97316" lon="7.2118">
        <ele>812.79998779297</ele>
        <time>2019-05-11T12:03:27.000Z</time>
      </trkpt>
      <trkpt lat="43.97325" lon="7.21186">
        <ele>811.20001220703</ele>
        <time>2019-05-11T12:03:29.000Z</time>
      </trkpt>
      <trkpt lat="43.97333" lon="7.2119">
        <ele>810.40002441406</ele>
        <time>2019-05-11T12:03:31.000Z</time>
      </trkpt>
      <trkpt lat="43.97336" lon="7.21195">
        <ele>809.79998779297</ele>
        <time>2019-05-11T12:03:33.000Z</time>
      </trkpt>
      <trkpt lat="43.97335" lon="7.21198">
        <ele>809.40002441406</ele>
        <time>2019-05-11T12:03:34.000Z</time>
      </trkpt>
      <trkpt lat="43.97333" lon="7.21202">
        <ele>808.79998779297</ele>
        <time>2019-05-11T12:03:35.000Z</time>
      </trkpt>
      <trkpt lat="43.97325" lon="7.21207">
        <ele>806.79998779297</ele>
        <time>2019-05-11T12:03:37.000Z</time>
      </trkpt>
      <trkpt lat="43.9732" lon="7.21209">
        <ele>805.79998779297</ele>
        <time>2019-05-11T12:03:38.000Z</time>
      </trkpt>
      <trkpt lat="43.97317" lon="7.2121">
        <ele>804.59997558594</ele>
        <time>2019-05-11T12:03:39.000Z</time>
      </trkpt>
      <trkpt lat="43.97315" lon="7.21209">
        <ele>803.40002441406</ele>
        <time>2019-05-11T12:03:40.000Z</time>
      </trkpt>
      <trkpt lat="43.97314" lon="7.21209">
        <ele>802</ele>
        <time>2019-05-11T12:03:41.000Z</time>
      </trkpt>
      <trkpt lat="43.97315" lon="7.21209">
        <ele>800.79998779297</ele>
        <time>2019-05-11T12:03:42.000Z</time>
      </trkpt>
      <trkpt lat="43.97313" lon="7.21209">
        <ele>799.40002441406</ele>
        <time>2019-05-11T12:03:44.000Z</time>
      </trkpt>
      <trkpt lat="43.97313" lon="7.21208">
        <ele>799.20001220703</ele>
        <time>2019-05-11T12:03:45.000Z</time>
      </trkpt>
      <trkpt lat="43.9731" lon="7.21207">
        <ele>799.20001220703</ele>
        <time>2019-05-11T12:03:52.000Z</time>
      </trkpt>
      <trkpt lat="43.97306" lon="7.21209">
        <ele>799</ele>
        <time>2019-05-11T12:03:54.000Z</time>
      </trkpt>
      <trkpt lat="43.97301" lon="7.21213">
        <ele>798.40002441406</ele>
        <time>2019-05-11T12:03:56.000Z</time>
      </trkpt>
      <trkpt lat="43.97295" lon="7.21217">
        <ele>797.59997558594</ele>
        <time>2019-05-11T12:03:58.000Z</time>
      </trkpt>
      <trkpt lat="43.9729" lon="7.21219">
        <ele>796.79998779297</ele>
        <time>2019-05-11T12:03:59.000Z</time>
      </trkpt>
      <trkpt lat="43.97286" lon="7.2122">
        <ele>795.79998779297</ele>
        <time>2019-05-11T12:04:00.000Z</time>
      </trkpt>
      <trkpt lat="43.97281" lon="7.21221">
        <ele>794.40002441406</ele>
        <time>2019-05-11T12:04:01.000Z</time>
      </trkpt>
      <trkpt lat="43.97277" lon="7.21222">
        <ele>792.79998779297</ele>
        <time>2019-05-11T12:04:02.000Z</time>
      </trkpt>
      <trkpt lat="43.97274" lon="7.21221">
        <ele>791.20001220703</ele>
        <time>2019-05-11T12:04:03.000Z</time>
      </trkpt>
      <trkpt lat="43.97273" lon="7.2122">
        <ele>789.40002441406</ele>
        <time>2019-05-11T12:04:04.000Z</time>
      </trkpt>
      <trkpt lat="43.97273" lon="7.21219">
        <ele>787.79998779297</ele>
        <time>2019-05-11T12:04:05.000Z</time>
      </trkpt>
      <trkpt lat="43.97273" lon="7.2122">
        <ele>786.59997558594</ele>
        <time>2019-05-11T12:04:06.000Z</time>
      </trkpt>
      <trkpt lat="43.97273" lon="7.2122">
        <ele>785.59997558594</ele>
        <time>2019-05-11T12:04:07.000Z</time>
      </trkpt>
      <trkpt lat="43.97272" lon="7.21221">
        <ele>784.59997558594</ele>
        <time>2019-05-11T12:04:11.000Z</time>
      </trkpt>
      <trkpt lat="43.97272" lon="7.2122">
        <ele>784.40002441406</ele>
        <time>2019-05-11T12:04:18.000Z</time>
      </trkpt>
      <trkpt lat="43.97272" lon="7.21219">
        <ele>784.20001220703</ele>
        <time>2019-05-11T12:04:27.000Z</time>
      </trkpt>
      <trkpt lat="43.97273" lon="7.2122">
        <ele>783.79998779297</ele>
        <time>2019-05-11T12:04:36.000Z</time>
      </trkpt>
      <trkpt lat="43.97272" lon="7.21221">
        <ele>784</ele>
        <time>2019-05-11T12:04:41.000Z</time>
      </trkpt>
      <trkpt lat="43.97274" lon="7.21226">
        <ele>783.20001220703</ele>
        <time>2019-05-11T12:04:46.000Z</time>
      </trkpt>
      <trkpt lat="43.97275" lon="7.21227">
        <ele>783</ele>
        <time>2019-05-11T12:04:47.000Z</time>
      </trkpt>
      <trkpt lat="43.97275" lon="7.21229">
        <ele>782.40002441406</ele>
        <time>2019-05-11T12:04:48.000Z</time>
      </trkpt>
      <trkpt lat="43.97274" lon="7.2123">
        <ele>782</ele>
        <time>2019-05-11T12:04:49.000Z</time>
      </trkpt>
      <trkpt lat="43.97273" lon="7.2123">
        <ele>781.40002441406</ele>
        <time>2019-05-11T12:04:50.000Z</time>
      </trkpt>
      <trkpt lat="43.97272" lon="7.21231">
        <ele>780.79998779297</ele>
        <time>2019-05-11T12:04:51.000Z</time>
      </trkpt>
      <trkpt lat="43.97266" lon="7.21228">
        <ele>779.40002441406</ele>
        <time>2019-05-11T12:04:54.000Z</time>
      </trkpt>
      <trkpt lat="43.97262" lon="7.21227">
        <ele>778.40002441406</ele>
        <time>2019-05-11T12:04:56.000Z</time>
      </trkpt>
      <trkpt lat="43.9726" lon="7.21224">
        <ele>777.20001220703</ele>
        <time>2019-05-11T12:04:59.000Z</time>
      </trkpt>
      <trkpt lat="43.97256" lon="7.21225">
        <ele>776</ele>
        <time>2019-05-11T12:05:01.000Z</time>
      </trkpt>
      <trkpt lat="43.97254" lon="7.21226">
        <ele>775.40002441406</ele>
        <time>2019-05-11T12:05:02.000Z</time>
      </trkpt>
      <trkpt lat="43.97254" lon="7.21227">
        <ele>774.59997558594</ele>
        <time>2019-05-11T12:05:03.000Z</time>
      </trkpt>
      <trkpt lat="43.97255" lon="7.2123">
        <ele>773</ele>
        <time>2019-05-11T12:05:05.000Z</time>
      </trkpt>
      <trkpt lat="43.97254" lon="7.21232">
        <ele>772.59997558594</ele>
        <time>2019-05-11T12:05:06.000Z</time>
      </trkpt>
      <trkpt lat="43.97253" lon="7.21233">
        <ele>772</ele>
        <time>2019-05-11T12:05:07.000Z</time>
      </trkpt>
      <trkpt lat="43.97252" lon="7.2123">
        <ele>771.59997558594</ele>
        <time>2019-05-11T12:05:09.000Z</time>
      </trkpt>
      <trkpt lat="43.97251" lon="7.21226">
        <ele>770.59997558594</ele>
        <time>2019-05-11T12:05:11.000Z</time>
      </trkpt>
      <trkpt lat="43.97249" lon="7.21224">
        <ele>769.40002441406</ele>
        <time>2019-05-11T12:05:13.000Z</time>
      </trkpt>
      <trkpt lat="43.97248" lon="7.21222">
        <ele>768</ele>
        <time>2019-05-11T12:05:16.000Z</time>
      </trkpt>
      <trkpt lat="43.97247" lon="7.21221">
        <ele>767.59997558594</ele>
        <time>2019-05-11T12:05:18.000Z</time>
      </trkpt>
      <trkpt lat="43.97245" lon="7.21221">
        <ele>767.40002441406</ele>
        <time>2019-05-11T12:05:21.000Z</time>
      </trkpt>
      <trkpt lat="43.97243" lon="7.2122">
        <ele>767</ele>
        <time>2019-05-11T12:05:23.000Z</time>
      </trkpt>
      <trkpt lat="43.97243" lon="7.2122">
        <ele>766.59997558594</ele>
        <time>2019-05-11T12:05:24.000Z</time>
      </trkpt>
      <trkpt lat="43.97242" lon="7.21222">
        <ele>765.59997558594</ele>
        <time>2019-05-11T12:05:26.000Z</time>
      </trkpt>
      <trkpt lat="43.97241" lon="7.21227">
        <ele>764.79998779297</ele>
        <time>2019-05-11T12:05:28.000Z</time>
      </trkpt>
      <trkpt lat="43.9724" lon="7.21229">
        <ele>764.59997558594</ele>
        <time>2019-05-11T12:05:29.000Z</time>
      </trkpt>
      <trkpt lat="43.97234" lon="7.21238">
        <ele>763.79998779297</ele>
        <time>2019-05-11T12:05:32.000Z</time>
      </trkpt>
      <trkpt lat="43.97233" lon="7.21241">
        <ele>763.20001220703</ele>
        <time>2019-05-11T12:05:33.000Z</time>
      </trkpt>
      <trkpt lat="43.97233" lon="7.21242">
        <ele>761.59997558594</ele>
        <time>2019-05-11T12:05:35.000Z</time>
      </trkpt>
      <trkpt lat="43.97232" lon="7.21243">
        <ele>760.20001220703</ele>
        <time>2019-05-11T12:05:36.000Z</time>
      </trkpt>
      <trkpt lat="43.97232" lon="7.21248">
        <ele>758.40002441406</ele>
        <time>2019-05-11T12:05:38.000Z</time>
      </trkpt>
      <trkpt lat="43.97231" lon="7.21256">
        <ele>757.59997558594</ele>
        <time>2019-05-11T12:05:40.000Z</time>
      </trkpt>
      <trkpt lat="43.97231" lon="7.2126">
        <ele>757.40002441406</ele>
        <time>2019-05-11T12:05:41.000Z</time>
      </trkpt>
      <trkpt lat="43.97232" lon="7.21266">
        <ele>756.40002441406</ele>
        <time>2019-05-11T12:05:43.000Z</time>
      </trkpt>
      <trkpt lat="43.97233" lon="7.21269">
        <ele>755.59997558594</ele>
        <time>2019-05-11T12:05:44.000Z</time>
      </trkpt>
      <trkpt lat="43.97236" lon="7.21274">
        <ele>754.79998779297</ele>
        <time>2019-05-11T12:05:45.000Z</time>
      </trkpt>
      <trkpt lat="43.97239" lon="7.21278">
        <ele>754</ele>
        <time>2019-05-11T12:05:46.000Z</time>
      </trkpt>
      <trkpt lat="43.97243" lon="7.21282">
        <ele>752.79998779297</ele>
        <time>2019-05-11T12:05:47.000Z</time>
      </trkpt>
      <trkpt lat="43.97251" lon="7.21291">
        <ele>750</ele>
        <time>2019-05-11T12:05:49.000Z</time>
      </trkpt>
      <trkpt lat="43.97256" lon="7.21296">
        <ele>748.59997558594</ele>
        <time>2019-05-11T12:05:50.000Z</time>
      </trkpt>
      <trkpt lat="43.97259" lon="7.21301">
        <ele>747.20001220703</ele>
        <time>2019-05-11T12:05:51.000Z</time>
      </trkpt>
      <trkpt lat="43.97263" lon="7.21304">
        <ele>746.20001220703</ele>
        <time>2019-05-11T12:05:52.000Z</time>
      </trkpt>
      <trkpt lat="43.97268" lon="7.21306">
        <ele>745</ele>
        <time>2019-05-11T12:05:53.000Z</time>
      </trkpt>
      <trkpt lat="43.97271" lon="7.21309">
        <ele>744</ele>
        <time>2019-05-11T12:05:54.000Z</time>
      </trkpt>
      <trkpt lat="43.97267" lon="7.2131">
        <ele>743.20001220703</ele>
        <time>2019-05-11T12:05:55.000Z</time>
      </trkpt>
      <trkpt lat="43.97266" lon="7.21311">
        <ele>742.79998779297</ele>
        <time>2019-05-11T12:05:56.000Z</time>
      </trkpt>
      <trkpt lat="43.97266" lon="7.2131">
        <ele>742</ele>
        <time>2019-05-11T12:05:57.000Z</time>
      </trkpt>
      <trkpt lat="43.97266" lon="7.21311">
        <ele>740.59997558594</ele>
        <time>2019-05-11T12:05:59.000Z</time>
      </trkpt>
      <trkpt lat="43.97266" lon="7.21312">
        <ele>740.40002441406</ele>
        <time>2019-05-11T12:06:00.000Z</time>
      </trkpt>
      <trkpt lat="43.97267" lon="7.21313">
        <ele>739.59997558594</ele>
        <time>2019-05-11T12:06:05.000Z</time>
      </trkpt>
      <trkpt lat="43.97267" lon="7.21314">
        <ele>739.40002441406</ele>
        <time>2019-05-11T12:06:06.000Z</time>
      </trkpt>
      <trkpt lat="43.97266" lon="7.21315">
        <ele>739.20001220703</ele>
        <time>2019-05-11T12:06:13.000Z</time>
      </trkpt>
      <trkpt lat="43.97263" lon="7.21315">
        <ele>739.59997558594</ele>
        <time>2019-05-11T12:06:19.000Z</time>
      </trkpt>
      <trkpt lat="43.97262" lon="7.21315">
        <ele>739</ele>
        <time>2019-05-11T12:06:26.000Z</time>
      </trkpt>
      <trkpt lat="43.97261" lon="7.21315">
        <ele>738.59997558594</ele>
        <time>2019-05-11T12:06:31.000Z</time>
      </trkpt>
      <trkpt lat="43.97261" lon="7.21315">
        <ele>738.40002441406</ele>
        <time>2019-05-11T12:06:32.000Z</time>
      </trkpt>
      <trkpt lat="43.9726" lon="7.21315">
        <ele>737.79998779297</ele>
        <time>2019-05-11T12:06:37.000Z</time>
      </trkpt>
      <trkpt lat="43.9726" lon="7.21316">
        <ele>737.59997558594</ele>
        <time>2019-05-11T12:06:38.000Z</time>
      </trkpt>
      <trkpt lat="43.97261" lon="7.21316">
        <ele>736.40002441406</ele>
        <time>2019-05-11T12:06:43.000Z</time>
      </trkpt>
      <trkpt lat="43.97259" lon="7.21315">
        <ele>737.59997558594</ele>
        <time>2019-05-11T12:06:49.000Z</time>
      </trkpt>
      <trkpt lat="43.97256" lon="7.21313">
        <ele>738.20001220703</ele>
        <time>2019-05-11T12:06:54.000Z</time>
      </trkpt>
      <trkpt lat="43.97252" lon="7.21313">
        <ele>737.79998779297</ele>
        <time>2019-05-11T12:07:01.000Z</time>
      </trkpt>
      <trkpt lat="43.97252" lon="7.21309">
        <ele>738</ele>
        <time>2019-05-11T12:07:06.000Z</time>
      </trkpt>
      <trkpt lat="43.97247" lon="7.21304">
        <ele>737.79998779297</ele>
        <time>2019-05-11T12:07:13.000Z</time>
      </trkpt>
      <trkpt lat="43.97245" lon="7.21301">
        <ele>737.79998779297</ele>
        <time>2019-05-11T12:07:21.000Z</time>
      </trkpt>
      <trkpt lat="43.97241" lon="7.21298">
        <ele>737.40002441406</ele>
        <time>2019-05-11T12:07:30.000Z</time>
      </trkpt>
      <trkpt lat="43.97241" lon="7.21298">
        <ele>737</ele>
        <time>2019-05-11T12:07:35.000Z</time>
      </trkpt>
      <trkpt lat="43.97241" lon="7.21298">
        <ele>737.20001220703</ele>
        <time>2019-05-11T12:07:43.000Z</time>
      </trkpt>
      <trkpt lat="43.97238" lon="7.21298">
        <ele>736.79998779297</ele>
        <time>2019-05-11T12:07:47.000Z</time>
      </trkpt>
      <trkpt lat="43.97235" lon="7.213">
        <ele>736.79998779297</ele>
        <time>2019-05-11T12:07:49.000Z</time>
      </trkpt>
      <trkpt lat="43.97229" lon="7.21299">
        <ele>736.59997558594</ele>
        <time>2019-05-11T12:07:54.000Z</time>
      </trkpt>
      <trkpt lat="43.97228" lon="7.21298">
        <ele>736.59997558594</ele>
        <time>2019-05-11T12:07:59.000Z</time>
      </trkpt>
      <trkpt lat="43.97226" lon="7.21296">
        <ele>737.40002441406</ele>
        <time>2019-05-11T12:08:04.000Z</time>
      </trkpt>
      <trkpt lat="43.97225" lon="7.21296">
        <ele>737</ele>
        <time>2019-05-11T12:08:07.000Z</time>
      </trkpt>
      <trkpt lat="43.97224" lon="7.21296">
        <ele>736.79998779297</ele>
        <time>2019-05-11T12:08:08.000Z</time>
      </trkpt>
      <trkpt lat="43.97224" lon="7.21296">
        <ele>737.40002441406</ele>
        <time>2019-05-11T12:08:13.000Z</time>
      </trkpt>
      <trkpt lat="43.97222" lon="7.21296">
        <ele>738.59997558594</ele>
        <time>2019-05-11T12:08:18.000Z</time>
      </trkpt>
      <trkpt lat="43.97222" lon="7.21296">
        <ele>738.79998779297</ele>
        <time>2019-05-11T12:08:19.000Z</time>
      </trkpt>
      <trkpt lat="43.9722" lon="7.21298">
        <ele>739.20001220703</ele>
        <time>2019-05-11T12:08:22.000Z</time>
      </trkpt>
      <trkpt lat="43.97218" lon="7.21299">
        <ele>739.79998779297</ele>
        <time>2019-05-11T12:08:25.000Z</time>
      </trkpt>
      <trkpt lat="43.97214" lon="7.21302">
        <ele>740.79998779297</ele>
        <time>2019-05-11T12:08:31.000Z</time>
      </trkpt>
      <trkpt lat="43.9721" lon="7.21302">
        <ele>741.59997558594</ele>
        <time>2019-05-11T12:08:36.000Z</time>
      </trkpt>
      <trkpt lat="43.97207" lon="7.21303">
        <ele>742</ele>
        <time>2019-05-11T12:08:40.000Z</time>
      </trkpt>
      <trkpt lat="43.97204" lon="7.21304">
        <ele>742.40002441406</ele>
        <time>2019-05-11T12:08:42.000Z</time>
      </trkpt>
      <trkpt lat="43.97198" lon="7.21306">
        <ele>743</ele>
        <time>2019-05-11T12:08:45.000Z</time>
      </trkpt>
      <trkpt lat="43.97196" lon="7.21307">
        <ele>743.40002441406</ele>
        <time>2019-05-11T12:08:49.000Z</time>
      </trkpt>
      <trkpt lat="43.97194" lon="7.21309">
        <ele>744.20001220703</ele>
        <time>2019-05-11T12:08:53.000Z</time>
      </trkpt>
      <trkpt lat="43.97193" lon="7.21309">
        <ele>744.59997558594</ele>
        <time>2019-05-11T12:08:58.000Z</time>
      </trkpt>
      <trkpt lat="43.9719" lon="7.21309">
        <ele>744.40002441406</ele>
        <time>2019-05-11T12:09:02.000Z</time>
      </trkpt>
      <trkpt lat="43.97187" lon="7.21309">
        <ele>744.40002441406</ele>
        <time>2019-05-11T12:09:04.000Z</time>
      </trkpt>
      <trkpt lat="43.97184" lon="7.21312">
        <ele>745.20001220703</ele>
        <time>2019-05-11T12:09:09.000Z</time>
      </trkpt>
      <trkpt lat="43.97181" lon="7.21316">
        <ele>746.40002441406</ele>
        <time>2019-05-11T12:09:13.000Z</time>
      </trkpt>
      <trkpt lat="43.97177" lon="7.21318">
        <ele>746.79998779297</ele>
        <time>2019-05-11T12:09:15.000Z</time>
      </trkpt>
      <trkpt lat="43.97175" lon="7.21321">
        <ele>747.40002441406</ele>
        <time>2019-05-11T12:09:18.000Z</time>
      </trkpt>
      <trkpt lat="43.97175" lon="7.21321">
        <ele>747.59997558594</ele>
        <time>2019-05-11T12:09:20.000Z</time>
      </trkpt>
      <trkpt lat="43.97172" lon="7.21322">
        <ele>747.59997558594</ele>
        <time>2019-05-11T12:09:25.000Z</time>
      </trkpt>
      <trkpt lat="43.97167" lon="7.21327">
        <ele>747.20001220703</ele>
        <time>2019-05-11T12:09:31.000Z</time>
      </trkpt>
      <trkpt lat="43.97162" lon="7.21332">
        <ele>747.40002441406</ele>
        <time>2019-05-11T12:09:38.000Z</time>
      </trkpt>
      <trkpt lat="43.97161" lon="7.21333">
        <ele>747.59997558594</ele>
        <time>2019-05-11T12:09:39.000Z</time>
      </trkpt>
      <trkpt lat="43.97157" lon="7.2134">
        <ele>747.20001220703</ele>
        <time>2019-05-11T12:09:43.000Z</time>
      </trkpt>
      <trkpt lat="43.97155" lon="7.21342">
        <ele>747.20001220703</ele>
        <time>2019-05-11T12:09:45.000Z</time>
      </trkpt>
      <trkpt lat="43.97153" lon="7.21346">
        <ele>747.40002441406</ele>
        <time>2019-05-11T12:09:47.000Z</time>
      </trkpt>
      <trkpt lat="43.9715" lon="7.21355">
        <ele>748.59997558594</ele>
        <time>2019-05-11T12:09:51.000Z</time>
      </trkpt>
      <trkpt lat="43.97145" lon="7.21362">
        <ele>748.79998779297</ele>
        <time>2019-05-11T12:09:55.000Z</time>
      </trkpt>
      <trkpt lat="43.97143" lon="7.21365">
        <ele>748.20001220703</ele>
        <time>2019-05-11T12:10:00.000Z</time>
      </trkpt>
      <trkpt lat="43.97141" lon="7.21365">
        <ele>748</ele>
        <time>2019-05-11T12:10:01.000Z</time>
      </trkpt>
      <trkpt lat="43.97137" lon="7.21367">
        <ele>747.40002441406</ele>
        <time>2019-05-11T12:10:04.000Z</time>
      </trkpt>
      <trkpt lat="43.97135" lon="7.21369">
        <ele>746.40002441406</ele>
        <time>2019-05-11T12:10:09.000Z</time>
      </trkpt>
      <trkpt lat="43.97134" lon="7.2137">
        <ele>746.40002441406</ele>
        <time>2019-05-11T12:10:10.000Z</time>
      </trkpt>
      <trkpt lat="43.97125" lon="7.21372">
        <ele>746.40002441406</ele>
        <time>2019-05-11T12:10:14.000Z</time>
      </trkpt>
      <trkpt lat="43.97116" lon="7.21379">
        <ele>747</ele>
        <time>2019-05-11T12:10:20.000Z</time>
      </trkpt>
      <trkpt lat="43.97113" lon="7.21381">
        <ele>747.59997558594</ele>
        <time>2019-05-11T12:10:22.000Z</time>
      </trkpt>
      <trkpt lat="43.9711" lon="7.21383">
        <ele>748.40002441406</ele>
        <time>2019-05-11T12:10:24.000Z</time>
      </trkpt>
      <trkpt lat="43.97108" lon="7.21384">
        <ele>748.79998779297</ele>
        <time>2019-05-11T12:10:25.000Z</time>
      </trkpt>
      <trkpt lat="43.97102" lon="7.21385">
        <ele>750</ele>
        <time>2019-05-11T12:10:29.000Z</time>
      </trkpt>
      <trkpt lat="43.971" lon="7.21385">
        <ele>750.20001220703</ele>
        <time>2019-05-11T12:10:30.000Z</time>
      </trkpt>
      <trkpt lat="43.97096" lon="7.21385">
        <ele>751.20001220703</ele>
        <time>2019-05-11T12:10:33.000Z</time>
      </trkpt>
      <trkpt lat="43.97094" lon="7.21385">
        <ele>751.40002441406</ele>
        <time>2019-05-11T12:10:34.000Z</time>
      </trkpt>
      <trkpt lat="43.97091" lon="7.21387">
        <ele>751.20001220703</ele>
        <time>2019-05-11T12:10:36.000Z</time>
      </trkpt>
      <trkpt lat="43.97079" lon="7.21393">
        <ele>751</ele>
        <time>2019-05-11T12:10:42.000Z</time>
      </trkpt>
      <trkpt lat="43.97077" lon="7.21396">
        <ele>750.20001220703</ele>
        <time>2019-05-11T12:10:44.000Z</time>
      </trkpt>
      <trkpt lat="43.97076" lon="7.21398">
        <ele>749</ele>
        <time>2019-05-11T12:10:46.000Z</time>
      </trkpt>
      <trkpt lat="43.97076" lon="7.21399">
        <ele>748.20001220703</ele>
        <time>2019-05-11T12:10:47.000Z</time>
      </trkpt>
      <trkpt lat="43.97076" lon="7.21401">
        <ele>747.59997558594</ele>
        <time>2019-05-11T12:10:48.000Z</time>
      </trkpt>
      <trkpt lat="43.97075" lon="7.21404">
        <ele>746.59997558594</ele>
        <time>2019-05-11T12:10:50.000Z</time>
      </trkpt>
      <trkpt lat="43.97074" lon="7.21408">
        <ele>745.59997558594</ele>
        <time>2019-05-11T12:10:51.000Z</time>
      </trkpt>
      <trkpt lat="43.97075" lon="7.2141">
        <ele>744.79998779297</ele>
        <time>2019-05-11T12:10:52.000Z</time>
      </trkpt>
      <trkpt lat="43.97075" lon="7.21417">
        <ele>743.59997558594</ele>
        <time>2019-05-11T12:10:54.000Z</time>
      </trkpt>
      <trkpt lat="43.97074" lon="7.21425">
        <ele>742.40002441406</ele>
        <time>2019-05-11T12:10:56.000Z</time>
      </trkpt>
      <trkpt lat="43.97073" lon="7.21432">
        <ele>741.20001220703</ele>
        <time>2019-05-11T12:10:58.000Z</time>
      </trkpt>
      <trkpt lat="43.97074" lon="7.21435">
        <ele>740.40002441406</ele>
        <time>2019-05-11T12:10:59.000Z</time>
      </trkpt>
      <trkpt lat="43.97074" lon="7.2144">
        <ele>739.79998779297</ele>
        <time>2019-05-11T12:11:00.000Z</time>
      </trkpt>
      <trkpt lat="43.97076" lon="7.21449">
        <ele>738.40002441406</ele>
        <time>2019-05-11T12:11:02.000Z</time>
      </trkpt>
      <trkpt lat="43.97077" lon="7.21453">
        <ele>737</ele>
        <time>2019-05-11T12:11:04.000Z</time>
      </trkpt>
      <trkpt lat="43.97077" lon="7.21454">
        <ele>736</ele>
        <time>2019-05-11T12:11:06.000Z</time>
      </trkpt>
      <trkpt lat="43.97077" lon="7.21455">
        <ele>734.40002441406</ele>
        <time>2019-05-11T12:11:08.000Z</time>
      </trkpt>
      <trkpt lat="43.97076" lon="7.21458">
        <ele>733.20001220703</ele>
        <time>2019-05-11T12:11:10.000Z</time>
      </trkpt>
      <trkpt lat="43.97075" lon="7.2146">
        <ele>733.20001220703</ele>
        <time>2019-05-11T12:11:12.000Z</time>
      </trkpt>
      <trkpt lat="43.97074" lon="7.21464">
        <ele>733.20001220703</ele>
        <time>2019-05-11T12:11:15.000Z</time>
      </trkpt>
      <trkpt lat="43.97075" lon="7.21465">
        <ele>733</ele>
        <time>2019-05-11T12:11:17.000Z</time>
      </trkpt>
      <trkpt lat="43.97075" lon="7.21467">
        <ele>732.20001220703</ele>
        <time>2019-05-11T12:11:19.000Z</time>
      </trkpt>
      <trkpt lat="43.97074" lon="7.21469">
        <ele>731.79998779297</ele>
        <time>2019-05-11T12:11:20.000Z</time>
      </trkpt>
      <trkpt lat="43.97075" lon="7.21473">
        <ele>731.40002441406</ele>
        <time>2019-05-11T12:11:22.000Z</time>
      </trkpt>
      <trkpt lat="43.97072" lon="7.21484">
        <ele>731.40002441406</ele>
        <time>2019-05-11T12:11:26.000Z</time>
      </trkpt>
      <trkpt lat="43.97072" lon="7.21489">
        <ele>731.20001220703</ele>
        <time>2019-05-11T12:11:28.000Z</time>
      </trkpt>
      <trkpt lat="43.97072" lon="7.2149">
        <ele>731.20001220703</ele>
        <time>2019-05-11T12:11:29.000Z</time>
      </trkpt>
      <trkpt lat="43.97072" lon="7.21491">
        <ele>731</ele>
        <time>2019-05-11T12:11:30.000Z</time>
      </trkpt>
      <trkpt lat="43.97071" lon="7.21493">
        <ele>730.40002441406</ele>
        <time>2019-05-11T12:11:37.000Z</time>
      </trkpt>
      <trkpt lat="43.97071" lon="7.21496">
        <ele>730.59997558594</ele>
        <time>2019-05-11T12:11:39.000Z</time>
      </trkpt>
      <trkpt lat="43.97071" lon="7.21497">
        <ele>730.79998779297</ele>
        <time>2019-05-11T12:11:42.000Z</time>
      </trkpt>
      <trkpt lat="43.97072" lon="7.21499">
        <ele>730.79998779297</ele>
        <time>2019-05-11T12:11:45.000Z</time>
      </trkpt>
      <trkpt lat="43.97072" lon="7.215">
        <ele>730.20001220703</ele>
        <time>2019-05-11T12:11:48.000Z</time>
      </trkpt>
      <trkpt lat="43.97072" lon="7.21501">
        <ele>730</ele>
        <time>2019-05-11T12:11:49.000Z</time>
      </trkpt>
      <trkpt lat="43.97071" lon="7.21503">
        <ele>729</ele>
        <time>2019-05-11T12:11:53.000Z</time>
      </trkpt>
      <trkpt lat="43.9707" lon="7.21505">
        <ele>729</ele>
        <time>2019-05-11T12:11:59.000Z</time>
      </trkpt>
      <trkpt lat="43.97066" lon="7.21507">
        <ele>728.40002441406</ele>
        <time>2019-05-11T12:12:07.000Z</time>
      </trkpt>
      <trkpt lat="43.97065" lon="7.21507">
        <ele>728.79998779297</ele>
        <time>2019-05-11T12:12:12.000Z</time>
      </trkpt>
      <trkpt lat="43.97064" lon="7.21508">
        <ele>728.79998779297</ele>
        <time>2019-05-11T12:12:23.000Z</time>
      </trkpt>
      <trkpt lat="43.97064" lon="7.21508">
        <ele>728.79998779297</ele>
        <time>2019-05-11T12:12:35.000Z</time>
      </trkpt>
      <trkpt lat="43.97058" lon="7.21511">
        <ele>729</ele>
        <time>2019-05-11T12:12:41.000Z</time>
      </trkpt>
      <trkpt lat="43.97059" lon="7.21512">
        <ele>729</ele>
        <time>2019-05-11T12:12:52.000Z</time>
      </trkpt>
      <trkpt lat="43.9706" lon="7.21512">
        <ele>729</ele>
        <time>2019-05-11T12:12:58.000Z</time>
      </trkpt>
      <trkpt lat="43.97061" lon="7.21512">
        <ele>728.20001220703</ele>
        <time>2019-05-11T12:13:05.000Z</time>
      </trkpt>
      <trkpt lat="43.97063" lon="7.21513">
        <ele>728.20001220703</ele>
        <time>2019-05-11T12:13:16.000Z</time>
      </trkpt>
      <trkpt lat="43.97064" lon="7.21514">
        <ele>728</ele>
        <time>2019-05-11T12:13:17.000Z</time>
      </trkpt>
      <trkpt lat="43.97064" lon="7.21515">
        <ele>727.79998779297</ele>
        <time>2019-05-11T12:13:23.000Z</time>
      </trkpt>
      <trkpt lat="43.97064" lon="7.21514">
        <ele>728.40002441406</ele>
        <time>2019-05-11T12:13:28.000Z</time>
      </trkpt>
      <trkpt lat="43.97063" lon="7.21515">
        <ele>729</ele>
        <time>2019-05-11T12:13:32.000Z</time>
      </trkpt>
      <trkpt lat="43.97063" lon="7.21517">
        <ele>729.40002441406</ele>
        <time>2019-05-11T12:13:35.000Z</time>
      </trkpt>
      <trkpt lat="43.97063" lon="7.21515">
        <ele>730.20001220703</ele>
        <time>2019-05-11T12:13:39.000Z</time>
      </trkpt>
      <trkpt lat="43.97063" lon="7.21512">
        <ele>731.20001220703</ele>
        <time>2019-05-11T12:13:43.000Z</time>
      </trkpt>
      <trkpt lat="43.97062" lon="7.21506">
        <ele>732.40002441406</ele>
        <time>2019-05-11T12:13:51.000Z</time>
      </trkpt>
      <trkpt lat="43.97062" lon="7.21506">
        <ele>733.40002441406</ele>
        <time>2019-05-11T12:13:56.000Z</time>
      </trkpt>
      <trkpt lat="43.97062" lon="7.21506">
        <ele>733.59997558594</ele>
        <time>2019-05-11T12:13:57.000Z</time>
      </trkpt>
      <trkpt lat="43.97061" lon="7.215">
        <ele>734.40002441406</ele>
        <time>2019-05-11T12:14:06.000Z</time>
      </trkpt>
      <trkpt lat="43.97062" lon="7.21499">
        <ele>735.20001220703</ele>
        <time>2019-05-11T12:14:12.000Z</time>
      </trkpt>
      <trkpt lat="43.9706" lon="7.215">
        <ele>735.40002441406</ele>
        <time>2019-05-11T12:14:21.000Z</time>
      </trkpt>
      <trkpt lat="43.97059" lon="7.21501">
        <ele>735.40002441406</ele>
        <time>2019-05-11T12:14:29.000Z</time>
      </trkpt>
      <trkpt lat="43.97056" lon="7.21504">
        <ele>735.20001220703</ele>
        <time>2019-05-11T12:14:39.000Z</time>
      </trkpt>
      <trkpt lat="43.97057" lon="7.21503">
        <ele>735.20001220703</ele>
        <time>2019-05-11T12:14:40.000Z</time>
      </trkpt>
      <trkpt lat="43.97062" lon="7.21503">
        <ele>735.20001220703</ele>
        <time>2019-05-11T12:14:44.000Z</time>
      </trkpt>
      <trkpt lat="43.97064" lon="7.21504">
        <ele>735.20001220703</ele>
        <time>2019-05-11T12:14:45.000Z</time>
      </trkpt>
      <trkpt lat="43.97065" lon="7.21506">
        <ele>735.20001220703</ele>
        <time>2019-05-11T12:14:49.000Z</time>
      </trkpt>
      <trkpt lat="43.97063" lon="7.21507">
        <ele>735.20001220703</ele>
        <time>2019-05-11T12:14:51.000Z</time>
      </trkpt>
      <trkpt lat="43.97055" lon="7.21509">
        <ele>735.40002441406</ele>
        <time>2019-05-11T12:14:56.000Z</time>
      </trkpt>
      <trkpt lat="43.97054" lon="7.21508">
        <ele>735.40002441406</ele>
        <time>2019-05-11T12:14:57.000Z</time>
      </trkpt>
      <trkpt lat="43.97056" lon="7.21508">
        <ele>735.40002441406</ele>
        <time>2019-05-11T12:14:59.000Z</time>
      </trkpt>
      <trkpt lat="43.97062" lon="7.21499">
        <ele>735.20001220703</ele>
        <time>2019-05-11T12:15:09.000Z</time>
      </trkpt>
      <trkpt lat="43.97067" lon="7.21498">
        <ele>735</ele>
        <time>2019-05-11T12:15:18.000Z</time>
      </trkpt>
      <trkpt lat="43.97063" lon="7.21495">
        <ele>735</ele>
        <time>2019-05-11T12:15:27.000Z</time>
      </trkpt>
      <trkpt lat="43.97061" lon="7.21492">
        <ele>735</ele>
        <time>2019-05-11T12:15:34.000Z</time>
      </trkpt>
      <trkpt lat="43.97059" lon="7.21484">
        <ele>735</ele>
        <time>2019-05-11T12:15:39.000Z</time>
      </trkpt>
      <trkpt lat="43.97052" lon="7.21467">
        <ele>734.79998779297</ele>
        <time>2019-05-11T12:15:45.000Z</time>
      </trkpt>
      <trkpt lat="43.97048" lon="7.21463">
        <ele>734.59997558594</ele>
        <time>2019-05-11T12:15:48.000Z</time>
      </trkpt>
      <trkpt lat="43.97048" lon="7.21463">
        <ele>734.59997558594</ele>
        <time>2019-05-11T12:15:49.000Z</time>
      </trkpt>
      <trkpt lat="43.97046" lon="7.21462">
        <ele>734.59997558594</ele>
        <time>2019-05-11T12:15:51.000Z</time>
      </trkpt>
      <trkpt lat="43.97045" lon="7.21459">
        <ele>734.40002441406</ele>
        <time>2019-05-11T12:15:54.000Z</time>
      </trkpt>
      <trkpt lat="43.97042" lon="7.21451">
        <ele>734.59997558594</ele>
        <time>2019-05-11T12:16:02.000Z</time>
      </trkpt>
      <trkpt lat="43.9704" lon="7.21447">
        <ele>734.79998779297</ele>
        <time>2019-05-11T12:16:07.000Z</time>
      </trkpt>
      <trkpt lat="43.97039" lon="7.21446">
        <ele>734.79998779297</ele>
        <time>2019-05-11T12:16:08.000Z</time>
      </trkpt>
      <trkpt lat="43.97037" lon="7.21444">
        <ele>735.40002441406</ele>
        <time>2019-05-11T12:16:13.000Z</time>
      </trkpt>
      <trkpt lat="43.97035" lon="7.21442">
        <ele>735.20001220703</ele>
        <time>2019-05-11T12:16:15.000Z</time>
      </trkpt>
      <trkpt lat="43.97029" lon="7.2144">
        <ele>735.20001220703</ele>
        <time>2019-05-11T12:16:19.000Z</time>
      </trkpt>
      <trkpt lat="43.97026" lon="7.21439">
        <ele>735.20001220703</ele>
        <time>2019-05-11T12:16:21.000Z</time>
      </trkpt>
      <trkpt lat="43.97018" lon="7.21434">
        <ele>735.20001220703</ele>
        <time>2019-05-11T12:16:24.000Z</time>
      </trkpt>
      <trkpt lat="43.97007" lon="7.21425">
        <ele>734.59997558594</ele>
        <time>2019-05-11T12:16:27.000Z</time>
      </trkpt>
      <trkpt lat="43.97003" lon="7.21422">
        <ele>734</ele>
        <time>2019-05-11T12:16:28.000Z</time>
      </trkpt>
      <trkpt lat="43.97" lon="7.21421">
        <ele>733</ele>
        <time>2019-05-11T12:16:29.000Z</time>
      </trkpt>
      <trkpt lat="43.96997" lon="7.21421">
        <ele>732</ele>
        <time>2019-05-11T12:16:31.000Z</time>
      </trkpt>
      <trkpt lat="43.9699" lon="7.21416">
        <ele>732.59997558594</ele>
        <time>2019-05-11T12:16:36.000Z</time>
      </trkpt>
      <trkpt lat="43.96989" lon="7.21414">
        <ele>733</ele>
        <time>2019-05-11T12:16:37.000Z</time>
      </trkpt>
      <trkpt lat="43.96988" lon="7.21408">
        <ele>733.59997558594</ele>
        <time>2019-05-11T12:16:39.000Z</time>
      </trkpt>
      <trkpt lat="43.96987" lon="7.21406">
        <ele>733.79998779297</ele>
        <time>2019-05-11T12:16:40.000Z</time>
      </trkpt>
      <trkpt lat="43.96986" lon="7.21402">
        <ele>734.40002441406</ele>
        <time>2019-05-11T12:16:42.000Z</time>
      </trkpt>
      <trkpt lat="43.96985" lon="7.21396">
        <ele>735.40002441406</ele>
        <time>2019-05-11T12:16:45.000Z</time>
      </trkpt>
      <trkpt lat="43.96983" lon="7.21394">
        <ele>735.59997558594</ele>
        <time>2019-05-11T12:16:46.000Z</time>
      </trkpt>
      <trkpt lat="43.96976" lon="7.21391">
        <ele>736.59997558594</ele>
        <time>2019-05-11T12:16:51.000Z</time>
      </trkpt>
      <trkpt lat="43.96972" lon="7.21391">
        <ele>737</ele>
        <time>2019-05-11T12:16:53.000Z</time>
      </trkpt>
      <trkpt lat="43.96968" lon="7.21391">
        <ele>737.59997558594</ele>
        <time>2019-05-11T12:16:55.000Z</time>
      </trkpt>
      <trkpt lat="43.96966" lon="7.2139">
        <ele>737.59997558594</ele>
        <time>2019-05-11T12:16:56.000Z</time>
      </trkpt>
      <trkpt lat="43.96963" lon="7.2139">
        <ele>737.40002441406</ele>
        <time>2019-05-11T12:16:58.000Z</time>
      </trkpt>
      <trkpt lat="43.96953" lon="7.21389">
        <ele>738.20001220703</ele>
        <time>2019-05-11T12:17:04.000Z</time>
      </trkpt>
      <trkpt lat="43.96951" lon="7.21388">
        <ele>738.79998779297</ele>
        <time>2019-05-11T12:17:06.000Z</time>
      </trkpt>
      <trkpt lat="43.96946" lon="7.21388">
        <ele>739.40002441406</ele>
        <time>2019-05-11T12:17:10.000Z</time>
      </trkpt>
      <trkpt lat="43.96942" lon="7.21388">
        <ele>739.79998779297</ele>
        <time>2019-05-11T12:17:13.000Z</time>
      </trkpt>
      <trkpt lat="43.96936" lon="7.21388">
        <ele>740.40002441406</ele>
        <time>2019-05-11T12:17:17.000Z</time>
      </trkpt>
      <trkpt lat="43.96933" lon="7.21387">
        <ele>741</ele>
        <time>2019-05-11T12:17:19.000Z</time>
      </trkpt>
      <trkpt lat="43.96926" lon="7.21391">
        <ele>741.59997558594</ele>
        <time>2019-05-11T12:17:24.000Z</time>
      </trkpt>
      <trkpt lat="43.96922" lon="7.21393">
        <ele>742</ele>
        <time>2019-05-11T12:17:27.000Z</time>
      </trkpt>
      <trkpt lat="43.9692" lon="7.21397">
        <ele>742.20001220703</ele>
        <time>2019-05-11T12:17:29.000Z</time>
      </trkpt>
      <trkpt lat="43.96915" lon="7.21405">
        <ele>743</ele>
        <time>2019-05-11T12:17:33.000Z</time>
      </trkpt>
      <trkpt lat="43.96914" lon="7.21407">
        <ele>743.20001220703</ele>
        <time>2019-05-11T12:17:34.000Z</time>
      </trkpt>
      <trkpt lat="43.9691" lon="7.21423">
        <ele>744</ele>
        <time>2019-05-11T12:17:40.000Z</time>
      </trkpt>
      <trkpt lat="43.96907" lon="7.2143">
        <ele>743.59997558594</ele>
        <time>2019-05-11T12:17:43.000Z</time>
      </trkpt>
      <trkpt lat="43.969" lon="7.2143">
        <ele>743.20001220703</ele>
        <time>2019-05-11T12:17:46.000Z</time>
      </trkpt>
      <trkpt lat="43.96899" lon="7.21426">
        <ele>742</ele>
        <time>2019-05-11T12:17:49.000Z</time>
      </trkpt>
      <trkpt lat="43.96899" lon="7.21425">
        <ele>741.59997558594</ele>
        <time>2019-05-11T12:17:50.000Z</time>
      </trkpt>
      <trkpt lat="43.96896" lon="7.21423">
        <ele>741.40002441406</ele>
        <time>2019-05-11T12:17:55.000Z</time>
      </trkpt>
      <trkpt lat="43.96893" lon="7.21418">
        <ele>742.40002441406</ele>
        <time>2019-05-11T12:18:01.000Z</time>
      </trkpt>
      <trkpt lat="43.96886" lon="7.21408">
        <ele>742.79998779297</ele>
        <time>2019-05-11T12:18:07.000Z</time>
      </trkpt>
      <trkpt lat="43.96884" lon="7.21406">
        <ele>743.20001220703</ele>
        <time>2019-05-11T12:18:08.000Z</time>
      </trkpt>
      <trkpt lat="43.96876" lon="7.21398">
        <ele>744</ele>
        <time>2019-05-11T12:18:13.000Z</time>
      </trkpt>
      <trkpt lat="43.96874" lon="7.21397">
        <ele>744.20001220703</ele>
        <time>2019-05-11T12:18:14.000Z</time>
      </trkpt>
      <trkpt lat="43.96865" lon="7.21397">
        <ele>744.40002441406</ele>
        <time>2019-05-11T12:18:18.000Z</time>
      </trkpt>
      <trkpt lat="43.96851" lon="7.21396">
        <ele>744.79998779297</ele>
        <time>2019-05-11T12:18:24.000Z</time>
      </trkpt>
      <trkpt lat="43.96844" lon="7.21403">
        <ele>744.20001220703</ele>
        <time>2019-05-11T12:18:28.000Z</time>
      </trkpt>
      <trkpt lat="43.96835" lon="7.21405">
        <ele>744.59997558594</ele>
        <time>2019-05-11T12:18:32.000Z</time>
      </trkpt>
      <trkpt lat="43.96824" lon="7.21402">
        <ele>744.40002441406</ele>
        <time>2019-05-11T12:18:37.000Z</time>
      </trkpt>
      <trkpt lat="43.96821" lon="7.21403">
        <ele>745.40002441406</ele>
        <time>2019-05-11T12:18:40.000Z</time>
      </trkpt>
      <trkpt lat="43.96817" lon="7.21405">
        <ele>746.20001220703</ele>
        <time>2019-05-11T12:18:43.000Z</time>
      </trkpt>
      <trkpt lat="43.96815" lon="7.21407">
        <ele>746.40002441406</ele>
        <time>2019-05-11T12:18:44.000Z</time>
      </trkpt>
      <trkpt lat="43.96809" lon="7.21409">
        <ele>747.40002441406</ele>
        <time>2019-05-11T12:18:48.000Z</time>
      </trkpt>
      <trkpt lat="43.96807" lon="7.21408">
        <ele>747.59997558594</ele>
        <time>2019-05-11T12:18:49.000Z</time>
      </trkpt>
      <trkpt lat="43.96803" lon="7.21407">
        <ele>747.79998779297</ele>
        <time>2019-05-11T12:18:52.000Z</time>
      </trkpt>
      <trkpt lat="43.96792" lon="7.21401">
        <ele>747.79998779297</ele>
        <time>2019-05-11T12:18:56.000Z</time>
      </trkpt>
      <trkpt lat="43.96783" lon="7.214">
        <ele>746.40002441406</ele>
        <time>2019-05-11T12:18:59.000Z</time>
      </trkpt>
      <trkpt lat="43.9678" lon="7.214">
        <ele>746</ele>
        <time>2019-05-11T12:19:00.000Z</time>
      </trkpt>
      <trkpt lat="43.96765" lon="7.21395">
        <ele>745.40002441406</ele>
        <time>2019-05-11T12:19:04.000Z</time>
      </trkpt>
      <trkpt lat="43.96754" lon="7.21396">
        <ele>744.40002441406</ele>
        <time>2019-05-11T12:19:07.000Z</time>
      </trkpt>
      <trkpt lat="43.96752" lon="7.21398">
        <ele>744.20001220703</ele>
        <time>2019-05-11T12:19:08.000Z</time>
      </trkpt>
      <trkpt lat="43.96743" lon="7.21401">
        <ele>744.79998779297</ele>
        <time>2019-05-11T12:19:12.000Z</time>
      </trkpt>
      <trkpt lat="43.9673" lon="7.21406">
        <ele>745</ele>
        <time>2019-05-11T12:19:17.000Z</time>
      </trkpt>
      <trkpt lat="43.96724" lon="7.2141">
        <ele>745.40002441406</ele>
        <time>2019-05-11T12:19:20.000Z</time>
      </trkpt>
      <trkpt lat="43.96718" lon="7.21413">
        <ele>746.20001220703</ele>
        <time>2019-05-11T12:19:23.000Z</time>
      </trkpt>
      <trkpt lat="43.96716" lon="7.21413">
        <ele>746.40002441406</ele>
        <time>2019-05-11T12:19:24.000Z</time>
      </trkpt>
      <trkpt lat="43.96699" lon="7.21417">
        <ele>747.40002441406</ele>
        <time>2019-05-11T12:19:31.000Z</time>
      </trkpt>
      <trkpt lat="43.96698" lon="7.21418">
        <ele>747.59997558594</ele>
        <time>2019-05-11T12:19:32.000Z</time>
      </trkpt>
      <trkpt lat="43.96697" lon="7.21419">
        <ele>747.79998779297</ele>
        <time>2019-05-11T12:19:33.000Z</time>
      </trkpt>
      <trkpt lat="43.96693" lon="7.2142">
        <ele>748.59997558594</ele>
        <time>2019-05-11T12:19:35.000Z</time>
      </trkpt>
      <trkpt lat="43.96683" lon="7.21417">
        <ele>748.59997558594</ele>
        <time>2019-05-11T12:19:39.000Z</time>
      </trkpt>
      <trkpt lat="43.9668" lon="7.21417">
        <ele>748.40002441406</ele>
        <time>2019-05-11T12:19:40.000Z</time>
      </trkpt>
      <trkpt lat="43.96677" lon="7.21415">
        <ele>748.40002441406</ele>
        <time>2019-05-11T12:19:41.000Z</time>
      </trkpt>
      <trkpt lat="43.96671" lon="7.21411">
        <ele>748</ele>
        <time>2019-05-11T12:19:44.000Z</time>
      </trkpt>
      <trkpt lat="43.96667" lon="7.2141">
        <ele>748.79998779297</ele>
        <time>2019-05-11T12:19:49.000Z</time>
      </trkpt>
      <trkpt lat="43.96662" lon="7.21405">
        <ele>749</ele>
        <time>2019-05-11T12:19:53.000Z</time>
      </trkpt>
      <trkpt lat="43.9665" lon="7.21394">
        <ele>748</ele>
        <time>2019-05-11T12:19:57.000Z</time>
      </trkpt>
      <trkpt lat="43.96645" lon="7.21389">
        <ele>747.20001220703</ele>
        <time>2019-05-11T12:19:59.000Z</time>
      </trkpt>
      <trkpt lat="43.96639" lon="7.21382">
        <ele>746.79998779297</ele>
        <time>2019-05-11T12:20:01.000Z</time>
      </trkpt>
      <trkpt lat="43.96632" lon="7.21376">
        <ele>746.20001220703</ele>
        <time>2019-05-11T12:20:03.000Z</time>
      </trkpt>
      <trkpt lat="43.96624" lon="7.21367">
        <ele>745.40002441406</ele>
        <time>2019-05-11T12:20:05.000Z</time>
      </trkpt>
      <trkpt lat="43.96619" lon="7.21362">
        <ele>744.59997558594</ele>
        <time>2019-05-11T12:20:06.000Z</time>
      </trkpt>
      <trkpt lat="43.96615" lon="7.21359">
        <ele>743.40002441406</ele>
        <time>2019-05-11T12:20:07.000Z</time>
      </trkpt>
      <trkpt lat="43.96611" lon="7.21354">
        <ele>742.40002441406</ele>
        <time>2019-05-11T12:20:08.000Z</time>
      </trkpt>
      <trkpt lat="43.96607" lon="7.2135">
        <ele>741.40002441406</ele>
        <time>2019-05-11T12:20:09.000Z</time>
      </trkpt>
      <trkpt lat="43.96604" lon="7.21347">
        <ele>740.59997558594</ele>
        <time>2019-05-11T12:20:10.000Z</time>
      </trkpt>
      <trkpt lat="43.96599" lon="7.2134">
        <ele>739.59997558594</ele>
        <time>2019-05-11T12:20:12.000Z</time>
      </trkpt>
      <trkpt lat="43.96596" lon="7.21338">
        <ele>739.20001220703</ele>
        <time>2019-05-11T12:20:13.000Z</time>
      </trkpt>
      <trkpt lat="43.96581" lon="7.21335">
        <ele>738.59997558594</ele>
        <time>2019-05-11T12:20:17.000Z</time>
      </trkpt>
      <trkpt lat="43.96571" lon="7.21336">
        <ele>737.20001220703</ele>
        <time>2019-05-11T12:20:20.000Z</time>
      </trkpt>
      <trkpt lat="43.96569" lon="7.21336">
        <ele>736.79998779297</ele>
        <time>2019-05-11T12:20:21.000Z</time>
      </trkpt>
      <trkpt lat="43.96564" lon="7.21336">
        <ele>736</ele>
        <time>2019-05-11T12:20:23.000Z</time>
      </trkpt>
      <trkpt lat="43.96553" lon="7.21335">
        <ele>736.59997558594</ele>
        <time>2019-05-11T12:20:27.000Z</time>
      </trkpt>
      <trkpt lat="43.96536" lon="7.21335">
        <ele>736.79998779297</ele>
        <time>2019-05-11T12:20:31.000Z</time>
      </trkpt>
      <trkpt lat="43.96529" lon="7.21337">
        <ele>736.59997558594</ele>
        <time>2019-05-11T12:20:35.000Z</time>
      </trkpt>
      <trkpt lat="43.96527" lon="7.21337">
        <ele>737.79998779297</ele>
        <time>2019-05-11T12:20:37.000Z</time>
      </trkpt>
      <trkpt lat="43.96525" lon="7.21337">
        <ele>738.59997558594</ele>
        <time>2019-05-11T12:20:41.000Z</time>
      </trkpt>
      <trkpt lat="43.96524" lon="7.21338">
        <ele>738.79998779297</ele>
        <time>2019-05-11T12:20:50.000Z</time>
      </trkpt>
      <trkpt lat="43.96524" lon="7.21338">
        <ele>738.79998779297</ele>
        <time>2019-05-11T12:20:52.000Z</time>
      </trkpt>
      <trkpt lat="43.96523" lon="7.21338">
        <ele>738.79998779297</ele>
        <time>2019-05-11T12:21:08.000Z</time>
      </trkpt>
      <trkpt lat="43.96522" lon="7.21339">
        <ele>738.79998779297</ele>
        <time>2019-05-11T12:21:20.000Z</time>
      </trkpt>
      <trkpt lat="43.96522" lon="7.2134">
        <ele>738.59997558594</ele>
        <time>2019-05-11T12:21:32.000Z</time>
      </trkpt>
      <trkpt lat="43.96521" lon="7.2134">
        <ele>738.40002441406</ele>
        <time>2019-05-11T12:21:44.000Z</time>
      </trkpt>
      <trkpt lat="43.96521" lon="7.21341">
        <ele>738.40002441406</ele>
        <time>2019-05-11T12:21:56.000Z</time>
      </trkpt>
      <trkpt lat="43.96521" lon="7.21342">
        <ele>738.20001220703</ele>
        <time>2019-05-11T12:21:57.000Z</time>
      </trkpt>
      <trkpt lat="43.96522" lon="7.2135">
        <ele>738</ele>
        <time>2019-05-11T12:22:00.000Z</time>
      </trkpt>
      <trkpt lat="43.96521" lon="7.21357">
        <ele>737.79998779297</ele>
        <time>2019-05-11T12:22:03.000Z</time>
      </trkpt>
      <trkpt lat="43.9652" lon="7.2136">
        <ele>737.59997558594</ele>
        <time>2019-05-11T12:22:04.000Z</time>
      </trkpt>
      <trkpt lat="43.96519" lon="7.21362">
        <ele>737.59997558594</ele>
        <time>2019-05-11T12:22:05.000Z</time>
      </trkpt>
      <trkpt lat="43.96516" lon="7.21367">
        <ele>737.40002441406</ele>
        <time>2019-05-11T12:22:08.000Z</time>
      </trkpt>
      <trkpt lat="43.96514" lon="7.21368">
        <ele>737</ele>
        <time>2019-05-11T12:22:10.000Z</time>
      </trkpt>
      <trkpt lat="43.96514" lon="7.21368">
        <ele>736.59997558594</ele>
        <time>2019-05-11T12:22:11.000Z</time>
      </trkpt>
      <trkpt lat="43.96513" lon="7.21368">
        <ele>735.40002441406</ele>
        <time>2019-05-11T12:22:14.000Z</time>
      </trkpt>
      <trkpt lat="43.96513" lon="7.21368">
        <ele>735</ele>
        <time>2019-05-11T12:22:16.000Z</time>
      </trkpt>
      <trkpt lat="43.96512" lon="7.21366">
        <ele>735</ele>
        <time>2019-05-11T12:22:23.000Z</time>
      </trkpt>
      <trkpt lat="43.96511" lon="7.21365">
        <ele>734.79998779297</ele>
        <time>2019-05-11T12:22:24.000Z</time>
      </trkpt>
      <trkpt lat="43.9651" lon="7.21363">
        <ele>734.59997558594</ele>
        <time>2019-05-11T12:22:29.000Z</time>
      </trkpt>
      <trkpt lat="43.96507" lon="7.21359">
        <ele>734.59997558594</ele>
        <time>2019-05-11T12:22:33.000Z</time>
      </trkpt>
      <trkpt lat="43.96507" lon="7.21359">
        <ele>734.59997558594</ele>
        <time>2019-05-11T12:22:34.000Z</time>
      </trkpt>
      <trkpt lat="43.96505" lon="7.21354">
        <ele>734.59997558594</ele>
        <time>2019-05-11T12:22:42.000Z</time>
      </trkpt>
      <trkpt lat="43.96502" lon="7.21352">
        <ele>734.40002441406</ele>
        <time>2019-05-11T12:22:47.000Z</time>
      </trkpt>
      <trkpt lat="43.965" lon="7.21352">
        <ele>734</ele>
        <time>2019-05-11T12:22:48.000Z</time>
      </trkpt>
      <trkpt lat="43.96494" lon="7.21351">
        <ele>732.40002441406</ele>
        <time>2019-05-11T12:22:51.000Z</time>
      </trkpt>
      <trkpt lat="43.96489" lon="7.2135">
        <ele>731.20001220703</ele>
        <time>2019-05-11T12:22:53.000Z</time>
      </trkpt>
      <trkpt lat="43.96488" lon="7.21351">
        <ele>730</ele>
        <time>2019-05-11T12:22:54.000Z</time>
      </trkpt>
      <trkpt lat="43.96487" lon="7.21353">
        <ele>729</ele>
        <time>2019-05-11T12:22:55.000Z</time>
      </trkpt>
      <trkpt lat="43.96487" lon="7.21358">
        <ele>727.20001220703</ele>
        <time>2019-05-11T12:22:57.000Z</time>
      </trkpt>
      <trkpt lat="43.96489" lon="7.21362">
        <ele>725.40002441406</ele>
        <time>2019-05-11T12:22:59.000Z</time>
      </trkpt>
      <trkpt lat="43.96489" lon="7.21366">
        <ele>724.79998779297</ele>
        <time>2019-05-11T12:23:00.000Z</time>
      </trkpt>
      <trkpt lat="43.96489" lon="7.21369">
        <ele>724</ele>
        <time>2019-05-11T12:23:01.000Z</time>
      </trkpt>
      <trkpt lat="43.96487" lon="7.21374">
        <ele>722.59997558594</ele>
        <time>2019-05-11T12:23:03.000Z</time>
      </trkpt>
      <trkpt lat="43.96485" lon="7.21374">
        <ele>722.20001220703</ele>
        <time>2019-05-11T12:23:04.000Z</time>
      </trkpt>
      <trkpt lat="43.96481" lon="7.21373">
        <ele>721.59997558594</ele>
        <time>2019-05-11T12:23:05.000Z</time>
      </trkpt>
      <trkpt lat="43.96478" lon="7.21372">
        <ele>721</ele>
        <time>2019-05-11T12:23:06.000Z</time>
      </trkpt>
      <trkpt lat="43.96475" lon="7.21373">
        <ele>720</ele>
        <time>2019-05-11T12:23:07.000Z</time>
      </trkpt>
      <trkpt lat="43.96473" lon="7.21375">
        <ele>719.40002441406</ele>
        <time>2019-05-11T12:23:08.000Z</time>
      </trkpt>
      <trkpt lat="43.96471" lon="7.21378">
        <ele>718.40002441406</ele>
        <time>2019-05-11T12:23:09.000Z</time>
      </trkpt>
      <trkpt lat="43.96467" lon="7.21382">
        <ele>716.59997558594</ele>
        <time>2019-05-11T12:23:11.000Z</time>
      </trkpt>
      <trkpt lat="43.96466" lon="7.21385">
        <ele>716.20001220703</ele>
        <time>2019-05-11T12:23:12.000Z</time>
      </trkpt>
      <trkpt lat="43.96466" lon="7.21387">
        <ele>715.40002441406</ele>
        <time>2019-05-11T12:23:13.000Z</time>
      </trkpt>
      <trkpt lat="43.96466" lon="7.21388">
        <ele>714.20001220703</ele>
        <time>2019-05-11T12:23:15.000Z</time>
      </trkpt>
      <trkpt lat="43.96465" lon="7.21388">
        <ele>713.79998779297</ele>
        <time>2019-05-11T12:23:16.000Z</time>
      </trkpt>
      <trkpt lat="43.96465" lon="7.21388">
        <ele>713.20001220703</ele>
        <time>2019-05-11T12:23:19.000Z</time>
      </trkpt>
      <trkpt lat="43.96465" lon="7.2139">
        <ele>713.20001220703</ele>
        <time>2019-05-11T12:23:23.000Z</time>
      </trkpt>
      <trkpt lat="43.96463" lon="7.21395">
        <ele>712.79998779297</ele>
        <time>2019-05-11T12:23:30.000Z</time>
      </trkpt>
      <trkpt lat="43.96463" lon="7.21396">
        <ele>712</ele>
        <time>2019-05-11T12:23:33.000Z</time>
      </trkpt>
      <trkpt lat="43.96462" lon="7.21399">
        <ele>711.59997558594</ele>
        <time>2019-05-11T12:23:35.000Z</time>
      </trkpt>
      <trkpt lat="43.96454" lon="7.21414">
        <ele>711</ele>
        <time>2019-05-11T12:23:40.000Z</time>
      </trkpt>
      <trkpt lat="43.96449" lon="7.21419">
        <ele>710.59997558594</ele>
        <time>2019-05-11T12:23:41.000Z</time>
      </trkpt>
      <trkpt lat="43.96445" lon="7.21424">
        <ele>709.20001220703</ele>
        <time>2019-05-11T12:23:43.000Z</time>
      </trkpt>
      <trkpt lat="43.96441" lon="7.21424">
        <ele>707.40002441406</ele>
        <time>2019-05-11T12:23:45.000Z</time>
      </trkpt>
      <trkpt lat="43.96441" lon="7.21422">
        <ele>706.40002441406</ele>
        <time>2019-05-11T12:23:46.000Z</time>
      </trkpt>
      <trkpt lat="43.96441" lon="7.21421">
        <ele>705.59997558594</ele>
        <time>2019-05-11T12:23:47.000Z</time>
      </trkpt>
      <trkpt lat="43.96439" lon="7.21421">
        <ele>703.79998779297</ele>
        <time>2019-05-11T12:23:50.000Z</time>
      </trkpt>
      <trkpt lat="43.96437" lon="7.2142">
        <ele>703.59997558594</ele>
        <time>2019-05-11T12:23:51.000Z</time>
      </trkpt>
      <trkpt lat="43.96433" lon="7.21411">
        <ele>702.79998779297</ele>
        <time>2019-05-11T12:23:54.000Z</time>
      </trkpt>
      <trkpt lat="43.96434" lon="7.21407">
        <ele>701.59997558594</ele>
        <time>2019-05-11T12:23:56.000Z</time>
      </trkpt>
      <trkpt lat="43.96433" lon="7.21405">
        <ele>700.20001220703</ele>
        <time>2019-05-11T12:23:58.000Z</time>
      </trkpt>
      <trkpt lat="43.96432" lon="7.21404">
        <ele>699</ele>
        <time>2019-05-11T12:24:00.000Z</time>
      </trkpt>
      <trkpt lat="43.96432" lon="7.21404">
        <ele>698.20001220703</ele>
        <time>2019-05-11T12:24:02.000Z</time>
      </trkpt>
      <trkpt lat="43.96432" lon="7.21404">
        <ele>697.79998779297</ele>
        <time>2019-05-11T12:24:03.000Z</time>
      </trkpt>
      <trkpt lat="43.96431" lon="7.21402">
        <ele>697</ele>
        <time>2019-05-11T12:24:07.000Z</time>
      </trkpt>
      <trkpt lat="43.96432" lon="7.21396">
        <ele>697.40002441406</ele>
        <time>2019-05-11T12:24:13.000Z</time>
      </trkpt>
      <trkpt lat="43.96432" lon="7.21392">
        <ele>698.59997558594</ele>
        <time>2019-05-11T12:24:19.000Z</time>
      </trkpt>
      <trkpt lat="43.9643" lon="7.21388">
        <ele>698.79998779297</ele>
        <time>2019-05-11T12:24:24.000Z</time>
      </trkpt>
      <trkpt lat="43.96429" lon="7.21386">
        <ele>699.40002441406</ele>
        <time>2019-05-11T12:24:27.000Z</time>
      </trkpt>
      <trkpt lat="43.96428" lon="7.21384">
        <ele>700</ele>
        <time>2019-05-11T12:24:30.000Z</time>
      </trkpt>
      <trkpt lat="43.96427" lon="7.21381">
        <ele>701</ele>
        <time>2019-05-11T12:24:35.000Z</time>
      </trkpt>
      <trkpt lat="43.96426" lon="7.21379">
        <ele>701.59997558594</ele>
        <time>2019-05-11T12:24:37.000Z</time>
      </trkpt>
      <trkpt lat="43.96425" lon="7.21377">
        <ele>702</ele>
        <time>2019-05-11T12:24:40.000Z</time>
      </trkpt>
      <trkpt lat="43.96424" lon="7.21375">
        <ele>702.20001220703</ele>
        <time>2019-05-11T12:24:41.000Z</time>
      </trkpt>
      <trkpt lat="43.9642" lon="7.21374">
        <ele>702.79998779297</ele>
        <time>2019-05-11T12:24:47.000Z</time>
      </trkpt>
      <trkpt lat="43.96418" lon="7.21375">
        <ele>703</ele>
        <time>2019-05-11T12:24:53.000Z</time>
      </trkpt>
      <trkpt lat="43.96417" lon="7.21375">
        <ele>703.20001220703</ele>
        <time>2019-05-11T12:24:54.000Z</time>
      </trkpt>
      <trkpt lat="43.96411" lon="7.21376">
        <ele>703.79998779297</ele>
        <time>2019-05-11T12:25:01.000Z</time>
      </trkpt>
      <trkpt lat="43.9641" lon="7.21376">
        <ele>703.79998779297</ele>
        <time>2019-05-11T12:25:02.000Z</time>
      </trkpt>
      <trkpt lat="43.96408" lon="7.21374">
        <ele>704.20001220703</ele>
        <time>2019-05-11T12:25:05.000Z</time>
      </trkpt>
      <trkpt lat="43.96407" lon="7.21372">
        <ele>704.40002441406</ele>
        <time>2019-05-11T12:25:07.000Z</time>
      </trkpt>
      <trkpt lat="43.96405" lon="7.21371">
        <ele>704.79998779297</ele>
        <time>2019-05-11T12:25:12.000Z</time>
      </trkpt>
      <trkpt lat="43.96404" lon="7.21369">
        <ele>704.79998779297</ele>
        <time>2019-05-11T12:25:21.000Z</time>
      </trkpt>
      <trkpt lat="43.96404" lon="7.2137">
        <ele>704.59997558594</ele>
        <time>2019-05-11T12:25:31.000Z</time>
      </trkpt>
      <trkpt lat="43.96403" lon="7.2137">
        <ele>704.40002441406</ele>
        <time>2019-05-11T12:25:43.000Z</time>
      </trkpt>
      <trkpt lat="43.96403" lon="7.21368">
        <ele>704.79998779297</ele>
        <time>2019-05-11T12:25:50.000Z</time>
      </trkpt>
      <trkpt lat="43.96405" lon="7.21371">
        <ele>705.20001220703</ele>
        <time>2019-05-11T12:25:55.000Z</time>
      </trkpt>
      <trkpt lat="43.96406" lon="7.21374">
        <ele>704.79998779297</ele>
        <time>2019-05-11T12:25:59.000Z</time>
      </trkpt>
      <trkpt lat="43.96407" lon="7.21374">
        <ele>704.79998779297</ele>
        <time>2019-05-11T12:26:00.000Z</time>
      </trkpt>
      <trkpt lat="43.96413" lon="7.21373">
        <ele>703.59997558594</ele>
        <time>2019-05-11T12:26:06.000Z</time>
      </trkpt>
      <trkpt lat="43.96413" lon="7.21371">
        <ele>702.79998779297</ele>
        <time>2019-05-11T12:26:09.000Z</time>
      </trkpt>
      <trkpt lat="43.96411" lon="7.2137">
        <ele>702</ele>
        <time>2019-05-11T12:26:12.000Z</time>
      </trkpt>
      <trkpt lat="43.96406" lon="7.21368">
        <ele>701.79998779297</ele>
        <time>2019-05-11T12:26:15.000Z</time>
      </trkpt>
      <trkpt lat="43.96403" lon="7.21364">
        <ele>701.59997558594</ele>
        <time>2019-05-11T12:26:17.000Z</time>
      </trkpt>
      <trkpt lat="43.96396" lon="7.21352">
        <ele>701.40002441406</ele>
        <time>2019-05-11T12:26:21.000Z</time>
      </trkpt>
      <trkpt lat="43.96394" lon="7.21351">
        <ele>701.40002441406</ele>
        <time>2019-05-11T12:26:22.000Z</time>
      </trkpt>
      <trkpt lat="43.9639" lon="7.21346">
        <ele>700.79998779297</ele>
        <time>2019-05-11T12:26:25.000Z</time>
      </trkpt>
      <trkpt lat="43.96389" lon="7.21344">
        <ele>700.79998779297</ele>
        <time>2019-05-11T12:26:26.000Z</time>
      </trkpt>
      <trkpt lat="43.96386" lon="7.21341">
        <ele>700.79998779297</ele>
        <time>2019-05-11T12:26:28.000Z</time>
      </trkpt>
      <trkpt lat="43.96381" lon="7.21336">
        <ele>701</ele>
        <time>2019-05-11T12:26:30.000Z</time>
      </trkpt>
      <trkpt lat="43.96374" lon="7.21329">
        <ele>701.20001220703</ele>
        <time>2019-05-11T12:26:32.000Z</time>
      </trkpt>
      <trkpt lat="43.96368" lon="7.21321">
        <ele>701</ele>
        <time>2019-05-11T12:26:34.000Z</time>
      </trkpt>
      <trkpt lat="43.96357" lon="7.21315">
        <ele>698.79998779297</ele>
        <time>2019-05-11T12:26:37.000Z</time>
      </trkpt>
      <trkpt lat="43.96353" lon="7.21313">
        <ele>697.79998779297</ele>
        <time>2019-05-11T12:26:38.000Z</time>
      </trkpt>
      <trkpt lat="43.96346" lon="7.21307">
        <ele>696.40002441406</ele>
        <time>2019-05-11T12:26:40.000Z</time>
      </trkpt>
      <trkpt lat="43.96338" lon="7.21301">
        <ele>695</ele>
        <time>2019-05-11T12:26:42.000Z</time>
      </trkpt>
      <trkpt lat="43.96329" lon="7.21295">
        <ele>693.40002441406</ele>
        <time>2019-05-11T12:26:44.000Z</time>
      </trkpt>
      <trkpt lat="43.96326" lon="7.21291">
        <ele>692.20001220703</ele>
        <time>2019-05-11T12:26:45.000Z</time>
      </trkpt>
      <trkpt lat="43.9632" lon="7.21283">
        <ele>690.59997558594</ele>
        <time>2019-05-11T12:26:47.000Z</time>
      </trkpt>
      <trkpt lat="43.96316" lon="7.2128">
        <ele>689.79998779297</ele>
        <time>2019-05-11T12:26:48.000Z</time>
      </trkpt>
      <trkpt lat="43.96308" lon="7.21272">
        <ele>689</ele>
        <time>2019-05-11T12:26:50.000Z</time>
      </trkpt>
      <trkpt lat="43.96306" lon="7.21267">
        <ele>688.40002441406</ele>
        <time>2019-05-11T12:26:51.000Z</time>
      </trkpt>
      <trkpt lat="43.96305" lon="7.21262">
        <ele>688</ele>
        <time>2019-05-11T12:26:52.000Z</time>
      </trkpt>
      <trkpt lat="43.96304" lon="7.21258">
        <ele>687.40002441406</ele>
        <time>2019-05-11T12:26:53.000Z</time>
      </trkpt>
      <trkpt lat="43.96305" lon="7.21258">
        <ele>686.59997558594</ele>
        <time>2019-05-11T12:26:54.000Z</time>
      </trkpt>
      <trkpt lat="43.96304" lon="7.21257">
        <ele>685.40002441406</ele>
        <time>2019-05-11T12:26:56.000Z</time>
      </trkpt>
      <trkpt lat="43.96304" lon="7.21258">
        <ele>684.59997558594</ele>
        <time>2019-05-11T12:26:58.000Z</time>
      </trkpt>
      <trkpt lat="43.96304" lon="7.21256">
        <ele>684.79998779297</ele>
        <time>2019-05-11T12:27:05.000Z</time>
      </trkpt>
      <trkpt lat="43.96303" lon="7.21255">
        <ele>684.40002441406</ele>
        <time>2019-05-11T12:27:06.000Z</time>
      </trkpt>
      <trkpt lat="43.96303" lon="7.21254">
        <ele>684.40002441406</ele>
        <time>2019-05-11T12:27:07.000Z</time>
      </trkpt>
      <trkpt lat="43.96303" lon="7.21253">
        <ele>684.20001220703</ele>
        <time>2019-05-11T12:27:09.000Z</time>
      </trkpt>
      <trkpt lat="43.96303" lon="7.21251">
        <ele>684</ele>
        <time>2019-05-11T12:27:24.000Z</time>
      </trkpt>
      <trkpt lat="43.96303" lon="7.21251">
        <ele>683.79998779297</ele>
        <time>2019-05-11T12:27:37.000Z</time>
      </trkpt>
      <trkpt lat="43.96303" lon="7.21251">
        <ele>684.40002441406</ele>
        <time>2019-05-11T12:27:48.000Z</time>
      </trkpt>
      <trkpt lat="43.96304" lon="7.21252">
        <ele>684.59997558594</ele>
        <time>2019-05-11T12:27:55.000Z</time>
      </trkpt>
      <trkpt lat="43.96303" lon="7.21253">
        <ele>684.79998779297</ele>
        <time>2019-05-11T12:28:05.000Z</time>
      </trkpt>
      <trkpt lat="43.96303" lon="7.21251">
        <ele>685</ele>
        <time>2019-05-11T12:28:21.000Z</time>
      </trkpt>
      <trkpt lat="43.96302" lon="7.2125">
        <ele>684.79998779297</ele>
        <time>2019-05-11T12:28:22.000Z</time>
      </trkpt>
      <trkpt lat="43.96301" lon="7.21247">
        <ele>684.40002441406</ele>
        <time>2019-05-11T12:28:28.000Z</time>
      </trkpt>
      <trkpt lat="43.96302" lon="7.21245">
        <ele>684</ele>
        <time>2019-05-11T12:28:41.000Z</time>
      </trkpt>
      <trkpt lat="43.96297" lon="7.21236">
        <ele>683.79998779297</ele>
        <time>2019-05-11T12:28:45.000Z</time>
      </trkpt>
      <trkpt lat="43.96292" lon="7.21226">
        <ele>683.20001220703</ele>
        <time>2019-05-11T12:28:47.000Z</time>
      </trkpt>
      <trkpt lat="43.9629" lon="7.21219">
        <ele>682.59997558594</ele>
        <time>2019-05-11T12:28:48.000Z</time>
      </trkpt>
      <trkpt lat="43.96288" lon="7.21213">
        <ele>681.79998779297</ele>
        <time>2019-05-11T12:28:49.000Z</time>
      </trkpt>
      <trkpt lat="43.96285" lon="7.21209">
        <ele>680.79998779297</ele>
        <time>2019-05-11T12:28:50.000Z</time>
      </trkpt>
      <trkpt lat="43.96283" lon="7.21207">
        <ele>679.79998779297</ele>
        <time>2019-05-11T12:28:51.000Z</time>
      </trkpt>
      <trkpt lat="43.96281" lon="7.21205">
        <ele>678.59997558594</ele>
        <time>2019-05-11T12:28:52.000Z</time>
      </trkpt>
      <trkpt lat="43.96279" lon="7.21204">
        <ele>677.59997558594</ele>
        <time>2019-05-11T12:28:53.000Z</time>
      </trkpt>
      <trkpt lat="43.96277" lon="7.21204">
        <ele>677.59997558594</ele>
        <time>2019-05-11T12:28:54.000Z</time>
      </trkpt>
      <trkpt lat="43.96278" lon="7.21204">
        <ele>676.79998779297</ele>
        <time>2019-05-11T12:28:55.000Z</time>
      </trkpt>
      <trkpt lat="43.96278" lon="7.21204">
        <ele>676.40002441406</ele>
        <time>2019-05-11T12:28:56.000Z</time>
      </trkpt>
      <trkpt lat="43.96276" lon="7.21201">
        <ele>675.59997558594</ele>
        <time>2019-05-11T12:29:02.000Z</time>
      </trkpt>
      <trkpt lat="43.96275" lon="7.212">
        <ele>675.40002441406</ele>
        <time>2019-05-11T12:29:04.000Z</time>
      </trkpt>
      <trkpt lat="43.96273" lon="7.212">
        <ele>675.59997558594</ele>
        <time>2019-05-11T12:29:10.000Z</time>
      </trkpt>
      <trkpt lat="43.96271" lon="7.21199">
        <ele>675.40002441406</ele>
        <time>2019-05-11T12:29:16.000Z</time>
      </trkpt>
      <trkpt lat="43.96268" lon="7.21198">
        <ele>674.40002441406</ele>
        <time>2019-05-11T12:29:23.000Z</time>
      </trkpt>
      <trkpt lat="43.96267" lon="7.21197">
        <ele>674.40002441406</ele>
        <time>2019-05-11T12:29:24.000Z</time>
      </trkpt>
      <trkpt lat="43.96266" lon="7.21197">
        <ele>673.59997558594</ele>
        <time>2019-05-11T12:29:30.000Z</time>
      </trkpt>
      <trkpt lat="43.96264" lon="7.21196">
        <ele>673.20001220703</ele>
        <time>2019-05-11T12:29:32.000Z</time>
      </trkpt>
      <trkpt lat="43.96261" lon="7.21195">
        <ele>672.59997558594</ele>
        <time>2019-05-11T12:29:35.000Z</time>
      </trkpt>
      <trkpt lat="43.96259" lon="7.21194">
        <ele>672.20001220703</ele>
        <time>2019-05-11T12:29:37.000Z</time>
      </trkpt>
      <trkpt lat="43.96256" lon="7.21191">
        <ele>671.40002441406</ele>
        <time>2019-05-11T12:29:41.000Z</time>
      </trkpt>
      <trkpt lat="43.96251" lon="7.21191">
        <ele>671</ele>
        <time>2019-05-11T12:29:44.000Z</time>
      </trkpt>
      <trkpt lat="43.96247" lon="7.2119">
        <ele>670.59997558594</ele>
        <time>2019-05-11T12:29:46.000Z</time>
      </trkpt>
      <trkpt lat="43.96239" lon="7.21186">
        <ele>670</ele>
        <time>2019-05-11T12:29:51.000Z</time>
      </trkpt>
      <trkpt lat="43.96233" lon="7.21182">
        <ele>668.79998779297</ele>
        <time>2019-05-11T12:29:55.000Z</time>
      </trkpt>
      <trkpt lat="43.96226" lon="7.21178">
        <ele>667.79998779297</ele>
        <time>2019-05-11T12:29:58.000Z</time>
      </trkpt>
      <trkpt lat="43.96223" lon="7.21178">
        <ele>667.40002441406</ele>
        <time>2019-05-11T12:29:59.000Z</time>
      </trkpt>
      <trkpt lat="43.96219" lon="7.21175">
        <ele>666.79998779297</ele>
        <time>2019-05-11T12:30:01.000Z</time>
      </trkpt>
      <trkpt lat="43.96214" lon="7.21174">
        <ele>665.79998779297</ele>
        <time>2019-05-11T12:30:03.000Z</time>
      </trkpt>
      <trkpt lat="43.96213" lon="7.21174">
        <ele>665.20001220703</ele>
        <time>2019-05-11T12:30:04.000Z</time>
      </trkpt>
      <trkpt lat="43.96212" lon="7.21174">
        <ele>664.59997558594</ele>
        <time>2019-05-11T12:30:05.000Z</time>
      </trkpt>
      <trkpt lat="43.96208" lon="7.2117">
        <ele>663.40002441406</ele>
        <time>2019-05-11T12:30:07.000Z</time>
      </trkpt>
      <trkpt lat="43.96205" lon="7.21169">
        <ele>663.20001220703</ele>
        <time>2019-05-11T12:30:08.000Z</time>
      </trkpt>
      <trkpt lat="43.96198" lon="7.21168">
        <ele>662</ele>
        <time>2019-05-11T12:30:10.000Z</time>
      </trkpt>
      <trkpt lat="43.96193" lon="7.21165">
        <ele>660.79998779297</ele>
        <time>2019-05-11T12:30:12.000Z</time>
      </trkpt>
      <trkpt lat="43.96192" lon="7.21166">
        <ele>660.20001220703</ele>
        <time>2019-05-11T12:30:13.000Z</time>
      </trkpt>
      <trkpt lat="43.96187" lon="7.21165">
        <ele>659.79998779297</ele>
        <time>2019-05-11T12:30:15.000Z</time>
      </trkpt>
      <trkpt lat="43.96185" lon="7.21164">
        <ele>659.59997558594</ele>
        <time>2019-05-11T12:30:16.000Z</time>
      </trkpt>
      <trkpt lat="43.96179" lon="7.21161">
        <ele>659</ele>
        <time>2019-05-11T12:30:18.000Z</time>
      </trkpt>
      <trkpt lat="43.96174" lon="7.21159">
        <ele>658.59997558594</ele>
        <time>2019-05-11T12:30:19.000Z</time>
      </trkpt>
      <trkpt lat="43.9617" lon="7.21159">
        <ele>658</ele>
        <time>2019-05-11T12:30:20.000Z</time>
      </trkpt>
      <trkpt lat="43.96158" lon="7.21158">
        <ele>656.59997558594</ele>
        <time>2019-05-11T12:30:23.000Z</time>
      </trkpt>
      <trkpt lat="43.96155" lon="7.21157">
        <ele>655.79998779297</ele>
        <time>2019-05-11T12:30:24.000Z</time>
      </trkpt>
      <trkpt lat="43.9615" lon="7.21157">
        <ele>655.59997558594</ele>
        <time>2019-05-11T12:30:25.000Z</time>
      </trkpt>
      <trkpt lat="43.96142" lon="7.21157">
        <ele>654.40002441406</ele>
        <time>2019-05-11T12:30:27.000Z</time>
      </trkpt>
      <trkpt lat="43.96135" lon="7.21159">
        <ele>653.79998779297</ele>
        <time>2019-05-11T12:30:29.000Z</time>
      </trkpt>
      <trkpt lat="43.9613" lon="7.21161">
        <ele>653.20001220703</ele>
        <time>2019-05-11T12:30:31.000Z</time>
      </trkpt>
      <trkpt lat="43.96125" lon="7.21163">
        <ele>652.79998779297</ele>
        <time>2019-05-11T12:30:33.000Z</time>
      </trkpt>
      <trkpt lat="43.96116" lon="7.21161">
        <ele>652.20001220703</ele>
        <time>2019-05-11T12:30:37.000Z</time>
      </trkpt>
      <trkpt lat="43.96114" lon="7.21159">
        <ele>652.20001220703</ele>
        <time>2019-05-11T12:30:38.000Z</time>
      </trkpt>
      <trkpt lat="43.96104" lon="7.21152">
        <ele>652</ele>
        <time>2019-05-11T12:30:41.000Z</time>
      </trkpt>
      <trkpt lat="43.96097" lon="7.21149">
        <ele>651</ele>
        <time>2019-05-11T12:30:44.000Z</time>
      </trkpt>
      <trkpt lat="43.96095" lon="7.21149">
        <ele>650.59997558594</ele>
        <time>2019-05-11T12:30:45.000Z</time>
      </trkpt>
      <trkpt lat="43.96088" lon="7.21148">
        <ele>649.79998779297</ele>
        <time>2019-05-11T12:30:47.000Z</time>
      </trkpt>
      <trkpt lat="43.96084" lon="7.21148">
        <ele>649.20001220703</ele>
        <time>2019-05-11T12:30:49.000Z</time>
      </trkpt>
      <trkpt lat="43.96082" lon="7.21148">
        <ele>648.79998779297</ele>
        <time>2019-05-11T12:30:52.000Z</time>
      </trkpt>
      <trkpt lat="43.96082" lon="7.21148">
        <ele>648.59997558594</ele>
        <time>2019-05-11T12:30:53.000Z</time>
      </trkpt>
      <trkpt lat="43.9608" lon="7.21149">
        <ele>648</ele>
        <time>2019-05-11T12:30:59.000Z</time>
      </trkpt>
      <trkpt lat="43.96078" lon="7.21149">
        <ele>648.79998779297</ele>
        <time>2019-05-11T12:31:06.000Z</time>
      </trkpt>
      <trkpt lat="43.96075" lon="7.21148">
        <ele>648.79998779297</ele>
        <time>2019-05-11T12:31:12.000Z</time>
      </trkpt>
      <trkpt lat="43.96072" lon="7.21147">
        <ele>649.20001220703</ele>
        <time>2019-05-11T12:31:20.000Z</time>
      </trkpt>
      <trkpt lat="43.96071" lon="7.21149">
        <ele>649.40002441406</ele>
        <time>2019-05-11T12:31:26.000Z</time>
      </trkpt>
      <trkpt lat="43.96071" lon="7.21151">
        <ele>649.79998779297</ele>
        <time>2019-05-11T12:31:31.000Z</time>
      </trkpt>
      <trkpt lat="43.9607" lon="7.21151">
        <ele>650.20001220703</ele>
        <time>2019-05-11T12:31:33.000Z</time>
      </trkpt>
      <trkpt lat="43.96071" lon="7.21152">
        <ele>650.79998779297</ele>
        <time>2019-05-11T12:31:37.000Z</time>
      </trkpt>
      <trkpt lat="43.9607" lon="7.21152">
        <ele>651.40002441406</ele>
        <time>2019-05-11T12:31:41.000Z</time>
      </trkpt>
      <trkpt lat="43.96069" lon="7.21153">
        <ele>652.20001220703</ele>
        <time>2019-05-11T12:31:44.000Z</time>
      </trkpt>
      <trkpt lat="43.96067" lon="7.21152">
        <ele>652.79998779297</ele>
        <time>2019-05-11T12:31:47.000Z</time>
      </trkpt>
      <trkpt lat="43.96065" lon="7.21151">
        <ele>652.79998779297</ele>
        <time>2019-05-11T12:31:53.000Z</time>
      </trkpt>
      <trkpt lat="43.96064" lon="7.21151">
        <ele>653</ele>
        <time>2019-05-11T12:32:04.000Z</time>
      </trkpt>
      <trkpt lat="43.96064" lon="7.21151">
        <ele>652.79998779297</ele>
        <time>2019-05-11T12:32:10.000Z</time>
      </trkpt>
      <trkpt lat="43.96062" lon="7.2115">
        <ele>652.20001220703</ele>
        <time>2019-05-11T12:32:17.000Z</time>
      </trkpt>
      <trkpt lat="43.96062" lon="7.21152">
        <ele>651.79998779297</ele>
        <time>2019-05-11T12:32:23.000Z</time>
      </trkpt>
      <trkpt lat="43.96062" lon="7.21152">
        <ele>652.59997558594</ele>
        <time>2019-05-11T12:32:27.000Z</time>
      </trkpt>
      <trkpt lat="43.96062" lon="7.21154">
        <ele>652.79998779297</ele>
        <time>2019-05-11T12:32:37.000Z</time>
      </trkpt>
      <trkpt lat="43.96063" lon="7.21154">
        <ele>652.79998779297</ele>
        <time>2019-05-11T12:32:46.000Z</time>
      </trkpt>
      <trkpt lat="43.96063" lon="7.21153">
        <ele>652.20001220703</ele>
        <time>2019-05-11T12:32:57.000Z</time>
      </trkpt>
      <trkpt lat="43.96063" lon="7.21153">
        <ele>652.20001220703</ele>
        <time>2019-05-11T12:32:58.000Z</time>
      </trkpt>
      <trkpt lat="43.96063" lon="7.21154">
        <ele>652</ele>
        <time>2019-05-11T12:33:01.000Z</time>
      </trkpt>
      <trkpt lat="43.96063" lon="7.21154">
        <ele>655.59997558594</ele>
        <time>2019-05-11T12:33:02.000Z</time>
      </trkpt>
      <trkpt lat="43.96062" lon="7.21154">
        <ele>652.20001220703</ele>
        <time>2019-05-11T12:33:07.000Z</time>
      </trkpt>
      <trkpt lat="43.96061" lon="7.21154">
        <ele>652.59997558594</ele>
        <time>2019-05-11T12:33:14.000Z</time>
      </trkpt>
      <trkpt lat="43.9606" lon="7.21151">
        <ele>652</ele>
        <time>2019-05-11T12:33:19.000Z</time>
      </trkpt>
      <trkpt lat="43.96059" lon="7.21152">
        <ele>652</ele>
        <time>2019-05-11T12:33:25.000Z</time>
      </trkpt>
      <trkpt lat="43.96056" lon="7.2115">
        <ele>651.79998779297</ele>
        <time>2019-05-11T12:33:29.000Z</time>
      </trkpt>
      <trkpt lat="43.96056" lon="7.21149">
        <ele>651.59997558594</ele>
        <time>2019-05-11T12:33:31.000Z</time>
      </trkpt>
      <trkpt lat="43.96056" lon="7.21147">
        <ele>651.20001220703</ele>
        <time>2019-05-11T12:33:34.000Z</time>
      </trkpt>
      <trkpt lat="43.96056" lon="7.21144">
        <ele>650.20001220703</ele>
        <time>2019-05-11T12:33:38.000Z</time>
      </trkpt>
      <trkpt lat="43.96055" lon="7.21144">
        <ele>650</ele>
        <time>2019-05-11T12:33:39.000Z</time>
      </trkpt>
      <trkpt lat="43.96053" lon="7.21141">
        <ele>649.59997558594</ele>
        <time>2019-05-11T12:33:43.000Z</time>
      </trkpt>
      <trkpt lat="43.96051" lon="7.2114">
        <ele>649.79998779297</ele>
        <time>2019-05-11T12:33:47.000Z</time>
      </trkpt>
      <trkpt lat="43.96052" lon="7.21138">
        <ele>649.40002441406</ele>
        <time>2019-05-11T12:33:51.000Z</time>
      </trkpt>
      <trkpt lat="43.96053" lon="7.21138">
        <ele>649</ele>
        <time>2019-05-11T12:33:53.000Z</time>
      </trkpt>
      <trkpt lat="43.96052" lon="7.21137">
        <ele>648.59997558594</ele>
        <time>2019-05-11T12:33:55.000Z</time>
      </trkpt>
      <trkpt lat="43.96052" lon="7.21135">
        <ele>647.79998779297</ele>
        <time>2019-05-11T12:34:00.000Z</time>
      </trkpt>
      <trkpt lat="43.96052" lon="7.21136">
        <ele>647.59997558594</ele>
        <time>2019-05-11T12:34:03.000Z</time>
      </trkpt>
      <trkpt lat="43.96051" lon="7.21136">
        <ele>648.40002441406</ele>
        <time>2019-05-11T12:34:08.000Z</time>
      </trkpt>
      <trkpt lat="43.96052" lon="7.21135">
        <ele>649.79998779297</ele>
        <time>2019-05-11T12:34:11.000Z</time>
      </trkpt>
      <trkpt lat="43.96053" lon="7.21137">
        <ele>649</ele>
        <time>2019-05-11T12:34:15.000Z</time>
      </trkpt>
      <trkpt lat="43.96052" lon="7.21139">
        <ele>649.40002441406</ele>
        <time>2019-05-11T12:34:21.000Z</time>
      </trkpt>
      <trkpt lat="43.9605" lon="7.21139">
        <ele>649.40002441406</ele>
        <time>2019-05-11T12:34:27.000Z</time>
      </trkpt>
      <trkpt lat="43.96046" lon="7.21139">
        <ele>649.20001220703</ele>
        <time>2019-05-11T12:34:30.000Z</time>
      </trkpt>
      <trkpt lat="43.96041" lon="7.2114">
        <ele>649.40002441406</ele>
        <time>2019-05-11T12:34:33.000Z</time>
      </trkpt>
      <trkpt lat="43.96034" lon="7.2114">
        <ele>649.59997558594</ele>
        <time>2019-05-11T12:34:36.000Z</time>
      </trkpt>
      <trkpt lat="43.96028" lon="7.21139">
        <ele>649.40002441406</ele>
        <time>2019-05-11T12:34:38.000Z</time>
      </trkpt>
      <trkpt lat="43.9602" lon="7.21141">
        <ele>648.79998779297</ele>
        <time>2019-05-11T12:34:41.000Z</time>
      </trkpt>
      <trkpt lat="43.96018" lon="7.21142">
        <ele>648.59997558594</ele>
        <time>2019-05-11T12:34:42.000Z</time>
      </trkpt>
      <trkpt lat="43.96016" lon="7.21143">
        <ele>648.40002441406</ele>
        <time>2019-05-11T12:34:43.000Z</time>
      </trkpt>
      <trkpt lat="43.96015" lon="7.21144">
        <ele>648.79998779297</ele>
        <time>2019-05-11T12:34:46.000Z</time>
      </trkpt>
      <trkpt lat="43.9601" lon="7.21145">
        <ele>648.79998779297</ele>
        <time>2019-05-11T12:34:51.000Z</time>
      </trkpt>
      <trkpt lat="43.96003" lon="7.21149">
        <ele>648.59997558594</ele>
        <time>2019-05-11T12:34:58.000Z</time>
      </trkpt>
      <trkpt lat="43.95999" lon="7.21153">
        <ele>648.79998779297</ele>
        <time>2019-05-11T12:35:03.000Z</time>
      </trkpt>
      <trkpt lat="43.95998" lon="7.21155">
        <ele>649</ele>
        <time>2019-05-11T12:35:05.000Z</time>
      </trkpt>
      <trkpt lat="43.95994" lon="7.21157">
        <ele>649.79998779297</ele>
        <time>2019-05-11T12:35:10.000Z</time>
      </trkpt>
      <trkpt lat="43.95992" lon="7.21159">
        <ele>650.20001220703</ele>
        <time>2019-05-11T12:35:12.000Z</time>
      </trkpt>
      <trkpt lat="43.95988" lon="7.21162">
        <ele>650.59997558594</ele>
        <time>2019-05-11T12:35:17.000Z</time>
      </trkpt>
      <trkpt lat="43.95975" lon="7.21164">
        <ele>650.20001220703</ele>
        <time>2019-05-11T12:35:23.000Z</time>
      </trkpt>
      <trkpt lat="43.95971" lon="7.21166">
        <ele>648.59997558594</ele>
        <time>2019-05-11T12:35:28.000Z</time>
      </trkpt>
      <trkpt lat="43.95967" lon="7.21167">
        <ele>649</ele>
        <time>2019-05-11T12:35:35.000Z</time>
      </trkpt>
      <trkpt lat="43.95963" lon="7.21169">
        <ele>648</ele>
        <time>2019-05-11T12:35:41.000Z</time>
      </trkpt>
      <trkpt lat="43.9596" lon="7.2117">
        <ele>647.59997558594</ele>
        <time>2019-05-11T12:35:43.000Z</time>
      </trkpt>
      <trkpt lat="43.95952" lon="7.21171">
        <ele>647</ele>
        <time>2019-05-11T12:35:46.000Z</time>
      </trkpt>
      <trkpt lat="43.95948" lon="7.21172">
        <ele>646.59997558594</ele>
        <time>2019-05-11T12:35:48.000Z</time>
      </trkpt>
      <trkpt lat="43.95947" lon="7.21173">
        <ele>645.59997558594</ele>
        <time>2019-05-11T12:35:50.000Z</time>
      </trkpt>
      <trkpt lat="43.95946" lon="7.21173">
        <ele>645.20001220703</ele>
        <time>2019-05-11T12:35:51.000Z</time>
      </trkpt>
      <trkpt lat="43.95944" lon="7.21174">
        <ele>644.40002441406</ele>
        <time>2019-05-11T12:35:55.000Z</time>
      </trkpt>
      <trkpt lat="43.95941" lon="7.21175">
        <ele>644.40002441406</ele>
        <time>2019-05-11T12:35:59.000Z</time>
      </trkpt>
      <trkpt lat="43.95941" lon="7.21175">
        <ele>644.59997558594</ele>
        <time>2019-05-11T12:36:00.000Z</time>
      </trkpt>
      <trkpt lat="43.95936" lon="7.21178">
        <ele>644.59997558594</ele>
        <time>2019-05-11T12:36:07.000Z</time>
      </trkpt>
      <trkpt lat="43.95933" lon="7.2118">
        <ele>644</ele>
        <time>2019-05-11T12:36:12.000Z</time>
      </trkpt>
      <trkpt lat="43.95932" lon="7.21181">
        <ele>643.79998779297</ele>
        <time>2019-05-11T12:36:14.000Z</time>
      </trkpt>
      <trkpt lat="43.95924" lon="7.21186">
        <ele>643.40002441406</ele>
        <time>2019-05-11T12:36:21.000Z</time>
      </trkpt>
      <trkpt lat="43.95923" lon="7.21186">
        <ele>643</ele>
        <time>2019-05-11T12:36:23.000Z</time>
      </trkpt>
      <trkpt lat="43.95922" lon="7.21187">
        <ele>642.79998779297</ele>
        <time>2019-05-11T12:36:26.000Z</time>
      </trkpt>
      <trkpt lat="43.9592" lon="7.21188">
        <ele>642.79998779297</ele>
        <time>2019-05-11T12:36:28.000Z</time>
      </trkpt>
      <trkpt lat="43.95918" lon="7.21189">
        <ele>642.79998779297</ele>
        <time>2019-05-11T12:36:31.000Z</time>
      </trkpt>
      <trkpt lat="43.95914" lon="7.21191">
        <ele>643.20001220703</ele>
        <time>2019-05-11T12:36:38.000Z</time>
      </trkpt>
      <trkpt lat="43.95912" lon="7.21194">
        <ele>644.20001220703</ele>
        <time>2019-05-11T12:36:44.000Z</time>
      </trkpt>
      <trkpt lat="43.95911" lon="7.21195">
        <ele>644.40002441406</ele>
        <time>2019-05-11T12:36:45.000Z</time>
      </trkpt>
      <trkpt lat="43.95908" lon="7.21197">
        <ele>645.20001220703</ele>
        <time>2019-05-11T12:36:50.000Z</time>
      </trkpt>
      <trkpt lat="43.95905" lon="7.21198">
        <ele>645.79998779297</ele>
        <time>2019-05-11T12:36:54.000Z</time>
      </trkpt>
      <trkpt lat="43.95902" lon="7.21199">
        <ele>646.40002441406</ele>
        <time>2019-05-11T12:36:58.000Z</time>
      </trkpt>
      <trkpt lat="43.959" lon="7.21198">
        <ele>647</ele>
        <time>2019-05-11T12:37:01.000Z</time>
      </trkpt>
      <trkpt lat="43.95899" lon="7.21199">
        <ele>647.40002441406</ele>
        <time>2019-05-11T12:37:03.000Z</time>
      </trkpt>
      <trkpt lat="43.95896" lon="7.21201">
        <ele>648.20001220703</ele>
        <time>2019-05-11T12:37:08.000Z</time>
      </trkpt>
      <trkpt lat="43.95895" lon="7.21203">
        <ele>648.40002441406</ele>
        <time>2019-05-11T12:37:13.000Z</time>
      </trkpt>
      <trkpt lat="43.95895" lon="7.21203">
        <ele>648.40002441406</ele>
        <time>2019-05-11T12:37:15.000Z</time>
      </trkpt>
      <trkpt lat="43.95893" lon="7.21205">
        <ele>648.59997558594</ele>
        <time>2019-05-11T12:37:28.000Z</time>
      </trkpt>
      <trkpt lat="43.95891" lon="7.21205">
        <ele>648.79998779297</ele>
        <time>2019-05-11T12:37:35.000Z</time>
      </trkpt>
      <trkpt lat="43.95891" lon="7.21205">
        <ele>648.59997558594</ele>
        <time>2019-05-11T12:37:39.000Z</time>
      </trkpt>
      <trkpt lat="43.9589" lon="7.21206">
        <ele>648.40002441406</ele>
        <time>2019-05-11T12:37:49.000Z</time>
      </trkpt>
      <trkpt lat="43.95891" lon="7.21206">
        <ele>650.79998779297</ele>
        <time>2019-05-11T12:37:58.000Z</time>
      </trkpt>
      <trkpt lat="43.95892" lon="7.21206">
        <ele>650.79998779297</ele>
        <time>2019-05-11T12:38:01.000Z</time>
      </trkpt>
      <trkpt lat="43.95892" lon="7.21206">
        <ele>648.40002441406</ele>
        <time>2019-05-11T12:38:03.000Z</time>
      </trkpt>
      <trkpt lat="43.95891" lon="7.21206">
        <ele>648.40002441406</ele>
        <time>2019-05-11T12:38:09.000Z</time>
      </trkpt>
      <trkpt lat="43.95891" lon="7.21206">
        <ele>649.79998779297</ele>
        <time>2019-05-11T12:38:18.000Z</time>
      </trkpt>
      <trkpt lat="43.95891" lon="7.21206">
        <ele>648.59997558594</ele>
        <time>2019-05-11T12:38:20.000Z</time>
      </trkpt>
      <trkpt lat="43.95891" lon="7.21205">
        <ele>647.20001220703</ele>
        <time>2019-05-11T12:38:22.000Z</time>
      </trkpt>
      <trkpt lat="43.95891" lon="7.21204">
        <ele>647</ele>
        <time>2019-05-11T12:38:25.000Z</time>
      </trkpt>
      <trkpt lat="43.95893" lon="7.21204">
        <ele>646.79998779297</ele>
        <time>2019-05-11T12:38:31.000Z</time>
      </trkpt>
      <trkpt lat="43.95893" lon="7.21204">
        <ele>646</ele>
        <time>2019-05-11T12:38:38.000Z</time>
      </trkpt>
      <trkpt lat="43.95893" lon="7.21204">
        <ele>646</ele>
        <time>2019-05-11T12:38:40.000Z</time>
      </trkpt>
      <trkpt lat="43.95892" lon="7.21204">
        <ele>645.20001220703</ele>
        <time>2019-05-11T12:38:51.000Z</time>
      </trkpt>
      <trkpt lat="43.95892" lon="7.21204">
        <ele>645</ele>
        <time>2019-05-11T12:38:52.000Z</time>
      </trkpt>
      <trkpt lat="43.95892" lon="7.21205">
        <ele>644.79998779297</ele>
        <time>2019-05-11T12:39:06.000Z</time>
      </trkpt>
      <trkpt lat="43.95892" lon="7.21206">
        <ele>646.20001220703</ele>
        <time>2019-05-11T12:39:13.000Z</time>
      </trkpt>
      <trkpt lat="43.95892" lon="7.21206">
        <ele>644.59997558594</ele>
        <time>2019-05-11T12:39:18.000Z</time>
      </trkpt>
      <trkpt lat="43.95892" lon="7.21206">
        <ele>648</ele>
        <time>2019-05-11T12:39:20.000Z</time>
      </trkpt>
      <trkpt lat="43.95892" lon="7.21206">
        <ele>647</ele>
        <time>2019-05-11T12:39:22.000Z</time>
      </trkpt>
      <trkpt lat="43.95892" lon="7.21206">
        <ele>644.79998779297</ele>
        <time>2019-05-11T12:39:23.000Z</time>
      </trkpt>
      <trkpt lat="43.95892" lon="7.21206">
        <ele>641</ele>
        <time>2019-05-11T12:39:24.000Z</time>
      </trkpt>
      <trkpt lat="43.95892" lon="7.21206">
        <ele>633</ele>
        <time>2019-05-11T12:39:25.000Z</time>
      </trkpt>
      <trkpt lat="43.95892" lon="7.21206">
        <ele>628.20001220703</ele>
        <time>2019-05-11T12:39:26.000Z</time>
      </trkpt>
      <trkpt lat="43.95892" lon="7.21206">
        <ele>625.20001220703</ele>
        <time>2019-05-11T12:39:27.000Z</time>
      </trkpt>
      <trkpt lat="43.95891" lon="7.21206">
        <ele>624.20001220703</ele>
        <time>2019-05-11T12:39:28.000Z</time>
      </trkpt>
      <trkpt lat="43.95891" lon="7.21206">
        <ele>626.40002441406</ele>
        <time>2019-05-11T12:39:32.000Z</time>
      </trkpt>
      <trkpt lat="43.95891" lon="7.21206">
        <ele>627.20001220703</ele>
        <time>2019-05-11T12:39:33.000Z</time>
      </trkpt>
      <trkpt lat="43.95891" lon="7.21206">
        <ele>628.20001220703</ele>
        <time>2019-05-11T12:39:34.000Z</time>
      </trkpt>
      <trkpt lat="43.95891" lon="7.21206">
        <ele>626.79998779297</ele>
        <time>2019-05-11T12:39:36.000Z</time>
      </trkpt>
      <trkpt lat="43.95891" lon="7.21206">
        <ele>625.40002441406</ele>
        <time>2019-05-11T12:39:38.000Z</time>
      </trkpt>
      <trkpt lat="43.95891" lon="7.21206">
        <ele>623.79998779297</ele>
        <time>2019-05-11T12:39:45.000Z</time>
      </trkpt>
      <trkpt lat="43.95891" lon="7.21206">
        <ele>622.40002441406</ele>
        <time>2019-05-11T12:39:47.000Z</time>
      </trkpt>
      <trkpt lat="43.95891" lon="7.21206">
        <ele>618.40002441406</ele>
        <time>2019-05-11T12:39:48.000Z</time>
      </trkpt>
      <trkpt lat="43.95891" lon="7.21206">
        <ele>620.20001220703</ele>
        <time>2019-05-11T12:39:51.000Z</time>
      </trkpt>
      <trkpt lat="43.9589" lon="7.21207">
        <ele>621.20001220703</ele>
        <time>2019-05-11T12:39:52.000Z</time>
      </trkpt>
      <trkpt lat="43.9589" lon="7.21207">
        <ele>626.59997558594</ele>
        <time>2019-05-11T12:39:53.000Z</time>
      </trkpt>
      <trkpt lat="43.9589" lon="7.21207">
        <ele>629.20001220703</ele>
        <time>2019-05-11T12:39:54.000Z</time>
      </trkpt>
      <trkpt lat="43.9589" lon="7.21207">
        <ele>628</ele>
        <time>2019-05-11T12:39:56.000Z</time>
      </trkpt>
      <trkpt lat="43.95889" lon="7.21207">
        <ele>626</ele>
        <time>2019-05-11T12:39:58.000Z</time>
      </trkpt>
      <trkpt lat="43.95889" lon="7.21207">
        <ele>623.79998779297</ele>
        <time>2019-05-11T12:39:59.000Z</time>
      </trkpt>
      <trkpt lat="43.95889" lon="7.21207">
        <ele>626.59997558594</ele>
        <time>2019-05-11T12:40:01.000Z</time>
      </trkpt>
      <trkpt lat="43.95889" lon="7.21207">
        <ele>628</ele>
        <time>2019-05-11T12:40:05.000Z</time>
      </trkpt>
      <trkpt lat="43.95889" lon="7.21207">
        <ele>625.59997558594</ele>
        <time>2019-05-11T12:40:06.000Z</time>
      </trkpt>
      <trkpt lat="43.95889" lon="7.21207">
        <ele>625.40002441406</ele>
        <time>2019-05-11T12:40:07.000Z</time>
      </trkpt>
      <trkpt lat="43.9589" lon="7.21207">
        <ele>624.40002441406</ele>
        <time>2019-05-11T12:40:11.000Z</time>
      </trkpt>
      <trkpt lat="43.95891" lon="7.21208">
        <ele>627.20001220703</ele>
        <time>2019-05-11T12:40:15.000Z</time>
      </trkpt>
      <trkpt lat="43.95891" lon="7.21208">
        <ele>633.59997558594</ele>
        <time>2019-05-11T12:40:16.000Z</time>
      </trkpt>
      <trkpt lat="43.95892" lon="7.21208">
        <ele>642</ele>
        <time>2019-05-11T12:40:17.000Z</time>
      </trkpt>
      <trkpt lat="43.95892" lon="7.21208">
        <ele>647</ele>
        <time>2019-05-11T12:40:18.000Z</time>
      </trkpt>
      <trkpt lat="43.95892" lon="7.21208">
        <ele>651.59997558594</ele>
        <time>2019-05-11T12:40:19.000Z</time>
      </trkpt>
      <trkpt lat="43.95892" lon="7.21208">
        <ele>653.40002441406</ele>
        <time>2019-05-11T12:40:20.000Z</time>
      </trkpt>
      <trkpt lat="43.95892" lon="7.21208">
        <ele>651.79998779297</ele>
        <time>2019-05-11T12:40:21.000Z</time>
      </trkpt>
      <trkpt lat="43.95892" lon="7.21208">
        <ele>648.40002441406</ele>
        <time>2019-05-11T12:40:22.000Z</time>
      </trkpt>
      <trkpt lat="43.95893" lon="7.21208">
        <ele>648</ele>
        <time>2019-05-11T12:40:43.000Z</time>
      </trkpt>
      <trkpt lat="43.95893" lon="7.21209">
        <ele>647.40002441406</ele>
        <time>2019-05-11T12:40:49.000Z</time>
      </trkpt>
      <trkpt lat="43.95893" lon="7.21209">
        <ele>648.59997558594</ele>
        <time>2019-05-11T12:40:52.000Z</time>
      </trkpt>
      <trkpt lat="43.95893" lon="7.21209">
        <ele>649.59997558594</ele>
        <time>2019-05-11T12:40:54.000Z</time>
      </trkpt>
      <trkpt lat="43.95893" lon="7.21209">
        <ele>649</ele>
        <time>2019-05-11T12:40:55.000Z</time>
      </trkpt>
      <trkpt lat="43.95893" lon="7.21209">
        <ele>648.40002441406</ele>
        <time>2019-05-11T12:40:57.000Z</time>
      </trkpt>
      <trkpt lat="43.95893" lon="7.21209">
        <ele>647.20001220703</ele>
        <time>2019-05-11T12:40:59.000Z</time>
      </trkpt>
      <trkpt lat="43.95893" lon="7.21209">
        <ele>646.20001220703</ele>
        <time>2019-05-11T12:41:01.000Z</time>
      </trkpt>
      <trkpt lat="43.95893" lon="7.21209">
        <ele>645</ele>
        <time>2019-05-11T12:41:02.000Z</time>
      </trkpt>
      <trkpt lat="43.95893" lon="7.21209">
        <ele>643.79998779297</ele>
        <time>2019-05-11T12:41:05.000Z</time>
      </trkpt>
      <trkpt lat="43.95893" lon="7.21209">
        <ele>645.40002441406</ele>
        <time>2019-05-11T12:41:08.000Z</time>
      </trkpt>
      <trkpt lat="43.95893" lon="7.21209">
        <ele>646.20001220703</ele>
        <time>2019-05-11T12:41:11.000Z</time>
      </trkpt>
      <trkpt lat="43.95893" lon="7.21209">
        <ele>647.20001220703</ele>
        <time>2019-05-11T12:41:12.000Z</time>
      </trkpt>
      <trkpt lat="43.95893" lon="7.21209">
        <ele>648.40002441406</ele>
        <time>2019-05-11T12:41:14.000Z</time>
      </trkpt>
      <trkpt lat="43.95893" lon="7.21209">
        <ele>649.40002441406</ele>
        <time>2019-05-11T12:41:16.000Z</time>
      </trkpt>
      <trkpt lat="43.95893" lon="7.2121">
        <ele>649.79998779297</ele>
        <time>2019-05-11T12:41:20.000Z</time>
      </trkpt>
      <trkpt lat="43.95893" lon="7.2121">
        <ele>650.20001220703</ele>
        <time>2019-05-11T12:41:37.000Z</time>
      </trkpt>
      <trkpt lat="43.95892" lon="7.21211">
        <ele>652</ele>
        <time>2019-05-11T12:41:44.000Z</time>
      </trkpt>
      <trkpt lat="43.95891" lon="7.21212">
        <ele>650.59997558594</ele>
        <time>2019-05-11T12:41:50.000Z</time>
      </trkpt>
      <trkpt lat="43.95891" lon="7.21211">
        <ele>650</ele>
        <time>2019-05-11T12:41:56.000Z</time>
      </trkpt>
      <trkpt lat="43.95889" lon="7.21207">
        <ele>650.79998779297</ele>
        <time>2019-05-11T12:42:02.000Z</time>
      </trkpt>
      <trkpt lat="43.95887" lon="7.21205">
        <ele>650.79998779297</ele>
        <time>2019-05-11T12:42:08.000Z</time>
      </trkpt>
      <trkpt lat="43.95885" lon="7.21202">
        <ele>650.79998779297</ele>
        <time>2019-05-11T12:42:11.000Z</time>
      </trkpt>
      <trkpt lat="43.95882" lon="7.21198">
        <ele>650.59997558594</ele>
        <time>2019-05-11T12:42:14.000Z</time>
      </trkpt>
      <trkpt lat="43.95879" lon="7.21192">
        <ele>650.59997558594</ele>
        <time>2019-05-11T12:42:17.000Z</time>
      </trkpt>
      <trkpt lat="43.95874" lon="7.21182">
        <ele>651</ele>
        <time>2019-05-11T12:42:21.000Z</time>
      </trkpt>
      <trkpt lat="43.95869" lon="7.21176">
        <ele>651.59997558594</ele>
        <time>2019-05-11T12:42:25.000Z</time>
      </trkpt>
      <trkpt lat="43.95867" lon="7.21175">
        <ele>651.79998779297</ele>
        <time>2019-05-11T12:42:26.000Z</time>
      </trkpt>
      <trkpt lat="43.95863" lon="7.21173">
        <ele>652.79998779297</ele>
        <time>2019-05-11T12:42:29.000Z</time>
      </trkpt>
      <trkpt lat="43.95862" lon="7.21171">
        <ele>653.20001220703</ele>
        <time>2019-05-11T12:42:31.000Z</time>
      </trkpt>
      <trkpt lat="43.95858" lon="7.21169">
        <ele>654</ele>
        <time>2019-05-11T12:42:35.000Z</time>
      </trkpt>
      <trkpt lat="43.95845" lon="7.21161">
        <ele>654.59997558594</ele>
        <time>2019-05-11T12:42:42.000Z</time>
      </trkpt>
      <trkpt lat="43.95838" lon="7.21155">
        <ele>655.20001220703</ele>
        <time>2019-05-11T12:42:45.000Z</time>
      </trkpt>
      <trkpt lat="43.9583" lon="7.21151">
        <ele>655.40002441406</ele>
        <time>2019-05-11T12:42:48.000Z</time>
      </trkpt>
      <trkpt lat="43.95814" lon="7.21144">
        <ele>655</ele>
        <time>2019-05-11T12:42:54.000Z</time>
      </trkpt>
      <trkpt lat="43.95794" lon="7.21139">
        <ele>654.59997558594</ele>
        <time>2019-05-11T12:43:00.000Z</time>
      </trkpt>
      <trkpt lat="43.95786" lon="7.21139">
        <ele>654</ele>
        <time>2019-05-11T12:43:02.000Z</time>
      </trkpt>
      <trkpt lat="43.95776" lon="7.21137">
        <ele>653.59997558594</ele>
        <time>2019-05-11T12:43:05.000Z</time>
      </trkpt>
      <trkpt lat="43.95772" lon="7.21136">
        <ele>654</ele>
        <time>2019-05-11T12:43:06.000Z</time>
      </trkpt>
      <trkpt lat="43.95754" lon="7.2113">
        <ele>653.59997558594</ele>
        <time>2019-05-11T12:43:10.000Z</time>
      </trkpt>
      <trkpt lat="43.9575" lon="7.21128">
        <ele>652.79998779297</ele>
        <time>2019-05-11T12:43:11.000Z</time>
      </trkpt>
      <trkpt lat="43.95744" lon="7.21124">
        <ele>651.40002441406</ele>
        <time>2019-05-11T12:43:13.000Z</time>
      </trkpt>
      <trkpt lat="43.95739" lon="7.21121">
        <ele>650.20001220703</ele>
        <time>2019-05-11T12:43:15.000Z</time>
      </trkpt>
      <trkpt lat="43.95737" lon="7.2112">
        <ele>649.20001220703</ele>
        <time>2019-05-11T12:43:16.000Z</time>
      </trkpt>
      <trkpt lat="43.95736" lon="7.21117">
        <ele>648.59997558594</ele>
        <time>2019-05-11T12:43:17.000Z</time>
      </trkpt>
      <trkpt lat="43.95736" lon="7.21114">
        <ele>647.20001220703</ele>
        <time>2019-05-11T12:43:18.000Z</time>
      </trkpt>
      <trkpt lat="43.95735" lon="7.21112">
        <ele>646</ele>
        <time>2019-05-11T12:43:19.000Z</time>
      </trkpt>
      <trkpt lat="43.95732" lon="7.21109">
        <ele>644.59997558594</ele>
        <time>2019-05-11T12:43:21.000Z</time>
      </trkpt>
      <trkpt lat="43.95728" lon="7.21107">
        <ele>644.40002441406</ele>
        <time>2019-05-11T12:43:22.000Z</time>
      </trkpt>
      <trkpt lat="43.95718" lon="7.21098">
        <ele>643.40002441406</ele>
        <time>2019-05-11T12:43:25.000Z</time>
      </trkpt>
      <trkpt lat="43.95716" lon="7.21095">
        <ele>642.59997558594</ele>
        <time>2019-05-11T12:43:26.000Z</time>
      </trkpt>
      <trkpt lat="43.95716" lon="7.21091">
        <ele>641.79998779297</ele>
        <time>2019-05-11T12:43:27.000Z</time>
      </trkpt>
      <trkpt lat="43.95715" lon="7.21081">
        <ele>640.40002441406</ele>
        <time>2019-05-11T12:43:29.000Z</time>
      </trkpt>
      <trkpt lat="43.95709" lon="7.21072">
        <ele>639.20001220703</ele>
        <time>2019-05-11T12:43:31.000Z</time>
      </trkpt>
      <trkpt lat="43.95705" lon="7.21069">
        <ele>638.40002441406</ele>
        <time>2019-05-11T12:43:32.000Z</time>
      </trkpt>
      <trkpt lat="43.95701" lon="7.21068">
        <ele>637.40002441406</ele>
        <time>2019-05-11T12:43:33.000Z</time>
      </trkpt>
      <trkpt lat="43.95696" lon="7.21062">
        <ele>635.59997558594</ele>
        <time>2019-05-11T12:43:35.000Z</time>
      </trkpt>
      <trkpt lat="43.95693" lon="7.21051">
        <ele>633.79998779297</ele>
        <time>2019-05-11T12:43:37.000Z</time>
      </trkpt>
      <trkpt lat="43.9569" lon="7.21046">
        <ele>633.59997558594</ele>
        <time>2019-05-11T12:43:38.000Z</time>
      </trkpt>
      <trkpt lat="43.95683" lon="7.21036">
        <ele>632.79998779297</ele>
        <time>2019-05-11T12:43:40.000Z</time>
      </trkpt>
      <trkpt lat="43.95679" lon="7.2103">
        <ele>632.59997558594</ele>
        <time>2019-05-11T12:43:41.000Z</time>
      </trkpt>
      <trkpt lat="43.95676" lon="7.21025">
        <ele>632.20001220703</ele>
        <time>2019-05-11T12:43:42.000Z</time>
      </trkpt>
      <trkpt lat="43.95669" lon="7.21015">
        <ele>631.59997558594</ele>
        <time>2019-05-11T12:43:44.000Z</time>
      </trkpt>
      <trkpt lat="43.95663" lon="7.21005">
        <ele>631.40002441406</ele>
        <time>2019-05-11T12:43:46.000Z</time>
      </trkpt>
      <trkpt lat="43.95657" lon="7.20998">
        <ele>630.59997558594</ele>
        <time>2019-05-11T12:43:48.000Z</time>
      </trkpt>
      <trkpt lat="43.95654" lon="7.20994">
        <ele>630.40002441406</ele>
        <time>2019-05-11T12:43:49.000Z</time>
      </trkpt>
      <trkpt lat="43.95651" lon="7.2099">
        <ele>630</ele>
        <time>2019-05-11T12:43:50.000Z</time>
      </trkpt>
      <trkpt lat="43.95639" lon="7.20973">
        <ele>629.59997558594</ele>
        <time>2019-05-11T12:43:53.000Z</time>
      </trkpt>
      <trkpt lat="43.95632" lon="7.20963">
        <ele>629.59997558594</ele>
        <time>2019-05-11T12:43:55.000Z</time>
      </trkpt>
      <trkpt lat="43.95624" lon="7.20956">
        <ele>627.79998779297</ele>
        <time>2019-05-11T12:43:57.000Z</time>
      </trkpt>
      <trkpt lat="43.95621" lon="7.20952">
        <ele>627.79998779297</ele>
        <time>2019-05-11T12:43:58.000Z</time>
      </trkpt>
      <trkpt lat="43.95618" lon="7.20948">
        <ele>627.20001220703</ele>
        <time>2019-05-11T12:43:59.000Z</time>
      </trkpt>
      <trkpt lat="43.95616" lon="7.20943">
        <ele>625.40002441406</ele>
        <time>2019-05-11T12:44:00.000Z</time>
      </trkpt>
      <trkpt lat="43.95611" lon="7.20935">
        <ele>625</ele>
        <time>2019-05-11T12:44:02.000Z</time>
      </trkpt>
      <trkpt lat="43.95609" lon="7.20931">
        <ele>624.40002441406</ele>
        <time>2019-05-11T12:44:03.000Z</time>
      </trkpt>
      <trkpt lat="43.95603" lon="7.20919">
        <ele>623</ele>
        <time>2019-05-11T12:44:06.000Z</time>
      </trkpt>
      <trkpt lat="43.95601" lon="7.20915">
        <ele>621.40002441406</ele>
        <time>2019-05-11T12:44:07.000Z</time>
      </trkpt>
      <trkpt lat="43.95598" lon="7.2091">
        <ele>621.59997558594</ele>
        <time>2019-05-11T12:44:08.000Z</time>
      </trkpt>
      <trkpt lat="43.95589" lon="7.20896">
        <ele>620.59997558594</ele>
        <time>2019-05-11T12:44:11.000Z</time>
      </trkpt>
      <trkpt lat="43.95586" lon="7.20892">
        <ele>620.40002441406</ele>
        <time>2019-05-11T12:44:12.000Z</time>
      </trkpt>
      <trkpt lat="43.95577" lon="7.20879">
        <ele>620.40002441406</ele>
        <time>2019-05-11T12:44:15.000Z</time>
      </trkpt>
      <trkpt lat="43.95575" lon="7.20875">
        <ele>620</ele>
        <time>2019-05-11T12:44:16.000Z</time>
      </trkpt>
      <trkpt lat="43.95566" lon="7.20866">
        <ele>619</ele>
        <time>2019-05-11T12:44:19.000Z</time>
      </trkpt>
      <trkpt lat="43.95563" lon="7.20862">
        <ele>618.79998779297</ele>
        <time>2019-05-11T12:44:20.000Z</time>
      </trkpt>
      <trkpt lat="43.95557" lon="7.20856">
        <ele>618</ele>
        <time>2019-05-11T12:44:22.000Z</time>
      </trkpt>
      <trkpt lat="43.9555" lon="7.2085">
        <ele>618</ele>
        <time>2019-05-11T12:44:24.000Z</time>
      </trkpt>
      <trkpt lat="43.95546" lon="7.20848">
        <ele>617.59997558594</ele>
        <time>2019-05-11T12:44:25.000Z</time>
      </trkpt>
      <trkpt lat="43.95539" lon="7.2084">
        <ele>616.40002441406</ele>
        <time>2019-05-11T12:44:27.000Z</time>
      </trkpt>
      <trkpt lat="43.95536" lon="7.20835">
        <ele>615.40002441406</ele>
        <time>2019-05-11T12:44:28.000Z</time>
      </trkpt>
      <trkpt lat="43.95534" lon="7.20823">
        <ele>614.79998779297</ele>
        <time>2019-05-11T12:44:30.000Z</time>
      </trkpt>
      <trkpt lat="43.95531" lon="7.20808">
        <ele>615</ele>
        <time>2019-05-11T12:44:33.000Z</time>
      </trkpt>
      <trkpt lat="43.95529" lon="7.20798">
        <ele>615</ele>
        <time>2019-05-11T12:44:35.000Z</time>
      </trkpt>
      <trkpt lat="43.95527" lon="7.20789">
        <ele>613.79998779297</ele>
        <time>2019-05-11T12:44:37.000Z</time>
      </trkpt>
      <trkpt lat="43.95524" lon="7.20781">
        <ele>612.59997558594</ele>
        <time>2019-05-11T12:44:39.000Z</time>
      </trkpt>
      <trkpt lat="43.95525" lon="7.20773">
        <ele>611.59997558594</ele>
        <time>2019-05-11T12:44:41.000Z</time>
      </trkpt>
      <trkpt lat="43.95525" lon="7.2077">
        <ele>611.40002441406</ele>
        <time>2019-05-11T12:44:42.000Z</time>
      </trkpt>
      <trkpt lat="43.95525" lon="7.20768">
        <ele>611.20001220703</ele>
        <time>2019-05-11T12:44:44.000Z</time>
      </trkpt>
      <trkpt lat="43.95527" lon="7.20767">
        <ele>610.20001220703</ele>
        <time>2019-05-11T12:44:47.000Z</time>
      </trkpt>
      <trkpt lat="43.9553" lon="7.20766">
        <ele>609.79998779297</ele>
        <time>2019-05-11T12:44:51.000Z</time>
      </trkpt>
      <trkpt lat="43.9553" lon="7.20764">
        <ele>609</ele>
        <time>2019-05-11T12:44:54.000Z</time>
      </trkpt>
      <trkpt lat="43.95531" lon="7.20764">
        <ele>608.20001220703</ele>
        <time>2019-05-11T12:44:56.000Z</time>
      </trkpt>
      <trkpt lat="43.95531" lon="7.20764">
        <ele>607.79998779297</ele>
        <time>2019-05-11T12:44:57.000Z</time>
      </trkpt>
      <trkpt lat="43.95531" lon="7.20762">
        <ele>607.40002441406</ele>
        <time>2019-05-11T12:45:05.000Z</time>
      </trkpt>
      <trkpt lat="43.95531" lon="7.20762">
        <ele>607.59997558594</ele>
        <time>2019-05-11T12:45:14.000Z</time>
      </trkpt>
      <trkpt lat="43.9553" lon="7.20759">
        <ele>607.59997558594</ele>
        <time>2019-05-11T12:45:15.000Z</time>
      </trkpt>
      <trkpt lat="43.95526" lon="7.20752">
        <ele>607.20001220703</ele>
        <time>2019-05-11T12:45:18.000Z</time>
      </trkpt>
      <trkpt lat="43.95525" lon="7.20751">
        <ele>607.20001220703</ele>
        <time>2019-05-11T12:45:19.000Z</time>
      </trkpt>
      <trkpt lat="43.95524" lon="7.2075">
        <ele>606.59997558594</ele>
        <time>2019-05-11T12:45:20.000Z</time>
      </trkpt>
      <trkpt lat="43.95525" lon="7.20747">
        <ele>605.59997558594</ele>
        <time>2019-05-11T12:45:22.000Z</time>
      </trkpt>
      <trkpt lat="43.95524" lon="7.20746">
        <ele>604.40002441406</ele>
        <time>2019-05-11T12:45:26.000Z</time>
      </trkpt>
      <trkpt lat="43.95519" lon="7.20748">
        <ele>603.59997558594</ele>
        <time>2019-05-11T12:45:29.000Z</time>
      </trkpt>
      <trkpt lat="43.95517" lon="7.20747">
        <ele>603.40002441406</ele>
        <time>2019-05-11T12:45:30.000Z</time>
      </trkpt>
      <trkpt lat="43.95521" lon="7.20743">
        <ele>602.79998779297</ele>
        <time>2019-05-11T12:45:33.000Z</time>
      </trkpt>
      <trkpt lat="43.95523" lon="7.20739">
        <ele>602</ele>
        <time>2019-05-11T12:45:35.000Z</time>
      </trkpt>
      <trkpt lat="43.95521" lon="7.20734">
        <ele>601.20001220703</ele>
        <time>2019-05-11T12:45:37.000Z</time>
      </trkpt>
      <trkpt lat="43.95519" lon="7.20729">
        <ele>600.59997558594</ele>
        <time>2019-05-11T12:45:38.000Z</time>
      </trkpt>
      <trkpt lat="43.95515" lon="7.20719">
        <ele>599.40002441406</ele>
        <time>2019-05-11T12:45:40.000Z</time>
      </trkpt>
      <trkpt lat="43.95511" lon="7.20715">
        <ele>598.40002441406</ele>
        <time>2019-05-11T12:45:42.000Z</time>
      </trkpt>
      <trkpt lat="43.95509" lon="7.20714">
        <ele>598.20001220703</ele>
        <time>2019-05-11T12:45:43.000Z</time>
      </trkpt>
      <trkpt lat="43.95506" lon="7.20712">
        <ele>597.79998779297</ele>
        <time>2019-05-11T12:45:44.000Z</time>
      </trkpt>
      <trkpt lat="43.95504" lon="7.20709">
        <ele>597.40002441406</ele>
        <time>2019-05-11T12:45:46.000Z</time>
      </trkpt>
      <trkpt lat="43.95508" lon="7.20703">
        <ele>596.40002441406</ele>
        <time>2019-05-11T12:45:49.000Z</time>
      </trkpt>
      <trkpt lat="43.95511" lon="7.20701">
        <ele>595.79998779297</ele>
        <time>2019-05-11T12:45:50.000Z</time>
      </trkpt>
      <trkpt lat="43.95514" lon="7.207">
        <ele>595.40002441406</ele>
        <time>2019-05-11T12:45:51.000Z</time>
      </trkpt>
      <trkpt lat="43.95519" lon="7.20698">
        <ele>595</ele>
        <time>2019-05-11T12:45:53.000Z</time>
      </trkpt>
      <trkpt lat="43.9552" lon="7.20696">
        <ele>594.79998779297</ele>
        <time>2019-05-11T12:45:54.000Z</time>
      </trkpt>
      <trkpt lat="43.95518" lon="7.20693">
        <ele>593.79998779297</ele>
        <time>2019-05-11T12:45:56.000Z</time>
      </trkpt>
      <trkpt lat="43.95518" lon="7.20691">
        <ele>593.40002441406</ele>
        <time>2019-05-11T12:45:57.000Z</time>
      </trkpt>
      <trkpt lat="43.9552" lon="7.2069">
        <ele>592.40002441406</ele>
        <time>2019-05-11T12:45:59.000Z</time>
      </trkpt>
      <trkpt lat="43.95521" lon="7.2069">
        <ele>592.20001220703</ele>
        <time>2019-05-11T12:46:00.000Z</time>
      </trkpt>
      <trkpt lat="43.95523" lon="7.20688">
        <ele>591.20001220703</ele>
        <time>2019-05-11T12:46:03.000Z</time>
      </trkpt>
      <trkpt lat="43.95523" lon="7.20688">
        <ele>590.59997558594</ele>
        <time>2019-05-11T12:46:04.000Z</time>
      </trkpt>
      <trkpt lat="43.95524" lon="7.20687">
        <ele>590</ele>
        <time>2019-05-11T12:46:06.000Z</time>
      </trkpt>
      <trkpt lat="43.95525" lon="7.20686">
        <ele>589.40002441406</ele>
        <time>2019-05-11T12:46:12.000Z</time>
      </trkpt>
      <trkpt lat="43.95527" lon="7.20687">
        <ele>589.20001220703</ele>
        <time>2019-05-11T12:46:13.000Z</time>
      </trkpt>
      <trkpt lat="43.95527" lon="7.20687">
        <ele>589</ele>
        <time>2019-05-11T12:46:14.000Z</time>
      </trkpt>
      <trkpt lat="43.95529" lon="7.20686">
        <ele>588.40002441406</ele>
        <time>2019-05-11T12:46:16.000Z</time>
      </trkpt>
      <trkpt lat="43.95529" lon="7.20685">
        <ele>588.20001220703</ele>
        <time>2019-05-11T12:46:17.000Z</time>
      </trkpt>
      <trkpt lat="43.95529" lon="7.20682">
        <ele>587.59997558594</ele>
        <time>2019-05-11T12:46:19.000Z</time>
      </trkpt>
      <trkpt lat="43.95528" lon="7.20677">
        <ele>587</ele>
        <time>2019-05-11T12:46:21.000Z</time>
      </trkpt>
      <trkpt lat="43.95527" lon="7.20674">
        <ele>586.40002441406</ele>
        <time>2019-05-11T12:46:22.000Z</time>
      </trkpt>
      <trkpt lat="43.95526" lon="7.20669">
        <ele>585.59997558594</ele>
        <time>2019-05-11T12:46:24.000Z</time>
      </trkpt>
      <trkpt lat="43.95524" lon="7.20666">
        <ele>585</ele>
        <time>2019-05-11T12:46:25.000Z</time>
      </trkpt>
      <trkpt lat="43.95523" lon="7.20664">
        <ele>584.59997558594</ele>
        <time>2019-05-11T12:46:26.000Z</time>
      </trkpt>
      <trkpt lat="43.95522" lon="7.20662">
        <ele>584</ele>
        <time>2019-05-11T12:46:27.000Z</time>
      </trkpt>
      <trkpt lat="43.95521" lon="7.20661">
        <ele>583.59997558594</ele>
        <time>2019-05-11T12:46:28.000Z</time>
      </trkpt>
      <trkpt lat="43.95521" lon="7.20659">
        <ele>582.59997558594</ele>
        <time>2019-05-11T12:46:30.000Z</time>
      </trkpt>
      <trkpt lat="43.95522" lon="7.20657">
        <ele>581.59997558594</ele>
        <time>2019-05-11T12:46:34.000Z</time>
      </trkpt>
      <trkpt lat="43.95522" lon="7.20656">
        <ele>581.40002441406</ele>
        <time>2019-05-11T12:46:35.000Z</time>
      </trkpt>
      <trkpt lat="43.95523" lon="7.20652">
        <ele>580.59997558594</ele>
        <time>2019-05-11T12:46:39.000Z</time>
      </trkpt>
      <trkpt lat="43.95522" lon="7.2065">
        <ele>579.59997558594</ele>
        <time>2019-05-11T12:46:44.000Z</time>
      </trkpt>
      <trkpt lat="43.95519" lon="7.20643">
        <ele>579.59997558594</ele>
        <time>2019-05-11T12:46:47.000Z</time>
      </trkpt>
      <trkpt lat="43.95518" lon="7.2064">
        <ele>579.40002441406</ele>
        <time>2019-05-11T12:46:48.000Z</time>
      </trkpt>
      <trkpt lat="43.95518" lon="7.20635">
        <ele>578.59997558594</ele>
        <time>2019-05-11T12:46:50.000Z</time>
      </trkpt>
      <trkpt lat="43.95517" lon="7.20633">
        <ele>578</ele>
        <time>2019-05-11T12:46:52.000Z</time>
      </trkpt>
      <trkpt lat="43.95517" lon="7.20632">
        <ele>577.40002441406</ele>
        <time>2019-05-11T12:46:53.000Z</time>
      </trkpt>
      <trkpt lat="43.95516" lon="7.20627">
        <ele>576.79998779297</ele>
        <time>2019-05-11T12:46:56.000Z</time>
      </trkpt>
      <trkpt lat="43.95517" lon="7.20627">
        <ele>576.20001220703</ele>
        <time>2019-05-11T12:46:57.000Z</time>
      </trkpt>
      <trkpt lat="43.95522" lon="7.20629">
        <ele>575.59997558594</ele>
        <time>2019-05-11T12:47:00.000Z</time>
      </trkpt>
      <trkpt lat="43.95522" lon="7.20628">
        <ele>575</ele>
        <time>2019-05-11T12:47:02.000Z</time>
      </trkpt>
      <trkpt lat="43.95523" lon="7.20627">
        <ele>574.59997558594</ele>
        <time>2019-05-11T12:47:03.000Z</time>
      </trkpt>
      <trkpt lat="43.95523" lon="7.20627">
        <ele>573.79998779297</ele>
        <time>2019-05-11T12:47:07.000Z</time>
      </trkpt>
      <trkpt lat="43.95522" lon="7.20626">
        <ele>573.79998779297</ele>
        <time>2019-05-11T12:47:08.000Z</time>
      </trkpt>
      <trkpt lat="43.95522" lon="7.20625">
        <ele>573.79998779297</ele>
        <time>2019-05-11T12:47:09.000Z</time>
      </trkpt>
      <trkpt lat="43.9552" lon="7.20621">
        <ele>573</ele>
        <time>2019-05-11T12:47:14.000Z</time>
      </trkpt>
      <trkpt lat="43.95519" lon="7.2062">
        <ele>572.79998779297</ele>
        <time>2019-05-11T12:47:15.000Z</time>
      </trkpt>
      <trkpt lat="43.95515" lon="7.20613">
        <ele>572.20001220703</ele>
        <time>2019-05-11T12:47:18.000Z</time>
      </trkpt>
      <trkpt lat="43.95513" lon="7.20612">
        <ele>572</ele>
        <time>2019-05-11T12:47:19.000Z</time>
      </trkpt>
      <trkpt lat="43.9551" lon="7.2061">
        <ele>571.59997558594</ele>
        <time>2019-05-11T12:47:21.000Z</time>
      </trkpt>
      <trkpt lat="43.95511" lon="7.2061">
        <ele>571.20001220703</ele>
        <time>2019-05-11T12:47:22.000Z</time>
      </trkpt>
      <trkpt lat="43.95507" lon="7.20609">
        <ele>570.40002441406</ele>
        <time>2019-05-11T12:47:25.000Z</time>
      </trkpt>
      <trkpt lat="43.95505" lon="7.20608">
        <ele>570.20001220703</ele>
        <time>2019-05-11T12:47:27.000Z</time>
      </trkpt>
      <trkpt lat="43.95497" lon="7.20607">
        <ele>569.20001220703</ele>
        <time>2019-05-11T12:47:30.000Z</time>
      </trkpt>
      <trkpt lat="43.95491" lon="7.20608">
        <ele>568.59997558594</ele>
        <time>2019-05-11T12:47:32.000Z</time>
      </trkpt>
      <trkpt lat="43.95489" lon="7.20609">
        <ele>567.79998779297</ele>
        <time>2019-05-11T12:47:33.000Z</time>
      </trkpt>
      <trkpt lat="43.95486" lon="7.20608">
        <ele>567</ele>
        <time>2019-05-11T12:47:35.000Z</time>
      </trkpt>
      <trkpt lat="43.95485" lon="7.20606">
        <ele>566.59997558594</ele>
        <time>2019-05-11T12:47:36.000Z</time>
      </trkpt>
      <trkpt lat="43.95486" lon="7.20602">
        <ele>565.59997558594</ele>
        <time>2019-05-11T12:47:38.000Z</time>
      </trkpt>
      <trkpt lat="43.95492" lon="7.20596">
        <ele>564.59997558594</ele>
        <time>2019-05-11T12:47:41.000Z</time>
      </trkpt>
      <trkpt lat="43.95497" lon="7.20591">
        <ele>563.40002441406</ele>
        <time>2019-05-11T12:47:43.000Z</time>
      </trkpt>
      <trkpt lat="43.955" lon="7.20587">
        <ele>562.40002441406</ele>
        <time>2019-05-11T12:47:45.000Z</time>
      </trkpt>
      <trkpt lat="43.95501" lon="7.20586">
        <ele>561.59997558594</ele>
        <time>2019-05-11T12:47:46.000Z</time>
      </trkpt>
      <trkpt lat="43.95509" lon="7.20584">
        <ele>560.59997558594</ele>
        <time>2019-05-11T12:47:49.000Z</time>
      </trkpt>
      <trkpt lat="43.95514" lon="7.20583">
        <ele>559.40002441406</ele>
        <time>2019-05-11T12:47:51.000Z</time>
      </trkpt>
      <trkpt lat="43.95517" lon="7.20578">
        <ele>558.20001220703</ele>
        <time>2019-05-11T12:47:53.000Z</time>
      </trkpt>
      <trkpt lat="43.95518" lon="7.20574">
        <ele>558</ele>
        <time>2019-05-11T12:47:54.000Z</time>
      </trkpt>
      <trkpt lat="43.95519" lon="7.2057">
        <ele>557.20001220703</ele>
        <time>2019-05-11T12:47:55.000Z</time>
      </trkpt>
      <trkpt lat="43.9552" lon="7.20563">
        <ele>556.40002441406</ele>
        <time>2019-05-11T12:47:57.000Z</time>
      </trkpt>
      <trkpt lat="43.9552" lon="7.20561">
        <ele>556</ele>
        <time>2019-05-11T12:47:58.000Z</time>
      </trkpt>
      <trkpt lat="43.95519" lon="7.20553">
        <ele>554.59997558594</ele>
        <time>2019-05-11T12:48:01.000Z</time>
      </trkpt>
      <trkpt lat="43.95517" lon="7.20547">
        <ele>553.59997558594</ele>
        <time>2019-05-11T12:48:03.000Z</time>
      </trkpt>
      <trkpt lat="43.95515" lon="7.20538">
        <ele>553.20001220703</ele>
        <time>2019-05-11T12:48:05.000Z</time>
      </trkpt>
      <trkpt lat="43.95511" lon="7.20522">
        <ele>552.59997558594</ele>
        <time>2019-05-11T12:48:09.000Z</time>
      </trkpt>
      <trkpt lat="43.95509" lon="7.2052">
        <ele>552</ele>
        <time>2019-05-11T12:48:10.000Z</time>
      </trkpt>
      <trkpt lat="43.95508" lon="7.20514">
        <ele>550.20001220703</ele>
        <time>2019-05-11T12:48:12.000Z</time>
      </trkpt>
      <trkpt lat="43.95508" lon="7.20512">
        <ele>548.79998779297</ele>
        <time>2019-05-11T12:48:13.000Z</time>
      </trkpt>
      <trkpt lat="43.95507" lon="7.20511">
        <ele>548.20001220703</ele>
        <time>2019-05-11T12:48:17.000Z</time>
      </trkpt>
      <trkpt lat="43.95508" lon="7.2051">
        <ele>548</ele>
        <time>2019-05-11T12:48:23.000Z</time>
      </trkpt>
      <trkpt lat="43.95508" lon="7.20507">
        <ele>547.79998779297</ele>
        <time>2019-05-11T12:48:27.000Z</time>
      </trkpt>
      <trkpt lat="43.95508" lon="7.20506">
        <ele>547.79998779297</ele>
        <time>2019-05-11T12:48:28.000Z</time>
      </trkpt>
      <trkpt lat="43.95508" lon="7.20506">
        <ele>547.79998779297</ele>
        <time>2019-05-11T12:48:29.000Z</time>
      </trkpt>
      <trkpt lat="43.95507" lon="7.20504">
        <ele>548.59997558594</ele>
        <time>2019-05-11T12:48:35.000Z</time>
      </trkpt>
      <trkpt lat="43.95506" lon="7.20502">
        <ele>548.40002441406</ele>
        <time>2019-05-11T12:48:37.000Z</time>
      </trkpt>
      <trkpt lat="43.95506" lon="7.20499">
        <ele>548.20001220703</ele>
        <time>2019-05-11T12:48:40.000Z</time>
      </trkpt>
      <trkpt lat="43.95504" lon="7.20497">
        <ele>548.79998779297</ele>
        <time>2019-05-11T12:48:53.000Z</time>
      </trkpt>
      <trkpt lat="43.95504" lon="7.20498">
        <ele>548.59997558594</ele>
        <time>2019-05-11T12:48:59.000Z</time>
      </trkpt>
      <trkpt lat="43.95503" lon="7.20498">
        <ele>548.40002441406</ele>
        <time>2019-05-11T12:49:05.000Z</time>
      </trkpt>
      <trkpt lat="43.95503" lon="7.20498">
        <ele>548.79998779297</ele>
        <time>2019-05-11T12:49:07.000Z</time>
      </trkpt>
      <trkpt lat="43.95503" lon="7.20498">
        <ele>548.40002441406</ele>
        <time>2019-05-11T12:49:13.000Z</time>
      </trkpt>
      <trkpt lat="43.95502" lon="7.20496">
        <ele>548.59997558594</ele>
        <time>2019-05-11T12:49:18.000Z</time>
      </trkpt>
      <trkpt lat="43.95501" lon="7.205">
        <ele>548.59997558594</ele>
        <time>2019-05-11T12:49:25.000Z</time>
      </trkpt>
      <trkpt lat="43.95499" lon="7.20505">
        <ele>548.79998779297</ele>
        <time>2019-05-11T12:49:33.000Z</time>
      </trkpt>
      <trkpt lat="43.955" lon="7.20505">
        <ele>548.59997558594</ele>
        <time>2019-05-11T12:49:39.000Z</time>
      </trkpt>
      <trkpt lat="43.95499" lon="7.20498">
        <ele>548.59997558594</ele>
        <time>2019-05-11T12:49:45.000Z</time>
      </trkpt>
      <trkpt lat="43.95498" lon="7.20489">
        <ele>549.20001220703</ele>
        <time>2019-05-11T12:49:54.000Z</time>
      </trkpt>
      <trkpt lat="43.95496" lon="7.20482">
        <ele>549.20001220703</ele>
        <time>2019-05-11T12:50:00.000Z</time>
      </trkpt>
      <trkpt lat="43.95495" lon="7.2048">
        <ele>549.40002441406</ele>
        <time>2019-05-11T12:50:02.000Z</time>
      </trkpt>
      <trkpt lat="43.9549" lon="7.20478">
        <ele>550.20001220703</ele>
        <time>2019-05-11T12:50:08.000Z</time>
      </trkpt>
      <trkpt lat="43.9549" lon="7.20477">
        <ele>550.20001220703</ele>
        <time>2019-05-11T12:50:09.000Z</time>
      </trkpt>
      <trkpt lat="43.95486" lon="7.20474">
        <ele>551.20001220703</ele>
        <time>2019-05-11T12:50:14.000Z</time>
      </trkpt>
      <trkpt lat="43.95485" lon="7.20471">
        <ele>551.79998779297</ele>
        <time>2019-05-11T12:50:17.000Z</time>
      </trkpt>
      <trkpt lat="43.95484" lon="7.2047">
        <ele>552.20001220703</ele>
        <time>2019-05-11T12:50:19.000Z</time>
      </trkpt>
      <trkpt lat="43.95482" lon="7.20468">
        <ele>552.79998779297</ele>
        <time>2019-05-11T12:50:21.000Z</time>
      </trkpt>
      <trkpt lat="43.95481" lon="7.20465">
        <ele>553.40002441406</ele>
        <time>2019-05-11T12:50:24.000Z</time>
      </trkpt>
      <trkpt lat="43.95478" lon="7.2046">
        <ele>554.40002441406</ele>
        <time>2019-05-11T12:50:31.000Z</time>
      </trkpt>
      <trkpt lat="43.95479" lon="7.20459">
        <ele>554.40002441406</ele>
        <time>2019-05-11T12:50:36.000Z</time>
      </trkpt>
      <trkpt lat="43.9548" lon="7.20457">
        <ele>554.59997558594</ele>
        <time>2019-05-11T12:50:43.000Z</time>
      </trkpt>
      <trkpt lat="43.95475" lon="7.20455">
        <ele>554.40002441406</ele>
        <time>2019-05-11T12:50:47.000Z</time>
      </trkpt>
      <trkpt lat="43.95475" lon="7.20458">
        <ele>554.40002441406</ele>
        <time>2019-05-11T12:50:49.000Z</time>
      </trkpt>
      <trkpt lat="43.95476" lon="7.20461">
        <ele>554.59997558594</ele>
        <time>2019-05-11T12:50:51.000Z</time>
      </trkpt>
      <trkpt lat="43.95476" lon="7.20463">
        <ele>555.40002441406</ele>
        <time>2019-05-11T12:50:53.000Z</time>
      </trkpt>
      <trkpt lat="43.95474" lon="7.20464">
        <ele>556.20001220703</ele>
        <time>2019-05-11T12:50:56.000Z</time>
      </trkpt>
      <trkpt lat="43.95474" lon="7.20464">
        <ele>556.40002441406</ele>
        <time>2019-05-11T12:50:57.000Z</time>
      </trkpt>
      <trkpt lat="43.9547" lon="7.20464">
        <ele>557.40002441406</ele>
        <time>2019-05-11T12:51:02.000Z</time>
      </trkpt>
      <trkpt lat="43.9547" lon="7.20464">
        <ele>557.59997558594</ele>
        <time>2019-05-11T12:51:03.000Z</time>
      </trkpt>
      <trkpt lat="43.95466" lon="7.20465">
        <ele>558.79998779297</ele>
        <time>2019-05-11T12:51:07.000Z</time>
      </trkpt>
      <trkpt lat="43.95465" lon="7.20466">
        <ele>559</ele>
        <time>2019-05-11T12:51:09.000Z</time>
      </trkpt>
      <trkpt lat="43.9546" lon="7.20467">
        <ele>559.79998779297</ele>
        <time>2019-05-11T12:51:14.000Z</time>
      </trkpt>
      <trkpt lat="43.95458" lon="7.20466">
        <ele>559.79998779297</ele>
        <time>2019-05-11T12:51:16.000Z</time>
      </trkpt>
      <trkpt lat="43.95456" lon="7.20468">
        <ele>560.20001220703</ele>
        <time>2019-05-11T12:51:20.000Z</time>
      </trkpt>
      <trkpt lat="43.95454" lon="7.2047">
        <ele>561</ele>
        <time>2019-05-11T12:51:23.000Z</time>
      </trkpt>
      <trkpt lat="43.95453" lon="7.2047">
        <ele>561.20001220703</ele>
        <time>2019-05-11T12:51:24.000Z</time>
      </trkpt>
      <trkpt lat="43.95452" lon="7.2047">
        <ele>561.40002441406</ele>
        <time>2019-05-11T12:51:25.000Z</time>
      </trkpt>
      <trkpt lat="43.95452" lon="7.20471">
        <ele>562</ele>
        <time>2019-05-11T12:51:29.000Z</time>
      </trkpt>
      <trkpt lat="43.95452" lon="7.20471">
        <ele>562.40002441406</ele>
        <time>2019-05-11T12:51:30.000Z</time>
      </trkpt>
      <trkpt lat="43.95451" lon="7.20472">
        <ele>562.59997558594</ele>
        <time>2019-05-11T12:51:35.000Z</time>
      </trkpt>
      <trkpt lat="43.9545" lon="7.20473">
        <ele>563.20001220703</ele>
        <time>2019-05-11T12:51:38.000Z</time>
      </trkpt>
      <trkpt lat="43.95449" lon="7.20474">
        <ele>563.79998779297</ele>
        <time>2019-05-11T12:51:41.000Z</time>
      </trkpt>
      <trkpt lat="43.95449" lon="7.20475">
        <ele>564.20001220703</ele>
        <time>2019-05-11T12:51:43.000Z</time>
      </trkpt>
      <trkpt lat="43.95445" lon="7.20476">
        <ele>565.40002441406</ele>
        <time>2019-05-11T12:51:49.000Z</time>
      </trkpt>
      <trkpt lat="43.95442" lon="7.20478">
        <ele>566.40002441406</ele>
        <time>2019-05-11T12:51:55.000Z</time>
      </trkpt>
      <trkpt lat="43.9544" lon="7.2048">
        <ele>567.59997558594</ele>
        <time>2019-05-11T12:52:01.000Z</time>
      </trkpt>
      <trkpt lat="43.95439" lon="7.20481">
        <ele>568</ele>
        <time>2019-05-11T12:52:03.000Z</time>
      </trkpt>
      <trkpt lat="43.95437" lon="7.20481">
        <ele>568.59997558594</ele>
        <time>2019-05-11T12:52:06.000Z</time>
      </trkpt>
      <trkpt lat="43.95435" lon="7.20483">
        <ele>569.79998779297</ele>
        <time>2019-05-11T12:52:10.000Z</time>
      </trkpt>
      <trkpt lat="43.95433" lon="7.20484">
        <ele>570.59997558594</ele>
        <time>2019-05-11T12:52:13.000Z</time>
      </trkpt>
      <trkpt lat="43.95432" lon="7.20486">
        <ele>570.79998779297</ele>
        <time>2019-05-11T12:52:15.000Z</time>
      </trkpt>
      <trkpt lat="43.95431" lon="7.20487">
        <ele>570.79998779297</ele>
        <time>2019-05-11T12:52:16.000Z</time>
      </trkpt>
      <trkpt lat="43.9543" lon="7.20487">
        <ele>571.59997558594</ele>
        <time>2019-05-11T12:52:19.000Z</time>
      </trkpt>
      <trkpt lat="43.95431" lon="7.20487">
        <ele>572</ele>
        <time>2019-05-11T12:52:21.000Z</time>
      </trkpt>
      <trkpt lat="43.9543" lon="7.20488">
        <ele>572</ele>
        <time>2019-05-11T12:52:23.000Z</time>
      </trkpt>
      <trkpt lat="43.9543" lon="7.20489">
        <ele>572</ele>
        <time>2019-05-11T12:52:24.000Z</time>
      </trkpt>
      <trkpt lat="43.95426" lon="7.20494">
        <ele>572.59997558594</ele>
        <time>2019-05-11T12:52:30.000Z</time>
      </trkpt>
      <trkpt lat="43.9542" lon="7.20498">
        <ele>573.20001220703</ele>
        <time>2019-05-11T12:52:37.000Z</time>
      </trkpt>
      <trkpt lat="43.95419" lon="7.20499">
        <ele>574</ele>
        <time>2019-05-11T12:52:40.000Z</time>
      </trkpt>
      <trkpt lat="43.95418" lon="7.205">
        <ele>574.20001220703</ele>
        <time>2019-05-11T12:52:41.000Z</time>
      </trkpt>
      <trkpt lat="43.95417" lon="7.20501">
        <ele>574.40002441406</ele>
        <time>2019-05-11T12:52:42.000Z</time>
      </trkpt>
      <trkpt lat="43.95415" lon="7.20504">
        <ele>574.40002441406</ele>
        <time>2019-05-11T12:52:44.000Z</time>
      </trkpt>
      <trkpt lat="43.95407" lon="7.20517">
        <ele>575</ele>
        <time>2019-05-11T12:52:51.000Z</time>
      </trkpt>
      <trkpt lat="43.95407" lon="7.20519">
        <ele>575.20001220703</ele>
        <time>2019-05-11T12:52:52.000Z</time>
      </trkpt>
      <trkpt lat="43.95405" lon="7.20527">
        <ele>576.40002441406</ele>
        <time>2019-05-11T12:52:55.000Z</time>
      </trkpt>
      <trkpt lat="43.95404" lon="7.20529">
        <ele>576.59997558594</ele>
        <time>2019-05-11T12:52:56.000Z</time>
      </trkpt>
      <trkpt lat="43.95404" lon="7.20532">
        <ele>577.59997558594</ele>
        <time>2019-05-11T12:52:58.000Z</time>
      </trkpt>
      <trkpt lat="43.95402" lon="7.20537">
        <ele>578.59997558594</ele>
        <time>2019-05-11T12:53:01.000Z</time>
      </trkpt>
      <trkpt lat="43.95401" lon="7.20538">
        <ele>578.79998779297</ele>
        <time>2019-05-11T12:53:02.000Z</time>
      </trkpt>
      <trkpt lat="43.95398" lon="7.20542">
        <ele>580</ele>
        <time>2019-05-11T12:53:05.000Z</time>
      </trkpt>
      <trkpt lat="43.95393" lon="7.20546">
        <ele>581.20001220703</ele>
        <time>2019-05-11T12:53:09.000Z</time>
      </trkpt>
      <trkpt lat="43.95392" lon="7.20547">
        <ele>581.40002441406</ele>
        <time>2019-05-11T12:53:10.000Z</time>
      </trkpt>
      <trkpt lat="43.95389" lon="7.20551">
        <ele>582.40002441406</ele>
        <time>2019-05-11T12:53:13.000Z</time>
      </trkpt>
      <trkpt lat="43.95387" lon="7.20553">
        <ele>582.79998779297</ele>
        <time>2019-05-11T12:53:16.000Z</time>
      </trkpt>
      <trkpt lat="43.95383" lon="7.20556">
        <ele>583.40002441406</ele>
        <time>2019-05-11T12:53:20.000Z</time>
      </trkpt>
      <trkpt lat="43.95381" lon="7.20558">
        <ele>583.59997558594</ele>
        <time>2019-05-11T12:53:22.000Z</time>
      </trkpt>
      <trkpt lat="43.95379" lon="7.20559">
        <ele>583.59997558594</ele>
        <time>2019-05-11T12:53:24.000Z</time>
      </trkpt>
      <trkpt lat="43.95375" lon="7.20563">
        <ele>584.40002441406</ele>
        <time>2019-05-11T12:53:29.000Z</time>
      </trkpt>
      <trkpt lat="43.95374" lon="7.20564">
        <ele>584.79998779297</ele>
        <time>2019-05-11T12:53:30.000Z</time>
      </trkpt>
      <trkpt lat="43.95373" lon="7.20564">
        <ele>585</ele>
        <time>2019-05-11T12:53:31.000Z</time>
      </trkpt>
      <trkpt lat="43.9537" lon="7.20566">
        <ele>585.79998779297</ele>
        <time>2019-05-11T12:53:34.000Z</time>
      </trkpt>
      <trkpt lat="43.95368" lon="7.20567">
        <ele>586</ele>
        <time>2019-05-11T12:53:36.000Z</time>
      </trkpt>
      <trkpt lat="43.95364" lon="7.2057">
        <ele>586.20001220703</ele>
        <time>2019-05-11T12:53:42.000Z</time>
      </trkpt>
      <trkpt lat="43.95362" lon="7.20573">
        <ele>586.59997558594</ele>
        <time>2019-05-11T12:53:45.000Z</time>
      </trkpt>
      <trkpt lat="43.95361" lon="7.20575">
        <ele>586.59997558594</ele>
        <time>2019-05-11T12:53:47.000Z</time>
      </trkpt>
      <trkpt lat="43.95359" lon="7.20576">
        <ele>587</ele>
        <time>2019-05-11T12:53:49.000Z</time>
      </trkpt>
      <trkpt lat="43.95356" lon="7.20581">
        <ele>587.79998779297</ele>
        <time>2019-05-11T12:53:55.000Z</time>
      </trkpt>
      <trkpt lat="43.95355" lon="7.20582">
        <ele>588</ele>
        <time>2019-05-11T12:53:56.000Z</time>
      </trkpt>
      <trkpt lat="43.95353" lon="7.20585">
        <ele>589</ele>
        <time>2019-05-11T12:54:01.000Z</time>
      </trkpt>
      <trkpt lat="43.95352" lon="7.20588">
        <ele>590.20001220703</ele>
        <time>2019-05-11T12:54:06.000Z</time>
      </trkpt>
      <trkpt lat="43.9535" lon="7.20589">
        <ele>590.40002441406</ele>
        <time>2019-05-11T12:54:08.000Z</time>
      </trkpt>
      <trkpt lat="43.95348" lon="7.20591">
        <ele>591.20001220703</ele>
        <time>2019-05-11T12:54:13.000Z</time>
      </trkpt>
      <trkpt lat="43.95348" lon="7.20592">
        <ele>591.40002441406</ele>
        <time>2019-05-11T12:54:14.000Z</time>
      </trkpt>
      <trkpt lat="43.95344" lon="7.20594">
        <ele>592.20001220703</ele>
        <time>2019-05-11T12:54:19.000Z</time>
      </trkpt>
      <trkpt lat="43.95343" lon="7.20595">
        <ele>592.40002441406</ele>
        <time>2019-05-11T12:54:20.000Z</time>
      </trkpt>
      <trkpt lat="43.95338" lon="7.20599">
        <ele>593.40002441406</ele>
        <time>2019-05-11T12:54:27.000Z</time>
      </trkpt>
      <trkpt lat="43.95336" lon="7.206">
        <ele>593.59997558594</ele>
        <time>2019-05-11T12:54:29.000Z</time>
      </trkpt>
      <trkpt lat="43.95334" lon="7.20602">
        <ele>594</ele>
        <time>2019-05-11T12:54:33.000Z</time>
      </trkpt>
      <trkpt lat="43.95332" lon="7.20604">
        <ele>594.40002441406</ele>
        <time>2019-05-11T12:54:36.000Z</time>
      </trkpt>
      <trkpt lat="43.95331" lon="7.20607">
        <ele>595</ele>
        <time>2019-05-11T12:54:39.000Z</time>
      </trkpt>
      <trkpt lat="43.95331" lon="7.20608">
        <ele>595.40002441406</ele>
        <time>2019-05-11T12:54:42.000Z</time>
      </trkpt>
      <trkpt lat="43.9533" lon="7.20614">
        <ele>596.59997558594</ele>
        <time>2019-05-11T12:54:47.000Z</time>
      </trkpt>
      <trkpt lat="43.95331" lon="7.20619">
        <ele>597.79998779297</ele>
        <time>2019-05-11T12:54:51.000Z</time>
      </trkpt>
      <trkpt lat="43.95331" lon="7.20624">
        <ele>599</ele>
        <time>2019-05-11T12:54:55.000Z</time>
      </trkpt>
      <trkpt lat="43.95331" lon="7.2063">
        <ele>600</ele>
        <time>2019-05-11T12:54:59.000Z</time>
      </trkpt>
      <trkpt lat="43.95331" lon="7.20633">
        <ele>600.79998779297</ele>
        <time>2019-05-11T12:55:02.000Z</time>
      </trkpt>
      <trkpt lat="43.9533" lon="7.20635">
        <ele>601.20001220703</ele>
        <time>2019-05-11T12:55:04.000Z</time>
      </trkpt>
      <trkpt lat="43.95328" lon="7.20638">
        <ele>601.59997558594</ele>
        <time>2019-05-11T12:55:07.000Z</time>
      </trkpt>
      <trkpt lat="43.95325" lon="7.20641">
        <ele>602.20001220703</ele>
        <time>2019-05-11T12:55:10.000Z</time>
      </trkpt>
      <trkpt lat="43.95324" lon="7.20644">
        <ele>603</ele>
        <time>2019-05-11T12:55:13.000Z</time>
      </trkpt>
      <trkpt lat="43.95322" lon="7.20647">
        <ele>603.40002441406</ele>
        <time>2019-05-11T12:55:16.000Z</time>
      </trkpt>
      <trkpt lat="43.9532" lon="7.20651">
        <ele>604.20001220703</ele>
        <time>2019-05-11T12:55:20.000Z</time>
      </trkpt>
      <trkpt lat="43.9532" lon="7.20655">
        <ele>604.40002441406</ele>
        <time>2019-05-11T12:55:23.000Z</time>
      </trkpt>
      <trkpt lat="43.95321" lon="7.20661">
        <ele>605.40002441406</ele>
        <time>2019-05-11T12:55:28.000Z</time>
      </trkpt>
      <trkpt lat="43.95321" lon="7.20662">
        <ele>605.59997558594</ele>
        <time>2019-05-11T12:55:29.000Z</time>
      </trkpt>
      <trkpt lat="43.95323" lon="7.20664">
        <ele>606</ele>
        <time>2019-05-11T12:55:31.000Z</time>
      </trkpt>
      <trkpt lat="43.95325" lon="7.20667">
        <ele>606.59997558594</ele>
        <time>2019-05-11T12:55:36.000Z</time>
      </trkpt>
      <trkpt lat="43.95326" lon="7.20668">
        <ele>606.79998779297</ele>
        <time>2019-05-11T12:55:38.000Z</time>
      </trkpt>
      <trkpt lat="43.95326" lon="7.20669">
        <ele>606.79998779297</ele>
        <time>2019-05-11T12:55:39.000Z</time>
      </trkpt>
      <trkpt lat="43.95326" lon="7.20674">
        <ele>607</ele>
        <time>2019-05-11T12:55:43.000Z</time>
      </trkpt>
      <trkpt lat="43.95324" lon="7.20678">
        <ele>607.79998779297</ele>
        <time>2019-05-11T12:55:46.000Z</time>
      </trkpt>
      <trkpt lat="43.95322" lon="7.20681">
        <ele>608.59997558594</ele>
        <time>2019-05-11T12:55:50.000Z</time>
      </trkpt>
      <trkpt lat="43.95321" lon="7.20681">
        <ele>608.79998779297</ele>
        <time>2019-05-11T12:55:51.000Z</time>
      </trkpt>
      <trkpt lat="43.95316" lon="7.20684">
        <ele>609.79998779297</ele>
        <time>2019-05-11T12:55:56.000Z</time>
      </trkpt>
      <trkpt lat="43.95314" lon="7.20688">
        <ele>610</ele>
        <time>2019-05-11T12:55:59.000Z</time>
      </trkpt>
      <trkpt lat="43.9531" lon="7.20691">
        <ele>610.59997558594</ele>
        <time>2019-05-11T12:56:06.000Z</time>
      </trkpt>
      <trkpt lat="43.95308" lon="7.20691">
        <ele>611</ele>
        <time>2019-05-11T12:56:10.000Z</time>
      </trkpt>
      <trkpt lat="43.95304" lon="7.20694">
        <ele>611.20001220703</ele>
        <time>2019-05-11T12:56:15.000Z</time>
      </trkpt>
      <trkpt lat="43.95298" lon="7.20697">
        <ele>612.20001220703</ele>
        <time>2019-05-11T12:56:20.000Z</time>
      </trkpt>
      <trkpt lat="43.95295" lon="7.20696">
        <ele>612.59997558594</ele>
        <time>2019-05-11T12:56:22.000Z</time>
      </trkpt>
      <trkpt lat="43.9529" lon="7.20696">
        <ele>613.40002441406</ele>
        <time>2019-05-11T12:56:25.000Z</time>
      </trkpt>
      <trkpt lat="43.95284" lon="7.20697">
        <ele>613.79998779297</ele>
        <time>2019-05-11T12:56:29.000Z</time>
      </trkpt>
      <trkpt lat="43.95277" lon="7.20701">
        <ele>614.40002441406</ele>
        <time>2019-05-11T12:56:35.000Z</time>
      </trkpt>
      <trkpt lat="43.95275" lon="7.20701">
        <ele>614.40002441406</ele>
        <time>2019-05-11T12:56:36.000Z</time>
      </trkpt>
      <trkpt lat="43.95266" lon="7.20701">
        <ele>615.59997558594</ele>
        <time>2019-05-11T12:56:41.000Z</time>
      </trkpt>
      <trkpt lat="43.95265" lon="7.20701">
        <ele>616</ele>
        <time>2019-05-11T12:56:42.000Z</time>
      </trkpt>
      <trkpt lat="43.95261" lon="7.20701">
        <ele>616.79998779297</ele>
        <time>2019-05-11T12:56:44.000Z</time>
      </trkpt>
      <trkpt lat="43.95256" lon="7.20701">
        <ele>617.79998779297</ele>
        <time>2019-05-11T12:56:47.000Z</time>
      </trkpt>
      <trkpt lat="43.95251" lon="7.20703">
        <ele>618</ele>
        <time>2019-05-11T12:56:50.000Z</time>
      </trkpt>
      <trkpt lat="43.95237" lon="7.20714">
        <ele>618.20001220703</ele>
        <time>2019-05-11T12:56:56.000Z</time>
      </trkpt>
      <trkpt lat="43.95226" lon="7.20717">
        <ele>617.79998779297</ele>
        <time>2019-05-11T12:57:00.000Z</time>
      </trkpt>
      <trkpt lat="43.95215" lon="7.20729">
        <ele>617.20001220703</ele>
        <time>2019-05-11T12:57:04.000Z</time>
      </trkpt>
      <trkpt lat="43.95207" lon="7.20741">
        <ele>616.40002441406</ele>
        <time>2019-05-11T12:57:07.000Z</time>
      </trkpt>
      <trkpt lat="43.95203" lon="7.20742">
        <ele>616.40002441406</ele>
        <time>2019-05-11T12:57:08.000Z</time>
      </trkpt>
      <trkpt lat="43.95193" lon="7.20743">
        <ele>615.40002441406</ele>
        <time>2019-05-11T12:57:10.000Z</time>
      </trkpt>
      <trkpt lat="43.95188" lon="7.20743">
        <ele>615.20001220703</ele>
        <time>2019-05-11T12:57:11.000Z</time>
      </trkpt>
      <trkpt lat="43.95183" lon="7.20744">
        <ele>615</ele>
        <time>2019-05-11T12:57:12.000Z</time>
      </trkpt>
      <trkpt lat="43.95174" lon="7.20753">
        <ele>614.40002441406</ele>
        <time>2019-05-11T12:57:14.000Z</time>
      </trkpt>
      <trkpt lat="43.95171" lon="7.20757">
        <ele>613.79998779297</ele>
        <time>2019-05-11T12:57:15.000Z</time>
      </trkpt>
      <trkpt lat="43.95164" lon="7.20766">
        <ele>613</ele>
        <time>2019-05-11T12:57:17.000Z</time>
      </trkpt>
      <trkpt lat="43.95156" lon="7.20775">
        <ele>613</ele>
        <time>2019-05-11T12:57:19.000Z</time>
      </trkpt>
      <trkpt lat="43.95153" lon="7.20781">
        <ele>613</ele>
        <time>2019-05-11T12:57:20.000Z</time>
      </trkpt>
      <trkpt lat="43.95146" lon="7.20787">
        <ele>612.40002441406</ele>
        <time>2019-05-11T12:57:22.000Z</time>
      </trkpt>
      <trkpt lat="43.95135" lon="7.20786">
        <ele>611.40002441406</ele>
        <time>2019-05-11T12:57:24.000Z</time>
      </trkpt>
      <trkpt lat="43.95129" lon="7.20785">
        <ele>610.79998779297</ele>
        <time>2019-05-11T12:57:25.000Z</time>
      </trkpt>
      <trkpt lat="43.95122" lon="7.20783">
        <ele>610.20001220703</ele>
        <time>2019-05-11T12:57:26.000Z</time>
      </trkpt>
      <trkpt lat="43.9511" lon="7.20778">
        <ele>608.59997558594</ele>
        <time>2019-05-11T12:57:28.000Z</time>
      </trkpt>
      <trkpt lat="43.95104" lon="7.20775">
        <ele>607.40002441406</ele>
        <time>2019-05-11T12:57:29.000Z</time>
      </trkpt>
      <trkpt lat="43.95093" lon="7.20765">
        <ele>606</ele>
        <time>2019-05-11T12:57:31.000Z</time>
      </trkpt>
      <trkpt lat="43.95084" lon="7.20752">
        <ele>604.59997558594</ele>
        <time>2019-05-11T12:57:33.000Z</time>
      </trkpt>
      <trkpt lat="43.95081" lon="7.20745">
        <ele>604.20001220703</ele>
        <time>2019-05-11T12:57:34.000Z</time>
      </trkpt>
      <trkpt lat="43.95078" lon="7.20738">
        <ele>603.59997558594</ele>
        <time>2019-05-11T12:57:35.000Z</time>
      </trkpt>
      <trkpt lat="43.95072" lon="7.20727">
        <ele>602.59997558594</ele>
        <time>2019-05-11T12:57:37.000Z</time>
      </trkpt>
      <trkpt lat="43.9507" lon="7.2072">
        <ele>602.40002441406</ele>
        <time>2019-05-11T12:57:38.000Z</time>
      </trkpt>
      <trkpt lat="43.95066" lon="7.20714">
        <ele>602.40002441406</ele>
        <time>2019-05-11T12:57:39.000Z</time>
      </trkpt>
      <trkpt lat="43.95057" lon="7.20693">
        <ele>602.20001220703</ele>
        <time>2019-05-11T12:57:42.000Z</time>
      </trkpt>
      <trkpt lat="43.95045" lon="7.20663">
        <ele>602.20001220703</ele>
        <time>2019-05-11T12:57:47.000Z</time>
      </trkpt>
      <trkpt lat="43.95043" lon="7.20658">
        <ele>602.40002441406</ele>
        <time>2019-05-11T12:57:48.000Z</time>
      </trkpt>
      <trkpt lat="43.95032" lon="7.20642">
        <ele>602.79998779297</ele>
        <time>2019-05-11T12:57:52.000Z</time>
      </trkpt>
      <trkpt lat="43.9502" lon="7.20634">
        <ele>603.40002441406</ele>
        <time>2019-05-11T12:57:55.000Z</time>
      </trkpt>
      <trkpt lat="43.95008" lon="7.20624">
        <ele>603.79998779297</ele>
        <time>2019-05-11T12:57:58.000Z</time>
      </trkpt>
      <trkpt lat="43.94994" lon="7.20608">
        <ele>602.79998779297</ele>
        <time>2019-05-11T12:58:02.000Z</time>
      </trkpt>
      <trkpt lat="43.94991" lon="7.20603">
        <ele>602.59997558594</ele>
        <time>2019-05-11T12:58:03.000Z</time>
      </trkpt>
      <trkpt lat="43.94978" lon="7.20584">
        <ele>603</ele>
        <time>2019-05-11T12:58:08.000Z</time>
      </trkpt>
      <trkpt lat="43.94975" lon="7.20579">
        <ele>603.20001220703</ele>
        <time>2019-05-11T12:58:09.000Z</time>
      </trkpt>
      <trkpt lat="43.94964" lon="7.20564">
        <ele>603.59997558594</ele>
        <time>2019-05-11T12:58:12.000Z</time>
      </trkpt>
      <trkpt lat="43.94953" lon="7.20548">
        <ele>602</ele>
        <time>2019-05-11T12:58:15.000Z</time>
      </trkpt>
      <trkpt lat="43.94949" lon="7.20536">
        <ele>600.40002441406</ele>
        <time>2019-05-11T12:58:17.000Z</time>
      </trkpt>
      <trkpt lat="43.94947" lon="7.20517">
        <ele>599.20001220703</ele>
        <time>2019-05-11T12:58:20.000Z</time>
      </trkpt>
      <trkpt lat="43.94947" lon="7.20511">
        <ele>599.59997558594</ele>
        <time>2019-05-11T12:58:21.000Z</time>
      </trkpt>
      <trkpt lat="43.94948" lon="7.20503">
        <ele>600.59997558594</ele>
        <time>2019-05-11T12:58:23.000Z</time>
      </trkpt>
      <trkpt lat="43.94947" lon="7.20498">
        <ele>601.40002441406</ele>
        <time>2019-05-11T12:58:25.000Z</time>
      </trkpt>
      <trkpt lat="43.94944" lon="7.20495">
        <ele>601.79998779297</ele>
        <time>2019-05-11T12:58:27.000Z</time>
      </trkpt>
      <trkpt lat="43.94939" lon="7.20495">
        <ele>602</ele>
        <time>2019-05-11T12:58:29.000Z</time>
      </trkpt>
      <trkpt lat="43.94931" lon="7.20494">
        <ele>603</ele>
        <time>2019-05-11T12:58:32.000Z</time>
      </trkpt>
      <trkpt lat="43.94919" lon="7.2049">
        <ele>603.79998779297</ele>
        <time>2019-05-11T12:58:36.000Z</time>
      </trkpt>
      <trkpt lat="43.94913" lon="7.20487">
        <ele>604.20001220703</ele>
        <time>2019-05-11T12:58:38.000Z</time>
      </trkpt>
      <trkpt lat="43.94906" lon="7.20481">
        <ele>605.40002441406</ele>
        <time>2019-05-11T12:58:41.000Z</time>
      </trkpt>
      <trkpt lat="43.94904" lon="7.20479">
        <ele>605.79998779297</ele>
        <time>2019-05-11T12:58:42.000Z</time>
      </trkpt>
      <trkpt lat="43.94901" lon="7.20473">
        <ele>606.40002441406</ele>
        <time>2019-05-11T12:58:45.000Z</time>
      </trkpt>
      <trkpt lat="43.949" lon="7.20469">
        <ele>607</ele>
        <time>2019-05-11T12:58:47.000Z</time>
      </trkpt>
      <trkpt lat="43.94898" lon="7.20463">
        <ele>607.59997558594</ele>
        <time>2019-05-11T12:58:50.000Z</time>
      </trkpt>
      <trkpt lat="43.94896" lon="7.20458">
        <ele>607.40002441406</ele>
        <time>2019-05-11T12:58:53.000Z</time>
      </trkpt>
      <trkpt lat="43.94892" lon="7.20451">
        <ele>608.20001220703</ele>
        <time>2019-05-11T12:58:58.000Z</time>
      </trkpt>
      <trkpt lat="43.94892" lon="7.2045">
        <ele>609</ele>
        <time>2019-05-11T12:59:00.000Z</time>
      </trkpt>
      <trkpt lat="43.9489" lon="7.20447">
        <ele>609.59997558594</ele>
        <time>2019-05-11T12:59:03.000Z</time>
      </trkpt>
      <trkpt lat="43.94889" lon="7.20445">
        <ele>610</ele>
        <time>2019-05-11T12:59:05.000Z</time>
      </trkpt>
      <trkpt lat="43.94888" lon="7.20445">
        <ele>610.59997558594</ele>
        <time>2019-05-11T12:59:07.000Z</time>
      </trkpt>
      <trkpt lat="43.94888" lon="7.20444">
        <ele>610.79998779297</ele>
        <time>2019-05-11T12:59:08.000Z</time>
      </trkpt>
      <trkpt lat="43.94887" lon="7.20442">
        <ele>611</ele>
        <time>2019-05-11T12:59:10.000Z</time>
      </trkpt>
      <trkpt lat="43.94882" lon="7.20433">
        <ele>612.20001220703</ele>
        <time>2019-05-11T12:59:15.000Z</time>
      </trkpt>
      <trkpt lat="43.94879" lon="7.20427">
        <ele>613.40002441406</ele>
        <time>2019-05-11T12:59:18.000Z</time>
      </trkpt>
      <trkpt lat="43.94878" lon="7.20419">
        <ele>613.79998779297</ele>
        <time>2019-05-11T12:59:21.000Z</time>
      </trkpt>
      <trkpt lat="43.9488" lon="7.20397">
        <ele>613.59997558594</ele>
        <time>2019-05-11T12:59:27.000Z</time>
      </trkpt>
      <trkpt lat="43.9488" lon="7.20386">
        <ele>614.59997558594</ele>
        <time>2019-05-11T12:59:31.000Z</time>
      </trkpt>
      <trkpt lat="43.94879" lon="7.20385">
        <ele>615</ele>
        <time>2019-05-11T12:59:32.000Z</time>
      </trkpt>
      <trkpt lat="43.94875" lon="7.20384">
        <ele>615.79998779297</ele>
        <time>2019-05-11T12:59:34.000Z</time>
      </trkpt>
      <trkpt lat="43.94869" lon="7.2038">
        <ele>616</ele>
        <time>2019-05-11T12:59:37.000Z</time>
      </trkpt>
      <trkpt lat="43.94867" lon="7.20377">
        <ele>616</ele>
        <time>2019-05-11T12:59:38.000Z</time>
      </trkpt>
      <trkpt lat="43.94857" lon="7.20374">
        <ele>616.59997558594</ele>
        <time>2019-05-11T12:59:42.000Z</time>
      </trkpt>
      <trkpt lat="43.94838" lon="7.20366">
        <ele>616.59997558594</ele>
        <time>2019-05-11T12:59:48.000Z</time>
      </trkpt>
      <trkpt lat="43.94823" lon="7.20365">
        <ele>616.79998779297</ele>
        <time>2019-05-11T12:59:52.000Z</time>
      </trkpt>
      <trkpt lat="43.94818" lon="7.20364">
        <ele>617</ele>
        <time>2019-05-11T12:59:53.000Z</time>
      </trkpt>
      <trkpt lat="43.9481" lon="7.2036">
        <ele>616.40002441406</ele>
        <time>2019-05-11T12:59:55.000Z</time>
      </trkpt>
      <trkpt lat="43.94806" lon="7.20356">
        <ele>615.79998779297</ele>
        <time>2019-05-11T12:59:56.000Z</time>
      </trkpt>
      <trkpt lat="43.94804" lon="7.20353">
        <ele>615.20001220703</ele>
        <time>2019-05-11T12:59:57.000Z</time>
      </trkpt>
      <trkpt lat="43.94802" lon="7.20348">
        <ele>614.40002441406</ele>
        <time>2019-05-11T12:59:59.000Z</time>
      </trkpt>
      <trkpt lat="43.94803" lon="7.20334">
        <ele>616.40002441406</ele>
        <time>2019-05-11T13:00:04.000Z</time>
      </trkpt>
      <trkpt lat="43.94801" lon="7.2031">
        <ele>615.40002441406</ele>
        <time>2019-05-11T13:00:09.000Z</time>
      </trkpt>
      <trkpt lat="43.94801" lon="7.20306">
        <ele>615.40002441406</ele>
        <time>2019-05-11T13:00:10.000Z</time>
      </trkpt>
      <trkpt lat="43.94797" lon="7.20298">
        <ele>615.20001220703</ele>
        <time>2019-05-11T13:00:13.000Z</time>
      </trkpt>
      <trkpt lat="43.94789" lon="7.20279">
        <ele>615</ele>
        <time>2019-05-11T13:00:18.000Z</time>
      </trkpt>
      <trkpt lat="43.94782" lon="7.20254">
        <ele>615.40002441406</ele>
        <time>2019-05-11T13:00:24.000Z</time>
      </trkpt>
      <trkpt lat="43.9478" lon="7.20252">
        <ele>615.40002441406</ele>
        <time>2019-05-11T13:00:25.000Z</time>
      </trkpt>
      <trkpt lat="43.94774" lon="7.20249">
        <ele>616.20001220703</ele>
        <time>2019-05-11T13:00:28.000Z</time>
      </trkpt>
      <trkpt lat="43.94771" lon="7.20247">
        <ele>616.40002441406</ele>
        <time>2019-05-11T13:00:29.000Z</time>
      </trkpt>
      <trkpt lat="43.94768" lon="7.20245">
        <ele>616.59997558594</ele>
        <time>2019-05-11T13:00:30.000Z</time>
      </trkpt>
      <trkpt lat="43.94756" lon="7.2024">
        <ele>616.59997558594</ele>
        <time>2019-05-11T13:00:33.000Z</time>
      </trkpt>
      <trkpt lat="43.94752" lon="7.20238">
        <ele>616.40002441406</ele>
        <time>2019-05-11T13:00:34.000Z</time>
      </trkpt>
      <trkpt lat="43.94743" lon="7.2023">
        <ele>616</ele>
        <time>2019-05-11T13:00:37.000Z</time>
      </trkpt>
      <trkpt lat="43.94739" lon="7.20214">
        <ele>616.20001220703</ele>
        <time>2019-05-11T13:00:41.000Z</time>
      </trkpt>
      <trkpt lat="43.94739" lon="7.2021">
        <ele>616.40002441406</ele>
        <time>2019-05-11T13:00:42.000Z</time>
      </trkpt>
      <trkpt lat="43.94738" lon="7.20194">
        <ele>617.40002441406</ele>
        <time>2019-05-11T13:00:46.000Z</time>
      </trkpt>
      <trkpt lat="43.94739" lon="7.20191">
        <ele>617.40002441406</ele>
        <time>2019-05-11T13:00:47.000Z</time>
      </trkpt>
      <trkpt lat="43.9474" lon="7.20189">
        <ele>617.59997558594</ele>
        <time>2019-05-11T13:00:48.000Z</time>
      </trkpt>
      <trkpt lat="43.94745" lon="7.20176">
        <ele>618</ele>
        <time>2019-05-11T13:00:52.000Z</time>
      </trkpt>
      <trkpt lat="43.94754" lon="7.20167">
        <ele>618.40002441406</ele>
        <time>2019-05-11T13:00:56.000Z</time>
      </trkpt>
      <trkpt lat="43.9476" lon="7.20152">
        <ele>618.20001220703</ele>
        <time>2019-05-11T13:01:00.000Z</time>
      </trkpt>
      <trkpt lat="43.9476" lon="7.20144">
        <ele>618.59997558594</ele>
        <time>2019-05-11T13:01:04.000Z</time>
      </trkpt>
      <trkpt lat="43.94759" lon="7.20142">
        <ele>618.79998779297</ele>
        <time>2019-05-11T13:01:05.000Z</time>
      </trkpt>
      <trkpt lat="43.94751" lon="7.20137">
        <ele>620</ele>
        <time>2019-05-11T13:01:10.000Z</time>
      </trkpt>
      <trkpt lat="43.94749" lon="7.20135">
        <ele>620.40002441406</ele>
        <time>2019-05-11T13:01:11.000Z</time>
      </trkpt>
      <trkpt lat="43.94748" lon="7.20128">
        <ele>621</ele>
        <time>2019-05-11T13:01:14.000Z</time>
      </trkpt>
      <trkpt lat="43.94749" lon="7.20125">
        <ele>621.20001220703</ele>
        <time>2019-05-11T13:01:15.000Z</time>
      </trkpt>
      <trkpt lat="43.9475" lon="7.20123">
        <ele>621.20001220703</ele>
        <time>2019-05-11T13:01:16.000Z</time>
      </trkpt>
      <trkpt lat="43.9475" lon="7.20113">
        <ele>621.59997558594</ele>
        <time>2019-05-11T13:01:20.000Z</time>
      </trkpt>
      <trkpt lat="43.94749" lon="7.20112">
        <ele>621.79998779297</ele>
        <time>2019-05-11T13:01:21.000Z</time>
      </trkpt>
      <trkpt lat="43.94746" lon="7.20109">
        <ele>622.20001220703</ele>
        <time>2019-05-11T13:01:23.000Z</time>
      </trkpt>
      <trkpt lat="43.9474" lon="7.20102">
        <ele>623</ele>
        <time>2019-05-11T13:01:27.000Z</time>
      </trkpt>
      <trkpt lat="43.94738" lon="7.20097">
        <ele>623.40002441406</ele>
        <time>2019-05-11T13:01:29.000Z</time>
      </trkpt>
      <trkpt lat="43.94736" lon="7.20092">
        <ele>623.79998779297</ele>
        <time>2019-05-11T13:01:33.000Z</time>
      </trkpt>
      <trkpt lat="43.94735" lon="7.20089">
        <ele>624.40002441406</ele>
        <time>2019-05-11T13:01:36.000Z</time>
      </trkpt>
      <trkpt lat="43.94734" lon="7.20088">
        <ele>624.79998779297</ele>
        <time>2019-05-11T13:01:38.000Z</time>
      </trkpt>
      <trkpt lat="43.94733" lon="7.20087">
        <ele>625</ele>
        <time>2019-05-11T13:01:40.000Z</time>
      </trkpt>
      <trkpt lat="43.94731" lon="7.20085">
        <ele>625.40002441406</ele>
        <time>2019-05-11T13:01:43.000Z</time>
      </trkpt>
      <trkpt lat="43.9473" lon="7.20084">
        <ele>625.59997558594</ele>
        <time>2019-05-11T13:01:44.000Z</time>
      </trkpt>
      <trkpt lat="43.94727" lon="7.2008">
        <ele>626.59997558594</ele>
        <time>2019-05-11T13:01:50.000Z</time>
      </trkpt>
      <trkpt lat="43.94725" lon="7.20078">
        <ele>627</ele>
        <time>2019-05-11T13:01:53.000Z</time>
      </trkpt>
      <trkpt lat="43.94723" lon="7.20074">
        <ele>627.59997558594</ele>
        <time>2019-05-11T13:01:58.000Z</time>
      </trkpt>
      <trkpt lat="43.94721" lon="7.20072">
        <ele>628.20001220703</ele>
        <time>2019-05-11T13:02:00.000Z</time>
      </trkpt>
      <trkpt lat="43.94718" lon="7.20068">
        <ele>628.79998779297</ele>
        <time>2019-05-11T13:02:05.000Z</time>
      </trkpt>
      <trkpt lat="43.94717" lon="7.20066">
        <ele>629.20001220703</ele>
        <time>2019-05-11T13:02:07.000Z</time>
      </trkpt>
      <trkpt lat="43.94715" lon="7.20062">
        <ele>630</ele>
        <time>2019-05-11T13:02:11.000Z</time>
      </trkpt>
      <trkpt lat="43.94714" lon="7.20055">
        <ele>630.79998779297</ele>
        <time>2019-05-11T13:02:16.000Z</time>
      </trkpt>
      <trkpt lat="43.94714" lon="7.20053">
        <ele>631</ele>
        <time>2019-05-11T13:02:18.000Z</time>
      </trkpt>
      <trkpt lat="43.94711" lon="7.20046">
        <ele>632.20001220703</ele>
        <time>2019-05-11T13:02:23.000Z</time>
      </trkpt>
      <trkpt lat="43.94711" lon="7.20045">
        <ele>632.20001220703</ele>
        <time>2019-05-11T13:02:24.000Z</time>
      </trkpt>
      <trkpt lat="43.9471" lon="7.20044">
        <ele>632.40002441406</ele>
        <time>2019-05-11T13:02:27.000Z</time>
      </trkpt>
      <trkpt lat="43.94709" lon="7.20042">
        <ele>632.40002441406</ele>
        <time>2019-05-11T13:02:28.000Z</time>
      </trkpt>
      <trkpt lat="43.94706" lon="7.2003">
        <ele>632.40002441406</ele>
        <time>2019-05-11T13:02:32.000Z</time>
      </trkpt>
      <trkpt lat="43.94701" lon="7.20009">
        <ele>632.59997558594</ele>
        <time>2019-05-11T13:02:37.000Z</time>
      </trkpt>
      <trkpt lat="43.94699" lon="7.20003">
        <ele>632.40002441406</ele>
        <time>2019-05-11T13:02:38.000Z</time>
      </trkpt>
      <trkpt lat="43.94699" lon="7.19989">
        <ele>631.59997558594</ele>
        <time>2019-05-11T13:02:41.000Z</time>
      </trkpt>
      <trkpt lat="43.94695" lon="7.1997">
        <ele>632.20001220703</ele>
        <time>2019-05-11T13:02:46.000Z</time>
      </trkpt>
      <trkpt lat="43.94694" lon="7.19967">
        <ele>632.20001220703</ele>
        <time>2019-05-11T13:02:47.000Z</time>
      </trkpt>
      <trkpt lat="43.94692" lon="7.1995">
        <ele>632.20001220703</ele>
        <time>2019-05-11T13:02:52.000Z</time>
      </trkpt>
      <trkpt lat="43.94693" lon="7.19941">
        <ele>633.20001220703</ele>
        <time>2019-05-11T13:02:56.000Z</time>
      </trkpt>
      <trkpt lat="43.94693" lon="7.19939">
        <ele>633.40002441406</ele>
        <time>2019-05-11T13:02:57.000Z</time>
      </trkpt>
      <trkpt lat="43.94692" lon="7.19928">
        <ele>634.20001220703</ele>
        <time>2019-05-11T13:03:02.000Z</time>
      </trkpt>
      <trkpt lat="43.94692" lon="7.19927">
        <ele>634.59997558594</ele>
        <time>2019-05-11T13:03:03.000Z</time>
      </trkpt>
      <trkpt lat="43.94693" lon="7.19921">
        <ele>635.59997558594</ele>
        <time>2019-05-11T13:03:06.000Z</time>
      </trkpt>
      <trkpt lat="43.94694" lon="7.19915">
        <ele>636</ele>
        <time>2019-05-11T13:03:09.000Z</time>
      </trkpt>
      <trkpt lat="43.94698" lon="7.19909">
        <ele>636.79998779297</ele>
        <time>2019-05-11T13:03:13.000Z</time>
      </trkpt>
      <trkpt lat="43.947" lon="7.19907">
        <ele>636.79998779297</ele>
        <time>2019-05-11T13:03:14.000Z</time>
      </trkpt>
      <trkpt lat="43.94711" lon="7.19897">
        <ele>637.59997558594</ele>
        <time>2019-05-11T13:03:20.000Z</time>
      </trkpt>
      <trkpt lat="43.94725" lon="7.19883">
        <ele>636.79998779297</ele>
        <time>2019-05-11T13:03:26.000Z</time>
      </trkpt>
      <trkpt lat="43.94731" lon="7.19876">
        <ele>637</ele>
        <time>2019-05-11T13:03:28.000Z</time>
      </trkpt>
      <trkpt lat="43.94742" lon="7.19864">
        <ele>636.59997558594</ele>
        <time>2019-05-11T13:03:31.000Z</time>
      </trkpt>
      <trkpt lat="43.94745" lon="7.19859">
        <ele>636.79998779297</ele>
        <time>2019-05-11T13:03:32.000Z</time>
      </trkpt>
      <trkpt lat="43.94753" lon="7.19852">
        <ele>636</ele>
        <time>2019-05-11T13:03:34.000Z</time>
      </trkpt>
      <trkpt lat="43.94757" lon="7.19849">
        <ele>635.40002441406</ele>
        <time>2019-05-11T13:03:35.000Z</time>
      </trkpt>
      <trkpt lat="43.94764" lon="7.19845">
        <ele>633.79998779297</ele>
        <time>2019-05-11T13:03:37.000Z</time>
      </trkpt>
      <trkpt lat="43.94768" lon="7.19844">
        <ele>633</ele>
        <time>2019-05-11T13:03:38.000Z</time>
      </trkpt>
      <trkpt lat="43.94772" lon="7.19841">
        <ele>632.20001220703</ele>
        <time>2019-05-11T13:03:39.000Z</time>
      </trkpt>
      <trkpt lat="43.94779" lon="7.19834">
        <ele>631.79998779297</ele>
        <time>2019-05-11T13:03:41.000Z</time>
      </trkpt>
      <trkpt lat="43.94789" lon="7.19835">
        <ele>630.79998779297</ele>
        <time>2019-05-11T13:03:44.000Z</time>
      </trkpt>
      <trkpt lat="43.94793" lon="7.19834">
        <ele>630.59997558594</ele>
        <time>2019-05-11T13:03:47.000Z</time>
      </trkpt>
      <trkpt lat="43.94793" lon="7.19831">
        <ele>630.59997558594</ele>
        <time>2019-05-11T13:03:50.000Z</time>
      </trkpt>
      <trkpt lat="43.94792" lon="7.19828">
        <ele>630.79998779297</ele>
        <time>2019-05-11T13:03:52.000Z</time>
      </trkpt>
      <trkpt lat="43.9479" lon="7.1982">
        <ele>631.79998779297</ele>
        <time>2019-05-11T13:03:59.000Z</time>
      </trkpt>
      <trkpt lat="43.94789" lon="7.19819">
        <ele>632</ele>
        <time>2019-05-11T13:04:00.000Z</time>
      </trkpt>
      <trkpt lat="43.94783" lon="7.19812">
        <ele>632.20001220703</ele>
        <time>2019-05-11T13:04:07.000Z</time>
      </trkpt>
      <trkpt lat="43.94781" lon="7.19806">
        <ele>633</ele>
        <time>2019-05-11T13:04:13.000Z</time>
      </trkpt>
      <trkpt lat="43.94781" lon="7.19803">
        <ele>633.40002441406</ele>
        <time>2019-05-11T13:04:16.000Z</time>
      </trkpt>
      <trkpt lat="43.9478" lon="7.19796">
        <ele>633.59997558594</ele>
        <time>2019-05-11T13:04:22.000Z</time>
      </trkpt>
      <trkpt lat="43.9478" lon="7.19792">
        <ele>634.20001220703</ele>
        <time>2019-05-11T13:04:25.000Z</time>
      </trkpt>
      <trkpt lat="43.94779" lon="7.19788">
        <ele>634.40002441406</ele>
        <time>2019-05-11T13:04:30.000Z</time>
      </trkpt>
      <trkpt lat="43.94779" lon="7.19782">
        <ele>634.79998779297</ele>
        <time>2019-05-11T13:04:35.000Z</time>
      </trkpt>
      <trkpt lat="43.9478" lon="7.19775">
        <ele>634.59997558594</ele>
        <time>2019-05-11T13:04:42.000Z</time>
      </trkpt>
      <trkpt lat="43.94779" lon="7.19769">
        <ele>635</ele>
        <time>2019-05-11T13:04:49.000Z</time>
      </trkpt>
      <trkpt lat="43.94779" lon="7.19769">
        <ele>634.79998779297</ele>
        <time>2019-05-11T13:04:56.000Z</time>
      </trkpt>
      <trkpt lat="43.94778" lon="7.19769">
        <ele>634.40002441406</ele>
        <time>2019-05-11T13:05:01.000Z</time>
      </trkpt>
      <trkpt lat="43.94778" lon="7.19769">
        <ele>635.20001220703</ele>
        <time>2019-05-11T13:05:06.000Z</time>
      </trkpt>
      <trkpt lat="43.94778" lon="7.19769">
        <ele>635.20001220703</ele>
        <time>2019-05-11T13:05:13.000Z</time>
      </trkpt>
      <trkpt lat="43.94778" lon="7.19769">
        <ele>635.79998779297</ele>
        <time>2019-05-11T13:05:23.000Z</time>
      </trkpt>
      <trkpt lat="43.94777" lon="7.19769">
        <ele>636</ele>
        <time>2019-05-11T13:05:33.000Z</time>
      </trkpt>
      <trkpt lat="43.94776" lon="7.1977">
        <ele>634.79998779297</ele>
        <time>2019-05-11T13:05:48.000Z</time>
      </trkpt>
      <trkpt lat="43.94776" lon="7.1977">
        <ele>634.20001220703</ele>
        <time>2019-05-11T13:05:55.000Z</time>
      </trkpt>
      <trkpt lat="43.94776" lon="7.1977">
        <ele>634.79998779297</ele>
        <time>2019-05-11T13:06:13.000Z</time>
      </trkpt>
      <trkpt lat="43.94776" lon="7.19768">
        <ele>635</ele>
        <time>2019-05-11T13:06:29.000Z</time>
      </trkpt>
      <trkpt lat="43.94776" lon="7.19768">
        <ele>635.20001220703</ele>
        <time>2019-05-11T13:06:30.000Z</time>
      </trkpt>
      <trkpt lat="43.94775" lon="7.19769">
        <ele>635.59997558594</ele>
        <time>2019-05-11T13:06:35.000Z</time>
      </trkpt>
      <trkpt lat="43.94775" lon="7.19768">
        <ele>635.40002441406</ele>
        <time>2019-05-11T13:06:40.000Z</time>
      </trkpt>
      <trkpt lat="43.94775" lon="7.19763">
        <ele>635.59997558594</ele>
        <time>2019-05-11T13:06:45.000Z</time>
      </trkpt>
      <trkpt lat="43.94777" lon="7.19754">
        <ele>636.40002441406</ele>
        <time>2019-05-11T13:06:52.000Z</time>
      </trkpt>
      <trkpt lat="43.9478" lon="7.19752">
        <ele>636.79998779297</ele>
        <time>2019-05-11T13:06:55.000Z</time>
      </trkpt>
      <trkpt lat="43.94783" lon="7.19748">
        <ele>637.40002441406</ele>
        <time>2019-05-11T13:06:59.000Z</time>
      </trkpt>
      <trkpt lat="43.94785" lon="7.19745">
        <ele>638</ele>
        <time>2019-05-11T13:07:02.000Z</time>
      </trkpt>
      <trkpt lat="43.94787" lon="7.19743">
        <ele>638.40002441406</ele>
        <time>2019-05-11T13:07:05.000Z</time>
      </trkpt>
      <trkpt lat="43.94788" lon="7.1974">
        <ele>639.40002441406</ele>
        <time>2019-05-11T13:07:10.000Z</time>
      </trkpt>
      <trkpt lat="43.94789" lon="7.19739">
        <ele>639.59997558594</ele>
        <time>2019-05-11T13:07:11.000Z</time>
      </trkpt>
      <trkpt lat="43.94789" lon="7.19735">
        <ele>640.59997558594</ele>
        <time>2019-05-11T13:07:17.000Z</time>
      </trkpt>
      <trkpt lat="43.94789" lon="7.19734">
        <ele>640.79998779297</ele>
        <time>2019-05-11T13:07:18.000Z</time>
      </trkpt>
      <trkpt lat="43.9479" lon="7.19732">
        <ele>641</ele>
        <time>2019-05-11T13:07:20.000Z</time>
      </trkpt>
      <trkpt lat="43.9479" lon="7.19729">
        <ele>641.79998779297</ele>
        <time>2019-05-11T13:07:24.000Z</time>
      </trkpt>
      <trkpt lat="43.94789" lon="7.19728">
        <ele>642</ele>
        <time>2019-05-11T13:07:25.000Z</time>
      </trkpt>
      <trkpt lat="43.94787" lon="7.19726">
        <ele>643</ele>
        <time>2019-05-11T13:07:29.000Z</time>
      </trkpt>
      <trkpt lat="43.94786" lon="7.19726">
        <ele>643.20001220703</ele>
        <time>2019-05-11T13:07:30.000Z</time>
      </trkpt>
      <trkpt lat="43.94786" lon="7.19726">
        <ele>643.20001220703</ele>
        <time>2019-05-11T13:07:31.000Z</time>
      </trkpt>
      <trkpt lat="43.94782" lon="7.19724">
        <ele>644.20001220703</ele>
        <time>2019-05-11T13:07:36.000Z</time>
      </trkpt>
      <trkpt lat="43.9478" lon="7.19723">
        <ele>644.59997558594</ele>
        <time>2019-05-11T13:07:39.000Z</time>
      </trkpt>
      <trkpt lat="43.94779" lon="7.19722">
        <ele>644.79998779297</ele>
        <time>2019-05-11T13:07:40.000Z</time>
      </trkpt>
      <trkpt lat="43.94777" lon="7.19719">
        <ele>645.20001220703</ele>
        <time>2019-05-11T13:07:43.000Z</time>
      </trkpt>
      <trkpt lat="43.94773" lon="7.19713">
        <ele>646.20001220703</ele>
        <time>2019-05-11T13:07:49.000Z</time>
      </trkpt>
      <trkpt lat="43.94771" lon="7.19705">
        <ele>647</ele>
        <time>2019-05-11T13:07:56.000Z</time>
      </trkpt>
      <trkpt lat="43.94771" lon="7.19703">
        <ele>647.40002441406</ele>
        <time>2019-05-11T13:07:58.000Z</time>
      </trkpt>
      <trkpt lat="43.9477" lon="7.19694">
        <ele>648.20001220703</ele>
        <time>2019-05-11T13:08:05.000Z</time>
      </trkpt>
      <trkpt lat="43.94769" lon="7.19688">
        <ele>648.59997558594</ele>
        <time>2019-05-11T13:08:11.000Z</time>
      </trkpt>
      <trkpt lat="43.94769" lon="7.19687">
        <ele>648.79998779297</ele>
        <time>2019-05-11T13:08:12.000Z</time>
      </trkpt>
      <trkpt lat="43.94769" lon="7.19685">
        <ele>649.20001220703</ele>
        <time>2019-05-11T13:08:14.000Z</time>
      </trkpt>
      <trkpt lat="43.94771" lon="7.19684">
        <ele>650</ele>
        <time>2019-05-11T13:08:17.000Z</time>
      </trkpt>
      <trkpt lat="43.94771" lon="7.19685">
        <ele>650.20001220703</ele>
        <time>2019-05-11T13:08:18.000Z</time>
      </trkpt>
      <trkpt lat="43.94774" lon="7.19692">
        <ele>650.79998779297</ele>
        <time>2019-05-11T13:08:26.000Z</time>
      </trkpt>
      <trkpt lat="43.94774" lon="7.19693">
        <ele>651</ele>
        <time>2019-05-11T13:08:27.000Z</time>
      </trkpt>
      <trkpt lat="43.94776" lon="7.19693">
        <ele>652.20001220703</ele>
        <time>2019-05-11T13:08:32.000Z</time>
      </trkpt>
      <trkpt lat="43.94776" lon="7.19692">
        <ele>652.40002441406</ele>
        <time>2019-05-11T13:08:33.000Z</time>
      </trkpt>
      <trkpt lat="43.94775" lon="7.19681">
        <ele>653.20001220703</ele>
        <time>2019-05-11T13:08:41.000Z</time>
      </trkpt>
      <trkpt lat="43.94775" lon="7.1968">
        <ele>653.59997558594</ele>
        <time>2019-05-11T13:08:42.000Z</time>
      </trkpt>
      <trkpt lat="43.94776" lon="7.1967">
        <ele>654.20001220703</ele>
        <time>2019-05-11T13:08:51.000Z</time>
      </trkpt>
      <trkpt lat="43.94776" lon="7.19669">
        <ele>654.40002441406</ele>
        <time>2019-05-11T13:08:52.000Z</time>
      </trkpt>
      <trkpt lat="43.94777" lon="7.19662">
        <ele>655.59997558594</ele>
        <time>2019-05-11T13:08:58.000Z</time>
      </trkpt>
      <trkpt lat="43.94777" lon="7.19659">
        <ele>656.20001220703</ele>
        <time>2019-05-11T13:09:01.000Z</time>
      </trkpt>
      <trkpt lat="43.94777" lon="7.19655">
        <ele>657</ele>
        <time>2019-05-11T13:09:04.000Z</time>
      </trkpt>
      <trkpt lat="43.94778" lon="7.19651">
        <ele>657.79998779297</ele>
        <time>2019-05-11T13:09:09.000Z</time>
      </trkpt>
      <trkpt lat="43.94778" lon="7.19649">
        <ele>658</ele>
        <time>2019-05-11T13:09:12.000Z</time>
      </trkpt>
      <trkpt lat="43.94779" lon="7.19647">
        <ele>658.40002441406</ele>
        <time>2019-05-11T13:09:15.000Z</time>
      </trkpt>
      <trkpt lat="43.9478" lon="7.19643">
        <ele>659.20001220703</ele>
        <time>2019-05-11T13:09:20.000Z</time>
      </trkpt>
      <trkpt lat="43.9478" lon="7.19642">
        <ele>659.40002441406</ele>
        <time>2019-05-11T13:09:23.000Z</time>
      </trkpt>
      <trkpt lat="43.94779" lon="7.1964">
        <ele>660.20001220703</ele>
        <time>2019-05-11T13:09:26.000Z</time>
      </trkpt>
      <trkpt lat="43.94779" lon="7.19636">
        <ele>661</ele>
        <time>2019-05-11T13:09:30.000Z</time>
      </trkpt>
      <trkpt lat="43.94779" lon="7.19635">
        <ele>661.20001220703</ele>
        <time>2019-05-11T13:09:31.000Z</time>
      </trkpt>
      <trkpt lat="43.94779" lon="7.1963">
        <ele>662.20001220703</ele>
        <time>2019-05-11T13:09:37.000Z</time>
      </trkpt>
      <trkpt lat="43.94779" lon="7.19629">
        <ele>662.40002441406</ele>
        <time>2019-05-11T13:09:39.000Z</time>
      </trkpt>
      <trkpt lat="43.9478" lon="7.19624">
        <ele>663.40002441406</ele>
        <time>2019-05-11T13:09:45.000Z</time>
      </trkpt>
      <trkpt lat="43.9478" lon="7.19621">
        <ele>664.40002441406</ele>
        <time>2019-05-11T13:09:49.000Z</time>
      </trkpt>
      <trkpt lat="43.9478" lon="7.1962">
        <ele>664.40002441406</ele>
        <time>2019-05-11T13:09:50.000Z</time>
      </trkpt>
      <trkpt lat="43.9478" lon="7.19613">
        <ele>665.40002441406</ele>
        <time>2019-05-11T13:09:57.000Z</time>
      </trkpt>
      <trkpt lat="43.94781" lon="7.19612">
        <ele>665.79998779297</ele>
        <time>2019-05-11T13:09:58.000Z</time>
      </trkpt>
      <trkpt lat="43.9478" lon="7.19608">
        <ele>666.59997558594</ele>
        <time>2019-05-11T13:10:02.000Z</time>
      </trkpt>
      <trkpt lat="43.9478" lon="7.19605">
        <ele>667.20001220703</ele>
        <time>2019-05-11T13:10:05.000Z</time>
      </trkpt>
      <trkpt lat="43.94781" lon="7.196">
        <ele>667.79998779297</ele>
        <time>2019-05-11T13:10:10.000Z</time>
      </trkpt>
      <trkpt lat="43.94782" lon="7.19595">
        <ele>668.59997558594</ele>
        <time>2019-05-11T13:10:14.000Z</time>
      </trkpt>
      <trkpt lat="43.94782" lon="7.19594">
        <ele>668.79998779297</ele>
        <time>2019-05-11T13:10:15.000Z</time>
      </trkpt>
      <trkpt lat="43.94781" lon="7.19588">
        <ele>669.40002441406</ele>
        <time>2019-05-11T13:10:21.000Z</time>
      </trkpt>
      <trkpt lat="43.94779" lon="7.19583">
        <ele>670</ele>
        <time>2019-05-11T13:10:25.000Z</time>
      </trkpt>
      <trkpt lat="43.94778" lon="7.19581">
        <ele>670.59997558594</ele>
        <time>2019-05-11T13:10:28.000Z</time>
      </trkpt>
      <trkpt lat="43.94777" lon="7.19578">
        <ele>671</ele>
        <time>2019-05-11T13:10:31.000Z</time>
      </trkpt>
      <trkpt lat="43.94776" lon="7.19574">
        <ele>672.20001220703</ele>
        <time>2019-05-11T13:10:35.000Z</time>
      </trkpt>
      <trkpt lat="43.94775" lon="7.19571">
        <ele>672.40002441406</ele>
        <time>2019-05-11T13:10:37.000Z</time>
      </trkpt>
      <trkpt lat="43.94775" lon="7.19563">
        <ele>673.40002441406</ele>
        <time>2019-05-11T13:10:44.000Z</time>
      </trkpt>
      <trkpt lat="43.94775" lon="7.19561">
        <ele>673.59997558594</ele>
        <time>2019-05-11T13:10:45.000Z</time>
      </trkpt>
      <trkpt lat="43.94776" lon="7.1955">
        <ele>674.79998779297</ele>
        <time>2019-05-11T13:10:53.000Z</time>
      </trkpt>
      <trkpt lat="43.94777" lon="7.19541">
        <ele>675.79998779297</ele>
        <time>2019-05-11T13:10:59.000Z</time>
      </trkpt>
      <trkpt lat="43.94778" lon="7.19539">
        <ele>676.40002441406</ele>
        <time>2019-05-11T13:11:02.000Z</time>
      </trkpt>
      <trkpt lat="43.94778" lon="7.19537">
        <ele>676.40002441406</ele>
        <time>2019-05-11T13:11:03.000Z</time>
      </trkpt>
      <trkpt lat="43.94785" lon="7.19529">
        <ele>676.40002441406</ele>
        <time>2019-05-11T13:11:08.000Z</time>
      </trkpt>
      <trkpt lat="43.94787" lon="7.19527">
        <ele>676.40002441406</ele>
        <time>2019-05-11T13:11:09.000Z</time>
      </trkpt>
      <trkpt lat="43.94792" lon="7.19511">
        <ele>675.59997558594</ele>
        <time>2019-05-11T13:11:14.000Z</time>
      </trkpt>
      <trkpt lat="43.94791" lon="7.19508">
        <ele>675.59997558594</ele>
        <time>2019-05-11T13:11:15.000Z</time>
      </trkpt>
      <trkpt lat="43.94786" lon="7.19506">
        <ele>675.79998779297</ele>
        <time>2019-05-11T13:11:17.000Z</time>
      </trkpt>
      <trkpt lat="43.94773" lon="7.19503">
        <ele>675.79998779297</ele>
        <time>2019-05-11T13:11:22.000Z</time>
      </trkpt>
      <trkpt lat="43.94769" lon="7.19497">
        <ele>675.79998779297</ele>
        <time>2019-05-11T13:11:24.000Z</time>
      </trkpt>
      <trkpt lat="43.94767" lon="7.19487">
        <ele>675.59997558594</ele>
        <time>2019-05-11T13:11:27.000Z</time>
      </trkpt>
      <trkpt lat="43.94764" lon="7.1948">
        <ele>674.40002441406</ele>
        <time>2019-05-11T13:11:30.000Z</time>
      </trkpt>
      <trkpt lat="43.94762" lon="7.19478">
        <ele>674</ele>
        <time>2019-05-11T13:11:31.000Z</time>
      </trkpt>
      <trkpt lat="43.94755" lon="7.19467">
        <ele>673.20001220703</ele>
        <time>2019-05-11T13:11:34.000Z</time>
      </trkpt>
      <trkpt lat="43.94753" lon="7.19463">
        <ele>672.79998779297</ele>
        <time>2019-05-11T13:11:35.000Z</time>
      </trkpt>
      <trkpt lat="43.94751" lon="7.19459">
        <ele>672</ele>
        <time>2019-05-11T13:11:36.000Z</time>
      </trkpt>
      <trkpt lat="43.94751" lon="7.19455">
        <ele>671</ele>
        <time>2019-05-11T13:11:37.000Z</time>
      </trkpt>
      <trkpt lat="43.94751" lon="7.1945">
        <ele>670</ele>
        <time>2019-05-11T13:11:38.000Z</time>
      </trkpt>
      <trkpt lat="43.94751" lon="7.19444">
        <ele>669</ele>
        <time>2019-05-11T13:11:39.000Z</time>
      </trkpt>
      <trkpt lat="43.94751" lon="7.19439">
        <ele>668.20001220703</ele>
        <time>2019-05-11T13:11:40.000Z</time>
      </trkpt>
      <trkpt lat="43.94751" lon="7.19432">
        <ele>667.20001220703</ele>
        <time>2019-05-11T13:11:41.000Z</time>
      </trkpt>
      <trkpt lat="43.94751" lon="7.19426">
        <ele>666.40002441406</ele>
        <time>2019-05-11T13:11:42.000Z</time>
      </trkpt>
      <trkpt lat="43.94751" lon="7.19421">
        <ele>665.59997558594</ele>
        <time>2019-05-11T13:11:43.000Z</time>
      </trkpt>
      <trkpt lat="43.94751" lon="7.19419">
        <ele>664.59997558594</ele>
        <time>2019-05-11T13:11:44.000Z</time>
      </trkpt>
      <trkpt lat="43.94751" lon="7.19418">
        <ele>663</ele>
        <time>2019-05-11T13:11:46.000Z</time>
      </trkpt>
      <trkpt lat="43.94751" lon="7.19419">
        <ele>662.40002441406</ele>
        <time>2019-05-11T13:11:54.000Z</time>
      </trkpt>
      <trkpt lat="43.94751" lon="7.1942">
        <ele>662.59997558594</ele>
        <time>2019-05-11T13:11:56.000Z</time>
      </trkpt>
      <trkpt lat="43.94751" lon="7.19421">
        <ele>662</ele>
        <time>2019-05-11T13:12:01.000Z</time>
      </trkpt>
      <trkpt lat="43.94751" lon="7.1942">
        <ele>662</ele>
        <time>2019-05-11T13:12:02.000Z</time>
      </trkpt>
      <trkpt lat="43.94751" lon="7.1942">
        <ele>662.20001220703</ele>
        <time>2019-05-11T13:12:10.000Z</time>
      </trkpt>
      <trkpt lat="43.94751" lon="7.1942">
        <ele>662.40002441406</ele>
        <time>2019-05-11T13:12:20.000Z</time>
      </trkpt>
      <trkpt lat="43.94751" lon="7.1942">
        <ele>663</ele>
        <time>2019-05-11T13:12:33.000Z</time>
      </trkpt>
      <trkpt lat="43.94751" lon="7.19419">
        <ele>663</ele>
        <time>2019-05-11T13:12:38.000Z</time>
      </trkpt>
      <trkpt lat="43.94751" lon="7.19419">
        <ele>663.20001220703</ele>
        <time>2019-05-11T13:12:40.000Z</time>
      </trkpt>
      <trkpt lat="43.94752" lon="7.19419">
        <ele>663.20001220703</ele>
        <time>2019-05-11T13:12:49.000Z</time>
      </trkpt>
      <trkpt lat="43.94752" lon="7.19418">
        <ele>663</ele>
        <time>2019-05-11T13:12:55.000Z</time>
      </trkpt>
      <trkpt lat="43.94753" lon="7.19419">
        <ele>662.79998779297</ele>
        <time>2019-05-11T13:13:00.000Z</time>
      </trkpt>
      <trkpt lat="43.94754" lon="7.1942">
        <ele>662.59997558594</ele>
        <time>2019-05-11T13:13:02.000Z</time>
      </trkpt>
      <trkpt lat="43.94754" lon="7.19421">
        <ele>662</ele>
        <time>2019-05-11T13:13:06.000Z</time>
      </trkpt>
      <trkpt lat="43.94754" lon="7.1942">
        <ele>662.79998779297</ele>
        <time>2019-05-11T13:13:11.000Z</time>
      </trkpt>
      <trkpt lat="43.94753" lon="7.1942">
        <ele>663.20001220703</ele>
        <time>2019-05-11T13:13:14.000Z</time>
      </trkpt>
      <trkpt lat="43.94753" lon="7.1942">
        <ele>660.59997558594</ele>
        <time>2019-05-11T13:13:21.000Z</time>
      </trkpt>
      <trkpt lat="43.94753" lon="7.1942">
        <ele>658.40002441406</ele>
        <time>2019-05-11T13:13:22.000Z</time>
      </trkpt>
      <trkpt lat="43.94753" lon="7.1942">
        <ele>654.59997558594</ele>
        <time>2019-05-11T13:13:23.000Z</time>
      </trkpt>
      <trkpt lat="43.94753" lon="7.19419">
        <ele>652</ele>
        <time>2019-05-11T13:13:24.000Z</time>
      </trkpt>
      <trkpt lat="43.94753" lon="7.19419">
        <ele>650.40002441406</ele>
        <time>2019-05-11T13:13:25.000Z</time>
      </trkpt>
      <trkpt lat="43.94753" lon="7.19419">
        <ele>649.40002441406</ele>
        <time>2019-05-11T13:13:28.000Z</time>
      </trkpt>
      <trkpt lat="43.94753" lon="7.19419">
        <ele>647.59997558594</ele>
        <time>2019-05-11T13:13:30.000Z</time>
      </trkpt>
      <trkpt lat="43.94753" lon="7.19419">
        <ele>645.79998779297</ele>
        <time>2019-05-11T13:13:32.000Z</time>
      </trkpt>
      <trkpt lat="43.94753" lon="7.19419">
        <ele>644.40002441406</ele>
        <time>2019-05-11T13:13:34.000Z</time>
      </trkpt>
      <trkpt lat="43.94753" lon="7.19419">
        <ele>643</ele>
        <time>2019-05-11T13:13:36.000Z</time>
      </trkpt>
      <trkpt lat="43.94753" lon="7.19419">
        <ele>642</ele>
        <time>2019-05-11T13:13:38.000Z</time>
      </trkpt>
      <trkpt lat="43.94753" lon="7.19419">
        <ele>640.40002441406</ele>
        <time>2019-05-11T13:13:40.000Z</time>
      </trkpt>
      <trkpt lat="43.94753" lon="7.19419">
        <ele>639.20001220703</ele>
        <time>2019-05-11T13:13:41.000Z</time>
      </trkpt>
      <trkpt lat="43.94753" lon="7.19419">
        <ele>643.79998779297</ele>
        <time>2019-05-11T13:13:42.000Z</time>
      </trkpt>
      <trkpt lat="43.94753" lon="7.19419">
        <ele>647</ele>
        <time>2019-05-11T13:13:43.000Z</time>
      </trkpt>
      <trkpt lat="43.94753" lon="7.19419">
        <ele>648.20001220703</ele>
        <time>2019-05-11T13:13:44.000Z</time>
      </trkpt>
      <trkpt lat="43.94752" lon="7.19419">
        <ele>649.79998779297</ele>
        <time>2019-05-11T13:13:46.000Z</time>
      </trkpt>
      <trkpt lat="43.94753" lon="7.19418">
        <ele>645.79998779297</ele>
        <time>2019-05-11T13:13:47.000Z</time>
      </trkpt>
      <trkpt lat="43.94753" lon="7.19418">
        <ele>642.59997558594</ele>
        <time>2019-05-11T13:13:48.000Z</time>
      </trkpt>
      <trkpt lat="43.94752" lon="7.19418">
        <ele>641.40002441406</ele>
        <time>2019-05-11T13:13:49.000Z</time>
      </trkpt>
      <trkpt lat="43.94752" lon="7.19418">
        <ele>639.79998779297</ele>
        <time>2019-05-11T13:13:51.000Z</time>
      </trkpt>
      <trkpt lat="43.94752" lon="7.19418">
        <ele>641.20001220703</ele>
        <time>2019-05-11T13:13:56.000Z</time>
      </trkpt>
      <trkpt lat="43.94753" lon="7.19418">
        <ele>639.40002441406</ele>
        <time>2019-05-11T13:14:00.000Z</time>
      </trkpt>
      <trkpt lat="43.94753" lon="7.19418">
        <ele>637.79998779297</ele>
        <time>2019-05-11T13:14:01.000Z</time>
      </trkpt>
      <trkpt lat="43.94753" lon="7.19418">
        <ele>636.40002441406</ele>
        <time>2019-05-11T13:14:03.000Z</time>
      </trkpt>
      <trkpt lat="43.94753" lon="7.19418">
        <ele>635.40002441406</ele>
        <time>2019-05-11T13:14:06.000Z</time>
      </trkpt>
      <trkpt lat="43.94753" lon="7.19418">
        <ele>633.59997558594</ele>
        <time>2019-05-11T13:14:09.000Z</time>
      </trkpt>
      <trkpt lat="43.94753" lon="7.19418">
        <ele>634.79998779297</ele>
        <time>2019-05-11T13:14:11.000Z</time>
      </trkpt>
      <trkpt lat="43.94753" lon="7.19418">
        <ele>635.40002441406</ele>
        <time>2019-05-11T13:14:16.000Z</time>
      </trkpt>
      <trkpt lat="43.94753" lon="7.19418">
        <ele>635.59997558594</ele>
        <time>2019-05-11T13:14:27.000Z</time>
      </trkpt>
      <trkpt lat="43.94753" lon="7.19418">
        <ele>636</ele>
        <time>2019-05-11T13:14:34.000Z</time>
      </trkpt>
      <trkpt lat="43.94753" lon="7.19418">
        <ele>636</ele>
        <time>2019-05-11T13:14:40.000Z</time>
      </trkpt>
      <trkpt lat="43.94753" lon="7.19418">
        <ele>634.79998779297</ele>
        <time>2019-05-11T13:14:55.000Z</time>
      </trkpt>
      <trkpt lat="43.94753" lon="7.19418">
        <ele>633.40002441406</ele>
        <time>2019-05-11T13:14:56.000Z</time>
      </trkpt>
      <trkpt lat="43.94753" lon="7.19418">
        <ele>631.79998779297</ele>
        <time>2019-05-11T13:14:57.000Z</time>
      </trkpt>
      <trkpt lat="43.94753" lon="7.19417">
        <ele>629</ele>
        <time>2019-05-11T13:14:58.000Z</time>
      </trkpt>
      <trkpt lat="43.94754" lon="7.19417">
        <ele>626</ele>
        <time>2019-05-11T13:14:59.000Z</time>
      </trkpt>
      <trkpt lat="43.94754" lon="7.19417">
        <ele>623.20001220703</ele>
        <time>2019-05-11T13:15:00.000Z</time>
      </trkpt>
      <trkpt lat="43.94754" lon="7.19417">
        <ele>621.59997558594</ele>
        <time>2019-05-11T13:15:01.000Z</time>
      </trkpt>
      <trkpt lat="43.94754" lon="7.19417">
        <ele>619.59997558594</ele>
        <time>2019-05-11T13:15:02.000Z</time>
      </trkpt>
      <trkpt lat="43.94754" lon="7.19417">
        <ele>617.79998779297</ele>
        <time>2019-05-11T13:15:03.000Z</time>
      </trkpt>
      <trkpt lat="43.94754" lon="7.19417">
        <ele>616.59997558594</ele>
        <time>2019-05-11T13:15:04.000Z</time>
      </trkpt>
      <trkpt lat="43.94754" lon="7.19417">
        <ele>614.40002441406</ele>
        <time>2019-05-11T13:15:06.000Z</time>
      </trkpt>
      <trkpt lat="43.94754" lon="7.19417">
        <ele>613.20001220703</ele>
        <time>2019-05-11T13:15:09.000Z</time>
      </trkpt>
      <trkpt lat="43.94754" lon="7.19417">
        <ele>612</ele>
        <time>2019-05-11T13:15:11.000Z</time>
      </trkpt>
      <trkpt lat="43.94754" lon="7.19416">
        <ele>611.59997558594</ele>
        <time>2019-05-11T13:15:18.000Z</time>
      </trkpt>
      <trkpt lat="43.94754" lon="7.19416">
        <ele>611</ele>
        <time>2019-05-11T13:15:22.000Z</time>
      </trkpt>
      <trkpt lat="43.94754" lon="7.19415">
        <ele>609.59997558594</ele>
        <time>2019-05-11T13:15:25.000Z</time>
      </trkpt>
      <trkpt lat="43.94754" lon="7.19415">
        <ele>613.40002441406</ele>
        <time>2019-05-11T13:15:27.000Z</time>
      </trkpt>
      <trkpt lat="43.94754" lon="7.19415">
        <ele>619</ele>
        <time>2019-05-11T13:15:28.000Z</time>
      </trkpt>
      <trkpt lat="43.94754" lon="7.19415">
        <ele>620.20001220703</ele>
        <time>2019-05-11T13:15:29.000Z</time>
      </trkpt>
      <trkpt lat="43.94754" lon="7.19415">
        <ele>621.59997558594</ele>
        <time>2019-05-11T13:15:31.000Z</time>
      </trkpt>
      <trkpt lat="43.94754" lon="7.19415">
        <ele>614.40002441406</ele>
        <time>2019-05-11T13:15:32.000Z</time>
      </trkpt>
      <trkpt lat="43.94754" lon="7.19415">
        <ele>611.40002441406</ele>
        <time>2019-05-11T13:15:33.000Z</time>
      </trkpt>
      <trkpt lat="43.94754" lon="7.19415">
        <ele>610.20001220703</ele>
        <time>2019-05-11T13:15:34.000Z</time>
      </trkpt>
      <trkpt lat="43.94754" lon="7.19415">
        <ele>608.79998779297</ele>
        <time>2019-05-11T13:15:35.000Z</time>
      </trkpt>
      <trkpt lat="43.94754" lon="7.19415">
        <ele>606.79998779297</ele>
        <time>2019-05-11T13:15:36.000Z</time>
      </trkpt>
      <trkpt lat="43.94754" lon="7.19415">
        <ele>604</ele>
        <time>2019-05-11T13:15:37.000Z</time>
      </trkpt>
      <trkpt lat="43.94754" lon="7.19415">
        <ele>600.59997558594</ele>
        <time>2019-05-11T13:15:38.000Z</time>
      </trkpt>
      <trkpt lat="43.94754" lon="7.19415">
        <ele>597.59997558594</ele>
        <time>2019-05-11T13:15:39.000Z</time>
      </trkpt>
      <trkpt lat="43.94754" lon="7.19415">
        <ele>595</ele>
        <time>2019-05-11T13:15:40.000Z</time>
      </trkpt>
      <trkpt lat="43.94754" lon="7.19415">
        <ele>593.20001220703</ele>
        <time>2019-05-11T13:15:41.000Z</time>
      </trkpt>
      <trkpt lat="43.94754" lon="7.19414">
        <ele>591</ele>
        <time>2019-05-11T13:15:44.000Z</time>
      </trkpt>
      <trkpt lat="43.94754" lon="7.19414">
        <ele>592.20001220703</ele>
        <time>2019-05-11T13:15:46.000Z</time>
      </trkpt>
      <trkpt lat="43.94754" lon="7.19414">
        <ele>593.59997558594</ele>
        <time>2019-05-11T13:15:48.000Z</time>
      </trkpt>
      <trkpt lat="43.94754" lon="7.19414">
        <ele>594.59997558594</ele>
        <time>2019-05-11T13:15:53.000Z</time>
      </trkpt>
      <trkpt lat="43.94754" lon="7.19414">
        <ele>596.20001220703</ele>
        <time>2019-05-11T13:15:59.000Z</time>
      </trkpt>
      <trkpt lat="43.94754" lon="7.19414">
        <ele>604.79998779297</ele>
        <time>2019-05-11T13:16:00.000Z</time>
      </trkpt>
      <trkpt lat="43.94754" lon="7.19414">
        <ele>616.79998779297</ele>
        <time>2019-05-11T13:16:01.000Z</time>
      </trkpt>
      <trkpt lat="43.94754" lon="7.19414">
        <ele>628.40002441406</ele>
        <time>2019-05-11T13:16:02.000Z</time>
      </trkpt>
      <trkpt lat="43.94753" lon="7.19414">
        <ele>642.20001220703</ele>
        <time>2019-05-11T13:16:03.000Z</time>
      </trkpt>
      <trkpt lat="43.94753" lon="7.19414">
        <ele>651.79998779297</ele>
        <time>2019-05-11T13:16:04.000Z</time>
      </trkpt>
      <trkpt lat="43.94753" lon="7.19414">
        <ele>652.79998779297</ele>
        <time>2019-05-11T13:16:11.000Z</time>
      </trkpt>
      <trkpt lat="43.94753" lon="7.19414">
        <ele>654</ele>
        <time>2019-05-11T13:16:17.000Z</time>
      </trkpt>
      <trkpt lat="43.94753" lon="7.19414">
        <ele>654.79998779297</ele>
        <time>2019-05-11T13:16:21.000Z</time>
      </trkpt>
      <trkpt lat="43.94753" lon="7.19414">
        <ele>655</ele>
        <time>2019-05-11T13:16:22.000Z</time>
      </trkpt>
      <trkpt lat="43.94753" lon="7.19414">
        <ele>656.20001220703</ele>
        <time>2019-05-11T13:16:26.000Z</time>
      </trkpt>
      <trkpt lat="43.94753" lon="7.19413">
        <ele>657.20001220703</ele>
        <time>2019-05-11T13:16:29.000Z</time>
      </trkpt>
      <trkpt lat="43.94752" lon="7.19413">
        <ele>658.40002441406</ele>
        <time>2019-05-11T13:16:36.000Z</time>
      </trkpt>
      <trkpt lat="43.94752" lon="7.19413">
        <ele>658.79998779297</ele>
        <time>2019-05-11T13:16:37.000Z</time>
      </trkpt>
      <trkpt lat="43.94752" lon="7.19414">
        <ele>659.59997558594</ele>
        <time>2019-05-11T13:16:45.000Z</time>
      </trkpt>
      <trkpt lat="43.94751" lon="7.19414">
        <ele>660.79998779297</ele>
        <time>2019-05-11T13:16:48.000Z</time>
      </trkpt>
      <trkpt lat="43.94751" lon="7.19414">
        <ele>661</ele>
        <time>2019-05-11T13:16:52.000Z</time>
      </trkpt>
      <trkpt lat="43.94751" lon="7.19414">
        <ele>661.40002441406</ele>
        <time>2019-05-11T13:16:59.000Z</time>
      </trkpt>
      <trkpt lat="43.94751" lon="7.19414">
        <ele>661.79998779297</ele>
        <time>2019-05-11T13:17:09.000Z</time>
      </trkpt>
      <trkpt lat="43.94751" lon="7.19414">
        <ele>661.79998779297</ele>
        <time>2019-05-11T13:17:13.000Z</time>
      </trkpt>
      <trkpt lat="43.94751" lon="7.19415">
        <ele>660.79998779297</ele>
        <time>2019-05-11T13:17:19.000Z</time>
      </trkpt>
      <trkpt lat="43.94752" lon="7.19417">
        <ele>661.20001220703</ele>
        <time>2019-05-11T13:17:21.000Z</time>
      </trkpt>
      <trkpt lat="43.94751" lon="7.19417">
        <ele>661.40002441406</ele>
        <time>2019-05-11T13:17:23.000Z</time>
      </trkpt>
      <trkpt lat="43.94752" lon="7.19415">
        <ele>661.40002441406</ele>
        <time>2019-05-11T13:17:30.000Z</time>
      </trkpt>
      <trkpt lat="43.94754" lon="7.19412">
        <ele>662.20001220703</ele>
        <time>2019-05-11T13:17:38.000Z</time>
      </trkpt>
      <trkpt lat="43.94756" lon="7.19411">
        <ele>662.79998779297</ele>
        <time>2019-05-11T13:17:43.000Z</time>
      </trkpt>
      <trkpt lat="43.94756" lon="7.1941">
        <ele>663</ele>
        <time>2019-05-11T13:17:44.000Z</time>
      </trkpt>
      <trkpt lat="43.94761" lon="7.19408">
        <ele>663.59997558594</ele>
        <time>2019-05-11T13:17:48.000Z</time>
      </trkpt>
      <trkpt lat="43.94767" lon="7.19405">
        <ele>664</ele>
        <time>2019-05-11T13:17:52.000Z</time>
      </trkpt>
      <trkpt lat="43.9477" lon="7.19402">
        <ele>664.20001220703</ele>
        <time>2019-05-11T13:17:54.000Z</time>
      </trkpt>
      <trkpt lat="43.94774" lon="7.19382">
        <ele>664.40002441406</ele>
        <time>2019-05-11T13:17:59.000Z</time>
      </trkpt>
      <trkpt lat="43.94777" lon="7.19364">
        <ele>662.59997558594</ele>
        <time>2019-05-11T13:18:03.000Z</time>
      </trkpt>
      <trkpt lat="43.9478" lon="7.19351">
        <ele>661.40002441406</ele>
        <time>2019-05-11T13:18:05.000Z</time>
      </trkpt>
      <trkpt lat="43.94781" lon="7.19346">
        <ele>660.20001220703</ele>
        <time>2019-05-11T13:18:06.000Z</time>
      </trkpt>
      <trkpt lat="43.94781" lon="7.19344">
        <ele>659.40002441406</ele>
        <time>2019-05-11T13:18:07.000Z</time>
      </trkpt>
      <trkpt lat="43.94781" lon="7.19342">
        <ele>658.40002441406</ele>
        <time>2019-05-11T13:18:08.000Z</time>
      </trkpt>
      <trkpt lat="43.94781" lon="7.1934">
        <ele>657.40002441406</ele>
        <time>2019-05-11T13:18:10.000Z</time>
      </trkpt>
      <trkpt lat="43.9478" lon="7.19339">
        <ele>657</ele>
        <time>2019-05-11T13:18:11.000Z</time>
      </trkpt>
      <trkpt lat="43.94772" lon="7.19329">
        <ele>657.59997558594</ele>
        <time>2019-05-11T13:18:17.000Z</time>
      </trkpt>
      <trkpt lat="43.9477" lon="7.19323">
        <ele>658.59997558594</ele>
        <time>2019-05-11T13:18:20.000Z</time>
      </trkpt>
      <trkpt lat="43.94768" lon="7.19318">
        <ele>660</ele>
        <time>2019-05-11T13:18:23.000Z</time>
      </trkpt>
      <trkpt lat="43.94767" lon="7.19317">
        <ele>660.20001220703</ele>
        <time>2019-05-11T13:18:24.000Z</time>
      </trkpt>
      <trkpt lat="43.94762" lon="7.19313">
        <ele>661.20001220703</ele>
        <time>2019-05-11T13:18:28.000Z</time>
      </trkpt>
      <trkpt lat="43.94758" lon="7.19311">
        <ele>661.59997558594</ele>
        <time>2019-05-11T13:18:31.000Z</time>
      </trkpt>
      <trkpt lat="43.94754" lon="7.19308">
        <ele>662.20001220703</ele>
        <time>2019-05-11T13:18:34.000Z</time>
      </trkpt>
      <trkpt lat="43.94746" lon="7.19307">
        <ele>663</ele>
        <time>2019-05-11T13:18:40.000Z</time>
      </trkpt>
      <trkpt lat="43.94743" lon="7.19307">
        <ele>663.40002441406</ele>
        <time>2019-05-11T13:18:42.000Z</time>
      </trkpt>
      <trkpt lat="43.94736" lon="7.19305">
        <ele>664</ele>
        <time>2019-05-11T13:18:46.000Z</time>
      </trkpt>
      <trkpt lat="43.94733" lon="7.19305">
        <ele>664.59997558594</ele>
        <time>2019-05-11T13:18:48.000Z</time>
      </trkpt>
      <trkpt lat="43.94728" lon="7.19304">
        <ele>665.40002441406</ele>
        <time>2019-05-11T13:18:52.000Z</time>
      </trkpt>
      <trkpt lat="43.94726" lon="7.19304">
        <ele>665.59997558594</ele>
        <time>2019-05-11T13:18:53.000Z</time>
      </trkpt>
      <trkpt lat="43.94717" lon="7.19296">
        <ele>665.59997558594</ele>
        <time>2019-05-11T13:18:57.000Z</time>
      </trkpt>
      <trkpt lat="43.94715" lon="7.19291">
        <ele>665.59997558594</ele>
        <time>2019-05-11T13:18:58.000Z</time>
      </trkpt>
      <trkpt lat="43.94709" lon="7.19269">
        <ele>665</ele>
        <time>2019-05-11T13:19:02.000Z</time>
      </trkpt>
      <trkpt lat="43.94705" lon="7.19244">
        <ele>664.40002441406</ele>
        <time>2019-05-11T13:19:06.000Z</time>
      </trkpt>
      <trkpt lat="43.94704" lon="7.19234">
        <ele>664</ele>
        <time>2019-05-11T13:19:08.000Z</time>
      </trkpt>
      <trkpt lat="43.94703" lon="7.19205">
        <ele>664</ele>
        <time>2019-05-11T13:19:14.000Z</time>
      </trkpt>
      <trkpt lat="43.947" lon="7.19179">
        <ele>665.40002441406</ele>
        <time>2019-05-11T13:19:21.000Z</time>
      </trkpt>
      <trkpt lat="43.94694" lon="7.19152">
        <ele>666.59997558594</ele>
        <time>2019-05-11T13:19:28.000Z</time>
      </trkpt>
      <trkpt lat="43.94693" lon="7.19148">
        <ele>666.59997558594</ele>
        <time>2019-05-11T13:19:29.000Z</time>
      </trkpt>
      <trkpt lat="43.94685" lon="7.19125">
        <ele>667.79998779297</ele>
        <time>2019-05-11T13:19:36.000Z</time>
      </trkpt>
      <trkpt lat="43.94685" lon="7.19111">
        <ele>668.40002441406</ele>
        <time>2019-05-11T13:19:41.000Z</time>
      </trkpt>
      <trkpt lat="43.94694" lon="7.191">
        <ele>668.79998779297</ele>
        <time>2019-05-11T13:19:46.000Z</time>
      </trkpt>
      <trkpt lat="43.94696" lon="7.19098">
        <ele>669</ele>
        <time>2019-05-11T13:19:47.000Z</time>
      </trkpt>
      <trkpt lat="43.94709" lon="7.19081">
        <ele>669.59997558594</ele>
        <time>2019-05-11T13:19:54.000Z</time>
      </trkpt>
      <trkpt lat="43.94712" lon="7.19075">
        <ele>670</ele>
        <time>2019-05-11T13:19:56.000Z</time>
      </trkpt>
      <trkpt lat="43.94719" lon="7.19062">
        <ele>671</ele>
        <time>2019-05-11T13:20:01.000Z</time>
      </trkpt>
      <trkpt lat="43.94728" lon="7.19044">
        <ele>671.59997558594</ele>
        <time>2019-05-11T13:20:07.000Z</time>
      </trkpt>
      <trkpt lat="43.94738" lon="7.19032">
        <ele>671.79998779297</ele>
        <time>2019-05-11T13:20:13.000Z</time>
      </trkpt>
      <trkpt lat="43.9474" lon="7.1903">
        <ele>672.20001220703</ele>
        <time>2019-05-11T13:20:14.000Z</time>
      </trkpt>
      <trkpt lat="43.94744" lon="7.19026">
        <ele>673.20001220703</ele>
        <time>2019-05-11T13:20:17.000Z</time>
      </trkpt>
      <trkpt lat="43.94748" lon="7.19023">
        <ele>673.59997558594</ele>
        <time>2019-05-11T13:20:19.000Z</time>
      </trkpt>
      <trkpt lat="43.94752" lon="7.19018">
        <ele>674.40002441406</ele>
        <time>2019-05-11T13:20:23.000Z</time>
      </trkpt>
      <trkpt lat="43.94755" lon="7.19016">
        <ele>674.59997558594</ele>
        <time>2019-05-11T13:20:25.000Z</time>
      </trkpt>
      <trkpt lat="43.94758" lon="7.19014">
        <ele>675.40002441406</ele>
        <time>2019-05-11T13:20:29.000Z</time>
      </trkpt>
      <trkpt lat="43.94758" lon="7.19014">
        <ele>675.79998779297</ele>
        <time>2019-05-11T13:20:31.000Z</time>
      </trkpt>
      <trkpt lat="43.9476" lon="7.19012">
        <ele>675.59997558594</ele>
        <time>2019-05-11T13:20:38.000Z</time>
      </trkpt>
      <trkpt lat="43.94762" lon="7.19012">
        <ele>676</ele>
        <time>2019-05-11T13:20:42.000Z</time>
      </trkpt>
      <trkpt lat="43.94763" lon="7.19012">
        <ele>676.20001220703</ele>
        <time>2019-05-11T13:20:43.000Z</time>
      </trkpt>
      <trkpt lat="43.94764" lon="7.19012">
        <ele>676.40002441406</ele>
        <time>2019-05-11T13:20:45.000Z</time>
      </trkpt>
      <trkpt lat="43.94765" lon="7.19012">
        <ele>677.20001220703</ele>
        <time>2019-05-11T13:20:50.000Z</time>
      </trkpt>
      <trkpt lat="43.94766" lon="7.19012">
        <ele>677.40002441406</ele>
        <time>2019-05-11T13:20:52.000Z</time>
      </trkpt>
      <trkpt lat="43.94768" lon="7.19013">
        <ele>678.20001220703</ele>
        <time>2019-05-11T13:20:56.000Z</time>
      </trkpt>
      <trkpt lat="43.94768" lon="7.19013">
        <ele>678.59997558594</ele>
        <time>2019-05-11T13:20:58.000Z</time>
      </trkpt>
      <trkpt lat="43.9477" lon="7.19016">
        <ele>678.79998779297</ele>
        <time>2019-05-11T13:21:02.000Z</time>
      </trkpt>
      <trkpt lat="43.9477" lon="7.19016">
        <ele>679</ele>
        <time>2019-05-11T13:21:10.000Z</time>
      </trkpt>
      <trkpt lat="43.94769" lon="7.19014">
        <ele>679</ele>
        <time>2019-05-11T13:21:14.000Z</time>
      </trkpt>
      <trkpt lat="43.94768" lon="7.19012">
        <ele>678.59997558594</ele>
        <time>2019-05-11T13:21:16.000Z</time>
      </trkpt>
      <trkpt lat="43.94767" lon="7.19011">
        <ele>679</ele>
        <time>2019-05-11T13:21:22.000Z</time>
      </trkpt>
      <trkpt lat="43.94767" lon="7.19011">
        <ele>678.40002441406</ele>
        <time>2019-05-11T13:21:36.000Z</time>
      </trkpt>
      <trkpt lat="43.94766" lon="7.19013">
        <ele>678.40002441406</ele>
        <time>2019-05-11T13:21:49.000Z</time>
      </trkpt>
      <trkpt lat="43.94766" lon="7.19014">
        <ele>678</ele>
        <time>2019-05-11T13:22:01.000Z</time>
      </trkpt>
      <trkpt lat="43.94766" lon="7.19014">
        <ele>677.59997558594</ele>
        <time>2019-05-11T13:22:12.000Z</time>
      </trkpt>
      <trkpt lat="43.94766" lon="7.19014">
        <ele>677.59997558594</ele>
        <time>2019-05-11T13:22:13.000Z</time>
      </trkpt>
      <trkpt lat="43.94766" lon="7.19014">
        <ele>677.59997558594</ele>
        <time>2019-05-11T13:22:19.000Z</time>
      </trkpt>
      <trkpt lat="43.94769" lon="7.19015">
        <ele>677.79998779297</ele>
        <time>2019-05-11T13:22:36.000Z</time>
      </trkpt>
      <trkpt lat="43.94769" lon="7.19016">
        <ele>677.59997558594</ele>
        <time>2019-05-11T13:22:40.000Z</time>
      </trkpt>
      <trkpt lat="43.94768" lon="7.19014">
        <ele>678.40002441406</ele>
        <time>2019-05-11T13:22:50.000Z</time>
      </trkpt>
      <trkpt lat="43.94765" lon="7.19011">
        <ele>678</ele>
        <time>2019-05-11T13:22:57.000Z</time>
      </trkpt>
      <trkpt lat="43.94762" lon="7.19012">
        <ele>678.59997558594</ele>
        <time>2019-05-11T13:23:02.000Z</time>
      </trkpt>
      <trkpt lat="43.94762" lon="7.19011">
        <ele>678.59997558594</ele>
        <time>2019-05-11T13:23:04.000Z</time>
      </trkpt>
      <trkpt lat="43.94762" lon="7.19011">
        <ele>678.79998779297</ele>
        <time>2019-05-11T13:23:13.000Z</time>
      </trkpt>
      <trkpt lat="43.94762" lon="7.1901">
        <ele>678.59997558594</ele>
        <time>2019-05-11T13:23:21.000Z</time>
      </trkpt>
      <trkpt lat="43.94761" lon="7.1901">
        <ele>679.59997558594</ele>
        <time>2019-05-11T13:23:38.000Z</time>
      </trkpt>
      <trkpt lat="43.94761" lon="7.1901">
        <ele>679.59997558594</ele>
        <time>2019-05-11T13:23:39.000Z</time>
      </trkpt>
      <trkpt lat="43.94761" lon="7.1901">
        <ele>679.59997558594</ele>
        <time>2019-05-11T13:23:54.000Z</time>
      </trkpt>
      <trkpt lat="43.94761" lon="7.1901">
        <ele>679</ele>
        <time>2019-05-11T13:24:17.000Z</time>
      </trkpt>
      <trkpt lat="43.9476" lon="7.1901">
        <ele>678.59997558594</ele>
        <time>2019-05-11T13:24:25.000Z</time>
      </trkpt>
      <trkpt lat="43.9476" lon="7.1901">
        <ele>679.40002441406</ele>
        <time>2019-05-11T13:24:38.000Z</time>
      </trkpt>
      <trkpt lat="43.9476" lon="7.19011">
        <ele>678.40002441406</ele>
        <time>2019-05-11T13:25:04.000Z</time>
      </trkpt>
      <trkpt lat="43.94761" lon="7.19011">
        <ele>679.59997558594</ele>
        <time>2019-05-11T13:25:18.000Z</time>
      </trkpt>
      <trkpt lat="43.94761" lon="7.19011">
        <ele>679.79998779297</ele>
        <time>2019-05-11T13:25:24.000Z</time>
      </trkpt>
      <trkpt lat="43.94762" lon="7.19012">
        <ele>679.40002441406</ele>
        <time>2019-05-11T13:25:53.000Z</time>
      </trkpt>
      <trkpt lat="43.94762" lon="7.19012">
        <ele>679.59997558594</ele>
        <time>2019-05-11T13:26:02.000Z</time>
      </trkpt>
      <trkpt lat="43.94762" lon="7.19011">
        <ele>679.20001220703</ele>
        <time>2019-05-11T13:26:11.000Z</time>
      </trkpt>
      <trkpt lat="43.94762" lon="7.19011">
        <ele>679.59997558594</ele>
        <time>2019-05-11T13:26:20.000Z</time>
      </trkpt>
      <trkpt lat="43.94762" lon="7.19011">
        <ele>680</ele>
        <time>2019-05-11T13:26:33.000Z</time>
      </trkpt>
      <trkpt lat="43.94763" lon="7.19011">
        <ele>679.79998779297</ele>
        <time>2019-05-11T13:26:48.000Z</time>
      </trkpt>
      <trkpt lat="43.94764" lon="7.19012">
        <ele>679.40002441406</ele>
        <time>2019-05-11T13:26:53.000Z</time>
      </trkpt>
      <trkpt lat="43.94764" lon="7.19011">
        <ele>679.79998779297</ele>
        <time>2019-05-11T13:27:02.000Z</time>
      </trkpt>
      <trkpt lat="43.94764" lon="7.19011">
        <ele>680.20001220703</ele>
        <time>2019-05-11T13:27:20.000Z</time>
      </trkpt>
      <trkpt lat="43.94763" lon="7.19012">
        <ele>680.20001220703</ele>
        <time>2019-05-11T13:27:27.000Z</time>
      </trkpt>
      <trkpt lat="43.94766" lon="7.19012">
        <ele>679.40002441406</ele>
        <time>2019-05-11T13:27:32.000Z</time>
      </trkpt>
      <trkpt lat="43.94768" lon="7.19012">
        <ele>679.20001220703</ele>
        <time>2019-05-11T13:27:34.000Z</time>
      </trkpt>
      <trkpt lat="43.94769" lon="7.19012">
        <ele>679.20001220703</ele>
        <time>2019-05-11T13:27:37.000Z</time>
      </trkpt>
      <trkpt lat="43.94772" lon="7.1901">
        <ele>679.40002441406</ele>
        <time>2019-05-11T13:27:41.000Z</time>
      </trkpt>
      <trkpt lat="43.94787" lon="7.19008">
        <ele>679.20001220703</ele>
        <time>2019-05-11T13:27:46.000Z</time>
      </trkpt>
      <trkpt lat="43.94797" lon="7.19008">
        <ele>678.59997558594</ele>
        <time>2019-05-11T13:27:50.000Z</time>
      </trkpt>
      <trkpt lat="43.94799" lon="7.19007">
        <ele>678.40002441406</ele>
        <time>2019-05-11T13:27:51.000Z</time>
      </trkpt>
      <trkpt lat="43.94811" lon="7.18989">
        <ele>677.59997558594</ele>
        <time>2019-05-11T13:27:56.000Z</time>
      </trkpt>
      <trkpt lat="43.9481" lon="7.18956">
        <ele>676</ele>
        <time>2019-05-11T13:28:00.000Z</time>
      </trkpt>
      <trkpt lat="43.94809" lon="7.18946">
        <ele>675.40002441406</ele>
        <time>2019-05-11T13:28:01.000Z</time>
      </trkpt>
      <trkpt lat="43.94807" lon="7.18936">
        <ele>674.59997558594</ele>
        <time>2019-05-11T13:28:02.000Z</time>
      </trkpt>
      <trkpt lat="43.94805" lon="7.18918">
        <ele>673.20001220703</ele>
        <time>2019-05-11T13:28:04.000Z</time>
      </trkpt>
      <trkpt lat="43.94807" lon="7.18909">
        <ele>672.59997558594</ele>
        <time>2019-05-11T13:28:05.000Z</time>
      </trkpt>
      <trkpt lat="43.94811" lon="7.189">
        <ele>672.20001220703</ele>
        <time>2019-05-11T13:28:06.000Z</time>
      </trkpt>
      <trkpt lat="43.94821" lon="7.18884">
        <ele>670.79998779297</ele>
        <time>2019-05-11T13:28:08.000Z</time>
      </trkpt>
      <trkpt lat="43.94828" lon="7.18874">
        <ele>670.20001220703</ele>
        <time>2019-05-11T13:28:09.000Z</time>
      </trkpt>
      <trkpt lat="43.94834" lon="7.18865">
        <ele>669.40002441406</ele>
        <time>2019-05-11T13:28:10.000Z</time>
      </trkpt>
      <trkpt lat="43.9484" lon="7.18857">
        <ele>668.20001220703</ele>
        <time>2019-05-11T13:28:11.000Z</time>
      </trkpt>
      <trkpt lat="43.94851" lon="7.18841">
        <ele>666.20001220703</ele>
        <time>2019-05-11T13:28:13.000Z</time>
      </trkpt>
      <trkpt lat="43.94857" lon="7.18834">
        <ele>665.20001220703</ele>
        <time>2019-05-11T13:28:14.000Z</time>
      </trkpt>
      <trkpt lat="43.94863" lon="7.18824">
        <ele>663.59997558594</ele>
        <time>2019-05-11T13:28:16.000Z</time>
      </trkpt>
      <trkpt lat="43.94865" lon="7.1882">
        <ele>662.40002441406</ele>
        <time>2019-05-11T13:28:18.000Z</time>
      </trkpt>
      <trkpt lat="43.94865" lon="7.18818">
        <ele>662</ele>
        <time>2019-05-11T13:28:19.000Z</time>
      </trkpt>
      <trkpt lat="43.94866" lon="7.18816">
        <ele>662.20001220703</ele>
        <time>2019-05-11T13:28:24.000Z</time>
      </trkpt>
      <trkpt lat="43.94866" lon="7.18817">
        <ele>661.79998779297</ele>
        <time>2019-05-11T13:28:36.000Z</time>
      </trkpt>
      <trkpt lat="43.94864" lon="7.18815">
        <ele>662</ele>
        <time>2019-05-11T13:28:40.000Z</time>
      </trkpt>
      <trkpt lat="43.94863" lon="7.18815">
        <ele>661.79998779297</ele>
        <time>2019-05-11T13:28:41.000Z</time>
      </trkpt>
      <trkpt lat="43.9486" lon="7.18816">
        <ele>661.79998779297</ele>
        <time>2019-05-11T13:28:43.000Z</time>
      </trkpt>
      <trkpt lat="43.94859" lon="7.18819">
        <ele>661.79998779297</ele>
        <time>2019-05-11T13:28:44.000Z</time>
      </trkpt>
      <trkpt lat="43.94862" lon="7.18825">
        <ele>661.59997558594</ele>
        <time>2019-05-11T13:28:47.000Z</time>
      </trkpt>
      <trkpt lat="43.94863" lon="7.18823">
        <ele>661.79998779297</ele>
        <time>2019-05-11T13:28:50.000Z</time>
      </trkpt>
      <trkpt lat="43.94863" lon="7.18821">
        <ele>662</ele>
        <time>2019-05-11T13:28:51.000Z</time>
      </trkpt>
      <trkpt lat="43.94869" lon="7.188">
        <ele>662.20001220703</ele>
        <time>2019-05-11T13:28:57.000Z</time>
      </trkpt>
      <trkpt lat="43.94869" lon="7.18794">
        <ele>661.79998779297</ele>
        <time>2019-05-11T13:28:58.000Z</time>
      </trkpt>
      <trkpt lat="43.9487" lon="7.18786">
        <ele>661</ele>
        <time>2019-05-11T13:28:59.000Z</time>
      </trkpt>
      <trkpt lat="43.94871" lon="7.18778">
        <ele>660</ele>
        <time>2019-05-11T13:29:00.000Z</time>
      </trkpt>
      <trkpt lat="43.94872" lon="7.1877">
        <ele>658.79998779297</ele>
        <time>2019-05-11T13:29:01.000Z</time>
      </trkpt>
      <trkpt lat="43.94874" lon="7.18763">
        <ele>656.59997558594</ele>
        <time>2019-05-11T13:29:02.000Z</time>
      </trkpt>
      <trkpt lat="43.94879" lon="7.18757">
        <ele>655.59997558594</ele>
        <time>2019-05-11T13:29:03.000Z</time>
      </trkpt>
      <trkpt lat="43.94883" lon="7.18748">
        <ele>653.79998779297</ele>
        <time>2019-05-11T13:29:04.000Z</time>
      </trkpt>
      <trkpt lat="43.94885" lon="7.18739">
        <ele>652.40002441406</ele>
        <time>2019-05-11T13:29:05.000Z</time>
      </trkpt>
      <trkpt lat="43.94888" lon="7.1873">
        <ele>651.20001220703</ele>
        <time>2019-05-11T13:29:06.000Z</time>
      </trkpt>
      <trkpt lat="43.94889" lon="7.1872">
        <ele>650.20001220703</ele>
        <time>2019-05-11T13:29:07.000Z</time>
      </trkpt>
      <trkpt lat="43.94889" lon="7.18711">
        <ele>648.79998779297</ele>
        <time>2019-05-11T13:29:08.000Z</time>
      </trkpt>
      <trkpt lat="43.94889" lon="7.18701">
        <ele>647.40002441406</ele>
        <time>2019-05-11T13:29:09.000Z</time>
      </trkpt>
      <trkpt lat="43.94888" lon="7.18694">
        <ele>646.20001220703</ele>
        <time>2019-05-11T13:29:10.000Z</time>
      </trkpt>
      <trkpt lat="43.94887" lon="7.18692">
        <ele>644.40002441406</ele>
        <time>2019-05-11T13:29:11.000Z</time>
      </trkpt>
      <trkpt lat="43.94886" lon="7.1869">
        <ele>644</ele>
        <time>2019-05-11T13:29:12.000Z</time>
      </trkpt>
      <trkpt lat="43.94884" lon="7.1869">
        <ele>642.40002441406</ele>
        <time>2019-05-11T13:29:13.000Z</time>
      </trkpt>
      <trkpt lat="43.94882" lon="7.1869">
        <ele>641</ele>
        <time>2019-05-11T13:29:14.000Z</time>
      </trkpt>
      <trkpt lat="43.94881" lon="7.18688">
        <ele>639.79998779297</ele>
        <time>2019-05-11T13:29:15.000Z</time>
      </trkpt>
      <trkpt lat="43.9488" lon="7.18686">
        <ele>639</ele>
        <time>2019-05-11T13:29:16.000Z</time>
      </trkpt>
      <trkpt lat="43.9488" lon="7.18683">
        <ele>637.79998779297</ele>
        <time>2019-05-11T13:29:17.000Z</time>
      </trkpt>
      <trkpt lat="43.9488" lon="7.18674">
        <ele>636.79998779297</ele>
        <time>2019-05-11T13:29:20.000Z</time>
      </trkpt>
      <trkpt lat="43.94882" lon="7.1866">
        <ele>635.59997558594</ele>
        <time>2019-05-11T13:29:25.000Z</time>
      </trkpt>
      <trkpt lat="43.94888" lon="7.18648">
        <ele>634.40002441406</ele>
        <time>2019-05-11T13:29:29.000Z</time>
      </trkpt>
      <trkpt lat="43.94888" lon="7.18644">
        <ele>634.20001220703</ele>
        <time>2019-05-11T13:29:30.000Z</time>
      </trkpt>
      <trkpt lat="43.94888" lon="7.1864">
        <ele>633.59997558594</ele>
        <time>2019-05-11T13:29:31.000Z</time>
      </trkpt>
      <trkpt lat="43.94888" lon="7.18637">
        <ele>633.20001220703</ele>
        <time>2019-05-11T13:29:32.000Z</time>
      </trkpt>
      <trkpt lat="43.94883" lon="7.18625">
        <ele>632.20001220703</ele>
        <time>2019-05-11T13:29:35.000Z</time>
      </trkpt>
      <trkpt lat="43.9488" lon="7.18621">
        <ele>632</ele>
        <time>2019-05-11T13:29:36.000Z</time>
      </trkpt>
      <trkpt lat="43.94874" lon="7.18613">
        <ele>631</ele>
        <time>2019-05-11T13:29:39.000Z</time>
      </trkpt>
      <trkpt lat="43.94872" lon="7.18611">
        <ele>630.59997558594</ele>
        <time>2019-05-11T13:29:40.000Z</time>
      </trkpt>
      <trkpt lat="43.94871" lon="7.18608">
        <ele>629.79998779297</ele>
        <time>2019-05-11T13:29:43.000Z</time>
      </trkpt>
      <trkpt lat="43.94871" lon="7.18608">
        <ele>629.40002441406</ele>
        <time>2019-05-11T13:29:45.000Z</time>
      </trkpt>
      <trkpt lat="43.9487" lon="7.18609">
        <ele>629.40002441406</ele>
        <time>2019-05-11T13:29:55.000Z</time>
      </trkpt>
      <trkpt lat="43.9487" lon="7.18609">
        <ele>629.40002441406</ele>
        <time>2019-05-11T13:30:05.000Z</time>
      </trkpt>
      <trkpt lat="43.9487" lon="7.1861">
        <ele>629</ele>
        <time>2019-05-11T13:30:28.000Z</time>
      </trkpt>
      <trkpt lat="43.9487" lon="7.18611">
        <ele>629.20001220703</ele>
        <time>2019-05-11T13:30:49.000Z</time>
      </trkpt>
      <trkpt lat="43.94869" lon="7.18612">
        <ele>629.59997558594</ele>
        <time>2019-05-11T13:30:54.000Z</time>
      </trkpt>
      <trkpt lat="43.94869" lon="7.18612">
        <ele>629.59997558594</ele>
        <time>2019-05-11T13:31:08.000Z</time>
      </trkpt>
      <trkpt lat="43.94868" lon="7.18612">
        <ele>629.59997558594</ele>
        <time>2019-05-11T13:31:20.000Z</time>
      </trkpt>
      <trkpt lat="43.94867" lon="7.18607">
        <ele>629.59997558594</ele>
        <time>2019-05-11T13:31:29.000Z</time>
      </trkpt>
      <trkpt lat="43.94867" lon="7.18607">
        <ele>629.59997558594</ele>
        <time>2019-05-11T13:31:37.000Z</time>
      </trkpt>
      <trkpt lat="43.94867" lon="7.18607">
        <ele>629.40002441406</ele>
        <time>2019-05-11T13:31:45.000Z</time>
      </trkpt>
      <trkpt lat="43.94867" lon="7.18607">
        <ele>629.79998779297</ele>
        <time>2019-05-11T13:31:52.000Z</time>
      </trkpt>
      <trkpt lat="43.94868" lon="7.18608">
        <ele>629.79998779297</ele>
        <time>2019-05-11T13:32:00.000Z</time>
      </trkpt>
      <trkpt lat="43.94869" lon="7.18608">
        <ele>629.59997558594</ele>
        <time>2019-05-11T13:32:18.000Z</time>
      </trkpt>
      <trkpt lat="43.94869" lon="7.18608">
        <ele>629.59997558594</ele>
        <time>2019-05-11T13:32:33.000Z</time>
      </trkpt>
      <trkpt lat="43.94868" lon="7.18608">
        <ele>629.79998779297</ele>
        <time>2019-05-11T13:32:52.000Z</time>
      </trkpt>
      <trkpt lat="43.94868" lon="7.18606">
        <ele>629.40002441406</ele>
        <time>2019-05-11T13:33:14.000Z</time>
      </trkpt>
      <trkpt lat="43.94869" lon="7.18606">
        <ele>630</ele>
        <time>2019-05-11T13:33:28.000Z</time>
      </trkpt>
      <trkpt lat="43.94869" lon="7.18606">
        <ele>630.20001220703</ele>
        <time>2019-05-11T13:33:40.000Z</time>
      </trkpt>
      <trkpt lat="43.94868" lon="7.18606">
        <ele>630</ele>
        <time>2019-05-11T13:33:49.000Z</time>
      </trkpt>
      <trkpt lat="43.94868" lon="7.18605">
        <ele>630.20001220703</ele>
        <time>2019-05-11T13:33:59.000Z</time>
      </trkpt>
      <trkpt lat="43.94868" lon="7.18606">
        <ele>630.20001220703</ele>
        <time>2019-05-11T13:34:06.000Z</time>
      </trkpt>
      <trkpt lat="43.94868" lon="7.18607">
        <ele>629.20001220703</ele>
        <time>2019-05-11T13:34:14.000Z</time>
      </trkpt>
      <trkpt lat="43.94867" lon="7.18607">
        <ele>629.20001220703</ele>
        <time>2019-05-11T13:34:26.000Z</time>
      </trkpt>
      <trkpt lat="43.94867" lon="7.18607">
        <ele>630.20001220703</ele>
        <time>2019-05-11T13:34:38.000Z</time>
      </trkpt>
      <trkpt lat="43.94866" lon="7.18607">
        <ele>630</ele>
        <time>2019-05-11T13:34:49.000Z</time>
      </trkpt>
      <trkpt lat="43.94867" lon="7.18607">
        <ele>629.79998779297</ele>
        <time>2019-05-11T13:35:03.000Z</time>
      </trkpt>
      <trkpt lat="43.94867" lon="7.18607">
        <ele>629.59997558594</ele>
        <time>2019-05-11T13:35:20.000Z</time>
      </trkpt>
      <trkpt lat="43.94867" lon="7.18609">
        <ele>629.59997558594</ele>
        <time>2019-05-11T13:35:38.000Z</time>
      </trkpt>
      <trkpt lat="43.94867" lon="7.18609">
        <ele>630.20001220703</ele>
        <time>2019-05-11T13:35:46.000Z</time>
      </trkpt>
      <trkpt lat="43.94868" lon="7.18608">
        <ele>630.40002441406</ele>
        <time>2019-05-11T13:35:53.000Z</time>
      </trkpt>
      <trkpt lat="43.94868" lon="7.18609">
        <ele>630.40002441406</ele>
        <time>2019-05-11T13:36:00.000Z</time>
      </trkpt>
      <trkpt lat="43.94867" lon="7.18609">
        <ele>630.59997558594</ele>
        <time>2019-05-11T13:36:18.000Z</time>
      </trkpt>
      <trkpt lat="43.94867" lon="7.18609">
        <ele>630.40002441406</ele>
        <time>2019-05-11T13:36:23.000Z</time>
      </trkpt>
      <trkpt lat="43.94867" lon="7.1861">
        <ele>630.40002441406</ele>
        <time>2019-05-11T13:36:29.000Z</time>
      </trkpt>
      <trkpt lat="43.94865" lon="7.18609">
        <ele>630.40002441406</ele>
        <time>2019-05-11T13:36:30.000Z</time>
      </trkpt>
      <trkpt lat="43.94866" lon="7.18609">
        <ele>630.40002441406</ele>
        <time>2019-05-11T13:36:32.000Z</time>
      </trkpt>
      <trkpt lat="43.94866" lon="7.18609">
        <ele>630</ele>
        <time>2019-05-11T13:36:41.000Z</time>
      </trkpt>
      <trkpt lat="43.94867" lon="7.1861">
        <ele>630.20001220703</ele>
        <time>2019-05-11T13:36:52.000Z</time>
      </trkpt>
      <trkpt lat="43.94867" lon="7.1861">
        <ele>630.20001220703</ele>
        <time>2019-05-11T13:37:02.000Z</time>
      </trkpt>
      <trkpt lat="43.94867" lon="7.1861">
        <ele>630</ele>
        <time>2019-05-11T13:37:15.000Z</time>
      </trkpt>
      <trkpt lat="43.94867" lon="7.18609">
        <ele>629.79998779297</ele>
        <time>2019-05-11T13:37:27.000Z</time>
      </trkpt>
      <trkpt lat="43.94868" lon="7.1861">
        <ele>630</ele>
        <time>2019-05-11T13:37:36.000Z</time>
      </trkpt>
      <trkpt lat="43.94868" lon="7.1861">
        <ele>630.20001220703</ele>
        <time>2019-05-11T13:37:48.000Z</time>
      </trkpt>
      <trkpt lat="43.94868" lon="7.18609">
        <ele>630.20001220703</ele>
        <time>2019-05-11T13:38:01.000Z</time>
      </trkpt>
      <trkpt lat="43.94869" lon="7.1861">
        <ele>629.59997558594</ele>
        <time>2019-05-11T13:38:14.000Z</time>
      </trkpt>
      <trkpt lat="43.9487" lon="7.1861">
        <ele>629.79998779297</ele>
        <time>2019-05-11T13:38:27.000Z</time>
      </trkpt>
      <trkpt lat="43.9487" lon="7.18609">
        <ele>630.79998779297</ele>
        <time>2019-05-11T13:38:31.000Z</time>
      </trkpt>
      <trkpt lat="43.9487" lon="7.18609">
        <ele>631</ele>
        <time>2019-05-11T13:38:34.000Z</time>
      </trkpt>
      <trkpt lat="43.9487" lon="7.18609">
        <ele>631.79998779297</ele>
        <time>2019-05-11T13:38:43.000Z</time>
      </trkpt>
      <trkpt lat="43.9487" lon="7.18609">
        <ele>631.59997558594</ele>
        <time>2019-05-11T13:38:45.000Z</time>
      </trkpt>
      <trkpt lat="43.9487" lon="7.18609">
        <ele>630.79998779297</ele>
        <time>2019-05-11T13:38:50.000Z</time>
      </trkpt>
      <trkpt lat="43.9487" lon="7.18608">
        <ele>630.59997558594</ele>
        <time>2019-05-11T13:38:53.000Z</time>
      </trkpt>
      <trkpt lat="43.94868" lon="7.18604">
        <ele>630.40002441406</ele>
        <time>2019-05-11T13:38:58.000Z</time>
      </trkpt>
      <trkpt lat="43.94867" lon="7.18602">
        <ele>630.20001220703</ele>
        <time>2019-05-11T13:39:00.000Z</time>
      </trkpt>
      <trkpt lat="43.94868" lon="7.186">
        <ele>630.20001220703</ele>
        <time>2019-05-11T13:39:01.000Z</time>
      </trkpt>
      <trkpt lat="43.94869" lon="7.18599">
        <ele>630.20001220703</ele>
        <time>2019-05-11T13:39:04.000Z</time>
      </trkpt>
      <trkpt lat="43.94867" lon="7.186">
        <ele>630.40002441406</ele>
        <time>2019-05-11T13:39:12.000Z</time>
      </trkpt>
      <trkpt lat="43.94868" lon="7.18603">
        <ele>630.40002441406</ele>
        <time>2019-05-11T13:39:19.000Z</time>
      </trkpt>
      <trkpt lat="43.94867" lon="7.18603">
        <ele>630.20001220703</ele>
        <time>2019-05-11T13:39:28.000Z</time>
      </trkpt>
      <trkpt lat="43.94868" lon="7.18605">
        <ele>630.20001220703</ele>
        <time>2019-05-11T13:39:35.000Z</time>
      </trkpt>
      <trkpt lat="43.94869" lon="7.18608">
        <ele>630.20001220703</ele>
        <time>2019-05-11T13:39:36.000Z</time>
      </trkpt>
      <trkpt lat="43.94874" lon="7.18616">
        <ele>629.79998779297</ele>
        <time>2019-05-11T13:39:39.000Z</time>
      </trkpt>
      <trkpt lat="43.94877" lon="7.18619">
        <ele>630</ele>
        <time>2019-05-11T13:39:40.000Z</time>
      </trkpt>
      <trkpt lat="43.94887" lon="7.1864">
        <ele>630.79998779297</ele>
        <time>2019-05-11T13:39:45.000Z</time>
      </trkpt>
      <trkpt lat="43.94885" lon="7.18648">
        <ele>631.40002441406</ele>
        <time>2019-05-11T13:39:47.000Z</time>
      </trkpt>
      <trkpt lat="43.94883" lon="7.18651">
        <ele>631.59997558594</ele>
        <time>2019-05-11T13:39:48.000Z</time>
      </trkpt>
      <trkpt lat="43.94882" lon="7.18653">
        <ele>631.79998779297</ele>
        <time>2019-05-11T13:39:49.000Z</time>
      </trkpt>
      <trkpt lat="43.94879" lon="7.18659">
        <ele>633.20001220703</ele>
        <time>2019-05-11T13:39:53.000Z</time>
      </trkpt>
      <trkpt lat="43.94879" lon="7.18661">
        <ele>633.59997558594</ele>
        <time>2019-05-11T13:39:54.000Z</time>
      </trkpt>
      <trkpt lat="43.94878" lon="7.18669">
        <ele>634.40002441406</ele>
        <time>2019-05-11T13:39:58.000Z</time>
      </trkpt>
      <trkpt lat="43.94876" lon="7.18679">
        <ele>635</ele>
        <time>2019-05-11T13:40:02.000Z</time>
      </trkpt>
      <trkpt lat="43.94876" lon="7.18686">
        <ele>635.20001220703</ele>
        <time>2019-05-11T13:40:04.000Z</time>
      </trkpt>
      <trkpt lat="43.94875" lon="7.18694">
        <ele>635.59997558594</ele>
        <time>2019-05-11T13:40:07.000Z</time>
      </trkpt>
      <trkpt lat="43.94872" lon="7.18706">
        <ele>636.59997558594</ele>
        <time>2019-05-11T13:40:12.000Z</time>
      </trkpt>
      <trkpt lat="43.94868" lon="7.18723">
        <ele>637.59997558594</ele>
        <time>2019-05-11T13:40:17.000Z</time>
      </trkpt>
      <trkpt lat="43.94869" lon="7.18726">
        <ele>638.40002441406</ele>
        <time>2019-05-11T13:40:19.000Z</time>
      </trkpt>
      <trkpt lat="43.94869" lon="7.18725">
        <ele>638.79998779297</ele>
        <time>2019-05-11T13:40:20.000Z</time>
      </trkpt>
      <trkpt lat="43.9487" lon="7.18722">
        <ele>639.20001220703</ele>
        <time>2019-05-11T13:40:21.000Z</time>
      </trkpt>
      <trkpt lat="43.94873" lon="7.18704">
        <ele>639.40002441406</ele>
        <time>2019-05-11T13:40:25.000Z</time>
      </trkpt>
      <trkpt lat="43.94875" lon="7.18697">
        <ele>639.40002441406</ele>
        <time>2019-05-11T13:40:26.000Z</time>
      </trkpt>
      <trkpt lat="43.94876" lon="7.18689">
        <ele>639.20001220703</ele>
        <time>2019-05-11T13:40:27.000Z</time>
      </trkpt>
      <trkpt lat="43.94877" lon="7.18671">
        <ele>638.59997558594</ele>
        <time>2019-05-11T13:40:29.000Z</time>
      </trkpt>
      <trkpt lat="43.94879" lon="7.18662">
        <ele>638.20001220703</ele>
        <time>2019-05-11T13:40:30.000Z</time>
      </trkpt>
      <trkpt lat="43.94882" lon="7.18655">
        <ele>637.79998779297</ele>
        <time>2019-05-11T13:40:31.000Z</time>
      </trkpt>
      <trkpt lat="43.94885" lon="7.1864">
        <ele>636.79998779297</ele>
        <time>2019-05-11T13:40:33.000Z</time>
      </trkpt>
      <trkpt lat="43.94879" lon="7.18624">
        <ele>635.40002441406</ele>
        <time>2019-05-11T13:40:35.000Z</time>
      </trkpt>
      <trkpt lat="43.94873" lon="7.18616">
        <ele>634.20001220703</ele>
        <time>2019-05-11T13:40:37.000Z</time>
      </trkpt>
      <trkpt lat="43.94872" lon="7.18615">
        <ele>633.40002441406</ele>
        <time>2019-05-11T13:40:38.000Z</time>
      </trkpt>
      <trkpt lat="43.94871" lon="7.18614">
        <ele>633</ele>
        <time>2019-05-11T13:40:39.000Z</time>
      </trkpt>
      <trkpt lat="43.94871" lon="7.18613">
        <ele>631.79998779297</ele>
        <time>2019-05-11T13:40:42.000Z</time>
      </trkpt>
      <trkpt lat="43.94871" lon="7.18613">
        <ele>631.40002441406</ele>
        <time>2019-05-11T13:40:47.000Z</time>
      </trkpt>
      <trkpt lat="43.9487" lon="7.18613">
        <ele>631.40002441406</ele>
        <time>2019-05-11T13:40:48.000Z</time>
      </trkpt>
      <trkpt lat="43.9487" lon="7.18613">
        <ele>631.20001220703</ele>
        <time>2019-05-11T13:40:50.000Z</time>
      </trkpt>
      <trkpt lat="43.9487" lon="7.18613">
        <ele>630.59997558594</ele>
        <time>2019-05-11T13:40:55.000Z</time>
      </trkpt>
      <trkpt lat="43.9487" lon="7.18613">
        <ele>630.59997558594</ele>
        <time>2019-05-11T13:40:57.000Z</time>
      </trkpt>
      <trkpt lat="43.9487" lon="7.18613">
        <ele>630</ele>
        <time>2019-05-11T13:41:04.000Z</time>
      </trkpt>
      <trkpt lat="43.94869" lon="7.18612">
        <ele>630.79998779297</ele>
        <time>2019-05-11T13:41:11.000Z</time>
      </trkpt>
      <trkpt lat="43.94869" lon="7.18612">
        <ele>631</ele>
        <time>2019-05-11T13:41:22.000Z</time>
      </trkpt>
      <trkpt lat="43.94869" lon="7.18612">
        <ele>630.20001220703</ele>
        <time>2019-05-11T13:41:28.000Z</time>
      </trkpt>
      <trkpt lat="43.94869" lon="7.18613">
        <ele>629.79998779297</ele>
        <time>2019-05-11T13:41:40.000Z</time>
      </trkpt>
      <trkpt lat="43.9487" lon="7.18613">
        <ele>630.20001220703</ele>
        <time>2019-05-11T13:41:47.000Z</time>
      </trkpt>
      <trkpt lat="43.9487" lon="7.18612">
        <ele>630</ele>
        <time>2019-05-11T13:41:54.000Z</time>
      </trkpt>
      <trkpt lat="43.94869" lon="7.18613">
        <ele>629.59997558594</ele>
        <time>2019-05-11T13:42:01.000Z</time>
      </trkpt>
      <trkpt lat="43.94869" lon="7.18613">
        <ele>629.79998779297</ele>
        <time>2019-05-11T13:42:02.000Z</time>
      </trkpt>
      <trkpt lat="43.94869" lon="7.18613">
        <ele>629.79998779297</ele>
        <time>2019-05-11T13:42:08.000Z</time>
      </trkpt>
      <trkpt lat="43.94868" lon="7.18613">
        <ele>630</ele>
        <time>2019-05-11T13:42:14.000Z</time>
      </trkpt>
      <trkpt lat="43.94869" lon="7.18613">
        <ele>630</ele>
        <time>2019-05-11T13:42:23.000Z</time>
      </trkpt>
      <trkpt lat="43.94869" lon="7.18613">
        <ele>630</ele>
        <time>2019-05-11T13:42:31.000Z</time>
      </trkpt>
      <trkpt lat="43.9487" lon="7.18613">
        <ele>630.79998779297</ele>
        <time>2019-05-11T13:42:38.000Z</time>
      </trkpt>
      <trkpt lat="43.9487" lon="7.18612">
        <ele>631</ele>
        <time>2019-05-11T13:42:52.000Z</time>
      </trkpt>
      <trkpt lat="43.9487" lon="7.18612">
        <ele>630.40002441406</ele>
        <time>2019-05-11T13:43:05.000Z</time>
      </trkpt>
      <trkpt lat="43.94869" lon="7.18613">
        <ele>630</ele>
        <time>2019-05-11T13:43:14.000Z</time>
      </trkpt>
      <trkpt lat="43.94869" lon="7.18611">
        <ele>630.20001220703</ele>
        <time>2019-05-11T13:43:21.000Z</time>
      </trkpt>
      <trkpt lat="43.94865" lon="7.18608">
        <ele>629.79998779297</ele>
        <time>2019-05-11T13:43:26.000Z</time>
      </trkpt>
      <trkpt lat="43.94865" lon="7.18606">
        <ele>629.59997558594</ele>
        <time>2019-05-11T13:43:27.000Z</time>
      </trkpt>
      <trkpt lat="43.94864" lon="7.18603">
        <ele>629.59997558594</ele>
        <time>2019-05-11T13:43:30.000Z</time>
      </trkpt>
      <trkpt lat="43.94864" lon="7.18603">
        <ele>629.79998779297</ele>
        <time>2019-05-11T13:43:32.000Z</time>
      </trkpt>
      <trkpt lat="43.94863" lon="7.18603">
        <ele>630.59997558594</ele>
        <time>2019-05-11T13:43:37.000Z</time>
      </trkpt>
      <trkpt lat="43.94863" lon="7.18604">
        <ele>630.59997558594</ele>
        <time>2019-05-11T13:43:39.000Z</time>
      </trkpt>
      <trkpt lat="43.94863" lon="7.18604">
        <ele>630.20001220703</ele>
        <time>2019-05-11T13:43:45.000Z</time>
      </trkpt>
      <trkpt lat="43.94863" lon="7.18605">
        <ele>629.59997558594</ele>
        <time>2019-05-11T13:43:50.000Z</time>
      </trkpt>
      <trkpt lat="43.94862" lon="7.18607">
        <ele>630.40002441406</ele>
        <time>2019-05-11T13:43:54.000Z</time>
      </trkpt>
      <trkpt lat="43.94862" lon="7.18608">
        <ele>630.59997558594</ele>
        <time>2019-05-11T13:43:55.000Z</time>
      </trkpt>
      <trkpt lat="43.94862" lon="7.18612">
        <ele>630.79998779297</ele>
        <time>2019-05-11T13:43:57.000Z</time>
      </trkpt>
      <trkpt lat="43.94863" lon="7.18616">
        <ele>630.59997558594</ele>
        <time>2019-05-11T13:43:59.000Z</time>
      </trkpt>
      <trkpt lat="43.94865" lon="7.18619">
        <ele>630.59997558594</ele>
        <time>2019-05-11T13:44:01.000Z</time>
      </trkpt>
      <trkpt lat="43.9487" lon="7.18623">
        <ele>630.20001220703</ele>
        <time>2019-05-11T13:44:04.000Z</time>
      </trkpt>
      <trkpt lat="43.94875" lon="7.18632">
        <ele>629.59997558594</ele>
        <time>2019-05-11T13:44:07.000Z</time>
      </trkpt>
      <trkpt lat="43.94877" lon="7.18632">
        <ele>629.59997558594</ele>
        <time>2019-05-11T13:44:08.000Z</time>
      </trkpt>
      <trkpt lat="43.94887" lon="7.18636">
        <ele>629</ele>
        <time>2019-05-11T13:44:12.000Z</time>
      </trkpt>
      <trkpt lat="43.94888" lon="7.18637">
        <ele>628.40002441406</ele>
        <time>2019-05-11T13:44:14.000Z</time>
      </trkpt>
      <trkpt lat="43.94888" lon="7.18637">
        <ele>628</ele>
        <time>2019-05-11T13:44:15.000Z</time>
      </trkpt>
      <trkpt lat="43.94888" lon="7.18636">
        <ele>627.20001220703</ele>
        <time>2019-05-11T13:44:20.000Z</time>
      </trkpt>
      <trkpt lat="43.94887" lon="7.18635">
        <ele>628.40002441406</ele>
        <time>2019-05-11T13:44:28.000Z</time>
      </trkpt>
      <trkpt lat="43.94887" lon="7.18636">
        <ele>628.59997558594</ele>
        <time>2019-05-11T13:44:29.000Z</time>
      </trkpt>
      <trkpt lat="43.94894" lon="7.18643">
        <ele>629.20001220703</ele>
        <time>2019-05-11T13:44:34.000Z</time>
      </trkpt>
      <trkpt lat="43.94912" lon="7.18656">
        <ele>627.20001220703</ele>
        <time>2019-05-11T13:44:39.000Z</time>
      </trkpt>
      <trkpt lat="43.94926" lon="7.18671">
        <ele>625.20001220703</ele>
        <time>2019-05-11T13:44:42.000Z</time>
      </trkpt>
      <trkpt lat="43.94936" lon="7.18681">
        <ele>623.79998779297</ele>
        <time>2019-05-11T13:44:44.000Z</time>
      </trkpt>
      <trkpt lat="43.94946" lon="7.18694">
        <ele>622.20001220703</ele>
        <time>2019-05-11T13:44:46.000Z</time>
      </trkpt>
      <trkpt lat="43.94957" lon="7.18706">
        <ele>621.20001220703</ele>
        <time>2019-05-11T13:44:48.000Z</time>
      </trkpt>
      <trkpt lat="43.94962" lon="7.1871">
        <ele>620.59997558594</ele>
        <time>2019-05-11T13:44:49.000Z</time>
      </trkpt>
      <trkpt lat="43.94967" lon="7.18711">
        <ele>619.59997558594</ele>
        <time>2019-05-11T13:44:50.000Z</time>
      </trkpt>
      <trkpt lat="43.94981" lon="7.18713">
        <ele>617.59997558594</ele>
        <time>2019-05-11T13:44:52.000Z</time>
      </trkpt>
      <trkpt lat="43.94986" lon="7.18715">
        <ele>616.79998779297</ele>
        <time>2019-05-11T13:44:53.000Z</time>
      </trkpt>
      <trkpt lat="43.94992" lon="7.18719">
        <ele>615.40002441406</ele>
        <time>2019-05-11T13:44:54.000Z</time>
      </trkpt>
      <trkpt lat="43.94997" lon="7.18724">
        <ele>614</ele>
        <time>2019-05-11T13:44:55.000Z</time>
      </trkpt>
      <trkpt lat="43.95001" lon="7.18726">
        <ele>612.79998779297</ele>
        <time>2019-05-11T13:44:56.000Z</time>
      </trkpt>
      <trkpt lat="43.95006" lon="7.18725">
        <ele>611</ele>
        <time>2019-05-11T13:44:57.000Z</time>
      </trkpt>
      <trkpt lat="43.95011" lon="7.18723">
        <ele>609.40002441406</ele>
        <time>2019-05-11T13:44:58.000Z</time>
      </trkpt>
      <trkpt lat="43.95017" lon="7.18723">
        <ele>608.20001220703</ele>
        <time>2019-05-11T13:44:59.000Z</time>
      </trkpt>
      <trkpt lat="43.95027" lon="7.1873">
        <ele>606.20001220703</ele>
        <time>2019-05-11T13:45:01.000Z</time>
      </trkpt>
      <trkpt lat="43.95033" lon="7.1874">
        <ele>604.59997558594</ele>
        <time>2019-05-11T13:45:03.000Z</time>
      </trkpt>
      <trkpt lat="43.95037" lon="7.18741">
        <ele>603.20001220703</ele>
        <time>2019-05-11T13:45:04.000Z</time>
      </trkpt>
      <trkpt lat="43.95043" lon="7.1874">
        <ele>601.79998779297</ele>
        <time>2019-05-11T13:45:05.000Z</time>
      </trkpt>
      <trkpt lat="43.9505" lon="7.18738">
        <ele>600.40002441406</ele>
        <time>2019-05-11T13:45:06.000Z</time>
      </trkpt>
      <trkpt lat="43.95057" lon="7.18735">
        <ele>598.79998779297</ele>
        <time>2019-05-11T13:45:07.000Z</time>
      </trkpt>
      <trkpt lat="43.95069" lon="7.18731">
        <ele>597</ele>
        <time>2019-05-11T13:45:09.000Z</time>
      </trkpt>
      <trkpt lat="43.95074" lon="7.18733">
        <ele>596</ele>
        <time>2019-05-11T13:45:10.000Z</time>
      </trkpt>
      <trkpt lat="43.95079" lon="7.18736">
        <ele>594.59997558594</ele>
        <time>2019-05-11T13:45:11.000Z</time>
      </trkpt>
      <trkpt lat="43.9509" lon="7.18737">
        <ele>593</ele>
        <time>2019-05-11T13:45:13.000Z</time>
      </trkpt>
      <trkpt lat="43.95105" lon="7.18722">
        <ele>591.59997558594</ele>
        <time>2019-05-11T13:45:16.000Z</time>
      </trkpt>
      <trkpt lat="43.95111" lon="7.18719">
        <ele>591.40002441406</ele>
        <time>2019-05-11T13:45:17.000Z</time>
      </trkpt>
      <trkpt lat="43.95122" lon="7.18719">
        <ele>589.40002441406</ele>
        <time>2019-05-11T13:45:19.000Z</time>
      </trkpt>
      <trkpt lat="43.9513" lon="7.18727">
        <ele>587.59997558594</ele>
        <time>2019-05-11T13:45:21.000Z</time>
      </trkpt>
      <trkpt lat="43.95134" lon="7.18735">
        <ele>585.79998779297</ele>
        <time>2019-05-11T13:45:22.000Z</time>
      </trkpt>
      <trkpt lat="43.95138" lon="7.18742">
        <ele>584.59997558594</ele>
        <time>2019-05-11T13:45:23.000Z</time>
      </trkpt>
      <trkpt lat="43.95145" lon="7.18761">
        <ele>582.40002441406</ele>
        <time>2019-05-11T13:45:25.000Z</time>
      </trkpt>
      <trkpt lat="43.95146" lon="7.18771">
        <ele>580.40002441406</ele>
        <time>2019-05-11T13:45:26.000Z</time>
      </trkpt>
      <trkpt lat="43.95148" lon="7.1879">
        <ele>578.79998779297</ele>
        <time>2019-05-11T13:45:28.000Z</time>
      </trkpt>
      <trkpt lat="43.95148" lon="7.18798">
        <ele>577.20001220703</ele>
        <time>2019-05-11T13:45:29.000Z</time>
      </trkpt>
      <trkpt lat="43.9515" lon="7.18801">
        <ele>576.20001220703</ele>
        <time>2019-05-11T13:45:30.000Z</time>
      </trkpt>
      <trkpt lat="43.95155" lon="7.18805">
        <ele>575.40002441406</ele>
        <time>2019-05-11T13:45:32.000Z</time>
      </trkpt>
      <trkpt lat="43.95159" lon="7.18805">
        <ele>575</ele>
        <time>2019-05-11T13:45:33.000Z</time>
      </trkpt>
      <trkpt lat="43.95175" lon="7.18795">
        <ele>573.79998779297</ele>
        <time>2019-05-11T13:45:37.000Z</time>
      </trkpt>
      <trkpt lat="43.95182" lon="7.18787">
        <ele>573.40002441406</ele>
        <time>2019-05-11T13:45:39.000Z</time>
      </trkpt>
      <trkpt lat="43.95186" lon="7.18785">
        <ele>572.20001220703</ele>
        <time>2019-05-11T13:45:40.000Z</time>
      </trkpt>
      <trkpt lat="43.95196" lon="7.18777">
        <ele>570.79998779297</ele>
        <time>2019-05-11T13:45:42.000Z</time>
      </trkpt>
      <trkpt lat="43.95201" lon="7.18774">
        <ele>569.59997558594</ele>
        <time>2019-05-11T13:45:43.000Z</time>
      </trkpt>
      <trkpt lat="43.95207" lon="7.18771">
        <ele>568.59997558594</ele>
        <time>2019-05-11T13:45:44.000Z</time>
      </trkpt>
      <trkpt lat="43.95213" lon="7.18769">
        <ele>567.40002441406</ele>
        <time>2019-05-11T13:45:45.000Z</time>
      </trkpt>
      <trkpt lat="43.95219" lon="7.18767">
        <ele>566.20001220703</ele>
        <time>2019-05-11T13:45:46.000Z</time>
      </trkpt>
      <trkpt lat="43.95225" lon="7.18766">
        <ele>565.20001220703</ele>
        <time>2019-05-11T13:45:47.000Z</time>
      </trkpt>
      <trkpt lat="43.95233" lon="7.18772">
        <ele>563.40002441406</ele>
        <time>2019-05-11T13:45:49.000Z</time>
      </trkpt>
      <trkpt lat="43.95236" lon="7.18776">
        <ele>563</ele>
        <time>2019-05-11T13:45:50.000Z</time>
      </trkpt>
      <trkpt lat="43.95246" lon="7.18789">
        <ele>562</ele>
        <time>2019-05-11T13:45:53.000Z</time>
      </trkpt>
      <trkpt lat="43.95249" lon="7.18794">
        <ele>561.79998779297</ele>
        <time>2019-05-11T13:45:54.000Z</time>
      </trkpt>
      <trkpt lat="43.95257" lon="7.18792">
        <ele>561.20001220703</ele>
        <time>2019-05-11T13:45:56.000Z</time>
      </trkpt>
      <trkpt lat="43.95261" lon="7.1879">
        <ele>560.79998779297</ele>
        <time>2019-05-11T13:45:57.000Z</time>
      </trkpt>
      <trkpt lat="43.95277" lon="7.18791">
        <ele>559.20001220703</ele>
        <time>2019-05-11T13:46:00.000Z</time>
      </trkpt>
      <trkpt lat="43.95282" lon="7.18791">
        <ele>558.40002441406</ele>
        <time>2019-05-11T13:46:01.000Z</time>
      </trkpt>
      <trkpt lat="43.95284" lon="7.1879">
        <ele>557.59997558594</ele>
        <time>2019-05-11T13:46:02.000Z</time>
      </trkpt>
      <trkpt lat="43.95286" lon="7.18788">
        <ele>556.79998779297</ele>
        <time>2019-05-11T13:46:03.000Z</time>
      </trkpt>
      <trkpt lat="43.95286" lon="7.18785">
        <ele>556</ele>
        <time>2019-05-11T13:46:04.000Z</time>
      </trkpt>
      <trkpt lat="43.95287" lon="7.1878">
        <ele>555</ele>
        <time>2019-05-11T13:46:06.000Z</time>
      </trkpt>
      <trkpt lat="43.95291" lon="7.18769">
        <ele>553.79998779297</ele>
        <time>2019-05-11T13:46:09.000Z</time>
      </trkpt>
      <trkpt lat="43.95292" lon="7.18766">
        <ele>553.40002441406</ele>
        <time>2019-05-11T13:46:10.000Z</time>
      </trkpt>
      <trkpt lat="43.95298" lon="7.1875">
        <ele>552.59997558594</ele>
        <time>2019-05-11T13:46:14.000Z</time>
      </trkpt>
      <trkpt lat="43.95302" lon="7.18742">
        <ele>552.20001220703</ele>
        <time>2019-05-11T13:46:16.000Z</time>
      </trkpt>
      <trkpt lat="43.95311" lon="7.1873">
        <ele>552</ele>
        <time>2019-05-11T13:46:19.000Z</time>
      </trkpt>
      <trkpt lat="43.95315" lon="7.18727">
        <ele>551.59997558594</ele>
        <time>2019-05-11T13:46:20.000Z</time>
      </trkpt>
      <trkpt lat="43.9532" lon="7.18724">
        <ele>551.20001220703</ele>
        <time>2019-05-11T13:46:21.000Z</time>
      </trkpt>
      <trkpt lat="43.9533" lon="7.18719">
        <ele>550.20001220703</ele>
        <time>2019-05-11T13:46:23.000Z</time>
      </trkpt>
      <trkpt lat="43.95335" lon="7.18716">
        <ele>549.40002441406</ele>
        <time>2019-05-11T13:46:24.000Z</time>
      </trkpt>
      <trkpt lat="43.95338" lon="7.18713">
        <ele>548.79998779297</ele>
        <time>2019-05-11T13:46:25.000Z</time>
      </trkpt>
      <trkpt lat="43.95346" lon="7.18713">
        <ele>547.20001220703</ele>
        <time>2019-05-11T13:46:27.000Z</time>
      </trkpt>
      <trkpt lat="43.9535" lon="7.18712">
        <ele>546</ele>
        <time>2019-05-11T13:46:28.000Z</time>
      </trkpt>
      <trkpt lat="43.95354" lon="7.18712">
        <ele>545</ele>
        <time>2019-05-11T13:46:29.000Z</time>
      </trkpt>
      <trkpt lat="43.95357" lon="7.1871">
        <ele>543.79998779297</ele>
        <time>2019-05-11T13:46:30.000Z</time>
      </trkpt>
      <trkpt lat="43.95359" lon="7.18708">
        <ele>542.79998779297</ele>
        <time>2019-05-11T13:46:31.000Z</time>
      </trkpt>
      <trkpt lat="43.95361" lon="7.18707">
        <ele>541.79998779297</ele>
        <time>2019-05-11T13:46:32.000Z</time>
      </trkpt>
      <trkpt lat="43.95361" lon="7.18704">
        <ele>540.79998779297</ele>
        <time>2019-05-11T13:46:33.000Z</time>
      </trkpt>
      <trkpt lat="43.9536" lon="7.18703">
        <ele>539.59997558594</ele>
        <time>2019-05-11T13:46:34.000Z</time>
      </trkpt>
      <trkpt lat="43.95361" lon="7.18696">
        <ele>538.20001220703</ele>
        <time>2019-05-11T13:46:36.000Z</time>
      </trkpt>
      <trkpt lat="43.95363" lon="7.18692">
        <ele>538</ele>
        <time>2019-05-11T13:46:37.000Z</time>
      </trkpt>
      <trkpt lat="43.95367" lon="7.18687">
        <ele>537</ele>
        <time>2019-05-11T13:46:39.000Z</time>
      </trkpt>
      <trkpt lat="43.9537" lon="7.18684">
        <ele>536.20001220703</ele>
        <time>2019-05-11T13:46:40.000Z</time>
      </trkpt>
      <trkpt lat="43.95372" lon="7.18682">
        <ele>535.40002441406</ele>
        <time>2019-05-11T13:46:41.000Z</time>
      </trkpt>
      <trkpt lat="43.95378" lon="7.18677">
        <ele>534.20001220703</ele>
        <time>2019-05-11T13:46:43.000Z</time>
      </trkpt>
      <trkpt lat="43.95384" lon="7.18674">
        <ele>533.59997558594</ele>
        <time>2019-05-11T13:46:45.000Z</time>
      </trkpt>
      <trkpt lat="43.95387" lon="7.18672">
        <ele>532.79998779297</ele>
        <time>2019-05-11T13:46:46.000Z</time>
      </trkpt>
      <trkpt lat="43.95393" lon="7.18668">
        <ele>531.79998779297</ele>
        <time>2019-05-11T13:46:48.000Z</time>
      </trkpt>
      <trkpt lat="43.95398" lon="7.18669">
        <ele>531</ele>
        <time>2019-05-11T13:46:49.000Z</time>
      </trkpt>
      <trkpt lat="43.95402" lon="7.18668">
        <ele>530.59997558594</ele>
        <time>2019-05-11T13:46:50.000Z</time>
      </trkpt>
      <trkpt lat="43.9541" lon="7.18666">
        <ele>528.79998779297</ele>
        <time>2019-05-11T13:46:52.000Z</time>
      </trkpt>
      <trkpt lat="43.95419" lon="7.18662">
        <ele>527.40002441406</ele>
        <time>2019-05-11T13:46:54.000Z</time>
      </trkpt>
      <trkpt lat="43.95423" lon="7.18654">
        <ele>526</ele>
        <time>2019-05-11T13:46:56.000Z</time>
      </trkpt>
      <trkpt lat="43.95423" lon="7.18651">
        <ele>525.79998779297</ele>
        <time>2019-05-11T13:46:57.000Z</time>
      </trkpt>
      <trkpt lat="43.95421" lon="7.18642">
        <ele>526.59997558594</ele>
        <time>2019-05-11T13:47:02.000Z</time>
      </trkpt>
      <trkpt lat="43.95418" lon="7.18641">
        <ele>527</ele>
        <time>2019-05-11T13:47:04.000Z</time>
      </trkpt>
      <trkpt lat="43.95414" lon="7.1864">
        <ele>527.40002441406</ele>
        <time>2019-05-11T13:47:06.000Z</time>
      </trkpt>
      <trkpt lat="43.95409" lon="7.18637">
        <ele>528</ele>
        <time>2019-05-11T13:47:09.000Z</time>
      </trkpt>
      <trkpt lat="43.95405" lon="7.18636">
        <ele>528.79998779297</ele>
        <time>2019-05-11T13:47:15.000Z</time>
      </trkpt>
      <trkpt lat="43.95399" lon="7.18639">
        <ele>529</ele>
        <time>2019-05-11T13:47:21.000Z</time>
      </trkpt>
      <trkpt lat="43.95399" lon="7.18639">
        <ele>529</ele>
        <time>2019-05-11T13:47:22.000Z</time>
      </trkpt>
      <trkpt lat="43.95395" lon="7.18641">
        <ele>529.59997558594</ele>
        <time>2019-05-11T13:47:26.000Z</time>
      </trkpt>
      <trkpt lat="43.95394" lon="7.18642">
        <ele>529.79998779297</ele>
        <time>2019-05-11T13:47:28.000Z</time>
      </trkpt>
      <trkpt lat="43.95392" lon="7.18644">
        <ele>530.20001220703</ele>
        <time>2019-05-11T13:47:30.000Z</time>
      </trkpt>
      <trkpt lat="43.95388" lon="7.18645">
        <ele>531</ele>
        <time>2019-05-11T13:47:34.000Z</time>
      </trkpt>
      <trkpt lat="43.95387" lon="7.18645">
        <ele>531.20001220703</ele>
        <time>2019-05-11T13:47:36.000Z</time>
      </trkpt>
      <trkpt lat="43.95383" lon="7.18647">
        <ele>532</ele>
        <time>2019-05-11T13:47:41.000Z</time>
      </trkpt>
      <trkpt lat="43.95381" lon="7.18647">
        <ele>532.20001220703</ele>
        <time>2019-05-11T13:47:43.000Z</time>
      </trkpt>
      <trkpt lat="43.95374" lon="7.1865">
        <ele>533.20001220703</ele>
        <time>2019-05-11T13:47:49.000Z</time>
      </trkpt>
      <trkpt lat="43.95374" lon="7.1865">
        <ele>533.40002441406</ele>
        <time>2019-05-11T13:47:50.000Z</time>
      </trkpt>
      <trkpt lat="43.9537" lon="7.18649">
        <ele>534.40002441406</ele>
        <time>2019-05-11T13:47:55.000Z</time>
      </trkpt>
      <trkpt lat="43.95367" lon="7.1865">
        <ele>535</ele>
        <time>2019-05-11T13:47:59.000Z</time>
      </trkpt>
      <trkpt lat="43.95364" lon="7.18649">
        <ele>535.40002441406</ele>
        <time>2019-05-11T13:48:01.000Z</time>
      </trkpt>
      <trkpt lat="43.95362" lon="7.18648">
        <ele>536.59997558594</ele>
        <time>2019-05-11T13:48:04.000Z</time>
      </trkpt>
      <trkpt lat="43.95361" lon="7.18647">
        <ele>537</ele>
        <time>2019-05-11T13:48:06.000Z</time>
      </trkpt>
      <trkpt lat="43.95358" lon="7.18645">
        <ele>537.79998779297</ele>
        <time>2019-05-11T13:48:10.000Z</time>
      </trkpt>
      <trkpt lat="43.95356" lon="7.18644">
        <ele>538.20001220703</ele>
        <time>2019-05-11T13:48:13.000Z</time>
      </trkpt>
      <trkpt lat="43.95356" lon="7.18644">
        <ele>538.79998779297</ele>
        <time>2019-05-11T13:48:15.000Z</time>
      </trkpt>
      <trkpt lat="43.95353" lon="7.18642">
        <ele>539.59997558594</ele>
        <time>2019-05-11T13:48:20.000Z</time>
      </trkpt>
      <trkpt lat="43.95352" lon="7.18641">
        <ele>539.79998779297</ele>
        <time>2019-05-11T13:48:21.000Z</time>
      </trkpt>
      <trkpt lat="43.95349" lon="7.18639">
        <ele>540.79998779297</ele>
        <time>2019-05-11T13:48:26.000Z</time>
      </trkpt>
      <trkpt lat="43.95349" lon="7.18639">
        <ele>541.20001220703</ele>
        <time>2019-05-11T13:48:28.000Z</time>
      </trkpt>
      <trkpt lat="43.95344" lon="7.18636">
        <ele>542</ele>
        <time>2019-05-11T13:48:33.000Z</time>
      </trkpt>
      <trkpt lat="43.95343" lon="7.18634">
        <ele>542.59997558594</ele>
        <time>2019-05-11T13:48:36.000Z</time>
      </trkpt>
      <trkpt lat="43.95341" lon="7.18633">
        <ele>543</ele>
        <time>2019-05-11T13:48:39.000Z</time>
      </trkpt>
      <trkpt lat="43.95339" lon="7.18631">
        <ele>543.79998779297</ele>
        <time>2019-05-11T13:48:43.000Z</time>
      </trkpt>
      <trkpt lat="43.95338" lon="7.1863">
        <ele>544</ele>
        <time>2019-05-11T13:48:45.000Z</time>
      </trkpt>
      <trkpt lat="43.95334" lon="7.18627">
        <ele>545</ele>
        <time>2019-05-11T13:48:51.000Z</time>
      </trkpt>
      <trkpt lat="43.95335" lon="7.18628">
        <ele>545.20001220703</ele>
        <time>2019-05-11T13:48:52.000Z</time>
      </trkpt>
      <trkpt lat="43.95334" lon="7.18626">
        <ele>545.40002441406</ele>
        <time>2019-05-11T13:48:57.000Z</time>
      </trkpt>
      <trkpt lat="43.95335" lon="7.18625">
        <ele>545.59997558594</ele>
        <time>2019-05-11T13:49:08.000Z</time>
      </trkpt>
      <trkpt lat="43.95336" lon="7.18622">
        <ele>545.59997558594</ele>
        <time>2019-05-11T13:49:16.000Z</time>
      </trkpt>
      <trkpt lat="43.95337" lon="7.18619">
        <ele>546.20001220703</ele>
        <time>2019-05-11T13:49:22.000Z</time>
      </trkpt>
      <trkpt lat="43.95335" lon="7.18618">
        <ele>546.59997558594</ele>
        <time>2019-05-11T13:49:24.000Z</time>
      </trkpt>
      <trkpt lat="43.95334" lon="7.18617">
        <ele>547.40002441406</ele>
        <time>2019-05-11T13:49:26.000Z</time>
      </trkpt>
      <trkpt lat="43.95331" lon="7.18615">
        <ele>548.40002441406</ele>
        <time>2019-05-11T13:49:30.000Z</time>
      </trkpt>
      <trkpt lat="43.9533" lon="7.18615">
        <ele>548.59997558594</ele>
        <time>2019-05-11T13:49:32.000Z</time>
      </trkpt>
      <trkpt lat="43.95326" lon="7.18615">
        <ele>549.20001220703</ele>
        <time>2019-05-11T13:49:40.000Z</time>
      </trkpt>
      <trkpt lat="43.95325" lon="7.18615">
        <ele>549.59997558594</ele>
        <time>2019-05-11T13:49:42.000Z</time>
      </trkpt>
      <trkpt lat="43.95322" lon="7.18614">
        <ele>550.59997558594</ele>
        <time>2019-05-11T13:49:46.000Z</time>
      </trkpt>
      <trkpt lat="43.95321" lon="7.18613">
        <ele>551</ele>
        <time>2019-05-11T13:49:48.000Z</time>
      </trkpt>
      <trkpt lat="43.9532" lon="7.1861">
        <ele>551.79998779297</ele>
        <time>2019-05-11T13:49:51.000Z</time>
      </trkpt>
      <trkpt lat="43.95318" lon="7.18606">
        <ele>552.59997558594</ele>
        <time>2019-05-11T13:49:56.000Z</time>
      </trkpt>
      <trkpt lat="43.95317" lon="7.18604">
        <ele>553</ele>
        <time>2019-05-11T13:49:58.000Z</time>
      </trkpt>
      <trkpt lat="43.95315" lon="7.186">
        <ele>554</ele>
        <time>2019-05-11T13:50:04.000Z</time>
      </trkpt>
      <trkpt lat="43.95314" lon="7.18599">
        <ele>554.20001220703</ele>
        <time>2019-05-11T13:50:05.000Z</time>
      </trkpt>
      <trkpt lat="43.95312" lon="7.18597">
        <ele>554.79998779297</ele>
        <time>2019-05-11T13:50:11.000Z</time>
      </trkpt>
      <trkpt lat="43.95313" lon="7.18595">
        <ele>555.20001220703</ele>
        <time>2019-05-11T13:50:16.000Z</time>
      </trkpt>
      <trkpt lat="43.95313" lon="7.18595">
        <ele>555.20001220703</ele>
        <time>2019-05-11T13:50:17.000Z</time>
      </trkpt>
      <trkpt lat="43.95313" lon="7.18594">
        <ele>555.40002441406</ele>
        <time>2019-05-11T13:50:27.000Z</time>
      </trkpt>
      <trkpt lat="43.95314" lon="7.18592">
        <ele>555.20001220703</ele>
        <time>2019-05-11T13:50:43.000Z</time>
      </trkpt>
      <trkpt lat="43.95316" lon="7.18588">
        <ele>555.40002441406</ele>
        <time>2019-05-11T13:50:49.000Z</time>
      </trkpt>
      <trkpt lat="43.95318" lon="7.18585">
        <ele>556.20001220703</ele>
        <time>2019-05-11T13:50:52.000Z</time>
      </trkpt>
      <trkpt lat="43.95318" lon="7.18584">
        <ele>556.40002441406</ele>
        <time>2019-05-11T13:50:55.000Z</time>
      </trkpt>
      <trkpt lat="43.95321" lon="7.18575">
        <ele>557.20001220703</ele>
        <time>2019-05-11T13:51:00.000Z</time>
      </trkpt>
      <trkpt lat="43.95321" lon="7.18573">
        <ele>557.40002441406</ele>
        <time>2019-05-11T13:51:02.000Z</time>
      </trkpt>
      <trkpt lat="43.95322" lon="7.18569">
        <ele>557.59997558594</ele>
        <time>2019-05-11T13:51:05.000Z</time>
      </trkpt>
      <trkpt lat="43.95324" lon="7.18561">
        <ele>558.40002441406</ele>
        <time>2019-05-11T13:51:11.000Z</time>
      </trkpt>
      <trkpt lat="43.95324" lon="7.18557">
        <ele>559</ele>
        <time>2019-05-11T13:51:14.000Z</time>
      </trkpt>
      <trkpt lat="43.95324" lon="7.18557">
        <ele>559.59997558594</ele>
        <time>2019-05-11T13:51:17.000Z</time>
      </trkpt>
      <trkpt lat="43.95324" lon="7.18556">
        <ele>559.59997558594</ele>
        <time>2019-05-11T13:51:18.000Z</time>
      </trkpt>
      <trkpt lat="43.95323" lon="7.18553">
        <ele>559.79998779297</ele>
        <time>2019-05-11T13:51:21.000Z</time>
      </trkpt>
      <trkpt lat="43.95322" lon="7.18549">
        <ele>559.79998779297</ele>
        <time>2019-05-11T13:51:23.000Z</time>
      </trkpt>
      <trkpt lat="43.9532" lon="7.18545">
        <ele>560.20001220703</ele>
        <time>2019-05-11T13:51:25.000Z</time>
      </trkpt>
      <trkpt lat="43.95318" lon="7.1854">
        <ele>560.59997558594</ele>
        <time>2019-05-11T13:51:27.000Z</time>
      </trkpt>
      <trkpt lat="43.95315" lon="7.1853">
        <ele>561.79998779297</ele>
        <time>2019-05-11T13:51:31.000Z</time>
      </trkpt>
      <trkpt lat="43.95318" lon="7.18518">
        <ele>563</ele>
        <time>2019-05-11T13:51:36.000Z</time>
      </trkpt>
      <trkpt lat="43.95323" lon="7.18506">
        <ele>563.40002441406</ele>
        <time>2019-05-11T13:51:42.000Z</time>
      </trkpt>
      <trkpt lat="43.95326" lon="7.18498">
        <ele>564</ele>
        <time>2019-05-11T13:51:46.000Z</time>
      </trkpt>
      <trkpt lat="43.95327" lon="7.18493">
        <ele>564.40002441406</ele>
        <time>2019-05-11T13:51:48.000Z</time>
      </trkpt>
      <trkpt lat="43.95328" lon="7.18489">
        <ele>564.79998779297</ele>
        <time>2019-05-11T13:51:50.000Z</time>
      </trkpt>
      <trkpt lat="43.95328" lon="7.18483">
        <ele>565.20001220703</ele>
        <time>2019-05-11T13:51:53.000Z</time>
      </trkpt>
      <trkpt lat="43.95327" lon="7.18473">
        <ele>566.20001220703</ele>
        <time>2019-05-11T13:51:58.000Z</time>
      </trkpt>
      <trkpt lat="43.95326" lon="7.18471">
        <ele>566.40002441406</ele>
        <time>2019-05-11T13:51:59.000Z</time>
      </trkpt>
      <trkpt lat="43.95324" lon="7.18462">
        <ele>567.20001220703</ele>
        <time>2019-05-11T13:52:05.000Z</time>
      </trkpt>
      <trkpt lat="43.95323" lon="7.1846">
        <ele>567.79998779297</ele>
        <time>2019-05-11T13:52:10.000Z</time>
      </trkpt>
      <trkpt lat="43.9532" lon="7.18456">
        <ele>568.20001220703</ele>
        <time>2019-05-11T13:52:16.000Z</time>
      </trkpt>
      <trkpt lat="43.95319" lon="7.18456">
        <ele>568.40002441406</ele>
        <time>2019-05-11T13:52:17.000Z</time>
      </trkpt>
      <trkpt lat="43.95313" lon="7.18456">
        <ele>569.20001220703</ele>
        <time>2019-05-11T13:52:23.000Z</time>
      </trkpt>
      <trkpt lat="43.95313" lon="7.18456">
        <ele>569.40002441406</ele>
        <time>2019-05-11T13:52:24.000Z</time>
      </trkpt>
      <trkpt lat="43.95312" lon="7.18456">
        <ele>570.20001220703</ele>
        <time>2019-05-11T13:52:28.000Z</time>
      </trkpt>
      <trkpt lat="43.95311" lon="7.18456">
        <ele>570.40002441406</ele>
        <time>2019-05-11T13:52:29.000Z</time>
      </trkpt>
      <trkpt lat="43.95306" lon="7.18454">
        <ele>571</ele>
        <time>2019-05-11T13:52:34.000Z</time>
      </trkpt>
      <trkpt lat="43.95305" lon="7.18454">
        <ele>571</ele>
        <time>2019-05-11T13:52:35.000Z</time>
      </trkpt>
      <trkpt lat="43.95303" lon="7.18451">
        <ele>571.40002441406</ele>
        <time>2019-05-11T13:52:38.000Z</time>
      </trkpt>
      <trkpt lat="43.95299" lon="7.18447">
        <ele>572.20001220703</ele>
        <time>2019-05-11T13:52:44.000Z</time>
      </trkpt>
      <trkpt lat="43.95298" lon="7.18445">
        <ele>572.59997558594</ele>
        <time>2019-05-11T13:52:46.000Z</time>
      </trkpt>
      <trkpt lat="43.95294" lon="7.18441">
        <ele>573.20001220703</ele>
        <time>2019-05-11T13:52:51.000Z</time>
      </trkpt>
      <trkpt lat="43.95292" lon="7.1844">
        <ele>573.40002441406</ele>
        <time>2019-05-11T13:52:54.000Z</time>
      </trkpt>
      <trkpt lat="43.9529" lon="7.18439">
        <ele>573.59997558594</ele>
        <time>2019-05-11T13:52:56.000Z</time>
      </trkpt>
      <trkpt lat="43.95289" lon="7.18439">
        <ele>574</ele>
        <time>2019-05-11T13:52:58.000Z</time>
      </trkpt>
      <trkpt lat="43.95285" lon="7.18437">
        <ele>574.79998779297</ele>
        <time>2019-05-11T13:53:04.000Z</time>
      </trkpt>
      <trkpt lat="43.95282" lon="7.18436">
        <ele>576</ele>
        <time>2019-05-11T13:53:08.000Z</time>
      </trkpt>
      <trkpt lat="43.95281" lon="7.18436">
        <ele>576.20001220703</ele>
        <time>2019-05-11T13:53:09.000Z</time>
      </trkpt>
      <trkpt lat="43.95279" lon="7.18435">
        <ele>577</ele>
        <time>2019-05-11T13:53:12.000Z</time>
      </trkpt>
      <trkpt lat="43.95276" lon="7.18432">
        <ele>577.79998779297</ele>
        <time>2019-05-11T13:53:16.000Z</time>
      </trkpt>
      <trkpt lat="43.95276" lon="7.18432">
        <ele>578</ele>
        <time>2019-05-11T13:53:17.000Z</time>
      </trkpt>
      <trkpt lat="43.95271" lon="7.18429">
        <ele>579.20001220703</ele>
        <time>2019-05-11T13:53:23.000Z</time>
      </trkpt>
      <trkpt lat="43.95268" lon="7.18429">
        <ele>579.79998779297</ele>
        <time>2019-05-11T13:53:26.000Z</time>
      </trkpt>
      <trkpt lat="43.95266" lon="7.18428">
        <ele>580.20001220703</ele>
        <time>2019-05-11T13:53:29.000Z</time>
      </trkpt>
      <trkpt lat="43.95263" lon="7.18429">
        <ele>581.20001220703</ele>
        <time>2019-05-11T13:53:34.000Z</time>
      </trkpt>
      <trkpt lat="43.95263" lon="7.1843">
        <ele>581.40002441406</ele>
        <time>2019-05-11T13:53:35.000Z</time>
      </trkpt>
      <trkpt lat="43.95259" lon="7.18431">
        <ele>582.40002441406</ele>
        <time>2019-05-11T13:53:40.000Z</time>
      </trkpt>
      <trkpt lat="43.95258" lon="7.1843">
        <ele>582.40002441406</ele>
        <time>2019-05-11T13:53:41.000Z</time>
      </trkpt>
      <trkpt lat="43.95256" lon="7.18428">
        <ele>583.40002441406</ele>
        <time>2019-05-11T13:53:45.000Z</time>
      </trkpt>
      <trkpt lat="43.95255" lon="7.18428">
        <ele>583.59997558594</ele>
        <time>2019-05-11T13:53:46.000Z</time>
      </trkpt>
      <trkpt lat="43.95252" lon="7.18425">
        <ele>584.59997558594</ele>
        <time>2019-05-11T13:53:51.000Z</time>
      </trkpt>
      <trkpt lat="43.95251" lon="7.18424">
        <ele>585</ele>
        <time>2019-05-11T13:53:53.000Z</time>
      </trkpt>
      <trkpt lat="43.95248" lon="7.18419">
        <ele>585.79998779297</ele>
        <time>2019-05-11T13:53:58.000Z</time>
      </trkpt>
      <trkpt lat="43.95246" lon="7.18413">
        <ele>586.40002441406</ele>
        <time>2019-05-11T13:54:03.000Z</time>
      </trkpt>
      <trkpt lat="43.95245" lon="7.18412">
        <ele>586.79998779297</ele>
        <time>2019-05-11T13:54:05.000Z</time>
      </trkpt>
      <trkpt lat="43.95243" lon="7.18407">
        <ele>587.79998779297</ele>
        <time>2019-05-11T13:54:10.000Z</time>
      </trkpt>
      <trkpt lat="43.9524" lon="7.184">
        <ele>588.79998779297</ele>
        <time>2019-05-11T13:54:18.000Z</time>
      </trkpt>
      <trkpt lat="43.95239" lon="7.18399">
        <ele>589</ele>
        <time>2019-05-11T13:54:19.000Z</time>
      </trkpt>
      <trkpt lat="43.95235" lon="7.18391">
        <ele>590</ele>
        <time>2019-05-11T13:54:26.000Z</time>
      </trkpt>
      <trkpt lat="43.95233" lon="7.18381">
        <ele>591.20001220703</ele>
        <time>2019-05-11T13:54:34.000Z</time>
      </trkpt>
      <trkpt lat="43.95231" lon="7.18373">
        <ele>592.40002441406</ele>
        <time>2019-05-11T13:54:41.000Z</time>
      </trkpt>
      <trkpt lat="43.95229" lon="7.18366">
        <ele>593.59997558594</ele>
        <time>2019-05-11T13:54:46.000Z</time>
      </trkpt>
      <trkpt lat="43.95229" lon="7.18362">
        <ele>593.79998779297</ele>
        <time>2019-05-11T13:54:49.000Z</time>
      </trkpt>
      <trkpt lat="43.95228" lon="7.18356">
        <ele>594.59997558594</ele>
        <time>2019-05-11T13:54:55.000Z</time>
      </trkpt>
      <trkpt lat="43.95228" lon="7.18353">
        <ele>595</ele>
        <time>2019-05-11T13:54:58.000Z</time>
      </trkpt>
      <trkpt lat="43.95226" lon="7.18345">
        <ele>595.79998779297</ele>
        <time>2019-05-11T13:55:05.000Z</time>
      </trkpt>
      <trkpt lat="43.95226" lon="7.18343">
        <ele>596.59997558594</ele>
        <time>2019-05-11T13:55:08.000Z</time>
      </trkpt>
      <trkpt lat="43.95226" lon="7.18341">
        <ele>597</ele>
        <time>2019-05-11T13:55:09.000Z</time>
      </trkpt>
      <trkpt lat="43.95226" lon="7.18334">
        <ele>598.20001220703</ele>
        <time>2019-05-11T13:55:15.000Z</time>
      </trkpt>
      <trkpt lat="43.95227" lon="7.18333">
        <ele>598.20001220703</ele>
        <time>2019-05-11T13:55:16.000Z</time>
      </trkpt>
      <trkpt lat="43.95229" lon="7.18329">
        <ele>599.20001220703</ele>
        <time>2019-05-11T13:55:23.000Z</time>
      </trkpt>
      <trkpt lat="43.9523" lon="7.18323">
        <ele>600.40002441406</ele>
        <time>2019-05-11T13:55:29.000Z</time>
      </trkpt>
      <trkpt lat="43.95231" lon="7.18322">
        <ele>600.79998779297</ele>
        <time>2019-05-11T13:55:31.000Z</time>
      </trkpt>
      <trkpt lat="43.95232" lon="7.18319">
        <ele>601.40002441406</ele>
        <time>2019-05-11T13:55:35.000Z</time>
      </trkpt>
      <trkpt lat="43.95235" lon="7.18314">
        <ele>601.79998779297</ele>
        <time>2019-05-11T13:55:40.000Z</time>
      </trkpt>
      <trkpt lat="43.95236" lon="7.18312">
        <ele>602.40002441406</ele>
        <time>2019-05-11T13:55:43.000Z</time>
      </trkpt>
      <trkpt lat="43.95236" lon="7.18308">
        <ele>602.59997558594</ele>
        <time>2019-05-11T13:55:46.000Z</time>
      </trkpt>
      <trkpt lat="43.95237" lon="7.18303">
        <ele>603.59997558594</ele>
        <time>2019-05-11T13:55:51.000Z</time>
      </trkpt>
      <trkpt lat="43.95243" lon="7.18293">
        <ele>604.20001220703</ele>
        <time>2019-05-11T13:55:57.000Z</time>
      </trkpt>
      <trkpt lat="43.95246" lon="7.1829">
        <ele>604.59997558594</ele>
        <time>2019-05-11T13:55:59.000Z</time>
      </trkpt>
      <trkpt lat="43.95252" lon="7.18284">
        <ele>604.79998779297</ele>
        <time>2019-05-11T13:56:04.000Z</time>
      </trkpt>
      <trkpt lat="43.9526" lon="7.18273">
        <ele>604.40002441406</ele>
        <time>2019-05-11T13:56:10.000Z</time>
      </trkpt>
      <trkpt lat="43.95269" lon="7.18261">
        <ele>605.40002441406</ele>
        <time>2019-05-11T13:56:16.000Z</time>
      </trkpt>
      <trkpt lat="43.95275" lon="7.18253">
        <ele>605.79998779297</ele>
        <time>2019-05-11T13:56:19.000Z</time>
      </trkpt>
      <trkpt lat="43.95279" lon="7.18245">
        <ele>606.40002441406</ele>
        <time>2019-05-11T13:56:22.000Z</time>
      </trkpt>
      <trkpt lat="43.95291" lon="7.18226">
        <ele>606</ele>
        <time>2019-05-11T13:56:29.000Z</time>
      </trkpt>
      <trkpt lat="43.95291" lon="7.18224">
        <ele>606</ele>
        <time>2019-05-11T13:56:30.000Z</time>
      </trkpt>
      <trkpt lat="43.95292" lon="7.18217">
        <ele>606.59997558594</ele>
        <time>2019-05-11T13:56:33.000Z</time>
      </trkpt>
      <trkpt lat="43.95292" lon="7.18214">
        <ele>607</ele>
        <time>2019-05-11T13:56:34.000Z</time>
      </trkpt>
      <trkpt lat="43.95292" lon="7.18209">
        <ele>608</ele>
        <time>2019-05-11T13:56:36.000Z</time>
      </trkpt>
      <trkpt lat="43.95291" lon="7.18205">
        <ele>608.79998779297</ele>
        <time>2019-05-11T13:56:38.000Z</time>
      </trkpt>
      <trkpt lat="43.9529" lon="7.182">
        <ele>609</ele>
        <time>2019-05-11T13:56:39.000Z</time>
      </trkpt>
      <trkpt lat="43.95287" lon="7.18183">
        <ele>609.20001220703</ele>
        <time>2019-05-11T13:56:42.000Z</time>
      </trkpt>
      <trkpt lat="43.95287" lon="7.18177">
        <ele>608.79998779297</ele>
        <time>2019-05-11T13:56:43.000Z</time>
      </trkpt>
      <trkpt lat="43.95277" lon="7.1816">
        <ele>607.59997558594</ele>
        <time>2019-05-11T13:56:46.000Z</time>
      </trkpt>
      <trkpt lat="43.95267" lon="7.18158">
        <ele>606.20001220703</ele>
        <time>2019-05-11T13:56:48.000Z</time>
      </trkpt>
      <trkpt lat="43.95263" lon="7.18161">
        <ele>605.59997558594</ele>
        <time>2019-05-11T13:56:49.000Z</time>
      </trkpt>
      <trkpt lat="43.95252" lon="7.18167">
        <ele>605</ele>
        <time>2019-05-11T13:56:51.000Z</time>
      </trkpt>
      <trkpt lat="43.95247" lon="7.18168">
        <ele>605</ele>
        <time>2019-05-11T13:56:52.000Z</time>
      </trkpt>
      <trkpt lat="43.95244" lon="7.18167">
        <ele>605.20001220703</ele>
        <time>2019-05-11T13:56:53.000Z</time>
      </trkpt>
      <trkpt lat="43.95236" lon="7.18157">
        <ele>605.20001220703</ele>
        <time>2019-05-11T13:56:56.000Z</time>
      </trkpt>
      <trkpt lat="43.95222" lon="7.18153">
        <ele>604.40002441406</ele>
        <time>2019-05-11T13:57:00.000Z</time>
      </trkpt>
      <trkpt lat="43.95203" lon="7.18148">
        <ele>604</ele>
        <time>2019-05-11T13:57:05.000Z</time>
      </trkpt>
      <trkpt lat="43.95199" lon="7.18146">
        <ele>603.79998779297</ele>
        <time>2019-05-11T13:57:06.000Z</time>
      </trkpt>
      <trkpt lat="43.95185" lon="7.18135">
        <ele>603.40002441406</ele>
        <time>2019-05-11T13:57:10.000Z</time>
      </trkpt>
      <trkpt lat="43.95184" lon="7.18132">
        <ele>603.40002441406</ele>
        <time>2019-05-11T13:57:11.000Z</time>
      </trkpt>
      <trkpt lat="43.95186" lon="7.18113">
        <ele>603.20001220703</ele>
        <time>2019-05-11T13:57:16.000Z</time>
      </trkpt>
      <trkpt lat="43.95187" lon="7.1811">
        <ele>602.59997558594</ele>
        <time>2019-05-11T13:57:17.000Z</time>
      </trkpt>
      <trkpt lat="43.95189" lon="7.18104">
        <ele>601.40002441406</ele>
        <time>2019-05-11T13:57:19.000Z</time>
      </trkpt>
      <trkpt lat="43.9519" lon="7.18096">
        <ele>600.59997558594</ele>
        <time>2019-05-11T13:57:21.000Z</time>
      </trkpt>
      <trkpt lat="43.95196" lon="7.18078">
        <ele>600.20001220703</ele>
        <time>2019-05-11T13:57:25.000Z</time>
      </trkpt>
      <trkpt lat="43.95197" lon="7.18075">
        <ele>600</ele>
        <time>2019-05-11T13:57:26.000Z</time>
      </trkpt>
      <trkpt lat="43.95201" lon="7.18063">
        <ele>599.20001220703</ele>
        <time>2019-05-11T13:57:29.000Z</time>
      </trkpt>
      <trkpt lat="43.95205" lon="7.18056">
        <ele>598.40002441406</ele>
        <time>2019-05-11T13:57:31.000Z</time>
      </trkpt>
      <trkpt lat="43.95216" lon="7.18041">
        <ele>598.59997558594</ele>
        <time>2019-05-11T13:57:37.000Z</time>
      </trkpt>
      <trkpt lat="43.95221" lon="7.18022">
        <ele>599.40002441406</ele>
        <time>2019-05-11T13:57:43.000Z</time>
      </trkpt>
      <trkpt lat="43.95227" lon="7.18002">
        <ele>599.20001220703</ele>
        <time>2019-05-11T13:57:47.000Z</time>
      </trkpt>
      <trkpt lat="43.95231" lon="7.1799">
        <ele>600.40002441406</ele>
        <time>2019-05-11T13:57:51.000Z</time>
      </trkpt>
      <trkpt lat="43.95232" lon="7.17987">
        <ele>601.20001220703</ele>
        <time>2019-05-11T13:57:52.000Z</time>
      </trkpt>
      <trkpt lat="43.95234" lon="7.17982">
        <ele>601.79998779297</ele>
        <time>2019-05-11T13:57:53.000Z</time>
      </trkpt>
      <trkpt lat="43.95238" lon="7.17967">
        <ele>601.79998779297</ele>
        <time>2019-05-11T13:57:57.000Z</time>
      </trkpt>
      <trkpt lat="43.95246" lon="7.1795">
        <ele>600.79998779297</ele>
        <time>2019-05-11T13:58:02.000Z</time>
      </trkpt>
      <trkpt lat="43.95257" lon="7.17939">
        <ele>602.40002441406</ele>
        <time>2019-05-11T13:58:09.000Z</time>
      </trkpt>
      <trkpt lat="43.95259" lon="7.17937">
        <ele>602.79998779297</ele>
        <time>2019-05-11T13:58:11.000Z</time>
      </trkpt>
      <trkpt lat="43.95259" lon="7.17936">
        <ele>603.79998779297</ele>
        <time>2019-05-11T13:58:15.000Z</time>
      </trkpt>
      <trkpt lat="43.95262" lon="7.17931">
        <ele>604.79998779297</ele>
        <time>2019-05-11T13:58:21.000Z</time>
      </trkpt>
      <trkpt lat="43.95264" lon="7.17921">
        <ele>604.79998779297</ele>
        <time>2019-05-11T13:58:25.000Z</time>
      </trkpt>
      <trkpt lat="43.95264" lon="7.17919">
        <ele>604.59997558594</ele>
        <time>2019-05-11T13:58:26.000Z</time>
      </trkpt>
      <trkpt lat="43.95263" lon="7.17917">
        <ele>604.40002441406</ele>
        <time>2019-05-11T13:58:28.000Z</time>
      </trkpt>
      <trkpt lat="43.95256" lon="7.17912">
        <ele>604.40002441406</ele>
        <time>2019-05-11T13:58:30.000Z</time>
      </trkpt>
      <trkpt lat="43.9525" lon="7.17901">
        <ele>605</ele>
        <time>2019-05-11T13:58:34.000Z</time>
      </trkpt>
      <trkpt lat="43.95249" lon="7.17899">
        <ele>605.40002441406</ele>
        <time>2019-05-11T13:58:35.000Z</time>
      </trkpt>
      <trkpt lat="43.95249" lon="7.17894">
        <ele>606.40002441406</ele>
        <time>2019-05-11T13:58:37.000Z</time>
      </trkpt>
      <trkpt lat="43.9525" lon="7.1789">
        <ele>607.79998779297</ele>
        <time>2019-05-11T13:58:39.000Z</time>
      </trkpt>
      <trkpt lat="43.95251" lon="7.17884">
        <ele>609.20001220703</ele>
        <time>2019-05-11T13:58:41.000Z</time>
      </trkpt>
      <trkpt lat="43.95251" lon="7.17881">
        <ele>609.59997558594</ele>
        <time>2019-05-11T13:58:42.000Z</time>
      </trkpt>
      <trkpt lat="43.95251" lon="7.17865">
        <ele>610.20001220703</ele>
        <time>2019-05-11T13:58:48.000Z</time>
      </trkpt>
      <trkpt lat="43.95251" lon="7.17862">
        <ele>610.40002441406</ele>
        <time>2019-05-11T13:58:49.000Z</time>
      </trkpt>
      <trkpt lat="43.95249" lon="7.17841">
        <ele>610.40002441406</ele>
        <time>2019-05-11T13:58:55.000Z</time>
      </trkpt>
      <trkpt lat="43.95247" lon="7.1782">
        <ele>610.40002441406</ele>
        <time>2019-05-11T13:59:00.000Z</time>
      </trkpt>
      <trkpt lat="43.95242" lon="7.17816">
        <ele>610.40002441406</ele>
        <time>2019-05-11T13:59:02.000Z</time>
      </trkpt>
      <trkpt lat="43.95239" lon="7.17813">
        <ele>610.40002441406</ele>
        <time>2019-05-11T13:59:03.000Z</time>
      </trkpt>
      <trkpt lat="43.95228" lon="7.17805">
        <ele>609.59997558594</ele>
        <time>2019-05-11T13:59:06.000Z</time>
      </trkpt>
      <trkpt lat="43.95221" lon="7.178">
        <ele>609.20001220703</ele>
        <time>2019-05-11T13:59:08.000Z</time>
      </trkpt>
      <trkpt lat="43.95217" lon="7.17796">
        <ele>609.20001220703</ele>
        <time>2019-05-11T13:59:09.000Z</time>
      </trkpt>
      <trkpt lat="43.95202" lon="7.17786">
        <ele>609.20001220703</ele>
        <time>2019-05-11T13:59:14.000Z</time>
      </trkpt>
      <trkpt lat="43.95185" lon="7.17781">
        <ele>608</ele>
        <time>2019-05-11T13:59:18.000Z</time>
      </trkpt>
      <trkpt lat="43.95181" lon="7.17783">
        <ele>607.59997558594</ele>
        <time>2019-05-11T13:59:19.000Z</time>
      </trkpt>
      <trkpt lat="43.95171" lon="7.17788">
        <ele>607</ele>
        <time>2019-05-11T13:59:21.000Z</time>
      </trkpt>
      <trkpt lat="43.95166" lon="7.1779">
        <ele>606.79998779297</ele>
        <time>2019-05-11T13:59:22.000Z</time>
      </trkpt>
      <trkpt lat="43.95157" lon="7.17787">
        <ele>605.59997558594</ele>
        <time>2019-05-11T13:59:24.000Z</time>
      </trkpt>
      <trkpt lat="43.95152" lon="7.17785">
        <ele>605</ele>
        <time>2019-05-11T13:59:25.000Z</time>
      </trkpt>
      <trkpt lat="43.95147" lon="7.17782">
        <ele>604.40002441406</ele>
        <time>2019-05-11T13:59:26.000Z</time>
      </trkpt>
      <trkpt lat="43.95141" lon="7.17783">
        <ele>602.79998779297</ele>
        <time>2019-05-11T13:59:28.000Z</time>
      </trkpt>
      <trkpt lat="43.95137" lon="7.17785">
        <ele>602.40002441406</ele>
        <time>2019-05-11T13:59:29.000Z</time>
      </trkpt>
      <trkpt lat="43.9513" lon="7.17788">
        <ele>601.79998779297</ele>
        <time>2019-05-11T13:59:30.000Z</time>
      </trkpt>
      <trkpt lat="43.95117" lon="7.17789">
        <ele>600</ele>
        <time>2019-05-11T13:59:32.000Z</time>
      </trkpt>
      <trkpt lat="43.95107" lon="7.17789">
        <ele>598</ele>
        <time>2019-05-11T13:59:34.000Z</time>
      </trkpt>
      <trkpt lat="43.95101" lon="7.17786">
        <ele>597.20001220703</ele>
        <time>2019-05-11T13:59:36.000Z</time>
      </trkpt>
      <trkpt lat="43.95091" lon="7.17772">
        <ele>597.79998779297</ele>
        <time>2019-05-11T13:59:40.000Z</time>
      </trkpt>
      <trkpt lat="43.95088" lon="7.17762">
        <ele>598</ele>
        <time>2019-05-11T13:59:42.000Z</time>
      </trkpt>
      <trkpt lat="43.95089" lon="7.17757">
        <ele>598.40002441406</ele>
        <time>2019-05-11T13:59:44.000Z</time>
      </trkpt>
      <trkpt lat="43.95087" lon="7.17756">
        <ele>599</ele>
        <time>2019-05-11T13:59:46.000Z</time>
      </trkpt>
      <trkpt lat="43.95086" lon="7.17755">
        <ele>599.40002441406</ele>
        <time>2019-05-11T13:59:47.000Z</time>
      </trkpt>
      <trkpt lat="43.95083" lon="7.17744">
        <ele>599.59997558594</ele>
        <time>2019-05-11T13:59:52.000Z</time>
      </trkpt>
      <trkpt lat="43.9507" lon="7.17739">
        <ele>599.59997558594</ele>
        <time>2019-05-11T13:59:56.000Z</time>
      </trkpt>
      <trkpt lat="43.95046" lon="7.17729">
        <ele>599.79998779297</ele>
        <time>2019-05-11T14:00:03.000Z</time>
      </trkpt>
      <trkpt lat="43.95029" lon="7.17721">
        <ele>599.40002441406</ele>
        <time>2019-05-11T14:00:08.000Z</time>
      </trkpt>
      <trkpt lat="43.95022" lon="7.17713">
        <ele>598.20001220703</ele>
        <time>2019-05-11T14:00:11.000Z</time>
      </trkpt>
      <trkpt lat="43.95019" lon="7.1771">
        <ele>598</ele>
        <time>2019-05-11T14:00:12.000Z</time>
      </trkpt>
      <trkpt lat="43.95009" lon="7.17695">
        <ele>598.40002441406</ele>
        <time>2019-05-11T14:00:18.000Z</time>
      </trkpt>
      <trkpt lat="43.95005" lon="7.1768">
        <ele>597.20001220703</ele>
        <time>2019-05-11T14:00:22.000Z</time>
      </trkpt>
      <trkpt lat="43.95005" lon="7.17675">
        <ele>596.79998779297</ele>
        <time>2019-05-11T14:00:23.000Z</time>
      </trkpt>
      <trkpt lat="43.95006" lon="7.17666">
        <ele>596.40002441406</ele>
        <time>2019-05-11T14:00:27.000Z</time>
      </trkpt>
      <trkpt lat="43.95006" lon="7.17665">
        <ele>596.20001220703</ele>
        <time>2019-05-11T14:00:28.000Z</time>
      </trkpt>
      <trkpt lat="43.95006" lon="7.17665">
        <ele>595.79998779297</ele>
        <time>2019-05-11T14:00:39.000Z</time>
      </trkpt>
      <trkpt lat="43.95005" lon="7.17663">
        <ele>595.59997558594</ele>
        <time>2019-05-11T14:00:51.000Z</time>
      </trkpt>
      <trkpt lat="43.95005" lon="7.17664">
        <ele>595.59997558594</ele>
        <time>2019-05-11T14:00:53.000Z</time>
      </trkpt>
      <trkpt lat="43.95006" lon="7.17667">
        <ele>595.59997558594</ele>
        <time>2019-05-11T14:00:58.000Z</time>
      </trkpt>
      <trkpt lat="43.95005" lon="7.17678">
        <ele>595.79998779297</ele>
        <time>2019-05-11T14:01:05.000Z</time>
      </trkpt>
      <trkpt lat="43.95005" lon="7.17689">
        <ele>595.79998779297</ele>
        <time>2019-05-11T14:01:12.000Z</time>
      </trkpt>
      <trkpt lat="43.9501" lon="7.17698">
        <ele>597.40002441406</ele>
        <time>2019-05-11T14:01:21.000Z</time>
      </trkpt>
      <trkpt lat="43.9501" lon="7.17698">
        <ele>598.40002441406</ele>
        <time>2019-05-11T14:01:26.000Z</time>
      </trkpt>
      <trkpt lat="43.9501" lon="7.17698">
        <ele>598.59997558594</ele>
        <time>2019-05-11T14:01:31.000Z</time>
      </trkpt>
      <trkpt lat="43.9501" lon="7.17699">
        <ele>598.40002441406</ele>
        <time>2019-05-11T14:01:38.000Z</time>
      </trkpt>
      <trkpt lat="43.9501" lon="7.17699">
        <ele>598.20001220703</ele>
        <time>2019-05-11T14:01:49.000Z</time>
      </trkpt>
      <trkpt lat="43.9501" lon="7.17699">
        <ele>599.40002441406</ele>
        <time>2019-05-11T14:01:55.000Z</time>
      </trkpt>
      <trkpt lat="43.95009" lon="7.17699">
        <ele>598.59997558594</ele>
        <time>2019-05-11T14:02:15.000Z</time>
      </trkpt>
      <trkpt lat="43.9501" lon="7.17698">
        <ele>598.40002441406</ele>
        <time>2019-05-11T14:02:25.000Z</time>
      </trkpt>
      <trkpt lat="43.95009" lon="7.17696">
        <ele>597.20001220703</ele>
        <time>2019-05-11T14:02:31.000Z</time>
      </trkpt>
      <trkpt lat="43.95008" lon="7.17695">
        <ele>597</ele>
        <time>2019-05-11T14:02:32.000Z</time>
      </trkpt>
      <trkpt lat="43.95003" lon="7.17683">
        <ele>596.40002441406</ele>
        <time>2019-05-11T14:02:36.000Z</time>
      </trkpt>
      <trkpt lat="43.95004" lon="7.1767">
        <ele>596.20001220703</ele>
        <time>2019-05-11T14:02:39.000Z</time>
      </trkpt>
      <trkpt lat="43.95003" lon="7.1766">
        <ele>595.79998779297</ele>
        <time>2019-05-11T14:02:41.000Z</time>
      </trkpt>
      <trkpt lat="43.95004" lon="7.17642">
        <ele>594.79998779297</ele>
        <time>2019-05-11T14:02:45.000Z</time>
      </trkpt>
      <trkpt lat="43.95006" lon="7.17629">
        <ele>595</ele>
        <time>2019-05-11T14:02:48.000Z</time>
      </trkpt>
      <trkpt lat="43.95009" lon="7.17593">
        <ele>594.40002441406</ele>
        <time>2019-05-11T14:02:55.000Z</time>
      </trkpt>
      <trkpt lat="43.9501" lon="7.17583">
        <ele>593.59997558594</ele>
        <time>2019-05-11T14:02:57.000Z</time>
      </trkpt>
      <trkpt lat="43.95014" lon="7.17552">
        <ele>593.40002441406</ele>
        <time>2019-05-11T14:03:03.000Z</time>
      </trkpt>
      <trkpt lat="43.95022" lon="7.17534">
        <ele>592.20001220703</ele>
        <time>2019-05-11T14:03:07.000Z</time>
      </trkpt>
      <trkpt lat="43.95026" lon="7.17525">
        <ele>591.20001220703</ele>
        <time>2019-05-11T14:03:09.000Z</time>
      </trkpt>
      <trkpt lat="43.9504" lon="7.17497">
        <ele>591</ele>
        <time>2019-05-11T14:03:15.000Z</time>
      </trkpt>
      <trkpt lat="43.95046" lon="7.1748">
        <ele>590</ele>
        <time>2019-05-11T14:03:18.000Z</time>
      </trkpt>
      <trkpt lat="43.95047" lon="7.17466">
        <ele>589.20001220703</ele>
        <time>2019-05-11T14:03:20.000Z</time>
      </trkpt>
      <trkpt lat="43.95047" lon="7.17459">
        <ele>588.79998779297</ele>
        <time>2019-05-11T14:03:21.000Z</time>
      </trkpt>
      <trkpt lat="43.95047" lon="7.17444">
        <ele>587.40002441406</ele>
        <time>2019-05-11T14:03:23.000Z</time>
      </trkpt>
      <trkpt lat="43.95047" lon="7.17428">
        <ele>586.59997558594</ele>
        <time>2019-05-11T14:03:25.000Z</time>
      </trkpt>
      <trkpt lat="43.9505" lon="7.17413">
        <ele>586.40002441406</ele>
        <time>2019-05-11T14:03:27.000Z</time>
      </trkpt>
      <trkpt lat="43.95056" lon="7.17399">
        <ele>585.40002441406</ele>
        <time>2019-05-11T14:03:29.000Z</time>
      </trkpt>
      <trkpt lat="43.95066" lon="7.17372">
        <ele>584.79998779297</ele>
        <time>2019-05-11T14:03:33.000Z</time>
      </trkpt>
      <trkpt lat="43.95068" lon="7.17359">
        <ele>584.59997558594</ele>
        <time>2019-05-11T14:03:35.000Z</time>
      </trkpt>
      <trkpt lat="43.95069" lon="7.17352">
        <ele>584.40002441406</ele>
        <time>2019-05-11T14:03:36.000Z</time>
      </trkpt>
      <trkpt lat="43.95071" lon="7.17314">
        <ele>585</ele>
        <time>2019-05-11T14:03:42.000Z</time>
      </trkpt>
      <trkpt lat="43.95078" lon="7.1729">
        <ele>584.79998779297</ele>
        <time>2019-05-11T14:03:47.000Z</time>
      </trkpt>
      <trkpt lat="43.95082" lon="7.17287">
        <ele>584.79998779297</ele>
        <time>2019-05-11T14:03:48.000Z</time>
      </trkpt>
      <trkpt lat="43.95096" lon="7.17283">
        <ele>584.79998779297</ele>
        <time>2019-05-11T14:03:51.000Z</time>
      </trkpt>
      <trkpt lat="43.95106" lon="7.17286">
        <ele>584.20001220703</ele>
        <time>2019-05-11T14:03:54.000Z</time>
      </trkpt>
      <trkpt lat="43.95115" lon="7.17289">
        <ele>583</ele>
        <time>2019-05-11T14:03:57.000Z</time>
      </trkpt>
      <trkpt lat="43.95119" lon="7.1729">
        <ele>582.79998779297</ele>
        <time>2019-05-11T14:03:58.000Z</time>
      </trkpt>
      <trkpt lat="43.95124" lon="7.17292">
        <ele>582.59997558594</ele>
        <time>2019-05-11T14:03:59.000Z</time>
      </trkpt>
      <trkpt lat="43.95135" lon="7.17296">
        <ele>581.40002441406</ele>
        <time>2019-05-11T14:04:01.000Z</time>
      </trkpt>
      <trkpt lat="43.95152" lon="7.17305">
        <ele>580</ele>
        <time>2019-05-11T14:04:04.000Z</time>
      </trkpt>
      <trkpt lat="43.95171" lon="7.17317">
        <ele>578.59997558594</ele>
        <time>2019-05-11T14:04:07.000Z</time>
      </trkpt>
      <trkpt lat="43.95186" lon="7.17326">
        <ele>577.40002441406</ele>
        <time>2019-05-11T14:04:09.000Z</time>
      </trkpt>
      <trkpt lat="43.95198" lon="7.17332">
        <ele>576</ele>
        <time>2019-05-11T14:04:11.000Z</time>
      </trkpt>
      <trkpt lat="43.95205" lon="7.17334">
        <ele>575</ele>
        <time>2019-05-11T14:04:12.000Z</time>
      </trkpt>
      <trkpt lat="43.95212" lon="7.17334">
        <ele>574.40002441406</ele>
        <time>2019-05-11T14:04:13.000Z</time>
      </trkpt>
      <trkpt lat="43.95228" lon="7.17333">
        <ele>573</ele>
        <time>2019-05-11T14:04:15.000Z</time>
      </trkpt>
      <trkpt lat="43.95241" lon="7.17331">
        <ele>572</ele>
        <time>2019-05-11T14:04:17.000Z</time>
      </trkpt>
      <trkpt lat="43.95255" lon="7.17329">
        <ele>570.59997558594</ele>
        <time>2019-05-11T14:04:19.000Z</time>
      </trkpt>
      <trkpt lat="43.95267" lon="7.1732">
        <ele>569.59997558594</ele>
        <time>2019-05-11T14:04:21.000Z</time>
      </trkpt>
      <trkpt lat="43.95272" lon="7.17315">
        <ele>569.40002441406</ele>
        <time>2019-05-11T14:04:22.000Z</time>
      </trkpt>
      <trkpt lat="43.95276" lon="7.17311">
        <ele>568.59997558594</ele>
        <time>2019-05-11T14:04:23.000Z</time>
      </trkpt>
      <trkpt lat="43.9528" lon="7.17308">
        <ele>568</ele>
        <time>2019-05-11T14:04:24.000Z</time>
      </trkpt>
      <trkpt lat="43.95283" lon="7.17306">
        <ele>567.59997558594</ele>
        <time>2019-05-11T14:04:25.000Z</time>
      </trkpt>
      <trkpt lat="43.95285" lon="7.173">
        <ele>566.79998779297</ele>
        <time>2019-05-11T14:04:27.000Z</time>
      </trkpt>
      <trkpt lat="43.95283" lon="7.17298">
        <ele>566.59997558594</ele>
        <time>2019-05-11T14:04:28.000Z</time>
      </trkpt>
      <trkpt lat="43.95278" lon="7.17298">
        <ele>565.79998779297</ele>
        <time>2019-05-11T14:04:30.000Z</time>
      </trkpt>
      <trkpt lat="43.95276" lon="7.17301">
        <ele>565.40002441406</ele>
        <time>2019-05-11T14:04:31.000Z</time>
      </trkpt>
      <trkpt lat="43.95267" lon="7.17309">
        <ele>565</ele>
        <time>2019-05-11T14:04:34.000Z</time>
      </trkpt>
      <trkpt lat="43.95264" lon="7.17311">
        <ele>565</ele>
        <time>2019-05-11T14:04:35.000Z</time>
      </trkpt>
      <trkpt lat="43.9526" lon="7.17312">
        <ele>565</ele>
        <time>2019-05-11T14:04:36.000Z</time>
      </trkpt>
      <trkpt lat="43.9525" lon="7.17314">
        <ele>564.59997558594</ele>
        <time>2019-05-11T14:04:38.000Z</time>
      </trkpt>
      <trkpt lat="43.95244" lon="7.17314">
        <ele>564.20001220703</ele>
        <time>2019-05-11T14:04:39.000Z</time>
      </trkpt>
      <trkpt lat="43.95237" lon="7.17311">
        <ele>564</ele>
        <time>2019-05-11T14:04:40.000Z</time>
      </trkpt>
      <trkpt lat="43.95225" lon="7.17301">
        <ele>563.20001220703</ele>
        <time>2019-05-11T14:04:42.000Z</time>
      </trkpt>
      <trkpt lat="43.95221" lon="7.17296">
        <ele>562.79998779297</ele>
        <time>2019-05-11T14:04:43.000Z</time>
      </trkpt>
      <trkpt lat="43.95217" lon="7.1729">
        <ele>562.20001220703</ele>
        <time>2019-05-11T14:04:44.000Z</time>
      </trkpt>
      <trkpt lat="43.95211" lon="7.17279">
        <ele>560.40002441406</ele>
        <time>2019-05-11T14:04:46.000Z</time>
      </trkpt>
      <trkpt lat="43.95207" lon="7.17274">
        <ele>559.59997558594</ele>
        <time>2019-05-11T14:04:47.000Z</time>
      </trkpt>
      <trkpt lat="43.95202" lon="7.17271">
        <ele>559</ele>
        <time>2019-05-11T14:04:48.000Z</time>
      </trkpt>
      <trkpt lat="43.9519" lon="7.17266">
        <ele>558</ele>
        <time>2019-05-11T14:04:50.000Z</time>
      </trkpt>
      <trkpt lat="43.95184" lon="7.17262">
        <ele>557.40002441406</ele>
        <time>2019-05-11T14:04:51.000Z</time>
      </trkpt>
      <trkpt lat="43.95174" lon="7.17252">
        <ele>556.59997558594</ele>
        <time>2019-05-11T14:04:53.000Z</time>
      </trkpt>
      <trkpt lat="43.95167" lon="7.17247">
        <ele>556</ele>
        <time>2019-05-11T14:04:54.000Z</time>
      </trkpt>
      <trkpt lat="43.95161" lon="7.17245">
        <ele>555.59997558594</ele>
        <time>2019-05-11T14:04:55.000Z</time>
      </trkpt>
      <trkpt lat="43.95155" lon="7.17239">
        <ele>554.59997558594</ele>
        <time>2019-05-11T14:04:57.000Z</time>
      </trkpt>
      <trkpt lat="43.9516" lon="7.17233">
        <ele>553.79998779297</ele>
        <time>2019-05-11T14:04:59.000Z</time>
      </trkpt>
      <trkpt lat="43.95164" lon="7.17235">
        <ele>553.40002441406</ele>
        <time>2019-05-11T14:05:00.000Z</time>
      </trkpt>
      <trkpt lat="43.95174" lon="7.1724">
        <ele>552.59997558594</ele>
        <time>2019-05-11T14:05:02.000Z</time>
      </trkpt>
      <trkpt lat="43.9518" lon="7.17241">
        <ele>552</ele>
        <time>2019-05-11T14:05:03.000Z</time>
      </trkpt>
      <trkpt lat="43.95195" lon="7.17241">
        <ele>551</ele>
        <time>2019-05-11T14:05:05.000Z</time>
      </trkpt>
      <trkpt lat="43.95209" lon="7.17236">
        <ele>549.40002441406</ele>
        <time>2019-05-11T14:05:07.000Z</time>
      </trkpt>
      <trkpt lat="43.95216" lon="7.17234">
        <ele>548.59997558594</ele>
        <time>2019-05-11T14:05:08.000Z</time>
      </trkpt>
      <trkpt lat="43.95222" lon="7.17231">
        <ele>547.59997558594</ele>
        <time>2019-05-11T14:05:09.000Z</time>
      </trkpt>
      <trkpt lat="43.95228" lon="7.17229">
        <ele>546.59997558594</ele>
        <time>2019-05-11T14:05:10.000Z</time>
      </trkpt>
      <trkpt lat="43.95232" lon="7.17225">
        <ele>546</ele>
        <time>2019-05-11T14:05:11.000Z</time>
      </trkpt>
      <trkpt lat="43.95237" lon="7.17221">
        <ele>545</ele>
        <time>2019-05-11T14:05:12.000Z</time>
      </trkpt>
      <trkpt lat="43.95241" lon="7.17218">
        <ele>544.59997558594</ele>
        <time>2019-05-11T14:05:13.000Z</time>
      </trkpt>
      <trkpt lat="43.95246" lon="7.17215">
        <ele>544</ele>
        <time>2019-05-11T14:05:14.000Z</time>
      </trkpt>
      <trkpt lat="43.95251" lon="7.17216">
        <ele>543.40002441406</ele>
        <time>2019-05-11T14:05:15.000Z</time>
      </trkpt>
      <trkpt lat="43.95257" lon="7.17219">
        <ele>542.79998779297</ele>
        <time>2019-05-11T14:05:16.000Z</time>
      </trkpt>
      <trkpt lat="43.95263" lon="7.17221">
        <ele>542.20001220703</ele>
        <time>2019-05-11T14:05:17.000Z</time>
      </trkpt>
      <trkpt lat="43.95277" lon="7.17225">
        <ele>540.79998779297</ele>
        <time>2019-05-11T14:05:19.000Z</time>
      </trkpt>
      <trkpt lat="43.95291" lon="7.17229">
        <ele>539</ele>
        <time>2019-05-11T14:05:21.000Z</time>
      </trkpt>
      <trkpt lat="43.95298" lon="7.17232">
        <ele>538.20001220703</ele>
        <time>2019-05-11T14:05:22.000Z</time>
      </trkpt>
      <trkpt lat="43.95303" lon="7.17236">
        <ele>536.59997558594</ele>
        <time>2019-05-11T14:05:23.000Z</time>
      </trkpt>
      <trkpt lat="43.95311" lon="7.17241">
        <ele>535.20001220703</ele>
        <time>2019-05-11T14:05:25.000Z</time>
      </trkpt>
      <trkpt lat="43.95316" lon="7.17235">
        <ele>533.40002441406</ele>
        <time>2019-05-11T14:05:27.000Z</time>
      </trkpt>
      <trkpt lat="43.95317" lon="7.17231">
        <ele>532.79998779297</ele>
        <time>2019-05-11T14:05:28.000Z</time>
      </trkpt>
      <trkpt lat="43.95316" lon="7.17227">
        <ele>532.40002441406</ele>
        <time>2019-05-11T14:05:29.000Z</time>
      </trkpt>
      <trkpt lat="43.95313" lon="7.17217">
        <ele>531.79998779297</ele>
        <time>2019-05-11T14:05:31.000Z</time>
      </trkpt>
      <trkpt lat="43.9531" lon="7.17209">
        <ele>532</ele>
        <time>2019-05-11T14:05:33.000Z</time>
      </trkpt>
      <trkpt lat="43.95307" lon="7.17204">
        <ele>532.40002441406</ele>
        <time>2019-05-11T14:05:34.000Z</time>
      </trkpt>
      <trkpt lat="43.953" lon="7.17192">
        <ele>532.59997558594</ele>
        <time>2019-05-11T14:05:36.000Z</time>
      </trkpt>
      <trkpt lat="43.95283" lon="7.17164">
        <ele>531</ele>
        <time>2019-05-11T14:05:40.000Z</time>
      </trkpt>
      <trkpt lat="43.95279" lon="7.17155">
        <ele>530.59997558594</ele>
        <time>2019-05-11T14:05:41.000Z</time>
      </trkpt>
      <trkpt lat="43.95272" lon="7.17136">
        <ele>529.20001220703</ele>
        <time>2019-05-11T14:05:43.000Z</time>
      </trkpt>
      <trkpt lat="43.95266" lon="7.17114">
        <ele>527.40002441406</ele>
        <time>2019-05-11T14:05:45.000Z</time>
      </trkpt>
      <trkpt lat="43.95264" lon="7.17103">
        <ele>526.20001220703</ele>
        <time>2019-05-11T14:05:46.000Z</time>
      </trkpt>
      <trkpt lat="43.95262" lon="7.17093">
        <ele>525.20001220703</ele>
        <time>2019-05-11T14:05:47.000Z</time>
      </trkpt>
      <trkpt lat="43.95262" lon="7.17083">
        <ele>524.40002441406</ele>
        <time>2019-05-11T14:05:48.000Z</time>
      </trkpt>
      <trkpt lat="43.95263" lon="7.17073">
        <ele>523.20001220703</ele>
        <time>2019-05-11T14:05:49.000Z</time>
      </trkpt>
      <trkpt lat="43.95266" lon="7.17063">
        <ele>522.40002441406</ele>
        <time>2019-05-11T14:05:50.000Z</time>
      </trkpt>
      <trkpt lat="43.95267" lon="7.17054">
        <ele>521.79998779297</ele>
        <time>2019-05-11T14:05:51.000Z</time>
      </trkpt>
      <trkpt lat="43.95271" lon="7.17035">
        <ele>520.79998779297</ele>
        <time>2019-05-11T14:05:53.000Z</time>
      </trkpt>
      <trkpt lat="43.95278" lon="7.17017">
        <ele>520.20001220703</ele>
        <time>2019-05-11T14:05:55.000Z</time>
      </trkpt>
      <trkpt lat="43.95282" lon="7.1701">
        <ele>519.59997558594</ele>
        <time>2019-05-11T14:05:56.000Z</time>
      </trkpt>
      <trkpt lat="43.95297" lon="7.16993">
        <ele>518.40002441406</ele>
        <time>2019-05-11T14:05:59.000Z</time>
      </trkpt>
      <trkpt lat="43.95305" lon="7.16983">
        <ele>517.20001220703</ele>
        <time>2019-05-11T14:06:01.000Z</time>
      </trkpt>
      <trkpt lat="43.95305" lon="7.16978">
        <ele>516.79998779297</ele>
        <time>2019-05-11T14:06:02.000Z</time>
      </trkpt>
      <trkpt lat="43.95305" lon="7.16971">
        <ele>516</ele>
        <time>2019-05-11T14:06:03.000Z</time>
      </trkpt>
      <trkpt lat="43.95298" lon="7.16963">
        <ele>514.59997558594</ele>
        <time>2019-05-11T14:06:05.000Z</time>
      </trkpt>
      <trkpt lat="43.95283" lon="7.1695">
        <ele>513.59997558594</ele>
        <time>2019-05-11T14:06:09.000Z</time>
      </trkpt>
      <trkpt lat="43.9528" lon="7.16945">
        <ele>513.79998779297</ele>
        <time>2019-05-11T14:06:10.000Z</time>
      </trkpt>
      <trkpt lat="43.95273" lon="7.16937">
        <ele>514.20001220703</ele>
        <time>2019-05-11T14:06:12.000Z</time>
      </trkpt>
      <trkpt lat="43.9526" lon="7.16925">
        <ele>514.59997558594</ele>
        <time>2019-05-11T14:06:16.000Z</time>
      </trkpt>
      <trkpt lat="43.95254" lon="7.16908">
        <ele>515</ele>
        <time>2019-05-11T14:06:20.000Z</time>
      </trkpt>
      <trkpt lat="43.95253" lon="7.16896">
        <ele>515.59997558594</ele>
        <time>2019-05-11T14:06:23.000Z</time>
      </trkpt>
      <trkpt lat="43.95251" lon="7.16875">
        <ele>516.40002441406</ele>
        <time>2019-05-11T14:06:28.000Z</time>
      </trkpt>
      <trkpt lat="43.95255" lon="7.1686">
        <ele>516.59997558594</ele>
        <time>2019-05-11T14:06:32.000Z</time>
      </trkpt>
      <trkpt lat="43.95257" lon="7.16858">
        <ele>516.79998779297</ele>
        <time>2019-05-11T14:06:33.000Z</time>
      </trkpt>
      <trkpt lat="43.95271" lon="7.16842">
        <ele>517.20001220703</ele>
        <time>2019-05-11T14:06:39.000Z</time>
      </trkpt>
      <trkpt lat="43.95274" lon="7.16821">
        <ele>517.40002441406</ele>
        <time>2019-05-11T14:06:44.000Z</time>
      </trkpt>
      <trkpt lat="43.95272" lon="7.168">
        <ele>517.59997558594</ele>
        <time>2019-05-11T14:06:49.000Z</time>
      </trkpt>
      <trkpt lat="43.95272" lon="7.16796">
        <ele>517.79998779297</ele>
        <time>2019-05-11T14:06:50.000Z</time>
      </trkpt>
      <trkpt lat="43.9527" lon="7.16768">
        <ele>518.59997558594</ele>
        <time>2019-05-11T14:06:57.000Z</time>
      </trkpt>
      <trkpt lat="43.95268" lon="7.16756">
        <ele>518.79998779297</ele>
        <time>2019-05-11T14:07:00.000Z</time>
      </trkpt>
      <trkpt lat="43.95264" lon="7.16742">
        <ele>519.20001220703</ele>
        <time>2019-05-11T14:07:04.000Z</time>
      </trkpt>
      <trkpt lat="43.95251" lon="7.1672">
        <ele>519.59997558594</ele>
        <time>2019-05-11T14:07:11.000Z</time>
      </trkpt>
      <trkpt lat="43.95247" lon="7.16708">
        <ele>519.79998779297</ele>
        <time>2019-05-11T14:07:14.000Z</time>
      </trkpt>
      <trkpt lat="43.95244" lon="7.16697">
        <ele>520</ele>
        <time>2019-05-11T14:07:17.000Z</time>
      </trkpt>
      <trkpt lat="43.95245" lon="7.16673">
        <ele>520.59997558594</ele>
        <time>2019-05-11T14:07:23.000Z</time>
      </trkpt>
      <trkpt lat="43.95246" lon="7.16665">
        <ele>521</ele>
        <time>2019-05-11T14:07:25.000Z</time>
      </trkpt>
      <trkpt lat="43.95251" lon="7.16647">
        <ele>520.79998779297</ele>
        <time>2019-05-11T14:07:30.000Z</time>
      </trkpt>
      <trkpt lat="43.95256" lon="7.16619">
        <ele>522</ele>
        <time>2019-05-11T14:07:37.000Z</time>
      </trkpt>
      <trkpt lat="43.95254" lon="7.16598">
        <ele>522.20001220703</ele>
        <time>2019-05-11T14:07:42.000Z</time>
      </trkpt>
      <trkpt lat="43.95251" lon="7.1659">
        <ele>522.40002441406</ele>
        <time>2019-05-11T14:07:44.000Z</time>
      </trkpt>
      <trkpt lat="43.95248" lon="7.16567">
        <ele>523.20001220703</ele>
        <time>2019-05-11T14:07:50.000Z</time>
      </trkpt>
      <trkpt lat="43.9525" lon="7.16563">
        <ele>523.20001220703</ele>
        <time>2019-05-11T14:07:51.000Z</time>
      </trkpt>
      <trkpt lat="43.95257" lon="7.16554">
        <ele>523.40002441406</ele>
        <time>2019-05-11T14:07:54.000Z</time>
      </trkpt>
      <trkpt lat="43.95272" lon="7.16546">
        <ele>523.40002441406</ele>
        <time>2019-05-11T14:07:59.000Z</time>
      </trkpt>
      <trkpt lat="43.95295" lon="7.16534">
        <ele>523.20001220703</ele>
        <time>2019-05-11T14:08:06.000Z</time>
      </trkpt>
      <trkpt lat="43.95313" lon="7.16523">
        <ele>523.40002441406</ele>
        <time>2019-05-11T14:08:12.000Z</time>
      </trkpt>
      <trkpt lat="43.95316" lon="7.16517">
        <ele>523.40002441406</ele>
        <time>2019-05-11T14:08:17.000Z</time>
      </trkpt>
      <trkpt lat="43.95316" lon="7.16516">
        <ele>523</ele>
        <time>2019-05-11T14:08:25.000Z</time>
      </trkpt>
      <trkpt lat="43.95317" lon="7.16507">
        <ele>522.40002441406</ele>
        <time>2019-05-11T14:08:37.000Z</time>
      </trkpt>
      <trkpt lat="43.95323" lon="7.16491">
        <ele>522.20001220703</ele>
        <time>2019-05-11T14:08:41.000Z</time>
      </trkpt>
      <trkpt lat="43.95325" lon="7.16487">
        <ele>522.20001220703</ele>
        <time>2019-05-11T14:08:42.000Z</time>
      </trkpt>
      <trkpt lat="43.95341" lon="7.16465">
        <ele>522.59997558594</ele>
        <time>2019-05-11T14:08:48.000Z</time>
      </trkpt>
      <trkpt lat="43.95364" lon="7.16449">
        <ele>522.59997558594</ele>
        <time>2019-05-11T14:08:55.000Z</time>
      </trkpt>
      <trkpt lat="43.95378" lon="7.16455">
        <ele>522.59997558594</ele>
        <time>2019-05-11T14:08:59.000Z</time>
      </trkpt>
      <trkpt lat="43.95401" lon="7.16468">
        <ele>522.59997558594</ele>
        <time>2019-05-11T14:09:06.000Z</time>
      </trkpt>
      <trkpt lat="43.95429" lon="7.16482">
        <ele>522.59997558594</ele>
        <time>2019-05-11T14:09:14.000Z</time>
      </trkpt>
      <trkpt lat="43.95446" lon="7.16496">
        <ele>522.59997558594</ele>
        <time>2019-05-11T14:09:19.000Z</time>
      </trkpt>
      <trkpt lat="43.95451" lon="7.16505">
        <ele>522.59997558594</ele>
        <time>2019-05-11T14:09:21.000Z</time>
      </trkpt>
      <trkpt lat="43.9546" lon="7.16534">
        <ele>522.40002441406</ele>
        <time>2019-05-11T14:09:27.000Z</time>
      </trkpt>
      <trkpt lat="43.95462" lon="7.16539">
        <ele>522.40002441406</ele>
        <time>2019-05-11T14:09:28.000Z</time>
      </trkpt>
      <trkpt lat="43.95468" lon="7.16549">
        <ele>522.40002441406</ele>
        <time>2019-05-11T14:09:31.000Z</time>
      </trkpt>
      <trkpt lat="43.9548" lon="7.16557">
        <ele>523.40002441406</ele>
        <time>2019-05-11T14:09:36.000Z</time>
      </trkpt>
      <trkpt lat="43.95482" lon="7.16558">
        <ele>523.59997558594</ele>
        <time>2019-05-11T14:09:37.000Z</time>
      </trkpt>
      <trkpt lat="43.95497" lon="7.16563">
        <ele>524.40002441406</ele>
        <time>2019-05-11T14:09:43.000Z</time>
      </trkpt>
      <trkpt lat="43.95499" lon="7.16564">
        <ele>524.59997558594</ele>
        <time>2019-05-11T14:09:44.000Z</time>
      </trkpt>
      <trkpt lat="43.95507" lon="7.16567">
        <ele>525.59997558594</ele>
        <time>2019-05-11T14:09:47.000Z</time>
      </trkpt>
      <trkpt lat="43.95512" lon="7.16568">
        <ele>526.40002441406</ele>
        <time>2019-05-11T14:09:49.000Z</time>
      </trkpt>
      <trkpt lat="43.95517" lon="7.16569">
        <ele>526.79998779297</ele>
        <time>2019-05-11T14:09:51.000Z</time>
      </trkpt>
      <trkpt lat="43.95523" lon="7.16573">
        <ele>527.40002441406</ele>
        <time>2019-05-11T14:09:54.000Z</time>
      </trkpt>
      <trkpt lat="43.95528" lon="7.16575">
        <ele>527.79998779297</ele>
        <time>2019-05-11T14:09:56.000Z</time>
      </trkpt>
      <trkpt lat="43.95533" lon="7.16577">
        <ele>528.59997558594</ele>
        <time>2019-05-11T14:09:59.000Z</time>
      </trkpt>
      <trkpt lat="43.95535" lon="7.16578">
        <ele>528.79998779297</ele>
        <time>2019-05-11T14:10:00.000Z</time>
      </trkpt>
      <trkpt lat="43.95547" lon="7.16582">
        <ele>529.59997558594</ele>
        <time>2019-05-11T14:10:05.000Z</time>
      </trkpt>
      <trkpt lat="43.95555" lon="7.16572">
        <ele>529.79998779297</ele>
        <time>2019-05-11T14:10:09.000Z</time>
      </trkpt>
      <trkpt lat="43.95556" lon="7.16568">
        <ele>530</ele>
        <time>2019-05-11T14:10:10.000Z</time>
      </trkpt>
      <trkpt lat="43.9556" lon="7.16547">
        <ele>530.20001220703</ele>
        <time>2019-05-11T14:10:15.000Z</time>
      </trkpt>
      <trkpt lat="43.95561" lon="7.16517">
        <ele>530.40002441406</ele>
        <time>2019-05-11T14:10:21.000Z</time>
      </trkpt>
      <trkpt lat="43.9556" lon="7.165">
        <ele>531.20001220703</ele>
        <time>2019-05-11T14:10:25.000Z</time>
      </trkpt>
      <trkpt lat="43.95559" lon="7.16484">
        <ele>531.79998779297</ele>
        <time>2019-05-11T14:10:29.000Z</time>
      </trkpt>
      <trkpt lat="43.95559" lon="7.1646">
        <ele>532.20001220703</ele>
        <time>2019-05-11T14:10:35.000Z</time>
      </trkpt>
      <trkpt lat="43.95559" lon="7.16457">
        <ele>532.40002441406</ele>
        <time>2019-05-11T14:10:36.000Z</time>
      </trkpt>
      <trkpt lat="43.95563" lon="7.16444">
        <ele>533.59997558594</ele>
        <time>2019-05-11T14:10:40.000Z</time>
      </trkpt>
      <trkpt lat="43.95565" lon="7.16442">
        <ele>533.59997558594</ele>
        <time>2019-05-11T14:10:41.000Z</time>
      </trkpt>
      <trkpt lat="43.95572" lon="7.16432">
        <ele>534.59997558594</ele>
        <time>2019-05-11T14:10:46.000Z</time>
      </trkpt>
      <trkpt lat="43.95574" lon="7.1643">
        <ele>534.79998779297</ele>
        <time>2019-05-11T14:10:47.000Z</time>
      </trkpt>
      <trkpt lat="43.95581" lon="7.16424">
        <ele>535.59997558594</ele>
        <time>2019-05-11T14:10:51.000Z</time>
      </trkpt>
      <trkpt lat="43.95583" lon="7.16421">
        <ele>535.59997558594</ele>
        <time>2019-05-11T14:10:53.000Z</time>
      </trkpt>
      <trkpt lat="43.95594" lon="7.16402">
        <ele>536</ele>
        <time>2019-05-11T14:11:01.000Z</time>
      </trkpt>
      <trkpt lat="43.95598" lon="7.16398">
        <ele>536.59997558594</ele>
        <time>2019-05-11T14:11:06.000Z</time>
      </trkpt>
      <trkpt lat="43.95598" lon="7.16398">
        <ele>536.79998779297</ele>
        <time>2019-05-11T14:11:08.000Z</time>
      </trkpt>
      <trkpt lat="43.95598" lon="7.16398">
        <ele>537.59997558594</ele>
        <time>2019-05-11T14:11:18.000Z</time>
      </trkpt>
      <trkpt lat="43.95598" lon="7.16398">
        <ele>537.79998779297</ele>
        <time>2019-05-11T14:11:20.000Z</time>
      </trkpt>
      <trkpt lat="43.95598" lon="7.16398">
        <ele>537.79998779297</ele>
        <time>2019-05-11T14:11:34.000Z</time>
      </trkpt>
      <trkpt lat="43.95598" lon="7.16398">
        <ele>537.20001220703</ele>
        <time>2019-05-11T14:11:56.000Z</time>
      </trkpt>
      <trkpt lat="43.95599" lon="7.16395">
        <ele>537.79998779297</ele>
        <time>2019-05-11T14:12:15.000Z</time>
      </trkpt>
      <trkpt lat="43.95601" lon="7.16389">
        <ele>537.40002441406</ele>
        <time>2019-05-11T14:12:21.000Z</time>
      </trkpt>
      <trkpt lat="43.95601" lon="7.16389">
        <ele>537.79998779297</ele>
        <time>2019-05-11T14:12:27.000Z</time>
      </trkpt>
      <trkpt lat="43.956" lon="7.16388">
        <ele>538.20001220703</ele>
        <time>2019-05-11T14:12:48.000Z</time>
      </trkpt>
      <trkpt lat="43.956" lon="7.16387">
        <ele>538.20001220703</ele>
        <time>2019-05-11T14:12:49.000Z</time>
      </trkpt>
      <trkpt lat="43.95602" lon="7.16379">
        <ele>538</ele>
        <time>2019-05-11T14:12:52.000Z</time>
      </trkpt>
      <trkpt lat="43.95605" lon="7.16372">
        <ele>537.59997558594</ele>
        <time>2019-05-11T14:12:54.000Z</time>
      </trkpt>
      <trkpt lat="43.95613" lon="7.16361">
        <ele>537</ele>
        <time>2019-05-11T14:12:57.000Z</time>
      </trkpt>
      <trkpt lat="43.95624" lon="7.16352">
        <ele>536.59997558594</ele>
        <time>2019-05-11T14:13:00.000Z</time>
      </trkpt>
      <trkpt lat="43.95632" lon="7.16348">
        <ele>536.20001220703</ele>
        <time>2019-05-11T14:13:02.000Z</time>
      </trkpt>
      <trkpt lat="43.95642" lon="7.16346">
        <ele>535.79998779297</ele>
        <time>2019-05-11T14:13:04.000Z</time>
      </trkpt>
      <trkpt lat="43.95648" lon="7.16345">
        <ele>535.59997558594</ele>
        <time>2019-05-11T14:13:05.000Z</time>
      </trkpt>
      <trkpt lat="43.95659" lon="7.16347">
        <ele>535.40002441406</ele>
        <time>2019-05-11T14:13:07.000Z</time>
      </trkpt>
      <trkpt lat="43.95676" lon="7.16353">
        <ele>534.20001220703</ele>
        <time>2019-05-11T14:13:10.000Z</time>
      </trkpt>
      <trkpt lat="43.95688" lon="7.16356">
        <ele>533.40002441406</ele>
        <time>2019-05-11T14:13:12.000Z</time>
      </trkpt>
      <trkpt lat="43.95694" lon="7.16358">
        <ele>533</ele>
        <time>2019-05-11T14:13:13.000Z</time>
      </trkpt>
      <trkpt lat="43.95712" lon="7.1636">
        <ele>532</ele>
        <time>2019-05-11T14:13:16.000Z</time>
      </trkpt>
      <trkpt lat="43.95743" lon="7.16359">
        <ele>531</ele>
        <time>2019-05-11T14:13:21.000Z</time>
      </trkpt>
      <trkpt lat="43.95757" lon="7.16359">
        <ele>530.20001220703</ele>
        <time>2019-05-11T14:13:23.000Z</time>
      </trkpt>
      <trkpt lat="43.95764" lon="7.1636">
        <ele>530</ele>
        <time>2019-05-11T14:13:24.000Z</time>
      </trkpt>
      <trkpt lat="43.95771" lon="7.16362">
        <ele>529.79998779297</ele>
        <time>2019-05-11T14:13:25.000Z</time>
      </trkpt>
      <trkpt lat="43.95777" lon="7.16365">
        <ele>529.40002441406</ele>
        <time>2019-05-11T14:13:26.000Z</time>
      </trkpt>
      <trkpt lat="43.95791" lon="7.1637">
        <ele>528.79998779297</ele>
        <time>2019-05-11T14:13:28.000Z</time>
      </trkpt>
      <trkpt lat="43.95814" lon="7.16374">
        <ele>527.59997558594</ele>
        <time>2019-05-11T14:13:31.000Z</time>
      </trkpt>
      <trkpt lat="43.95836" lon="7.16378">
        <ele>526.40002441406</ele>
        <time>2019-05-11T14:13:34.000Z</time>
      </trkpt>
      <trkpt lat="43.95849" lon="7.16382">
        <ele>525.59997558594</ele>
        <time>2019-05-11T14:13:36.000Z</time>
      </trkpt>
      <trkpt lat="43.95856" lon="7.16383">
        <ele>525.59997558594</ele>
        <time>2019-05-11T14:13:37.000Z</time>
      </trkpt>
      <trkpt lat="43.95862" lon="7.16381">
        <ele>525</ele>
        <time>2019-05-11T14:13:38.000Z</time>
      </trkpt>
      <trkpt lat="43.95868" lon="7.16377">
        <ele>524.59997558594</ele>
        <time>2019-05-11T14:13:39.000Z</time>
      </trkpt>
      <trkpt lat="43.95874" lon="7.16364">
        <ele>524</ele>
        <time>2019-05-11T14:13:41.000Z</time>
      </trkpt>
      <trkpt lat="43.95878" lon="7.16358">
        <ele>523.40002441406</ele>
        <time>2019-05-11T14:13:42.000Z</time>
      </trkpt>
      <trkpt lat="43.95887" lon="7.16347">
        <ele>522.79998779297</ele>
        <time>2019-05-11T14:13:44.000Z</time>
      </trkpt>
      <trkpt lat="43.95897" lon="7.1634">
        <ele>522.20001220703</ele>
        <time>2019-05-11T14:13:46.000Z</time>
      </trkpt>
      <trkpt lat="43.95906" lon="7.16333">
        <ele>521.79998779297</ele>
        <time>2019-05-11T14:13:48.000Z</time>
      </trkpt>
      <trkpt lat="43.95913" lon="7.16325">
        <ele>521.40002441406</ele>
        <time>2019-05-11T14:13:50.000Z</time>
      </trkpt>
      <trkpt lat="43.95926" lon="7.1631">
        <ele>520.79998779297</ele>
        <time>2019-05-11T14:13:53.000Z</time>
      </trkpt>
      <trkpt lat="43.9594" lon="7.16298">
        <ele>519.79998779297</ele>
        <time>2019-05-11T14:13:56.000Z</time>
      </trkpt>
      <trkpt lat="43.95946" lon="7.16297">
        <ele>519.59997558594</ele>
        <time>2019-05-11T14:13:57.000Z</time>
      </trkpt>
      <trkpt lat="43.95964" lon="7.16292">
        <ele>519</ele>
        <time>2019-05-11T14:14:00.000Z</time>
      </trkpt>
      <trkpt lat="43.95971" lon="7.16292">
        <ele>518.79998779297</ele>
        <time>2019-05-11T14:14:01.000Z</time>
      </trkpt>
      <trkpt lat="43.95977" lon="7.16293">
        <ele>518.40002441406</ele>
        <time>2019-05-11T14:14:02.000Z</time>
      </trkpt>
      <trkpt lat="43.95997" lon="7.16295">
        <ele>517.59997558594</ele>
        <time>2019-05-11T14:14:05.000Z</time>
      </trkpt>
      <trkpt lat="43.96003" lon="7.16296">
        <ele>517.20001220703</ele>
        <time>2019-05-11T14:14:06.000Z</time>
      </trkpt>
      <trkpt lat="43.96022" lon="7.16301">
        <ele>516.59997558594</ele>
        <time>2019-05-11T14:14:09.000Z</time>
      </trkpt>
      <trkpt lat="43.96028" lon="7.16303">
        <ele>516.20001220703</ele>
        <time>2019-05-11T14:14:10.000Z</time>
      </trkpt>
      <trkpt lat="43.9604" lon="7.16305">
        <ele>515.20001220703</ele>
        <time>2019-05-11T14:14:12.000Z</time>
      </trkpt>
      <trkpt lat="43.96048" lon="7.16305">
        <ele>515</ele>
        <time>2019-05-11T14:14:13.000Z</time>
      </trkpt>
      <trkpt lat="43.9606" lon="7.163">
        <ele>514.20001220703</ele>
        <time>2019-05-11T14:14:15.000Z</time>
      </trkpt>
      <trkpt lat="43.96066" lon="7.16296">
        <ele>513.79998779297</ele>
        <time>2019-05-11T14:14:16.000Z</time>
      </trkpt>
      <trkpt lat="43.96083" lon="7.16285">
        <ele>512.79998779297</ele>
        <time>2019-05-11T14:14:19.000Z</time>
      </trkpt>
      <trkpt lat="43.96096" lon="7.16278">
        <ele>512</ele>
        <time>2019-05-11T14:14:21.000Z</time>
      </trkpt>
      <trkpt lat="43.96102" lon="7.16274">
        <ele>511.39999389648</ele>
        <time>2019-05-11T14:14:22.000Z</time>
      </trkpt>
      <trkpt lat="43.96129" lon="7.16257">
        <ele>510.20001220703</ele>
        <time>2019-05-11T14:14:26.000Z</time>
      </trkpt>
      <trkpt lat="43.96144" lon="7.16246">
        <ele>508.60000610352</ele>
        <time>2019-05-11T14:14:28.000Z</time>
      </trkpt>
      <trkpt lat="43.96151" lon="7.16241">
        <ele>508</ele>
        <time>2019-05-11T14:14:29.000Z</time>
      </trkpt>
      <trkpt lat="43.96158" lon="7.16238">
        <ele>507.20001220703</ele>
        <time>2019-05-11T14:14:30.000Z</time>
      </trkpt>
      <trkpt lat="43.96173" lon="7.16231">
        <ele>506</ele>
        <time>2019-05-11T14:14:32.000Z</time>
      </trkpt>
      <trkpt lat="43.96185" lon="7.16224">
        <ele>505.39999389648</ele>
        <time>2019-05-11T14:14:34.000Z</time>
      </trkpt>
      <trkpt lat="43.96191" lon="7.16221">
        <ele>505</ele>
        <time>2019-05-11T14:14:35.000Z</time>
      </trkpt>
      <trkpt lat="43.96197" lon="7.1622">
        <ele>504.60000610352</ele>
        <time>2019-05-11T14:14:36.000Z</time>
      </trkpt>
      <trkpt lat="43.9621" lon="7.1622">
        <ele>503.60000610352</ele>
        <time>2019-05-11T14:14:38.000Z</time>
      </trkpt>
      <trkpt lat="43.96223" lon="7.16221">
        <ele>502.20001220703</ele>
        <time>2019-05-11T14:14:40.000Z</time>
      </trkpt>
      <trkpt lat="43.96235" lon="7.16223">
        <ele>501</ele>
        <time>2019-05-11T14:14:42.000Z</time>
      </trkpt>
      <trkpt lat="43.9624" lon="7.16226">
        <ele>500.60000610352</ele>
        <time>2019-05-11T14:14:43.000Z</time>
      </trkpt>
      <trkpt lat="43.96251" lon="7.16227">
        <ele>499.39999389648</ele>
        <time>2019-05-11T14:14:45.000Z</time>
      </trkpt>
      <trkpt lat="43.96255" lon="7.16224">
        <ele>498.60000610352</ele>
        <time>2019-05-11T14:14:46.000Z</time>
      </trkpt>
      <trkpt lat="43.96257" lon="7.16219">
        <ele>498</ele>
        <time>2019-05-11T14:14:47.000Z</time>
      </trkpt>
      <trkpt lat="43.96258" lon="7.16206">
        <ele>496.79998779297</ele>
        <time>2019-05-11T14:14:49.000Z</time>
      </trkpt>
      <trkpt lat="43.96259" lon="7.16198">
        <ele>496.39999389648</ele>
        <time>2019-05-11T14:14:50.000Z</time>
      </trkpt>
      <trkpt lat="43.96259" lon="7.16173">
        <ele>495.60000610352</ele>
        <time>2019-05-11T14:14:53.000Z</time>
      </trkpt>
      <trkpt lat="43.96259" lon="7.16164">
        <ele>495.20001220703</ele>
        <time>2019-05-11T14:14:54.000Z</time>
      </trkpt>
      <trkpt lat="43.9626" lon="7.16155">
        <ele>494.79998779297</ele>
        <time>2019-05-11T14:14:55.000Z</time>
      </trkpt>
      <trkpt lat="43.96261" lon="7.16146">
        <ele>494</ele>
        <time>2019-05-11T14:14:56.000Z</time>
      </trkpt>
      <trkpt lat="43.96264" lon="7.16131">
        <ele>492.39999389648</ele>
        <time>2019-05-11T14:14:58.000Z</time>
      </trkpt>
      <trkpt lat="43.96268" lon="7.16108">
        <ele>491</ele>
        <time>2019-05-11T14:15:01.000Z</time>
      </trkpt>
      <trkpt lat="43.9627" lon="7.16101">
        <ele>490.39999389648</ele>
        <time>2019-05-11T14:15:02.000Z</time>
      </trkpt>
      <trkpt lat="43.96274" lon="7.16087">
        <ele>489.79998779297</ele>
        <time>2019-05-11T14:15:04.000Z</time>
      </trkpt>
      <trkpt lat="43.96282" lon="7.16065">
        <ele>488.60000610352</ele>
        <time>2019-05-11T14:15:07.000Z</time>
      </trkpt>
      <trkpt lat="43.96288" lon="7.16047">
        <ele>487.60000610352</ele>
        <time>2019-05-11T14:15:09.000Z</time>
      </trkpt>
      <trkpt lat="43.96295" lon="7.16029">
        <ele>486.39999389648</ele>
        <time>2019-05-11T14:15:11.000Z</time>
      </trkpt>
      <trkpt lat="43.963" lon="7.16009">
        <ele>485.20001220703</ele>
        <time>2019-05-11T14:15:13.000Z</time>
      </trkpt>
      <trkpt lat="43.96302" lon="7.16">
        <ele>484.60000610352</ele>
        <time>2019-05-11T14:15:14.000Z</time>
      </trkpt>
      <trkpt lat="43.96304" lon="7.15992">
        <ele>483.79998779297</ele>
        <time>2019-05-11T14:15:15.000Z</time>
      </trkpt>
      <trkpt lat="43.96304" lon="7.15985">
        <ele>483.39999389648</ele>
        <time>2019-05-11T14:15:16.000Z</time>
      </trkpt>
      <trkpt lat="43.96305" lon="7.15979">
        <ele>482.60000610352</ele>
        <time>2019-05-11T14:15:17.000Z</time>
      </trkpt>
      <trkpt lat="43.96306" lon="7.15974">
        <ele>481.39999389648</ele>
        <time>2019-05-11T14:15:18.000Z</time>
      </trkpt>
      <trkpt lat="43.96309" lon="7.15964">
        <ele>479.79998779297</ele>
        <time>2019-05-11T14:15:21.000Z</time>
      </trkpt>
      <trkpt lat="43.96313" lon="7.15957">
        <ele>479.60000610352</ele>
        <time>2019-05-11T14:15:24.000Z</time>
      </trkpt>
      <trkpt lat="43.96316" lon="7.15953">
        <ele>478.79998779297</ele>
        <time>2019-05-11T14:15:26.000Z</time>
      </trkpt>
      <trkpt lat="43.96323" lon="7.15944">
        <ele>477.39999389648</ele>
        <time>2019-05-11T14:15:30.000Z</time>
      </trkpt>
      <trkpt lat="43.96327" lon="7.1594">
        <ele>477</ele>
        <time>2019-05-11T14:15:32.000Z</time>
      </trkpt>
      <trkpt lat="43.96333" lon="7.15934">
        <ele>476.20001220703</ele>
        <time>2019-05-11T14:15:34.000Z</time>
      </trkpt>
      <trkpt lat="43.96344" lon="7.15923">
        <ele>475.20001220703</ele>
        <time>2019-05-11T14:15:37.000Z</time>
      </trkpt>
      <trkpt lat="43.96348" lon="7.15917">
        <ele>475</ele>
        <time>2019-05-11T14:15:38.000Z</time>
      </trkpt>
      <trkpt lat="43.96361" lon="7.15896">
        <ele>473.60000610352</ele>
        <time>2019-05-11T14:15:42.000Z</time>
      </trkpt>
      <trkpt lat="43.96367" lon="7.15886">
        <ele>472.20001220703</ele>
        <time>2019-05-11T14:15:45.000Z</time>
      </trkpt>
      <trkpt lat="43.96368" lon="7.15884">
        <ele>472</ele>
        <time>2019-05-11T14:15:46.000Z</time>
      </trkpt>
      <trkpt lat="43.96371" lon="7.15875">
        <ele>471</ele>
        <time>2019-05-11T14:15:50.000Z</time>
      </trkpt>
      <trkpt lat="43.96372" lon="7.15875">
        <ele>470.79998779297</ele>
        <time>2019-05-11T14:15:52.000Z</time>
      </trkpt>
      <trkpt lat="43.96373" lon="7.15865">
        <ele>470.60000610352</ele>
        <time>2019-05-11T14:15:57.000Z</time>
      </trkpt>
      <trkpt lat="43.96379" lon="7.15845">
        <ele>470</ele>
        <time>2019-05-11T14:16:01.000Z</time>
      </trkpt>
      <trkpt lat="43.96389" lon="7.15821">
        <ele>468.60000610352</ele>
        <time>2019-05-11T14:16:05.000Z</time>
      </trkpt>
      <trkpt lat="43.96399" lon="7.15803">
        <ele>467</ele>
        <time>2019-05-11T14:16:08.000Z</time>
      </trkpt>
      <trkpt lat="43.96405" lon="7.1579">
        <ele>466</ele>
        <time>2019-05-11T14:16:10.000Z</time>
      </trkpt>
      <trkpt lat="43.96407" lon="7.15783">
        <ele>465.60000610352</ele>
        <time>2019-05-11T14:16:11.000Z</time>
      </trkpt>
      <trkpt lat="43.9641" lon="7.15769">
        <ele>465.20001220703</ele>
        <time>2019-05-11T14:16:13.000Z</time>
      </trkpt>
      <trkpt lat="43.96411" lon="7.15756">
        <ele>464.39999389648</ele>
        <time>2019-05-11T14:16:15.000Z</time>
      </trkpt>
      <trkpt lat="43.96413" lon="7.15745">
        <ele>463.39999389648</ele>
        <time>2019-05-11T14:16:17.000Z</time>
      </trkpt>
      <trkpt lat="43.96414" lon="7.15741">
        <ele>462.79998779297</ele>
        <time>2019-05-11T14:16:18.000Z</time>
      </trkpt>
      <trkpt lat="43.96415" lon="7.15739">
        <ele>462.39999389648</ele>
        <time>2019-05-11T14:16:19.000Z</time>
      </trkpt>
      <trkpt lat="43.96415" lon="7.15738">
        <ele>461.60000610352</ele>
        <time>2019-05-11T14:16:22.000Z</time>
      </trkpt>
      <trkpt lat="43.96415" lon="7.15736">
        <ele>461.20001220703</ele>
        <time>2019-05-11T14:16:24.000Z</time>
      </trkpt>
      <trkpt lat="43.96418" lon="7.15728">
        <ele>461</ele>
        <time>2019-05-11T14:16:27.000Z</time>
      </trkpt>
      <trkpt lat="43.96427" lon="7.15721">
        <ele>460.60000610352</ele>
        <time>2019-05-11T14:16:31.000Z</time>
      </trkpt>
      <trkpt lat="43.96433" lon="7.15721">
        <ele>460</ele>
        <time>2019-05-11T14:16:33.000Z</time>
      </trkpt>
      <trkpt lat="43.9644" lon="7.15727">
        <ele>459.20001220703</ele>
        <time>2019-05-11T14:16:36.000Z</time>
      </trkpt>
      <trkpt lat="43.96442" lon="7.15729">
        <ele>459</ele>
        <time>2019-05-11T14:16:37.000Z</time>
      </trkpt>
      <trkpt lat="43.96445" lon="7.15732">
        <ele>458.79998779297</ele>
        <time>2019-05-11T14:16:38.000Z</time>
      </trkpt>
      <trkpt lat="43.96459" lon="7.15747">
        <ele>457.79998779297</ele>
        <time>2019-05-11T14:16:42.000Z</time>
      </trkpt>
      <trkpt lat="43.96468" lon="7.15756">
        <ele>456.79998779297</ele>
        <time>2019-05-11T14:16:44.000Z</time>
      </trkpt>
      <trkpt lat="43.96474" lon="7.1576">
        <ele>456.39999389648</ele>
        <time>2019-05-11T14:16:45.000Z</time>
      </trkpt>
      <trkpt lat="43.96479" lon="7.15763">
        <ele>456.20001220703</ele>
        <time>2019-05-11T14:16:46.000Z</time>
      </trkpt>
      <trkpt lat="43.96483" lon="7.15767">
        <ele>455.79998779297</ele>
        <time>2019-05-11T14:16:47.000Z</time>
      </trkpt>
      <trkpt lat="43.96488" lon="7.15777">
        <ele>455.20001220703</ele>
        <time>2019-05-11T14:16:49.000Z</time>
      </trkpt>
      <trkpt lat="43.9649" lon="7.15795">
        <ele>455.39999389648</ele>
        <time>2019-05-11T14:16:53.000Z</time>
      </trkpt>
      <trkpt lat="43.96491" lon="7.15799">
        <ele>455.39999389648</ele>
        <time>2019-05-11T14:16:54.000Z</time>
      </trkpt>
      <trkpt lat="43.96497" lon="7.15815">
        <ele>455.39999389648</ele>
        <time>2019-05-11T14:16:58.000Z</time>
      </trkpt>
      <trkpt lat="43.96503" lon="7.15842">
        <ele>456.20001220703</ele>
        <time>2019-05-11T14:17:04.000Z</time>
      </trkpt>
      <trkpt lat="43.96505" lon="7.15851">
        <ele>456.39999389648</ele>
        <time>2019-05-11T14:17:06.000Z</time>
      </trkpt>
      <trkpt lat="43.96512" lon="7.15871">
        <ele>456.39999389648</ele>
        <time>2019-05-11T14:17:11.000Z</time>
      </trkpt>
      <trkpt lat="43.96519" lon="7.15894">
        <ele>456.79998779297</ele>
        <time>2019-05-11T14:17:17.000Z</time>
      </trkpt>
      <trkpt lat="43.96526" lon="7.1591">
        <ele>456.60000610352</ele>
        <time>2019-05-11T14:17:23.000Z</time>
      </trkpt>
      <trkpt lat="43.96529" lon="7.15915">
        <ele>456.60000610352</ele>
        <time>2019-05-11T14:17:27.000Z</time>
      </trkpt>
      <trkpt lat="43.9653" lon="7.15917">
        <ele>456.79998779297</ele>
        <time>2019-05-11T14:17:28.000Z</time>
      </trkpt>
      <trkpt lat="43.9654" lon="7.15928">
        <ele>457</ele>
        <time>2019-05-11T14:17:34.000Z</time>
      </trkpt>
      <trkpt lat="43.96554" lon="7.15936">
        <ele>457.20001220703</ele>
        <time>2019-05-11T14:17:39.000Z</time>
      </trkpt>
      <trkpt lat="43.96558" lon="7.15941">
        <ele>457.39999389648</ele>
        <time>2019-05-11T14:17:41.000Z</time>
      </trkpt>
      <trkpt lat="43.96562" lon="7.15947">
        <ele>457.60000610352</ele>
        <time>2019-05-11T14:17:44.000Z</time>
      </trkpt>
      <trkpt lat="43.96562" lon="7.15948">
        <ele>458.20001220703</ele>
        <time>2019-05-11T14:17:49.000Z</time>
      </trkpt>
      <trkpt lat="43.96562" lon="7.15948">
        <ele>458</ele>
        <time>2019-05-11T14:17:57.000Z</time>
      </trkpt>
      <trkpt lat="43.96563" lon="7.15949">
        <ele>457.39999389648</ele>
        <time>2019-05-11T14:18:03.000Z</time>
      </trkpt>
      <trkpt lat="43.96567" lon="7.15951">
        <ele>457.39999389648</ele>
        <time>2019-05-11T14:18:05.000Z</time>
      </trkpt>
      <trkpt lat="43.96569" lon="7.15954">
        <ele>457.60000610352</ele>
        <time>2019-05-11T14:18:06.000Z</time>
      </trkpt>
      <trkpt lat="43.96581" lon="7.1597">
        <ele>456</ele>
        <time>2019-05-11T14:18:10.000Z</time>
      </trkpt>
      <trkpt lat="43.96583" lon="7.15972">
        <ele>454.39999389648</ele>
        <time>2019-05-11T14:18:12.000Z</time>
      </trkpt>
      <trkpt lat="43.96587" lon="7.15974">
        <ele>453.60000610352</ele>
        <time>2019-05-11T14:18:14.000Z</time>
      </trkpt>
      <trkpt lat="43.96589" lon="7.15974">
        <ele>453.39999389648</ele>
        <time>2019-05-11T14:18:15.000Z</time>
      </trkpt>
      <trkpt lat="43.96596" lon="7.1598">
        <ele>452</ele>
        <time>2019-05-11T14:18:18.000Z</time>
      </trkpt>
      <trkpt lat="43.96599" lon="7.15985">
        <ele>450.39999389648</ele>
        <time>2019-05-11T14:18:20.000Z</time>
      </trkpt>
      <trkpt lat="43.966" lon="7.15986">
        <ele>448.39999389648</ele>
        <time>2019-05-11T14:18:22.000Z</time>
      </trkpt>
      <trkpt lat="43.96601" lon="7.15988">
        <ele>447.20001220703</ele>
        <time>2019-05-11T14:18:26.000Z</time>
      </trkpt>
      <trkpt lat="43.96602" lon="7.1599">
        <ele>446.79998779297</ele>
        <time>2019-05-11T14:18:29.000Z</time>
      </trkpt>
      <trkpt lat="43.96604" lon="7.15993">
        <ele>446.60000610352</ele>
        <time>2019-05-11T14:18:30.000Z</time>
      </trkpt>
      <trkpt lat="43.96605" lon="7.15994">
        <ele>446.39999389648</ele>
        <time>2019-05-11T14:18:31.000Z</time>
      </trkpt>
      <trkpt lat="43.96606" lon="7.15994">
        <ele>446.20001220703</ele>
        <time>2019-05-11T14:18:32.000Z</time>
      </trkpt>
      <trkpt lat="43.96609" lon="7.15996">
        <ele>445.20001220703</ele>
        <time>2019-05-11T14:18:36.000Z</time>
      </trkpt>
      <trkpt lat="43.9661" lon="7.15999">
        <ele>444.79998779297</ele>
        <time>2019-05-11T14:18:37.000Z</time>
      </trkpt>
      <trkpt lat="43.96613" lon="7.16008">
        <ele>443.60000610352</ele>
        <time>2019-05-11T14:18:40.000Z</time>
      </trkpt>
      <trkpt lat="43.96618" lon="7.16015">
        <ele>442.79998779297</ele>
        <time>2019-05-11T14:18:42.000Z</time>
      </trkpt>
      <trkpt lat="43.9662" lon="7.1602">
        <ele>442</ele>
        <time>2019-05-11T14:18:43.000Z</time>
      </trkpt>
      <trkpt lat="43.96623" lon="7.16033">
        <ele>440.39999389648</ele>
        <time>2019-05-11T14:18:45.000Z</time>
      </trkpt>
      <trkpt lat="43.96626" lon="7.1604">
        <ele>439.60000610352</ele>
        <time>2019-05-11T14:18:46.000Z</time>
      </trkpt>
      <trkpt lat="43.96628" lon="7.16046">
        <ele>438.60000610352</ele>
        <time>2019-05-11T14:18:47.000Z</time>
      </trkpt>
      <trkpt lat="43.9663" lon="7.16052">
        <ele>437.20001220703</ele>
        <time>2019-05-11T14:18:48.000Z</time>
      </trkpt>
      <trkpt lat="43.96633" lon="7.16058">
        <ele>435.39999389648</ele>
        <time>2019-05-11T14:18:50.000Z</time>
      </trkpt>
      <trkpt lat="43.96633" lon="7.1606">
        <ele>434.20001220703</ele>
        <time>2019-05-11T14:18:51.000Z</time>
      </trkpt>
      <trkpt lat="43.96633" lon="7.16062">
        <ele>433.39999389648</ele>
        <time>2019-05-11T14:18:52.000Z</time>
      </trkpt>
      <trkpt lat="43.9663" lon="7.16066">
        <ele>432.79998779297</ele>
        <time>2019-05-11T14:18:53.000Z</time>
      </trkpt>
      <trkpt lat="43.96626" lon="7.16071">
        <ele>431.79998779297</ele>
        <time>2019-05-11T14:18:55.000Z</time>
      </trkpt>
      <trkpt lat="43.96624" lon="7.16073">
        <ele>431.39999389648</ele>
        <time>2019-05-11T14:18:56.000Z</time>
      </trkpt>
      <trkpt lat="43.96625" lon="7.16072">
        <ele>430.79998779297</ele>
        <time>2019-05-11T14:18:57.000Z</time>
      </trkpt>
      <trkpt lat="43.96625" lon="7.16073">
        <ele>430.20001220703</ele>
        <time>2019-05-11T14:18:58.000Z</time>
      </trkpt>
      <trkpt lat="43.96626" lon="7.16071">
        <ele>429.20001220703</ele>
        <time>2019-05-11T14:18:59.000Z</time>
      </trkpt>
      <trkpt lat="43.96627" lon="7.16068">
        <ele>428.60000610352</ele>
        <time>2019-05-11T14:19:00.000Z</time>
      </trkpt>
      <trkpt lat="43.96628" lon="7.16067">
        <ele>427.79998779297</ele>
        <time>2019-05-11T14:19:01.000Z</time>
      </trkpt>
      <trkpt lat="43.96628" lon="7.16065">
        <ele>427</ele>
        <time>2019-05-11T14:19:02.000Z</time>
      </trkpt>
      <trkpt lat="43.96629" lon="7.16062">
        <ele>425.79998779297</ele>
        <time>2019-05-11T14:19:05.000Z</time>
      </trkpt>
      <trkpt lat="43.96633" lon="7.16059">
        <ele>426.20001220703</ele>
        <time>2019-05-11T14:19:11.000Z</time>
      </trkpt>
      <trkpt lat="43.96635" lon="7.16058">
        <ele>427</ele>
        <time>2019-05-11T14:19:14.000Z</time>
      </trkpt>
      <trkpt lat="43.96636" lon="7.16055">
        <ele>427.39999389648</ele>
        <time>2019-05-11T14:19:16.000Z</time>
      </trkpt>
      <trkpt lat="43.96637" lon="7.16053">
        <ele>427.39999389648</ele>
        <time>2019-05-11T14:19:17.000Z</time>
      </trkpt>
      <trkpt lat="43.96639" lon="7.16044">
        <ele>427.20001220703</ele>
        <time>2019-05-11T14:19:21.000Z</time>
      </trkpt>
      <trkpt lat="43.96643" lon="7.1604">
        <ele>426.79998779297</ele>
        <time>2019-05-11T14:19:26.000Z</time>
      </trkpt>
      <trkpt lat="43.96645" lon="7.16037">
        <ele>427.20001220703</ele>
        <time>2019-05-11T14:19:30.000Z</time>
      </trkpt>
      <trkpt lat="43.96646" lon="7.16033">
        <ele>427.39999389648</ele>
        <time>2019-05-11T14:19:33.000Z</time>
      </trkpt>
      <trkpt lat="43.96647" lon="7.16025">
        <ele>428</ele>
        <time>2019-05-11T14:19:41.000Z</time>
      </trkpt>
      <trkpt lat="43.96647" lon="7.16024">
        <ele>428.39999389648</ele>
        <time>2019-05-11T14:19:48.000Z</time>
      </trkpt>
      <trkpt lat="43.96647" lon="7.16024">
        <ele>428</ele>
        <time>2019-05-11T14:19:57.000Z</time>
      </trkpt>
      <trkpt lat="43.96647" lon="7.16021">
        <ele>427.79998779297</ele>
        <time>2019-05-11T14:20:03.000Z</time>
      </trkpt>
      <trkpt lat="43.96651" lon="7.16014">
        <ele>428.60000610352</ele>
        <time>2019-05-11T14:20:12.000Z</time>
      </trkpt>
      <trkpt lat="43.96651" lon="7.16014">
        <ele>429</ele>
        <time>2019-05-11T14:20:14.000Z</time>
      </trkpt>
      <trkpt lat="43.96654" lon="7.1601">
        <ele>430</ele>
        <time>2019-05-11T14:20:19.000Z</time>
      </trkpt>
      <trkpt lat="43.96656" lon="7.16011">
        <ele>430.60000610352</ele>
        <time>2019-05-11T14:20:22.000Z</time>
      </trkpt>
      <trkpt lat="43.96657" lon="7.16012">
        <ele>431.20001220703</ele>
        <time>2019-05-11T14:20:24.000Z</time>
      </trkpt>
      <trkpt lat="43.96658" lon="7.1601">
        <ele>432</ele>
        <time>2019-05-11T14:20:28.000Z</time>
      </trkpt>
      <trkpt lat="43.96659" lon="7.16009">
        <ele>432.20001220703</ele>
        <time>2019-05-11T14:20:29.000Z</time>
      </trkpt>
      <trkpt lat="43.96659" lon="7.16007">
        <ele>432.79998779297</ele>
        <time>2019-05-11T14:20:34.000Z</time>
      </trkpt>
      <trkpt lat="43.96657" lon="7.16003">
        <ele>432.60000610352</ele>
        <time>2019-05-11T14:20:39.000Z</time>
      </trkpt>
      <trkpt lat="43.9666" lon="7.16">
        <ele>432.79998779297</ele>
        <time>2019-05-11T14:20:46.000Z</time>
      </trkpt>
      <trkpt lat="43.96662" lon="7.1599">
        <ele>433.20001220703</ele>
        <time>2019-05-11T14:20:51.000Z</time>
      </trkpt>
      <trkpt lat="43.96665" lon="7.15975">
        <ele>434</ele>
        <time>2019-05-11T14:20:58.000Z</time>
      </trkpt>
      <trkpt lat="43.96667" lon="7.15966">
        <ele>434.39999389648</ele>
        <time>2019-05-11T14:21:03.000Z</time>
      </trkpt>
      <trkpt lat="43.96669" lon="7.15961">
        <ele>435.20001220703</ele>
        <time>2019-05-11T14:21:08.000Z</time>
      </trkpt>
      <trkpt lat="43.9667" lon="7.1596">
        <ele>435.60000610352</ele>
        <time>2019-05-11T14:21:11.000Z</time>
      </trkpt>
      <trkpt lat="43.96672" lon="7.15959">
        <ele>436.39999389648</ele>
        <time>2019-05-11T14:21:15.000Z</time>
      </trkpt>
      <trkpt lat="43.96672" lon="7.15959">
        <ele>436.60000610352</ele>
        <time>2019-05-11T14:21:16.000Z</time>
      </trkpt>
      <trkpt lat="43.96672" lon="7.15953">
        <ele>437.39999389648</ele>
        <time>2019-05-11T14:21:21.000Z</time>
      </trkpt>
      <trkpt lat="43.96672" lon="7.15952">
        <ele>437.79998779297</ele>
        <time>2019-05-11T14:21:22.000Z</time>
      </trkpt>
      <trkpt lat="43.96672" lon="7.15943">
        <ele>438.39999389648</ele>
        <time>2019-05-11T14:21:29.000Z</time>
      </trkpt>
      <trkpt lat="43.96673" lon="7.1594">
        <ele>438.79998779297</ele>
        <time>2019-05-11T14:21:31.000Z</time>
      </trkpt>
      <trkpt lat="43.96675" lon="7.15937">
        <ele>440</ele>
        <time>2019-05-11T14:21:36.000Z</time>
      </trkpt>
      <trkpt lat="43.96675" lon="7.15938">
        <ele>440.20001220703</ele>
        <time>2019-05-11T14:21:38.000Z</time>
      </trkpt>
      <trkpt lat="43.9668" lon="7.15933">
        <ele>441</ele>
        <time>2019-05-11T14:21:45.000Z</time>
      </trkpt>
      <trkpt lat="43.9668" lon="7.15934">
        <ele>441.20001220703</ele>
        <time>2019-05-11T14:21:46.000Z</time>
      </trkpt>
      <trkpt lat="43.96681" lon="7.1593">
        <ele>441.79998779297</ele>
        <time>2019-05-11T14:21:51.000Z</time>
      </trkpt>
      <trkpt lat="43.96682" lon="7.15929">
        <ele>442.20001220703</ele>
        <time>2019-05-11T14:21:53.000Z</time>
      </trkpt>
      <trkpt lat="43.96681" lon="7.15926">
        <ele>442.39999389648</ele>
        <time>2019-05-11T14:21:54.000Z</time>
      </trkpt>
      <trkpt lat="43.96679" lon="7.15919">
        <ele>442.60000610352</ele>
        <time>2019-05-11T14:21:57.000Z</time>
      </trkpt>
      <trkpt lat="43.96679" lon="7.15916">
        <ele>442.60000610352</ele>
        <time>2019-05-11T14:22:01.000Z</time>
      </trkpt>
      <trkpt lat="43.96679" lon="7.15913">
        <ele>442.79998779297</ele>
        <time>2019-05-11T14:22:02.000Z</time>
      </trkpt>
      <trkpt lat="43.96678" lon="7.1591">
        <ele>443.20001220703</ele>
        <time>2019-05-11T14:22:04.000Z</time>
      </trkpt>
      <trkpt lat="43.96678" lon="7.15906">
        <ele>443.60000610352</ele>
        <time>2019-05-11T14:22:07.000Z</time>
      </trkpt>
      <trkpt lat="43.96677" lon="7.159">
        <ele>444.20001220703</ele>
        <time>2019-05-11T14:22:13.000Z</time>
      </trkpt>
      <trkpt lat="43.9668" lon="7.15901">
        <ele>445</ele>
        <time>2019-05-11T14:22:19.000Z</time>
      </trkpt>
      <trkpt lat="43.9668" lon="7.159">
        <ele>445.39999389648</ele>
        <time>2019-05-11T14:22:20.000Z</time>
      </trkpt>
      <trkpt lat="43.96681" lon="7.15904">
        <ele>446.39999389648</ele>
        <time>2019-05-11T14:22:25.000Z</time>
      </trkpt>
      <trkpt lat="43.96683" lon="7.15909">
        <ele>447.60000610352</ele>
        <time>2019-05-11T14:22:30.000Z</time>
      </trkpt>
      <trkpt lat="43.96683" lon="7.15909">
        <ele>447.79998779297</ele>
        <time>2019-05-11T14:22:31.000Z</time>
      </trkpt>
      <trkpt lat="43.96685" lon="7.15913">
        <ele>448.60000610352</ele>
        <time>2019-05-11T14:22:38.000Z</time>
      </trkpt>
      <trkpt lat="43.96687" lon="7.15917">
        <ele>449.39999389648</ele>
        <time>2019-05-11T14:22:45.000Z</time>
      </trkpt>
      <trkpt lat="43.96687" lon="7.15918">
        <ele>449.60000610352</ele>
        <time>2019-05-11T14:22:47.000Z</time>
      </trkpt>
      <trkpt lat="43.96688" lon="7.15917">
        <ele>450</ele>
        <time>2019-05-11T14:22:50.000Z</time>
      </trkpt>
      <trkpt lat="43.96689" lon="7.15917">
        <ele>450.79998779297</ele>
        <time>2019-05-11T14:22:55.000Z</time>
      </trkpt>
      <trkpt lat="43.96689" lon="7.15916">
        <ele>451</ele>
        <time>2019-05-11T14:22:56.000Z</time>
      </trkpt>
      <trkpt lat="43.9669" lon="7.15911">
        <ele>451.79998779297</ele>
        <time>2019-05-11T14:23:02.000Z</time>
      </trkpt>
      <trkpt lat="43.9669" lon="7.1591">
        <ele>452</ele>
        <time>2019-05-11T14:23:03.000Z</time>
      </trkpt>
      <trkpt lat="43.9669" lon="7.15905">
        <ele>452.79998779297</ele>
        <time>2019-05-11T14:23:08.000Z</time>
      </trkpt>
      <trkpt lat="43.9669" lon="7.15904">
        <ele>453</ele>
        <time>2019-05-11T14:23:09.000Z</time>
      </trkpt>
      <trkpt lat="43.96689" lon="7.15902">
        <ele>453</ele>
        <time>2019-05-11T14:23:10.000Z</time>
      </trkpt>
      <trkpt lat="43.96687" lon="7.15894">
        <ele>454</ele>
        <time>2019-05-11T14:23:17.000Z</time>
      </trkpt>
      <trkpt lat="43.96687" lon="7.15891">
        <ele>454.60000610352</ele>
        <time>2019-05-11T14:23:19.000Z</time>
      </trkpt>
      <trkpt lat="43.96687" lon="7.15887">
        <ele>455.20001220703</ele>
        <time>2019-05-11T14:23:21.000Z</time>
      </trkpt>
      <trkpt lat="43.96686" lon="7.15882">
        <ele>455.60000610352</ele>
        <time>2019-05-11T14:23:25.000Z</time>
      </trkpt>
      <trkpt lat="43.96685" lon="7.15877">
        <ele>456</ele>
        <time>2019-05-11T14:23:32.000Z</time>
      </trkpt>
      <trkpt lat="43.96685" lon="7.15874">
        <ele>456.20001220703</ele>
        <time>2019-05-11T14:23:37.000Z</time>
      </trkpt>
      <trkpt lat="43.96685" lon="7.15873">
        <ele>456.39999389648</ele>
        <time>2019-05-11T14:23:39.000Z</time>
      </trkpt>
      <trkpt lat="43.96686" lon="7.15866">
        <ele>457.20001220703</ele>
        <time>2019-05-11T14:23:47.000Z</time>
      </trkpt>
      <trkpt lat="43.96686" lon="7.15862">
        <ele>458.39999389648</ele>
        <time>2019-05-11T14:23:52.000Z</time>
      </trkpt>
      <trkpt lat="43.96686" lon="7.1586">
        <ele>458.79998779297</ele>
        <time>2019-05-11T14:23:55.000Z</time>
      </trkpt>
      <trkpt lat="43.96685" lon="7.15857">
        <ele>459.39999389648</ele>
        <time>2019-05-11T14:23:58.000Z</time>
      </trkpt>
      <trkpt lat="43.96684" lon="7.15853">
        <ele>459.20001220703</ele>
        <time>2019-05-11T14:24:03.000Z</time>
      </trkpt>
      <trkpt lat="43.96684" lon="7.15846">
        <ele>460.39999389648</ele>
        <time>2019-05-11T14:24:09.000Z</time>
      </trkpt>
      <trkpt lat="43.96684" lon="7.15843">
        <ele>461</ele>
        <time>2019-05-11T14:24:12.000Z</time>
      </trkpt>
      <trkpt lat="43.96684" lon="7.1584">
        <ele>461.60000610352</ele>
        <time>2019-05-11T14:24:15.000Z</time>
      </trkpt>
      <trkpt lat="43.96684" lon="7.15836">
        <ele>462.39999389648</ele>
        <time>2019-05-11T14:24:20.000Z</time>
      </trkpt>
      <trkpt lat="43.96684" lon="7.15835">
        <ele>462.79998779297</ele>
        <time>2019-05-11T14:24:21.000Z</time>
      </trkpt>
      <trkpt lat="43.96683" lon="7.15831">
        <ele>464</ele>
        <time>2019-05-11T14:24:26.000Z</time>
      </trkpt>
      <trkpt lat="43.96683" lon="7.15829">
        <ele>464.39999389648</ele>
        <time>2019-05-11T14:24:28.000Z</time>
      </trkpt>
      <trkpt lat="43.96682" lon="7.15827">
        <ele>465.20001220703</ele>
        <time>2019-05-11T14:24:30.000Z</time>
      </trkpt>
      <trkpt lat="43.96683" lon="7.15821">
        <ele>466.20001220703</ele>
        <time>2019-05-11T14:24:36.000Z</time>
      </trkpt>
      <trkpt lat="43.96687" lon="7.15818">
        <ele>467.20001220703</ele>
        <time>2019-05-11T14:24:42.000Z</time>
      </trkpt>
      <trkpt lat="43.96687" lon="7.15818">
        <ele>467.39999389648</ele>
        <time>2019-05-11T14:24:44.000Z</time>
      </trkpt>
      <trkpt lat="43.9669" lon="7.1581">
        <ele>467.20001220703</ele>
        <time>2019-05-11T14:24:49.000Z</time>
      </trkpt>
      <trkpt lat="43.96694" lon="7.15789">
        <ele>466.39999389648</ele>
        <time>2019-05-11T14:24:56.000Z</time>
      </trkpt>
      <trkpt lat="43.96695" lon="7.15781">
        <ele>466.20001220703</ele>
        <time>2019-05-11T14:24:59.000Z</time>
      </trkpt>
      <trkpt lat="43.96697" lon="7.15773">
        <ele>466.60000610352</ele>
        <time>2019-05-11T14:25:02.000Z</time>
      </trkpt>
      <trkpt lat="43.96698" lon="7.15752">
        <ele>466.39999389648</ele>
        <time>2019-05-11T14:25:07.000Z</time>
      </trkpt>
      <trkpt lat="43.96699" lon="7.15735">
        <ele>464.79998779297</ele>
        <time>2019-05-11T14:25:11.000Z</time>
      </trkpt>
      <trkpt lat="43.967" lon="7.15729">
        <ele>464.39999389648</ele>
        <time>2019-05-11T14:25:12.000Z</time>
      </trkpt>
      <trkpt lat="43.967" lon="7.15721">
        <ele>463.79998779297</ele>
        <time>2019-05-11T14:25:14.000Z</time>
      </trkpt>
      <trkpt lat="43.96699" lon="7.15716">
        <ele>463.79998779297</ele>
        <time>2019-05-11T14:25:16.000Z</time>
      </trkpt>
      <trkpt lat="43.96695" lon="7.15696">
        <ele>464.39999389648</ele>
        <time>2019-05-11T14:25:22.000Z</time>
      </trkpt>
      <trkpt lat="43.96693" lon="7.15682">
        <ele>464.79998779297</ele>
        <time>2019-05-11T14:25:27.000Z</time>
      </trkpt>
      <trkpt lat="43.96695" lon="7.15676">
        <ele>465.39999389648</ele>
        <time>2019-05-11T14:25:29.000Z</time>
      </trkpt>
      <trkpt lat="43.96701" lon="7.15656">
        <ele>465.39999389648</ele>
        <time>2019-05-11T14:25:35.000Z</time>
      </trkpt>
      <trkpt lat="43.96706" lon="7.15641">
        <ele>466</ele>
        <time>2019-05-11T14:25:41.000Z</time>
      </trkpt>
      <trkpt lat="43.96708" lon="7.15636">
        <ele>467</ele>
        <time>2019-05-11T14:25:45.000Z</time>
      </trkpt>
      <trkpt lat="43.96709" lon="7.15635">
        <ele>467.39999389648</ele>
        <time>2019-05-11T14:25:46.000Z</time>
      </trkpt>
      <trkpt lat="43.96709" lon="7.15628">
        <ele>468.39999389648</ele>
        <time>2019-05-11T14:25:49.000Z</time>
      </trkpt>
      <trkpt lat="43.96708" lon="7.15622">
        <ele>468.60000610352</ele>
        <time>2019-05-11T14:25:51.000Z</time>
      </trkpt>
      <trkpt lat="43.96709" lon="7.15607">
        <ele>469.20001220703</ele>
        <time>2019-05-11T14:25:56.000Z</time>
      </trkpt>
      <trkpt lat="43.96708" lon="7.15604">
        <ele>469.60000610352</ele>
        <time>2019-05-11T14:25:58.000Z</time>
      </trkpt>
      <trkpt lat="43.96706" lon="7.15598">
        <ele>470.79998779297</ele>
        <time>2019-05-11T14:26:01.000Z</time>
      </trkpt>
      <trkpt lat="43.96706" lon="7.15594">
        <ele>472</ele>
        <time>2019-05-11T14:26:04.000Z</time>
      </trkpt>
      <trkpt lat="43.96705" lon="7.1559">
        <ele>472.39999389648</ele>
        <time>2019-05-11T14:26:06.000Z</time>
      </trkpt>
      <trkpt lat="43.96704" lon="7.15585">
        <ele>473</ele>
        <time>2019-05-11T14:26:09.000Z</time>
      </trkpt>
      <trkpt lat="43.96706" lon="7.1558">
        <ele>473.79998779297</ele>
        <time>2019-05-11T14:26:12.000Z</time>
      </trkpt>
      <trkpt lat="43.96707" lon="7.1558">
        <ele>474.20001220703</ele>
        <time>2019-05-11T14:26:13.000Z</time>
      </trkpt>
      <trkpt lat="43.96708" lon="7.15578">
        <ele>474.79998779297</ele>
        <time>2019-05-11T14:26:17.000Z</time>
      </trkpt>
      <trkpt lat="43.9671" lon="7.15577">
        <ele>475.20001220703</ele>
        <time>2019-05-11T14:26:20.000Z</time>
      </trkpt>
      <trkpt lat="43.96712" lon="7.15577">
        <ele>475.79998779297</ele>
        <time>2019-05-11T14:26:23.000Z</time>
      </trkpt>
      <trkpt lat="43.96714" lon="7.15578">
        <ele>476.39999389648</ele>
        <time>2019-05-11T14:26:26.000Z</time>
      </trkpt>
      <trkpt lat="43.96717" lon="7.15581">
        <ele>477.39999389648</ele>
        <time>2019-05-11T14:26:32.000Z</time>
      </trkpt>
      <trkpt lat="43.96718" lon="7.15581">
        <ele>477.39999389648</ele>
        <time>2019-05-11T14:26:33.000Z</time>
      </trkpt>
      <trkpt lat="43.96722" lon="7.15582">
        <ele>478.60000610352</ele>
        <time>2019-05-11T14:26:39.000Z</time>
      </trkpt>
      <trkpt lat="43.96727" lon="7.1558">
        <ele>479.60000610352</ele>
        <time>2019-05-11T14:26:45.000Z</time>
      </trkpt>
      <trkpt lat="43.96728" lon="7.15581">
        <ele>479.79998779297</ele>
        <time>2019-05-11T14:26:47.000Z</time>
      </trkpt>
      <trkpt lat="43.9673" lon="7.15579">
        <ele>480</ele>
        <time>2019-05-11T14:26:50.000Z</time>
      </trkpt>
      <trkpt lat="43.96734" lon="7.15577">
        <ele>480</ele>
        <time>2019-05-11T14:26:51.000Z</time>
      </trkpt>
      <trkpt lat="43.96746" lon="7.15569">
        <ele>479.39999389648</ele>
        <time>2019-05-11T14:26:54.000Z</time>
      </trkpt>
      <trkpt lat="43.96754" lon="7.15568">
        <ele>478.39999389648</ele>
        <time>2019-05-11T14:26:56.000Z</time>
      </trkpt>
      <trkpt lat="43.96763" lon="7.15566">
        <ele>477.60000610352</ele>
        <time>2019-05-11T14:26:58.000Z</time>
      </trkpt>
      <trkpt lat="43.96767" lon="7.15565">
        <ele>477.39999389648</ele>
        <time>2019-05-11T14:26:59.000Z</time>
      </trkpt>
      <trkpt lat="43.9677" lon="7.15563">
        <ele>477.39999389648</ele>
        <time>2019-05-11T14:27:00.000Z</time>
      </trkpt>
      <trkpt lat="43.96774" lon="7.15562">
        <ele>477.20001220703</ele>
        <time>2019-05-11T14:27:01.000Z</time>
      </trkpt>
      <trkpt lat="43.96783" lon="7.15559">
        <ele>477</ele>
        <time>2019-05-11T14:27:03.000Z</time>
      </trkpt>
      <trkpt lat="43.96804" lon="7.15554">
        <ele>476.20001220703</ele>
        <time>2019-05-11T14:27:07.000Z</time>
      </trkpt>
      <trkpt lat="43.96813" lon="7.15552">
        <ele>475.20001220703</ele>
        <time>2019-05-11T14:27:09.000Z</time>
      </trkpt>
      <trkpt lat="43.96827" lon="7.15548">
        <ele>474.79998779297</ele>
        <time>2019-05-11T14:27:13.000Z</time>
      </trkpt>
      <trkpt lat="43.96831" lon="7.15544">
        <ele>474.79998779297</ele>
        <time>2019-05-11T14:27:15.000Z</time>
      </trkpt>
      <trkpt lat="43.96835" lon="7.1554">
        <ele>475</ele>
        <time>2019-05-11T14:27:17.000Z</time>
      </trkpt>
      <trkpt lat="43.96844" lon="7.15535">
        <ele>475.39999389648</ele>
        <time>2019-05-11T14:27:21.000Z</time>
      </trkpt>
      <trkpt lat="43.96846" lon="7.15535">
        <ele>475.20001220703</ele>
        <time>2019-05-11T14:27:22.000Z</time>
      </trkpt>
      <trkpt lat="43.96852" lon="7.15536">
        <ele>475.39999389648</ele>
        <time>2019-05-11T14:27:26.000Z</time>
      </trkpt>
      <trkpt lat="43.96854" lon="7.15536">
        <ele>475.39999389648</ele>
        <time>2019-05-11T14:27:27.000Z</time>
      </trkpt>
      <trkpt lat="43.96855" lon="7.15532">
        <ele>474.79998779297</ele>
        <time>2019-05-11T14:27:30.000Z</time>
      </trkpt>
      <trkpt lat="43.96856" lon="7.15531">
        <ele>474.60000610352</ele>
        <time>2019-05-11T14:27:31.000Z</time>
      </trkpt>
      <trkpt lat="43.96861" lon="7.15523">
        <ele>475.79998779297</ele>
        <time>2019-05-11T14:27:37.000Z</time>
      </trkpt>
      <trkpt lat="43.96867" lon="7.1552">
        <ele>476.20001220703</ele>
        <time>2019-05-11T14:27:40.000Z</time>
      </trkpt>
      <trkpt lat="43.96873" lon="7.15516">
        <ele>476.39999389648</ele>
        <time>2019-05-11T14:27:42.000Z</time>
      </trkpt>
      <trkpt lat="43.96882" lon="7.15514">
        <ele>477.20001220703</ele>
        <time>2019-05-11T14:27:47.000Z</time>
      </trkpt>
      <trkpt lat="43.96892" lon="7.1551">
        <ele>478.20001220703</ele>
        <time>2019-05-11T14:27:52.000Z</time>
      </trkpt>
      <trkpt lat="43.96893" lon="7.15509">
        <ele>478.20001220703</ele>
        <time>2019-05-11T14:27:53.000Z</time>
      </trkpt>
      <trkpt lat="43.96897" lon="7.15508">
        <ele>478.20001220703</ele>
        <time>2019-05-11T14:27:55.000Z</time>
      </trkpt>
      <trkpt lat="43.96901" lon="7.15506">
        <ele>478.39999389648</ele>
        <time>2019-05-11T14:27:57.000Z</time>
      </trkpt>
      <trkpt lat="43.9692" lon="7.155">
        <ele>479</ele>
        <time>2019-05-11T14:28:04.000Z</time>
      </trkpt>
      <trkpt lat="43.9692" lon="7.155">
        <ele>479.39999389648</ele>
        <time>2019-05-11T14:28:06.000Z</time>
      </trkpt>
      <trkpt lat="43.96921" lon="7.155">
        <ele>479.79998779297</ele>
        <time>2019-05-11T14:28:07.000Z</time>
      </trkpt>
      <trkpt lat="43.96921" lon="7.155">
        <ele>480.39999389648</ele>
        <time>2019-05-11T14:28:09.000Z</time>
      </trkpt>
      <trkpt lat="43.96924" lon="7.155">
        <ele>480.60000610352</ele>
        <time>2019-05-11T14:28:16.000Z</time>
      </trkpt>
      <trkpt lat="43.96932" lon="7.15497">
        <ele>480.60000610352</ele>
        <time>2019-05-11T14:28:24.000Z</time>
      </trkpt>
      <trkpt lat="43.96938" lon="7.15498">
        <ele>480.20001220703</ele>
        <time>2019-05-11T14:28:33.000Z</time>
      </trkpt>
      <trkpt lat="43.9694" lon="7.15498">
        <ele>480.20001220703</ele>
        <time>2019-05-11T14:28:38.000Z</time>
      </trkpt>
      <trkpt lat="43.9694" lon="7.15499">
        <ele>480.60000610352</ele>
        <time>2019-05-11T14:28:46.000Z</time>
      </trkpt>
      <trkpt lat="43.96939" lon="7.155">
        <ele>481.60000610352</ele>
        <time>2019-05-11T14:28:51.000Z</time>
      </trkpt>
      <trkpt lat="43.96939" lon="7.155">
        <ele>482.60000610352</ele>
        <time>2019-05-11T14:28:54.000Z</time>
      </trkpt>
      <trkpt lat="43.96941" lon="7.155">
        <ele>483.20001220703</ele>
        <time>2019-05-11T14:28:57.000Z</time>
      </trkpt>
      <trkpt lat="43.96941" lon="7.155">
        <ele>483.60000610352</ele>
        <time>2019-05-11T14:29:01.000Z</time>
      </trkpt>
      <trkpt lat="43.96941" lon="7.15501">
        <ele>483.60000610352</ele>
        <time>2019-05-11T14:29:04.000Z</time>
      </trkpt>
      <trkpt lat="43.96941" lon="7.15502">
        <ele>484.60000610352</ele>
        <time>2019-05-11T14:29:08.000Z</time>
      </trkpt>
      <trkpt lat="43.96941" lon="7.15502">
        <ele>485.20001220703</ele>
        <time>2019-05-11T14:29:11.000Z</time>
      </trkpt>
      <trkpt lat="43.96943" lon="7.15504">
        <ele>485.60000610352</ele>
        <time>2019-05-11T14:29:14.000Z</time>
      </trkpt>
      <trkpt lat="43.96945" lon="7.15505">
        <ele>486.20001220703</ele>
        <time>2019-05-11T14:29:17.000Z</time>
      </trkpt>
      <trkpt lat="43.96945" lon="7.15505">
        <ele>486.60000610352</ele>
        <time>2019-05-11T14:29:19.000Z</time>
      </trkpt>
      <trkpt lat="43.9695" lon="7.15506">
        <ele>487.79998779297</ele>
        <time>2019-05-11T14:29:25.000Z</time>
      </trkpt>
      <trkpt lat="43.96952" lon="7.15507">
        <ele>488.79998779297</ele>
        <time>2019-05-11T14:29:30.000Z</time>
      </trkpt>
      <trkpt lat="43.96954" lon="7.15506">
        <ele>489</ele>
        <time>2019-05-11T14:29:32.000Z</time>
      </trkpt>
      <trkpt lat="43.96963" lon="7.15505">
        <ele>489</ele>
        <time>2019-05-11T14:29:36.000Z</time>
      </trkpt>
      <trkpt lat="43.96969" lon="7.15508">
        <ele>488.79998779297</ele>
        <time>2019-05-11T14:29:40.000Z</time>
      </trkpt>
      <trkpt lat="43.9697" lon="7.15508">
        <ele>488.79998779297</ele>
        <time>2019-05-11T14:29:41.000Z</time>
      </trkpt>
      <trkpt lat="43.96973" lon="7.15512">
        <ele>489.39999389648</ele>
        <time>2019-05-11T14:29:44.000Z</time>
      </trkpt>
      <trkpt lat="43.96975" lon="7.15515">
        <ele>489.79998779297</ele>
        <time>2019-05-11T14:29:46.000Z</time>
      </trkpt>
      <trkpt lat="43.96977" lon="7.15517">
        <ele>490.79998779297</ele>
        <time>2019-05-11T14:29:50.000Z</time>
      </trkpt>
      <trkpt lat="43.96977" lon="7.15518">
        <ele>491</ele>
        <time>2019-05-11T14:29:51.000Z</time>
      </trkpt>
      <trkpt lat="43.96981" lon="7.15522">
        <ele>491.79998779297</ele>
        <time>2019-05-11T14:29:58.000Z</time>
      </trkpt>
      <trkpt lat="43.96985" lon="7.15529">
        <ele>492.60000610352</ele>
        <time>2019-05-11T14:30:05.000Z</time>
      </trkpt>
      <trkpt lat="43.96986" lon="7.15529">
        <ele>492.79998779297</ele>
        <time>2019-05-11T14:30:06.000Z</time>
      </trkpt>
      <trkpt lat="43.96987" lon="7.15529">
        <ele>492.79998779297</ele>
        <time>2019-05-11T14:30:09.000Z</time>
      </trkpt>
      <trkpt lat="43.96988" lon="7.1553">
        <ele>493</ele>
        <time>2019-05-11T14:30:11.000Z</time>
      </trkpt>
      <trkpt lat="43.96993" lon="7.15528">
        <ele>494</ele>
        <time>2019-05-11T14:30:18.000Z</time>
      </trkpt>
      <trkpt lat="43.96992" lon="7.15522">
        <ele>495</ele>
        <time>2019-05-11T14:30:25.000Z</time>
      </trkpt>
      <trkpt lat="43.96993" lon="7.15521">
        <ele>495</ele>
        <time>2019-05-11T14:30:26.000Z</time>
      </trkpt>
      <trkpt lat="43.96993" lon="7.15516">
        <ele>496</ele>
        <time>2019-05-11T14:30:33.000Z</time>
      </trkpt>
      <trkpt lat="43.96996" lon="7.15516">
        <ele>497</ele>
        <time>2019-05-11T14:30:39.000Z</time>
      </trkpt>
      <trkpt lat="43.97" lon="7.1552">
        <ele>498.20001220703</ele>
        <time>2019-05-11T14:30:46.000Z</time>
      </trkpt>
      <trkpt lat="43.97002" lon="7.15522">
        <ele>499.39999389648</ele>
        <time>2019-05-11T14:30:52.000Z</time>
      </trkpt>
      <trkpt lat="43.97002" lon="7.15524">
        <ele>499.60000610352</ele>
        <time>2019-05-11T14:30:54.000Z</time>
      </trkpt>
      <trkpt lat="43.97005" lon="7.15524">
        <ele>500.39999389648</ele>
        <time>2019-05-11T14:30:59.000Z</time>
      </trkpt>
      <trkpt lat="43.97007" lon="7.15522">
        <ele>500.79998779297</ele>
        <time>2019-05-11T14:31:02.000Z</time>
      </trkpt>
      <trkpt lat="43.97013" lon="7.15519">
        <ele>501.20001220703</ele>
        <time>2019-05-11T14:31:10.000Z</time>
      </trkpt>
      <trkpt lat="43.97016" lon="7.15516">
        <ele>501.60000610352</ele>
        <time>2019-05-11T14:31:15.000Z</time>
      </trkpt>
      <trkpt lat="43.97018" lon="7.15515">
        <ele>501.79998779297</ele>
        <time>2019-05-11T14:31:17.000Z</time>
      </trkpt>
      <trkpt lat="43.9702" lon="7.15515">
        <ele>502.20001220703</ele>
        <time>2019-05-11T14:31:20.000Z</time>
      </trkpt>
      <trkpt lat="43.97019" lon="7.15518">
        <ele>502.39999389648</ele>
        <time>2019-05-11T14:31:23.000Z</time>
      </trkpt>
      <trkpt lat="43.97019" lon="7.15519">
        <ele>502.60000610352</ele>
        <time>2019-05-11T14:31:24.000Z</time>
      </trkpt>
      <trkpt lat="43.97016" lon="7.15526">
        <ele>503.60000610352</ele>
        <time>2019-05-11T14:31:32.000Z</time>
      </trkpt>
      <trkpt lat="43.97015" lon="7.15533">
        <ele>504.39999389648</ele>
        <time>2019-05-11T14:31:40.000Z</time>
      </trkpt>
      <trkpt lat="43.97015" lon="7.15534">
        <ele>504.60000610352</ele>
        <time>2019-05-11T14:31:41.000Z</time>
      </trkpt>
      <trkpt lat="43.97017" lon="7.15543">
        <ele>505.60000610352</ele>
        <time>2019-05-11T14:31:49.000Z</time>
      </trkpt>
      <trkpt lat="43.9702" lon="7.15544">
        <ele>506.79998779297</ele>
        <time>2019-05-11T14:31:55.000Z</time>
      </trkpt>
      <trkpt lat="43.97022" lon="7.15544">
        <ele>507</ele>
        <time>2019-05-11T14:31:59.000Z</time>
      </trkpt>
      <trkpt lat="43.97023" lon="7.15544">
        <ele>507</ele>
        <time>2019-05-11T14:32:00.000Z</time>
      </trkpt>
      <trkpt lat="43.97028" lon="7.15545">
        <ele>507.60000610352</ele>
        <time>2019-05-11T14:32:04.000Z</time>
      </trkpt>
      <trkpt lat="43.97029" lon="7.15545">
        <ele>507.79998779297</ele>
        <time>2019-05-11T14:32:05.000Z</time>
      </trkpt>
      <trkpt lat="43.97039" lon="7.15542">
        <ele>509</ele>
        <time>2019-05-11T14:32:12.000Z</time>
      </trkpt>
      <trkpt lat="43.97046" lon="7.15541">
        <ele>510</ele>
        <time>2019-05-11T14:32:18.000Z</time>
      </trkpt>
      <trkpt lat="43.97051" lon="7.15539">
        <ele>510.60000610352</ele>
        <time>2019-05-11T14:32:22.000Z</time>
      </trkpt>
      <trkpt lat="43.97055" lon="7.15538">
        <ele>511.20001220703</ele>
        <time>2019-05-11T14:32:25.000Z</time>
      </trkpt>
      <trkpt lat="43.9706" lon="7.15537">
        <ele>512.20001220703</ele>
        <time>2019-05-11T14:32:29.000Z</time>
      </trkpt>
      <trkpt lat="43.97061" lon="7.15537">
        <ele>512.20001220703</ele>
        <time>2019-05-11T14:32:30.000Z</time>
      </trkpt>
      <trkpt lat="43.9707" lon="7.15534">
        <ele>513.40002441406</ele>
        <time>2019-05-11T14:32:37.000Z</time>
      </trkpt>
      <trkpt lat="43.97078" lon="7.15532">
        <ele>514.40002441406</ele>
        <time>2019-05-11T14:32:43.000Z</time>
      </trkpt>
      <trkpt lat="43.97083" lon="7.15532">
        <ele>515</ele>
        <time>2019-05-11T14:32:46.000Z</time>
      </trkpt>
      <trkpt lat="43.97088" lon="7.1553">
        <ele>515.40002441406</ele>
        <time>2019-05-11T14:32:50.000Z</time>
      </trkpt>
      <trkpt lat="43.97093" lon="7.15529">
        <ele>515.79998779297</ele>
        <time>2019-05-11T14:32:53.000Z</time>
      </trkpt>
      <trkpt lat="43.97102" lon="7.15527">
        <ele>516.40002441406</ele>
        <time>2019-05-11T14:32:58.000Z</time>
      </trkpt>
      <trkpt lat="43.97112" lon="7.15523">
        <ele>517</ele>
        <time>2019-05-11T14:33:03.000Z</time>
      </trkpt>
      <trkpt lat="43.97122" lon="7.1552">
        <ele>517.59997558594</ele>
        <time>2019-05-11T14:33:07.000Z</time>
      </trkpt>
      <trkpt lat="43.97129" lon="7.15516">
        <ele>518</ele>
        <time>2019-05-11T14:33:10.000Z</time>
      </trkpt>
      <trkpt lat="43.97147" lon="7.1551">
        <ele>518.59997558594</ele>
        <time>2019-05-11T14:33:17.000Z</time>
      </trkpt>
      <trkpt lat="43.97155" lon="7.15507">
        <ele>518.79998779297</ele>
        <time>2019-05-11T14:33:20.000Z</time>
      </trkpt>
      <trkpt lat="43.97169" lon="7.15503">
        <ele>519.59997558594</ele>
        <time>2019-05-11T14:33:26.000Z</time>
      </trkpt>
      <trkpt lat="43.97171" lon="7.15502">
        <ele>519.79998779297</ele>
        <time>2019-05-11T14:33:27.000Z</time>
      </trkpt>
      <trkpt lat="43.97181" lon="7.15499">
        <ele>520.59997558594</ele>
        <time>2019-05-11T14:33:32.000Z</time>
      </trkpt>
      <trkpt lat="43.97183" lon="7.15498">
        <ele>520.59997558594</ele>
        <time>2019-05-11T14:33:33.000Z</time>
      </trkpt>
      <trkpt lat="43.97192" lon="7.15495">
        <ele>521.59997558594</ele>
        <time>2019-05-11T14:33:38.000Z</time>
      </trkpt>
      <trkpt lat="43.97193" lon="7.15495">
        <ele>521.79998779297</ele>
        <time>2019-05-11T14:33:39.000Z</time>
      </trkpt>
      <trkpt lat="43.97199" lon="7.15492">
        <ele>522.79998779297</ele>
        <time>2019-05-11T14:33:43.000Z</time>
      </trkpt>
      <trkpt lat="43.97201" lon="7.1549">
        <ele>523</ele>
        <time>2019-05-11T14:33:44.000Z</time>
      </trkpt>
      <trkpt lat="43.97209" lon="7.15485">
        <ele>524</ele>
        <time>2019-05-11T14:33:49.000Z</time>
      </trkpt>
      <trkpt lat="43.97213" lon="7.15482">
        <ele>524.40002441406</ele>
        <time>2019-05-11T14:33:51.000Z</time>
      </trkpt>
      <trkpt lat="43.97221" lon="7.15478">
        <ele>525</ele>
        <time>2019-05-11T14:33:55.000Z</time>
      </trkpt>
      <trkpt lat="43.97224" lon="7.15477">
        <ele>525.40002441406</ele>
        <time>2019-05-11T14:33:57.000Z</time>
      </trkpt>
      <trkpt lat="43.97229" lon="7.15476">
        <ele>526.20001220703</ele>
        <time>2019-05-11T14:34:00.000Z</time>
      </trkpt>
      <trkpt lat="43.97234" lon="7.15474">
        <ele>526.79998779297</ele>
        <time>2019-05-11T14:34:03.000Z</time>
      </trkpt>
      <trkpt lat="43.97237" lon="7.15474">
        <ele>527.40002441406</ele>
        <time>2019-05-11T14:34:05.000Z</time>
      </trkpt>
      <trkpt lat="43.97245" lon="7.15472">
        <ele>528.59997558594</ele>
        <time>2019-05-11T14:34:10.000Z</time>
      </trkpt>
      <trkpt lat="43.97249" lon="7.15472">
        <ele>529</ele>
        <time>2019-05-11T14:34:12.000Z</time>
      </trkpt>
      <trkpt lat="43.97252" lon="7.15471">
        <ele>529.59997558594</ele>
        <time>2019-05-11T14:34:14.000Z</time>
      </trkpt>
      <trkpt lat="43.9726" lon="7.1547">
        <ele>530.79998779297</ele>
        <time>2019-05-11T14:34:19.000Z</time>
      </trkpt>
      <trkpt lat="43.97263" lon="7.15469">
        <ele>531</ele>
        <time>2019-05-11T14:34:21.000Z</time>
      </trkpt>
      <trkpt lat="43.97274" lon="7.15462">
        <ele>531.79998779297</ele>
        <time>2019-05-11T14:34:28.000Z</time>
      </trkpt>
      <trkpt lat="43.97288" lon="7.15453">
        <ele>532.79998779297</ele>
        <time>2019-05-11T14:34:36.000Z</time>
      </trkpt>
      <trkpt lat="43.9729" lon="7.15452">
        <ele>533</ele>
        <time>2019-05-11T14:34:37.000Z</time>
      </trkpt>
      <trkpt lat="43.97297" lon="7.15446">
        <ele>534</ele>
        <time>2019-05-11T14:34:42.000Z</time>
      </trkpt>
      <trkpt lat="43.97299" lon="7.15445">
        <ele>534</ele>
        <time>2019-05-11T14:34:43.000Z</time>
      </trkpt>
      <trkpt lat="43.97313" lon="7.15431">
        <ele>535</ele>
        <time>2019-05-11T14:34:51.000Z</time>
      </trkpt>
      <trkpt lat="43.97315" lon="7.15429">
        <ele>535.40002441406</ele>
        <time>2019-05-11T14:34:52.000Z</time>
      </trkpt>
      <trkpt lat="43.9732" lon="7.15424">
        <ele>536.20001220703</ele>
        <time>2019-05-11T14:34:55.000Z</time>
      </trkpt>
      <trkpt lat="43.97325" lon="7.15415">
        <ele>537.20001220703</ele>
        <time>2019-05-11T14:34:59.000Z</time>
      </trkpt>
      <trkpt lat="43.97327" lon="7.15411">
        <ele>537.59997558594</ele>
        <time>2019-05-11T14:35:01.000Z</time>
      </trkpt>
      <trkpt lat="43.9733" lon="7.15407">
        <ele>537.79998779297</ele>
        <time>2019-05-11T14:35:03.000Z</time>
      </trkpt>
      <trkpt lat="43.97334" lon="7.15401">
        <ele>538.40002441406</ele>
        <time>2019-05-11T14:35:06.000Z</time>
      </trkpt>
      <trkpt lat="43.97335" lon="7.15399">
        <ele>538.59997558594</ele>
        <time>2019-05-11T14:35:07.000Z</time>
      </trkpt>
      <trkpt lat="43.97341" lon="7.15393">
        <ele>539.40002441406</ele>
        <time>2019-05-11T14:35:12.000Z</time>
      </trkpt>
      <trkpt lat="43.97344" lon="7.15391">
        <ele>539.79998779297</ele>
        <time>2019-05-11T14:35:14.000Z</time>
      </trkpt>
      <trkpt lat="43.97353" lon="7.15389">
        <ele>540.59997558594</ele>
        <time>2019-05-11T14:35:19.000Z</time>
      </trkpt>
      <trkpt lat="43.97359" lon="7.15389">
        <ele>541</ele>
        <time>2019-05-11T14:35:22.000Z</time>
      </trkpt>
      <trkpt lat="43.97366" lon="7.15389">
        <ele>541.59997558594</ele>
        <time>2019-05-11T14:35:26.000Z</time>
      </trkpt>
      <trkpt lat="43.97373" lon="7.15391">
        <ele>542.20001220703</ele>
        <time>2019-05-11T14:35:30.000Z</time>
      </trkpt>
      <trkpt lat="43.97379" lon="7.15393">
        <ele>542.79998779297</ele>
        <time>2019-05-11T14:35:33.000Z</time>
      </trkpt>
      <trkpt lat="43.97387" lon="7.15395">
        <ele>543.79998779297</ele>
        <time>2019-05-11T14:35:38.000Z</time>
      </trkpt>
      <trkpt lat="43.97395" lon="7.15395">
        <ele>545</ele>
        <time>2019-05-11T14:35:44.000Z</time>
      </trkpt>
      <trkpt lat="43.97402" lon="7.15396">
        <ele>546.20001220703</ele>
        <time>2019-05-11T14:35:49.000Z</time>
      </trkpt>
      <trkpt lat="43.97403" lon="7.15396">
        <ele>546.40002441406</ele>
        <time>2019-05-11T14:35:50.000Z</time>
      </trkpt>
      <trkpt lat="43.9741" lon="7.15396">
        <ele>547.20001220703</ele>
        <time>2019-05-11T14:35:55.000Z</time>
      </trkpt>
      <trkpt lat="43.97415" lon="7.15394">
        <ele>548.20001220703</ele>
        <time>2019-05-11T14:35:59.000Z</time>
      </trkpt>
      <trkpt lat="43.97416" lon="7.15394">
        <ele>548.40002441406</ele>
        <time>2019-05-11T14:36:00.000Z</time>
      </trkpt>
      <trkpt lat="43.97421" lon="7.15388">
        <ele>549.40002441406</ele>
        <time>2019-05-11T14:36:04.000Z</time>
      </trkpt>
      <trkpt lat="43.97422" lon="7.15386">
        <ele>549.59997558594</ele>
        <time>2019-05-11T14:36:05.000Z</time>
      </trkpt>
      <trkpt lat="43.97426" lon="7.15378">
        <ele>550.79998779297</ele>
        <time>2019-05-11T14:36:09.000Z</time>
      </trkpt>
      <trkpt lat="43.97427" lon="7.15371">
        <ele>551.59997558594</ele>
        <time>2019-05-11T14:36:12.000Z</time>
      </trkpt>
      <trkpt lat="43.97428" lon="7.1537">
        <ele>552</ele>
        <time>2019-05-11T14:36:13.000Z</time>
      </trkpt>
      <trkpt lat="43.97431" lon="7.15361">
        <ele>553.20001220703</ele>
        <time>2019-05-11T14:36:18.000Z</time>
      </trkpt>
      <trkpt lat="43.97431" lon="7.15359">
        <ele>553.40002441406</ele>
        <time>2019-05-11T14:36:19.000Z</time>
      </trkpt>
      <trkpt lat="43.97434" lon="7.15351">
        <ele>554.20001220703</ele>
        <time>2019-05-11T14:36:23.000Z</time>
      </trkpt>
      <trkpt lat="43.97436" lon="7.15343">
        <ele>554.79998779297</ele>
        <time>2019-05-11T14:36:27.000Z</time>
      </trkpt>
      <trkpt lat="43.97438" lon="7.15338">
        <ele>555.20001220703</ele>
        <time>2019-05-11T14:36:30.000Z</time>
      </trkpt>
      <trkpt lat="43.9744" lon="7.15331">
        <ele>555.79998779297</ele>
        <time>2019-05-11T14:36:34.000Z</time>
      </trkpt>
      <trkpt lat="43.97444" lon="7.15324">
        <ele>556.20001220703</ele>
        <time>2019-05-11T14:36:38.000Z</time>
      </trkpt>
      <trkpt lat="43.97446" lon="7.1532">
        <ele>556.59997558594</ele>
        <time>2019-05-11T14:36:40.000Z</time>
      </trkpt>
      <trkpt lat="43.97451" lon="7.15314">
        <ele>557.40002441406</ele>
        <time>2019-05-11T14:36:44.000Z</time>
      </trkpt>
      <trkpt lat="43.97455" lon="7.15309">
        <ele>558</ele>
        <time>2019-05-11T14:36:47.000Z</time>
      </trkpt>
      <trkpt lat="43.97462" lon="7.15302">
        <ele>558.59997558594</ele>
        <time>2019-05-11T14:36:51.000Z</time>
      </trkpt>
      <trkpt lat="43.9747" lon="7.15294">
        <ele>559.40002441406</ele>
        <time>2019-05-11T14:36:55.000Z</time>
      </trkpt>
      <trkpt lat="43.97472" lon="7.15291">
        <ele>559.59997558594</ele>
        <time>2019-05-11T14:36:56.000Z</time>
      </trkpt>
      <trkpt lat="43.97489" lon="7.15275">
        <ele>560.79998779297</ele>
        <time>2019-05-11T14:37:04.000Z</time>
      </trkpt>
      <trkpt lat="43.97507" lon="7.1526">
        <ele>561.79998779297</ele>
        <time>2019-05-11T14:37:12.000Z</time>
      </trkpt>
      <trkpt lat="43.97509" lon="7.15258">
        <ele>562</ele>
        <time>2019-05-11T14:37:13.000Z</time>
      </trkpt>
      <trkpt lat="43.97523" lon="7.15245">
        <ele>562.79998779297</ele>
        <time>2019-05-11T14:37:20.000Z</time>
      </trkpt>
      <trkpt lat="43.97527" lon="7.15242">
        <ele>563.20001220703</ele>
        <time>2019-05-11T14:37:22.000Z</time>
      </trkpt>
      <trkpt lat="43.97538" lon="7.15231">
        <ele>564</ele>
        <time>2019-05-11T14:37:28.000Z</time>
      </trkpt>
      <trkpt lat="43.97541" lon="7.15228">
        <ele>564.20001220703</ele>
        <time>2019-05-11T14:37:30.000Z</time>
      </trkpt>
      <trkpt lat="43.97556" lon="7.15212">
        <ele>564.79998779297</ele>
        <time>2019-05-11T14:37:38.000Z</time>
      </trkpt>
      <trkpt lat="43.97558" lon="7.1521">
        <ele>565</ele>
        <time>2019-05-11T14:37:39.000Z</time>
      </trkpt>
      <trkpt lat="43.97571" lon="7.15204">
        <ele>565.40002441406</ele>
        <time>2019-05-11T14:37:45.000Z</time>
      </trkpt>
      <trkpt lat="43.9758" lon="7.152">
        <ele>566</ele>
        <time>2019-05-11T14:37:49.000Z</time>
      </trkpt>
      <trkpt lat="43.97592" lon="7.15197">
        <ele>566.79998779297</ele>
        <time>2019-05-11T14:37:55.000Z</time>
      </trkpt>
      <trkpt lat="43.97597" lon="7.15196">
        <ele>567.20001220703</ele>
        <time>2019-05-11T14:37:57.000Z</time>
      </trkpt>
      <trkpt lat="43.97611" lon="7.15192">
        <ele>568</ele>
        <time>2019-05-11T14:38:04.000Z</time>
      </trkpt>
      <trkpt lat="43.97616" lon="7.15192">
        <ele>568.20001220703</ele>
        <time>2019-05-11T14:38:06.000Z</time>
      </trkpt>
      <trkpt lat="43.97627" lon="7.15191">
        <ele>569.40002441406</ele>
        <time>2019-05-11T14:38:12.000Z</time>
      </trkpt>
      <trkpt lat="43.97629" lon="7.1519">
        <ele>569.59997558594</ele>
        <time>2019-05-11T14:38:13.000Z</time>
      </trkpt>
      <trkpt lat="43.97643" lon="7.15192">
        <ele>570.20001220703</ele>
        <time>2019-05-11T14:38:20.000Z</time>
      </trkpt>
      <trkpt lat="43.97645" lon="7.15192">
        <ele>570.40002441406</ele>
        <time>2019-05-11T14:38:21.000Z</time>
      </trkpt>
      <trkpt lat="43.97656" lon="7.15193">
        <ele>571.40002441406</ele>
        <time>2019-05-11T14:38:27.000Z</time>
      </trkpt>
      <trkpt lat="43.97658" lon="7.15193">
        <ele>571.40002441406</ele>
        <time>2019-05-11T14:38:28.000Z</time>
      </trkpt>
      <trkpt lat="43.9767" lon="7.1519">
        <ele>572.20001220703</ele>
        <time>2019-05-11T14:38:35.000Z</time>
      </trkpt>
      <trkpt lat="43.97673" lon="7.15188">
        <ele>572.59997558594</ele>
        <time>2019-05-11T14:38:37.000Z</time>
      </trkpt>
      <trkpt lat="43.97678" lon="7.15186">
        <ele>572.79998779297</ele>
        <time>2019-05-11T14:38:40.000Z</time>
      </trkpt>
      <trkpt lat="43.97683" lon="7.15184">
        <ele>573</ele>
        <time>2019-05-11T14:38:42.000Z</time>
      </trkpt>
      <trkpt lat="43.97689" lon="7.15183">
        <ele>573.59997558594</ele>
        <time>2019-05-11T14:38:45.000Z</time>
      </trkpt>
      <trkpt lat="43.97698" lon="7.15184">
        <ele>574.20001220703</ele>
        <time>2019-05-11T14:38:49.000Z</time>
      </trkpt>
      <trkpt lat="43.97712" lon="7.15186">
        <ele>574.59997558594</ele>
        <time>2019-05-11T14:38:54.000Z</time>
      </trkpt>
      <trkpt lat="43.97717" lon="7.15187">
        <ele>575.20001220703</ele>
        <time>2019-05-11T14:38:56.000Z</time>
      </trkpt>
      <trkpt lat="43.97723" lon="7.15188">
        <ele>575.59997558594</ele>
        <time>2019-05-11T14:38:58.000Z</time>
      </trkpt>
      <trkpt lat="43.97736" lon="7.1519">
        <ele>576.79998779297</ele>
        <time>2019-05-11T14:39:04.000Z</time>
      </trkpt>
      <trkpt lat="43.97738" lon="7.1519">
        <ele>577</ele>
        <time>2019-05-11T14:39:05.000Z</time>
      </trkpt>
      <trkpt lat="43.97753" lon="7.15193">
        <ele>577.79998779297</ele>
        <time>2019-05-11T14:39:12.000Z</time>
      </trkpt>
      <trkpt lat="43.97773" lon="7.15194">
        <ele>578.40002441406</ele>
        <time>2019-05-11T14:39:20.000Z</time>
      </trkpt>
      <trkpt lat="43.9779" lon="7.15192">
        <ele>578.79998779297</ele>
        <time>2019-05-11T14:39:26.000Z</time>
      </trkpt>
      <trkpt lat="43.97797" lon="7.1519">
        <ele>579.20001220703</ele>
        <time>2019-05-11T14:39:28.000Z</time>
      </trkpt>
      <trkpt lat="43.97819" lon="7.15189">
        <ele>579</ele>
        <time>2019-05-11T14:39:32.000Z</time>
      </trkpt>
      <trkpt lat="43.97841" lon="7.15193">
        <ele>577.20001220703</ele>
        <time>2019-05-11T14:39:35.000Z</time>
      </trkpt>
      <trkpt lat="43.97849" lon="7.15196">
        <ele>576.40002441406</ele>
        <time>2019-05-11T14:39:36.000Z</time>
      </trkpt>
      <trkpt lat="43.97856" lon="7.15202">
        <ele>575.59997558594</ele>
        <time>2019-05-11T14:39:37.000Z</time>
      </trkpt>
      <trkpt lat="43.97872" lon="7.15217">
        <ele>574.20001220703</ele>
        <time>2019-05-11T14:39:39.000Z</time>
      </trkpt>
      <trkpt lat="43.97887" lon="7.15235">
        <ele>572.40002441406</ele>
        <time>2019-05-11T14:39:41.000Z</time>
      </trkpt>
      <trkpt lat="43.97895" lon="7.15245">
        <ele>571</ele>
        <time>2019-05-11T14:39:42.000Z</time>
      </trkpt>
      <trkpt lat="43.97903" lon="7.15252">
        <ele>569.79998779297</ele>
        <time>2019-05-11T14:39:43.000Z</time>
      </trkpt>
      <trkpt lat="43.97919" lon="7.15263">
        <ele>568.20001220703</ele>
        <time>2019-05-11T14:39:45.000Z</time>
      </trkpt>
      <trkpt lat="43.97928" lon="7.15266">
        <ele>567.40002441406</ele>
        <time>2019-05-11T14:39:46.000Z</time>
      </trkpt>
      <trkpt lat="43.97945" lon="7.15268">
        <ele>566.40002441406</ele>
        <time>2019-05-11T14:39:48.000Z</time>
      </trkpt>
      <trkpt lat="43.97954" lon="7.15271">
        <ele>565.79998779297</ele>
        <time>2019-05-11T14:39:49.000Z</time>
      </trkpt>
      <trkpt lat="43.97962" lon="7.15274">
        <ele>565.40002441406</ele>
        <time>2019-05-11T14:39:50.000Z</time>
      </trkpt>
      <trkpt lat="43.97969" lon="7.15279">
        <ele>565</ele>
        <time>2019-05-11T14:39:51.000Z</time>
      </trkpt>
      <trkpt lat="43.97983" lon="7.15284">
        <ele>565.20001220703</ele>
        <time>2019-05-11T14:39:53.000Z</time>
      </trkpt>
      <trkpt lat="43.97991" lon="7.15285">
        <ele>565.20001220703</ele>
        <time>2019-05-11T14:39:54.000Z</time>
      </trkpt>
      <trkpt lat="43.98014" lon="7.15294">
        <ele>564.59997558594</ele>
        <time>2019-05-11T14:39:57.000Z</time>
      </trkpt>
      <trkpt lat="43.98025" lon="7.15308">
        <ele>564</ele>
        <time>2019-05-11T14:39:59.000Z</time>
      </trkpt>
      <trkpt lat="43.98028" lon="7.15329">
        <ele>563</ele>
        <time>2019-05-11T14:40:01.000Z</time>
      </trkpt>
      <trkpt lat="43.98028" lon="7.1534">
        <ele>561.79998779297</ele>
        <time>2019-05-11T14:40:02.000Z</time>
      </trkpt>
      <trkpt lat="43.98026" lon="7.15361">
        <ele>560.20001220703</ele>
        <time>2019-05-11T14:40:04.000Z</time>
      </trkpt>
      <trkpt lat="43.98025" lon="7.1537">
        <ele>559.59997558594</ele>
        <time>2019-05-11T14:40:05.000Z</time>
      </trkpt>
      <trkpt lat="43.98025" lon="7.15381">
        <ele>559</ele>
        <time>2019-05-11T14:40:06.000Z</time>
      </trkpt>
      <trkpt lat="43.98023" lon="7.15401">
        <ele>558.59997558594</ele>
        <time>2019-05-11T14:40:08.000Z</time>
      </trkpt>
      <trkpt lat="43.98016" lon="7.15419">
        <ele>558.40002441406</ele>
        <time>2019-05-11T14:40:10.000Z</time>
      </trkpt>
      <trkpt lat="43.98" lon="7.15441">
        <ele>558.59997558594</ele>
        <time>2019-05-11T14:40:13.000Z</time>
      </trkpt>
      <trkpt lat="43.97995" lon="7.15449">
        <ele>558.59997558594</ele>
        <time>2019-05-11T14:40:14.000Z</time>
      </trkpt>
      <trkpt lat="43.97989" lon="7.15472">
        <ele>557.59997558594</ele>
        <time>2019-05-11T14:40:16.000Z</time>
      </trkpt>
      <trkpt lat="43.97984" lon="7.15493">
        <ele>555.79998779297</ele>
        <time>2019-05-11T14:40:18.000Z</time>
      </trkpt>
      <trkpt lat="43.97983" lon="7.15504">
        <ele>554.59997558594</ele>
        <time>2019-05-11T14:40:19.000Z</time>
      </trkpt>
      <trkpt lat="43.97985" lon="7.15526">
        <ele>553.79998779297</ele>
        <time>2019-05-11T14:40:21.000Z</time>
      </trkpt>
      <trkpt lat="43.97987" lon="7.15536">
        <ele>553</ele>
        <time>2019-05-11T14:40:22.000Z</time>
      </trkpt>
      <trkpt lat="43.98" lon="7.15561">
        <ele>551.59997558594</ele>
        <time>2019-05-11T14:40:25.000Z</time>
      </trkpt>
      <trkpt lat="43.98011" lon="7.15561">
        <ele>550.59997558594</ele>
        <time>2019-05-11T14:40:27.000Z</time>
      </trkpt>
      <trkpt lat="43.98021" lon="7.15552">
        <ele>549.79998779297</ele>
        <time>2019-05-11T14:40:30.000Z</time>
      </trkpt>
      <trkpt lat="43.98026" lon="7.15542">
        <ele>551.59997558594</ele>
        <time>2019-05-11T14:40:34.000Z</time>
      </trkpt>
      <trkpt lat="43.98028" lon="7.15535">
        <ele>553</ele>
        <time>2019-05-11T14:40:37.000Z</time>
      </trkpt>
      <trkpt lat="43.98032" lon="7.15527">
        <ele>554</ele>
        <time>2019-05-11T14:40:41.000Z</time>
      </trkpt>
      <trkpt lat="43.98033" lon="7.15525">
        <ele>554.40002441406</ele>
        <time>2019-05-11T14:40:42.000Z</time>
      </trkpt>
      <trkpt lat="43.98036" lon="7.15521">
        <ele>555.20001220703</ele>
        <time>2019-05-11T14:40:44.000Z</time>
      </trkpt>
      <trkpt lat="43.9804" lon="7.15515">
        <ele>556.40002441406</ele>
        <time>2019-05-11T14:40:48.000Z</time>
      </trkpt>
      <trkpt lat="43.98042" lon="7.15514">
        <ele>556.59997558594</ele>
        <time>2019-05-11T14:40:49.000Z</time>
      </trkpt>
      <trkpt lat="43.98046" lon="7.1551">
        <ele>557.40002441406</ele>
        <time>2019-05-11T14:40:52.000Z</time>
      </trkpt>
      <trkpt lat="43.98053" lon="7.15505">
        <ele>558.20001220703</ele>
        <time>2019-05-11T14:40:57.000Z</time>
      </trkpt>
      <trkpt lat="43.98057" lon="7.15503">
        <ele>558.59997558594</ele>
        <time>2019-05-11T14:41:00.000Z</time>
      </trkpt>
      <trkpt lat="43.98059" lon="7.15502">
        <ele>558.79998779297</ele>
        <time>2019-05-11T14:41:02.000Z</time>
      </trkpt>
      <trkpt lat="43.98067" lon="7.155">
        <ele>558.79998779297</ele>
        <time>2019-05-11T14:41:08.000Z</time>
      </trkpt>
      <trkpt lat="43.9808" lon="7.15497">
        <ele>558.79998779297</ele>
        <time>2019-05-11T14:41:16.000Z</time>
      </trkpt>
      <trkpt lat="43.98087" lon="7.15496">
        <ele>559.79998779297</ele>
        <time>2019-05-11T14:41:20.000Z</time>
      </trkpt>
      <trkpt lat="43.98093" lon="7.15495">
        <ele>561</ele>
        <time>2019-05-11T14:41:24.000Z</time>
      </trkpt>
      <trkpt lat="43.98098" lon="7.15495">
        <ele>562</ele>
        <time>2019-05-11T14:41:27.000Z</time>
      </trkpt>
      <trkpt lat="43.98102" lon="7.15494">
        <ele>563.40002441406</ele>
        <time>2019-05-11T14:41:30.000Z</time>
      </trkpt>
      <trkpt lat="43.98103" lon="7.15494">
        <ele>563.79998779297</ele>
        <time>2019-05-11T14:41:31.000Z</time>
      </trkpt>
      <trkpt lat="43.98107" lon="7.15495">
        <ele>564.59997558594</ele>
        <time>2019-05-11T14:41:34.000Z</time>
      </trkpt>
      <trkpt lat="43.98113" lon="7.15495">
        <ele>565.59997558594</ele>
        <time>2019-05-11T14:41:38.000Z</time>
      </trkpt>
      <trkpt lat="43.98115" lon="7.15495">
        <ele>566</ele>
        <time>2019-05-11T14:41:39.000Z</time>
      </trkpt>
      <trkpt lat="43.98121" lon="7.15494">
        <ele>566.79998779297</ele>
        <time>2019-05-11T14:41:43.000Z</time>
      </trkpt>
      <trkpt lat="43.98127" lon="7.1549">
        <ele>567.20001220703</ele>
        <time>2019-05-11T14:41:48.000Z</time>
      </trkpt>
      <trkpt lat="43.98131" lon="7.15486">
        <ele>567.79998779297</ele>
        <time>2019-05-11T14:41:52.000Z</time>
      </trkpt>
      <trkpt lat="43.98134" lon="7.15483">
        <ele>568.40002441406</ele>
        <time>2019-05-11T14:41:55.000Z</time>
      </trkpt>
      <trkpt lat="43.9814" lon="7.15474">
        <ele>568.79998779297</ele>
        <time>2019-05-11T14:42:02.000Z</time>
      </trkpt>
      <trkpt lat="43.98145" lon="7.15469">
        <ele>569.79998779297</ele>
        <time>2019-05-11T14:42:08.000Z</time>
      </trkpt>
      <trkpt lat="43.98146" lon="7.15467">
        <ele>570.20001220703</ele>
        <time>2019-05-11T14:42:09.000Z</time>
      </trkpt>
      <trkpt lat="43.9815" lon="7.15466">
        <ele>571.20001220703</ele>
        <time>2019-05-11T14:42:12.000Z</time>
      </trkpt>
      <trkpt lat="43.98153" lon="7.15464">
        <ele>572.40002441406</ele>
        <time>2019-05-11T14:42:15.000Z</time>
      </trkpt>
      <trkpt lat="43.98154" lon="7.15463">
        <ele>572.59997558594</ele>
        <time>2019-05-11T14:42:16.000Z</time>
      </trkpt>
      <trkpt lat="43.98159" lon="7.15462">
        <ele>573.59997558594</ele>
        <time>2019-05-11T14:42:19.000Z</time>
      </trkpt>
      <trkpt lat="43.98163" lon="7.15463">
        <ele>573.79998779297</ele>
        <time>2019-05-11T14:42:22.000Z</time>
      </trkpt>
      <trkpt lat="43.98168" lon="7.15463">
        <ele>574.59997558594</ele>
        <time>2019-05-11T14:42:25.000Z</time>
      </trkpt>
      <trkpt lat="43.98176" lon="7.15462">
        <ele>575.40002441406</ele>
        <time>2019-05-11T14:42:30.000Z</time>
      </trkpt>
      <trkpt lat="43.98182" lon="7.15459">
        <ele>575.59997558594</ele>
        <time>2019-05-11T14:42:35.000Z</time>
      </trkpt>
      <trkpt lat="43.98185" lon="7.15455">
        <ele>575.59997558594</ele>
        <time>2019-05-11T14:42:38.000Z</time>
      </trkpt>
      <trkpt lat="43.98191" lon="7.15446">
        <ele>576.59997558594</ele>
        <time>2019-05-11T14:42:44.000Z</time>
      </trkpt>
      <trkpt lat="43.98192" lon="7.15447">
        <ele>576.79998779297</ele>
        <time>2019-05-11T14:42:45.000Z</time>
      </trkpt>
      <trkpt lat="43.98194" lon="7.15451">
        <ele>577.79998779297</ele>
        <time>2019-05-11T14:42:49.000Z</time>
      </trkpt>
      <trkpt lat="43.98192" lon="7.15453">
        <ele>578.40002441406</ele>
        <time>2019-05-11T14:42:51.000Z</time>
      </trkpt>
      <trkpt lat="43.98191" lon="7.15455">
        <ele>578.79998779297</ele>
        <time>2019-05-11T14:42:53.000Z</time>
      </trkpt>
      <trkpt lat="43.98186" lon="7.15458">
        <ele>579.79998779297</ele>
        <time>2019-05-11T14:42:57.000Z</time>
      </trkpt>
      <trkpt lat="43.98184" lon="7.15459">
        <ele>580</ele>
        <time>2019-05-11T14:42:58.000Z</time>
      </trkpt>
      <trkpt lat="43.98178" lon="7.15462">
        <ele>580.79998779297</ele>
        <time>2019-05-11T14:43:03.000Z</time>
      </trkpt>
      <trkpt lat="43.98176" lon="7.15463">
        <ele>581</ele>
        <time>2019-05-11T14:43:04.000Z</time>
      </trkpt>
      <trkpt lat="43.98175" lon="7.15463">
        <ele>581.20001220703</ele>
        <time>2019-05-11T14:43:05.000Z</time>
      </trkpt>
      <trkpt lat="43.9817" lon="7.15465">
        <ele>582.20001220703</ele>
        <time>2019-05-11T14:43:09.000Z</time>
      </trkpt>
      <trkpt lat="43.98169" lon="7.15466">
        <ele>582.40002441406</ele>
        <time>2019-05-11T14:43:10.000Z</time>
      </trkpt>
      <trkpt lat="43.98165" lon="7.15469">
        <ele>583.40002441406</ele>
        <time>2019-05-11T14:43:14.000Z</time>
      </trkpt>
      <trkpt lat="43.98162" lon="7.15473">
        <ele>584</ele>
        <time>2019-05-11T14:43:17.000Z</time>
      </trkpt>
      <trkpt lat="43.98157" lon="7.15479">
        <ele>584.40002441406</ele>
        <time>2019-05-11T14:43:21.000Z</time>
      </trkpt>
      <trkpt lat="43.98154" lon="7.15486">
        <ele>584.79998779297</ele>
        <time>2019-05-11T14:43:25.000Z</time>
      </trkpt>
      <trkpt lat="43.9815" lon="7.15499">
        <ele>585.40002441406</ele>
        <time>2019-05-11T14:43:31.000Z</time>
      </trkpt>
      <trkpt lat="43.98149" lon="7.15501">
        <ele>585.59997558594</ele>
        <time>2019-05-11T14:43:32.000Z</time>
      </trkpt>
      <trkpt lat="43.98145" lon="7.15514">
        <ele>586.59997558594</ele>
        <time>2019-05-11T14:43:38.000Z</time>
      </trkpt>
      <trkpt lat="43.98144" lon="7.15516">
        <ele>587</ele>
        <time>2019-05-11T14:43:39.000Z</time>
      </trkpt>
      <trkpt lat="43.98141" lon="7.1552">
        <ele>587.59997558594</ele>
        <time>2019-05-11T14:43:41.000Z</time>
      </trkpt>
      <trkpt lat="43.98135" lon="7.15527">
        <ele>588.59997558594</ele>
        <time>2019-05-11T14:43:46.000Z</time>
      </trkpt>
      <trkpt lat="43.98134" lon="7.15528">
        <ele>588.79998779297</ele>
        <time>2019-05-11T14:43:47.000Z</time>
      </trkpt>
      <trkpt lat="43.98128" lon="7.15536">
        <ele>590</ele>
        <time>2019-05-11T14:43:52.000Z</time>
      </trkpt>
      <trkpt lat="43.98125" lon="7.15539">
        <ele>590.59997558594</ele>
        <time>2019-05-11T14:43:54.000Z</time>
      </trkpt>
      <trkpt lat="43.9812" lon="7.15543">
        <ele>591.20001220703</ele>
        <time>2019-05-11T14:43:57.000Z</time>
      </trkpt>
      <trkpt lat="43.98113" lon="7.15551">
        <ele>592.40002441406</ele>
        <time>2019-05-11T14:44:02.000Z</time>
      </trkpt>
      <trkpt lat="43.9811" lon="7.15553">
        <ele>592.79998779297</ele>
        <time>2019-05-11T14:44:04.000Z</time>
      </trkpt>
      <trkpt lat="43.98105" lon="7.15558">
        <ele>593.40002441406</ele>
        <time>2019-05-11T14:44:07.000Z</time>
      </trkpt>
      <trkpt lat="43.981" lon="7.15563">
        <ele>594.40002441406</ele>
        <time>2019-05-11T14:44:10.000Z</time>
      </trkpt>
      <trkpt lat="43.98099" lon="7.15565">
        <ele>594.79998779297</ele>
        <time>2019-05-11T14:44:11.000Z</time>
      </trkpt>
      <trkpt lat="43.98092" lon="7.15576">
        <ele>595.59997558594</ele>
        <time>2019-05-11T14:44:17.000Z</time>
      </trkpt>
      <trkpt lat="43.98087" lon="7.15592">
        <ele>596.40002441406</ele>
        <time>2019-05-11T14:44:23.000Z</time>
      </trkpt>
      <trkpt lat="43.98087" lon="7.15595">
        <ele>596.59997558594</ele>
        <time>2019-05-11T14:44:24.000Z</time>
      </trkpt>
      <trkpt lat="43.98086" lon="7.15602">
        <ele>596.40002441406</ele>
        <time>2019-05-11T14:44:27.000Z</time>
      </trkpt>
      <trkpt lat="43.98088" lon="7.15604">
        <ele>596.40002441406</ele>
        <time>2019-05-11T14:44:28.000Z</time>
      </trkpt>
      <trkpt lat="43.98094" lon="7.15605">
        <ele>597</ele>
        <time>2019-05-11T14:44:32.000Z</time>
      </trkpt>
      <trkpt lat="43.98093" lon="7.15598">
        <ele>597.59997558594</ele>
        <time>2019-05-11T14:44:35.000Z</time>
      </trkpt>
      <trkpt lat="43.98093" lon="7.15596">
        <ele>597.79998779297</ele>
        <time>2019-05-11T14:44:36.000Z</time>
      </trkpt>
      <trkpt lat="43.98093" lon="7.15588">
        <ele>598.59997558594</ele>
        <time>2019-05-11T14:44:39.000Z</time>
      </trkpt>
      <trkpt lat="43.98097" lon="7.15582">
        <ele>599.40002441406</ele>
        <time>2019-05-11T14:44:42.000Z</time>
      </trkpt>
      <trkpt lat="43.98099" lon="7.15578">
        <ele>599.79998779297</ele>
        <time>2019-05-11T14:44:44.000Z</time>
      </trkpt>
      <trkpt lat="43.98106" lon="7.15574">
        <ele>600.79998779297</ele>
        <time>2019-05-11T14:44:49.000Z</time>
      </trkpt>
      <trkpt lat="43.98107" lon="7.15573">
        <ele>601</ele>
        <time>2019-05-11T14:44:50.000Z</time>
      </trkpt>
      <trkpt lat="43.98117" lon="7.15569">
        <ele>602</ele>
        <time>2019-05-11T14:44:57.000Z</time>
      </trkpt>
      <trkpt lat="43.98121" lon="7.15567">
        <ele>602.59997558594</ele>
        <time>2019-05-11T14:45:00.000Z</time>
      </trkpt>
      <trkpt lat="43.98126" lon="7.15566">
        <ele>603</ele>
        <time>2019-05-11T14:45:04.000Z</time>
      </trkpt>
      <trkpt lat="43.9813" lon="7.15566">
        <ele>603.40002441406</ele>
        <time>2019-05-11T14:45:07.000Z</time>
      </trkpt>
      <trkpt lat="43.98135" lon="7.15565">
        <ele>604</ele>
        <time>2019-05-11T14:45:11.000Z</time>
      </trkpt>
      <trkpt lat="43.98141" lon="7.15564">
        <ele>604.79998779297</ele>
        <time>2019-05-11T14:45:15.000Z</time>
      </trkpt>
      <trkpt lat="43.98144" lon="7.15564">
        <ele>605.20001220703</ele>
        <time>2019-05-11T14:45:17.000Z</time>
      </trkpt>
      <trkpt lat="43.98152" lon="7.15563">
        <ele>606.40002441406</ele>
        <time>2019-05-11T14:45:22.000Z</time>
      </trkpt>
      <trkpt lat="43.98154" lon="7.15562">
        <ele>606.79998779297</ele>
        <time>2019-05-11T14:45:24.000Z</time>
      </trkpt>
      <trkpt lat="43.98158" lon="7.1556">
        <ele>607.40002441406</ele>
        <time>2019-05-11T14:45:27.000Z</time>
      </trkpt>
      <trkpt lat="43.98164" lon="7.15557">
        <ele>608.59997558594</ele>
        <time>2019-05-11T14:45:32.000Z</time>
      </trkpt>
      <trkpt lat="43.98165" lon="7.15556">
        <ele>608.79998779297</ele>
        <time>2019-05-11T14:45:33.000Z</time>
      </trkpt>
      <trkpt lat="43.98172" lon="7.15548">
        <ele>609.59997558594</ele>
        <time>2019-05-11T14:45:39.000Z</time>
      </trkpt>
      <trkpt lat="43.98174" lon="7.15545">
        <ele>610</ele>
        <time>2019-05-11T14:45:41.000Z</time>
      </trkpt>
      <trkpt lat="43.9818" lon="7.15533">
        <ele>610.59997558594</ele>
        <time>2019-05-11T14:45:47.000Z</time>
      </trkpt>
      <trkpt lat="43.98181" lon="7.15531">
        <ele>610.79998779297</ele>
        <time>2019-05-11T14:45:48.000Z</time>
      </trkpt>
      <trkpt lat="43.98187" lon="7.15522">
        <ele>612</ele>
        <time>2019-05-11T14:45:54.000Z</time>
      </trkpt>
      <trkpt lat="43.98192" lon="7.15518">
        <ele>613.20001220703</ele>
        <time>2019-05-11T14:45:58.000Z</time>
      </trkpt>
      <trkpt lat="43.98197" lon="7.15516">
        <ele>614.20001220703</ele>
        <time>2019-05-11T14:46:02.000Z</time>
      </trkpt>
      <trkpt lat="43.98204" lon="7.15516">
        <ele>615.40002441406</ele>
        <time>2019-05-11T14:46:07.000Z</time>
      </trkpt>
      <trkpt lat="43.98208" lon="7.15516">
        <ele>615.59997558594</ele>
        <time>2019-05-11T14:46:09.000Z</time>
      </trkpt>
      <trkpt lat="43.98214" lon="7.15514">
        <ele>616.40002441406</ele>
        <time>2019-05-11T14:46:14.000Z</time>
      </trkpt>
      <trkpt lat="43.98218" lon="7.15513">
        <ele>617.40002441406</ele>
        <time>2019-05-11T14:46:17.000Z</time>
      </trkpt>
      <trkpt lat="43.98219" lon="7.15512">
        <ele>617.59997558594</ele>
        <time>2019-05-11T14:46:18.000Z</time>
      </trkpt>
      <trkpt lat="43.98223" lon="7.1551">
        <ele>618.79998779297</ele>
        <time>2019-05-11T14:46:21.000Z</time>
      </trkpt>
      <trkpt lat="43.98228" lon="7.15505">
        <ele>619.79998779297</ele>
        <time>2019-05-11T14:46:25.000Z</time>
      </trkpt>
      <trkpt lat="43.98235" lon="7.15493">
        <ele>620</ele>
        <time>2019-05-11T14:46:33.000Z</time>
      </trkpt>
      <trkpt lat="43.98238" lon="7.1548">
        <ele>621</ele>
        <time>2019-05-11T14:46:39.000Z</time>
      </trkpt>
      <trkpt lat="43.98239" lon="7.15476">
        <ele>621.40002441406</ele>
        <time>2019-05-11T14:46:41.000Z</time>
      </trkpt>
      <trkpt lat="43.98239" lon="7.1547">
        <ele>622</ele>
        <time>2019-05-11T14:46:44.000Z</time>
      </trkpt>
      <trkpt lat="43.98239" lon="7.15458">
        <ele>623.20001220703</ele>
        <time>2019-05-11T14:46:50.000Z</time>
      </trkpt>
      <trkpt lat="43.98239" lon="7.15454">
        <ele>623.59997558594</ele>
        <time>2019-05-11T14:46:52.000Z</time>
      </trkpt>
      <trkpt lat="43.98242" lon="7.15443">
        <ele>624.40002441406</ele>
        <time>2019-05-11T14:46:57.000Z</time>
      </trkpt>
      <trkpt lat="43.98244" lon="7.15441">
        <ele>624.59997558594</ele>
        <time>2019-05-11T14:46:58.000Z</time>
      </trkpt>
      <trkpt lat="43.9826" lon="7.15429">
        <ele>625</ele>
        <time>2019-05-11T14:47:05.000Z</time>
      </trkpt>
      <trkpt lat="43.98272" lon="7.15412">
        <ele>625</ele>
        <time>2019-05-11T14:47:10.000Z</time>
      </trkpt>
      <trkpt lat="43.98281" lon="7.15385">
        <ele>624.79998779297</ele>
        <time>2019-05-11T14:47:16.000Z</time>
      </trkpt>
      <trkpt lat="43.9828" lon="7.15371">
        <ele>625.40002441406</ele>
        <time>2019-05-11T14:47:19.000Z</time>
      </trkpt>
      <trkpt lat="43.9828" lon="7.15362">
        <ele>625.79998779297</ele>
        <time>2019-05-11T14:47:21.000Z</time>
      </trkpt>
      <trkpt lat="43.98285" lon="7.1533">
        <ele>626.20001220703</ele>
        <time>2019-05-11T14:47:27.000Z</time>
      </trkpt>
      <trkpt lat="43.98286" lon="7.15324">
        <ele>626.40002441406</ele>
        <time>2019-05-11T14:47:28.000Z</time>
      </trkpt>
      <trkpt lat="43.98289" lon="7.15313">
        <ele>626.59997558594</ele>
        <time>2019-05-11T14:47:30.000Z</time>
      </trkpt>
      <trkpt lat="43.98296" lon="7.15289">
        <ele>626</ele>
        <time>2019-05-11T14:47:34.000Z</time>
      </trkpt>
      <trkpt lat="43.983" lon="7.15266">
        <ele>625.59997558594</ele>
        <time>2019-05-11T14:47:37.000Z</time>
      </trkpt>
      <trkpt lat="43.98301" lon="7.15248">
        <ele>625.40002441406</ele>
        <time>2019-05-11T14:47:39.000Z</time>
      </trkpt>
      <trkpt lat="43.98306" lon="7.15209">
        <ele>623.79998779297</ele>
        <time>2019-05-11T14:47:43.000Z</time>
      </trkpt>
      <trkpt lat="43.98306" lon="7.15198">
        <ele>623.40002441406</ele>
        <time>2019-05-11T14:47:44.000Z</time>
      </trkpt>
      <trkpt lat="43.98307" lon="7.15178">
        <ele>622.40002441406</ele>
        <time>2019-05-11T14:47:46.000Z</time>
      </trkpt>
      <trkpt lat="43.98307" lon="7.15112">
        <ele>621.79998779297</ele>
        <time>2019-05-11T14:47:52.000Z</time>
      </trkpt>
      <trkpt lat="43.98308" lon="7.15102">
        <ele>621.59997558594</ele>
        <time>2019-05-11T14:47:53.000Z</time>
      </trkpt>
      <trkpt lat="43.98312" lon="7.15093">
        <ele>621.20001220703</ele>
        <time>2019-05-11T14:47:54.000Z</time>
      </trkpt>
      <trkpt lat="43.98318" lon="7.15087">
        <ele>621</ele>
        <time>2019-05-11T14:47:55.000Z</time>
      </trkpt>
      <trkpt lat="43.98333" lon="7.15086">
        <ele>620.59997558594</ele>
        <time>2019-05-11T14:47:57.000Z</time>
      </trkpt>
      <trkpt lat="43.98348" lon="7.15086">
        <ele>620.20001220703</ele>
        <time>2019-05-11T14:47:59.000Z</time>
      </trkpt>
      <trkpt lat="43.9836" lon="7.15084">
        <ele>619.20001220703</ele>
        <time>2019-05-11T14:48:01.000Z</time>
      </trkpt>
      <trkpt lat="43.98366" lon="7.15082">
        <ele>619</ele>
        <time>2019-05-11T14:48:02.000Z</time>
      </trkpt>
      <trkpt lat="43.98383" lon="7.15078">
        <ele>619.20001220703</ele>
        <time>2019-05-11T14:48:05.000Z</time>
      </trkpt>
      <trkpt lat="43.98388" lon="7.15078">
        <ele>619.40002441406</ele>
        <time>2019-05-11T14:48:06.000Z</time>
      </trkpt>
      <trkpt lat="43.98399" lon="7.15084">
        <ele>620</ele>
        <time>2019-05-11T14:48:08.000Z</time>
      </trkpt>
      <trkpt lat="43.98402" lon="7.15088">
        <ele>620.40002441406</ele>
        <time>2019-05-11T14:48:09.000Z</time>
      </trkpt>
      <trkpt lat="43.98409" lon="7.15096">
        <ele>621.20001220703</ele>
        <time>2019-05-11T14:48:11.000Z</time>
      </trkpt>
      <trkpt lat="43.98413" lon="7.15101">
        <ele>621.40002441406</ele>
        <time>2019-05-11T14:48:12.000Z</time>
      </trkpt>
      <trkpt lat="43.98439" lon="7.1513">
        <ele>622</ele>
        <time>2019-05-11T14:48:18.000Z</time>
      </trkpt>
      <trkpt lat="43.98464" lon="7.15156">
        <ele>620.40002441406</ele>
        <time>2019-05-11T14:48:23.000Z</time>
      </trkpt>
      <trkpt lat="43.98469" lon="7.15162">
        <ele>620</ele>
        <time>2019-05-11T14:48:24.000Z</time>
      </trkpt>
      <trkpt lat="43.98489" lon="7.15186">
        <ele>619</ele>
        <time>2019-05-11T14:48:28.000Z</time>
      </trkpt>
      <trkpt lat="43.98495" lon="7.1519">
        <ele>618.79998779297</ele>
        <time>2019-05-11T14:48:29.000Z</time>
      </trkpt>
      <trkpt lat="43.9851" lon="7.15196">
        <ele>617.79998779297</ele>
        <time>2019-05-11T14:48:31.000Z</time>
      </trkpt>
      <trkpt lat="43.98518" lon="7.15199">
        <ele>617.40002441406</ele>
        <time>2019-05-11T14:48:32.000Z</time>
      </trkpt>
      <trkpt lat="43.98533" lon="7.15208">
        <ele>616.20001220703</ele>
        <time>2019-05-11T14:48:34.000Z</time>
      </trkpt>
      <trkpt lat="43.98548" lon="7.1522">
        <ele>614.40002441406</ele>
        <time>2019-05-11T14:48:36.000Z</time>
      </trkpt>
      <trkpt lat="43.98558" lon="7.15225">
        <ele>612.79998779297</ele>
        <time>2019-05-11T14:48:37.000Z</time>
      </trkpt>
      <trkpt lat="43.98565" lon="7.15228">
        <ele>611.40002441406</ele>
        <time>2019-05-11T14:48:38.000Z</time>
      </trkpt>
      <trkpt lat="43.98572" lon="7.15232">
        <ele>610.79998779297</ele>
        <time>2019-05-11T14:48:39.000Z</time>
      </trkpt>
      <trkpt lat="43.98578" lon="7.15234">
        <ele>610.20001220703</ele>
        <time>2019-05-11T14:48:40.000Z</time>
      </trkpt>
      <trkpt lat="43.98591" lon="7.15227">
        <ele>609.20001220703</ele>
        <time>2019-05-11T14:48:42.000Z</time>
      </trkpt>
      <trkpt lat="43.98606" lon="7.15218">
        <ele>608</ele>
        <time>2019-05-11T14:48:44.000Z</time>
      </trkpt>
      <trkpt lat="43.98613" lon="7.15216">
        <ele>607</ele>
        <time>2019-05-11T14:48:45.000Z</time>
      </trkpt>
      <trkpt lat="43.98622" lon="7.15216">
        <ele>605.40002441406</ele>
        <time>2019-05-11T14:48:46.000Z</time>
      </trkpt>
      <trkpt lat="43.98629" lon="7.15219">
        <ele>604.40002441406</ele>
        <time>2019-05-11T14:48:47.000Z</time>
      </trkpt>
      <trkpt lat="43.98637" lon="7.15222">
        <ele>603</ele>
        <time>2019-05-11T14:48:48.000Z</time>
      </trkpt>
      <trkpt lat="43.98653" lon="7.15232">
        <ele>601.20001220703</ele>
        <time>2019-05-11T14:48:50.000Z</time>
      </trkpt>
      <trkpt lat="43.98672" lon="7.15239">
        <ele>599.20001220703</ele>
        <time>2019-05-11T14:48:52.000Z</time>
      </trkpt>
      <trkpt lat="43.98681" lon="7.1524">
        <ele>598.20001220703</ele>
        <time>2019-05-11T14:48:53.000Z</time>
      </trkpt>
      <trkpt lat="43.98692" lon="7.15241">
        <ele>596.40002441406</ele>
        <time>2019-05-11T14:48:54.000Z</time>
      </trkpt>
      <trkpt lat="43.98714" lon="7.15242">
        <ele>595</ele>
        <time>2019-05-11T14:48:56.000Z</time>
      </trkpt>
      <trkpt lat="43.98725" lon="7.15242">
        <ele>593.59997558594</ele>
        <time>2019-05-11T14:48:57.000Z</time>
      </trkpt>
      <trkpt lat="43.98748" lon="7.1524">
        <ele>591.40002441406</ele>
        <time>2019-05-11T14:48:59.000Z</time>
      </trkpt>
      <trkpt lat="43.98761" lon="7.15239">
        <ele>590.40002441406</ele>
        <time>2019-05-11T14:49:00.000Z</time>
      </trkpt>
      <trkpt lat="43.98773" lon="7.15237">
        <ele>589</ele>
        <time>2019-05-11T14:49:01.000Z</time>
      </trkpt>
      <trkpt lat="43.98786" lon="7.15236">
        <ele>587.79998779297</ele>
        <time>2019-05-11T14:49:02.000Z</time>
      </trkpt>
      <trkpt lat="43.98798" lon="7.15235">
        <ele>586.20001220703</ele>
        <time>2019-05-11T14:49:03.000Z</time>
      </trkpt>
      <trkpt lat="43.9881" lon="7.15231">
        <ele>584.59997558594</ele>
        <time>2019-05-11T14:49:04.000Z</time>
      </trkpt>
      <trkpt lat="43.9882" lon="7.15227">
        <ele>582.40002441406</ele>
        <time>2019-05-11T14:49:05.000Z</time>
      </trkpt>
      <trkpt lat="43.98828" lon="7.15225">
        <ele>581</ele>
        <time>2019-05-11T14:49:06.000Z</time>
      </trkpt>
      <trkpt lat="43.98836" lon="7.15226">
        <ele>579.59997558594</ele>
        <time>2019-05-11T14:49:07.000Z</time>
      </trkpt>
      <trkpt lat="43.98842" lon="7.1523">
        <ele>579.79998779297</ele>
        <time>2019-05-11T14:49:08.000Z</time>
      </trkpt>
      <trkpt lat="43.98854" lon="7.15237">
        <ele>578</ele>
        <time>2019-05-11T14:49:10.000Z</time>
      </trkpt>
      <trkpt lat="43.98859" lon="7.15234">
        <ele>577.40002441406</ele>
        <time>2019-05-11T14:49:11.000Z</time>
      </trkpt>
      <trkpt lat="43.98863" lon="7.15229">
        <ele>576.79998779297</ele>
        <time>2019-05-11T14:49:12.000Z</time>
      </trkpt>
      <trkpt lat="43.98867" lon="7.15224">
        <ele>575.40002441406</ele>
        <time>2019-05-11T14:49:13.000Z</time>
      </trkpt>
      <trkpt lat="43.98891" lon="7.15208">
        <ele>574.20001220703</ele>
        <time>2019-05-11T14:49:17.000Z</time>
      </trkpt>
      <trkpt lat="43.98906" lon="7.15207">
        <ele>573.40002441406</ele>
        <time>2019-05-11T14:49:19.000Z</time>
      </trkpt>
      <trkpt lat="43.98913" lon="7.15206">
        <ele>572.79998779297</ele>
        <time>2019-05-11T14:49:20.000Z</time>
      </trkpt>
      <trkpt lat="43.98933" lon="7.15208">
        <ele>572</ele>
        <time>2019-05-11T14:49:23.000Z</time>
      </trkpt>
      <trkpt lat="43.98964" lon="7.15216">
        <ele>572.59997558594</ele>
        <time>2019-05-11T14:49:28.000Z</time>
      </trkpt>
      <trkpt lat="43.9897" lon="7.15217">
        <ele>572.79998779297</ele>
        <time>2019-05-11T14:49:29.000Z</time>
      </trkpt>
      <trkpt lat="43.98997" lon="7.15219">
        <ele>573.20001220703</ele>
        <time>2019-05-11T14:49:33.000Z</time>
      </trkpt>
      <trkpt lat="43.99016" lon="7.15217">
        <ele>572.40002441406</ele>
        <time>2019-05-11T14:49:36.000Z</time>
      </trkpt>
      <trkpt lat="43.99028" lon="7.15213">
        <ele>572.40002441406</ele>
        <time>2019-05-11T14:49:38.000Z</time>
      </trkpt>
      <trkpt lat="43.99035" lon="7.15209">
        <ele>572.20001220703</ele>
        <time>2019-05-11T14:49:39.000Z</time>
      </trkpt>
      <trkpt lat="43.99047" lon="7.15202">
        <ele>571.79998779297</ele>
        <time>2019-05-11T14:49:41.000Z</time>
      </trkpt>
      <trkpt lat="43.99053" lon="7.15198">
        <ele>571.59997558594</ele>
        <time>2019-05-11T14:49:42.000Z</time>
      </trkpt>
      <trkpt lat="43.99058" lon="7.15193">
        <ele>571.40002441406</ele>
        <time>2019-05-11T14:49:43.000Z</time>
      </trkpt>
      <trkpt lat="43.99098" lon="7.15163">
        <ele>570.40002441406</ele>
        <time>2019-05-11T14:49:49.000Z</time>
      </trkpt>
      <trkpt lat="43.99119" lon="7.15147">
        <ele>569</ele>
        <time>2019-05-11T14:49:52.000Z</time>
      </trkpt>
      <trkpt lat="43.99124" lon="7.15143">
        <ele>567.59997558594</ele>
        <time>2019-05-11T14:49:53.000Z</time>
      </trkpt>
      <trkpt lat="43.99131" lon="7.15139">
        <ele>566.79998779297</ele>
        <time>2019-05-11T14:49:54.000Z</time>
      </trkpt>
      <trkpt lat="43.99135" lon="7.15135">
        <ele>565.79998779297</ele>
        <time>2019-05-11T14:49:55.000Z</time>
      </trkpt>
      <trkpt lat="43.99137" lon="7.15129">
        <ele>564.59997558594</ele>
        <time>2019-05-11T14:49:56.000Z</time>
      </trkpt>
      <trkpt lat="43.99136" lon="7.15122">
        <ele>564</ele>
        <time>2019-05-11T14:49:57.000Z</time>
      </trkpt>
      <trkpt lat="43.99127" lon="7.15111">
        <ele>563.40002441406</ele>
        <time>2019-05-11T14:49:59.000Z</time>
      </trkpt>
      <trkpt lat="43.99115" lon="7.15104">
        <ele>561.79998779297</ele>
        <time>2019-05-11T14:50:01.000Z</time>
      </trkpt>
      <trkpt lat="43.99111" lon="7.15102">
        <ele>561</ele>
        <time>2019-05-11T14:50:02.000Z</time>
      </trkpt>
      <trkpt lat="43.99108" lon="7.15098">
        <ele>560</ele>
        <time>2019-05-11T14:50:03.000Z</time>
      </trkpt>
      <trkpt lat="43.99109" lon="7.15092">
        <ele>558.79998779297</ele>
        <time>2019-05-11T14:50:04.000Z</time>
      </trkpt>
      <trkpt lat="43.99113" lon="7.1509">
        <ele>558.59997558594</ele>
        <time>2019-05-11T14:50:05.000Z</time>
      </trkpt>
      <trkpt lat="43.99122" lon="7.15095">
        <ele>557.59997558594</ele>
        <time>2019-05-11T14:50:07.000Z</time>
      </trkpt>
      <trkpt lat="43.99128" lon="7.15097">
        <ele>557</ele>
        <time>2019-05-11T14:50:08.000Z</time>
      </trkpt>
      <trkpt lat="43.99136" lon="7.15101">
        <ele>556.20001220703</ele>
        <time>2019-05-11T14:50:09.000Z</time>
      </trkpt>
      <trkpt lat="43.99145" lon="7.15104">
        <ele>555.20001220703</ele>
        <time>2019-05-11T14:50:10.000Z</time>
      </trkpt>
      <trkpt lat="43.99153" lon="7.15106">
        <ele>553.79998779297</ele>
        <time>2019-05-11T14:50:11.000Z</time>
      </trkpt>
      <trkpt lat="43.99161" lon="7.15108">
        <ele>552.79998779297</ele>
        <time>2019-05-11T14:50:12.000Z</time>
      </trkpt>
      <trkpt lat="43.99169" lon="7.15111">
        <ele>551.59997558594</ele>
        <time>2019-05-11T14:50:13.000Z</time>
      </trkpt>
      <trkpt lat="43.99177" lon="7.15114">
        <ele>549.79998779297</ele>
        <time>2019-05-11T14:50:14.000Z</time>
      </trkpt>
      <trkpt lat="43.99183" lon="7.15119">
        <ele>548.59997558594</ele>
        <time>2019-05-11T14:50:15.000Z</time>
      </trkpt>
      <trkpt lat="43.99193" lon="7.15133">
        <ele>547.20001220703</ele>
        <time>2019-05-11T14:50:17.000Z</time>
      </trkpt>
      <trkpt lat="43.99198" lon="7.1514">
        <ele>546.59997558594</ele>
        <time>2019-05-11T14:50:18.000Z</time>
      </trkpt>
      <trkpt lat="43.99203" lon="7.15148">
        <ele>546</ele>
        <time>2019-05-11T14:50:19.000Z</time>
      </trkpt>
      <trkpt lat="43.99208" lon="7.15153">
        <ele>545.40002441406</ele>
        <time>2019-05-11T14:50:20.000Z</time>
      </trkpt>
      <trkpt lat="43.99212" lon="7.1516">
        <ele>544.79998779297</ele>
        <time>2019-05-11T14:50:21.000Z</time>
      </trkpt>
      <trkpt lat="43.99217" lon="7.15168">
        <ele>544.20001220703</ele>
        <time>2019-05-11T14:50:22.000Z</time>
      </trkpt>
      <trkpt lat="43.99228" lon="7.15186">
        <ele>543.59997558594</ele>
        <time>2019-05-11T14:50:24.000Z</time>
      </trkpt>
      <trkpt lat="43.9924" lon="7.15215">
        <ele>542.79998779297</ele>
        <time>2019-05-11T14:50:27.000Z</time>
      </trkpt>
      <trkpt lat="43.99243" lon="7.15225">
        <ele>542.20001220703</ele>
        <time>2019-05-11T14:50:28.000Z</time>
      </trkpt>
      <trkpt lat="43.99248" lon="7.15232">
        <ele>541.40002441406</ele>
        <time>2019-05-11T14:50:29.000Z</time>
      </trkpt>
      <trkpt lat="43.99254" lon="7.15238">
        <ele>540.79998779297</ele>
        <time>2019-05-11T14:50:30.000Z</time>
      </trkpt>
      <trkpt lat="43.99261" lon="7.15245">
        <ele>539.20001220703</ele>
        <time>2019-05-11T14:50:31.000Z</time>
      </trkpt>
      <trkpt lat="43.99274" lon="7.1526">
        <ele>538</ele>
        <time>2019-05-11T14:50:33.000Z</time>
      </trkpt>
      <trkpt lat="43.99285" lon="7.15277">
        <ele>536</ele>
        <time>2019-05-11T14:50:35.000Z</time>
      </trkpt>
      <trkpt lat="43.99294" lon="7.15292">
        <ele>534.59997558594</ele>
        <time>2019-05-11T14:50:37.000Z</time>
      </trkpt>
      <trkpt lat="43.99298" lon="7.15296">
        <ele>533.40002441406</ele>
        <time>2019-05-11T14:50:38.000Z</time>
      </trkpt>
      <trkpt lat="43.99303" lon="7.15297">
        <ele>532.40002441406</ele>
        <time>2019-05-11T14:50:39.000Z</time>
      </trkpt>
      <trkpt lat="43.99306" lon="7.15295">
        <ele>531.59997558594</ele>
        <time>2019-05-11T14:50:40.000Z</time>
      </trkpt>
      <trkpt lat="43.99312" lon="7.15283">
        <ele>529.79998779297</ele>
        <time>2019-05-11T14:50:42.000Z</time>
      </trkpt>
      <trkpt lat="43.99309" lon="7.15261">
        <ele>528.79998779297</ele>
        <time>2019-05-11T14:50:45.000Z</time>
      </trkpt>
      <trkpt lat="43.99305" lon="7.15251">
        <ele>528.79998779297</ele>
        <time>2019-05-11T14:50:47.000Z</time>
      </trkpt>
      <trkpt lat="43.99303" lon="7.15248">
        <ele>528.79998779297</ele>
        <time>2019-05-11T14:50:48.000Z</time>
      </trkpt>
      <trkpt lat="43.993" lon="7.15244">
        <ele>528.79998779297</ele>
        <time>2019-05-11T14:50:49.000Z</time>
      </trkpt>
      <trkpt lat="43.99286" lon="7.15227">
        <ele>529.79998779297</ele>
        <time>2019-05-11T14:50:55.000Z</time>
      </trkpt>
      <trkpt lat="43.99276" lon="7.1521">
        <ele>531</ele>
        <time>2019-05-11T14:51:01.000Z</time>
      </trkpt>
      <trkpt lat="43.99274" lon="7.15208">
        <ele>531.20001220703</ele>
        <time>2019-05-11T14:51:02.000Z</time>
      </trkpt>
      <trkpt lat="43.99272" lon="7.15203">
        <ele>532</ele>
        <time>2019-05-11T14:51:04.000Z</time>
      </trkpt>
      <trkpt lat="43.99269" lon="7.15193">
        <ele>533.20001220703</ele>
        <time>2019-05-11T14:51:07.000Z</time>
      </trkpt>
      <trkpt lat="43.99266" lon="7.15188">
        <ele>533.79998779297</ele>
        <time>2019-05-11T14:51:09.000Z</time>
      </trkpt>
      <trkpt lat="43.99265" lon="7.15186">
        <ele>534.20001220703</ele>
        <time>2019-05-11T14:51:10.000Z</time>
      </trkpt>
      <trkpt lat="43.99262" lon="7.15179">
        <ele>535.40002441406</ele>
        <time>2019-05-11T14:51:13.000Z</time>
      </trkpt>
      <trkpt lat="43.99258" lon="7.15172">
        <ele>536.20001220703</ele>
        <time>2019-05-11T14:51:16.000Z</time>
      </trkpt>
      <trkpt lat="43.99256" lon="7.1517">
        <ele>536.59997558594</ele>
        <time>2019-05-11T14:51:17.000Z</time>
      </trkpt>
      <trkpt lat="43.99251" lon="7.15162">
        <ele>537.59997558594</ele>
        <time>2019-05-11T14:51:20.000Z</time>
      </trkpt>
      <trkpt lat="43.99245" lon="7.15156">
        <ele>538.79998779297</ele>
        <time>2019-05-11T14:51:24.000Z</time>
      </trkpt>
      <trkpt lat="43.99244" lon="7.15154">
        <ele>539</ele>
        <time>2019-05-11T14:51:25.000Z</time>
      </trkpt>
      <trkpt lat="43.99242" lon="7.15147">
        <ele>539.79998779297</ele>
        <time>2019-05-11T14:51:28.000Z</time>
      </trkpt>
      <trkpt lat="43.99242" lon="7.15137">
        <ele>540</ele>
        <time>2019-05-11T14:51:31.000Z</time>
      </trkpt>
      <trkpt lat="43.99244" lon="7.15118">
        <ele>540.40002441406</ele>
        <time>2019-05-11T14:51:38.000Z</time>
      </trkpt>
      <trkpt lat="43.9924" lon="7.15111">
        <ele>541</ele>
        <time>2019-05-11T14:51:41.000Z</time>
      </trkpt>
      <trkpt lat="43.99236" lon="7.15105">
        <ele>541.59997558594</ele>
        <time>2019-05-11T14:51:43.000Z</time>
      </trkpt>
      <trkpt lat="43.99232" lon="7.151">
        <ele>542</ele>
        <time>2019-05-11T14:51:45.000Z</time>
      </trkpt>
      <trkpt lat="43.99223" lon="7.15081">
        <ele>542.79998779297</ele>
        <time>2019-05-11T14:51:51.000Z</time>
      </trkpt>
      <trkpt lat="43.99215" lon="7.15056">
        <ele>542.79998779297</ele>
        <time>2019-05-11T14:51:58.000Z</time>
      </trkpt>
      <trkpt lat="43.99213" lon="7.15037">
        <ele>543.20001220703</ele>
        <time>2019-05-11T14:52:03.000Z</time>
      </trkpt>
      <trkpt lat="43.99213" lon="7.15025">
        <ele>543.79998779297</ele>
        <time>2019-05-11T14:52:06.000Z</time>
      </trkpt>
      <trkpt lat="43.99213" lon="7.14997">
        <ele>544.40002441406</ele>
        <time>2019-05-11T14:52:13.000Z</time>
      </trkpt>
      <trkpt lat="43.99212" lon="7.14993">
        <ele>544.59997558594</ele>
        <time>2019-05-11T14:52:14.000Z</time>
      </trkpt>
      <trkpt lat="43.9921" lon="7.14979">
        <ele>545.40002441406</ele>
        <time>2019-05-11T14:52:18.000Z</time>
      </trkpt>
      <trkpt lat="43.99207" lon="7.14968">
        <ele>546.59997558594</ele>
        <time>2019-05-11T14:52:21.000Z</time>
      </trkpt>
      <trkpt lat="43.99202" lon="7.14956">
        <ele>547.79998779297</ele>
        <time>2019-05-11T14:52:25.000Z</time>
      </trkpt>
      <trkpt lat="43.99196" lon="7.14944">
        <ele>548</ele>
        <time>2019-05-11T14:52:29.000Z</time>
      </trkpt>
      <trkpt lat="43.99188" lon="7.14939">
        <ele>548.59997558594</ele>
        <time>2019-05-11T14:52:33.000Z</time>
      </trkpt>
      <trkpt lat="43.99187" lon="7.14937">
        <ele>549</ele>
        <time>2019-05-11T14:52:34.000Z</time>
      </trkpt>
      <trkpt lat="43.99181" lon="7.14933">
        <ele>550</ele>
        <time>2019-05-11T14:52:37.000Z</time>
      </trkpt>
      <trkpt lat="43.99176" lon="7.14929">
        <ele>551</ele>
        <time>2019-05-11T14:52:40.000Z</time>
      </trkpt>
      <trkpt lat="43.99171" lon="7.14925">
        <ele>551.20001220703</ele>
        <time>2019-05-11T14:52:43.000Z</time>
      </trkpt>
      <trkpt lat="43.99166" lon="7.14919">
        <ele>552.40002441406</ele>
        <time>2019-05-11T14:52:47.000Z</time>
      </trkpt>
      <trkpt lat="43.99164" lon="7.14917">
        <ele>552.59997558594</ele>
        <time>2019-05-11T14:52:48.000Z</time>
      </trkpt>
      <trkpt lat="43.99157" lon="7.14907">
        <ele>553.59997558594</ele>
        <time>2019-05-11T14:52:54.000Z</time>
      </trkpt>
      <trkpt lat="43.99157" lon="7.14905">
        <ele>554</ele>
        <time>2019-05-11T14:52:55.000Z</time>
      </trkpt>
      <trkpt lat="43.99157" lon="7.14898">
        <ele>554.79998779297</ele>
        <time>2019-05-11T14:52:58.000Z</time>
      </trkpt>
      <trkpt lat="43.9916" lon="7.14897">
        <ele>555.20001220703</ele>
        <time>2019-05-11T14:53:00.000Z</time>
      </trkpt>
      <trkpt lat="43.99163" lon="7.14899">
        <ele>555.79998779297</ele>
        <time>2019-05-11T14:53:03.000Z</time>
      </trkpt>
      <trkpt lat="43.99165" lon="7.14902">
        <ele>556.20001220703</ele>
        <time>2019-05-11T14:53:05.000Z</time>
      </trkpt>
      <trkpt lat="43.99167" lon="7.14904">
        <ele>556.79998779297</ele>
        <time>2019-05-11T14:53:07.000Z</time>
      </trkpt>
      <trkpt lat="43.99168" lon="7.14905">
        <ele>557</ele>
        <time>2019-05-11T14:53:08.000Z</time>
      </trkpt>
      <trkpt lat="43.99174" lon="7.14911">
        <ele>558.20001220703</ele>
        <time>2019-05-11T14:53:13.000Z</time>
      </trkpt>
      <trkpt lat="43.99183" lon="7.14916">
        <ele>559.20001220703</ele>
        <time>2019-05-11T14:53:19.000Z</time>
      </trkpt>
      <trkpt lat="43.99184" lon="7.14917">
        <ele>559.40002441406</ele>
        <time>2019-05-11T14:53:20.000Z</time>
      </trkpt>
      <trkpt lat="43.99191" lon="7.14917">
        <ele>560.20001220703</ele>
        <time>2019-05-11T14:53:24.000Z</time>
      </trkpt>
      <trkpt lat="43.99199" lon="7.14917">
        <ele>561.40002441406</ele>
        <time>2019-05-11T14:53:29.000Z</time>
      </trkpt>
      <trkpt lat="43.99209" lon="7.14922">
        <ele>562.59997558594</ele>
        <time>2019-05-11T14:53:35.000Z</time>
      </trkpt>
      <trkpt lat="43.9921" lon="7.14923">
        <ele>562.59997558594</ele>
        <time>2019-05-11T14:53:36.000Z</time>
      </trkpt>
      <trkpt lat="43.99217" lon="7.14928">
        <ele>563.59997558594</ele>
        <time>2019-05-11T14:53:41.000Z</time>
      </trkpt>
      <trkpt lat="43.99218" lon="7.14929">
        <ele>563.79998779297</ele>
        <time>2019-05-11T14:53:42.000Z</time>
      </trkpt>
      <trkpt lat="43.99221" lon="7.14934">
        <ele>564.59997558594</ele>
        <time>2019-05-11T14:53:46.000Z</time>
      </trkpt>
      <trkpt lat="43.99224" lon="7.14938">
        <ele>565</ele>
        <time>2019-05-11T14:53:49.000Z</time>
      </trkpt>
      <trkpt lat="43.99229" lon="7.14943">
        <ele>565.59997558594</ele>
        <time>2019-05-11T14:53:52.000Z</time>
      </trkpt>
      <trkpt lat="43.99231" lon="7.14948">
        <ele>566.20001220703</ele>
        <time>2019-05-11T14:53:55.000Z</time>
      </trkpt>
      <trkpt lat="43.99234" lon="7.14953">
        <ele>566.79998779297</ele>
        <time>2019-05-11T14:53:58.000Z</time>
      </trkpt>
      <trkpt lat="43.99237" lon="7.14958">
        <ele>567.40002441406</ele>
        <time>2019-05-11T14:54:01.000Z</time>
      </trkpt>
      <trkpt lat="43.99238" lon="7.14961">
        <ele>567.79998779297</ele>
        <time>2019-05-11T14:54:03.000Z</time>
      </trkpt>
      <trkpt lat="43.99242" lon="7.14966">
        <ele>568.79998779297</ele>
        <time>2019-05-11T14:54:06.000Z</time>
      </trkpt>
      <trkpt lat="43.99244" lon="7.14968">
        <ele>569</ele>
        <time>2019-05-11T14:54:07.000Z</time>
      </trkpt>
      <trkpt lat="43.99249" lon="7.14978">
        <ele>570.40002441406</ele>
        <time>2019-05-11T14:54:12.000Z</time>
      </trkpt>
      <trkpt lat="43.99254" lon="7.14985">
        <ele>571</ele>
        <time>2019-05-11T14:54:16.000Z</time>
      </trkpt>
      <trkpt lat="43.99255" lon="7.14985">
        <ele>571</ele>
        <time>2019-05-11T14:54:17.000Z</time>
      </trkpt>
      <trkpt lat="43.99257" lon="7.14983">
        <ele>571.40002441406</ele>
        <time>2019-05-11T14:54:19.000Z</time>
      </trkpt>
      <trkpt lat="43.99257" lon="7.1498">
        <ele>571.40002441406</ele>
        <time>2019-05-11T14:54:20.000Z</time>
      </trkpt>
      <trkpt lat="43.99255" lon="7.14973">
        <ele>571.79998779297</ele>
        <time>2019-05-11T14:54:24.000Z</time>
      </trkpt>
      <trkpt lat="43.99253" lon="7.1497">
        <ele>571.79998779297</ele>
        <time>2019-05-11T14:54:26.000Z</time>
      </trkpt>
      <trkpt lat="43.99248" lon="7.14961">
        <ele>572.40002441406</ele>
        <time>2019-05-11T14:54:31.000Z</time>
      </trkpt>
      <trkpt lat="43.99245" lon="7.14957">
        <ele>572.59997558594</ele>
        <time>2019-05-11T14:54:33.000Z</time>
      </trkpt>
      <trkpt lat="43.9924" lon="7.14944">
        <ele>573.40002441406</ele>
        <time>2019-05-11T14:54:38.000Z</time>
      </trkpt>
      <trkpt lat="43.99238" lon="7.14939">
        <ele>574.40002441406</ele>
        <time>2019-05-11T14:54:40.000Z</time>
      </trkpt>
      <trkpt lat="43.99232" lon="7.14924">
        <ele>575.59997558594</ele>
        <time>2019-05-11T14:54:46.000Z</time>
      </trkpt>
      <trkpt lat="43.99228" lon="7.14915">
        <ele>576.59997558594</ele>
        <time>2019-05-11T14:54:50.000Z</time>
      </trkpt>
      <trkpt lat="43.99225" lon="7.14911">
        <ele>577.59997558594</ele>
        <time>2019-05-11T14:54:53.000Z</time>
      </trkpt>
      <trkpt lat="43.99224" lon="7.14909">
        <ele>578</ele>
        <time>2019-05-11T14:54:54.000Z</time>
      </trkpt>
      <trkpt lat="43.99221" lon="7.14904">
        <ele>578.59997558594</ele>
        <time>2019-05-11T14:54:57.000Z</time>
      </trkpt>
      <trkpt lat="43.99217" lon="7.14895">
        <ele>579.59997558594</ele>
        <time>2019-05-11T14:55:01.000Z</time>
      </trkpt>
      <trkpt lat="43.99215" lon="7.14893">
        <ele>579.79998779297</ele>
        <time>2019-05-11T14:55:02.000Z</time>
      </trkpt>
      <trkpt lat="43.99205" lon="7.14885">
        <ele>581.20001220703</ele>
        <time>2019-05-11T14:55:07.000Z</time>
      </trkpt>
      <trkpt lat="43.99203" lon="7.14883">
        <ele>581.40002441406</ele>
        <time>2019-05-11T14:55:08.000Z</time>
      </trkpt>
      <trkpt lat="43.99193" lon="7.14876">
        <ele>582.20001220703</ele>
        <time>2019-05-11T14:55:13.000Z</time>
      </trkpt>
      <trkpt lat="43.99186" lon="7.14871">
        <ele>582.59997558594</ele>
        <time>2019-05-11T14:55:16.000Z</time>
      </trkpt>
      <trkpt lat="43.99172" lon="7.14856">
        <ele>583</ele>
        <time>2019-05-11T14:55:23.000Z</time>
      </trkpt>
      <trkpt lat="43.99164" lon="7.14837">
        <ele>583.40002441406</ele>
        <time>2019-05-11T14:55:28.000Z</time>
      </trkpt>
      <trkpt lat="43.99163" lon="7.14833">
        <ele>583.40002441406</ele>
        <time>2019-05-11T14:55:29.000Z</time>
      </trkpt>
      <trkpt lat="43.99149" lon="7.14797">
        <ele>584.40002441406</ele>
        <time>2019-05-11T14:55:38.000Z</time>
      </trkpt>
      <trkpt lat="43.99147" lon="7.14794">
        <ele>584.40002441406</ele>
        <time>2019-05-11T14:55:39.000Z</time>
      </trkpt>
      <trkpt lat="43.99135" lon="7.1478">
        <ele>585.20001220703</ele>
        <time>2019-05-11T14:55:44.000Z</time>
      </trkpt>
      <trkpt lat="43.99126" lon="7.14768">
        <ele>585.59997558594</ele>
        <time>2019-05-11T14:55:49.000Z</time>
      </trkpt>
      <trkpt lat="43.99122" lon="7.14761">
        <ele>586.20001220703</ele>
        <time>2019-05-11T14:55:52.000Z</time>
      </trkpt>
      <trkpt lat="43.99119" lon="7.14757">
        <ele>586.79998779297</ele>
        <time>2019-05-11T14:55:54.000Z</time>
      </trkpt>
      <trkpt lat="43.99115" lon="7.1475">
        <ele>587.79998779297</ele>
        <time>2019-05-11T14:55:58.000Z</time>
      </trkpt>
      <trkpt lat="43.99113" lon="7.14746">
        <ele>588.20001220703</ele>
        <time>2019-05-11T14:56:00.000Z</time>
      </trkpt>
      <trkpt lat="43.99109" lon="7.1473">
        <ele>589</ele>
        <time>2019-05-11T14:56:08.000Z</time>
      </trkpt>
      <trkpt lat="43.99108" lon="7.14722">
        <ele>590</ele>
        <time>2019-05-11T14:56:12.000Z</time>
      </trkpt>
      <trkpt lat="43.99107" lon="7.14717">
        <ele>590.79998779297</ele>
        <time>2019-05-11T14:56:15.000Z</time>
      </trkpt>
      <trkpt lat="43.99107" lon="7.14712">
        <ele>591.20001220703</ele>
        <time>2019-05-11T14:56:17.000Z</time>
      </trkpt>
      <trkpt lat="43.99109" lon="7.14702">
        <ele>592</ele>
        <time>2019-05-11T14:56:22.000Z</time>
      </trkpt>
      <trkpt lat="43.99109" lon="7.14701">
        <ele>592.20001220703</ele>
        <time>2019-05-11T14:56:23.000Z</time>
      </trkpt>
      <trkpt lat="43.99113" lon="7.14693">
        <ele>593.40002441406</ele>
        <time>2019-05-11T14:56:28.000Z</time>
      </trkpt>
      <trkpt lat="43.99116" lon="7.14688">
        <ele>594.20001220703</ele>
        <time>2019-05-11T14:56:31.000Z</time>
      </trkpt>
      <trkpt lat="43.99116" lon="7.14686">
        <ele>594.40002441406</ele>
        <time>2019-05-11T14:56:32.000Z</time>
      </trkpt>
      <trkpt lat="43.99121" lon="7.14677">
        <ele>595.40002441406</ele>
        <time>2019-05-11T14:56:38.000Z</time>
      </trkpt>
      <trkpt lat="43.99122" lon="7.14676">
        <ele>595.79998779297</ele>
        <time>2019-05-11T14:56:39.000Z</time>
      </trkpt>
      <trkpt lat="43.99127" lon="7.14668">
        <ele>597</ele>
        <time>2019-05-11T14:56:45.000Z</time>
      </trkpt>
      <trkpt lat="43.99129" lon="7.14666">
        <ele>597.40002441406</ele>
        <time>2019-05-11T14:56:47.000Z</time>
      </trkpt>
      <trkpt lat="43.99131" lon="7.14664">
        <ele>598</ele>
        <time>2019-05-11T14:56:49.000Z</time>
      </trkpt>
      <trkpt lat="43.99137" lon="7.1466">
        <ele>599.40002441406</ele>
        <time>2019-05-11T14:56:54.000Z</time>
      </trkpt>
      <trkpt lat="43.99141" lon="7.1466">
        <ele>600.40002441406</ele>
        <time>2019-05-11T14:56:58.000Z</time>
      </trkpt>
      <trkpt lat="43.99144" lon="7.1466">
        <ele>600.79998779297</ele>
        <time>2019-05-11T14:57:00.000Z</time>
      </trkpt>
      <trkpt lat="43.99147" lon="7.14661">
        <ele>601.59997558594</ele>
        <time>2019-05-11T14:57:03.000Z</time>
      </trkpt>
      <trkpt lat="43.9915" lon="7.14662">
        <ele>602.59997558594</ele>
        <time>2019-05-11T14:57:06.000Z</time>
      </trkpt>
      <trkpt lat="43.99155" lon="7.14663">
        <ele>603.79998779297</ele>
        <time>2019-05-11T14:57:11.000Z</time>
      </trkpt>
      <trkpt lat="43.99157" lon="7.14663">
        <ele>604</ele>
        <time>2019-05-11T14:57:14.000Z</time>
      </trkpt>
      <trkpt lat="43.99158" lon="7.14664">
        <ele>604.20001220703</ele>
        <time>2019-05-11T14:57:15.000Z</time>
      </trkpt>
      <trkpt lat="43.99161" lon="7.14667">
        <ele>604.40002441406</ele>
        <time>2019-05-11T14:57:20.000Z</time>
      </trkpt>
      <trkpt lat="43.99163" lon="7.14666">
        <ele>604.59997558594</ele>
        <time>2019-05-11T14:57:25.000Z</time>
      </trkpt>
      <trkpt lat="43.9916" lon="7.14664">
        <ele>604.20001220703</ele>
        <time>2019-05-11T14:57:30.000Z</time>
      </trkpt>
      <trkpt lat="43.99159" lon="7.14662">
        <ele>604.40002441406</ele>
        <time>2019-05-11T14:57:32.000Z</time>
      </trkpt>
      <trkpt lat="43.99159" lon="7.14661">
        <ele>604.20001220703</ele>
        <time>2019-05-11T14:57:35.000Z</time>
      </trkpt>
      <trkpt lat="43.99159" lon="7.14661">
        <ele>604.40002441406</ele>
        <time>2019-05-11T14:57:41.000Z</time>
      </trkpt>
      <trkpt lat="43.99159" lon="7.1466">
        <ele>604.79998779297</ele>
        <time>2019-05-11T14:57:47.000Z</time>
      </trkpt>
      <trkpt lat="43.99158" lon="7.14659">
        <ele>604.59997558594</ele>
        <time>2019-05-11T14:57:51.000Z</time>
      </trkpt>
      <trkpt lat="43.99158" lon="7.14658">
        <ele>604.79998779297</ele>
        <time>2019-05-11T14:57:57.000Z</time>
      </trkpt>
      <trkpt lat="43.99158" lon="7.14658">
        <ele>604.79998779297</ele>
        <time>2019-05-11T14:58:06.000Z</time>
      </trkpt>
      <trkpt lat="43.99159" lon="7.14657">
        <ele>604.40002441406</ele>
        <time>2019-05-11T14:58:20.000Z</time>
      </trkpt>
      <trkpt lat="43.9916" lon="7.14657">
        <ele>605</ele>
        <time>2019-05-11T14:58:36.000Z</time>
      </trkpt>
      <trkpt lat="43.9916" lon="7.14657">
        <ele>605</ele>
        <time>2019-05-11T14:58:50.000Z</time>
      </trkpt>
      <trkpt lat="43.99161" lon="7.14657">
        <ele>604.20001220703</ele>
        <time>2019-05-11T14:58:58.000Z</time>
      </trkpt>
      <trkpt lat="43.99163" lon="7.14661">
        <ele>603.79998779297</ele>
        <time>2019-05-11T14:59:02.000Z</time>
      </trkpt>
      <trkpt lat="43.99162" lon="7.14658">
        <ele>603.79998779297</ele>
        <time>2019-05-11T14:59:03.000Z</time>
      </trkpt>
      <trkpt lat="43.99162" lon="7.1466">
        <ele>604.40002441406</ele>
        <time>2019-05-11T14:59:12.000Z</time>
      </trkpt>
      <trkpt lat="43.99162" lon="7.14662">
        <ele>604.79998779297</ele>
        <time>2019-05-11T14:59:23.000Z</time>
      </trkpt>
      <trkpt lat="43.99164" lon="7.14667">
        <ele>604.79998779297</ele>
        <time>2019-05-11T14:59:29.000Z</time>
      </trkpt>
      <trkpt lat="43.99165" lon="7.1467">
        <ele>604.79998779297</ele>
        <time>2019-05-11T14:59:34.000Z</time>
      </trkpt>
      <trkpt lat="43.99165" lon="7.14671">
        <ele>604.79998779297</ele>
        <time>2019-05-11T14:59:35.000Z</time>
      </trkpt>
      <trkpt lat="43.99174" lon="7.14685">
        <ele>605.20001220703</ele>
        <time>2019-05-11T14:59:42.000Z</time>
      </trkpt>
      <trkpt lat="43.99185" lon="7.14705">
        <ele>605.59997558594</ele>
        <time>2019-05-11T14:59:50.000Z</time>
      </trkpt>
      <trkpt lat="43.99191" lon="7.14714">
        <ele>605.79998779297</ele>
        <time>2019-05-11T14:59:54.000Z</time>
      </trkpt>
      <trkpt lat="43.99199" lon="7.14724">
        <ele>606.59997558594</ele>
        <time>2019-05-11T14:59:59.000Z</time>
      </trkpt>
      <trkpt lat="43.99202" lon="7.14727">
        <ele>607</ele>
        <time>2019-05-11T15:00:01.000Z</time>
      </trkpt>
      <trkpt lat="43.99212" lon="7.14739">
        <ele>607.59997558594</ele>
        <time>2019-05-11T15:00:08.000Z</time>
      </trkpt>
      <trkpt lat="43.99217" lon="7.14744">
        <ele>608</ele>
        <time>2019-05-11T15:00:11.000Z</time>
      </trkpt>
      <trkpt lat="43.99222" lon="7.1475">
        <ele>608.40002441406</ele>
        <time>2019-05-11T15:00:15.000Z</time>
      </trkpt>
      <trkpt lat="43.9923" lon="7.14761">
        <ele>609.20001220703</ele>
        <time>2019-05-11T15:00:22.000Z</time>
      </trkpt>
      <trkpt lat="43.9923" lon="7.14762">
        <ele>609.40002441406</ele>
        <time>2019-05-11T15:00:23.000Z</time>
      </trkpt>
      <trkpt lat="43.99235" lon="7.14768">
        <ele>610.20001220703</ele>
        <time>2019-05-11T15:00:27.000Z</time>
      </trkpt>
      <trkpt lat="43.9924" lon="7.14774">
        <ele>611.20001220703</ele>
        <time>2019-05-11T15:00:32.000Z</time>
      </trkpt>
      <trkpt lat="43.99241" lon="7.14776">
        <ele>611.20001220703</ele>
        <time>2019-05-11T15:00:33.000Z</time>
      </trkpt>
      <trkpt lat="43.99248" lon="7.14779">
        <ele>612</ele>
        <time>2019-05-11T15:00:38.000Z</time>
      </trkpt>
      <trkpt lat="43.9925" lon="7.14779">
        <ele>612.20001220703</ele>
        <time>2019-05-11T15:00:39.000Z</time>
      </trkpt>
      <trkpt lat="43.99257" lon="7.14777">
        <ele>613</ele>
        <time>2019-05-11T15:00:44.000Z</time>
      </trkpt>
      <trkpt lat="43.99259" lon="7.14776">
        <ele>613.20001220703</ele>
        <time>2019-05-11T15:00:45.000Z</time>
      </trkpt>
      <trkpt lat="43.99267" lon="7.14772">
        <ele>614.40002441406</ele>
        <time>2019-05-11T15:00:51.000Z</time>
      </trkpt>
      <trkpt lat="43.99272" lon="7.1477">
        <ele>615.20001220703</ele>
        <time>2019-05-11T15:00:55.000Z</time>
      </trkpt>
      <trkpt lat="43.99275" lon="7.14769">
        <ele>615.59997558594</ele>
        <time>2019-05-11T15:00:57.000Z</time>
      </trkpt>
      <trkpt lat="43.99276" lon="7.14769">
        <ele>615.79998779297</ele>
        <time>2019-05-11T15:00:58.000Z</time>
      </trkpt>
      <trkpt lat="43.99278" lon="7.1477">
        <ele>616</ele>
        <time>2019-05-11T15:00:59.000Z</time>
      </trkpt>
      <trkpt lat="43.99281" lon="7.14773">
        <ele>616.59997558594</ele>
        <time>2019-05-11T15:01:02.000Z</time>
      </trkpt>
      <trkpt lat="43.99282" lon="7.14774">
        <ele>616.79998779297</ele>
        <time>2019-05-11T15:01:03.000Z</time>
      </trkpt>
      <trkpt lat="43.99287" lon="7.1478">
        <ele>617.20001220703</ele>
        <time>2019-05-11T15:01:07.000Z</time>
      </trkpt>
      <trkpt lat="43.9929" lon="7.14786">
        <ele>617.40002441406</ele>
        <time>2019-05-11T15:01:10.000Z</time>
      </trkpt>
      <trkpt lat="43.99294" lon="7.14792">
        <ele>617.59997558594</ele>
        <time>2019-05-11T15:01:13.000Z</time>
      </trkpt>
      <trkpt lat="43.99299" lon="7.14799">
        <ele>618</ele>
        <time>2019-05-11T15:01:17.000Z</time>
      </trkpt>
      <trkpt lat="43.9931" lon="7.14816">
        <ele>618.79998779297</ele>
        <time>2019-05-11T15:01:26.000Z</time>
      </trkpt>
      <trkpt lat="43.99322" lon="7.14827">
        <ele>619.40002441406</ele>
        <time>2019-05-11T15:01:35.000Z</time>
      </trkpt>
      <trkpt lat="43.99328" lon="7.14831">
        <ele>619.79998779297</ele>
        <time>2019-05-11T15:01:39.000Z</time>
      </trkpt>
      <trkpt lat="43.99335" lon="7.14839">
        <ele>620.40002441406</ele>
        <time>2019-05-11T15:01:45.000Z</time>
      </trkpt>
      <trkpt lat="43.99337" lon="7.1484">
        <ele>621</ele>
        <time>2019-05-11T15:01:48.000Z</time>
      </trkpt>
      <trkpt lat="43.99338" lon="7.14842">
        <ele>621.40002441406</ele>
        <time>2019-05-11T15:01:51.000Z</time>
      </trkpt>
      <trkpt lat="43.99339" lon="7.14842">
        <ele>622</ele>
        <time>2019-05-11T15:01:56.000Z</time>
      </trkpt>
      <trkpt lat="43.9934" lon="7.14842">
        <ele>622.20001220703</ele>
        <time>2019-05-11T15:01:58.000Z</time>
      </trkpt>
      <trkpt lat="43.99344" lon="7.14844">
        <ele>622.59997558594</ele>
        <time>2019-05-11T15:02:03.000Z</time>
      </trkpt>
      <trkpt lat="43.99345" lon="7.14847">
        <ele>623</ele>
        <time>2019-05-11T15:02:08.000Z</time>
      </trkpt>
      <trkpt lat="43.99347" lon="7.14849">
        <ele>624</ele>
        <time>2019-05-11T15:02:12.000Z</time>
      </trkpt>
      <trkpt lat="43.99347" lon="7.1485">
        <ele>624.20001220703</ele>
        <time>2019-05-11T15:02:13.000Z</time>
      </trkpt>
      <trkpt lat="43.9935" lon="7.14851">
        <ele>625</ele>
        <time>2019-05-11T15:02:18.000Z</time>
      </trkpt>
      <trkpt lat="43.99351" lon="7.14849">
        <ele>625.20001220703</ele>
        <time>2019-05-11T15:02:20.000Z</time>
      </trkpt>
      <trkpt lat="43.99352" lon="7.14846">
        <ele>625.40002441406</ele>
        <time>2019-05-11T15:02:24.000Z</time>
      </trkpt>
      <trkpt lat="43.99353" lon="7.14842">
        <ele>626.40002441406</ele>
        <time>2019-05-11T15:02:31.000Z</time>
      </trkpt>
      <trkpt lat="43.99353" lon="7.14842">
        <ele>626.40002441406</ele>
        <time>2019-05-11T15:02:32.000Z</time>
      </trkpt>
      <trkpt lat="43.99353" lon="7.14837">
        <ele>627.40002441406</ele>
        <time>2019-05-11T15:02:38.000Z</time>
      </trkpt>
      <trkpt lat="43.99353" lon="7.14835">
        <ele>628</ele>
        <time>2019-05-11T15:02:40.000Z</time>
      </trkpt>
      <trkpt lat="43.99353" lon="7.14833">
        <ele>628.59997558594</ele>
        <time>2019-05-11T15:02:42.000Z</time>
      </trkpt>
      <trkpt lat="43.99354" lon="7.14829">
        <ele>629.20001220703</ele>
        <time>2019-05-11T15:02:46.000Z</time>
      </trkpt>
      <trkpt lat="43.99354" lon="7.14827">
        <ele>629.79998779297</ele>
        <time>2019-05-11T15:02:48.000Z</time>
      </trkpt>
      <trkpt lat="43.99355" lon="7.14825">
        <ele>630.40002441406</ele>
        <time>2019-05-11T15:02:51.000Z</time>
      </trkpt>
      <trkpt lat="43.99355" lon="7.14821">
        <ele>631</ele>
        <time>2019-05-11T15:02:56.000Z</time>
      </trkpt>
      <trkpt lat="43.99355" lon="7.14819">
        <ele>631.40002441406</ele>
        <time>2019-05-11T15:02:58.000Z</time>
      </trkpt>
      <trkpt lat="43.99355" lon="7.14815">
        <ele>632</ele>
        <time>2019-05-11T15:03:02.000Z</time>
      </trkpt>
      <trkpt lat="43.99355" lon="7.14812">
        <ele>632.59997558594</ele>
        <time>2019-05-11T15:03:05.000Z</time>
      </trkpt>
      <trkpt lat="43.99355" lon="7.14807">
        <ele>633.20001220703</ele>
        <time>2019-05-11T15:03:09.000Z</time>
      </trkpt>
      <trkpt lat="43.99355" lon="7.14806">
        <ele>633.59997558594</ele>
        <time>2019-05-11T15:03:11.000Z</time>
      </trkpt>
      <trkpt lat="43.99354" lon="7.14804">
        <ele>634.20001220703</ele>
        <time>2019-05-11T15:03:13.000Z</time>
      </trkpt>
      <trkpt lat="43.99353" lon="7.148">
        <ele>634.79998779297</ele>
        <time>2019-05-11T15:03:17.000Z</time>
      </trkpt>
      <trkpt lat="43.99353" lon="7.14794">
        <ele>635.40002441406</ele>
        <time>2019-05-11T15:03:22.000Z</time>
      </trkpt>
      <trkpt lat="43.99353" lon="7.14795">
        <ele>635.40002441406</ele>
        <time>2019-05-11T15:03:23.000Z</time>
      </trkpt>
      <trkpt lat="43.99352" lon="7.14788">
        <ele>636.40002441406</ele>
        <time>2019-05-11T15:03:29.000Z</time>
      </trkpt>
      <trkpt lat="43.99352" lon="7.14782">
        <ele>637.59997558594</ele>
        <time>2019-05-11T15:03:36.000Z</time>
      </trkpt>
      <trkpt lat="43.99352" lon="7.14781">
        <ele>637.79998779297</ele>
        <time>2019-05-11T15:03:37.000Z</time>
      </trkpt>
      <trkpt lat="43.99351" lon="7.14778">
        <ele>638.59997558594</ele>
        <time>2019-05-11T15:03:41.000Z</time>
      </trkpt>
      <trkpt lat="43.99351" lon="7.14776">
        <ele>639.20001220703</ele>
        <time>2019-05-11T15:03:44.000Z</time>
      </trkpt>
      <trkpt lat="43.9935" lon="7.14773">
        <ele>639.79998779297</ele>
        <time>2019-05-11T15:03:47.000Z</time>
      </trkpt>
      <trkpt lat="43.9935" lon="7.1477">
        <ele>640.40002441406</ele>
        <time>2019-05-11T15:03:50.000Z</time>
      </trkpt>
      <trkpt lat="43.99349" lon="7.14767">
        <ele>640.79998779297</ele>
        <time>2019-05-11T15:03:53.000Z</time>
      </trkpt>
      <trkpt lat="43.99349" lon="7.14762">
        <ele>641.59997558594</ele>
        <time>2019-05-11T15:03:57.000Z</time>
      </trkpt>
      <trkpt lat="43.99349" lon="7.14761">
        <ele>642</ele>
        <time>2019-05-11T15:04:00.000Z</time>
      </trkpt>
      <trkpt lat="43.99352" lon="7.14761">
        <ele>642.59997558594</ele>
        <time>2019-05-11T15:04:04.000Z</time>
      </trkpt>
      <trkpt lat="43.99353" lon="7.14761">
        <ele>643.20001220703</ele>
        <time>2019-05-11T15:04:06.000Z</time>
      </trkpt>
      <trkpt lat="43.99355" lon="7.14763">
        <ele>644.20001220703</ele>
        <time>2019-05-11T15:04:11.000Z</time>
      </trkpt>
      <trkpt lat="43.99356" lon="7.14763">
        <ele>644.59997558594</ele>
        <time>2019-05-11T15:04:12.000Z</time>
      </trkpt>
      <trkpt lat="43.99358" lon="7.14765">
        <ele>645.20001220703</ele>
        <time>2019-05-11T15:04:18.000Z</time>
      </trkpt>
      <trkpt lat="43.9936" lon="7.14767">
        <ele>645.59997558594</ele>
        <time>2019-05-11T15:04:21.000Z</time>
      </trkpt>
      <trkpt lat="43.99362" lon="7.14768">
        <ele>646.40002441406</ele>
        <time>2019-05-11T15:04:25.000Z</time>
      </trkpt>
      <trkpt lat="43.99363" lon="7.14769">
        <ele>646.79998779297</ele>
        <time>2019-05-11T15:04:27.000Z</time>
      </trkpt>
      <trkpt lat="43.99365" lon="7.1477">
        <ele>647.20001220703</ele>
        <time>2019-05-11T15:04:30.000Z</time>
      </trkpt>
      <trkpt lat="43.99367" lon="7.14771">
        <ele>648</ele>
        <time>2019-05-11T15:04:34.000Z</time>
      </trkpt>
      <trkpt lat="43.99368" lon="7.14772">
        <ele>648.20001220703</ele>
        <time>2019-05-11T15:04:36.000Z</time>
      </trkpt>
      <trkpt lat="43.99371" lon="7.14775">
        <ele>649</ele>
        <time>2019-05-11T15:04:41.000Z</time>
      </trkpt>
      <trkpt lat="43.99372" lon="7.14775">
        <ele>649</ele>
        <time>2019-05-11T15:04:42.000Z</time>
      </trkpt>
      <trkpt lat="43.99375" lon="7.14778">
        <ele>650</ele>
        <time>2019-05-11T15:04:48.000Z</time>
      </trkpt>
      <trkpt lat="43.99376" lon="7.14779">
        <ele>650.20001220703</ele>
        <time>2019-05-11T15:04:49.000Z</time>
      </trkpt>
      <trkpt lat="43.99378" lon="7.14779">
        <ele>650.59997558594</ele>
        <time>2019-05-11T15:04:52.000Z</time>
      </trkpt>
      <trkpt lat="43.99379" lon="7.14779">
        <ele>651</ele>
        <time>2019-05-11T15:04:54.000Z</time>
      </trkpt>
      <trkpt lat="43.99382" lon="7.14777">
        <ele>652</ele>
        <time>2019-05-11T15:04:59.000Z</time>
      </trkpt>
      <trkpt lat="43.99383" lon="7.14773">
        <ele>653</ele>
        <time>2019-05-11T15:05:04.000Z</time>
      </trkpt>
      <trkpt lat="43.99383" lon="7.14773">
        <ele>653.40002441406</ele>
        <time>2019-05-11T15:05:05.000Z</time>
      </trkpt>
      <trkpt lat="43.99382" lon="7.14768">
        <ele>654.20001220703</ele>
        <time>2019-05-11T15:05:10.000Z</time>
      </trkpt>
      <trkpt lat="43.99382" lon="7.14767">
        <ele>654.40002441406</ele>
        <time>2019-05-11T15:05:11.000Z</time>
      </trkpt>
      <trkpt lat="43.9938" lon="7.14761">
        <ele>655.20001220703</ele>
        <time>2019-05-11T15:05:17.000Z</time>
      </trkpt>
      <trkpt lat="43.99379" lon="7.1476">
        <ele>655.40002441406</ele>
        <time>2019-05-11T15:05:18.000Z</time>
      </trkpt>
      <trkpt lat="43.99377" lon="7.14754">
        <ele>656</ele>
        <time>2019-05-11T15:05:25.000Z</time>
      </trkpt>
      <trkpt lat="43.99377" lon="7.14753">
        <ele>656.20001220703</ele>
        <time>2019-05-11T15:05:26.000Z</time>
      </trkpt>
      <trkpt lat="43.99376" lon="7.14752">
        <ele>656.40002441406</ele>
        <time>2019-05-11T15:05:27.000Z</time>
      </trkpt>
      <trkpt lat="43.99375" lon="7.1475">
        <ele>657.40002441406</ele>
        <time>2019-05-11T15:05:30.000Z</time>
      </trkpt>
      <trkpt lat="43.99372" lon="7.14744">
        <ele>658.40002441406</ele>
        <time>2019-05-11T15:05:36.000Z</time>
      </trkpt>
      <trkpt lat="43.99372" lon="7.14743">
        <ele>658.59997558594</ele>
        <time>2019-05-11T15:05:37.000Z</time>
      </trkpt>
      <trkpt lat="43.99369" lon="7.14737">
        <ele>659.20001220703</ele>
        <time>2019-05-11T15:05:43.000Z</time>
      </trkpt>
      <trkpt lat="43.99368" lon="7.14736">
        <ele>659.79998779297</ele>
        <time>2019-05-11T15:05:45.000Z</time>
      </trkpt>
      <trkpt lat="43.99368" lon="7.14736">
        <ele>660.40002441406</ele>
        <time>2019-05-11T15:05:48.000Z</time>
      </trkpt>
      <trkpt lat="43.99369" lon="7.14737">
        <ele>660</ele>
        <time>2019-05-11T15:05:52.000Z</time>
      </trkpt>
      <trkpt lat="43.99366" lon="7.14731">
        <ele>660.20001220703</ele>
        <time>2019-05-11T15:05:58.000Z</time>
      </trkpt>
      <trkpt lat="43.9936" lon="7.1472">
        <ele>660.79998779297</ele>
        <time>2019-05-11T15:06:04.000Z</time>
      </trkpt>
      <trkpt lat="43.99358" lon="7.14716">
        <ele>661</ele>
        <time>2019-05-11T15:06:06.000Z</time>
      </trkpt>
      <trkpt lat="43.99354" lon="7.1471">
        <ele>661.79998779297</ele>
        <time>2019-05-11T15:06:09.000Z</time>
      </trkpt>
      <trkpt lat="43.99348" lon="7.14703">
        <ele>662.79998779297</ele>
        <time>2019-05-11T15:06:13.000Z</time>
      </trkpt>
      <trkpt lat="43.99343" lon="7.14695">
        <ele>663.20001220703</ele>
        <time>2019-05-11T15:06:17.000Z</time>
      </trkpt>
      <trkpt lat="43.99327" lon="7.14675">
        <ele>664</ele>
        <time>2019-05-11T15:06:27.000Z</time>
      </trkpt>
      <trkpt lat="43.99318" lon="7.14665">
        <ele>665</ele>
        <time>2019-05-11T15:06:33.000Z</time>
      </trkpt>
      <trkpt lat="43.99315" lon="7.14661">
        <ele>665.40002441406</ele>
        <time>2019-05-11T15:06:36.000Z</time>
      </trkpt>
      <trkpt lat="43.99309" lon="7.14651">
        <ele>666</ele>
        <time>2019-05-11T15:06:42.000Z</time>
      </trkpt>
      <trkpt lat="43.9931" lon="7.14647">
        <ele>666.59997558594</ele>
        <time>2019-05-11T15:06:44.000Z</time>
      </trkpt>
      <trkpt lat="43.99311" lon="7.14644">
        <ele>667.40002441406</ele>
        <time>2019-05-11T15:06:46.000Z</time>
      </trkpt>
      <trkpt lat="43.99312" lon="7.14643">
        <ele>668.20001220703</ele>
        <time>2019-05-11T15:06:49.000Z</time>
      </trkpt>
      <trkpt lat="43.99313" lon="7.14641">
        <ele>668.59997558594</ele>
        <time>2019-05-11T15:06:52.000Z</time>
      </trkpt>
      <trkpt lat="43.99315" lon="7.14637">
        <ele>669.40002441406</ele>
        <time>2019-05-11T15:06:57.000Z</time>
      </trkpt>
      <trkpt lat="43.99316" lon="7.14637">
        <ele>669.59997558594</ele>
        <time>2019-05-11T15:06:58.000Z</time>
      </trkpt>
      <trkpt lat="43.99317" lon="7.14633">
        <ele>670.40002441406</ele>
        <time>2019-05-11T15:07:03.000Z</time>
      </trkpt>
      <trkpt lat="43.99317" lon="7.14633">
        <ele>670.59997558594</ele>
        <time>2019-05-11T15:07:04.000Z</time>
      </trkpt>
      <trkpt lat="43.99315" lon="7.14628">
        <ele>671.79998779297</ele>
        <time>2019-05-11T15:07:09.000Z</time>
      </trkpt>
      <trkpt lat="43.99314" lon="7.14621">
        <ele>673</ele>
        <time>2019-05-11T15:07:17.000Z</time>
      </trkpt>
      <trkpt lat="43.99314" lon="7.1462">
        <ele>673</ele>
        <time>2019-05-11T15:07:18.000Z</time>
      </trkpt>
      <trkpt lat="43.99318" lon="7.14623">
        <ele>673.59997558594</ele>
        <time>2019-05-11T15:07:24.000Z</time>
      </trkpt>
      <trkpt lat="43.99321" lon="7.14623">
        <ele>674</ele>
        <time>2019-05-11T15:07:29.000Z</time>
      </trkpt>
      <trkpt lat="43.99321" lon="7.14623">
        <ele>674.20001220703</ele>
        <time>2019-05-11T15:07:31.000Z</time>
      </trkpt>
      <trkpt lat="43.99322" lon="7.14621">
        <ele>674.20001220703</ele>
        <time>2019-05-11T15:07:40.000Z</time>
      </trkpt>
      <trkpt lat="43.9932" lon="7.14621">
        <ele>674</ele>
        <time>2019-05-11T15:07:49.000Z</time>
      </trkpt>
      <trkpt lat="43.9932" lon="7.14619">
        <ele>674.20001220703</ele>
        <time>2019-05-11T15:08:04.000Z</time>
      </trkpt>
      <trkpt lat="43.99321" lon="7.14619">
        <ele>674.20001220703</ele>
        <time>2019-05-11T15:08:12.000Z</time>
      </trkpt>
      <trkpt lat="43.99324" lon="7.14621">
        <ele>674.20001220703</ele>
        <time>2019-05-11T15:08:17.000Z</time>
      </trkpt>
      <trkpt lat="43.99327" lon="7.14623">
        <ele>674.79998779297</ele>
        <time>2019-05-11T15:08:20.000Z</time>
      </trkpt>
      <trkpt lat="43.99328" lon="7.14624">
        <ele>675.20001220703</ele>
        <time>2019-05-11T15:08:21.000Z</time>
      </trkpt>
      <trkpt lat="43.99331" lon="7.14625">
        <ele>675.59997558594</ele>
        <time>2019-05-11T15:08:24.000Z</time>
      </trkpt>
      <trkpt lat="43.99335" lon="7.14628">
        <ele>676.40002441406</ele>
        <time>2019-05-11T15:08:30.000Z</time>
      </trkpt>
      <trkpt lat="43.99336" lon="7.14629">
        <ele>676.59997558594</ele>
        <time>2019-05-11T15:08:31.000Z</time>
      </trkpt>
      <trkpt lat="43.99341" lon="7.14629">
        <ele>677</ele>
        <time>2019-05-11T15:08:35.000Z</time>
      </trkpt>
      <trkpt lat="43.99342" lon="7.1463">
        <ele>677.40002441406</ele>
        <time>2019-05-11T15:08:37.000Z</time>
      </trkpt>
      <trkpt lat="43.99343" lon="7.1463">
        <ele>677.40002441406</ele>
        <time>2019-05-11T15:08:38.000Z</time>
      </trkpt>
      <trkpt lat="43.99344" lon="7.1463">
        <ele>677.59997558594</ele>
        <time>2019-05-11T15:08:39.000Z</time>
      </trkpt>
      <trkpt lat="43.99345" lon="7.14629">
        <ele>677.59997558594</ele>
        <time>2019-05-11T15:08:41.000Z</time>
      </trkpt>
      <trkpt lat="43.99346" lon="7.1463">
        <ele>677.59997558594</ele>
        <time>2019-05-11T15:08:43.000Z</time>
      </trkpt>
      <trkpt lat="43.99347" lon="7.14632">
        <ele>677.79998779297</ele>
        <time>2019-05-11T15:08:44.000Z</time>
      </trkpt>
      <trkpt lat="43.99351" lon="7.14637">
        <ele>678</ele>
        <time>2019-05-11T15:08:49.000Z</time>
      </trkpt>
      <trkpt lat="43.99354" lon="7.14641">
        <ele>678.20001220703</ele>
        <time>2019-05-11T15:08:55.000Z</time>
      </trkpt>
      <trkpt lat="43.99354" lon="7.14642">
        <ele>678.40002441406</ele>
        <time>2019-05-11T15:09:01.000Z</time>
      </trkpt>
      <trkpt lat="43.99355" lon="7.14642">
        <ele>678.59997558594</ele>
        <time>2019-05-11T15:09:03.000Z</time>
      </trkpt>
      <trkpt lat="43.99358" lon="7.14646">
        <ele>678.79998779297</ele>
        <time>2019-05-11T15:09:11.000Z</time>
      </trkpt>
      <trkpt lat="43.99361" lon="7.14647">
        <ele>679.20001220703</ele>
        <time>2019-05-11T15:09:16.000Z</time>
      </trkpt>
      <trkpt lat="43.99363" lon="7.14649">
        <ele>679.20001220703</ele>
        <time>2019-05-11T15:09:18.000Z</time>
      </trkpt>
      <trkpt lat="43.99365" lon="7.14651">
        <ele>679.40002441406</ele>
        <time>2019-05-11T15:09:24.000Z</time>
      </trkpt>
      <trkpt lat="43.99366" lon="7.14652">
        <ele>679.40002441406</ele>
        <time>2019-05-11T15:09:26.000Z</time>
      </trkpt>
      <trkpt lat="43.99367" lon="7.14652">
        <ele>679.40002441406</ele>
        <time>2019-05-11T15:09:30.000Z</time>
      </trkpt>
      <trkpt lat="43.99371" lon="7.14657">
        <ele>679.20001220703</ele>
        <time>2019-05-11T15:09:35.000Z</time>
      </trkpt>
      <trkpt lat="43.9938" lon="7.14664">
        <ele>680.59997558594</ele>
        <time>2019-05-11T15:09:41.000Z</time>
      </trkpt>
      <trkpt lat="43.99382" lon="7.14666">
        <ele>681</ele>
        <time>2019-05-11T15:09:43.000Z</time>
      </trkpt>
      <trkpt lat="43.99384" lon="7.14667">
        <ele>681.20001220703</ele>
        <time>2019-05-11T15:09:44.000Z</time>
      </trkpt>
      <trkpt lat="43.9939" lon="7.1467">
        <ele>682</ele>
        <time>2019-05-11T15:09:48.000Z</time>
      </trkpt>
      <trkpt lat="43.99394" lon="7.14673">
        <ele>682.79998779297</ele>
        <time>2019-05-11T15:09:51.000Z</time>
      </trkpt>
      <trkpt lat="43.99397" lon="7.14674">
        <ele>683.20001220703</ele>
        <time>2019-05-11T15:09:53.000Z</time>
      </trkpt>
      <trkpt lat="43.99401" lon="7.14678">
        <ele>683.79998779297</ele>
        <time>2019-05-11T15:09:56.000Z</time>
      </trkpt>
      <trkpt lat="43.99404" lon="7.1468">
        <ele>684.40002441406</ele>
        <time>2019-05-11T15:09:58.000Z</time>
      </trkpt>
      <trkpt lat="43.99409" lon="7.14684">
        <ele>685.40002441406</ele>
        <time>2019-05-11T15:10:02.000Z</time>
      </trkpt>
      <trkpt lat="43.99411" lon="7.14687">
        <ele>686</ele>
        <time>2019-05-11T15:10:04.000Z</time>
      </trkpt>
      <trkpt lat="43.99414" lon="7.14691">
        <ele>686.59997558594</ele>
        <time>2019-05-11T15:10:08.000Z</time>
      </trkpt>
      <trkpt lat="43.99417" lon="7.14693">
        <ele>687</ele>
        <time>2019-05-11T15:10:10.000Z</time>
      </trkpt>
      <trkpt lat="43.99421" lon="7.14696">
        <ele>687.79998779297</ele>
        <time>2019-05-11T15:10:14.000Z</time>
      </trkpt>
      <trkpt lat="43.99425" lon="7.14698">
        <ele>688.40002441406</ele>
        <time>2019-05-11T15:10:17.000Z</time>
      </trkpt>
      <trkpt lat="43.99429" lon="7.14702">
        <ele>688.79998779297</ele>
        <time>2019-05-11T15:10:20.000Z</time>
      </trkpt>
      <trkpt lat="43.99433" lon="7.14707">
        <ele>689.79998779297</ele>
        <time>2019-05-11T15:10:23.000Z</time>
      </trkpt>
      <trkpt lat="43.99434" lon="7.14708">
        <ele>690.20001220703</ele>
        <time>2019-05-11T15:10:24.000Z</time>
      </trkpt>
      <trkpt lat="43.99437" lon="7.14711">
        <ele>691</ele>
        <time>2019-05-11T15:10:26.000Z</time>
      </trkpt>
      <trkpt lat="43.99442" lon="7.14715">
        <ele>692</ele>
        <time>2019-05-11T15:10:31.000Z</time>
      </trkpt>
      <trkpt lat="43.99446" lon="7.1472">
        <ele>693.20001220703</ele>
        <time>2019-05-11T15:10:35.000Z</time>
      </trkpt>
      <trkpt lat="43.99449" lon="7.14723">
        <ele>694</ele>
        <time>2019-05-11T15:10:38.000Z</time>
      </trkpt>
      <trkpt lat="43.99452" lon="7.14726">
        <ele>694.59997558594</ele>
        <time>2019-05-11T15:10:40.000Z</time>
      </trkpt>
      <trkpt lat="43.99457" lon="7.14732">
        <ele>695.59997558594</ele>
        <time>2019-05-11T15:10:45.000Z</time>
      </trkpt>
      <trkpt lat="43.99459" lon="7.14734">
        <ele>696</ele>
        <time>2019-05-11T15:10:47.000Z</time>
      </trkpt>
      <trkpt lat="43.99465" lon="7.14741">
        <ele>696.59997558594</ele>
        <time>2019-05-11T15:10:53.000Z</time>
      </trkpt>
      <trkpt lat="43.99466" lon="7.14744">
        <ele>697.20001220703</ele>
        <time>2019-05-11T15:10:55.000Z</time>
      </trkpt>
      <trkpt lat="43.99469" lon="7.14748">
        <ele>697.79998779297</ele>
        <time>2019-05-11T15:10:58.000Z</time>
      </trkpt>
      <trkpt lat="43.99476" lon="7.14755">
        <ele>698.79998779297</ele>
        <time>2019-05-11T15:11:04.000Z</time>
      </trkpt>
      <trkpt lat="43.99478" lon="7.14757">
        <ele>699</ele>
        <time>2019-05-11T15:11:06.000Z</time>
      </trkpt>
      <trkpt lat="43.99484" lon="7.14763">
        <ele>700</ele>
        <time>2019-05-11T15:11:12.000Z</time>
      </trkpt>
      <trkpt lat="43.99486" lon="7.14765">
        <ele>700.40002441406</ele>
        <time>2019-05-11T15:11:14.000Z</time>
      </trkpt>
      <trkpt lat="43.99489" lon="7.14768">
        <ele>701</ele>
        <time>2019-05-11T15:11:17.000Z</time>
      </trkpt>
      <trkpt lat="43.99492" lon="7.14772">
        <ele>701.59997558594</ele>
        <time>2019-05-11T15:11:20.000Z</time>
      </trkpt>
      <trkpt lat="43.99497" lon="7.14778">
        <ele>702.20001220703</ele>
        <time>2019-05-11T15:11:24.000Z</time>
      </trkpt>
      <trkpt lat="43.99501" lon="7.14784">
        <ele>703</ele>
        <time>2019-05-11T15:11:28.000Z</time>
      </trkpt>
      <trkpt lat="43.99503" lon="7.14785">
        <ele>703.20001220703</ele>
        <time>2019-05-11T15:11:29.000Z</time>
      </trkpt>
      <trkpt lat="43.99509" lon="7.14792">
        <ele>704.20001220703</ele>
        <time>2019-05-11T15:11:35.000Z</time>
      </trkpt>
      <trkpt lat="43.99511" lon="7.14793">
        <ele>704.40002441406</ele>
        <time>2019-05-11T15:11:36.000Z</time>
      </trkpt>
      <trkpt lat="43.99516" lon="7.148">
        <ele>705.40002441406</ele>
        <time>2019-05-11T15:11:41.000Z</time>
      </trkpt>
      <trkpt lat="43.99521" lon="7.14805">
        <ele>706</ele>
        <time>2019-05-11T15:11:44.000Z</time>
      </trkpt>
      <trkpt lat="43.99524" lon="7.14808">
        <ele>706.59997558594</ele>
        <time>2019-05-11T15:11:47.000Z</time>
      </trkpt>
      <trkpt lat="43.99526" lon="7.14811">
        <ele>707.20001220703</ele>
        <time>2019-05-11T15:11:49.000Z</time>
      </trkpt>
      <trkpt lat="43.99527" lon="7.14812">
        <ele>707.79998779297</ele>
        <time>2019-05-11T15:11:50.000Z</time>
      </trkpt>
      <trkpt lat="43.99527" lon="7.14812">
        <ele>708.20001220703</ele>
        <time>2019-05-11T15:11:51.000Z</time>
      </trkpt>
      <trkpt lat="43.99529" lon="7.14813">
        <ele>708.79998779297</ele>
        <time>2019-05-11T15:11:53.000Z</time>
      </trkpt>
      <trkpt lat="43.99531" lon="7.14814">
        <ele>709.20001220703</ele>
        <time>2019-05-11T15:11:55.000Z</time>
      </trkpt>
      <trkpt lat="43.99533" lon="7.14817">
        <ele>709.40002441406</ele>
        <time>2019-05-11T15:11:59.000Z</time>
      </trkpt>
      <trkpt lat="43.99537" lon="7.14821">
        <ele>709.59997558594</ele>
        <time>2019-05-11T15:12:04.000Z</time>
      </trkpt>
      <trkpt lat="43.99538" lon="7.14823">
        <ele>709.79998779297</ele>
        <time>2019-05-11T15:12:06.000Z</time>
      </trkpt>
      <trkpt lat="43.9954" lon="7.14828">
        <ele>710.20001220703</ele>
        <time>2019-05-11T15:12:11.000Z</time>
      </trkpt>
      <trkpt lat="43.99544" lon="7.14839">
        <ele>710.59997558594</ele>
        <time>2019-05-11T15:12:18.000Z</time>
      </trkpt>
      <trkpt lat="43.99545" lon="7.14844">
        <ele>710.59997558594</ele>
        <time>2019-05-11T15:12:22.000Z</time>
      </trkpt>
      <trkpt lat="43.99548" lon="7.14846">
        <ele>710.79998779297</ele>
        <time>2019-05-11T15:12:24.000Z</time>
      </trkpt>
      <trkpt lat="43.99549" lon="7.14847">
        <ele>711</ele>
        <time>2019-05-11T15:12:29.000Z</time>
      </trkpt>
      <trkpt lat="43.99549" lon="7.14848">
        <ele>711</ele>
        <time>2019-05-11T15:12:30.000Z</time>
      </trkpt>
      <trkpt lat="43.9955" lon="7.14847">
        <ele>711</ele>
        <time>2019-05-11T15:12:33.000Z</time>
      </trkpt>
      <trkpt lat="43.99551" lon="7.14846">
        <ele>711</ele>
        <time>2019-05-11T15:12:40.000Z</time>
      </trkpt>
      <trkpt lat="43.99552" lon="7.14844">
        <ele>711</ele>
        <time>2019-05-11T15:12:46.000Z</time>
      </trkpt>
      <trkpt lat="43.99554" lon="7.14845">
        <ele>711</ele>
        <time>2019-05-11T15:12:53.000Z</time>
      </trkpt>
      <trkpt lat="43.99555" lon="7.14844">
        <ele>711</ele>
        <time>2019-05-11T15:12:54.000Z</time>
      </trkpt>
      <trkpt lat="43.99556" lon="7.14845">
        <ele>711</ele>
        <time>2019-05-11T15:12:57.000Z</time>
      </trkpt>
      <trkpt lat="43.99559" lon="7.14846">
        <ele>711.40002441406</ele>
        <time>2019-05-11T15:13:00.000Z</time>
      </trkpt>
      <trkpt lat="43.99563" lon="7.14847">
        <ele>711.59997558594</ele>
        <time>2019-05-11T15:13:02.000Z</time>
      </trkpt>
      <trkpt lat="43.99566" lon="7.14847">
        <ele>711.79998779297</ele>
        <time>2019-05-11T15:13:04.000Z</time>
      </trkpt>
      <trkpt lat="43.9957" lon="7.14847">
        <ele>712.20001220703</ele>
        <time>2019-05-11T15:13:06.000Z</time>
      </trkpt>
      <trkpt lat="43.9957" lon="7.14846">
        <ele>712.40002441406</ele>
        <time>2019-05-11T15:13:07.000Z</time>
      </trkpt>
      <trkpt lat="43.99572" lon="7.14845">
        <ele>712.79998779297</ele>
        <time>2019-05-11T15:13:09.000Z</time>
      </trkpt>
      <trkpt lat="43.99574" lon="7.14843">
        <ele>713.40002441406</ele>
        <time>2019-05-11T15:13:12.000Z</time>
      </trkpt>
      <trkpt lat="43.99579" lon="7.14845">
        <ele>714</ele>
        <time>2019-05-11T15:13:15.000Z</time>
      </trkpt>
      <trkpt lat="43.99583" lon="7.14844">
        <ele>714.40002441406</ele>
        <time>2019-05-11T15:13:18.000Z</time>
      </trkpt>
      <trkpt lat="43.99589" lon="7.14841">
        <ele>715.20001220703</ele>
        <time>2019-05-11T15:13:22.000Z</time>
      </trkpt>
      <trkpt lat="43.99595" lon="7.14839">
        <ele>715.59997558594</ele>
        <time>2019-05-11T15:13:25.000Z</time>
      </trkpt>
      <trkpt lat="43.99606" lon="7.14837">
        <ele>716.20001220703</ele>
        <time>2019-05-11T15:13:31.000Z</time>
      </trkpt>
      <trkpt lat="43.99608" lon="7.14839">
        <ele>716.40002441406</ele>
        <time>2019-05-11T15:13:32.000Z</time>
      </trkpt>
      <trkpt lat="43.99619" lon="7.14848">
        <ele>717.20001220703</ele>
        <time>2019-05-11T15:13:38.000Z</time>
      </trkpt>
      <trkpt lat="43.99621" lon="7.14849">
        <ele>717.20001220703</ele>
        <time>2019-05-11T15:13:39.000Z</time>
      </trkpt>
      <trkpt lat="43.99628" lon="7.14857">
        <ele>717.79998779297</ele>
        <time>2019-05-11T15:13:44.000Z</time>
      </trkpt>
      <trkpt lat="43.99632" lon="7.14864">
        <ele>718.40002441406</ele>
        <time>2019-05-11T15:13:47.000Z</time>
      </trkpt>
      <trkpt lat="43.99638" lon="7.14877">
        <ele>719.20001220703</ele>
        <time>2019-05-11T15:13:52.000Z</time>
      </trkpt>
      <trkpt lat="43.99639" lon="7.14879">
        <ele>719.40002441406</ele>
        <time>2019-05-11T15:13:53.000Z</time>
      </trkpt>
      <trkpt lat="43.99641" lon="7.14895">
        <ele>720.20001220703</ele>
        <time>2019-05-11T15:13:58.000Z</time>
      </trkpt>
      <trkpt lat="43.99642" lon="7.14902">
        <ele>720.59997558594</ele>
        <time>2019-05-11T15:14:00.000Z</time>
      </trkpt>
      <trkpt lat="43.99645" lon="7.14918">
        <ele>721.40002441406</ele>
        <time>2019-05-11T15:14:05.000Z</time>
      </trkpt>
      <trkpt lat="43.99646" lon="7.14921">
        <ele>721.59997558594</ele>
        <time>2019-05-11T15:14:06.000Z</time>
      </trkpt>
      <trkpt lat="43.99647" lon="7.14938">
        <ele>722.79998779297</ele>
        <time>2019-05-11T15:14:12.000Z</time>
      </trkpt>
      <trkpt lat="43.99647" lon="7.1494">
        <ele>723</ele>
        <time>2019-05-11T15:14:13.000Z</time>
      </trkpt>
      <trkpt lat="43.99645" lon="7.14956">
        <ele>723.59997558594</ele>
        <time>2019-05-11T15:14:19.000Z</time>
      </trkpt>
      <trkpt lat="43.99644" lon="7.14958">
        <ele>723.59997558594</ele>
        <time>2019-05-11T15:14:24.000Z</time>
      </trkpt>
      <trkpt lat="43.99644" lon="7.14959">
        <ele>723.79998779297</ele>
        <time>2019-05-11T15:14:27.000Z</time>
      </trkpt>
      <trkpt lat="43.99644" lon="7.14959">
        <ele>724.20001220703</ele>
        <time>2019-05-11T15:14:31.000Z</time>
      </trkpt>
      <trkpt lat="43.99644" lon="7.1496">
        <ele>724.20001220703</ele>
        <time>2019-05-11T15:14:41.000Z</time>
      </trkpt>
      <trkpt lat="43.99644" lon="7.14961">
        <ele>724.59997558594</ele>
        <time>2019-05-11T15:14:49.000Z</time>
      </trkpt>
      <trkpt lat="43.99644" lon="7.14961">
        <ele>724.59997558594</ele>
        <time>2019-05-11T15:14:54.000Z</time>
      </trkpt>
      <trkpt lat="43.99645" lon="7.14963">
        <ele>724.20001220703</ele>
        <time>2019-05-11T15:15:02.000Z</time>
      </trkpt>
      <trkpt lat="43.99645" lon="7.14963">
        <ele>724.40002441406</ele>
        <time>2019-05-11T15:15:03.000Z</time>
      </trkpt>
    </trkseg>
  </trk>
</gpx>